<?xml version="1.0" encoding="UTF-8" standalone="no" ?>
<gpx xmlns="http://www.topografix.com/GPX/1/1" xmlns:xsi="http://www.w3.org/2001/XMLSchema-instance" xsi:schemaLocation="http://www.topografix.com/GPX/1/1 http://www.topografix.com/GPX/1/1/gpx.xsd" version="1.1" creator="VisuGPX - https://www.visugpx.com">
  <metadata>
    <name>BTTAlt800-ActivitéTerminée-J03</name>
  </metadata>
  <trk>
    <name><![CDATA[BTTAlt800-ActivitéTerminée-J03_1]]></name>
    <trkseg>
      <trkpt lat="46.18805" lon="4.53159">
        <ele>468.8</ele>
        <time>2025-09-07T07:17:33Z</time>
      </trkpt>
      <trkpt lat="46.18803" lon="4.53166">
        <ele>468.4</ele>
        <time>2025-09-07T07:17:34Z</time>
      </trkpt>
      <trkpt lat="46.18801" lon="4.53172">
        <ele>468</ele>
        <time>2025-09-07T07:17:35Z</time>
      </trkpt>
      <trkpt lat="46.188" lon="4.5318">
        <ele>467.6</ele>
        <time>2025-09-07T07:17:36Z</time>
      </trkpt>
      <trkpt lat="46.18799" lon="4.53187">
        <ele>467.6</ele>
        <time>2025-09-07T07:17:37Z</time>
      </trkpt>
      <trkpt lat="46.18797" lon="4.53194">
        <ele>467.6</ele>
        <time>2025-09-07T07:17:38Z</time>
      </trkpt>
      <trkpt lat="46.18796" lon="4.53201">
        <ele>467.2</ele>
        <time>2025-09-07T07:17:39Z</time>
      </trkpt>
      <trkpt lat="46.18796" lon="4.53209">
        <ele>467</ele>
        <time>2025-09-07T07:17:40Z</time>
      </trkpt>
      <trkpt lat="46.18792" lon="4.53216">
        <ele>466.8</ele>
        <time>2025-09-07T07:17:41Z</time>
      </trkpt>
      <trkpt lat="46.1879" lon="4.53224">
        <ele>466.4</ele>
        <time>2025-09-07T07:17:42Z</time>
      </trkpt>
      <trkpt lat="46.18788" lon="4.53233">
        <ele>466</ele>
        <time>2025-09-07T07:17:43Z</time>
      </trkpt>
      <trkpt lat="46.18788" lon="4.53243">
        <ele>466</ele>
        <time>2025-09-07T07:17:44Z</time>
      </trkpt>
      <trkpt lat="46.18786" lon="4.53252">
        <ele>465.4</ele>
        <time>2025-09-07T07:17:45Z</time>
      </trkpt>
      <trkpt lat="46.18787" lon="4.53261">
        <ele>465.4</ele>
        <time>2025-09-07T07:17:46Z</time>
      </trkpt>
      <trkpt lat="46.18787" lon="4.53273">
        <ele>465.4</ele>
        <time>2025-09-07T07:17:47Z</time>
      </trkpt>
      <trkpt lat="46.18789" lon="4.53279">
        <ele>465.4</ele>
        <time>2025-09-07T07:17:48Z</time>
      </trkpt>
      <trkpt lat="46.1879" lon="4.53287">
        <ele>465.8</ele>
        <time>2025-09-07T07:17:49Z</time>
      </trkpt>
      <trkpt lat="46.18791" lon="4.53293">
        <ele>466.2</ele>
        <time>2025-09-07T07:17:50Z</time>
      </trkpt>
      <trkpt lat="46.18792" lon="4.53298">
        <ele>466.4</ele>
        <time>2025-09-07T07:17:51Z</time>
      </trkpt>
      <trkpt lat="46.18793" lon="4.53306">
        <ele>466.6</ele>
        <time>2025-09-07T07:17:52Z</time>
      </trkpt>
      <trkpt lat="46.18794" lon="4.53307">
        <ele>466.8</ele>
        <time>2025-09-07T07:17:53Z</time>
      </trkpt>
      <trkpt lat="46.18796" lon="4.5331">
        <ele>467.2</ele>
        <time>2025-09-07T07:17:54Z</time>
      </trkpt>
      <trkpt lat="46.18797" lon="4.53313">
        <ele>467.6</ele>
        <time>2025-09-07T07:17:55Z</time>
      </trkpt>
      <trkpt lat="46.18799" lon="4.53316">
        <ele>468</ele>
        <time>2025-09-07T07:17:56Z</time>
      </trkpt>
      <trkpt lat="46.188" lon="4.53319">
        <ele>468</ele>
        <time>2025-09-07T07:17:57Z</time>
      </trkpt>
      <trkpt lat="46.18801" lon="4.53321">
        <ele>468</ele>
        <time>2025-09-07T07:17:58Z</time>
      </trkpt>
      <trkpt lat="46.18803" lon="4.53325">
        <ele>468.4</ele>
        <time>2025-09-07T07:17:59Z</time>
      </trkpt>
      <trkpt lat="46.18804" lon="4.53328">
        <ele>468.8</ele>
        <time>2025-09-07T07:18:00Z</time>
      </trkpt>
      <trkpt lat="46.18805" lon="4.53332">
        <ele>468.8</ele>
        <time>2025-09-07T07:18:01Z</time>
      </trkpt>
      <trkpt lat="46.18806" lon="4.53335">
        <ele>468.8</ele>
        <time>2025-09-07T07:18:02Z</time>
      </trkpt>
      <trkpt lat="46.18806" lon="4.5334">
        <ele>468.8</ele>
        <time>2025-09-07T07:18:03Z</time>
      </trkpt>
      <trkpt lat="46.18807" lon="4.53344">
        <ele>469</ele>
        <time>2025-09-07T07:18:04Z</time>
      </trkpt>
      <trkpt lat="46.18808" lon="4.53349">
        <ele>469</ele>
        <time>2025-09-07T07:18:05Z</time>
      </trkpt>
      <trkpt lat="46.18808" lon="4.53353">
        <ele>469</ele>
        <time>2025-09-07T07:18:06Z</time>
      </trkpt>
      <trkpt lat="46.18809" lon="4.53357">
        <ele>469</ele>
        <time>2025-09-07T07:18:07Z</time>
      </trkpt>
      <trkpt lat="46.18809" lon="4.53361">
        <ele>469</ele>
        <time>2025-09-07T07:18:08Z</time>
      </trkpt>
      <trkpt lat="46.1881" lon="4.53366">
        <ele>469</ele>
        <time>2025-09-07T07:18:09Z</time>
      </trkpt>
      <trkpt lat="46.18812" lon="4.5337">
        <ele>469.2</ele>
        <time>2025-09-07T07:18:10Z</time>
      </trkpt>
      <trkpt lat="46.18814" lon="4.53373">
        <ele>469.2</ele>
        <time>2025-09-07T07:18:11Z</time>
      </trkpt>
      <trkpt lat="46.18816" lon="4.53375">
        <ele>469.2</ele>
        <time>2025-09-07T07:18:12Z</time>
      </trkpt>
      <trkpt lat="46.18818" lon="4.53376">
        <ele>469.8</ele>
        <time>2025-09-07T07:18:13Z</time>
      </trkpt>
      <trkpt lat="46.1882" lon="4.53377">
        <ele>470.4</ele>
        <time>2025-09-07T07:18:14Z</time>
      </trkpt>
      <trkpt lat="46.18823" lon="4.53378">
        <ele>470.6</ele>
        <time>2025-09-07T07:18:15Z</time>
      </trkpt>
      <trkpt lat="46.18824" lon="4.53379">
        <ele>471.4</ele>
        <time>2025-09-07T07:18:16Z</time>
      </trkpt>
      <trkpt lat="46.18827" lon="4.53379">
        <ele>471.8</ele>
        <time>2025-09-07T07:18:17Z</time>
      </trkpt>
      <trkpt lat="46.18829" lon="4.5338">
        <ele>471.8</ele>
        <time>2025-09-07T07:18:18Z</time>
      </trkpt>
      <trkpt lat="46.1883" lon="4.53381">
        <ele>471.8</ele>
        <time>2025-09-07T07:18:19Z</time>
      </trkpt>
      <trkpt lat="46.18832" lon="4.53382">
        <ele>472.2</ele>
        <time>2025-09-07T07:18:20Z</time>
      </trkpt>
      <trkpt lat="46.18834" lon="4.53384">
        <ele>472.2</ele>
        <time>2025-09-07T07:18:21Z</time>
      </trkpt>
      <trkpt lat="46.18835" lon="4.53387">
        <ele>472.4</ele>
        <time>2025-09-07T07:18:22Z</time>
      </trkpt>
      <trkpt lat="46.18835" lon="4.53389">
        <ele>472.8</ele>
        <time>2025-09-07T07:18:23Z</time>
      </trkpt>
      <trkpt lat="46.18835" lon="4.53391">
        <ele>473</ele>
        <time>2025-09-07T07:18:24Z</time>
      </trkpt>
      <trkpt lat="46.18835" lon="4.53393">
        <ele>473.2</ele>
        <time>2025-09-07T07:18:25Z</time>
      </trkpt>
      <trkpt lat="46.18835" lon="4.53395">
        <ele>473.4</ele>
        <time>2025-09-07T07:18:26Z</time>
      </trkpt>
      <trkpt lat="46.18835" lon="4.53396">
        <ele>473.4</ele>
        <time>2025-09-07T07:18:27Z</time>
      </trkpt>
      <trkpt lat="46.18835" lon="4.53398">
        <ele>473.4</ele>
        <time>2025-09-07T07:18:28Z</time>
      </trkpt>
      <trkpt lat="46.18836" lon="4.534">
        <ele>473.4</ele>
        <time>2025-09-07T07:18:29Z</time>
      </trkpt>
      <trkpt lat="46.18837" lon="4.53403">
        <ele>473.4</ele>
        <time>2025-09-07T07:18:30Z</time>
      </trkpt>
      <trkpt lat="46.18838" lon="4.53406">
        <ele>473.8</ele>
        <time>2025-09-07T07:18:31Z</time>
      </trkpt>
      <trkpt lat="46.18839" lon="4.5341">
        <ele>473.8</ele>
        <time>2025-09-07T07:18:32Z</time>
      </trkpt>
      <trkpt lat="46.1884" lon="4.53413">
        <ele>473.8</ele>
        <time>2025-09-07T07:18:33Z</time>
      </trkpt>
      <trkpt lat="46.18842" lon="4.53416">
        <ele>473.8</ele>
        <time>2025-09-07T07:18:34Z</time>
      </trkpt>
      <trkpt lat="46.18843" lon="4.5342">
        <ele>473.8</ele>
        <time>2025-09-07T07:18:35Z</time>
      </trkpt>
      <trkpt lat="46.18844" lon="4.53422">
        <ele>473.8</ele>
        <time>2025-09-07T07:18:36Z</time>
      </trkpt>
      <trkpt lat="46.18845" lon="4.53425">
        <ele>473.8</ele>
        <time>2025-09-07T07:18:37Z</time>
      </trkpt>
      <trkpt lat="46.18846" lon="4.53428">
        <ele>474</ele>
        <time>2025-09-07T07:18:38Z</time>
      </trkpt>
      <trkpt lat="46.18848" lon="4.5343">
        <ele>474</ele>
        <time>2025-09-07T07:18:39Z</time>
      </trkpt>
      <trkpt lat="46.18848" lon="4.53432">
        <ele>474.6</ele>
        <time>2025-09-07T07:18:40Z</time>
      </trkpt>
      <trkpt lat="46.18849" lon="4.53434">
        <ele>474.6</ele>
        <time>2025-09-07T07:18:41Z</time>
      </trkpt>
      <trkpt lat="46.18849" lon="4.53436">
        <ele>475.2</ele>
        <time>2025-09-07T07:18:42Z</time>
      </trkpt>
      <trkpt lat="46.18849" lon="4.53438">
        <ele>475.2</ele>
        <time>2025-09-07T07:18:43Z</time>
      </trkpt>
      <trkpt lat="46.1885" lon="4.53439">
        <ele>475.4</ele>
        <time>2025-09-07T07:18:44Z</time>
      </trkpt>
      <trkpt lat="46.1885" lon="4.53441">
        <ele>475.8</ele>
        <time>2025-09-07T07:18:45Z</time>
      </trkpt>
      <trkpt lat="46.18851" lon="4.53443">
        <ele>475.8</ele>
        <time>2025-09-07T07:18:46Z</time>
      </trkpt>
      <trkpt lat="46.18851" lon="4.53445">
        <ele>475.6</ele>
        <time>2025-09-07T07:18:47Z</time>
      </trkpt>
      <trkpt lat="46.18851" lon="4.53446">
        <ele>475.6</ele>
        <time>2025-09-07T07:18:48Z</time>
      </trkpt>
      <trkpt lat="46.1885" lon="4.53446">
        <ele>475.6</ele>
        <time>2025-09-07T07:18:49Z</time>
      </trkpt>
      <trkpt lat="46.18848" lon="4.53446">
        <ele>475.6</ele>
        <time>2025-09-07T07:19:49Z</time>
      </trkpt>
      <trkpt lat="46.18849" lon="4.53447">
        <ele>475.6</ele>
        <time>2025-09-07T07:19:50Z</time>
      </trkpt>
      <trkpt lat="46.18849" lon="4.53449">
        <ele>475.6</ele>
        <time>2025-09-07T07:19:51Z</time>
      </trkpt>
      <trkpt lat="46.18849" lon="4.5345">
        <ele>475.6</ele>
        <time>2025-09-07T07:19:52Z</time>
      </trkpt>
      <trkpt lat="46.18845" lon="4.53457">
        <ele>475.4</ele>
        <time>2025-09-07T07:19:53Z</time>
      </trkpt>
      <trkpt lat="46.18843" lon="4.53461">
        <ele>475.4</ele>
        <time>2025-09-07T07:19:54Z</time>
      </trkpt>
      <trkpt lat="46.1884" lon="4.53465">
        <ele>475.4</ele>
        <time>2025-09-07T07:19:55Z</time>
      </trkpt>
      <trkpt lat="46.18837" lon="4.5347">
        <ele>474.8</ele>
        <time>2025-09-07T07:19:56Z</time>
      </trkpt>
      <trkpt lat="46.18832" lon="4.53474">
        <ele>474.4</ele>
        <time>2025-09-07T07:19:57Z</time>
      </trkpt>
      <trkpt lat="46.18827" lon="4.5348">
        <ele>474</ele>
        <time>2025-09-07T07:19:58Z</time>
      </trkpt>
      <trkpt lat="46.18822" lon="4.53484">
        <ele>473.6</ele>
        <time>2025-09-07T07:19:59Z</time>
      </trkpt>
      <trkpt lat="46.18814" lon="4.5349">
        <ele>472.8</ele>
        <time>2025-09-07T07:20:00Z</time>
      </trkpt>
      <trkpt lat="46.18807" lon="4.53496">
        <ele>472.2</ele>
        <time>2025-09-07T07:20:01Z</time>
      </trkpt>
      <trkpt lat="46.18802" lon="4.53502">
        <ele>471.6</ele>
        <time>2025-09-07T07:20:02Z</time>
      </trkpt>
      <trkpt lat="46.18797" lon="4.53509">
        <ele>470.6</ele>
        <time>2025-09-07T07:20:03Z</time>
      </trkpt>
      <trkpt lat="46.18793" lon="4.53515">
        <ele>470.2</ele>
        <time>2025-09-07T07:20:04Z</time>
      </trkpt>
      <trkpt lat="46.18789" lon="4.53523">
        <ele>469.6</ele>
        <time>2025-09-07T07:20:05Z</time>
      </trkpt>
      <trkpt lat="46.18785" lon="4.53532">
        <ele>469.2</ele>
        <time>2025-09-07T07:20:06Z</time>
      </trkpt>
      <trkpt lat="46.18782" lon="4.53541">
        <ele>468.6</ele>
        <time>2025-09-07T07:20:07Z</time>
      </trkpt>
      <trkpt lat="46.18779" lon="4.5355">
        <ele>467.8</ele>
        <time>2025-09-07T07:20:08Z</time>
      </trkpt>
      <trkpt lat="46.18778" lon="4.5356">
        <ele>467</ele>
        <time>2025-09-07T07:20:09Z</time>
      </trkpt>
      <trkpt lat="46.18777" lon="4.5357">
        <ele>466.4</ele>
        <time>2025-09-07T07:20:10Z</time>
      </trkpt>
      <trkpt lat="46.18777" lon="4.53581">
        <ele>465.6</ele>
        <time>2025-09-07T07:20:11Z</time>
      </trkpt>
      <trkpt lat="46.18777" lon="4.53592">
        <ele>465</ele>
        <time>2025-09-07T07:20:12Z</time>
      </trkpt>
      <trkpt lat="46.18779" lon="4.53603">
        <ele>464.4</ele>
        <time>2025-09-07T07:20:13Z</time>
      </trkpt>
      <trkpt lat="46.18781" lon="4.53615">
        <ele>463.8</ele>
        <time>2025-09-07T07:20:14Z</time>
      </trkpt>
      <trkpt lat="46.18782" lon="4.53626">
        <ele>463.4</ele>
        <time>2025-09-07T07:20:15Z</time>
      </trkpt>
      <trkpt lat="46.18785" lon="4.53636">
        <ele>462.6</ele>
        <time>2025-09-07T07:20:16Z</time>
      </trkpt>
      <trkpt lat="46.1879" lon="4.53656">
        <ele>462</ele>
        <time>2025-09-07T07:20:17Z</time>
      </trkpt>
      <trkpt lat="46.18794" lon="4.53665">
        <ele>461.6</ele>
        <time>2025-09-07T07:20:18Z</time>
      </trkpt>
      <trkpt lat="46.18798" lon="4.53673">
        <ele>461</ele>
        <time>2025-09-07T07:20:19Z</time>
      </trkpt>
      <trkpt lat="46.18804" lon="4.53681">
        <ele>460.4</ele>
        <time>2025-09-07T07:20:20Z</time>
      </trkpt>
      <trkpt lat="46.18812" lon="4.53687">
        <ele>459.8</ele>
        <time>2025-09-07T07:20:21Z</time>
      </trkpt>
      <trkpt lat="46.18819" lon="4.53693">
        <ele>459.2</ele>
        <time>2025-09-07T07:20:22Z</time>
      </trkpt>
      <trkpt lat="46.18827" lon="4.53699">
        <ele>458.4</ele>
        <time>2025-09-07T07:20:23Z</time>
      </trkpt>
      <trkpt lat="46.18834" lon="4.53705">
        <ele>457.8</ele>
        <time>2025-09-07T07:20:24Z</time>
      </trkpt>
      <trkpt lat="46.18841" lon="4.5371">
        <ele>457.2</ele>
        <time>2025-09-07T07:20:25Z</time>
      </trkpt>
      <trkpt lat="46.18847" lon="4.53717">
        <ele>456.8</ele>
        <time>2025-09-07T07:20:26Z</time>
      </trkpt>
      <trkpt lat="46.18853" lon="4.53725">
        <ele>456.4</ele>
        <time>2025-09-07T07:20:27Z</time>
      </trkpt>
      <trkpt lat="46.18859" lon="4.53732">
        <ele>456.2</ele>
        <time>2025-09-07T07:20:28Z</time>
      </trkpt>
      <trkpt lat="46.18863" lon="4.53742">
        <ele>456.2</ele>
        <time>2025-09-07T07:20:29Z</time>
      </trkpt>
      <trkpt lat="46.18867" lon="4.53752">
        <ele>456.2</ele>
        <time>2025-09-07T07:20:30Z</time>
      </trkpt>
      <trkpt lat="46.18871" lon="4.53763">
        <ele>455.6</ele>
        <time>2025-09-07T07:20:31Z</time>
      </trkpt>
      <trkpt lat="46.18873" lon="4.53774">
        <ele>455.4</ele>
        <time>2025-09-07T07:20:32Z</time>
      </trkpt>
      <trkpt lat="46.18875" lon="4.53783">
        <ele>455</ele>
        <time>2025-09-07T07:20:33Z</time>
      </trkpt>
      <trkpt lat="46.18877" lon="4.53794">
        <ele>454.8</ele>
        <time>2025-09-07T07:20:34Z</time>
      </trkpt>
      <trkpt lat="46.18878" lon="4.53806">
        <ele>454.6</ele>
        <time>2025-09-07T07:20:35Z</time>
      </trkpt>
      <trkpt lat="46.18879" lon="4.53816">
        <ele>454.6</ele>
        <time>2025-09-07T07:20:36Z</time>
      </trkpt>
      <trkpt lat="46.18878" lon="4.53828">
        <ele>454.6</ele>
        <time>2025-09-07T07:20:37Z</time>
      </trkpt>
      <trkpt lat="46.18876" lon="4.53838">
        <ele>454</ele>
        <time>2025-09-07T07:20:38Z</time>
      </trkpt>
      <trkpt lat="46.18873" lon="4.53849">
        <ele>453.4</ele>
        <time>2025-09-07T07:20:39Z</time>
      </trkpt>
      <trkpt lat="46.1887" lon="4.53859">
        <ele>453.4</ele>
        <time>2025-09-07T07:20:40Z</time>
      </trkpt>
      <trkpt lat="46.18866" lon="4.53867">
        <ele>452.8</ele>
        <time>2025-09-07T07:20:41Z</time>
      </trkpt>
      <trkpt lat="46.18861" lon="4.53873">
        <ele>452.4</ele>
        <time>2025-09-07T07:20:42Z</time>
      </trkpt>
      <trkpt lat="46.18855" lon="4.53878">
        <ele>452</ele>
        <time>2025-09-07T07:20:43Z</time>
      </trkpt>
      <trkpt lat="46.18852" lon="4.53885">
        <ele>451.6</ele>
        <time>2025-09-07T07:20:44Z</time>
      </trkpt>
      <trkpt lat="46.18847" lon="4.53892">
        <ele>451.4</ele>
        <time>2025-09-07T07:20:45Z</time>
      </trkpt>
      <trkpt lat="46.18843" lon="4.53898">
        <ele>451</ele>
        <time>2025-09-07T07:20:46Z</time>
      </trkpt>
      <trkpt lat="46.18841" lon="4.53907">
        <ele>450.8</ele>
        <time>2025-09-07T07:20:47Z</time>
      </trkpt>
      <trkpt lat="46.18834" lon="4.53914">
        <ele>450.4</ele>
        <time>2025-09-07T07:20:48Z</time>
      </trkpt>
      <trkpt lat="46.18833" lon="4.53923">
        <ele>450.2</ele>
        <time>2025-09-07T07:20:49Z</time>
      </trkpt>
      <trkpt lat="46.18831" lon="4.53933">
        <ele>449.8</ele>
        <time>2025-09-07T07:20:50Z</time>
      </trkpt>
      <trkpt lat="46.18827" lon="4.53941">
        <ele>449.6</ele>
        <time>2025-09-07T07:20:51Z</time>
      </trkpt>
      <trkpt lat="46.18824" lon="4.53952">
        <ele>449.4</ele>
        <time>2025-09-07T07:20:52Z</time>
      </trkpt>
      <trkpt lat="46.18822" lon="4.5396">
        <ele>449</ele>
        <time>2025-09-07T07:20:53Z</time>
      </trkpt>
      <trkpt lat="46.18817" lon="4.53971">
        <ele>448.4</ele>
        <time>2025-09-07T07:20:54Z</time>
      </trkpt>
      <trkpt lat="46.18815" lon="4.53981">
        <ele>447.8</ele>
        <time>2025-09-07T07:20:55Z</time>
      </trkpt>
      <trkpt lat="46.18812" lon="4.53991">
        <ele>447.4</ele>
        <time>2025-09-07T07:20:56Z</time>
      </trkpt>
      <trkpt lat="46.18812" lon="4.53991">
        <ele>447</ele>
        <time>2025-09-07T07:20:57Z</time>
      </trkpt>
      <trkpt lat="46.18811" lon="4.54002">
        <ele>446.4</ele>
        <time>2025-09-07T07:20:58Z</time>
      </trkpt>
      <trkpt lat="46.18809" lon="4.54013">
        <ele>446</ele>
        <time>2025-09-07T07:20:59Z</time>
      </trkpt>
      <trkpt lat="46.18809" lon="4.54024">
        <ele>445.4</ele>
        <time>2025-09-07T07:21:00Z</time>
      </trkpt>
      <trkpt lat="46.18807" lon="4.54035">
        <ele>444.8</ele>
        <time>2025-09-07T07:21:01Z</time>
      </trkpt>
      <trkpt lat="46.18807" lon="4.54048">
        <ele>444.4</ele>
        <time>2025-09-07T07:21:02Z</time>
      </trkpt>
      <trkpt lat="46.18807" lon="4.5406">
        <ele>443.6</ele>
        <time>2025-09-07T07:21:03Z</time>
      </trkpt>
      <trkpt lat="46.18805" lon="4.54071">
        <ele>443.2</ele>
        <time>2025-09-07T07:21:04Z</time>
      </trkpt>
      <trkpt lat="46.18804" lon="4.54084">
        <ele>442.8</ele>
        <time>2025-09-07T07:21:05Z</time>
      </trkpt>
      <trkpt lat="46.18805" lon="4.54095">
        <ele>442.4</ele>
        <time>2025-09-07T07:21:06Z</time>
      </trkpt>
      <trkpt lat="46.18805" lon="4.54107">
        <ele>442</ele>
        <time>2025-09-07T07:21:07Z</time>
      </trkpt>
      <trkpt lat="46.18804" lon="4.54119">
        <ele>441.4</ele>
        <time>2025-09-07T07:21:08Z</time>
      </trkpt>
      <trkpt lat="46.18805" lon="4.5413">
        <ele>441.2</ele>
        <time>2025-09-07T07:21:09Z</time>
      </trkpt>
      <trkpt lat="46.18806" lon="4.54142">
        <ele>440.6</ele>
        <time>2025-09-07T07:21:10Z</time>
      </trkpt>
      <trkpt lat="46.18806" lon="4.54155">
        <ele>439.8</ele>
        <time>2025-09-07T07:21:11Z</time>
      </trkpt>
      <trkpt lat="46.18805" lon="4.54167">
        <ele>439.4</ele>
        <time>2025-09-07T07:21:12Z</time>
      </trkpt>
      <trkpt lat="46.18806" lon="4.5418">
        <ele>439</ele>
        <time>2025-09-07T07:21:13Z</time>
      </trkpt>
      <trkpt lat="46.18806" lon="4.54193">
        <ele>438.6</ele>
        <time>2025-09-07T07:21:14Z</time>
      </trkpt>
      <trkpt lat="46.18807" lon="4.54207">
        <ele>438.2</ele>
        <time>2025-09-07T07:21:15Z</time>
      </trkpt>
      <trkpt lat="46.18808" lon="4.5422">
        <ele>437.8</ele>
        <time>2025-09-07T07:21:16Z</time>
      </trkpt>
      <trkpt lat="46.18808" lon="4.54234">
        <ele>437.2</ele>
        <time>2025-09-07T07:21:17Z</time>
      </trkpt>
      <trkpt lat="46.18805" lon="4.54247">
        <ele>436.6</ele>
        <time>2025-09-07T07:21:18Z</time>
      </trkpt>
      <trkpt lat="46.18804" lon="4.54261">
        <ele>436.2</ele>
        <time>2025-09-07T07:21:19Z</time>
      </trkpt>
      <trkpt lat="46.18803" lon="4.54274">
        <ele>435.8</ele>
        <time>2025-09-07T07:21:20Z</time>
      </trkpt>
      <trkpt lat="46.18802" lon="4.54288">
        <ele>435.8</ele>
        <time>2025-09-07T07:21:21Z</time>
      </trkpt>
      <trkpt lat="46.188" lon="4.54301">
        <ele>435.6</ele>
        <time>2025-09-07T07:21:22Z</time>
      </trkpt>
      <trkpt lat="46.18799" lon="4.54313">
        <ele>435.6</ele>
        <time>2025-09-07T07:21:23Z</time>
      </trkpt>
      <trkpt lat="46.18797" lon="4.54325">
        <ele>435</ele>
        <time>2025-09-07T07:21:24Z</time>
      </trkpt>
      <trkpt lat="46.18795" lon="4.54337">
        <ele>435</ele>
        <time>2025-09-07T07:21:25Z</time>
      </trkpt>
      <trkpt lat="46.18793" lon="4.54348">
        <ele>435</ele>
        <time>2025-09-07T07:21:26Z</time>
      </trkpt>
      <trkpt lat="46.18791" lon="4.54358">
        <ele>435.4</ele>
        <time>2025-09-07T07:21:27Z</time>
      </trkpt>
      <trkpt lat="46.1879" lon="4.54367">
        <ele>435</ele>
        <time>2025-09-07T07:21:28Z</time>
      </trkpt>
      <trkpt lat="46.18788" lon="4.54375">
        <ele>435</ele>
        <time>2025-09-07T07:21:29Z</time>
      </trkpt>
      <trkpt lat="46.18787" lon="4.54381">
        <ele>435</ele>
        <time>2025-09-07T07:21:30Z</time>
      </trkpt>
      <trkpt lat="46.18787" lon="4.54387">
        <ele>435</ele>
        <time>2025-09-07T07:21:31Z</time>
      </trkpt>
      <trkpt lat="46.18786" lon="4.54392">
        <ele>435</ele>
        <time>2025-09-07T07:21:32Z</time>
      </trkpt>
      <trkpt lat="46.18786" lon="4.54397">
        <ele>434.8</ele>
        <time>2025-09-07T07:21:33Z</time>
      </trkpt>
      <trkpt lat="46.18784" lon="4.54402">
        <ele>434.8</ele>
        <time>2025-09-07T07:21:34Z</time>
      </trkpt>
      <trkpt lat="46.18783" lon="4.54406">
        <ele>434.4</ele>
        <time>2025-09-07T07:21:35Z</time>
      </trkpt>
      <trkpt lat="46.18782" lon="4.54411">
        <ele>434.4</ele>
        <time>2025-09-07T07:21:36Z</time>
      </trkpt>
      <trkpt lat="46.1878" lon="4.54417">
        <ele>434</ele>
        <time>2025-09-07T07:21:37Z</time>
      </trkpt>
      <trkpt lat="46.18777" lon="4.54422">
        <ele>434</ele>
        <time>2025-09-07T07:21:38Z</time>
      </trkpt>
      <trkpt lat="46.18773" lon="4.54427">
        <ele>433.6</ele>
        <time>2025-09-07T07:21:39Z</time>
      </trkpt>
      <trkpt lat="46.1877" lon="4.54433">
        <ele>433.2</ele>
        <time>2025-09-07T07:21:40Z</time>
      </trkpt>
      <trkpt lat="46.18767" lon="4.54438">
        <ele>433.2</ele>
        <time>2025-09-07T07:21:41Z</time>
      </trkpt>
      <trkpt lat="46.18764" lon="4.54447">
        <ele>432.8</ele>
        <time>2025-09-07T07:21:42Z</time>
      </trkpt>
      <trkpt lat="46.1876" lon="4.54454">
        <ele>432.4</ele>
        <time>2025-09-07T07:21:43Z</time>
      </trkpt>
      <trkpt lat="46.18757" lon="4.54461">
        <ele>432</ele>
        <time>2025-09-07T07:21:44Z</time>
      </trkpt>
      <trkpt lat="46.18754" lon="4.5447">
        <ele>431.4</ele>
        <time>2025-09-07T07:21:45Z</time>
      </trkpt>
      <trkpt lat="46.1875" lon="4.54479">
        <ele>430.8</ele>
        <time>2025-09-07T07:21:46Z</time>
      </trkpt>
      <trkpt lat="46.18745" lon="4.54489">
        <ele>430.2</ele>
        <time>2025-09-07T07:21:47Z</time>
      </trkpt>
      <trkpt lat="46.18742" lon="4.54499">
        <ele>429.6</ele>
        <time>2025-09-07T07:21:48Z</time>
      </trkpt>
      <trkpt lat="46.18738" lon="4.54509">
        <ele>429</ele>
        <time>2025-09-07T07:21:49Z</time>
      </trkpt>
      <trkpt lat="46.18734" lon="4.54519">
        <ele>429</ele>
        <time>2025-09-07T07:21:50Z</time>
      </trkpt>
      <trkpt lat="46.18731" lon="4.5453">
        <ele>428.4</ele>
        <time>2025-09-07T07:21:51Z</time>
      </trkpt>
      <trkpt lat="46.18726" lon="4.5454">
        <ele>428</ele>
        <time>2025-09-07T07:21:52Z</time>
      </trkpt>
      <trkpt lat="46.18722" lon="4.54551">
        <ele>427.4</ele>
        <time>2025-09-07T07:21:53Z</time>
      </trkpt>
      <trkpt lat="46.18719" lon="4.54562">
        <ele>426.6</ele>
        <time>2025-09-07T07:21:54Z</time>
      </trkpt>
      <trkpt lat="46.18716" lon="4.54573">
        <ele>426.2</ele>
        <time>2025-09-07T07:21:55Z</time>
      </trkpt>
      <trkpt lat="46.18713" lon="4.54583">
        <ele>425.6</ele>
        <time>2025-09-07T07:21:56Z</time>
      </trkpt>
      <trkpt lat="46.18711" lon="4.54594">
        <ele>425.2</ele>
        <time>2025-09-07T07:21:57Z</time>
      </trkpt>
      <trkpt lat="46.1871" lon="4.54603">
        <ele>425.2</ele>
        <time>2025-09-07T07:21:58Z</time>
      </trkpt>
      <trkpt lat="46.18709" lon="4.54611">
        <ele>425.2</ele>
        <time>2025-09-07T07:21:59Z</time>
      </trkpt>
      <trkpt lat="46.18709" lon="4.54618">
        <ele>424.6</ele>
        <time>2025-09-07T07:22:00Z</time>
      </trkpt>
      <trkpt lat="46.18709" lon="4.54625">
        <ele>424.4</ele>
        <time>2025-09-07T07:22:01Z</time>
      </trkpt>
      <trkpt lat="46.18709" lon="4.5463">
        <ele>424</ele>
        <time>2025-09-07T07:22:02Z</time>
      </trkpt>
      <trkpt lat="46.1871" lon="4.54636">
        <ele>423.8</ele>
        <time>2025-09-07T07:22:03Z</time>
      </trkpt>
      <trkpt lat="46.18711" lon="4.54641">
        <ele>423.6</ele>
        <time>2025-09-07T07:22:04Z</time>
      </trkpt>
      <trkpt lat="46.18712" lon="4.54645">
        <ele>423.6</ele>
        <time>2025-09-07T07:22:05Z</time>
      </trkpt>
      <trkpt lat="46.18713" lon="4.54649">
        <ele>423.2</ele>
        <time>2025-09-07T07:22:06Z</time>
      </trkpt>
      <trkpt lat="46.18716" lon="4.54651">
        <ele>423.2</ele>
        <time>2025-09-07T07:22:07Z</time>
      </trkpt>
      <trkpt lat="46.18717" lon="4.54653">
        <ele>422.8</ele>
        <time>2025-09-07T07:22:08Z</time>
      </trkpt>
      <trkpt lat="46.1872" lon="4.54654">
        <ele>422.8</ele>
        <time>2025-09-07T07:22:09Z</time>
      </trkpt>
      <trkpt lat="46.18723" lon="4.54656">
        <ele>422.8</ele>
        <time>2025-09-07T07:22:10Z</time>
      </trkpt>
      <trkpt lat="46.18726" lon="4.54659">
        <ele>422.8</ele>
        <time>2025-09-07T07:22:11Z</time>
      </trkpt>
      <trkpt lat="46.1873" lon="4.54662">
        <ele>422.6</ele>
        <time>2025-09-07T07:22:12Z</time>
      </trkpt>
      <trkpt lat="46.18733" lon="4.54664">
        <ele>422.6</ele>
        <time>2025-09-07T07:22:13Z</time>
      </trkpt>
      <trkpt lat="46.18739" lon="4.54669">
        <ele>422.4</ele>
        <time>2025-09-07T07:22:14Z</time>
      </trkpt>
      <trkpt lat="46.18744" lon="4.54673">
        <ele>422.4</ele>
        <time>2025-09-07T07:22:15Z</time>
      </trkpt>
      <trkpt lat="46.18748" lon="4.54676">
        <ele>421.8</ele>
        <time>2025-09-07T07:22:16Z</time>
      </trkpt>
      <trkpt lat="46.18753" lon="4.5468">
        <ele>421.6</ele>
        <time>2025-09-07T07:22:17Z</time>
      </trkpt>
      <trkpt lat="46.1876" lon="4.54681">
        <ele>421.4</ele>
        <time>2025-09-07T07:22:18Z</time>
      </trkpt>
      <trkpt lat="46.18764" lon="4.54687">
        <ele>421.2</ele>
        <time>2025-09-07T07:22:19Z</time>
      </trkpt>
      <trkpt lat="46.18775" lon="4.54687">
        <ele>420.8</ele>
        <time>2025-09-07T07:22:20Z</time>
      </trkpt>
      <trkpt lat="46.18781" lon="4.54691">
        <ele>420.8</ele>
        <time>2025-09-07T07:22:21Z</time>
      </trkpt>
      <trkpt lat="46.18787" lon="4.54692">
        <ele>420.8</ele>
        <time>2025-09-07T07:22:22Z</time>
      </trkpt>
      <trkpt lat="46.18797" lon="4.54694">
        <ele>421</ele>
        <time>2025-09-07T07:22:23Z</time>
      </trkpt>
      <trkpt lat="46.18804" lon="4.54696">
        <ele>420.4</ele>
        <time>2025-09-07T07:22:24Z</time>
      </trkpt>
      <trkpt lat="46.1881" lon="4.54699">
        <ele>420.4</ele>
        <time>2025-09-07T07:22:25Z</time>
      </trkpt>
      <trkpt lat="46.18817" lon="4.54701">
        <ele>419.8</ele>
        <time>2025-09-07T07:22:26Z</time>
      </trkpt>
      <trkpt lat="46.18825" lon="4.54703">
        <ele>418.6</ele>
        <time>2025-09-07T07:22:27Z</time>
      </trkpt>
      <trkpt lat="46.18832" lon="4.54705">
        <ele>418.2</ele>
        <time>2025-09-07T07:22:28Z</time>
      </trkpt>
      <trkpt lat="46.18837" lon="4.54707">
        <ele>417.6</ele>
        <time>2025-09-07T07:22:29Z</time>
      </trkpt>
      <trkpt lat="46.18842" lon="4.54711">
        <ele>417.4</ele>
        <time>2025-09-07T07:22:30Z</time>
      </trkpt>
      <trkpt lat="46.18847" lon="4.54715">
        <ele>417</ele>
        <time>2025-09-07T07:22:31Z</time>
      </trkpt>
      <trkpt lat="46.18851" lon="4.54722">
        <ele>416.6</ele>
        <time>2025-09-07T07:22:32Z</time>
      </trkpt>
      <trkpt lat="46.18854" lon="4.54729">
        <ele>416.2</ele>
        <time>2025-09-07T07:22:33Z</time>
      </trkpt>
      <trkpt lat="46.18857" lon="4.54736">
        <ele>416</ele>
        <time>2025-09-07T07:22:34Z</time>
      </trkpt>
      <trkpt lat="46.18862" lon="4.54742">
        <ele>416</ele>
        <time>2025-09-07T07:22:35Z</time>
      </trkpt>
      <trkpt lat="46.18862" lon="4.54752">
        <ele>416</ele>
        <time>2025-09-07T07:22:36Z</time>
      </trkpt>
      <trkpt lat="46.18865" lon="4.5476">
        <ele>415.4</ele>
        <time>2025-09-07T07:22:37Z</time>
      </trkpt>
      <trkpt lat="46.18866" lon="4.54769">
        <ele>415</ele>
        <time>2025-09-07T07:22:38Z</time>
      </trkpt>
      <trkpt lat="46.18865" lon="4.54776">
        <ele>415</ele>
        <time>2025-09-07T07:22:39Z</time>
      </trkpt>
      <trkpt lat="46.18862" lon="4.54784">
        <ele>415.4</ele>
        <time>2025-09-07T07:22:40Z</time>
      </trkpt>
      <trkpt lat="46.18859" lon="4.54788">
        <ele>415.6</ele>
        <time>2025-09-07T07:22:41Z</time>
      </trkpt>
      <trkpt lat="46.18856" lon="4.54793">
        <ele>415.6</ele>
        <time>2025-09-07T07:22:42Z</time>
      </trkpt>
      <trkpt lat="46.18853" lon="4.54797">
        <ele>415.4</ele>
        <time>2025-09-07T07:22:43Z</time>
      </trkpt>
      <trkpt lat="46.1885" lon="4.54801">
        <ele>415.4</ele>
        <time>2025-09-07T07:22:44Z</time>
      </trkpt>
      <trkpt lat="46.18848" lon="4.54805">
        <ele>415.4</ele>
        <time>2025-09-07T07:22:45Z</time>
      </trkpt>
      <trkpt lat="46.18844" lon="4.54809">
        <ele>415.4</ele>
        <time>2025-09-07T07:22:46Z</time>
      </trkpt>
      <trkpt lat="46.18841" lon="4.54813">
        <ele>415.4</ele>
        <time>2025-09-07T07:22:47Z</time>
      </trkpt>
      <trkpt lat="46.18835" lon="4.54815">
        <ele>415.2</ele>
        <time>2025-09-07T07:22:48Z</time>
      </trkpt>
      <trkpt lat="46.1883" lon="4.54819">
        <ele>415.2</ele>
        <time>2025-09-07T07:22:49Z</time>
      </trkpt>
      <trkpt lat="46.18827" lon="4.54823">
        <ele>415.2</ele>
        <time>2025-09-07T07:22:50Z</time>
      </trkpt>
      <trkpt lat="46.18824" lon="4.54827">
        <ele>415.2</ele>
        <time>2025-09-07T07:22:51Z</time>
      </trkpt>
      <trkpt lat="46.1882" lon="4.54832">
        <ele>415</ele>
        <time>2025-09-07T07:22:52Z</time>
      </trkpt>
      <trkpt lat="46.18816" lon="4.54837">
        <ele>415</ele>
        <time>2025-09-07T07:22:53Z</time>
      </trkpt>
      <trkpt lat="46.18812" lon="4.54842">
        <ele>415</ele>
        <time>2025-09-07T07:22:54Z</time>
      </trkpt>
      <trkpt lat="46.18808" lon="4.54847">
        <ele>414.6</ele>
        <time>2025-09-07T07:22:55Z</time>
      </trkpt>
      <trkpt lat="46.18804" lon="4.54852">
        <ele>414.6</ele>
        <time>2025-09-07T07:22:56Z</time>
      </trkpt>
      <trkpt lat="46.18799" lon="4.54857">
        <ele>414.6</ele>
        <time>2025-09-07T07:22:57Z</time>
      </trkpt>
      <trkpt lat="46.18795" lon="4.54862">
        <ele>414.6</ele>
        <time>2025-09-07T07:22:58Z</time>
      </trkpt>
      <trkpt lat="46.18791" lon="4.54867">
        <ele>414</ele>
        <time>2025-09-07T07:22:59Z</time>
      </trkpt>
      <trkpt lat="46.18786" lon="4.54872">
        <ele>413.6</ele>
        <time>2025-09-07T07:23:00Z</time>
      </trkpt>
      <trkpt lat="46.18782" lon="4.54878">
        <ele>413.2</ele>
        <time>2025-09-07T07:23:01Z</time>
      </trkpt>
      <trkpt lat="46.18778" lon="4.54883">
        <ele>413.2</ele>
        <time>2025-09-07T07:23:02Z</time>
      </trkpt>
      <trkpt lat="46.18772" lon="4.54889">
        <ele>413</ele>
        <time>2025-09-07T07:23:03Z</time>
      </trkpt>
      <trkpt lat="46.18768" lon="4.54893">
        <ele>412.6</ele>
        <time>2025-09-07T07:23:04Z</time>
      </trkpt>
      <trkpt lat="46.18763" lon="4.54899">
        <ele>412.6</ele>
        <time>2025-09-07T07:23:05Z</time>
      </trkpt>
      <trkpt lat="46.18758" lon="4.54904">
        <ele>412</ele>
        <time>2025-09-07T07:23:06Z</time>
      </trkpt>
      <trkpt lat="46.18754" lon="4.54908">
        <ele>412</ele>
        <time>2025-09-07T07:23:07Z</time>
      </trkpt>
      <trkpt lat="46.18745" lon="4.54915">
        <ele>411.6</ele>
        <time>2025-09-07T07:23:08Z</time>
      </trkpt>
      <trkpt lat="46.18739" lon="4.54921">
        <ele>411.6</ele>
        <time>2025-09-07T07:23:09Z</time>
      </trkpt>
      <trkpt lat="46.18732" lon="4.54927">
        <ele>411</ele>
        <time>2025-09-07T07:23:10Z</time>
      </trkpt>
      <trkpt lat="46.18725" lon="4.54934">
        <ele>410.4</ele>
        <time>2025-09-07T07:23:11Z</time>
      </trkpt>
      <trkpt lat="46.18718" lon="4.54939">
        <ele>410.2</ele>
        <time>2025-09-07T07:23:12Z</time>
      </trkpt>
      <trkpt lat="46.18711" lon="4.54946">
        <ele>409.8</ele>
        <time>2025-09-07T07:23:13Z</time>
      </trkpt>
      <trkpt lat="46.18696" lon="4.5496">
        <ele>409</ele>
        <time>2025-09-07T07:23:14Z</time>
      </trkpt>
      <trkpt lat="46.18689" lon="4.54965">
        <ele>408.6</ele>
        <time>2025-09-07T07:23:15Z</time>
      </trkpt>
      <trkpt lat="46.18681" lon="4.54971">
        <ele>408.4</ele>
        <time>2025-09-07T07:23:16Z</time>
      </trkpt>
      <trkpt lat="46.18674" lon="4.54977">
        <ele>408.2</ele>
        <time>2025-09-07T07:23:17Z</time>
      </trkpt>
      <trkpt lat="46.18666" lon="4.54981">
        <ele>408.2</ele>
        <time>2025-09-07T07:23:18Z</time>
      </trkpt>
      <trkpt lat="46.18658" lon="4.54986">
        <ele>407.8</ele>
        <time>2025-09-07T07:23:19Z</time>
      </trkpt>
      <trkpt lat="46.18649" lon="4.54989">
        <ele>408</ele>
        <time>2025-09-07T07:23:20Z</time>
      </trkpt>
      <trkpt lat="46.18642" lon="4.54992">
        <ele>407.6</ele>
        <time>2025-09-07T07:23:21Z</time>
      </trkpt>
      <trkpt lat="46.18635" lon="4.54996">
        <ele>407.6</ele>
        <time>2025-09-07T07:23:22Z</time>
      </trkpt>
      <trkpt lat="46.18628" lon="4.54998">
        <ele>407.6</ele>
        <time>2025-09-07T07:23:23Z</time>
      </trkpt>
      <trkpt lat="46.18622" lon="4.55">
        <ele>407.4</ele>
        <time>2025-09-07T07:23:24Z</time>
      </trkpt>
      <trkpt lat="46.18616" lon="4.55002">
        <ele>407.4</ele>
        <time>2025-09-07T07:23:25Z</time>
      </trkpt>
      <trkpt lat="46.18612" lon="4.55006">
        <ele>407.4</ele>
        <time>2025-09-07T07:23:26Z</time>
      </trkpt>
      <trkpt lat="46.18606" lon="4.55009">
        <ele>407.6</ele>
        <time>2025-09-07T07:23:27Z</time>
      </trkpt>
      <trkpt lat="46.18603" lon="4.55013">
        <ele>407.6</ele>
        <time>2025-09-07T07:23:28Z</time>
      </trkpt>
      <trkpt lat="46.186" lon="4.55017">
        <ele>407.6</ele>
        <time>2025-09-07T07:23:29Z</time>
      </trkpt>
      <trkpt lat="46.18599" lon="4.55021">
        <ele>408</ele>
        <time>2025-09-07T07:23:30Z</time>
      </trkpt>
      <trkpt lat="46.18597" lon="4.55024">
        <ele>408</ele>
        <time>2025-09-07T07:23:31Z</time>
      </trkpt>
      <trkpt lat="46.18595" lon="4.55027">
        <ele>408</ele>
        <time>2025-09-07T07:23:32Z</time>
      </trkpt>
      <trkpt lat="46.18592" lon="4.55028">
        <ele>408</ele>
        <time>2025-09-07T07:23:33Z</time>
      </trkpt>
      <trkpt lat="46.18589" lon="4.55031">
        <ele>407.6</ele>
        <time>2025-09-07T07:23:34Z</time>
      </trkpt>
      <trkpt lat="46.18583" lon="4.55031">
        <ele>407.6</ele>
        <time>2025-09-07T07:23:35Z</time>
      </trkpt>
      <trkpt lat="46.18579" lon="4.55033">
        <ele>407.4</ele>
        <time>2025-09-07T07:23:36Z</time>
      </trkpt>
      <trkpt lat="46.18575" lon="4.55036">
        <ele>407.4</ele>
        <time>2025-09-07T07:23:37Z</time>
      </trkpt>
      <trkpt lat="46.1857" lon="4.55038">
        <ele>407.4</ele>
        <time>2025-09-07T07:23:38Z</time>
      </trkpt>
      <trkpt lat="46.18564" lon="4.5504">
        <ele>407.4</ele>
        <time>2025-09-07T07:23:39Z</time>
      </trkpt>
      <trkpt lat="46.18559" lon="4.55043">
        <ele>407</ele>
        <time>2025-09-07T07:23:40Z</time>
      </trkpt>
      <trkpt lat="46.18553" lon="4.55045">
        <ele>407</ele>
        <time>2025-09-07T07:23:41Z</time>
      </trkpt>
      <trkpt lat="46.18546" lon="4.55047">
        <ele>407</ele>
        <time>2025-09-07T07:23:42Z</time>
      </trkpt>
      <trkpt lat="46.1854" lon="4.5505">
        <ele>406.4</ele>
        <time>2025-09-07T07:23:43Z</time>
      </trkpt>
      <trkpt lat="46.18536" lon="4.55053">
        <ele>406</ele>
        <time>2025-09-07T07:23:44Z</time>
      </trkpt>
      <trkpt lat="46.18529" lon="4.55056">
        <ele>405.8</ele>
        <time>2025-09-07T07:23:45Z</time>
      </trkpt>
      <trkpt lat="46.18522" lon="4.5506">
        <ele>405.4</ele>
        <time>2025-09-07T07:23:46Z</time>
      </trkpt>
      <trkpt lat="46.18515" lon="4.55064">
        <ele>405.2</ele>
        <time>2025-09-07T07:23:47Z</time>
      </trkpt>
      <trkpt lat="46.18507" lon="4.55067">
        <ele>404.6</ele>
        <time>2025-09-07T07:23:48Z</time>
      </trkpt>
      <trkpt lat="46.18499" lon="4.55071">
        <ele>404.4</ele>
        <time>2025-09-07T07:23:49Z</time>
      </trkpt>
      <trkpt lat="46.18492" lon="4.55074">
        <ele>404</ele>
        <time>2025-09-07T07:23:50Z</time>
      </trkpt>
      <trkpt lat="46.18486" lon="4.55078">
        <ele>403.6</ele>
        <time>2025-09-07T07:23:51Z</time>
      </trkpt>
      <trkpt lat="46.18476" lon="4.55081">
        <ele>403.4</ele>
        <time>2025-09-07T07:23:52Z</time>
      </trkpt>
      <trkpt lat="46.18469" lon="4.55085">
        <ele>403</ele>
        <time>2025-09-07T07:23:53Z</time>
      </trkpt>
      <trkpt lat="46.1846" lon="4.55089">
        <ele>402.6</ele>
        <time>2025-09-07T07:23:54Z</time>
      </trkpt>
      <trkpt lat="46.18453" lon="4.55093">
        <ele>402</ele>
        <time>2025-09-07T07:23:55Z</time>
      </trkpt>
      <trkpt lat="46.18445" lon="4.55098">
        <ele>401.4</ele>
        <time>2025-09-07T07:23:56Z</time>
      </trkpt>
      <trkpt lat="46.18436" lon="4.55101">
        <ele>401</ele>
        <time>2025-09-07T07:23:57Z</time>
      </trkpt>
      <trkpt lat="46.18429" lon="4.55105">
        <ele>401</ele>
        <time>2025-09-07T07:23:58Z</time>
      </trkpt>
      <trkpt lat="46.18421" lon="4.55109">
        <ele>400.6</ele>
        <time>2025-09-07T07:23:59Z</time>
      </trkpt>
      <trkpt lat="46.18413" lon="4.55112">
        <ele>400.6</ele>
        <time>2025-09-07T07:24:00Z</time>
      </trkpt>
      <trkpt lat="46.18406" lon="4.55115">
        <ele>400.4</ele>
        <time>2025-09-07T07:24:01Z</time>
      </trkpt>
      <trkpt lat="46.18398" lon="4.55118">
        <ele>400</ele>
        <time>2025-09-07T07:24:02Z</time>
      </trkpt>
      <trkpt lat="46.1839" lon="4.55119">
        <ele>399.6</ele>
        <time>2025-09-07T07:24:03Z</time>
      </trkpt>
      <trkpt lat="46.1839" lon="4.55119">
        <ele>399.6</ele>
        <time>2025-09-07T07:24:04Z</time>
      </trkpt>
      <trkpt lat="46.18382" lon="4.55119">
        <ele>399.4</ele>
        <time>2025-09-07T07:24:05Z</time>
      </trkpt>
      <trkpt lat="46.18374" lon="4.55119">
        <ele>399.4</ele>
        <time>2025-09-07T07:24:06Z</time>
      </trkpt>
      <trkpt lat="46.18367" lon="4.55118">
        <ele>399.4</ele>
        <time>2025-09-07T07:24:07Z</time>
      </trkpt>
      <trkpt lat="46.18359" lon="4.55116">
        <ele>399.4</ele>
        <time>2025-09-07T07:24:08Z</time>
      </trkpt>
      <trkpt lat="46.18351" lon="4.55115">
        <ele>399</ele>
        <time>2025-09-07T07:24:09Z</time>
      </trkpt>
      <trkpt lat="46.18344" lon="4.55113">
        <ele>399</ele>
        <time>2025-09-07T07:24:10Z</time>
      </trkpt>
      <trkpt lat="46.18337" lon="4.5511">
        <ele>399</ele>
        <time>2025-09-07T07:24:11Z</time>
      </trkpt>
      <trkpt lat="46.18331" lon="4.55108">
        <ele>398.8</ele>
        <time>2025-09-07T07:24:12Z</time>
      </trkpt>
      <trkpt lat="46.18324" lon="4.55104">
        <ele>398.8</ele>
        <time>2025-09-07T07:24:13Z</time>
      </trkpt>
      <trkpt lat="46.18317" lon="4.55101">
        <ele>398.8</ele>
        <time>2025-09-07T07:24:14Z</time>
      </trkpt>
      <trkpt lat="46.1831" lon="4.55097">
        <ele>398.8</ele>
        <time>2025-09-07T07:24:15Z</time>
      </trkpt>
      <trkpt lat="46.18303" lon="4.55094">
        <ele>398.8</ele>
        <time>2025-09-07T07:24:16Z</time>
      </trkpt>
      <trkpt lat="46.18296" lon="4.55091">
        <ele>398.8</ele>
        <time>2025-09-07T07:24:17Z</time>
      </trkpt>
      <trkpt lat="46.18289" lon="4.55089">
        <ele>398.8</ele>
        <time>2025-09-07T07:24:18Z</time>
      </trkpt>
      <trkpt lat="46.18282" lon="4.55087">
        <ele>398.8</ele>
        <time>2025-09-07T07:24:19Z</time>
      </trkpt>
      <trkpt lat="46.18274" lon="4.55085">
        <ele>398.8</ele>
        <time>2025-09-07T07:24:20Z</time>
      </trkpt>
      <trkpt lat="46.18267" lon="4.55084">
        <ele>399</ele>
        <time>2025-09-07T07:24:21Z</time>
      </trkpt>
      <trkpt lat="46.1826" lon="4.55082">
        <ele>399</ele>
        <time>2025-09-07T07:24:22Z</time>
      </trkpt>
      <trkpt lat="46.18252" lon="4.55084">
        <ele>399</ele>
        <time>2025-09-07T07:24:23Z</time>
      </trkpt>
      <trkpt lat="46.18245" lon="4.55085">
        <ele>398.8</ele>
        <time>2025-09-07T07:24:24Z</time>
      </trkpt>
      <trkpt lat="46.18237" lon="4.55086">
        <ele>398.8</ele>
        <time>2025-09-07T07:24:25Z</time>
      </trkpt>
      <trkpt lat="46.18231" lon="4.55088">
        <ele>398.8</ele>
        <time>2025-09-07T07:24:26Z</time>
      </trkpt>
      <trkpt lat="46.18225" lon="4.55091">
        <ele>398.8</ele>
        <time>2025-09-07T07:24:27Z</time>
      </trkpt>
      <trkpt lat="46.18218" lon="4.55095">
        <ele>398.8</ele>
        <time>2025-09-07T07:24:28Z</time>
      </trkpt>
      <trkpt lat="46.18212" lon="4.55099">
        <ele>398.4</ele>
        <time>2025-09-07T07:24:29Z</time>
      </trkpt>
      <trkpt lat="46.18206" lon="4.55103">
        <ele>398.4</ele>
        <time>2025-09-07T07:24:30Z</time>
      </trkpt>
      <trkpt lat="46.182" lon="4.55106">
        <ele>398.4</ele>
        <time>2025-09-07T07:24:31Z</time>
      </trkpt>
      <trkpt lat="46.18194" lon="4.5511">
        <ele>398.4</ele>
        <time>2025-09-07T07:24:32Z</time>
      </trkpt>
      <trkpt lat="46.18189" lon="4.55115">
        <ele>398.8</ele>
        <time>2025-09-07T07:24:33Z</time>
      </trkpt>
      <trkpt lat="46.18184" lon="4.5512">
        <ele>398.8</ele>
        <time>2025-09-07T07:24:34Z</time>
      </trkpt>
      <trkpt lat="46.18178" lon="4.55124">
        <ele>398.4</ele>
        <time>2025-09-07T07:24:35Z</time>
      </trkpt>
      <trkpt lat="46.18172" lon="4.55128">
        <ele>398.4</ele>
        <time>2025-09-07T07:24:36Z</time>
      </trkpt>
      <trkpt lat="46.18166" lon="4.55133">
        <ele>398.8</ele>
        <time>2025-09-07T07:24:37Z</time>
      </trkpt>
      <trkpt lat="46.1816" lon="4.55137">
        <ele>398.4</ele>
        <time>2025-09-07T07:24:38Z</time>
      </trkpt>
      <trkpt lat="46.18154" lon="4.55141">
        <ele>398.4</ele>
        <time>2025-09-07T07:24:39Z</time>
      </trkpt>
      <trkpt lat="46.18149" lon="4.55146">
        <ele>398.4</ele>
        <time>2025-09-07T07:24:40Z</time>
      </trkpt>
      <trkpt lat="46.18143" lon="4.5515">
        <ele>398.4</ele>
        <time>2025-09-07T07:24:41Z</time>
      </trkpt>
      <trkpt lat="46.18138" lon="4.55155">
        <ele>398.2</ele>
        <time>2025-09-07T07:24:42Z</time>
      </trkpt>
      <trkpt lat="46.18132" lon="4.5516">
        <ele>398.2</ele>
        <time>2025-09-07T07:24:43Z</time>
      </trkpt>
      <trkpt lat="46.18127" lon="4.55165">
        <ele>398.2</ele>
        <time>2025-09-07T07:24:44Z</time>
      </trkpt>
      <trkpt lat="46.18121" lon="4.55169">
        <ele>398.2</ele>
        <time>2025-09-07T07:24:45Z</time>
      </trkpt>
      <trkpt lat="46.18115" lon="4.55173">
        <ele>398.2</ele>
        <time>2025-09-07T07:24:46Z</time>
      </trkpt>
      <trkpt lat="46.18109" lon="4.55178">
        <ele>398.2</ele>
        <time>2025-09-07T07:24:47Z</time>
      </trkpt>
      <trkpt lat="46.18104" lon="4.55183">
        <ele>398.2</ele>
        <time>2025-09-07T07:24:48Z</time>
      </trkpt>
      <trkpt lat="46.18098" lon="4.55187">
        <ele>398</ele>
        <time>2025-09-07T07:24:49Z</time>
      </trkpt>
      <trkpt lat="46.18092" lon="4.55191">
        <ele>398</ele>
        <time>2025-09-07T07:24:50Z</time>
      </trkpt>
      <trkpt lat="46.18086" lon="4.55196">
        <ele>398</ele>
        <time>2025-09-07T07:24:51Z</time>
      </trkpt>
      <trkpt lat="46.1808" lon="4.55201">
        <ele>398</ele>
        <time>2025-09-07T07:24:52Z</time>
      </trkpt>
      <trkpt lat="46.18075" lon="4.55206">
        <ele>398</ele>
        <time>2025-09-07T07:24:53Z</time>
      </trkpt>
      <trkpt lat="46.18069" lon="4.55211">
        <ele>398</ele>
        <time>2025-09-07T07:24:54Z</time>
      </trkpt>
      <trkpt lat="46.18064" lon="4.55217">
        <ele>398</ele>
        <time>2025-09-07T07:24:55Z</time>
      </trkpt>
      <trkpt lat="46.18057" lon="4.55221">
        <ele>398</ele>
        <time>2025-09-07T07:24:56Z</time>
      </trkpt>
      <trkpt lat="46.18053" lon="4.55228">
        <ele>398</ele>
        <time>2025-09-07T07:24:57Z</time>
      </trkpt>
      <trkpt lat="46.18046" lon="4.55234">
        <ele>398</ele>
        <time>2025-09-07T07:24:58Z</time>
      </trkpt>
      <trkpt lat="46.18042" lon="4.55241">
        <ele>397.4</ele>
        <time>2025-09-07T07:24:59Z</time>
      </trkpt>
      <trkpt lat="46.18037" lon="4.55249">
        <ele>397.4</ele>
        <time>2025-09-07T07:25:00Z</time>
      </trkpt>
      <trkpt lat="46.18032" lon="4.55256">
        <ele>397.2</ele>
        <time>2025-09-07T07:25:01Z</time>
      </trkpt>
      <trkpt lat="46.18028" lon="4.55264">
        <ele>397</ele>
        <time>2025-09-07T07:25:02Z</time>
      </trkpt>
      <trkpt lat="46.18025" lon="4.55272">
        <ele>396.6</ele>
        <time>2025-09-07T07:25:03Z</time>
      </trkpt>
      <trkpt lat="46.18019" lon="4.5528">
        <ele>396.6</ele>
        <time>2025-09-07T07:25:04Z</time>
      </trkpt>
      <trkpt lat="46.18015" lon="4.55287">
        <ele>396.6</ele>
        <time>2025-09-07T07:25:05Z</time>
      </trkpt>
      <trkpt lat="46.18012" lon="4.55295">
        <ele>396.6</ele>
        <time>2025-09-07T07:25:06Z</time>
      </trkpt>
      <trkpt lat="46.18008" lon="4.55304">
        <ele>396.6</ele>
        <time>2025-09-07T07:25:07Z</time>
      </trkpt>
      <trkpt lat="46.18005" lon="4.55312">
        <ele>396.6</ele>
        <time>2025-09-07T07:25:08Z</time>
      </trkpt>
      <trkpt lat="46.18" lon="4.55321">
        <ele>396.4</ele>
        <time>2025-09-07T07:25:09Z</time>
      </trkpt>
      <trkpt lat="46.17998" lon="4.5533">
        <ele>396.4</ele>
        <time>2025-09-07T07:25:10Z</time>
      </trkpt>
      <trkpt lat="46.17995" lon="4.5534">
        <ele>396.4</ele>
        <time>2025-09-07T07:25:11Z</time>
      </trkpt>
      <trkpt lat="46.17992" lon="4.55349">
        <ele>396.4</ele>
        <time>2025-09-07T07:25:12Z</time>
      </trkpt>
      <trkpt lat="46.17988" lon="4.55358">
        <ele>396.4</ele>
        <time>2025-09-07T07:25:13Z</time>
      </trkpt>
      <trkpt lat="46.17985" lon="4.55367">
        <ele>396</ele>
        <time>2025-09-07T07:25:14Z</time>
      </trkpt>
      <trkpt lat="46.17981" lon="4.55376">
        <ele>396</ele>
        <time>2025-09-07T07:25:15Z</time>
      </trkpt>
      <trkpt lat="46.17976" lon="4.55384">
        <ele>395.6</ele>
        <time>2025-09-07T07:25:16Z</time>
      </trkpt>
      <trkpt lat="46.17971" lon="4.55391">
        <ele>395.6</ele>
        <time>2025-09-07T07:25:17Z</time>
      </trkpt>
      <trkpt lat="46.17966" lon="4.55398">
        <ele>395.2</ele>
        <time>2025-09-07T07:25:18Z</time>
      </trkpt>
      <trkpt lat="46.1796" lon="4.55403">
        <ele>395.2</ele>
        <time>2025-09-07T07:25:19Z</time>
      </trkpt>
      <trkpt lat="46.17954" lon="4.55408">
        <ele>395.2</ele>
        <time>2025-09-07T07:25:20Z</time>
      </trkpt>
      <trkpt lat="46.17947" lon="4.55412">
        <ele>395.4</ele>
        <time>2025-09-07T07:25:21Z</time>
      </trkpt>
      <trkpt lat="46.17941" lon="4.55416">
        <ele>395.4</ele>
        <time>2025-09-07T07:25:22Z</time>
      </trkpt>
      <trkpt lat="46.17935" lon="4.55421">
        <ele>395.4</ele>
        <time>2025-09-07T07:25:23Z</time>
      </trkpt>
      <trkpt lat="46.17928" lon="4.55424">
        <ele>395.4</ele>
        <time>2025-09-07T07:25:24Z</time>
      </trkpt>
      <trkpt lat="46.17922" lon="4.55427">
        <ele>395.4</ele>
        <time>2025-09-07T07:25:25Z</time>
      </trkpt>
      <trkpt lat="46.17917" lon="4.55432">
        <ele>395.2</ele>
        <time>2025-09-07T07:25:26Z</time>
      </trkpt>
      <trkpt lat="46.17912" lon="4.55436">
        <ele>395.2</ele>
        <time>2025-09-07T07:25:27Z</time>
      </trkpt>
      <trkpt lat="46.17907" lon="4.55441">
        <ele>395.2</ele>
        <time>2025-09-07T07:25:28Z</time>
      </trkpt>
      <trkpt lat="46.17904" lon="4.55445">
        <ele>395</ele>
        <time>2025-09-07T07:25:29Z</time>
      </trkpt>
      <trkpt lat="46.17901" lon="4.55447">
        <ele>395</ele>
        <time>2025-09-07T07:25:30Z</time>
      </trkpt>
      <trkpt lat="46.17899" lon="4.55448">
        <ele>395</ele>
        <time>2025-09-07T07:25:31Z</time>
      </trkpt>
      <trkpt lat="46.17897" lon="4.55449">
        <ele>395</ele>
        <time>2025-09-07T07:25:32Z</time>
      </trkpt>
      <trkpt lat="46.17896" lon="4.55449">
        <ele>395</ele>
        <time>2025-09-07T07:25:33Z</time>
      </trkpt>
      <trkpt lat="46.17896" lon="4.55449">
        <ele>395</ele>
        <time>2025-09-07T07:25:34Z</time>
      </trkpt>
      <trkpt lat="46.17897" lon="4.55453">
        <ele>394.6</ele>
        <time>2025-09-07T07:26:44Z</time>
      </trkpt>
      <trkpt lat="46.17897" lon="4.55454">
        <ele>394.6</ele>
        <time>2025-09-07T07:26:45Z</time>
      </trkpt>
      <trkpt lat="46.17897" lon="4.55455">
        <ele>394.6</ele>
        <time>2025-09-07T07:26:46Z</time>
      </trkpt>
      <trkpt lat="46.17897" lon="4.55456">
        <ele>394.4</ele>
        <time>2025-09-07T07:26:47Z</time>
      </trkpt>
      <trkpt lat="46.17897" lon="4.55456">
        <ele>394.4</ele>
        <time>2025-09-07T07:26:48Z</time>
      </trkpt>
      <trkpt lat="46.17899" lon="4.5546">
        <ele>394.2</ele>
        <time>2025-09-07T07:26:52Z</time>
      </trkpt>
      <trkpt lat="46.17898" lon="4.55463">
        <ele>394.2</ele>
        <time>2025-09-07T07:26:53Z</time>
      </trkpt>
      <trkpt lat="46.17896" lon="4.55466">
        <ele>394.2</ele>
        <time>2025-09-07T07:26:54Z</time>
      </trkpt>
      <trkpt lat="46.17894" lon="4.55469">
        <ele>393.8</ele>
        <time>2025-09-07T07:26:55Z</time>
      </trkpt>
      <trkpt lat="46.17891" lon="4.55472">
        <ele>393.8</ele>
        <time>2025-09-07T07:26:56Z</time>
      </trkpt>
      <trkpt lat="46.17889" lon="4.55475">
        <ele>393.8</ele>
        <time>2025-09-07T07:26:57Z</time>
      </trkpt>
      <trkpt lat="46.17886" lon="4.55478">
        <ele>393.8</ele>
        <time>2025-09-07T07:26:58Z</time>
      </trkpt>
      <trkpt lat="46.17884" lon="4.55481">
        <ele>393.8</ele>
        <time>2025-09-07T07:26:59Z</time>
      </trkpt>
      <trkpt lat="46.17881" lon="4.55486">
        <ele>393.8</ele>
        <time>2025-09-07T07:27:00Z</time>
      </trkpt>
      <trkpt lat="46.17879" lon="4.5549">
        <ele>393.8</ele>
        <time>2025-09-07T07:27:01Z</time>
      </trkpt>
      <trkpt lat="46.17876" lon="4.55494">
        <ele>393.8</ele>
        <time>2025-09-07T07:27:02Z</time>
      </trkpt>
      <trkpt lat="46.17872" lon="4.55498">
        <ele>393.8</ele>
        <time>2025-09-07T07:27:03Z</time>
      </trkpt>
      <trkpt lat="46.17869" lon="4.55503">
        <ele>393.6</ele>
        <time>2025-09-07T07:27:04Z</time>
      </trkpt>
      <trkpt lat="46.17865" lon="4.55509">
        <ele>393.6</ele>
        <time>2025-09-07T07:27:05Z</time>
      </trkpt>
      <trkpt lat="46.17861" lon="4.55513">
        <ele>393.2</ele>
        <time>2025-09-07T07:27:06Z</time>
      </trkpt>
      <trkpt lat="46.17856" lon="4.55518">
        <ele>393</ele>
        <time>2025-09-07T07:27:07Z</time>
      </trkpt>
      <trkpt lat="46.1785" lon="4.55522">
        <ele>393</ele>
        <time>2025-09-07T07:27:08Z</time>
      </trkpt>
      <trkpt lat="46.17843" lon="4.55524">
        <ele>392.8</ele>
        <time>2025-09-07T07:27:09Z</time>
      </trkpt>
      <trkpt lat="46.17837" lon="4.55528">
        <ele>392.8</ele>
        <time>2025-09-07T07:27:10Z</time>
      </trkpt>
      <trkpt lat="46.17831" lon="4.55531">
        <ele>392.2</ele>
        <time>2025-09-07T07:27:11Z</time>
      </trkpt>
      <trkpt lat="46.17824" lon="4.55532">
        <ele>392.2</ele>
        <time>2025-09-07T07:27:12Z</time>
      </trkpt>
      <trkpt lat="46.17816" lon="4.55533">
        <ele>392.2</ele>
        <time>2025-09-07T07:27:13Z</time>
      </trkpt>
      <trkpt lat="46.1781" lon="4.55535">
        <ele>392</ele>
        <time>2025-09-07T07:27:14Z</time>
      </trkpt>
      <trkpt lat="46.17803" lon="4.55536">
        <ele>391.8</ele>
        <time>2025-09-07T07:27:15Z</time>
      </trkpt>
      <trkpt lat="46.17796" lon="4.55535">
        <ele>391.8</ele>
        <time>2025-09-07T07:27:16Z</time>
      </trkpt>
      <trkpt lat="46.1779" lon="4.55536">
        <ele>391.6</ele>
        <time>2025-09-07T07:27:17Z</time>
      </trkpt>
      <trkpt lat="46.17786" lon="4.55537">
        <ele>391.2</ele>
        <time>2025-09-07T07:27:18Z</time>
      </trkpt>
      <trkpt lat="46.17772" lon="4.55539">
        <ele>391.2</ele>
        <time>2025-09-07T07:27:19Z</time>
      </trkpt>
      <trkpt lat="46.17765" lon="4.5554">
        <ele>391</ele>
        <time>2025-09-07T07:27:20Z</time>
      </trkpt>
      <trkpt lat="46.17758" lon="4.5554">
        <ele>391</ele>
        <time>2025-09-07T07:27:21Z</time>
      </trkpt>
      <trkpt lat="46.1775" lon="4.5554">
        <ele>391</ele>
        <time>2025-09-07T07:27:22Z</time>
      </trkpt>
      <trkpt lat="46.17744" lon="4.55542">
        <ele>390.4</ele>
        <time>2025-09-07T07:27:23Z</time>
      </trkpt>
      <trkpt lat="46.17737" lon="4.55543">
        <ele>390</ele>
        <time>2025-09-07T07:27:24Z</time>
      </trkpt>
      <trkpt lat="46.1773" lon="4.55544">
        <ele>390</ele>
        <time>2025-09-07T07:27:25Z</time>
      </trkpt>
      <trkpt lat="46.17723" lon="4.55545">
        <ele>390</ele>
        <time>2025-09-07T07:27:26Z</time>
      </trkpt>
      <trkpt lat="46.17716" lon="4.55546">
        <ele>389.8</ele>
        <time>2025-09-07T07:27:27Z</time>
      </trkpt>
      <trkpt lat="46.17709" lon="4.55547">
        <ele>389.8</ele>
        <time>2025-09-07T07:27:28Z</time>
      </trkpt>
      <trkpt lat="46.17702" lon="4.5555">
        <ele>389.2</ele>
        <time>2025-09-07T07:27:29Z</time>
      </trkpt>
      <trkpt lat="46.17695" lon="4.55552">
        <ele>389.2</ele>
        <time>2025-09-07T07:27:30Z</time>
      </trkpt>
      <trkpt lat="46.17688" lon="4.55554">
        <ele>388.8</ele>
        <time>2025-09-07T07:27:31Z</time>
      </trkpt>
      <trkpt lat="46.1768" lon="4.55558">
        <ele>388.6</ele>
        <time>2025-09-07T07:27:32Z</time>
      </trkpt>
      <trkpt lat="46.17673" lon="4.5556">
        <ele>388.4</ele>
        <time>2025-09-07T07:27:33Z</time>
      </trkpt>
      <trkpt lat="46.17666" lon="4.55562">
        <ele>388.4</ele>
        <time>2025-09-07T07:27:34Z</time>
      </trkpt>
      <trkpt lat="46.17658" lon="4.55566">
        <ele>387.4</ele>
        <time>2025-09-07T07:27:35Z</time>
      </trkpt>
      <trkpt lat="46.17651" lon="4.5557">
        <ele>387.8</ele>
        <time>2025-09-07T07:27:36Z</time>
      </trkpt>
      <trkpt lat="46.17644" lon="4.55573">
        <ele>387.4</ele>
        <time>2025-09-07T07:27:37Z</time>
      </trkpt>
      <trkpt lat="46.17636" lon="4.55576">
        <ele>387</ele>
        <time>2025-09-07T07:27:38Z</time>
      </trkpt>
      <trkpt lat="46.17629" lon="4.5558">
        <ele>387</ele>
        <time>2025-09-07T07:27:39Z</time>
      </trkpt>
      <trkpt lat="46.17622" lon="4.55585">
        <ele>387</ele>
        <time>2025-09-07T07:27:40Z</time>
      </trkpt>
      <trkpt lat="46.17615" lon="4.55589">
        <ele>387</ele>
        <time>2025-09-07T07:27:41Z</time>
      </trkpt>
      <trkpt lat="46.17609" lon="4.55592">
        <ele>387</ele>
        <time>2025-09-07T07:27:42Z</time>
      </trkpt>
      <trkpt lat="46.17605" lon="4.55595">
        <ele>387</ele>
        <time>2025-09-07T07:27:43Z</time>
      </trkpt>
      <trkpt lat="46.17601" lon="4.55596">
        <ele>386.6</ele>
        <time>2025-09-07T07:27:44Z</time>
      </trkpt>
      <trkpt lat="46.17599" lon="4.55598">
        <ele>386.6</ele>
        <time>2025-09-07T07:27:45Z</time>
      </trkpt>
      <trkpt lat="46.17597" lon="4.55598">
        <ele>386.8</ele>
        <time>2025-09-07T07:27:46Z</time>
      </trkpt>
      <trkpt lat="46.17595" lon="4.55599">
        <ele>386.8</ele>
        <time>2025-09-07T07:27:47Z</time>
      </trkpt>
      <trkpt lat="46.17593" lon="4.55601">
        <ele>386.8</ele>
        <time>2025-09-07T07:27:48Z</time>
      </trkpt>
      <trkpt lat="46.17592" lon="4.55601">
        <ele>386.6</ele>
        <time>2025-09-07T07:27:49Z</time>
      </trkpt>
      <trkpt lat="46.17592" lon="4.55601">
        <ele>386.6</ele>
        <time>2025-09-07T07:27:50Z</time>
      </trkpt>
      <trkpt lat="46.17592" lon="4.55601">
        <ele>385.8</ele>
        <time>2025-09-07T07:27:51Z</time>
      </trkpt>
      <trkpt lat="46.17592" lon="4.55601">
        <ele>386</ele>
        <time>2025-09-07T07:28:25Z</time>
      </trkpt>
      <trkpt lat="46.1759" lon="4.55602">
        <ele>386.2</ele>
        <time>2025-09-07T07:28:26Z</time>
      </trkpt>
      <trkpt lat="46.17589" lon="4.55604">
        <ele>386.2</ele>
        <time>2025-09-07T07:28:27Z</time>
      </trkpt>
      <trkpt lat="46.17587" lon="4.55606">
        <ele>386.2</ele>
        <time>2025-09-07T07:28:28Z</time>
      </trkpt>
      <trkpt lat="46.17585" lon="4.55608">
        <ele>386.2</ele>
        <time>2025-09-07T07:28:29Z</time>
      </trkpt>
      <trkpt lat="46.17582" lon="4.55611">
        <ele>385.8</ele>
        <time>2025-09-07T07:28:30Z</time>
      </trkpt>
      <trkpt lat="46.17578" lon="4.55613">
        <ele>385.8</ele>
        <time>2025-09-07T07:28:31Z</time>
      </trkpt>
      <trkpt lat="46.17574" lon="4.55616">
        <ele>385.8</ele>
        <time>2025-09-07T07:28:32Z</time>
      </trkpt>
      <trkpt lat="46.1757" lon="4.55619">
        <ele>385.6</ele>
        <time>2025-09-07T07:28:33Z</time>
      </trkpt>
      <trkpt lat="46.17566" lon="4.55622">
        <ele>385</ele>
        <time>2025-09-07T07:28:34Z</time>
      </trkpt>
      <trkpt lat="46.17561" lon="4.55626">
        <ele>384.8</ele>
        <time>2025-09-07T07:28:35Z</time>
      </trkpt>
      <trkpt lat="46.17556" lon="4.5563">
        <ele>384.8</ele>
        <time>2025-09-07T07:28:36Z</time>
      </trkpt>
      <trkpt lat="46.17551" lon="4.55634">
        <ele>384.2</ele>
        <time>2025-09-07T07:28:37Z</time>
      </trkpt>
      <trkpt lat="46.17545" lon="4.55639">
        <ele>384.2</ele>
        <time>2025-09-07T07:28:38Z</time>
      </trkpt>
      <trkpt lat="46.1754" lon="4.55644">
        <ele>383.8</ele>
        <time>2025-09-07T07:28:39Z</time>
      </trkpt>
      <trkpt lat="46.17535" lon="4.55648">
        <ele>383.8</ele>
        <time>2025-09-07T07:28:40Z</time>
      </trkpt>
      <trkpt lat="46.17529" lon="4.55653">
        <ele>383.4</ele>
        <time>2025-09-07T07:28:41Z</time>
      </trkpt>
      <trkpt lat="46.17524" lon="4.55657">
        <ele>383</ele>
        <time>2025-09-07T07:28:42Z</time>
      </trkpt>
      <trkpt lat="46.17519" lon="4.55661">
        <ele>382.8</ele>
        <time>2025-09-07T07:28:43Z</time>
      </trkpt>
      <trkpt lat="46.17513" lon="4.55665">
        <ele>382.4</ele>
        <time>2025-09-07T07:28:44Z</time>
      </trkpt>
      <trkpt lat="46.17508" lon="4.5567">
        <ele>382.2</ele>
        <time>2025-09-07T07:28:45Z</time>
      </trkpt>
      <trkpt lat="46.17503" lon="4.55675">
        <ele>381.8</ele>
        <time>2025-09-07T07:28:46Z</time>
      </trkpt>
      <trkpt lat="46.17497" lon="4.55679">
        <ele>381.4</ele>
        <time>2025-09-07T07:28:47Z</time>
      </trkpt>
      <trkpt lat="46.17494" lon="4.55684">
        <ele>381.4</ele>
        <time>2025-09-07T07:28:48Z</time>
      </trkpt>
      <trkpt lat="46.17491" lon="4.5569">
        <ele>381</ele>
        <time>2025-09-07T07:28:49Z</time>
      </trkpt>
      <trkpt lat="46.17489" lon="4.55697">
        <ele>380.8</ele>
        <time>2025-09-07T07:28:50Z</time>
      </trkpt>
      <trkpt lat="46.17489" lon="4.55705">
        <ele>380.8</ele>
        <time>2025-09-07T07:28:51Z</time>
      </trkpt>
      <trkpt lat="46.17488" lon="4.55711">
        <ele>380.6</ele>
        <time>2025-09-07T07:28:52Z</time>
      </trkpt>
      <trkpt lat="46.17488" lon="4.55716">
        <ele>380.2</ele>
        <time>2025-09-07T07:28:53Z</time>
      </trkpt>
      <trkpt lat="46.17487" lon="4.55721">
        <ele>380.4</ele>
        <time>2025-09-07T07:28:54Z</time>
      </trkpt>
      <trkpt lat="46.17484" lon="4.55725">
        <ele>380.8</ele>
        <time>2025-09-07T07:28:55Z</time>
      </trkpt>
      <trkpt lat="46.17483" lon="4.55729">
        <ele>381</ele>
        <time>2025-09-07T07:28:56Z</time>
      </trkpt>
      <trkpt lat="46.1748" lon="4.55731">
        <ele>381.4</ele>
        <time>2025-09-07T07:28:57Z</time>
      </trkpt>
      <trkpt lat="46.17478" lon="4.55733">
        <ele>381.8</ele>
        <time>2025-09-07T07:28:58Z</time>
      </trkpt>
      <trkpt lat="46.17476" lon="4.55735">
        <ele>382</ele>
        <time>2025-09-07T07:28:59Z</time>
      </trkpt>
      <trkpt lat="46.17475" lon="4.55737">
        <ele>382.4</ele>
        <time>2025-09-07T07:29:00Z</time>
      </trkpt>
      <trkpt lat="46.17473" lon="4.55738">
        <ele>382.6</ele>
        <time>2025-09-07T07:29:01Z</time>
      </trkpt>
      <trkpt lat="46.1747" lon="4.55739">
        <ele>382.6</ele>
        <time>2025-09-07T07:29:02Z</time>
      </trkpt>
      <trkpt lat="46.17469" lon="4.55741">
        <ele>383</ele>
        <time>2025-09-07T07:29:03Z</time>
      </trkpt>
      <trkpt lat="46.17467" lon="4.55742">
        <ele>383</ele>
        <time>2025-09-07T07:29:04Z</time>
      </trkpt>
      <trkpt lat="46.17465" lon="4.55744">
        <ele>383.4</ele>
        <time>2025-09-07T07:29:05Z</time>
      </trkpt>
      <trkpt lat="46.17463" lon="4.55745">
        <ele>383.6</ele>
        <time>2025-09-07T07:29:06Z</time>
      </trkpt>
      <trkpt lat="46.17461" lon="4.55746">
        <ele>384</ele>
        <time>2025-09-07T07:29:07Z</time>
      </trkpt>
      <trkpt lat="46.17459" lon="4.55748">
        <ele>384</ele>
        <time>2025-09-07T07:29:08Z</time>
      </trkpt>
      <trkpt lat="46.17457" lon="4.55749">
        <ele>384</ele>
        <time>2025-09-07T07:29:09Z</time>
      </trkpt>
      <trkpt lat="46.17456" lon="4.5575">
        <ele>384.4</ele>
        <time>2025-09-07T07:29:10Z</time>
      </trkpt>
      <trkpt lat="46.17454" lon="4.55751">
        <ele>384.4</ele>
        <time>2025-09-07T07:29:11Z</time>
      </trkpt>
      <trkpt lat="46.17452" lon="4.55753">
        <ele>384.8</ele>
        <time>2025-09-07T07:29:12Z</time>
      </trkpt>
      <trkpt lat="46.1745" lon="4.55754">
        <ele>384</ele>
        <time>2025-09-07T07:29:13Z</time>
      </trkpt>
      <trkpt lat="46.17448" lon="4.55756">
        <ele>384.2</ele>
        <time>2025-09-07T07:29:14Z</time>
      </trkpt>
      <trkpt lat="46.17446" lon="4.55758">
        <ele>384.6</ele>
        <time>2025-09-07T07:29:15Z</time>
      </trkpt>
      <trkpt lat="46.17445" lon="4.5576">
        <ele>384.6</ele>
        <time>2025-09-07T07:29:16Z</time>
      </trkpt>
      <trkpt lat="46.17443" lon="4.55762">
        <ele>385.2</ele>
        <time>2025-09-07T07:29:17Z</time>
      </trkpt>
      <trkpt lat="46.17441" lon="4.55763">
        <ele>385.2</ele>
        <time>2025-09-07T07:29:18Z</time>
      </trkpt>
      <trkpt lat="46.17439" lon="4.55764">
        <ele>385.4</ele>
        <time>2025-09-07T07:29:19Z</time>
      </trkpt>
      <trkpt lat="46.17437" lon="4.55765">
        <ele>385.4</ele>
        <time>2025-09-07T07:29:20Z</time>
      </trkpt>
      <trkpt lat="46.17435" lon="4.55765">
        <ele>385.6</ele>
        <time>2025-09-07T07:29:21Z</time>
      </trkpt>
      <trkpt lat="46.17432" lon="4.55765">
        <ele>385.6</ele>
        <time>2025-09-07T07:29:22Z</time>
      </trkpt>
      <trkpt lat="46.1743" lon="4.55764">
        <ele>385.6</ele>
        <time>2025-09-07T07:29:23Z</time>
      </trkpt>
      <trkpt lat="46.17427" lon="4.55764">
        <ele>385.6</ele>
        <time>2025-09-07T07:29:24Z</time>
      </trkpt>
      <trkpt lat="46.17424" lon="4.55764">
        <ele>385.6</ele>
        <time>2025-09-07T07:29:25Z</time>
      </trkpt>
      <trkpt lat="46.17422" lon="4.55764">
        <ele>385.6</ele>
        <time>2025-09-07T07:29:26Z</time>
      </trkpt>
      <trkpt lat="46.17419" lon="4.55764">
        <ele>385.6</ele>
        <time>2025-09-07T07:29:27Z</time>
      </trkpt>
      <trkpt lat="46.17416" lon="4.55764">
        <ele>386</ele>
        <time>2025-09-07T07:29:28Z</time>
      </trkpt>
      <trkpt lat="46.17413" lon="4.55764">
        <ele>386</ele>
        <time>2025-09-07T07:29:29Z</time>
      </trkpt>
      <trkpt lat="46.1741" lon="4.55764">
        <ele>386</ele>
        <time>2025-09-07T07:29:30Z</time>
      </trkpt>
      <trkpt lat="46.17407" lon="4.55764">
        <ele>386</ele>
        <time>2025-09-07T07:29:31Z</time>
      </trkpt>
      <trkpt lat="46.17404" lon="4.55764">
        <ele>386</ele>
        <time>2025-09-07T07:29:32Z</time>
      </trkpt>
      <trkpt lat="46.174" lon="4.55765">
        <ele>386</ele>
        <time>2025-09-07T07:29:33Z</time>
      </trkpt>
      <trkpt lat="46.17397" lon="4.55766">
        <ele>386</ele>
        <time>2025-09-07T07:29:34Z</time>
      </trkpt>
      <trkpt lat="46.17393" lon="4.55766">
        <ele>386</ele>
        <time>2025-09-07T07:29:35Z</time>
      </trkpt>
      <trkpt lat="46.17389" lon="4.55767">
        <ele>386</ele>
        <time>2025-09-07T07:29:36Z</time>
      </trkpt>
      <trkpt lat="46.17386" lon="4.55768">
        <ele>386</ele>
        <time>2025-09-07T07:29:37Z</time>
      </trkpt>
      <trkpt lat="46.17382" lon="4.55769">
        <ele>386</ele>
        <time>2025-09-07T07:29:38Z</time>
      </trkpt>
      <trkpt lat="46.17379" lon="4.5577">
        <ele>386</ele>
        <time>2025-09-07T07:29:39Z</time>
      </trkpt>
      <trkpt lat="46.17374" lon="4.55772">
        <ele>386</ele>
        <time>2025-09-07T07:29:40Z</time>
      </trkpt>
      <trkpt lat="46.1737" lon="4.55775">
        <ele>386</ele>
        <time>2025-09-07T07:29:41Z</time>
      </trkpt>
      <trkpt lat="46.17366" lon="4.55778">
        <ele>385.6</ele>
        <time>2025-09-07T07:29:42Z</time>
      </trkpt>
      <trkpt lat="46.17362" lon="4.55782">
        <ele>385.6</ele>
        <time>2025-09-07T07:29:43Z</time>
      </trkpt>
      <trkpt lat="46.17358" lon="4.55786">
        <ele>385.6</ele>
        <time>2025-09-07T07:29:44Z</time>
      </trkpt>
      <trkpt lat="46.17355" lon="4.5579">
        <ele>385.6</ele>
        <time>2025-09-07T07:29:45Z</time>
      </trkpt>
      <trkpt lat="46.17353" lon="4.55794">
        <ele>385.6</ele>
        <time>2025-09-07T07:29:46Z</time>
      </trkpt>
      <trkpt lat="46.17351" lon="4.55799">
        <ele>386</ele>
        <time>2025-09-07T07:29:47Z</time>
      </trkpt>
      <trkpt lat="46.17349" lon="4.55803">
        <ele>386</ele>
        <time>2025-09-07T07:29:48Z</time>
      </trkpt>
      <trkpt lat="46.17348" lon="4.55807">
        <ele>386.4</ele>
        <time>2025-09-07T07:29:49Z</time>
      </trkpt>
      <trkpt lat="46.17347" lon="4.5581">
        <ele>386.4</ele>
        <time>2025-09-07T07:29:50Z</time>
      </trkpt>
      <trkpt lat="46.17346" lon="4.55813">
        <ele>387</ele>
        <time>2025-09-07T07:29:51Z</time>
      </trkpt>
      <trkpt lat="46.17344" lon="4.55815">
        <ele>387.2</ele>
        <time>2025-09-07T07:29:52Z</time>
      </trkpt>
      <trkpt lat="46.17343" lon="4.55817">
        <ele>387.4</ele>
        <time>2025-09-07T07:29:53Z</time>
      </trkpt>
      <trkpt lat="46.17342" lon="4.55819">
        <ele>387.8</ele>
        <time>2025-09-07T07:29:54Z</time>
      </trkpt>
      <trkpt lat="46.1734" lon="4.55821">
        <ele>388.2</ele>
        <time>2025-09-07T07:29:55Z</time>
      </trkpt>
      <trkpt lat="46.17339" lon="4.55824">
        <ele>388.2</ele>
        <time>2025-09-07T07:29:56Z</time>
      </trkpt>
      <trkpt lat="46.17338" lon="4.55826">
        <ele>388.4</ele>
        <time>2025-09-07T07:29:57Z</time>
      </trkpt>
      <trkpt lat="46.17337" lon="4.55828">
        <ele>388.6</ele>
        <time>2025-09-07T07:29:58Z</time>
      </trkpt>
      <trkpt lat="46.17336" lon="4.5583">
        <ele>389</ele>
        <time>2025-09-07T07:29:59Z</time>
      </trkpt>
      <trkpt lat="46.17336" lon="4.55832">
        <ele>389.4</ele>
        <time>2025-09-07T07:30:00Z</time>
      </trkpt>
      <trkpt lat="46.17335" lon="4.55834">
        <ele>389.4</ele>
        <time>2025-09-07T07:30:01Z</time>
      </trkpt>
      <trkpt lat="46.17334" lon="4.55836">
        <ele>389.6</ele>
        <time>2025-09-07T07:30:02Z</time>
      </trkpt>
      <trkpt lat="46.17334" lon="4.55838">
        <ele>389.6</ele>
        <time>2025-09-07T07:30:03Z</time>
      </trkpt>
      <trkpt lat="46.17333" lon="4.5584">
        <ele>390.2</ele>
        <time>2025-09-07T07:30:04Z</time>
      </trkpt>
      <trkpt lat="46.17332" lon="4.55841">
        <ele>390.2</ele>
        <time>2025-09-07T07:30:05Z</time>
      </trkpt>
      <trkpt lat="46.17331" lon="4.55843">
        <ele>390.4</ele>
        <time>2025-09-07T07:30:06Z</time>
      </trkpt>
      <trkpt lat="46.1733" lon="4.55845">
        <ele>390.4</ele>
        <time>2025-09-07T07:30:07Z</time>
      </trkpt>
      <trkpt lat="46.17329" lon="4.55846">
        <ele>391</ele>
        <time>2025-09-07T07:30:08Z</time>
      </trkpt>
      <trkpt lat="46.17329" lon="4.55848">
        <ele>391</ele>
        <time>2025-09-07T07:30:09Z</time>
      </trkpt>
      <trkpt lat="46.17328" lon="4.55849">
        <ele>391.4</ele>
        <time>2025-09-07T07:30:10Z</time>
      </trkpt>
      <trkpt lat="46.17327" lon="4.55851">
        <ele>391.4</ele>
        <time>2025-09-07T07:30:11Z</time>
      </trkpt>
      <trkpt lat="46.17326" lon="4.55852">
        <ele>391.8</ele>
        <time>2025-09-07T07:30:12Z</time>
      </trkpt>
      <trkpt lat="46.17325" lon="4.55854">
        <ele>391.8</ele>
        <time>2025-09-07T07:30:13Z</time>
      </trkpt>
      <trkpt lat="46.17325" lon="4.55856">
        <ele>392</ele>
        <time>2025-09-07T07:30:14Z</time>
      </trkpt>
      <trkpt lat="46.17324" lon="4.55858">
        <ele>392</ele>
        <time>2025-09-07T07:30:15Z</time>
      </trkpt>
      <trkpt lat="46.17323" lon="4.55859">
        <ele>392</ele>
        <time>2025-09-07T07:30:16Z</time>
      </trkpt>
      <trkpt lat="46.17323" lon="4.55861">
        <ele>392.4</ele>
        <time>2025-09-07T07:30:17Z</time>
      </trkpt>
      <trkpt lat="46.17322" lon="4.55863">
        <ele>392.4</ele>
        <time>2025-09-07T07:30:18Z</time>
      </trkpt>
      <trkpt lat="46.17321" lon="4.55865">
        <ele>392.8</ele>
        <time>2025-09-07T07:30:19Z</time>
      </trkpt>
      <trkpt lat="46.1732" lon="4.55866">
        <ele>393.2</ele>
        <time>2025-09-07T07:30:20Z</time>
      </trkpt>
      <trkpt lat="46.17319" lon="4.55868">
        <ele>393.6</ele>
        <time>2025-09-07T07:30:21Z</time>
      </trkpt>
      <trkpt lat="46.17319" lon="4.5587">
        <ele>393.6</ele>
        <time>2025-09-07T07:30:22Z</time>
      </trkpt>
      <trkpt lat="46.17318" lon="4.55871">
        <ele>393.8</ele>
        <time>2025-09-07T07:30:23Z</time>
      </trkpt>
      <trkpt lat="46.17317" lon="4.55873">
        <ele>393.8</ele>
        <time>2025-09-07T07:30:24Z</time>
      </trkpt>
      <trkpt lat="46.17317" lon="4.55874">
        <ele>394.2</ele>
        <time>2025-09-07T07:30:25Z</time>
      </trkpt>
      <trkpt lat="46.17316" lon="4.55876">
        <ele>394.2</ele>
        <time>2025-09-07T07:30:26Z</time>
      </trkpt>
      <trkpt lat="46.17316" lon="4.55878">
        <ele>394.2</ele>
        <time>2025-09-07T07:30:27Z</time>
      </trkpt>
      <trkpt lat="46.17315" lon="4.5588">
        <ele>394.2</ele>
        <time>2025-09-07T07:30:28Z</time>
      </trkpt>
      <trkpt lat="46.17313" lon="4.55881">
        <ele>394.2</ele>
        <time>2025-09-07T07:30:29Z</time>
      </trkpt>
      <trkpt lat="46.17312" lon="4.55882">
        <ele>394.6</ele>
        <time>2025-09-07T07:30:30Z</time>
      </trkpt>
      <trkpt lat="46.17311" lon="4.55883">
        <ele>394.6</ele>
        <time>2025-09-07T07:30:31Z</time>
      </trkpt>
      <trkpt lat="46.17309" lon="4.55885">
        <ele>394.6</ele>
        <time>2025-09-07T07:30:32Z</time>
      </trkpt>
      <trkpt lat="46.17308" lon="4.55886">
        <ele>395</ele>
        <time>2025-09-07T07:30:33Z</time>
      </trkpt>
      <trkpt lat="46.17307" lon="4.55888">
        <ele>395</ele>
        <time>2025-09-07T07:30:34Z</time>
      </trkpt>
      <trkpt lat="46.17306" lon="4.5589">
        <ele>395</ele>
        <time>2025-09-07T07:30:35Z</time>
      </trkpt>
      <trkpt lat="46.17305" lon="4.55891">
        <ele>395.6</ele>
        <time>2025-09-07T07:30:36Z</time>
      </trkpt>
      <trkpt lat="46.17304" lon="4.55892">
        <ele>395.6</ele>
        <time>2025-09-07T07:30:37Z</time>
      </trkpt>
      <trkpt lat="46.17303" lon="4.55893">
        <ele>396</ele>
        <time>2025-09-07T07:30:38Z</time>
      </trkpt>
      <trkpt lat="46.17302" lon="4.55894">
        <ele>396</ele>
        <time>2025-09-07T07:30:39Z</time>
      </trkpt>
      <trkpt lat="46.17301" lon="4.55895">
        <ele>396.2</ele>
        <time>2025-09-07T07:30:40Z</time>
      </trkpt>
      <trkpt lat="46.173" lon="4.55896">
        <ele>396.2</ele>
        <time>2025-09-07T07:30:41Z</time>
      </trkpt>
      <trkpt lat="46.17299" lon="4.55898">
        <ele>396.2</ele>
        <time>2025-09-07T07:30:42Z</time>
      </trkpt>
      <trkpt lat="46.17299" lon="4.559">
        <ele>396.6</ele>
        <time>2025-09-07T07:30:43Z</time>
      </trkpt>
      <trkpt lat="46.17298" lon="4.55901">
        <ele>396.6</ele>
        <time>2025-09-07T07:30:44Z</time>
      </trkpt>
      <trkpt lat="46.17297" lon="4.55903">
        <ele>396.8</ele>
        <time>2025-09-07T07:30:45Z</time>
      </trkpt>
      <trkpt lat="46.17296" lon="4.55904">
        <ele>396.8</ele>
        <time>2025-09-07T07:30:46Z</time>
      </trkpt>
      <trkpt lat="46.17295" lon="4.55905">
        <ele>397</ele>
        <time>2025-09-07T07:30:47Z</time>
      </trkpt>
      <trkpt lat="46.17294" lon="4.55907">
        <ele>397.4</ele>
        <time>2025-09-07T07:30:48Z</time>
      </trkpt>
      <trkpt lat="46.17293" lon="4.55908">
        <ele>397.6</ele>
        <time>2025-09-07T07:30:49Z</time>
      </trkpt>
      <trkpt lat="46.17292" lon="4.5591">
        <ele>397.6</ele>
        <time>2025-09-07T07:30:50Z</time>
      </trkpt>
      <trkpt lat="46.17292" lon="4.55911">
        <ele>398</ele>
        <time>2025-09-07T07:30:51Z</time>
      </trkpt>
      <trkpt lat="46.17291" lon="4.55912">
        <ele>398.6</ele>
        <time>2025-09-07T07:30:52Z</time>
      </trkpt>
      <trkpt lat="46.1729" lon="4.55913">
        <ele>398.6</ele>
        <time>2025-09-07T07:30:53Z</time>
      </trkpt>
      <trkpt lat="46.17289" lon="4.55915">
        <ele>398.6</ele>
        <time>2025-09-07T07:30:54Z</time>
      </trkpt>
      <trkpt lat="46.17288" lon="4.55916">
        <ele>399</ele>
        <time>2025-09-07T07:30:55Z</time>
      </trkpt>
      <trkpt lat="46.17288" lon="4.55918">
        <ele>399.2</ele>
        <time>2025-09-07T07:30:56Z</time>
      </trkpt>
      <trkpt lat="46.17287" lon="4.55919">
        <ele>399.4</ele>
        <time>2025-09-07T07:30:57Z</time>
      </trkpt>
      <trkpt lat="46.17286" lon="4.55921">
        <ele>399.4</ele>
        <time>2025-09-07T07:30:58Z</time>
      </trkpt>
      <trkpt lat="46.17286" lon="4.55922">
        <ele>399.6</ele>
        <time>2025-09-07T07:30:59Z</time>
      </trkpt>
      <trkpt lat="46.17285" lon="4.55924">
        <ele>399.6</ele>
        <time>2025-09-07T07:31:00Z</time>
      </trkpt>
      <trkpt lat="46.17285" lon="4.55925">
        <ele>400</ele>
        <time>2025-09-07T07:31:01Z</time>
      </trkpt>
      <trkpt lat="46.17284" lon="4.55927">
        <ele>400</ele>
        <time>2025-09-07T07:31:02Z</time>
      </trkpt>
      <trkpt lat="46.17283" lon="4.55928">
        <ele>400</ele>
        <time>2025-09-07T07:31:03Z</time>
      </trkpt>
      <trkpt lat="46.17283" lon="4.5593">
        <ele>400.4</ele>
        <time>2025-09-07T07:31:04Z</time>
      </trkpt>
      <trkpt lat="46.17282" lon="4.55932">
        <ele>400.6</ele>
        <time>2025-09-07T07:31:05Z</time>
      </trkpt>
      <trkpt lat="46.17281" lon="4.55933">
        <ele>400.6</ele>
        <time>2025-09-07T07:31:06Z</time>
      </trkpt>
      <trkpt lat="46.1728" lon="4.55935">
        <ele>401</ele>
        <time>2025-09-07T07:31:07Z</time>
      </trkpt>
      <trkpt lat="46.17279" lon="4.55937">
        <ele>401</ele>
        <time>2025-09-07T07:31:08Z</time>
      </trkpt>
      <trkpt lat="46.17278" lon="4.55939">
        <ele>401</ele>
        <time>2025-09-07T07:31:09Z</time>
      </trkpt>
      <trkpt lat="46.17277" lon="4.5594">
        <ele>401</ele>
        <time>2025-09-07T07:31:10Z</time>
      </trkpt>
      <trkpt lat="46.17277" lon="4.55942">
        <ele>401.2</ele>
        <time>2025-09-07T07:31:11Z</time>
      </trkpt>
      <trkpt lat="46.17276" lon="4.55944">
        <ele>401.2</ele>
        <time>2025-09-07T07:31:12Z</time>
      </trkpt>
      <trkpt lat="46.17275" lon="4.55946">
        <ele>401.8</ele>
        <time>2025-09-07T07:31:13Z</time>
      </trkpt>
      <trkpt lat="46.17274" lon="4.55948">
        <ele>401.8</ele>
        <time>2025-09-07T07:31:14Z</time>
      </trkpt>
      <trkpt lat="46.17273" lon="4.55949">
        <ele>402</ele>
        <time>2025-09-07T07:31:15Z</time>
      </trkpt>
      <trkpt lat="46.17273" lon="4.55951">
        <ele>402.2</ele>
        <time>2025-09-07T07:31:16Z</time>
      </trkpt>
      <trkpt lat="46.17272" lon="4.55953">
        <ele>402.4</ele>
        <time>2025-09-07T07:31:17Z</time>
      </trkpt>
      <trkpt lat="46.17272" lon="4.55955">
        <ele>402.4</ele>
        <time>2025-09-07T07:31:18Z</time>
      </trkpt>
      <trkpt lat="46.17272" lon="4.55955">
        <ele>403</ele>
        <time>2025-09-07T07:31:19Z</time>
      </trkpt>
      <trkpt lat="46.17272" lon="4.55957">
        <ele>403.2</ele>
        <time>2025-09-07T07:31:20Z</time>
      </trkpt>
      <trkpt lat="46.17272" lon="4.55959">
        <ele>403.4</ele>
        <time>2025-09-07T07:31:21Z</time>
      </trkpt>
      <trkpt lat="46.17272" lon="4.55961">
        <ele>403.4</ele>
        <time>2025-09-07T07:31:22Z</time>
      </trkpt>
      <trkpt lat="46.17272" lon="4.55963">
        <ele>403.4</ele>
        <time>2025-09-07T07:31:23Z</time>
      </trkpt>
      <trkpt lat="46.17273" lon="4.55965">
        <ele>403.4</ele>
        <time>2025-09-07T07:31:24Z</time>
      </trkpt>
      <trkpt lat="46.17274" lon="4.55966">
        <ele>403.4</ele>
        <time>2025-09-07T07:31:25Z</time>
      </trkpt>
      <trkpt lat="46.17275" lon="4.55968">
        <ele>403.8</ele>
        <time>2025-09-07T07:31:26Z</time>
      </trkpt>
      <trkpt lat="46.17276" lon="4.55969">
        <ele>404</ele>
        <time>2025-09-07T07:31:27Z</time>
      </trkpt>
      <trkpt lat="46.17277" lon="4.5597">
        <ele>404.2</ele>
        <time>2025-09-07T07:31:28Z</time>
      </trkpt>
      <trkpt lat="46.17278" lon="4.55972">
        <ele>404.2</ele>
        <time>2025-09-07T07:31:29Z</time>
      </trkpt>
      <trkpt lat="46.17279" lon="4.55973">
        <ele>404.6</ele>
        <time>2025-09-07T07:31:30Z</time>
      </trkpt>
      <trkpt lat="46.1728" lon="4.55974">
        <ele>404.6</ele>
        <time>2025-09-07T07:31:31Z</time>
      </trkpt>
      <trkpt lat="46.17281" lon="4.55976">
        <ele>404.8</ele>
        <time>2025-09-07T07:31:32Z</time>
      </trkpt>
      <trkpt lat="46.17282" lon="4.55977">
        <ele>404.8</ele>
        <time>2025-09-07T07:31:33Z</time>
      </trkpt>
      <trkpt lat="46.17282" lon="4.55979">
        <ele>404.8</ele>
        <time>2025-09-07T07:31:34Z</time>
      </trkpt>
      <trkpt lat="46.17283" lon="4.5598">
        <ele>405</ele>
        <time>2025-09-07T07:31:35Z</time>
      </trkpt>
      <trkpt lat="46.17285" lon="4.55982">
        <ele>405</ele>
        <time>2025-09-07T07:31:36Z</time>
      </trkpt>
      <trkpt lat="46.17286" lon="4.55984">
        <ele>405.4</ele>
        <time>2025-09-07T07:31:37Z</time>
      </trkpt>
      <trkpt lat="46.17286" lon="4.55985">
        <ele>405.4</ele>
        <time>2025-09-07T07:31:38Z</time>
      </trkpt>
      <trkpt lat="46.17287" lon="4.55986">
        <ele>405.8</ele>
        <time>2025-09-07T07:31:39Z</time>
      </trkpt>
      <trkpt lat="46.17288" lon="4.55987">
        <ele>405.8</ele>
        <time>2025-09-07T07:31:40Z</time>
      </trkpt>
      <trkpt lat="46.17289" lon="4.55988">
        <ele>406</ele>
        <time>2025-09-07T07:31:41Z</time>
      </trkpt>
      <trkpt lat="46.1729" lon="4.5599">
        <ele>406.2</ele>
        <time>2025-09-07T07:31:42Z</time>
      </trkpt>
      <trkpt lat="46.17291" lon="4.55992">
        <ele>406.2</ele>
        <time>2025-09-07T07:31:43Z</time>
      </trkpt>
      <trkpt lat="46.17292" lon="4.55993">
        <ele>406.6</ele>
        <time>2025-09-07T07:31:44Z</time>
      </trkpt>
      <trkpt lat="46.17293" lon="4.55995">
        <ele>407</ele>
        <time>2025-09-07T07:31:45Z</time>
      </trkpt>
      <trkpt lat="46.17294" lon="4.55996">
        <ele>407</ele>
        <time>2025-09-07T07:31:46Z</time>
      </trkpt>
      <trkpt lat="46.17295" lon="4.55997">
        <ele>407.4</ele>
        <time>2025-09-07T07:31:47Z</time>
      </trkpt>
      <trkpt lat="46.17296" lon="4.55998">
        <ele>407.4</ele>
        <time>2025-09-07T07:31:48Z</time>
      </trkpt>
      <trkpt lat="46.17297" lon="4.56">
        <ele>407.8</ele>
        <time>2025-09-07T07:31:49Z</time>
      </trkpt>
      <trkpt lat="46.17298" lon="4.56001">
        <ele>407.8</ele>
        <time>2025-09-07T07:31:50Z</time>
      </trkpt>
      <trkpt lat="46.17299" lon="4.56002">
        <ele>408</ele>
        <time>2025-09-07T07:31:51Z</time>
      </trkpt>
      <trkpt lat="46.173" lon="4.56004">
        <ele>408.4</ele>
        <time>2025-09-07T07:31:52Z</time>
      </trkpt>
      <trkpt lat="46.17301" lon="4.56005">
        <ele>408.4</ele>
        <time>2025-09-07T07:31:53Z</time>
      </trkpt>
      <trkpt lat="46.17302" lon="4.56006">
        <ele>408.6</ele>
        <time>2025-09-07T07:31:54Z</time>
      </trkpt>
      <trkpt lat="46.17303" lon="4.56007">
        <ele>408.6</ele>
        <time>2025-09-07T07:31:55Z</time>
      </trkpt>
      <trkpt lat="46.17304" lon="4.56008">
        <ele>408.8</ele>
        <time>2025-09-07T07:31:56Z</time>
      </trkpt>
      <trkpt lat="46.17305" lon="4.5601">
        <ele>408.8</ele>
        <time>2025-09-07T07:31:57Z</time>
      </trkpt>
      <trkpt lat="46.17306" lon="4.56011">
        <ele>409.2</ele>
        <time>2025-09-07T07:31:58Z</time>
      </trkpt>
      <trkpt lat="46.17307" lon="4.56012">
        <ele>409.2</ele>
        <time>2025-09-07T07:31:59Z</time>
      </trkpt>
      <trkpt lat="46.17308" lon="4.56014">
        <ele>409.2</ele>
        <time>2025-09-07T07:32:00Z</time>
      </trkpt>
      <trkpt lat="46.17308" lon="4.56015">
        <ele>409.4</ele>
        <time>2025-09-07T07:32:01Z</time>
      </trkpt>
      <trkpt lat="46.17309" lon="4.56017">
        <ele>409.6</ele>
        <time>2025-09-07T07:32:02Z</time>
      </trkpt>
      <trkpt lat="46.1731" lon="4.56018">
        <ele>409.6</ele>
        <time>2025-09-07T07:32:03Z</time>
      </trkpt>
      <trkpt lat="46.17311" lon="4.5602">
        <ele>410.2</ele>
        <time>2025-09-07T07:32:04Z</time>
      </trkpt>
      <trkpt lat="46.17312" lon="4.56021">
        <ele>410.2</ele>
        <time>2025-09-07T07:32:05Z</time>
      </trkpt>
      <trkpt lat="46.17313" lon="4.56022">
        <ele>410.4</ele>
        <time>2025-09-07T07:32:06Z</time>
      </trkpt>
      <trkpt lat="46.17314" lon="4.56023">
        <ele>410.4</ele>
        <time>2025-09-07T07:32:07Z</time>
      </trkpt>
      <trkpt lat="46.17315" lon="4.56024">
        <ele>410.8</ele>
        <time>2025-09-07T07:32:08Z</time>
      </trkpt>
      <trkpt lat="46.17316" lon="4.56026">
        <ele>410.8</ele>
        <time>2025-09-07T07:32:09Z</time>
      </trkpt>
      <trkpt lat="46.17317" lon="4.56027">
        <ele>410.8</ele>
        <time>2025-09-07T07:32:10Z</time>
      </trkpt>
      <trkpt lat="46.17318" lon="4.56028">
        <ele>411.2</ele>
        <time>2025-09-07T07:32:11Z</time>
      </trkpt>
      <trkpt lat="46.17318" lon="4.56029">
        <ele>411.2</ele>
        <time>2025-09-07T07:32:12Z</time>
      </trkpt>
      <trkpt lat="46.17319" lon="4.5603">
        <ele>411.6</ele>
        <time>2025-09-07T07:32:13Z</time>
      </trkpt>
      <trkpt lat="46.1732" lon="4.56032">
        <ele>411.6</ele>
        <time>2025-09-07T07:32:14Z</time>
      </trkpt>
      <trkpt lat="46.17321" lon="4.56033">
        <ele>411.6</ele>
        <time>2025-09-07T07:32:15Z</time>
      </trkpt>
      <trkpt lat="46.17322" lon="4.56034">
        <ele>411.8</ele>
        <time>2025-09-07T07:32:16Z</time>
      </trkpt>
      <trkpt lat="46.17323" lon="4.56035">
        <ele>411.8</ele>
        <time>2025-09-07T07:32:17Z</time>
      </trkpt>
      <trkpt lat="46.17323" lon="4.56036">
        <ele>412</ele>
        <time>2025-09-07T07:32:18Z</time>
      </trkpt>
      <trkpt lat="46.17324" lon="4.56038">
        <ele>412</ele>
        <time>2025-09-07T07:32:19Z</time>
      </trkpt>
      <trkpt lat="46.17325" lon="4.56039">
        <ele>412</ele>
        <time>2025-09-07T07:32:20Z</time>
      </trkpt>
      <trkpt lat="46.17326" lon="4.5604">
        <ele>412.4</ele>
        <time>2025-09-07T07:32:21Z</time>
      </trkpt>
      <trkpt lat="46.17327" lon="4.56041">
        <ele>412.4</ele>
        <time>2025-09-07T07:32:22Z</time>
      </trkpt>
      <trkpt lat="46.17328" lon="4.56042">
        <ele>412.4</ele>
        <time>2025-09-07T07:32:23Z</time>
      </trkpt>
      <trkpt lat="46.17329" lon="4.56044">
        <ele>412.8</ele>
        <time>2025-09-07T07:32:24Z</time>
      </trkpt>
      <trkpt lat="46.1733" lon="4.56045">
        <ele>412.8</ele>
        <time>2025-09-07T07:32:25Z</time>
      </trkpt>
      <trkpt lat="46.17331" lon="4.56047">
        <ele>412.8</ele>
        <time>2025-09-07T07:32:26Z</time>
      </trkpt>
      <trkpt lat="46.17332" lon="4.56048">
        <ele>413</ele>
        <time>2025-09-07T07:32:27Z</time>
      </trkpt>
      <trkpt lat="46.17333" lon="4.56049">
        <ele>413.2</ele>
        <time>2025-09-07T07:32:28Z</time>
      </trkpt>
      <trkpt lat="46.17334" lon="4.56051">
        <ele>413.2</ele>
        <time>2025-09-07T07:32:29Z</time>
      </trkpt>
      <trkpt lat="46.17335" lon="4.56052">
        <ele>413.2</ele>
        <time>2025-09-07T07:32:30Z</time>
      </trkpt>
      <trkpt lat="46.17335" lon="4.56054">
        <ele>413.4</ele>
        <time>2025-09-07T07:32:31Z</time>
      </trkpt>
      <trkpt lat="46.17336" lon="4.56055">
        <ele>413.6</ele>
        <time>2025-09-07T07:32:32Z</time>
      </trkpt>
      <trkpt lat="46.17337" lon="4.56057">
        <ele>413.6</ele>
        <time>2025-09-07T07:32:33Z</time>
      </trkpt>
      <trkpt lat="46.17338" lon="4.56059">
        <ele>414</ele>
        <time>2025-09-07T07:32:34Z</time>
      </trkpt>
      <trkpt lat="46.17339" lon="4.56061">
        <ele>414</ele>
        <time>2025-09-07T07:32:35Z</time>
      </trkpt>
      <trkpt lat="46.1734" lon="4.56062">
        <ele>414</ele>
        <time>2025-09-07T07:32:36Z</time>
      </trkpt>
      <trkpt lat="46.1734" lon="4.56064">
        <ele>414.4</ele>
        <time>2025-09-07T07:32:37Z</time>
      </trkpt>
      <trkpt lat="46.17342" lon="4.56065">
        <ele>414.8</ele>
        <time>2025-09-07T07:32:38Z</time>
      </trkpt>
      <trkpt lat="46.17343" lon="4.56067">
        <ele>415</ele>
        <time>2025-09-07T07:32:39Z</time>
      </trkpt>
      <trkpt lat="46.17344" lon="4.56069">
        <ele>415</ele>
        <time>2025-09-07T07:32:40Z</time>
      </trkpt>
      <trkpt lat="46.17345" lon="4.56071">
        <ele>415.2</ele>
        <time>2025-09-07T07:32:41Z</time>
      </trkpt>
      <trkpt lat="46.17346" lon="4.56073">
        <ele>415.2</ele>
        <time>2025-09-07T07:32:42Z</time>
      </trkpt>
      <trkpt lat="46.17347" lon="4.56075">
        <ele>415.2</ele>
        <time>2025-09-07T07:32:43Z</time>
      </trkpt>
      <trkpt lat="46.17348" lon="4.56077">
        <ele>415.2</ele>
        <time>2025-09-07T07:32:44Z</time>
      </trkpt>
      <trkpt lat="46.17349" lon="4.5608">
        <ele>415.2</ele>
        <time>2025-09-07T07:32:45Z</time>
      </trkpt>
      <trkpt lat="46.17351" lon="4.56083">
        <ele>415.2</ele>
        <time>2025-09-07T07:32:46Z</time>
      </trkpt>
      <trkpt lat="46.17352" lon="4.56086">
        <ele>415.2</ele>
        <time>2025-09-07T07:32:47Z</time>
      </trkpt>
      <trkpt lat="46.17354" lon="4.56089">
        <ele>415.6</ele>
        <time>2025-09-07T07:32:48Z</time>
      </trkpt>
      <trkpt lat="46.17355" lon="4.56093">
        <ele>415.8</ele>
        <time>2025-09-07T07:32:49Z</time>
      </trkpt>
      <trkpt lat="46.17357" lon="4.56097">
        <ele>415.8</ele>
        <time>2025-09-07T07:32:50Z</time>
      </trkpt>
      <trkpt lat="46.17358" lon="4.56102">
        <ele>416</ele>
        <time>2025-09-07T07:32:51Z</time>
      </trkpt>
      <trkpt lat="46.1736" lon="4.56106">
        <ele>416</ele>
        <time>2025-09-07T07:32:52Z</time>
      </trkpt>
      <trkpt lat="46.17361" lon="4.56111">
        <ele>416</ele>
        <time>2025-09-07T07:32:53Z</time>
      </trkpt>
      <trkpt lat="46.17363" lon="4.56115">
        <ele>416</ele>
        <time>2025-09-07T07:32:54Z</time>
      </trkpt>
      <trkpt lat="46.17365" lon="4.5612">
        <ele>416</ele>
        <time>2025-09-07T07:32:55Z</time>
      </trkpt>
      <trkpt lat="46.17367" lon="4.56124">
        <ele>416</ele>
        <time>2025-09-07T07:32:56Z</time>
      </trkpt>
      <trkpt lat="46.17369" lon="4.56129">
        <ele>416</ele>
        <time>2025-09-07T07:32:57Z</time>
      </trkpt>
      <trkpt lat="46.17371" lon="4.56134">
        <ele>416</ele>
        <time>2025-09-07T07:32:58Z</time>
      </trkpt>
      <trkpt lat="46.17373" lon="4.56139">
        <ele>416</ele>
        <time>2025-09-07T07:32:59Z</time>
      </trkpt>
      <trkpt lat="46.17375" lon="4.56144">
        <ele>416</ele>
        <time>2025-09-07T07:33:00Z</time>
      </trkpt>
      <trkpt lat="46.17377" lon="4.56149">
        <ele>416</ele>
        <time>2025-09-07T07:33:01Z</time>
      </trkpt>
      <trkpt lat="46.17379" lon="4.56153">
        <ele>416</ele>
        <time>2025-09-07T07:33:02Z</time>
      </trkpt>
      <trkpt lat="46.1738" lon="4.56157">
        <ele>416</ele>
        <time>2025-09-07T07:33:03Z</time>
      </trkpt>
      <trkpt lat="46.17382" lon="4.56161">
        <ele>416.4</ele>
        <time>2025-09-07T07:33:04Z</time>
      </trkpt>
      <trkpt lat="46.17384" lon="4.56164">
        <ele>416.4</ele>
        <time>2025-09-07T07:33:05Z</time>
      </trkpt>
      <trkpt lat="46.17386" lon="4.56168">
        <ele>416.6</ele>
        <time>2025-09-07T07:33:06Z</time>
      </trkpt>
      <trkpt lat="46.17388" lon="4.56171">
        <ele>416.6</ele>
        <time>2025-09-07T07:33:07Z</time>
      </trkpt>
      <trkpt lat="46.1739" lon="4.56173">
        <ele>417</ele>
        <time>2025-09-07T07:33:08Z</time>
      </trkpt>
      <trkpt lat="46.17392" lon="4.56176">
        <ele>417.4</ele>
        <time>2025-09-07T07:33:09Z</time>
      </trkpt>
      <trkpt lat="46.17394" lon="4.56178">
        <ele>417.4</ele>
        <time>2025-09-07T07:33:10Z</time>
      </trkpt>
      <trkpt lat="46.17395" lon="4.56181">
        <ele>417.4</ele>
        <time>2025-09-07T07:33:11Z</time>
      </trkpt>
      <trkpt lat="46.17397" lon="4.56183">
        <ele>417.8</ele>
        <time>2025-09-07T07:33:12Z</time>
      </trkpt>
      <trkpt lat="46.17399" lon="4.56185">
        <ele>417.8</ele>
        <time>2025-09-07T07:33:13Z</time>
      </trkpt>
      <trkpt lat="46.17401" lon="4.56187">
        <ele>418</ele>
        <time>2025-09-07T07:33:14Z</time>
      </trkpt>
      <trkpt lat="46.17402" lon="4.56189">
        <ele>418.2</ele>
        <time>2025-09-07T07:33:15Z</time>
      </trkpt>
      <trkpt lat="46.17403" lon="4.56191">
        <ele>418.2</ele>
        <time>2025-09-07T07:33:16Z</time>
      </trkpt>
      <trkpt lat="46.17405" lon="4.56193">
        <ele>418.6</ele>
        <time>2025-09-07T07:33:17Z</time>
      </trkpt>
      <trkpt lat="46.17406" lon="4.56195">
        <ele>419</ele>
        <time>2025-09-07T07:33:18Z</time>
      </trkpt>
      <trkpt lat="46.17407" lon="4.56197">
        <ele>419.2</ele>
        <time>2025-09-07T07:33:19Z</time>
      </trkpt>
      <trkpt lat="46.17408" lon="4.56199">
        <ele>419.6</ele>
        <time>2025-09-07T07:33:20Z</time>
      </trkpt>
      <trkpt lat="46.1741" lon="4.56201">
        <ele>419.8</ele>
        <time>2025-09-07T07:33:21Z</time>
      </trkpt>
      <trkpt lat="46.17411" lon="4.56203">
        <ele>419.8</ele>
        <time>2025-09-07T07:33:22Z</time>
      </trkpt>
      <trkpt lat="46.17412" lon="4.56205">
        <ele>419.8</ele>
        <time>2025-09-07T07:33:23Z</time>
      </trkpt>
      <trkpt lat="46.17413" lon="4.56206">
        <ele>420.2</ele>
        <time>2025-09-07T07:33:24Z</time>
      </trkpt>
      <trkpt lat="46.17415" lon="4.56208">
        <ele>420.2</ele>
        <time>2025-09-07T07:33:25Z</time>
      </trkpt>
      <trkpt lat="46.17416" lon="4.56209">
        <ele>420.4</ele>
        <time>2025-09-07T07:33:26Z</time>
      </trkpt>
      <trkpt lat="46.17417" lon="4.56211">
        <ele>420.8</ele>
        <time>2025-09-07T07:33:27Z</time>
      </trkpt>
      <trkpt lat="46.17419" lon="4.56212">
        <ele>421</ele>
        <time>2025-09-07T07:33:28Z</time>
      </trkpt>
      <trkpt lat="46.1742" lon="4.56214">
        <ele>421</ele>
        <time>2025-09-07T07:33:29Z</time>
      </trkpt>
      <trkpt lat="46.17421" lon="4.56215">
        <ele>421</ele>
        <time>2025-09-07T07:33:30Z</time>
      </trkpt>
      <trkpt lat="46.17422" lon="4.56216">
        <ele>421.2</ele>
        <time>2025-09-07T07:33:31Z</time>
      </trkpt>
      <trkpt lat="46.17423" lon="4.56218">
        <ele>421.2</ele>
        <time>2025-09-07T07:33:32Z</time>
      </trkpt>
      <trkpt lat="46.17424" lon="4.56219">
        <ele>421.2</ele>
        <time>2025-09-07T07:33:33Z</time>
      </trkpt>
      <trkpt lat="46.17425" lon="4.56221">
        <ele>421.6</ele>
        <time>2025-09-07T07:33:34Z</time>
      </trkpt>
      <trkpt lat="46.17426" lon="4.56222">
        <ele>421.8</ele>
        <time>2025-09-07T07:33:35Z</time>
      </trkpt>
      <trkpt lat="46.17427" lon="4.56224">
        <ele>421.8</ele>
        <time>2025-09-07T07:33:36Z</time>
      </trkpt>
      <trkpt lat="46.17429" lon="4.56226">
        <ele>421.8</ele>
        <time>2025-09-07T07:33:37Z</time>
      </trkpt>
      <trkpt lat="46.1743" lon="4.56227">
        <ele>422</ele>
        <time>2025-09-07T07:33:38Z</time>
      </trkpt>
      <trkpt lat="46.17431" lon="4.56229">
        <ele>422</ele>
        <time>2025-09-07T07:33:39Z</time>
      </trkpt>
      <trkpt lat="46.17432" lon="4.5623">
        <ele>422.4</ele>
        <time>2025-09-07T07:33:40Z</time>
      </trkpt>
      <trkpt lat="46.17432" lon="4.56232">
        <ele>422.4</ele>
        <time>2025-09-07T07:33:41Z</time>
      </trkpt>
      <trkpt lat="46.17433" lon="4.56233">
        <ele>422.4</ele>
        <time>2025-09-07T07:33:42Z</time>
      </trkpt>
      <trkpt lat="46.17434" lon="4.56235">
        <ele>422.8</ele>
        <time>2025-09-07T07:33:43Z</time>
      </trkpt>
      <trkpt lat="46.17435" lon="4.56236">
        <ele>422.8</ele>
        <time>2025-09-07T07:33:44Z</time>
      </trkpt>
      <trkpt lat="46.17436" lon="4.56238">
        <ele>423.2</ele>
        <time>2025-09-07T07:33:45Z</time>
      </trkpt>
      <trkpt lat="46.17437" lon="4.56239">
        <ele>423.4</ele>
        <time>2025-09-07T07:33:46Z</time>
      </trkpt>
      <trkpt lat="46.17437" lon="4.56241">
        <ele>423.8</ele>
        <time>2025-09-07T07:33:47Z</time>
      </trkpt>
      <trkpt lat="46.17438" lon="4.56242">
        <ele>424.2</ele>
        <time>2025-09-07T07:33:48Z</time>
      </trkpt>
      <trkpt lat="46.1744" lon="4.56244">
        <ele>424.4</ele>
        <time>2025-09-07T07:33:49Z</time>
      </trkpt>
      <trkpt lat="46.17441" lon="4.56245">
        <ele>424.4</ele>
        <time>2025-09-07T07:33:50Z</time>
      </trkpt>
      <trkpt lat="46.17442" lon="4.56247">
        <ele>424.4</ele>
        <time>2025-09-07T07:33:51Z</time>
      </trkpt>
      <trkpt lat="46.17443" lon="4.56249">
        <ele>424.6</ele>
        <time>2025-09-07T07:33:52Z</time>
      </trkpt>
      <trkpt lat="46.17443" lon="4.56251">
        <ele>424.6</ele>
        <time>2025-09-07T07:33:53Z</time>
      </trkpt>
      <trkpt lat="46.17443" lon="4.56253">
        <ele>425</ele>
        <time>2025-09-07T07:33:54Z</time>
      </trkpt>
      <trkpt lat="46.17443" lon="4.56255">
        <ele>425</ele>
        <time>2025-09-07T07:33:55Z</time>
      </trkpt>
      <trkpt lat="46.17444" lon="4.56257">
        <ele>425</ele>
        <time>2025-09-07T07:33:56Z</time>
      </trkpt>
      <trkpt lat="46.17444" lon="4.56259">
        <ele>425.4</ele>
        <time>2025-09-07T07:33:57Z</time>
      </trkpt>
      <trkpt lat="46.17444" lon="4.56261">
        <ele>425.8</ele>
        <time>2025-09-07T07:33:58Z</time>
      </trkpt>
      <trkpt lat="46.17444" lon="4.56263">
        <ele>425.8</ele>
        <time>2025-09-07T07:33:59Z</time>
      </trkpt>
      <trkpt lat="46.17444" lon="4.56265">
        <ele>425.8</ele>
        <time>2025-09-07T07:34:00Z</time>
      </trkpt>
      <trkpt lat="46.17444" lon="4.56267">
        <ele>426</ele>
        <time>2025-09-07T07:34:01Z</time>
      </trkpt>
      <trkpt lat="46.17445" lon="4.56269">
        <ele>426</ele>
        <time>2025-09-07T07:34:02Z</time>
      </trkpt>
      <trkpt lat="46.17445" lon="4.56271">
        <ele>426.4</ele>
        <time>2025-09-07T07:34:03Z</time>
      </trkpt>
      <trkpt lat="46.17445" lon="4.56273">
        <ele>426.6</ele>
        <time>2025-09-07T07:34:04Z</time>
      </trkpt>
      <trkpt lat="46.17445" lon="4.56275">
        <ele>426.8</ele>
        <time>2025-09-07T07:34:05Z</time>
      </trkpt>
      <trkpt lat="46.17445" lon="4.56276">
        <ele>426.8</ele>
        <time>2025-09-07T07:34:06Z</time>
      </trkpt>
      <trkpt lat="46.17445" lon="4.56278">
        <ele>426.8</ele>
        <time>2025-09-07T07:34:07Z</time>
      </trkpt>
      <trkpt lat="46.17445" lon="4.5628">
        <ele>427</ele>
        <time>2025-09-07T07:34:08Z</time>
      </trkpt>
      <trkpt lat="46.17445" lon="4.56282">
        <ele>427</ele>
        <time>2025-09-07T07:34:09Z</time>
      </trkpt>
      <trkpt lat="46.17445" lon="4.56284">
        <ele>427.4</ele>
        <time>2025-09-07T07:34:10Z</time>
      </trkpt>
      <trkpt lat="46.17445" lon="4.56286">
        <ele>427.4</ele>
        <time>2025-09-07T07:34:11Z</time>
      </trkpt>
      <trkpt lat="46.17444" lon="4.56287">
        <ele>427.4</ele>
        <time>2025-09-07T07:34:12Z</time>
      </trkpt>
      <trkpt lat="46.17444" lon="4.56289">
        <ele>427.4</ele>
        <time>2025-09-07T07:34:13Z</time>
      </trkpt>
      <trkpt lat="46.17443" lon="4.56291">
        <ele>427.4</ele>
        <time>2025-09-07T07:34:14Z</time>
      </trkpt>
      <trkpt lat="46.17443" lon="4.56293">
        <ele>427.4</ele>
        <time>2025-09-07T07:34:15Z</time>
      </trkpt>
      <trkpt lat="46.17443" lon="4.56295">
        <ele>427.4</ele>
        <time>2025-09-07T07:34:16Z</time>
      </trkpt>
      <trkpt lat="46.17442" lon="4.56298">
        <ele>427.4</ele>
        <time>2025-09-07T07:34:17Z</time>
      </trkpt>
      <trkpt lat="46.17442" lon="4.563">
        <ele>427.6</ele>
        <time>2025-09-07T07:34:18Z</time>
      </trkpt>
      <trkpt lat="46.17442" lon="4.56303">
        <ele>427.6</ele>
        <time>2025-09-07T07:34:19Z</time>
      </trkpt>
      <trkpt lat="46.17442" lon="4.56306">
        <ele>427.6</ele>
        <time>2025-09-07T07:34:20Z</time>
      </trkpt>
      <trkpt lat="46.17441" lon="4.56309">
        <ele>427.6</ele>
        <time>2025-09-07T07:34:21Z</time>
      </trkpt>
      <trkpt lat="46.1744" lon="4.56312">
        <ele>427.6</ele>
        <time>2025-09-07T07:34:22Z</time>
      </trkpt>
      <trkpt lat="46.17439" lon="4.56315">
        <ele>427.6</ele>
        <time>2025-09-07T07:34:23Z</time>
      </trkpt>
      <trkpt lat="46.17439" lon="4.56315">
        <ele>427.6</ele>
        <time>2025-09-07T07:34:24Z</time>
      </trkpt>
      <trkpt lat="46.17439" lon="4.56319">
        <ele>427.6</ele>
        <time>2025-09-07T07:34:25Z</time>
      </trkpt>
      <trkpt lat="46.17439" lon="4.56323">
        <ele>427.6</ele>
        <time>2025-09-07T07:34:26Z</time>
      </trkpt>
      <trkpt lat="46.17439" lon="4.56326">
        <ele>427.6</ele>
        <time>2025-09-07T07:34:27Z</time>
      </trkpt>
      <trkpt lat="46.17439" lon="4.56331">
        <ele>427.6</ele>
        <time>2025-09-07T07:34:28Z</time>
      </trkpt>
      <trkpt lat="46.17438" lon="4.56335">
        <ele>427.6</ele>
        <time>2025-09-07T07:34:29Z</time>
      </trkpt>
      <trkpt lat="46.17438" lon="4.56341">
        <ele>427.6</ele>
        <time>2025-09-07T07:34:30Z</time>
      </trkpt>
      <trkpt lat="46.17436" lon="4.56346">
        <ele>428</ele>
        <time>2025-09-07T07:34:31Z</time>
      </trkpt>
      <trkpt lat="46.17436" lon="4.5635">
        <ele>428</ele>
        <time>2025-09-07T07:34:32Z</time>
      </trkpt>
      <trkpt lat="46.17435" lon="4.56355">
        <ele>428</ele>
        <time>2025-09-07T07:34:33Z</time>
      </trkpt>
      <trkpt lat="46.17434" lon="4.5636">
        <ele>428</ele>
        <time>2025-09-07T07:34:34Z</time>
      </trkpt>
      <trkpt lat="46.17433" lon="4.56365">
        <ele>428</ele>
        <time>2025-09-07T07:34:35Z</time>
      </trkpt>
      <trkpt lat="46.17433" lon="4.56371">
        <ele>428</ele>
        <time>2025-09-07T07:34:36Z</time>
      </trkpt>
      <trkpt lat="46.17432" lon="4.56376">
        <ele>428</ele>
        <time>2025-09-07T07:34:37Z</time>
      </trkpt>
      <trkpt lat="46.17431" lon="4.56381">
        <ele>428</ele>
        <time>2025-09-07T07:34:38Z</time>
      </trkpt>
      <trkpt lat="46.1743" lon="4.56387">
        <ele>428</ele>
        <time>2025-09-07T07:34:39Z</time>
      </trkpt>
      <trkpt lat="46.17429" lon="4.56392">
        <ele>428</ele>
        <time>2025-09-07T07:34:40Z</time>
      </trkpt>
      <trkpt lat="46.17428" lon="4.56398">
        <ele>428</ele>
        <time>2025-09-07T07:34:41Z</time>
      </trkpt>
      <trkpt lat="46.17428" lon="4.56403">
        <ele>428</ele>
        <time>2025-09-07T07:34:42Z</time>
      </trkpt>
      <trkpt lat="46.17427" lon="4.56408">
        <ele>428</ele>
        <time>2025-09-07T07:34:43Z</time>
      </trkpt>
      <trkpt lat="46.17426" lon="4.56414">
        <ele>428.4</ele>
        <time>2025-09-07T07:34:44Z</time>
      </trkpt>
      <trkpt lat="46.17424" lon="4.56419">
        <ele>428.4</ele>
        <time>2025-09-07T07:34:45Z</time>
      </trkpt>
      <trkpt lat="46.17423" lon="4.56424">
        <ele>428.4</ele>
        <time>2025-09-07T07:34:46Z</time>
      </trkpt>
      <trkpt lat="46.17421" lon="4.56429">
        <ele>428.4</ele>
        <time>2025-09-07T07:34:47Z</time>
      </trkpt>
      <trkpt lat="46.17419" lon="4.56433">
        <ele>428.6</ele>
        <time>2025-09-07T07:34:48Z</time>
      </trkpt>
      <trkpt lat="46.17417" lon="4.56438">
        <ele>429</ele>
        <time>2025-09-07T07:34:49Z</time>
      </trkpt>
      <trkpt lat="46.17415" lon="4.56441">
        <ele>429</ele>
        <time>2025-09-07T07:34:50Z</time>
      </trkpt>
      <trkpt lat="46.17413" lon="4.56445">
        <ele>429</ele>
        <time>2025-09-07T07:34:51Z</time>
      </trkpt>
      <trkpt lat="46.17412" lon="4.56449">
        <ele>429.2</ele>
        <time>2025-09-07T07:34:52Z</time>
      </trkpt>
      <trkpt lat="46.17411" lon="4.56452">
        <ele>429.4</ele>
        <time>2025-09-07T07:34:53Z</time>
      </trkpt>
      <trkpt lat="46.17409" lon="4.56455">
        <ele>429.8</ele>
        <time>2025-09-07T07:34:54Z</time>
      </trkpt>
      <trkpt lat="46.17408" lon="4.56458">
        <ele>429.8</ele>
        <time>2025-09-07T07:34:55Z</time>
      </trkpt>
      <trkpt lat="46.17407" lon="4.56461">
        <ele>430.2</ele>
        <time>2025-09-07T07:34:56Z</time>
      </trkpt>
      <trkpt lat="46.17406" lon="4.56465">
        <ele>430.2</ele>
        <time>2025-09-07T07:34:57Z</time>
      </trkpt>
      <trkpt lat="46.17405" lon="4.56468">
        <ele>430.4</ele>
        <time>2025-09-07T07:34:58Z</time>
      </trkpt>
      <trkpt lat="46.17404" lon="4.56472">
        <ele>430</ele>
        <time>2025-09-07T07:34:59Z</time>
      </trkpt>
      <trkpt lat="46.17403" lon="4.56476">
        <ele>430.4</ele>
        <time>2025-09-07T07:35:00Z</time>
      </trkpt>
      <trkpt lat="46.17402" lon="4.56479">
        <ele>430.4</ele>
        <time>2025-09-07T07:35:01Z</time>
      </trkpt>
      <trkpt lat="46.17401" lon="4.56483">
        <ele>430.6</ele>
        <time>2025-09-07T07:35:02Z</time>
      </trkpt>
      <trkpt lat="46.174" lon="4.56486">
        <ele>430.8</ele>
        <time>2025-09-07T07:35:03Z</time>
      </trkpt>
      <trkpt lat="46.17399" lon="4.5649">
        <ele>430.8</ele>
        <time>2025-09-07T07:35:04Z</time>
      </trkpt>
      <trkpt lat="46.17399" lon="4.56493">
        <ele>430.8</ele>
        <time>2025-09-07T07:35:05Z</time>
      </trkpt>
      <trkpt lat="46.174" lon="4.56496">
        <ele>430.8</ele>
        <time>2025-09-07T07:35:06Z</time>
      </trkpt>
      <trkpt lat="46.17402" lon="4.56499">
        <ele>430.8</ele>
        <time>2025-09-07T07:35:07Z</time>
      </trkpt>
      <trkpt lat="46.17403" lon="4.56502">
        <ele>431.2</ele>
        <time>2025-09-07T07:35:08Z</time>
      </trkpt>
      <trkpt lat="46.17404" lon="4.56504">
        <ele>431.4</ele>
        <time>2025-09-07T07:35:09Z</time>
      </trkpt>
      <trkpt lat="46.17405" lon="4.56508">
        <ele>431.8</ele>
        <time>2025-09-07T07:35:10Z</time>
      </trkpt>
      <trkpt lat="46.17406" lon="4.5651">
        <ele>431.8</ele>
        <time>2025-09-07T07:35:11Z</time>
      </trkpt>
      <trkpt lat="46.17407" lon="4.56512">
        <ele>432</ele>
        <time>2025-09-07T07:35:12Z</time>
      </trkpt>
      <trkpt lat="46.17409" lon="4.56513">
        <ele>432.2</ele>
        <time>2025-09-07T07:35:13Z</time>
      </trkpt>
      <trkpt lat="46.1741" lon="4.56514">
        <ele>432.4</ele>
        <time>2025-09-07T07:35:14Z</time>
      </trkpt>
      <trkpt lat="46.17411" lon="4.56515">
        <ele>432.8</ele>
        <time>2025-09-07T07:35:15Z</time>
      </trkpt>
      <trkpt lat="46.17412" lon="4.56517">
        <ele>432.8</ele>
        <time>2025-09-07T07:35:16Z</time>
      </trkpt>
      <trkpt lat="46.17413" lon="4.56517">
        <ele>433</ele>
        <time>2025-09-07T07:35:17Z</time>
      </trkpt>
      <trkpt lat="46.17414" lon="4.56518">
        <ele>433.4</ele>
        <time>2025-09-07T07:35:18Z</time>
      </trkpt>
      <trkpt lat="46.17416" lon="4.56519">
        <ele>433.8</ele>
        <time>2025-09-07T07:35:19Z</time>
      </trkpt>
      <trkpt lat="46.17418" lon="4.5652">
        <ele>434</ele>
        <time>2025-09-07T07:35:20Z</time>
      </trkpt>
      <trkpt lat="46.17419" lon="4.56521">
        <ele>434.4</ele>
        <time>2025-09-07T07:35:21Z</time>
      </trkpt>
      <trkpt lat="46.17419" lon="4.56522">
        <ele>434.6</ele>
        <time>2025-09-07T07:35:22Z</time>
      </trkpt>
      <trkpt lat="46.1742" lon="4.56523">
        <ele>434.8</ele>
        <time>2025-09-07T07:35:23Z</time>
      </trkpt>
      <trkpt lat="46.17422" lon="4.56525">
        <ele>435.2</ele>
        <time>2025-09-07T07:35:24Z</time>
      </trkpt>
      <trkpt lat="46.17423" lon="4.56525">
        <ele>435.4</ele>
        <time>2025-09-07T07:35:25Z</time>
      </trkpt>
      <trkpt lat="46.17424" lon="4.56526">
        <ele>435.6</ele>
        <time>2025-09-07T07:35:26Z</time>
      </trkpt>
      <trkpt lat="46.17425" lon="4.56527">
        <ele>435.6</ele>
        <time>2025-09-07T07:35:27Z</time>
      </trkpt>
      <trkpt lat="46.17426" lon="4.56529">
        <ele>436</ele>
        <time>2025-09-07T07:35:28Z</time>
      </trkpt>
      <trkpt lat="46.17427" lon="4.5653">
        <ele>436</ele>
        <time>2025-09-07T07:35:29Z</time>
      </trkpt>
      <trkpt lat="46.17428" lon="4.56531">
        <ele>436.2</ele>
        <time>2025-09-07T07:35:30Z</time>
      </trkpt>
      <trkpt lat="46.17429" lon="4.56532">
        <ele>436.6</ele>
        <time>2025-09-07T07:35:31Z</time>
      </trkpt>
      <trkpt lat="46.1743" lon="4.56533">
        <ele>436.8</ele>
        <time>2025-09-07T07:35:32Z</time>
      </trkpt>
      <trkpt lat="46.17431" lon="4.56534">
        <ele>436.8</ele>
        <time>2025-09-07T07:35:33Z</time>
      </trkpt>
      <trkpt lat="46.17432" lon="4.56535">
        <ele>437</ele>
        <time>2025-09-07T07:35:34Z</time>
      </trkpt>
      <trkpt lat="46.17433" lon="4.56536">
        <ele>437</ele>
        <time>2025-09-07T07:35:35Z</time>
      </trkpt>
      <trkpt lat="46.17434" lon="4.56536">
        <ele>437.4</ele>
        <time>2025-09-07T07:35:36Z</time>
      </trkpt>
      <trkpt lat="46.17435" lon="4.56537">
        <ele>437.6</ele>
        <time>2025-09-07T07:35:37Z</time>
      </trkpt>
      <trkpt lat="46.17436" lon="4.56538">
        <ele>437.6</ele>
        <time>2025-09-07T07:35:38Z</time>
      </trkpt>
      <trkpt lat="46.17437" lon="4.56539">
        <ele>437.6</ele>
        <time>2025-09-07T07:35:39Z</time>
      </trkpt>
      <trkpt lat="46.17438" lon="4.5654">
        <ele>438</ele>
        <time>2025-09-07T07:35:40Z</time>
      </trkpt>
      <trkpt lat="46.17439" lon="4.56541">
        <ele>438</ele>
        <time>2025-09-07T07:35:41Z</time>
      </trkpt>
      <trkpt lat="46.17439" lon="4.56542">
        <ele>438.4</ele>
        <time>2025-09-07T07:35:42Z</time>
      </trkpt>
      <trkpt lat="46.17441" lon="4.56543">
        <ele>438.4</ele>
        <time>2025-09-07T07:35:43Z</time>
      </trkpt>
      <trkpt lat="46.17441" lon="4.56544">
        <ele>438.8</ele>
        <time>2025-09-07T07:35:44Z</time>
      </trkpt>
      <trkpt lat="46.17442" lon="4.56545">
        <ele>438.8</ele>
        <time>2025-09-07T07:35:45Z</time>
      </trkpt>
      <trkpt lat="46.17443" lon="4.56546">
        <ele>439</ele>
        <time>2025-09-07T07:35:46Z</time>
      </trkpt>
      <trkpt lat="46.17444" lon="4.56546">
        <ele>439.2</ele>
        <time>2025-09-07T07:35:47Z</time>
      </trkpt>
      <trkpt lat="46.17445" lon="4.56547">
        <ele>439.6</ele>
        <time>2025-09-07T07:35:48Z</time>
      </trkpt>
      <trkpt lat="46.17445" lon="4.56547">
        <ele>439.8</ele>
        <time>2025-09-07T07:35:49Z</time>
      </trkpt>
      <trkpt lat="46.17446" lon="4.56548">
        <ele>439.8</ele>
        <time>2025-09-07T07:35:50Z</time>
      </trkpt>
      <trkpt lat="46.17447" lon="4.56549">
        <ele>440.2</ele>
        <time>2025-09-07T07:35:51Z</time>
      </trkpt>
      <trkpt lat="46.17448" lon="4.5655">
        <ele>440.2</ele>
        <time>2025-09-07T07:35:52Z</time>
      </trkpt>
      <trkpt lat="46.17449" lon="4.56551">
        <ele>440.4</ele>
        <time>2025-09-07T07:35:53Z</time>
      </trkpt>
      <trkpt lat="46.1745" lon="4.56553">
        <ele>440.4</ele>
        <time>2025-09-07T07:35:54Z</time>
      </trkpt>
      <trkpt lat="46.17451" lon="4.56554">
        <ele>440.8</ele>
        <time>2025-09-07T07:35:55Z</time>
      </trkpt>
      <trkpt lat="46.17452" lon="4.56555">
        <ele>441</ele>
        <time>2025-09-07T07:35:56Z</time>
      </trkpt>
      <trkpt lat="46.17453" lon="4.56556">
        <ele>441.4</ele>
        <time>2025-09-07T07:35:57Z</time>
      </trkpt>
      <trkpt lat="46.17454" lon="4.56557">
        <ele>441.6</ele>
        <time>2025-09-07T07:35:58Z</time>
      </trkpt>
      <trkpt lat="46.17455" lon="4.56558">
        <ele>441.8</ele>
        <time>2025-09-07T07:35:59Z</time>
      </trkpt>
      <trkpt lat="46.17456" lon="4.56559">
        <ele>442.2</ele>
        <time>2025-09-07T07:36:00Z</time>
      </trkpt>
      <trkpt lat="46.17457" lon="4.5656">
        <ele>442.2</ele>
        <time>2025-09-07T07:36:01Z</time>
      </trkpt>
      <trkpt lat="46.17458" lon="4.56561">
        <ele>442.4</ele>
        <time>2025-09-07T07:36:02Z</time>
      </trkpt>
      <trkpt lat="46.17459" lon="4.56562">
        <ele>442.4</ele>
        <time>2025-09-07T07:36:03Z</time>
      </trkpt>
      <trkpt lat="46.1746" lon="4.56563">
        <ele>442.6</ele>
        <time>2025-09-07T07:36:04Z</time>
      </trkpt>
      <trkpt lat="46.17461" lon="4.56564">
        <ele>442.6</ele>
        <time>2025-09-07T07:36:05Z</time>
      </trkpt>
      <trkpt lat="46.17462" lon="4.56566">
        <ele>443</ele>
        <time>2025-09-07T07:36:06Z</time>
      </trkpt>
      <trkpt lat="46.17463" lon="4.56566">
        <ele>443.2</ele>
        <time>2025-09-07T07:36:07Z</time>
      </trkpt>
      <trkpt lat="46.17465" lon="4.56567">
        <ele>443.2</ele>
        <time>2025-09-07T07:36:08Z</time>
      </trkpt>
      <trkpt lat="46.17466" lon="4.56568">
        <ele>443.4</ele>
        <time>2025-09-07T07:36:09Z</time>
      </trkpt>
      <trkpt lat="46.17467" lon="4.56569">
        <ele>443.4</ele>
        <time>2025-09-07T07:36:10Z</time>
      </trkpt>
      <trkpt lat="46.17468" lon="4.5657">
        <ele>443.8</ele>
        <time>2025-09-07T07:36:11Z</time>
      </trkpt>
      <trkpt lat="46.17468" lon="4.56571">
        <ele>443.8</ele>
        <time>2025-09-07T07:36:12Z</time>
      </trkpt>
      <trkpt lat="46.17469" lon="4.56572">
        <ele>444</ele>
        <time>2025-09-07T07:36:13Z</time>
      </trkpt>
      <trkpt lat="46.1747" lon="4.56573">
        <ele>444</ele>
        <time>2025-09-07T07:36:14Z</time>
      </trkpt>
      <trkpt lat="46.17472" lon="4.56574">
        <ele>444.2</ele>
        <time>2025-09-07T07:36:15Z</time>
      </trkpt>
      <trkpt lat="46.17474" lon="4.56576">
        <ele>444.2</ele>
        <time>2025-09-07T07:36:16Z</time>
      </trkpt>
      <trkpt lat="46.17475" lon="4.56577">
        <ele>444.2</ele>
        <time>2025-09-07T07:36:17Z</time>
      </trkpt>
      <trkpt lat="46.17476" lon="4.56578">
        <ele>444.6</ele>
        <time>2025-09-07T07:36:18Z</time>
      </trkpt>
      <trkpt lat="46.17477" lon="4.56579">
        <ele>444.6</ele>
        <time>2025-09-07T07:36:19Z</time>
      </trkpt>
      <trkpt lat="46.17478" lon="4.5658">
        <ele>444.8</ele>
        <time>2025-09-07T07:36:20Z</time>
      </trkpt>
      <trkpt lat="46.17479" lon="4.56581">
        <ele>444.8</ele>
        <time>2025-09-07T07:36:21Z</time>
      </trkpt>
      <trkpt lat="46.1748" lon="4.56582">
        <ele>444.8</ele>
        <time>2025-09-07T07:36:22Z</time>
      </trkpt>
      <trkpt lat="46.17482" lon="4.56583">
        <ele>445</ele>
        <time>2025-09-07T07:36:23Z</time>
      </trkpt>
      <trkpt lat="46.17483" lon="4.56585">
        <ele>445</ele>
        <time>2025-09-07T07:36:24Z</time>
      </trkpt>
      <trkpt lat="46.17484" lon="4.56586">
        <ele>445.2</ele>
        <time>2025-09-07T07:36:25Z</time>
      </trkpt>
      <trkpt lat="46.17485" lon="4.56587">
        <ele>445.2</ele>
        <time>2025-09-07T07:36:26Z</time>
      </trkpt>
      <trkpt lat="46.17487" lon="4.56588">
        <ele>445.4</ele>
        <time>2025-09-07T07:36:27Z</time>
      </trkpt>
      <trkpt lat="46.17488" lon="4.56588">
        <ele>445.4</ele>
        <time>2025-09-07T07:36:28Z</time>
      </trkpt>
      <trkpt lat="46.17489" lon="4.56589">
        <ele>445.4</ele>
        <time>2025-09-07T07:36:29Z</time>
      </trkpt>
      <trkpt lat="46.17491" lon="4.56589">
        <ele>445.4</ele>
        <time>2025-09-07T07:36:30Z</time>
      </trkpt>
      <trkpt lat="46.17492" lon="4.5659">
        <ele>445.4</ele>
        <time>2025-09-07T07:36:31Z</time>
      </trkpt>
      <trkpt lat="46.17494" lon="4.56591">
        <ele>445.8</ele>
        <time>2025-09-07T07:36:32Z</time>
      </trkpt>
      <trkpt lat="46.17495" lon="4.56592">
        <ele>445.8</ele>
        <time>2025-09-07T07:36:33Z</time>
      </trkpt>
      <trkpt lat="46.17496" lon="4.56593">
        <ele>446.2</ele>
        <time>2025-09-07T07:36:34Z</time>
      </trkpt>
      <trkpt lat="46.17497" lon="4.56593">
        <ele>446.6</ele>
        <time>2025-09-07T07:36:35Z</time>
      </trkpt>
      <trkpt lat="46.17498" lon="4.56593">
        <ele>446.6</ele>
        <time>2025-09-07T07:36:36Z</time>
      </trkpt>
      <trkpt lat="46.175" lon="4.56593">
        <ele>446.8</ele>
        <time>2025-09-07T07:36:37Z</time>
      </trkpt>
      <trkpt lat="46.17501" lon="4.56594">
        <ele>446.8</ele>
        <time>2025-09-07T07:36:38Z</time>
      </trkpt>
      <trkpt lat="46.17502" lon="4.56594">
        <ele>447.2</ele>
        <time>2025-09-07T07:36:39Z</time>
      </trkpt>
      <trkpt lat="46.17503" lon="4.56594">
        <ele>447.2</ele>
        <time>2025-09-07T07:36:40Z</time>
      </trkpt>
      <trkpt lat="46.17505" lon="4.56595">
        <ele>447.2</ele>
        <time>2025-09-07T07:36:41Z</time>
      </trkpt>
      <trkpt lat="46.17506" lon="4.56596">
        <ele>447.4</ele>
        <time>2025-09-07T07:36:42Z</time>
      </trkpt>
      <trkpt lat="46.17508" lon="4.56597">
        <ele>447.4</ele>
        <time>2025-09-07T07:36:43Z</time>
      </trkpt>
      <trkpt lat="46.17509" lon="4.56598">
        <ele>447.8</ele>
        <time>2025-09-07T07:36:44Z</time>
      </trkpt>
      <trkpt lat="46.17509" lon="4.56598">
        <ele>447.8</ele>
        <time>2025-09-07T07:36:45Z</time>
      </trkpt>
      <trkpt lat="46.17509" lon="4.56598">
        <ele>447.8</ele>
        <time>2025-09-07T07:36:46Z</time>
      </trkpt>
      <trkpt lat="46.17516" lon="4.56601">
        <ele>447.8</ele>
        <time>2025-09-07T07:36:48Z</time>
      </trkpt>
      <trkpt lat="46.17517" lon="4.56601">
        <ele>447.8</ele>
        <time>2025-09-07T07:36:49Z</time>
      </trkpt>
      <trkpt lat="46.17519" lon="4.56602">
        <ele>447.8</ele>
        <time>2025-09-07T07:36:50Z</time>
      </trkpt>
      <trkpt lat="46.17521" lon="4.56602">
        <ele>447.6</ele>
        <time>2025-09-07T07:36:51Z</time>
      </trkpt>
      <trkpt lat="46.17522" lon="4.56601">
        <ele>447.8</ele>
        <time>2025-09-07T07:36:52Z</time>
      </trkpt>
      <trkpt lat="46.17524" lon="4.566">
        <ele>447.8</ele>
        <time>2025-09-07T07:36:53Z</time>
      </trkpt>
      <trkpt lat="46.17526" lon="4.56599">
        <ele>447.8</ele>
        <time>2025-09-07T07:36:54Z</time>
      </trkpt>
      <trkpt lat="46.17528" lon="4.56597">
        <ele>448</ele>
        <time>2025-09-07T07:36:55Z</time>
      </trkpt>
      <trkpt lat="46.17529" lon="4.56596">
        <ele>447.6</ele>
        <time>2025-09-07T07:36:56Z</time>
      </trkpt>
      <trkpt lat="46.17531" lon="4.56595">
        <ele>447.6</ele>
        <time>2025-09-07T07:36:57Z</time>
      </trkpt>
      <trkpt lat="46.17533" lon="4.56593">
        <ele>449</ele>
        <time>2025-09-07T07:36:58Z</time>
      </trkpt>
      <trkpt lat="46.17534" lon="4.56593">
        <ele>448.8</ele>
        <time>2025-09-07T07:36:59Z</time>
      </trkpt>
      <trkpt lat="46.17536" lon="4.56592">
        <ele>448.8</ele>
        <time>2025-09-07T07:37:00Z</time>
      </trkpt>
      <trkpt lat="46.17537" lon="4.56592">
        <ele>448.8</ele>
        <time>2025-09-07T07:37:01Z</time>
      </trkpt>
      <trkpt lat="46.17539" lon="4.56591">
        <ele>448.8</ele>
        <time>2025-09-07T07:37:02Z</time>
      </trkpt>
      <trkpt lat="46.17542" lon="4.56591">
        <ele>449</ele>
        <time>2025-09-07T07:37:03Z</time>
      </trkpt>
      <trkpt lat="46.17544" lon="4.56591">
        <ele>449.4</ele>
        <time>2025-09-07T07:37:04Z</time>
      </trkpt>
      <trkpt lat="46.17546" lon="4.56591">
        <ele>449.2</ele>
        <time>2025-09-07T07:37:05Z</time>
      </trkpt>
      <trkpt lat="46.17548" lon="4.56591">
        <ele>449.6</ele>
        <time>2025-09-07T07:37:06Z</time>
      </trkpt>
      <trkpt lat="46.17549" lon="4.56591">
        <ele>449</ele>
        <time>2025-09-07T07:37:07Z</time>
      </trkpt>
      <trkpt lat="46.17551" lon="4.56592">
        <ele>449.4</ele>
        <time>2025-09-07T07:37:08Z</time>
      </trkpt>
      <trkpt lat="46.17553" lon="4.56593">
        <ele>449.6</ele>
        <time>2025-09-07T07:37:09Z</time>
      </trkpt>
      <trkpt lat="46.17555" lon="4.56594">
        <ele>450</ele>
        <time>2025-09-07T07:37:10Z</time>
      </trkpt>
      <trkpt lat="46.17556" lon="4.56595">
        <ele>450.6</ele>
        <time>2025-09-07T07:37:11Z</time>
      </trkpt>
      <trkpt lat="46.17558" lon="4.56596">
        <ele>450.6</ele>
        <time>2025-09-07T07:37:12Z</time>
      </trkpt>
      <trkpt lat="46.1756" lon="4.56596">
        <ele>451</ele>
        <time>2025-09-07T07:37:13Z</time>
      </trkpt>
      <trkpt lat="46.17561" lon="4.56598">
        <ele>451</ele>
        <time>2025-09-07T07:37:14Z</time>
      </trkpt>
      <trkpt lat="46.17562" lon="4.56599">
        <ele>450.8</ele>
        <time>2025-09-07T07:37:15Z</time>
      </trkpt>
      <trkpt lat="46.17563" lon="4.56601">
        <ele>451</ele>
        <time>2025-09-07T07:37:16Z</time>
      </trkpt>
      <trkpt lat="46.17565" lon="4.56602">
        <ele>451</ele>
        <time>2025-09-07T07:37:17Z</time>
      </trkpt>
      <trkpt lat="46.17566" lon="4.56602">
        <ele>451.8</ele>
        <time>2025-09-07T07:37:18Z</time>
      </trkpt>
      <trkpt lat="46.17567" lon="4.56602">
        <ele>451.8</ele>
        <time>2025-09-07T07:37:19Z</time>
      </trkpt>
      <trkpt lat="46.17568" lon="4.56602">
        <ele>452.6</ele>
        <time>2025-09-07T07:37:20Z</time>
      </trkpt>
      <trkpt lat="46.1757" lon="4.56602">
        <ele>452.6</ele>
        <time>2025-09-07T07:37:21Z</time>
      </trkpt>
      <trkpt lat="46.17572" lon="4.56602">
        <ele>453.4</ele>
        <time>2025-09-07T07:37:22Z</time>
      </trkpt>
      <trkpt lat="46.17573" lon="4.56603">
        <ele>453.4</ele>
        <time>2025-09-07T07:37:23Z</time>
      </trkpt>
      <trkpt lat="46.17575" lon="4.56603">
        <ele>453.4</ele>
        <time>2025-09-07T07:37:24Z</time>
      </trkpt>
      <trkpt lat="46.17576" lon="4.56603">
        <ele>453.4</ele>
        <time>2025-09-07T07:37:25Z</time>
      </trkpt>
      <trkpt lat="46.17578" lon="4.56602">
        <ele>453.4</ele>
        <time>2025-09-07T07:37:26Z</time>
      </trkpt>
      <trkpt lat="46.17579" lon="4.56602">
        <ele>453.8</ele>
        <time>2025-09-07T07:37:27Z</time>
      </trkpt>
      <trkpt lat="46.1758" lon="4.56602">
        <ele>454</ele>
        <time>2025-09-07T07:37:28Z</time>
      </trkpt>
      <trkpt lat="46.17582" lon="4.56602">
        <ele>454</ele>
        <time>2025-09-07T07:37:29Z</time>
      </trkpt>
      <trkpt lat="46.17582" lon="4.56602">
        <ele>453.6</ele>
        <time>2025-09-07T07:37:30Z</time>
      </trkpt>
      <trkpt lat="46.17584" lon="4.56602">
        <ele>454</ele>
        <time>2025-09-07T07:37:31Z</time>
      </trkpt>
      <trkpt lat="46.17586" lon="4.56602">
        <ele>454.4</ele>
        <time>2025-09-07T07:37:32Z</time>
      </trkpt>
      <trkpt lat="46.17587" lon="4.56602">
        <ele>454.4</ele>
        <time>2025-09-07T07:37:33Z</time>
      </trkpt>
      <trkpt lat="46.17588" lon="4.56601">
        <ele>454.4</ele>
        <time>2025-09-07T07:37:34Z</time>
      </trkpt>
      <trkpt lat="46.1759" lon="4.56601">
        <ele>454.4</ele>
        <time>2025-09-07T07:37:35Z</time>
      </trkpt>
      <trkpt lat="46.17591" lon="4.56601">
        <ele>454.8</ele>
        <time>2025-09-07T07:37:36Z</time>
      </trkpt>
      <trkpt lat="46.17593" lon="4.56601">
        <ele>455.4</ele>
        <time>2025-09-07T07:37:37Z</time>
      </trkpt>
      <trkpt lat="46.17594" lon="4.566">
        <ele>455.4</ele>
        <time>2025-09-07T07:37:38Z</time>
      </trkpt>
      <trkpt lat="46.17595" lon="4.566">
        <ele>455.8</ele>
        <time>2025-09-07T07:37:39Z</time>
      </trkpt>
      <trkpt lat="46.17597" lon="4.56601">
        <ele>456.2</ele>
        <time>2025-09-07T07:37:40Z</time>
      </trkpt>
      <trkpt lat="46.17598" lon="4.56601">
        <ele>456.2</ele>
        <time>2025-09-07T07:37:41Z</time>
      </trkpt>
      <trkpt lat="46.176" lon="4.56601">
        <ele>456.8</ele>
        <time>2025-09-07T07:37:42Z</time>
      </trkpt>
      <trkpt lat="46.17602" lon="4.566">
        <ele>457</ele>
        <time>2025-09-07T07:37:43Z</time>
      </trkpt>
      <trkpt lat="46.17603" lon="4.566">
        <ele>457</ele>
        <time>2025-09-07T07:37:44Z</time>
      </trkpt>
      <trkpt lat="46.17605" lon="4.566">
        <ele>457.4</ele>
        <time>2025-09-07T07:37:45Z</time>
      </trkpt>
      <trkpt lat="46.17607" lon="4.566">
        <ele>457.4</ele>
        <time>2025-09-07T07:37:46Z</time>
      </trkpt>
      <trkpt lat="46.17608" lon="4.566">
        <ele>457.6</ele>
        <time>2025-09-07T07:37:47Z</time>
      </trkpt>
      <trkpt lat="46.1761" lon="4.566">
        <ele>457.6</ele>
        <time>2025-09-07T07:37:48Z</time>
      </trkpt>
      <trkpt lat="46.17611" lon="4.566">
        <ele>458.2</ele>
        <time>2025-09-07T07:37:49Z</time>
      </trkpt>
      <trkpt lat="46.17614" lon="4.566">
        <ele>458.2</ele>
        <time>2025-09-07T07:37:50Z</time>
      </trkpt>
      <trkpt lat="46.17615" lon="4.566">
        <ele>458.2</ele>
        <time>2025-09-07T07:37:51Z</time>
      </trkpt>
      <trkpt lat="46.17617" lon="4.566">
        <ele>458.4</ele>
        <time>2025-09-07T07:37:52Z</time>
      </trkpt>
      <trkpt lat="46.17618" lon="4.566">
        <ele>458.4</ele>
        <time>2025-09-07T07:37:53Z</time>
      </trkpt>
      <trkpt lat="46.17619" lon="4.56601">
        <ele>458.4</ele>
        <time>2025-09-07T07:37:54Z</time>
      </trkpt>
      <trkpt lat="46.1762" lon="4.56601">
        <ele>458.4</ele>
        <time>2025-09-07T07:37:55Z</time>
      </trkpt>
      <trkpt lat="46.17622" lon="4.566">
        <ele>458.4</ele>
        <time>2025-09-07T07:37:56Z</time>
      </trkpt>
      <trkpt lat="46.17623" lon="4.566">
        <ele>458.8</ele>
        <time>2025-09-07T07:37:57Z</time>
      </trkpt>
      <trkpt lat="46.17624" lon="4.566">
        <ele>458.8</ele>
        <time>2025-09-07T07:37:58Z</time>
      </trkpt>
      <trkpt lat="46.17626" lon="4.56599">
        <ele>459.2</ele>
        <time>2025-09-07T07:37:59Z</time>
      </trkpt>
      <trkpt lat="46.17627" lon="4.56599">
        <ele>459.4</ele>
        <time>2025-09-07T07:38:00Z</time>
      </trkpt>
      <trkpt lat="46.17628" lon="4.56599">
        <ele>459.4</ele>
        <time>2025-09-07T07:38:01Z</time>
      </trkpt>
      <trkpt lat="46.17629" lon="4.56598">
        <ele>459.6</ele>
        <time>2025-09-07T07:38:02Z</time>
      </trkpt>
      <trkpt lat="46.17631" lon="4.56598">
        <ele>459.6</ele>
        <time>2025-09-07T07:38:03Z</time>
      </trkpt>
      <trkpt lat="46.17632" lon="4.56598">
        <ele>459.6</ele>
        <time>2025-09-07T07:38:04Z</time>
      </trkpt>
      <trkpt lat="46.17634" lon="4.56597">
        <ele>459.6</ele>
        <time>2025-09-07T07:38:05Z</time>
      </trkpt>
      <trkpt lat="46.17635" lon="4.56598">
        <ele>460</ele>
        <time>2025-09-07T07:38:06Z</time>
      </trkpt>
      <trkpt lat="46.17636" lon="4.56597">
        <ele>460.6</ele>
        <time>2025-09-07T07:38:07Z</time>
      </trkpt>
      <trkpt lat="46.17637" lon="4.56597">
        <ele>460.6</ele>
        <time>2025-09-07T07:38:08Z</time>
      </trkpt>
      <trkpt lat="46.17639" lon="4.56596">
        <ele>460.6</ele>
        <time>2025-09-07T07:38:09Z</time>
      </trkpt>
      <trkpt lat="46.1764" lon="4.56596">
        <ele>460.6</ele>
        <time>2025-09-07T07:38:10Z</time>
      </trkpt>
      <trkpt lat="46.17642" lon="4.56596">
        <ele>461</ele>
        <time>2025-09-07T07:38:11Z</time>
      </trkpt>
      <trkpt lat="46.17643" lon="4.56595">
        <ele>461.2</ele>
        <time>2025-09-07T07:38:12Z</time>
      </trkpt>
      <trkpt lat="46.17644" lon="4.56594">
        <ele>461.2</ele>
        <time>2025-09-07T07:38:13Z</time>
      </trkpt>
      <trkpt lat="46.17645" lon="4.56594">
        <ele>461.2</ele>
        <time>2025-09-07T07:38:14Z</time>
      </trkpt>
      <trkpt lat="46.17647" lon="4.56593">
        <ele>461.4</ele>
        <time>2025-09-07T07:38:15Z</time>
      </trkpt>
      <trkpt lat="46.17648" lon="4.56592">
        <ele>461.4</ele>
        <time>2025-09-07T07:38:16Z</time>
      </trkpt>
      <trkpt lat="46.17649" lon="4.56592">
        <ele>461.8</ele>
        <time>2025-09-07T07:38:17Z</time>
      </trkpt>
      <trkpt lat="46.17651" lon="4.56592">
        <ele>462.2</ele>
        <time>2025-09-07T07:38:18Z</time>
      </trkpt>
      <trkpt lat="46.17652" lon="4.56591">
        <ele>462.6</ele>
        <time>2025-09-07T07:38:19Z</time>
      </trkpt>
      <trkpt lat="46.17653" lon="4.5659">
        <ele>463</ele>
        <time>2025-09-07T07:38:20Z</time>
      </trkpt>
      <trkpt lat="46.17655" lon="4.5659">
        <ele>463</ele>
        <time>2025-09-07T07:38:21Z</time>
      </trkpt>
      <trkpt lat="46.17656" lon="4.5659">
        <ele>463</ele>
        <time>2025-09-07T07:38:22Z</time>
      </trkpt>
      <trkpt lat="46.17657" lon="4.56589">
        <ele>463.2</ele>
        <time>2025-09-07T07:38:23Z</time>
      </trkpt>
      <trkpt lat="46.17658" lon="4.56589">
        <ele>464</ele>
        <time>2025-09-07T07:38:24Z</time>
      </trkpt>
      <trkpt lat="46.17659" lon="4.56588">
        <ele>464</ele>
        <time>2025-09-07T07:38:25Z</time>
      </trkpt>
      <trkpt lat="46.1766" lon="4.56588">
        <ele>464</ele>
        <time>2025-09-07T07:38:26Z</time>
      </trkpt>
      <trkpt lat="46.1766" lon="4.56588">
        <ele>464</ele>
        <time>2025-09-07T07:38:27Z</time>
      </trkpt>
      <trkpt lat="46.1766" lon="4.56588">
        <ele>464.2</ele>
        <time>2025-09-07T07:38:28Z</time>
      </trkpt>
      <trkpt lat="46.1766" lon="4.56588">
        <ele>464.2</ele>
        <time>2025-09-07T07:38:36Z</time>
      </trkpt>
      <trkpt lat="46.17661" lon="4.56588">
        <ele>464.2</ele>
        <time>2025-09-07T07:38:37Z</time>
      </trkpt>
      <trkpt lat="46.17662" lon="4.56588">
        <ele>464.2</ele>
        <time>2025-09-07T07:38:38Z</time>
      </trkpt>
      <trkpt lat="46.17663" lon="4.56588">
        <ele>464.2</ele>
        <time>2025-09-07T07:38:39Z</time>
      </trkpt>
      <trkpt lat="46.17663" lon="4.56587">
        <ele>464.2</ele>
        <time>2025-09-07T07:38:40Z</time>
      </trkpt>
      <trkpt lat="46.17664" lon="4.56587">
        <ele>464.2</ele>
        <time>2025-09-07T07:38:41Z</time>
      </trkpt>
      <trkpt lat="46.17664" lon="4.56586">
        <ele>464.6</ele>
        <time>2025-09-07T07:38:42Z</time>
      </trkpt>
      <trkpt lat="46.17665" lon="4.56586">
        <ele>465</ele>
        <time>2025-09-07T07:38:43Z</time>
      </trkpt>
      <trkpt lat="46.17665" lon="4.56585">
        <ele>465</ele>
        <time>2025-09-07T07:38:44Z</time>
      </trkpt>
      <trkpt lat="46.17666" lon="4.56585">
        <ele>465.2</ele>
        <time>2025-09-07T07:38:45Z</time>
      </trkpt>
      <trkpt lat="46.17666" lon="4.56584">
        <ele>465</ele>
        <time>2025-09-07T07:38:46Z</time>
      </trkpt>
      <trkpt lat="46.17666" lon="4.56584">
        <ele>465</ele>
        <time>2025-09-07T07:38:47Z</time>
      </trkpt>
      <trkpt lat="46.17668" lon="4.56584">
        <ele>465.6</ele>
        <time>2025-09-07T07:39:56Z</time>
      </trkpt>
      <trkpt lat="46.17668" lon="4.56584">
        <ele>465.6</ele>
        <time>2025-09-07T07:39:57Z</time>
      </trkpt>
      <trkpt lat="46.17669" lon="4.56584">
        <ele>465.2</ele>
        <time>2025-09-07T07:40:03Z</time>
      </trkpt>
      <trkpt lat="46.17671" lon="4.56583">
        <ele>465.2</ele>
        <time>2025-09-07T07:40:04Z</time>
      </trkpt>
      <trkpt lat="46.17672" lon="4.56583">
        <ele>465.2</ele>
        <time>2025-09-07T07:40:05Z</time>
      </trkpt>
      <trkpt lat="46.17674" lon="4.56581">
        <ele>464.8</ele>
        <time>2025-09-07T07:40:06Z</time>
      </trkpt>
      <trkpt lat="46.17676" lon="4.5658">
        <ele>465.2</ele>
        <time>2025-09-07T07:40:07Z</time>
      </trkpt>
      <trkpt lat="46.17677" lon="4.5658">
        <ele>465.2</ele>
        <time>2025-09-07T07:40:08Z</time>
      </trkpt>
      <trkpt lat="46.17679" lon="4.56579">
        <ele>466.2</ele>
        <time>2025-09-07T07:40:09Z</time>
      </trkpt>
      <trkpt lat="46.17681" lon="4.56578">
        <ele>466.2</ele>
        <time>2025-09-07T07:40:10Z</time>
      </trkpt>
      <trkpt lat="46.17682" lon="4.56578">
        <ele>466.6</ele>
        <time>2025-09-07T07:40:11Z</time>
      </trkpt>
      <trkpt lat="46.17684" lon="4.56577">
        <ele>467.2</ele>
        <time>2025-09-07T07:40:12Z</time>
      </trkpt>
      <trkpt lat="46.17685" lon="4.56577">
        <ele>467.8</ele>
        <time>2025-09-07T07:40:13Z</time>
      </trkpt>
      <trkpt lat="46.17687" lon="4.56577">
        <ele>467.4</ele>
        <time>2025-09-07T07:40:14Z</time>
      </trkpt>
      <trkpt lat="46.17688" lon="4.56577">
        <ele>466.8</ele>
        <time>2025-09-07T07:40:15Z</time>
      </trkpt>
      <trkpt lat="46.1769" lon="4.56576">
        <ele>466.8</ele>
        <time>2025-09-07T07:40:16Z</time>
      </trkpt>
      <trkpt lat="46.17691" lon="4.56575">
        <ele>467.2</ele>
        <time>2025-09-07T07:40:17Z</time>
      </trkpt>
      <trkpt lat="46.17693" lon="4.56574">
        <ele>466.4</ele>
        <time>2025-09-07T07:40:18Z</time>
      </trkpt>
      <trkpt lat="46.17695" lon="4.56573">
        <ele>466.8</ele>
        <time>2025-09-07T07:40:19Z</time>
      </trkpt>
      <trkpt lat="46.17696" lon="4.56572">
        <ele>467.4</ele>
        <time>2025-09-07T07:40:20Z</time>
      </trkpt>
      <trkpt lat="46.17697" lon="4.56571">
        <ele>467.8</ele>
        <time>2025-09-07T07:40:21Z</time>
      </trkpt>
      <trkpt lat="46.17698" lon="4.5657">
        <ele>468.2</ele>
        <time>2025-09-07T07:40:22Z</time>
      </trkpt>
      <trkpt lat="46.177" lon="4.5657">
        <ele>468.2</ele>
        <time>2025-09-07T07:40:23Z</time>
      </trkpt>
      <trkpt lat="46.17702" lon="4.56569">
        <ele>468.2</ele>
        <time>2025-09-07T07:40:24Z</time>
      </trkpt>
      <trkpt lat="46.17703" lon="4.56568">
        <ele>468.4</ele>
        <time>2025-09-07T07:40:25Z</time>
      </trkpt>
      <trkpt lat="46.17704" lon="4.56567">
        <ele>468.4</ele>
        <time>2025-09-07T07:40:26Z</time>
      </trkpt>
      <trkpt lat="46.17706" lon="4.56566">
        <ele>468.8</ele>
        <time>2025-09-07T07:40:27Z</time>
      </trkpt>
      <trkpt lat="46.17707" lon="4.56565">
        <ele>468.8</ele>
        <time>2025-09-07T07:40:28Z</time>
      </trkpt>
      <trkpt lat="46.17708" lon="4.56564">
        <ele>469.2</ele>
        <time>2025-09-07T07:40:29Z</time>
      </trkpt>
      <trkpt lat="46.17709" lon="4.56563">
        <ele>469.2</ele>
        <time>2025-09-07T07:40:30Z</time>
      </trkpt>
      <trkpt lat="46.17711" lon="4.56563">
        <ele>469.2</ele>
        <time>2025-09-07T07:40:31Z</time>
      </trkpt>
      <trkpt lat="46.17712" lon="4.56562">
        <ele>469.2</ele>
        <time>2025-09-07T07:40:32Z</time>
      </trkpt>
      <trkpt lat="46.17713" lon="4.56561">
        <ele>469.2</ele>
        <time>2025-09-07T07:40:33Z</time>
      </trkpt>
      <trkpt lat="46.17714" lon="4.5656">
        <ele>469.2</ele>
        <time>2025-09-07T07:40:34Z</time>
      </trkpt>
      <trkpt lat="46.17716" lon="4.56559">
        <ele>469.6</ele>
        <time>2025-09-07T07:40:35Z</time>
      </trkpt>
      <trkpt lat="46.17717" lon="4.56559">
        <ele>469.6</ele>
        <time>2025-09-07T07:40:36Z</time>
      </trkpt>
      <trkpt lat="46.17718" lon="4.56558">
        <ele>470</ele>
        <time>2025-09-07T07:40:37Z</time>
      </trkpt>
      <trkpt lat="46.1772" lon="4.56558">
        <ele>470.4</ele>
        <time>2025-09-07T07:40:38Z</time>
      </trkpt>
      <trkpt lat="46.17721" lon="4.56557">
        <ele>470.4</ele>
        <time>2025-09-07T07:40:39Z</time>
      </trkpt>
      <trkpt lat="46.17722" lon="4.56557">
        <ele>470.8</ele>
        <time>2025-09-07T07:40:40Z</time>
      </trkpt>
      <trkpt lat="46.17723" lon="4.56556">
        <ele>470.8</ele>
        <time>2025-09-07T07:40:41Z</time>
      </trkpt>
      <trkpt lat="46.17725" lon="4.56555">
        <ele>471</ele>
        <time>2025-09-07T07:40:42Z</time>
      </trkpt>
      <trkpt lat="46.17726" lon="4.56553">
        <ele>471</ele>
        <time>2025-09-07T07:40:43Z</time>
      </trkpt>
      <trkpt lat="46.17728" lon="4.56552">
        <ele>471</ele>
        <time>2025-09-07T07:40:44Z</time>
      </trkpt>
      <trkpt lat="46.17729" lon="4.56552">
        <ele>471.2</ele>
        <time>2025-09-07T07:40:45Z</time>
      </trkpt>
      <trkpt lat="46.1773" lon="4.56551">
        <ele>471.2</ele>
        <time>2025-09-07T07:40:46Z</time>
      </trkpt>
      <trkpt lat="46.17731" lon="4.56549">
        <ele>471.6</ele>
        <time>2025-09-07T07:40:47Z</time>
      </trkpt>
      <trkpt lat="46.17732" lon="4.56548">
        <ele>471.8</ele>
        <time>2025-09-07T07:40:48Z</time>
      </trkpt>
      <trkpt lat="46.17734" lon="4.56548">
        <ele>472.2</ele>
        <time>2025-09-07T07:40:49Z</time>
      </trkpt>
      <trkpt lat="46.17735" lon="4.56547">
        <ele>472.2</ele>
        <time>2025-09-07T07:40:50Z</time>
      </trkpt>
      <trkpt lat="46.17737" lon="4.56546">
        <ele>472.4</ele>
        <time>2025-09-07T07:40:51Z</time>
      </trkpt>
      <trkpt lat="46.17738" lon="4.56545">
        <ele>472.8</ele>
        <time>2025-09-07T07:40:52Z</time>
      </trkpt>
      <trkpt lat="46.17739" lon="4.56545">
        <ele>473.2</ele>
        <time>2025-09-07T07:40:53Z</time>
      </trkpt>
      <trkpt lat="46.1774" lon="4.56544">
        <ele>473.6</ele>
        <time>2025-09-07T07:40:54Z</time>
      </trkpt>
      <trkpt lat="46.17741" lon="4.56543">
        <ele>473.6</ele>
        <time>2025-09-07T07:40:55Z</time>
      </trkpt>
      <trkpt lat="46.17743" lon="4.56541">
        <ele>473.6</ele>
        <time>2025-09-07T07:40:56Z</time>
      </trkpt>
      <trkpt lat="46.17744" lon="4.5654">
        <ele>474</ele>
        <time>2025-09-07T07:40:57Z</time>
      </trkpt>
      <trkpt lat="46.17745" lon="4.56539">
        <ele>474.4</ele>
        <time>2025-09-07T07:40:58Z</time>
      </trkpt>
      <trkpt lat="46.17746" lon="4.56537">
        <ele>474.6</ele>
        <time>2025-09-07T07:40:59Z</time>
      </trkpt>
      <trkpt lat="46.17747" lon="4.56536">
        <ele>474.6</ele>
        <time>2025-09-07T07:41:00Z</time>
      </trkpt>
      <trkpt lat="46.17749" lon="4.56534">
        <ele>474.4</ele>
        <time>2025-09-07T07:41:01Z</time>
      </trkpt>
      <trkpt lat="46.1775" lon="4.56533">
        <ele>474.4</ele>
        <time>2025-09-07T07:41:02Z</time>
      </trkpt>
      <trkpt lat="46.17751" lon="4.56532">
        <ele>474.4</ele>
        <time>2025-09-07T07:41:03Z</time>
      </trkpt>
      <trkpt lat="46.17752" lon="4.5653">
        <ele>474.6</ele>
        <time>2025-09-07T07:41:04Z</time>
      </trkpt>
      <trkpt lat="46.17753" lon="4.56529">
        <ele>474.6</ele>
        <time>2025-09-07T07:41:05Z</time>
      </trkpt>
      <trkpt lat="46.17754" lon="4.56528">
        <ele>475</ele>
        <time>2025-09-07T07:41:06Z</time>
      </trkpt>
      <trkpt lat="46.17756" lon="4.56527">
        <ele>474.8</ele>
        <time>2025-09-07T07:41:07Z</time>
      </trkpt>
      <trkpt lat="46.17756" lon="4.56527">
        <ele>475</ele>
        <time>2025-09-07T07:41:08Z</time>
      </trkpt>
      <trkpt lat="46.17757" lon="4.56526">
        <ele>475</ele>
        <time>2025-09-07T07:41:09Z</time>
      </trkpt>
      <trkpt lat="46.17758" lon="4.56524">
        <ele>475.2</ele>
        <time>2025-09-07T07:41:10Z</time>
      </trkpt>
      <trkpt lat="46.17759" lon="4.56523">
        <ele>475.4</ele>
        <time>2025-09-07T07:41:11Z</time>
      </trkpt>
      <trkpt lat="46.1776" lon="4.56522">
        <ele>475.4</ele>
        <time>2025-09-07T07:41:12Z</time>
      </trkpt>
      <trkpt lat="46.17762" lon="4.5652">
        <ele>475.8</ele>
        <time>2025-09-07T07:41:13Z</time>
      </trkpt>
      <trkpt lat="46.17763" lon="4.56518">
        <ele>476.2</ele>
        <time>2025-09-07T07:41:14Z</time>
      </trkpt>
      <trkpt lat="46.17764" lon="4.56517">
        <ele>476.2</ele>
        <time>2025-09-07T07:41:15Z</time>
      </trkpt>
      <trkpt lat="46.17765" lon="4.56515">
        <ele>476.4</ele>
        <time>2025-09-07T07:41:16Z</time>
      </trkpt>
      <trkpt lat="46.17766" lon="4.56514">
        <ele>476.4</ele>
        <time>2025-09-07T07:41:17Z</time>
      </trkpt>
      <trkpt lat="46.17767" lon="4.56513">
        <ele>476.6</ele>
        <time>2025-09-07T07:41:18Z</time>
      </trkpt>
      <trkpt lat="46.17768" lon="4.56512">
        <ele>476.6</ele>
        <time>2025-09-07T07:41:19Z</time>
      </trkpt>
      <trkpt lat="46.17769" lon="4.56511">
        <ele>477</ele>
        <time>2025-09-07T07:41:20Z</time>
      </trkpt>
      <trkpt lat="46.1777" lon="4.5651">
        <ele>477</ele>
        <time>2025-09-07T07:41:21Z</time>
      </trkpt>
      <trkpt lat="46.17771" lon="4.56509">
        <ele>477.4</ele>
        <time>2025-09-07T07:41:22Z</time>
      </trkpt>
      <trkpt lat="46.17771" lon="4.56507">
        <ele>477.8</ele>
        <time>2025-09-07T07:41:23Z</time>
      </trkpt>
      <trkpt lat="46.17772" lon="4.56506">
        <ele>477.8</ele>
        <time>2025-09-07T07:41:24Z</time>
      </trkpt>
      <trkpt lat="46.17773" lon="4.56505">
        <ele>478.2</ele>
        <time>2025-09-07T07:41:25Z</time>
      </trkpt>
      <trkpt lat="46.17774" lon="4.56503">
        <ele>478.2</ele>
        <time>2025-09-07T07:41:26Z</time>
      </trkpt>
      <trkpt lat="46.17775" lon="4.56502">
        <ele>478.2</ele>
        <time>2025-09-07T07:41:27Z</time>
      </trkpt>
      <trkpt lat="46.17776" lon="4.56501">
        <ele>478.6</ele>
        <time>2025-09-07T07:41:28Z</time>
      </trkpt>
      <trkpt lat="46.17776" lon="4.565">
        <ele>478.6</ele>
        <time>2025-09-07T07:41:29Z</time>
      </trkpt>
      <trkpt lat="46.17777" lon="4.56498">
        <ele>478.6</ele>
        <time>2025-09-07T07:41:30Z</time>
      </trkpt>
      <trkpt lat="46.17778" lon="4.56497">
        <ele>479</ele>
        <time>2025-09-07T07:41:31Z</time>
      </trkpt>
      <trkpt lat="46.17779" lon="4.56496">
        <ele>479.4</ele>
        <time>2025-09-07T07:41:32Z</time>
      </trkpt>
      <trkpt lat="46.1778" lon="4.56496">
        <ele>479.6</ele>
        <time>2025-09-07T07:41:33Z</time>
      </trkpt>
      <trkpt lat="46.17781" lon="4.56495">
        <ele>479.6</ele>
        <time>2025-09-07T07:41:34Z</time>
      </trkpt>
      <trkpt lat="46.17781" lon="4.56494">
        <ele>479.6</ele>
        <time>2025-09-07T07:41:35Z</time>
      </trkpt>
      <trkpt lat="46.17782" lon="4.56493">
        <ele>480</ele>
        <time>2025-09-07T07:41:36Z</time>
      </trkpt>
      <trkpt lat="46.17784" lon="4.56491">
        <ele>480</ele>
        <time>2025-09-07T07:41:37Z</time>
      </trkpt>
      <trkpt lat="46.17785" lon="4.56491">
        <ele>480</ele>
        <time>2025-09-07T07:41:38Z</time>
      </trkpt>
      <trkpt lat="46.17786" lon="4.5649">
        <ele>480</ele>
        <time>2025-09-07T07:41:39Z</time>
      </trkpt>
      <trkpt lat="46.17787" lon="4.56488">
        <ele>480.4</ele>
        <time>2025-09-07T07:41:40Z</time>
      </trkpt>
      <trkpt lat="46.17787" lon="4.56487">
        <ele>480</ele>
        <time>2025-09-07T07:41:41Z</time>
      </trkpt>
      <trkpt lat="46.17788" lon="4.56486">
        <ele>480.4</ele>
        <time>2025-09-07T07:41:42Z</time>
      </trkpt>
      <trkpt lat="46.17789" lon="4.56485">
        <ele>480.6</ele>
        <time>2025-09-07T07:41:43Z</time>
      </trkpt>
      <trkpt lat="46.17789" lon="4.56484">
        <ele>481</ele>
        <time>2025-09-07T07:41:44Z</time>
      </trkpt>
      <trkpt lat="46.1779" lon="4.56483">
        <ele>481</ele>
        <time>2025-09-07T07:41:45Z</time>
      </trkpt>
      <trkpt lat="46.17791" lon="4.56482">
        <ele>481.2</ele>
        <time>2025-09-07T07:41:46Z</time>
      </trkpt>
      <trkpt lat="46.17792" lon="4.56481">
        <ele>481.4</ele>
        <time>2025-09-07T07:41:47Z</time>
      </trkpt>
      <trkpt lat="46.17793" lon="4.5648">
        <ele>481.4</ele>
        <time>2025-09-07T07:41:48Z</time>
      </trkpt>
      <trkpt lat="46.17794" lon="4.56479">
        <ele>481.8</ele>
        <time>2025-09-07T07:41:49Z</time>
      </trkpt>
      <trkpt lat="46.17794" lon="4.56478">
        <ele>481.8</ele>
        <time>2025-09-07T07:41:50Z</time>
      </trkpt>
      <trkpt lat="46.17795" lon="4.56477">
        <ele>482.4</ele>
        <time>2025-09-07T07:41:51Z</time>
      </trkpt>
      <trkpt lat="46.17796" lon="4.56476">
        <ele>482.4</ele>
        <time>2025-09-07T07:41:52Z</time>
      </trkpt>
      <trkpt lat="46.17797" lon="4.56475">
        <ele>482.4</ele>
        <time>2025-09-07T07:41:53Z</time>
      </trkpt>
      <trkpt lat="46.17798" lon="4.56475">
        <ele>482.8</ele>
        <time>2025-09-07T07:41:54Z</time>
      </trkpt>
      <trkpt lat="46.17798" lon="4.56473">
        <ele>483</ele>
        <time>2025-09-07T07:41:55Z</time>
      </trkpt>
      <trkpt lat="46.17799" lon="4.56472">
        <ele>483</ele>
        <time>2025-09-07T07:41:56Z</time>
      </trkpt>
      <trkpt lat="46.17799" lon="4.56471">
        <ele>483</ele>
        <time>2025-09-07T07:41:57Z</time>
      </trkpt>
      <trkpt lat="46.178" lon="4.5647">
        <ele>483.4</ele>
        <time>2025-09-07T07:41:58Z</time>
      </trkpt>
      <trkpt lat="46.17801" lon="4.56468">
        <ele>483.4</ele>
        <time>2025-09-07T07:41:59Z</time>
      </trkpt>
      <trkpt lat="46.17802" lon="4.56467">
        <ele>483.8</ele>
        <time>2025-09-07T07:42:00Z</time>
      </trkpt>
      <trkpt lat="46.17802" lon="4.56466">
        <ele>483.8</ele>
        <time>2025-09-07T07:42:01Z</time>
      </trkpt>
      <trkpt lat="46.17803" lon="4.56465">
        <ele>483.8</ele>
        <time>2025-09-07T07:42:02Z</time>
      </trkpt>
      <trkpt lat="46.17804" lon="4.56464">
        <ele>484.2</ele>
        <time>2025-09-07T07:42:03Z</time>
      </trkpt>
      <trkpt lat="46.17804" lon="4.56464">
        <ele>484.2</ele>
        <time>2025-09-07T07:42:04Z</time>
      </trkpt>
      <trkpt lat="46.17805" lon="4.56463">
        <ele>484.2</ele>
        <time>2025-09-07T07:42:05Z</time>
      </trkpt>
      <trkpt lat="46.17806" lon="4.56462">
        <ele>484.8</ele>
        <time>2025-09-07T07:42:06Z</time>
      </trkpt>
      <trkpt lat="46.17806" lon="4.5646">
        <ele>484.4</ele>
        <time>2025-09-07T07:42:07Z</time>
      </trkpt>
      <trkpt lat="46.17807" lon="4.56459">
        <ele>484.4</ele>
        <time>2025-09-07T07:42:08Z</time>
      </trkpt>
      <trkpt lat="46.17808" lon="4.56458">
        <ele>484.8</ele>
        <time>2025-09-07T07:42:09Z</time>
      </trkpt>
      <trkpt lat="46.17808" lon="4.56456">
        <ele>485.2</ele>
        <time>2025-09-07T07:42:10Z</time>
      </trkpt>
      <trkpt lat="46.17809" lon="4.56455">
        <ele>485.2</ele>
        <time>2025-09-07T07:42:11Z</time>
      </trkpt>
      <trkpt lat="46.17809" lon="4.56454">
        <ele>485.8</ele>
        <time>2025-09-07T07:42:12Z</time>
      </trkpt>
      <trkpt lat="46.1781" lon="4.56452">
        <ele>485.8</ele>
        <time>2025-09-07T07:42:13Z</time>
      </trkpt>
      <trkpt lat="46.1781" lon="4.56451">
        <ele>486</ele>
        <time>2025-09-07T07:42:14Z</time>
      </trkpt>
      <trkpt lat="46.17811" lon="4.56449">
        <ele>486</ele>
        <time>2025-09-07T07:42:15Z</time>
      </trkpt>
      <trkpt lat="46.17811" lon="4.56447">
        <ele>485.6</ele>
        <time>2025-09-07T07:42:16Z</time>
      </trkpt>
      <trkpt lat="46.17812" lon="4.56445">
        <ele>485.8</ele>
        <time>2025-09-07T07:42:17Z</time>
      </trkpt>
      <trkpt lat="46.17813" lon="4.56443">
        <ele>486.4</ele>
        <time>2025-09-07T07:42:18Z</time>
      </trkpt>
      <trkpt lat="46.17813" lon="4.56442">
        <ele>486.8</ele>
        <time>2025-09-07T07:42:19Z</time>
      </trkpt>
      <trkpt lat="46.17814" lon="4.56441">
        <ele>487</ele>
        <time>2025-09-07T07:42:20Z</time>
      </trkpt>
      <trkpt lat="46.17814" lon="4.5644">
        <ele>487.2</ele>
        <time>2025-09-07T07:42:21Z</time>
      </trkpt>
      <trkpt lat="46.17814" lon="4.5644">
        <ele>487.2</ele>
        <time>2025-09-07T07:42:22Z</time>
      </trkpt>
      <trkpt lat="46.17814" lon="4.56441">
        <ele>487.4</ele>
        <time>2025-09-07T07:42:31Z</time>
      </trkpt>
      <trkpt lat="46.17815" lon="4.56439">
        <ele>487.4</ele>
        <time>2025-09-07T07:42:32Z</time>
      </trkpt>
      <trkpt lat="46.17816" lon="4.56438">
        <ele>487.4</ele>
        <time>2025-09-07T07:42:33Z</time>
      </trkpt>
      <trkpt lat="46.17816" lon="4.56437">
        <ele>487.4</ele>
        <time>2025-09-07T07:42:34Z</time>
      </trkpt>
      <trkpt lat="46.17816" lon="4.56436">
        <ele>487.4</ele>
        <time>2025-09-07T07:42:35Z</time>
      </trkpt>
      <trkpt lat="46.17817" lon="4.56434">
        <ele>487.4</ele>
        <time>2025-09-07T07:42:36Z</time>
      </trkpt>
      <trkpt lat="46.17817" lon="4.56433">
        <ele>487.8</ele>
        <time>2025-09-07T07:42:37Z</time>
      </trkpt>
      <trkpt lat="46.17818" lon="4.56431">
        <ele>488.2</ele>
        <time>2025-09-07T07:42:38Z</time>
      </trkpt>
      <trkpt lat="46.17818" lon="4.5643">
        <ele>488.6</ele>
        <time>2025-09-07T07:42:39Z</time>
      </trkpt>
      <trkpt lat="46.17819" lon="4.56429">
        <ele>489</ele>
        <time>2025-09-07T07:42:40Z</time>
      </trkpt>
      <trkpt lat="46.17819" lon="4.56428">
        <ele>489.2</ele>
        <time>2025-09-07T07:42:41Z</time>
      </trkpt>
      <trkpt lat="46.1782" lon="4.56427">
        <ele>489.2</ele>
        <time>2025-09-07T07:42:42Z</time>
      </trkpt>
      <trkpt lat="46.1782" lon="4.56426">
        <ele>489.2</ele>
        <time>2025-09-07T07:42:43Z</time>
      </trkpt>
      <trkpt lat="46.17821" lon="4.56425">
        <ele>489.6</ele>
        <time>2025-09-07T07:42:44Z</time>
      </trkpt>
      <trkpt lat="46.17821" lon="4.56424">
        <ele>489.8</ele>
        <time>2025-09-07T07:42:45Z</time>
      </trkpt>
      <trkpt lat="46.17821" lon="4.56423">
        <ele>489.8</ele>
        <time>2025-09-07T07:42:46Z</time>
      </trkpt>
      <trkpt lat="46.17822" lon="4.56422">
        <ele>489.6</ele>
        <time>2025-09-07T07:42:47Z</time>
      </trkpt>
      <trkpt lat="46.17822" lon="4.56421">
        <ele>489.8</ele>
        <time>2025-09-07T07:42:48Z</time>
      </trkpt>
      <trkpt lat="46.17823" lon="4.56419">
        <ele>489.8</ele>
        <time>2025-09-07T07:42:49Z</time>
      </trkpt>
      <trkpt lat="46.17823" lon="4.56418">
        <ele>490.2</ele>
        <time>2025-09-07T07:42:50Z</time>
      </trkpt>
      <trkpt lat="46.17823" lon="4.56417">
        <ele>490.4</ele>
        <time>2025-09-07T07:42:51Z</time>
      </trkpt>
      <trkpt lat="46.17823" lon="4.56416">
        <ele>490.4</ele>
        <time>2025-09-07T07:42:52Z</time>
      </trkpt>
      <trkpt lat="46.17823" lon="4.56414">
        <ele>490.4</ele>
        <time>2025-09-07T07:42:53Z</time>
      </trkpt>
      <trkpt lat="46.17824" lon="4.56413">
        <ele>490.4</ele>
        <time>2025-09-07T07:42:54Z</time>
      </trkpt>
      <trkpt lat="46.17824" lon="4.56412">
        <ele>490.4</ele>
        <time>2025-09-07T07:42:55Z</time>
      </trkpt>
      <trkpt lat="46.17825" lon="4.56411">
        <ele>491</ele>
        <time>2025-09-07T07:42:56Z</time>
      </trkpt>
      <trkpt lat="46.17825" lon="4.5641">
        <ele>491.2</ele>
        <time>2025-09-07T07:42:57Z</time>
      </trkpt>
      <trkpt lat="46.17825" lon="4.56408">
        <ele>491.4</ele>
        <time>2025-09-07T07:42:58Z</time>
      </trkpt>
      <trkpt lat="46.17826" lon="4.56407">
        <ele>491.4</ele>
        <time>2025-09-07T07:42:59Z</time>
      </trkpt>
      <trkpt lat="46.17826" lon="4.56406">
        <ele>491.8</ele>
        <time>2025-09-07T07:43:00Z</time>
      </trkpt>
      <trkpt lat="46.17826" lon="4.56405">
        <ele>491.8</ele>
        <time>2025-09-07T07:43:01Z</time>
      </trkpt>
      <trkpt lat="46.17826" lon="4.56403">
        <ele>491.8</ele>
        <time>2025-09-07T07:43:02Z</time>
      </trkpt>
      <trkpt lat="46.17827" lon="4.56402">
        <ele>492</ele>
        <time>2025-09-07T07:43:03Z</time>
      </trkpt>
      <trkpt lat="46.17827" lon="4.56401">
        <ele>492</ele>
        <time>2025-09-07T07:43:04Z</time>
      </trkpt>
      <trkpt lat="46.17828" lon="4.564">
        <ele>492</ele>
        <time>2025-09-07T07:43:05Z</time>
      </trkpt>
      <trkpt lat="46.17828" lon="4.56399">
        <ele>492</ele>
        <time>2025-09-07T07:43:06Z</time>
      </trkpt>
      <trkpt lat="46.17828" lon="4.56398">
        <ele>492</ele>
        <time>2025-09-07T07:43:07Z</time>
      </trkpt>
      <trkpt lat="46.17829" lon="4.56397">
        <ele>492.2</ele>
        <time>2025-09-07T07:43:08Z</time>
      </trkpt>
      <trkpt lat="46.17829" lon="4.56396">
        <ele>492.2</ele>
        <time>2025-09-07T07:43:09Z</time>
      </trkpt>
      <trkpt lat="46.1783" lon="4.56395">
        <ele>492.4</ele>
        <time>2025-09-07T07:43:10Z</time>
      </trkpt>
      <trkpt lat="46.17831" lon="4.56394">
        <ele>492.8</ele>
        <time>2025-09-07T07:43:11Z</time>
      </trkpt>
      <trkpt lat="46.17831" lon="4.56392">
        <ele>492.8</ele>
        <time>2025-09-07T07:43:12Z</time>
      </trkpt>
      <trkpt lat="46.17832" lon="4.56391">
        <ele>493.2</ele>
        <time>2025-09-07T07:43:13Z</time>
      </trkpt>
      <trkpt lat="46.17833" lon="4.5639">
        <ele>493.8</ele>
        <time>2025-09-07T07:43:14Z</time>
      </trkpt>
      <trkpt lat="46.17834" lon="4.56389">
        <ele>493.8</ele>
        <time>2025-09-07T07:43:15Z</time>
      </trkpt>
      <trkpt lat="46.17834" lon="4.56388">
        <ele>493.8</ele>
        <time>2025-09-07T07:43:16Z</time>
      </trkpt>
      <trkpt lat="46.17835" lon="4.56387">
        <ele>493.8</ele>
        <time>2025-09-07T07:43:17Z</time>
      </trkpt>
      <trkpt lat="46.17836" lon="4.56386">
        <ele>493.4</ele>
        <time>2025-09-07T07:43:18Z</time>
      </trkpt>
      <trkpt lat="46.17837" lon="4.56385">
        <ele>493.8</ele>
        <time>2025-09-07T07:43:19Z</time>
      </trkpt>
      <trkpt lat="46.17837" lon="4.56384">
        <ele>493.8</ele>
        <time>2025-09-07T07:43:20Z</time>
      </trkpt>
      <trkpt lat="46.17838" lon="4.56384">
        <ele>493.8</ele>
        <time>2025-09-07T07:43:21Z</time>
      </trkpt>
      <trkpt lat="46.17839" lon="4.56382">
        <ele>494.2</ele>
        <time>2025-09-07T07:43:22Z</time>
      </trkpt>
      <trkpt lat="46.17839" lon="4.56382">
        <ele>493.8</ele>
        <time>2025-09-07T07:43:23Z</time>
      </trkpt>
      <trkpt lat="46.1784" lon="4.56381">
        <ele>493.8</ele>
        <time>2025-09-07T07:43:24Z</time>
      </trkpt>
      <trkpt lat="46.17841" lon="4.5638">
        <ele>494.2</ele>
        <time>2025-09-07T07:43:25Z</time>
      </trkpt>
      <trkpt lat="46.17842" lon="4.56379">
        <ele>494.4</ele>
        <time>2025-09-07T07:43:26Z</time>
      </trkpt>
      <trkpt lat="46.17843" lon="4.56378">
        <ele>494.8</ele>
        <time>2025-09-07T07:43:27Z</time>
      </trkpt>
      <trkpt lat="46.17844" lon="4.56377">
        <ele>494.8</ele>
        <time>2025-09-07T07:43:28Z</time>
      </trkpt>
      <trkpt lat="46.17845" lon="4.56376">
        <ele>494.8</ele>
        <time>2025-09-07T07:43:29Z</time>
      </trkpt>
      <trkpt lat="46.17846" lon="4.56375">
        <ele>494.8</ele>
        <time>2025-09-07T07:43:30Z</time>
      </trkpt>
      <trkpt lat="46.17847" lon="4.56374">
        <ele>494.8</ele>
        <time>2025-09-07T07:43:31Z</time>
      </trkpt>
      <trkpt lat="46.17847" lon="4.56373">
        <ele>495.2</ele>
        <time>2025-09-07T07:43:32Z</time>
      </trkpt>
      <trkpt lat="46.17848" lon="4.56372">
        <ele>495.2</ele>
        <time>2025-09-07T07:43:33Z</time>
      </trkpt>
      <trkpt lat="46.17849" lon="4.56371">
        <ele>495.2</ele>
        <time>2025-09-07T07:43:34Z</time>
      </trkpt>
      <trkpt lat="46.1785" lon="4.5637">
        <ele>495.4</ele>
        <time>2025-09-07T07:43:35Z</time>
      </trkpt>
      <trkpt lat="46.17851" lon="4.56369">
        <ele>496</ele>
        <time>2025-09-07T07:43:36Z</time>
      </trkpt>
      <trkpt lat="46.17851" lon="4.56368">
        <ele>496</ele>
        <time>2025-09-07T07:43:37Z</time>
      </trkpt>
      <trkpt lat="46.17852" lon="4.56366">
        <ele>495.6</ele>
        <time>2025-09-07T07:43:38Z</time>
      </trkpt>
      <trkpt lat="46.17853" lon="4.56365">
        <ele>495.6</ele>
        <time>2025-09-07T07:43:39Z</time>
      </trkpt>
      <trkpt lat="46.17853" lon="4.56364">
        <ele>496</ele>
        <time>2025-09-07T07:43:40Z</time>
      </trkpt>
      <trkpt lat="46.17854" lon="4.56363">
        <ele>496</ele>
        <time>2025-09-07T07:43:41Z</time>
      </trkpt>
      <trkpt lat="46.17855" lon="4.56363">
        <ele>496</ele>
        <time>2025-09-07T07:43:42Z</time>
      </trkpt>
      <trkpt lat="46.17855" lon="4.56362">
        <ele>496</ele>
        <time>2025-09-07T07:43:43Z</time>
      </trkpt>
      <trkpt lat="46.17856" lon="4.56361">
        <ele>496</ele>
        <time>2025-09-07T07:43:44Z</time>
      </trkpt>
      <trkpt lat="46.17856" lon="4.5636">
        <ele>496</ele>
        <time>2025-09-07T07:43:45Z</time>
      </trkpt>
      <trkpt lat="46.17857" lon="4.56359">
        <ele>496</ele>
        <time>2025-09-07T07:43:46Z</time>
      </trkpt>
      <trkpt lat="46.17857" lon="4.56359">
        <ele>496.4</ele>
        <time>2025-09-07T07:43:47Z</time>
      </trkpt>
      <trkpt lat="46.17857" lon="4.56358">
        <ele>496.6</ele>
        <time>2025-09-07T07:43:55Z</time>
      </trkpt>
      <trkpt lat="46.17858" lon="4.56357">
        <ele>496.6</ele>
        <time>2025-09-07T07:43:56Z</time>
      </trkpt>
      <trkpt lat="46.17859" lon="4.56356">
        <ele>496.4</ele>
        <time>2025-09-07T07:43:57Z</time>
      </trkpt>
      <trkpt lat="46.1786" lon="4.56354">
        <ele>496.4</ele>
        <time>2025-09-07T07:43:58Z</time>
      </trkpt>
      <trkpt lat="46.17861" lon="4.56353">
        <ele>496.4</ele>
        <time>2025-09-07T07:43:59Z</time>
      </trkpt>
      <trkpt lat="46.17861" lon="4.56352">
        <ele>496.6</ele>
        <time>2025-09-07T07:44:00Z</time>
      </trkpt>
      <trkpt lat="46.17862" lon="4.56351">
        <ele>496.6</ele>
        <time>2025-09-07T07:44:01Z</time>
      </trkpt>
      <trkpt lat="46.17863" lon="4.5635">
        <ele>496.6</ele>
        <time>2025-09-07T07:44:02Z</time>
      </trkpt>
      <trkpt lat="46.17864" lon="4.56349">
        <ele>496.6</ele>
        <time>2025-09-07T07:44:03Z</time>
      </trkpt>
      <trkpt lat="46.17865" lon="4.56348">
        <ele>496.6</ele>
        <time>2025-09-07T07:44:04Z</time>
      </trkpt>
      <trkpt lat="46.17865" lon="4.56347">
        <ele>496.6</ele>
        <time>2025-09-07T07:44:05Z</time>
      </trkpt>
      <trkpt lat="46.17866" lon="4.56346">
        <ele>496.6</ele>
        <time>2025-09-07T07:44:06Z</time>
      </trkpt>
      <trkpt lat="46.17867" lon="4.56344">
        <ele>496.4</ele>
        <time>2025-09-07T07:44:07Z</time>
      </trkpt>
      <trkpt lat="46.17867" lon="4.56343">
        <ele>496.4</ele>
        <time>2025-09-07T07:44:08Z</time>
      </trkpt>
      <trkpt lat="46.17867" lon="4.56342">
        <ele>496.6</ele>
        <time>2025-09-07T07:44:09Z</time>
      </trkpt>
      <trkpt lat="46.17867" lon="4.56342">
        <ele>496.6</ele>
        <time>2025-09-07T07:44:10Z</time>
      </trkpt>
      <trkpt lat="46.17867" lon="4.56342">
        <ele>496.6</ele>
        <time>2025-09-07T07:44:11Z</time>
      </trkpt>
      <trkpt lat="46.17868" lon="4.56344">
        <ele>497.8</ele>
        <time>2025-09-07T07:49:06Z</time>
      </trkpt>
      <trkpt lat="46.17869" lon="4.56343">
        <ele>497.4</ele>
        <time>2025-09-07T07:49:07Z</time>
      </trkpt>
      <trkpt lat="46.17871" lon="4.56342">
        <ele>497.2</ele>
        <time>2025-09-07T07:49:08Z</time>
      </trkpt>
      <trkpt lat="46.17873" lon="4.56341">
        <ele>497.2</ele>
        <time>2025-09-07T07:49:09Z</time>
      </trkpt>
      <trkpt lat="46.17875" lon="4.56338">
        <ele>496.8</ele>
        <time>2025-09-07T07:49:10Z</time>
      </trkpt>
      <trkpt lat="46.17878" lon="4.56336">
        <ele>496.6</ele>
        <time>2025-09-07T07:49:11Z</time>
      </trkpt>
      <trkpt lat="46.17881" lon="4.56333">
        <ele>496.4</ele>
        <time>2025-09-07T07:49:12Z</time>
      </trkpt>
      <trkpt lat="46.17884" lon="4.56331">
        <ele>496.4</ele>
        <time>2025-09-07T07:49:13Z</time>
      </trkpt>
      <trkpt lat="46.17887" lon="4.5633">
        <ele>495.6</ele>
        <time>2025-09-07T07:49:14Z</time>
      </trkpt>
      <trkpt lat="46.1789" lon="4.56329">
        <ele>494.4</ele>
        <time>2025-09-07T07:49:15Z</time>
      </trkpt>
      <trkpt lat="46.17893" lon="4.56328">
        <ele>494.2</ele>
        <time>2025-09-07T07:49:16Z</time>
      </trkpt>
      <trkpt lat="46.17896" lon="4.56327">
        <ele>493.8</ele>
        <time>2025-09-07T07:49:17Z</time>
      </trkpt>
      <trkpt lat="46.17899" lon="4.56327">
        <ele>493.6</ele>
        <time>2025-09-07T07:49:18Z</time>
      </trkpt>
      <trkpt lat="46.17902" lon="4.56326">
        <ele>493.6</ele>
        <time>2025-09-07T07:49:19Z</time>
      </trkpt>
      <trkpt lat="46.17906" lon="4.56325">
        <ele>493.8</ele>
        <time>2025-09-07T07:49:20Z</time>
      </trkpt>
      <trkpt lat="46.17908" lon="4.56324">
        <ele>494.2</ele>
        <time>2025-09-07T07:49:21Z</time>
      </trkpt>
      <trkpt lat="46.17911" lon="4.56323">
        <ele>494.8</ele>
        <time>2025-09-07T07:49:22Z</time>
      </trkpt>
      <trkpt lat="46.17914" lon="4.56322">
        <ele>492.8</ele>
        <time>2025-09-07T07:49:23Z</time>
      </trkpt>
      <trkpt lat="46.17918" lon="4.56321">
        <ele>492.2</ele>
        <time>2025-09-07T07:49:24Z</time>
      </trkpt>
      <trkpt lat="46.17921" lon="4.5632">
        <ele>492</ele>
        <time>2025-09-07T07:49:25Z</time>
      </trkpt>
      <trkpt lat="46.17923" lon="4.56319">
        <ele>491.2</ele>
        <time>2025-09-07T07:49:26Z</time>
      </trkpt>
      <trkpt lat="46.17926" lon="4.56319">
        <ele>491.2</ele>
        <time>2025-09-07T07:49:27Z</time>
      </trkpt>
      <trkpt lat="46.17934" lon="4.56318">
        <ele>490</ele>
        <time>2025-09-07T07:49:28Z</time>
      </trkpt>
      <trkpt lat="46.17938" lon="4.56319">
        <ele>489.6</ele>
        <time>2025-09-07T07:49:29Z</time>
      </trkpt>
      <trkpt lat="46.17941" lon="4.5632">
        <ele>488.8</ele>
        <time>2025-09-07T07:49:30Z</time>
      </trkpt>
      <trkpt lat="46.17944" lon="4.56322">
        <ele>488.8</ele>
        <time>2025-09-07T07:49:31Z</time>
      </trkpt>
      <trkpt lat="46.17947" lon="4.56325">
        <ele>488.8</ele>
        <time>2025-09-07T07:49:32Z</time>
      </trkpt>
      <trkpt lat="46.17949" lon="4.56328">
        <ele>488.8</ele>
        <time>2025-09-07T07:49:33Z</time>
      </trkpt>
      <trkpt lat="46.1795" lon="4.56331">
        <ele>488.8</ele>
        <time>2025-09-07T07:49:34Z</time>
      </trkpt>
      <trkpt lat="46.17951" lon="4.56335">
        <ele>488.8</ele>
        <time>2025-09-07T07:49:35Z</time>
      </trkpt>
      <trkpt lat="46.17951" lon="4.56338">
        <ele>488.6</ele>
        <time>2025-09-07T07:49:36Z</time>
      </trkpt>
      <trkpt lat="46.17951" lon="4.56341">
        <ele>488.6</ele>
        <time>2025-09-07T07:49:37Z</time>
      </trkpt>
      <trkpt lat="46.17952" lon="4.56343">
        <ele>488.8</ele>
        <time>2025-09-07T07:49:38Z</time>
      </trkpt>
      <trkpt lat="46.17952" lon="4.56346">
        <ele>489</ele>
        <time>2025-09-07T07:49:39Z</time>
      </trkpt>
      <trkpt lat="46.17953" lon="4.56348">
        <ele>489</ele>
        <time>2025-09-07T07:49:40Z</time>
      </trkpt>
      <trkpt lat="46.17953" lon="4.56351">
        <ele>489.4</ele>
        <time>2025-09-07T07:49:41Z</time>
      </trkpt>
      <trkpt lat="46.17953" lon="4.56351">
        <ele>489.6</ele>
        <time>2025-09-07T07:49:42Z</time>
      </trkpt>
      <trkpt lat="46.17954" lon="4.56353">
        <ele>490</ele>
        <time>2025-09-07T07:49:43Z</time>
      </trkpt>
      <trkpt lat="46.17954" lon="4.56355">
        <ele>490.6</ele>
        <time>2025-09-07T07:49:44Z</time>
      </trkpt>
      <trkpt lat="46.17955" lon="4.56356">
        <ele>491.2</ele>
        <time>2025-09-07T07:49:45Z</time>
      </trkpt>
      <trkpt lat="46.17956" lon="4.56357">
        <ele>491.4</ele>
        <time>2025-09-07T07:49:46Z</time>
      </trkpt>
      <trkpt lat="46.17957" lon="4.56359">
        <ele>491.6</ele>
        <time>2025-09-07T07:49:47Z</time>
      </trkpt>
      <trkpt lat="46.17958" lon="4.5636">
        <ele>492.2</ele>
        <time>2025-09-07T07:49:48Z</time>
      </trkpt>
      <trkpt lat="46.17958" lon="4.56361">
        <ele>492.2</ele>
        <time>2025-09-07T07:49:49Z</time>
      </trkpt>
      <trkpt lat="46.17959" lon="4.56363">
        <ele>492.8</ele>
        <time>2025-09-07T07:49:50Z</time>
      </trkpt>
      <trkpt lat="46.1796" lon="4.56364">
        <ele>493.2</ele>
        <time>2025-09-07T07:49:51Z</time>
      </trkpt>
      <trkpt lat="46.17961" lon="4.56365">
        <ele>493.4</ele>
        <time>2025-09-07T07:49:52Z</time>
      </trkpt>
      <trkpt lat="46.17962" lon="4.56367">
        <ele>493.8</ele>
        <time>2025-09-07T07:49:53Z</time>
      </trkpt>
      <trkpt lat="46.17963" lon="4.56368">
        <ele>493.8</ele>
        <time>2025-09-07T07:49:54Z</time>
      </trkpt>
      <trkpt lat="46.17963" lon="4.56369">
        <ele>494.2</ele>
        <time>2025-09-07T07:49:55Z</time>
      </trkpt>
      <trkpt lat="46.17964" lon="4.5637">
        <ele>494.4</ele>
        <time>2025-09-07T07:49:56Z</time>
      </trkpt>
      <trkpt lat="46.17965" lon="4.56372">
        <ele>494.4</ele>
        <time>2025-09-07T07:49:57Z</time>
      </trkpt>
      <trkpt lat="46.17965" lon="4.56374">
        <ele>494.6</ele>
        <time>2025-09-07T07:49:58Z</time>
      </trkpt>
      <trkpt lat="46.17966" lon="4.56375">
        <ele>495</ele>
        <time>2025-09-07T07:49:59Z</time>
      </trkpt>
      <trkpt lat="46.17966" lon="4.56377">
        <ele>495</ele>
        <time>2025-09-07T07:50:00Z</time>
      </trkpt>
      <trkpt lat="46.17966" lon="4.56379">
        <ele>495.4</ele>
        <time>2025-09-07T07:50:01Z</time>
      </trkpt>
      <trkpt lat="46.17966" lon="4.56381">
        <ele>495.6</ele>
        <time>2025-09-07T07:50:02Z</time>
      </trkpt>
      <trkpt lat="46.17967" lon="4.56382">
        <ele>495.6</ele>
        <time>2025-09-07T07:50:03Z</time>
      </trkpt>
      <trkpt lat="46.17967" lon="4.56384">
        <ele>495.8</ele>
        <time>2025-09-07T07:50:04Z</time>
      </trkpt>
      <trkpt lat="46.17968" lon="4.56385">
        <ele>495.8</ele>
        <time>2025-09-07T07:50:05Z</time>
      </trkpt>
      <trkpt lat="46.17968" lon="4.56387">
        <ele>496</ele>
        <time>2025-09-07T07:50:06Z</time>
      </trkpt>
      <trkpt lat="46.17969" lon="4.56388">
        <ele>496.4</ele>
        <time>2025-09-07T07:50:07Z</time>
      </trkpt>
      <trkpt lat="46.17969" lon="4.5639">
        <ele>496.4</ele>
        <time>2025-09-07T07:50:08Z</time>
      </trkpt>
      <trkpt lat="46.17969" lon="4.56391">
        <ele>496.6</ele>
        <time>2025-09-07T07:50:09Z</time>
      </trkpt>
      <trkpt lat="46.1797" lon="4.56393">
        <ele>496.6</ele>
        <time>2025-09-07T07:50:10Z</time>
      </trkpt>
      <trkpt lat="46.1797" lon="4.56394">
        <ele>497</ele>
        <time>2025-09-07T07:50:11Z</time>
      </trkpt>
      <trkpt lat="46.1797" lon="4.56396">
        <ele>497</ele>
        <time>2025-09-07T07:50:12Z</time>
      </trkpt>
      <trkpt lat="46.1797" lon="4.56398">
        <ele>497</ele>
        <time>2025-09-07T07:50:13Z</time>
      </trkpt>
      <trkpt lat="46.1797" lon="4.564">
        <ele>497.2</ele>
        <time>2025-09-07T07:50:14Z</time>
      </trkpt>
      <trkpt lat="46.1797" lon="4.56401">
        <ele>497.2</ele>
        <time>2025-09-07T07:50:15Z</time>
      </trkpt>
      <trkpt lat="46.17971" lon="4.56403">
        <ele>497.2</ele>
        <time>2025-09-07T07:50:16Z</time>
      </trkpt>
      <trkpt lat="46.17971" lon="4.56405">
        <ele>497.4</ele>
        <time>2025-09-07T07:50:17Z</time>
      </trkpt>
      <trkpt lat="46.17971" lon="4.56407">
        <ele>497.4</ele>
        <time>2025-09-07T07:50:18Z</time>
      </trkpt>
      <trkpt lat="46.17971" lon="4.56408">
        <ele>497.8</ele>
        <time>2025-09-07T07:50:19Z</time>
      </trkpt>
      <trkpt lat="46.17971" lon="4.5641">
        <ele>497.8</ele>
        <time>2025-09-07T07:50:20Z</time>
      </trkpt>
      <trkpt lat="46.17971" lon="4.56411">
        <ele>498.2</ele>
        <time>2025-09-07T07:50:21Z</time>
      </trkpt>
      <trkpt lat="46.17971" lon="4.56413">
        <ele>498.2</ele>
        <time>2025-09-07T07:50:22Z</time>
      </trkpt>
      <trkpt lat="46.17971" lon="4.56414">
        <ele>498.4</ele>
        <time>2025-09-07T07:50:23Z</time>
      </trkpt>
      <trkpt lat="46.17972" lon="4.56418">
        <ele>498.8</ele>
        <time>2025-09-07T07:50:24Z</time>
      </trkpt>
      <trkpt lat="46.17972" lon="4.56419">
        <ele>498.8</ele>
        <time>2025-09-07T07:50:25Z</time>
      </trkpt>
      <trkpt lat="46.17972" lon="4.5642">
        <ele>498.8</ele>
        <time>2025-09-07T07:50:26Z</time>
      </trkpt>
      <trkpt lat="46.17973" lon="4.56422">
        <ele>499</ele>
        <time>2025-09-07T07:50:27Z</time>
      </trkpt>
      <trkpt lat="46.17973" lon="4.56423">
        <ele>499</ele>
        <time>2025-09-07T07:50:28Z</time>
      </trkpt>
      <trkpt lat="46.17973" lon="4.56425">
        <ele>499.4</ele>
        <time>2025-09-07T07:50:29Z</time>
      </trkpt>
      <trkpt lat="46.17973" lon="4.56426">
        <ele>499.4</ele>
        <time>2025-09-07T07:50:30Z</time>
      </trkpt>
      <trkpt lat="46.17974" lon="4.56427">
        <ele>499.4</ele>
        <time>2025-09-07T07:50:31Z</time>
      </trkpt>
      <trkpt lat="46.17974" lon="4.56429">
        <ele>499.6</ele>
        <time>2025-09-07T07:50:32Z</time>
      </trkpt>
      <trkpt lat="46.17974" lon="4.5643">
        <ele>499.6</ele>
        <time>2025-09-07T07:50:33Z</time>
      </trkpt>
      <trkpt lat="46.17974" lon="4.56432">
        <ele>500</ele>
        <time>2025-09-07T07:50:34Z</time>
      </trkpt>
      <trkpt lat="46.17974" lon="4.56433">
        <ele>500</ele>
        <time>2025-09-07T07:50:35Z</time>
      </trkpt>
      <trkpt lat="46.17974" lon="4.56435">
        <ele>500.2</ele>
        <time>2025-09-07T07:50:36Z</time>
      </trkpt>
      <trkpt lat="46.17975" lon="4.56437">
        <ele>500.2</ele>
        <time>2025-09-07T07:50:37Z</time>
      </trkpt>
      <trkpt lat="46.17975" lon="4.56439">
        <ele>500.4</ele>
        <time>2025-09-07T07:50:38Z</time>
      </trkpt>
      <trkpt lat="46.17975" lon="4.5644">
        <ele>500.4</ele>
        <time>2025-09-07T07:50:39Z</time>
      </trkpt>
      <trkpt lat="46.17976" lon="4.56442">
        <ele>500.4</ele>
        <time>2025-09-07T07:50:40Z</time>
      </trkpt>
      <trkpt lat="46.17976" lon="4.56443">
        <ele>500.4</ele>
        <time>2025-09-07T07:50:41Z</time>
      </trkpt>
      <trkpt lat="46.17976" lon="4.56445">
        <ele>500.8</ele>
        <time>2025-09-07T07:50:42Z</time>
      </trkpt>
      <trkpt lat="46.17976" lon="4.56447">
        <ele>501</ele>
        <time>2025-09-07T07:50:43Z</time>
      </trkpt>
      <trkpt lat="46.17976" lon="4.56449">
        <ele>501</ele>
        <time>2025-09-07T07:50:44Z</time>
      </trkpt>
      <trkpt lat="46.17976" lon="4.5645">
        <ele>501.4</ele>
        <time>2025-09-07T07:50:45Z</time>
      </trkpt>
      <trkpt lat="46.17977" lon="4.56452">
        <ele>501.4</ele>
        <time>2025-09-07T07:50:46Z</time>
      </trkpt>
      <trkpt lat="46.17977" lon="4.56454">
        <ele>501.6</ele>
        <time>2025-09-07T07:50:47Z</time>
      </trkpt>
      <trkpt lat="46.17977" lon="4.56455">
        <ele>501.6</ele>
        <time>2025-09-07T07:50:48Z</time>
      </trkpt>
      <trkpt lat="46.17978" lon="4.56457">
        <ele>501.8</ele>
        <time>2025-09-07T07:50:49Z</time>
      </trkpt>
      <trkpt lat="46.17978" lon="4.56459">
        <ele>501.8</ele>
        <time>2025-09-07T07:50:50Z</time>
      </trkpt>
      <trkpt lat="46.17978" lon="4.56461">
        <ele>501.8</ele>
        <time>2025-09-07T07:50:51Z</time>
      </trkpt>
      <trkpt lat="46.17979" lon="4.56463">
        <ele>501.8</ele>
        <time>2025-09-07T07:50:52Z</time>
      </trkpt>
      <trkpt lat="46.17979" lon="4.56465">
        <ele>502.2</ele>
        <time>2025-09-07T07:50:53Z</time>
      </trkpt>
      <trkpt lat="46.17979" lon="4.56467">
        <ele>502.2</ele>
        <time>2025-09-07T07:50:54Z</time>
      </trkpt>
      <trkpt lat="46.17979" lon="4.56469">
        <ele>502.2</ele>
        <time>2025-09-07T07:50:55Z</time>
      </trkpt>
      <trkpt lat="46.17979" lon="4.56469">
        <ele>502.2</ele>
        <time>2025-09-07T07:50:56Z</time>
      </trkpt>
      <trkpt lat="46.17979" lon="4.5647">
        <ele>502.2</ele>
        <time>2025-09-07T07:50:57Z</time>
      </trkpt>
      <trkpt lat="46.17979" lon="4.56472">
        <ele>502.2</ele>
        <time>2025-09-07T07:50:58Z</time>
      </trkpt>
      <trkpt lat="46.17979" lon="4.56474">
        <ele>502.4</ele>
        <time>2025-09-07T07:50:59Z</time>
      </trkpt>
      <trkpt lat="46.1798" lon="4.56476">
        <ele>502.8</ele>
        <time>2025-09-07T07:51:00Z</time>
      </trkpt>
      <trkpt lat="46.1798" lon="4.56478">
        <ele>502.8</ele>
        <time>2025-09-07T07:51:01Z</time>
      </trkpt>
      <trkpt lat="46.1798" lon="4.5648">
        <ele>502.8</ele>
        <time>2025-09-07T07:51:02Z</time>
      </trkpt>
      <trkpt lat="46.1798" lon="4.56481">
        <ele>502.8</ele>
        <time>2025-09-07T07:51:03Z</time>
      </trkpt>
      <trkpt lat="46.1798" lon="4.56484">
        <ele>502.8</ele>
        <time>2025-09-07T07:51:04Z</time>
      </trkpt>
      <trkpt lat="46.17981" lon="4.56485">
        <ele>503</ele>
        <time>2025-09-07T07:51:05Z</time>
      </trkpt>
      <trkpt lat="46.17981" lon="4.56487">
        <ele>503</ele>
        <time>2025-09-07T07:51:06Z</time>
      </trkpt>
      <trkpt lat="46.17981" lon="4.56488">
        <ele>503</ele>
        <time>2025-09-07T07:51:07Z</time>
      </trkpt>
      <trkpt lat="46.17982" lon="4.5649">
        <ele>503</ele>
        <time>2025-09-07T07:51:08Z</time>
      </trkpt>
      <trkpt lat="46.17982" lon="4.56492">
        <ele>503.2</ele>
        <time>2025-09-07T07:51:09Z</time>
      </trkpt>
      <trkpt lat="46.17982" lon="4.56494">
        <ele>503.4</ele>
        <time>2025-09-07T07:51:10Z</time>
      </trkpt>
      <trkpt lat="46.17982" lon="4.56496">
        <ele>503.4</ele>
        <time>2025-09-07T07:51:11Z</time>
      </trkpt>
      <trkpt lat="46.17982" lon="4.56498">
        <ele>503.8</ele>
        <time>2025-09-07T07:51:12Z</time>
      </trkpt>
      <trkpt lat="46.17982" lon="4.56499">
        <ele>504</ele>
        <time>2025-09-07T07:51:13Z</time>
      </trkpt>
      <trkpt lat="46.17983" lon="4.56501">
        <ele>504.2</ele>
        <time>2025-09-07T07:51:14Z</time>
      </trkpt>
      <trkpt lat="46.17983" lon="4.56502">
        <ele>504.2</ele>
        <time>2025-09-07T07:51:15Z</time>
      </trkpt>
      <trkpt lat="46.17984" lon="4.56504">
        <ele>504.6</ele>
        <time>2025-09-07T07:51:16Z</time>
      </trkpt>
      <trkpt lat="46.17985" lon="4.56505">
        <ele>504.8</ele>
        <time>2025-09-07T07:51:17Z</time>
      </trkpt>
      <trkpt lat="46.17986" lon="4.56506">
        <ele>505.2</ele>
        <time>2025-09-07T07:51:18Z</time>
      </trkpt>
      <trkpt lat="46.17987" lon="4.56508">
        <ele>505.2</ele>
        <time>2025-09-07T07:51:19Z</time>
      </trkpt>
      <trkpt lat="46.17987" lon="4.5651">
        <ele>505.4</ele>
        <time>2025-09-07T07:51:20Z</time>
      </trkpt>
      <trkpt lat="46.17987" lon="4.56511">
        <ele>505.4</ele>
        <time>2025-09-07T07:51:21Z</time>
      </trkpt>
      <trkpt lat="46.17988" lon="4.56513">
        <ele>505.8</ele>
        <time>2025-09-07T07:51:22Z</time>
      </trkpt>
      <trkpt lat="46.17988" lon="4.56515">
        <ele>505.8</ele>
        <time>2025-09-07T07:51:23Z</time>
      </trkpt>
      <trkpt lat="46.17988" lon="4.56517">
        <ele>506.2</ele>
        <time>2025-09-07T07:51:24Z</time>
      </trkpt>
      <trkpt lat="46.17989" lon="4.56519">
        <ele>505.6</ele>
        <time>2025-09-07T07:51:25Z</time>
      </trkpt>
      <trkpt lat="46.17989" lon="4.56521">
        <ele>505.6</ele>
        <time>2025-09-07T07:51:26Z</time>
      </trkpt>
      <trkpt lat="46.1799" lon="4.56523">
        <ele>505.6</ele>
        <time>2025-09-07T07:51:27Z</time>
      </trkpt>
      <trkpt lat="46.1799" lon="4.56525">
        <ele>505.6</ele>
        <time>2025-09-07T07:51:28Z</time>
      </trkpt>
      <trkpt lat="46.17991" lon="4.56527">
        <ele>506.2</ele>
        <time>2025-09-07T07:51:29Z</time>
      </trkpt>
      <trkpt lat="46.17991" lon="4.56529">
        <ele>506.4</ele>
        <time>2025-09-07T07:51:30Z</time>
      </trkpt>
      <trkpt lat="46.17992" lon="4.56531">
        <ele>506.4</ele>
        <time>2025-09-07T07:51:31Z</time>
      </trkpt>
      <trkpt lat="46.17993" lon="4.56532">
        <ele>506.8</ele>
        <time>2025-09-07T07:51:32Z</time>
      </trkpt>
      <trkpt lat="46.17993" lon="4.56534">
        <ele>506.8</ele>
        <time>2025-09-07T07:51:33Z</time>
      </trkpt>
      <trkpt lat="46.17994" lon="4.56536">
        <ele>507</ele>
        <time>2025-09-07T07:51:34Z</time>
      </trkpt>
      <trkpt lat="46.17994" lon="4.56535">
        <ele>507</ele>
        <time>2025-09-07T07:51:35Z</time>
      </trkpt>
      <trkpt lat="46.17994" lon="4.56535">
        <ele>507</ele>
        <time>2025-09-07T07:51:36Z</time>
      </trkpt>
      <trkpt lat="46.17994" lon="4.56536">
        <ele>507.8</ele>
        <time>2025-09-07T07:52:10Z</time>
      </trkpt>
      <trkpt lat="46.17994" lon="4.56538">
        <ele>507.8</ele>
        <time>2025-09-07T07:52:11Z</time>
      </trkpt>
      <trkpt lat="46.17995" lon="4.5654">
        <ele>507.2</ele>
        <time>2025-09-07T07:52:12Z</time>
      </trkpt>
      <trkpt lat="46.17995" lon="4.56542">
        <ele>507.2</ele>
        <time>2025-09-07T07:52:13Z</time>
      </trkpt>
      <trkpt lat="46.17996" lon="4.56544">
        <ele>507.2</ele>
        <time>2025-09-07T07:52:14Z</time>
      </trkpt>
      <trkpt lat="46.17997" lon="4.56546">
        <ele>508.4</ele>
        <time>2025-09-07T07:52:15Z</time>
      </trkpt>
      <trkpt lat="46.17997" lon="4.56548">
        <ele>508.4</ele>
        <time>2025-09-07T07:52:16Z</time>
      </trkpt>
      <trkpt lat="46.17998" lon="4.5655">
        <ele>508.6</ele>
        <time>2025-09-07T07:52:17Z</time>
      </trkpt>
      <trkpt lat="46.17998" lon="4.56552">
        <ele>508.8</ele>
        <time>2025-09-07T07:52:18Z</time>
      </trkpt>
      <trkpt lat="46.17999" lon="4.56553">
        <ele>508.6</ele>
        <time>2025-09-07T07:52:19Z</time>
      </trkpt>
      <trkpt lat="46.17999" lon="4.56556">
        <ele>508.6</ele>
        <time>2025-09-07T07:52:20Z</time>
      </trkpt>
      <trkpt lat="46.18" lon="4.56558">
        <ele>508.6</ele>
        <time>2025-09-07T07:52:21Z</time>
      </trkpt>
      <trkpt lat="46.18" lon="4.5656">
        <ele>508.8</ele>
        <time>2025-09-07T07:52:22Z</time>
      </trkpt>
      <trkpt lat="46.18" lon="4.56561">
        <ele>508.8</ele>
        <time>2025-09-07T07:52:23Z</time>
      </trkpt>
      <trkpt lat="46.18001" lon="4.56563">
        <ele>509.2</ele>
        <time>2025-09-07T07:52:24Z</time>
      </trkpt>
      <trkpt lat="46.18001" lon="4.56565">
        <ele>509.2</ele>
        <time>2025-09-07T07:52:25Z</time>
      </trkpt>
      <trkpt lat="46.18001" lon="4.56566">
        <ele>509.6</ele>
        <time>2025-09-07T07:52:26Z</time>
      </trkpt>
      <trkpt lat="46.18002" lon="4.56568">
        <ele>509.8</ele>
        <time>2025-09-07T07:52:27Z</time>
      </trkpt>
      <trkpt lat="46.18002" lon="4.5657">
        <ele>510</ele>
        <time>2025-09-07T07:52:28Z</time>
      </trkpt>
      <trkpt lat="46.18003" lon="4.56572">
        <ele>510.4</ele>
        <time>2025-09-07T07:52:29Z</time>
      </trkpt>
      <trkpt lat="46.18003" lon="4.56574">
        <ele>509.6</ele>
        <time>2025-09-07T07:52:30Z</time>
      </trkpt>
      <trkpt lat="46.18003" lon="4.56576">
        <ele>510.4</ele>
        <time>2025-09-07T07:52:31Z</time>
      </trkpt>
      <trkpt lat="46.18004" lon="4.56578">
        <ele>510.4</ele>
        <time>2025-09-07T07:52:32Z</time>
      </trkpt>
      <trkpt lat="46.18005" lon="4.5658">
        <ele>510.6</ele>
        <time>2025-09-07T07:52:33Z</time>
      </trkpt>
      <trkpt lat="46.18005" lon="4.56582">
        <ele>511</ele>
        <time>2025-09-07T07:52:34Z</time>
      </trkpt>
      <trkpt lat="46.18005" lon="4.56584">
        <ele>511</ele>
        <time>2025-09-07T07:52:35Z</time>
      </trkpt>
      <trkpt lat="46.18005" lon="4.56586">
        <ele>511</ele>
        <time>2025-09-07T07:52:36Z</time>
      </trkpt>
      <trkpt lat="46.18006" lon="4.56588">
        <ele>511.4</ele>
        <time>2025-09-07T07:52:37Z</time>
      </trkpt>
      <trkpt lat="46.18007" lon="4.5659">
        <ele>511</ele>
        <time>2025-09-07T07:52:38Z</time>
      </trkpt>
      <trkpt lat="46.18007" lon="4.56592">
        <ele>511.2</ele>
        <time>2025-09-07T07:52:39Z</time>
      </trkpt>
      <trkpt lat="46.18008" lon="4.56594">
        <ele>511.4</ele>
        <time>2025-09-07T07:52:40Z</time>
      </trkpt>
      <trkpt lat="46.18008" lon="4.56595">
        <ele>511.8</ele>
        <time>2025-09-07T07:52:41Z</time>
      </trkpt>
      <trkpt lat="46.18009" lon="4.56597">
        <ele>511.8</ele>
        <time>2025-09-07T07:52:42Z</time>
      </trkpt>
      <trkpt lat="46.18009" lon="4.566">
        <ele>512.2</ele>
        <time>2025-09-07T07:52:43Z</time>
      </trkpt>
      <trkpt lat="46.18009" lon="4.56601">
        <ele>512.6</ele>
        <time>2025-09-07T07:52:44Z</time>
      </trkpt>
      <trkpt lat="46.18009" lon="4.56603">
        <ele>512.8</ele>
        <time>2025-09-07T07:52:45Z</time>
      </trkpt>
      <trkpt lat="46.1801" lon="4.56604">
        <ele>513</ele>
        <time>2025-09-07T07:52:46Z</time>
      </trkpt>
      <trkpt lat="46.18011" lon="4.56605">
        <ele>513.2</ele>
        <time>2025-09-07T07:52:47Z</time>
      </trkpt>
      <trkpt lat="46.18011" lon="4.56606">
        <ele>513.2</ele>
        <time>2025-09-07T07:52:48Z</time>
      </trkpt>
      <trkpt lat="46.18011" lon="4.56606">
        <ele>513.2</ele>
        <time>2025-09-07T07:52:49Z</time>
      </trkpt>
      <trkpt lat="46.18011" lon="4.56607">
        <ele>513.8</ele>
        <time>2025-09-07T07:52:52Z</time>
      </trkpt>
      <trkpt lat="46.18011" lon="4.56608">
        <ele>513.8</ele>
        <time>2025-09-07T07:52:53Z</time>
      </trkpt>
      <trkpt lat="46.18011" lon="4.56609">
        <ele>513.8</ele>
        <time>2025-09-07T07:52:54Z</time>
      </trkpt>
      <trkpt lat="46.18012" lon="4.5661">
        <ele>513.8</ele>
        <time>2025-09-07T07:52:55Z</time>
      </trkpt>
      <trkpt lat="46.18012" lon="4.56611">
        <ele>514.2</ele>
        <time>2025-09-07T07:52:56Z</time>
      </trkpt>
      <trkpt lat="46.18012" lon="4.56612">
        <ele>514.2</ele>
        <time>2025-09-07T07:52:57Z</time>
      </trkpt>
      <trkpt lat="46.18012" lon="4.56613">
        <ele>514.2</ele>
        <time>2025-09-07T07:52:58Z</time>
      </trkpt>
      <trkpt lat="46.18012" lon="4.56614">
        <ele>514.8</ele>
        <time>2025-09-07T07:52:59Z</time>
      </trkpt>
      <trkpt lat="46.18012" lon="4.56615">
        <ele>515</ele>
        <time>2025-09-07T07:53:00Z</time>
      </trkpt>
      <trkpt lat="46.18013" lon="4.56616">
        <ele>515</ele>
        <time>2025-09-07T07:53:01Z</time>
      </trkpt>
      <trkpt lat="46.18013" lon="4.56617">
        <ele>515</ele>
        <time>2025-09-07T07:53:02Z</time>
      </trkpt>
      <trkpt lat="46.18013" lon="4.56618">
        <ele>515.2</ele>
        <time>2025-09-07T07:53:03Z</time>
      </trkpt>
      <trkpt lat="46.18014" lon="4.56619">
        <ele>515.4</ele>
        <time>2025-09-07T07:53:04Z</time>
      </trkpt>
      <trkpt lat="46.18014" lon="4.5662">
        <ele>515.4</ele>
        <time>2025-09-07T07:53:05Z</time>
      </trkpt>
      <trkpt lat="46.18015" lon="4.56621">
        <ele>515.4</ele>
        <time>2025-09-07T07:53:06Z</time>
      </trkpt>
      <trkpt lat="46.18016" lon="4.56623">
        <ele>515.6</ele>
        <time>2025-09-07T07:53:07Z</time>
      </trkpt>
      <trkpt lat="46.18016" lon="4.56624">
        <ele>515.8</ele>
        <time>2025-09-07T07:53:08Z</time>
      </trkpt>
      <trkpt lat="46.18017" lon="4.56625">
        <ele>515.8</ele>
        <time>2025-09-07T07:53:09Z</time>
      </trkpt>
      <trkpt lat="46.18017" lon="4.56626">
        <ele>516.2</ele>
        <time>2025-09-07T07:53:10Z</time>
      </trkpt>
      <trkpt lat="46.18017" lon="4.56628">
        <ele>516.2</ele>
        <time>2025-09-07T07:53:11Z</time>
      </trkpt>
      <trkpt lat="46.18018" lon="4.56629">
        <ele>516.4</ele>
        <time>2025-09-07T07:53:12Z</time>
      </trkpt>
      <trkpt lat="46.18018" lon="4.5663">
        <ele>516.6</ele>
        <time>2025-09-07T07:53:13Z</time>
      </trkpt>
      <trkpt lat="46.18019" lon="4.56631">
        <ele>516.6</ele>
        <time>2025-09-07T07:53:14Z</time>
      </trkpt>
      <trkpt lat="46.18019" lon="4.56632">
        <ele>516.6</ele>
        <time>2025-09-07T07:53:15Z</time>
      </trkpt>
      <trkpt lat="46.18019" lon="4.56633">
        <ele>516.4</ele>
        <time>2025-09-07T07:53:16Z</time>
      </trkpt>
      <trkpt lat="46.18019" lon="4.56634">
        <ele>516.4</ele>
        <time>2025-09-07T07:53:17Z</time>
      </trkpt>
      <trkpt lat="46.1802" lon="4.56635">
        <ele>516.6</ele>
        <time>2025-09-07T07:53:18Z</time>
      </trkpt>
      <trkpt lat="46.1802" lon="4.56637">
        <ele>516.8</ele>
        <time>2025-09-07T07:53:19Z</time>
      </trkpt>
      <trkpt lat="46.18021" lon="4.56638">
        <ele>517</ele>
        <time>2025-09-07T07:53:20Z</time>
      </trkpt>
      <trkpt lat="46.18021" lon="4.56639">
        <ele>517</ele>
        <time>2025-09-07T07:53:21Z</time>
      </trkpt>
      <trkpt lat="46.18022" lon="4.56641">
        <ele>517</ele>
        <time>2025-09-07T07:53:22Z</time>
      </trkpt>
      <trkpt lat="46.18022" lon="4.56642">
        <ele>517</ele>
        <time>2025-09-07T07:53:23Z</time>
      </trkpt>
      <trkpt lat="46.18023" lon="4.56643">
        <ele>517.4</ele>
        <time>2025-09-07T07:53:24Z</time>
      </trkpt>
      <trkpt lat="46.18023" lon="4.56645">
        <ele>517.6</ele>
        <time>2025-09-07T07:53:25Z</time>
      </trkpt>
      <trkpt lat="46.18024" lon="4.56646">
        <ele>518</ele>
        <time>2025-09-07T07:53:26Z</time>
      </trkpt>
      <trkpt lat="46.18024" lon="4.56646">
        <ele>518</ele>
        <time>2025-09-07T07:53:27Z</time>
      </trkpt>
      <trkpt lat="46.18023" lon="4.56645">
        <ele>518.4</ele>
        <time>2025-09-07T07:53:28Z</time>
      </trkpt>
      <trkpt lat="46.18023" lon="4.56647">
        <ele>518.6</ele>
        <time>2025-09-07T07:53:36Z</time>
      </trkpt>
      <trkpt lat="46.18023" lon="4.56648">
        <ele>519</ele>
        <time>2025-09-07T07:53:37Z</time>
      </trkpt>
      <trkpt lat="46.18024" lon="4.5665">
        <ele>519</ele>
        <time>2025-09-07T07:53:38Z</time>
      </trkpt>
      <trkpt lat="46.18025" lon="4.56651">
        <ele>519</ele>
        <time>2025-09-07T07:53:39Z</time>
      </trkpt>
      <trkpt lat="46.18026" lon="4.56652">
        <ele>519.2</ele>
        <time>2025-09-07T07:53:40Z</time>
      </trkpt>
      <trkpt lat="46.18026" lon="4.56654">
        <ele>519.2</ele>
        <time>2025-09-07T07:53:41Z</time>
      </trkpt>
      <trkpt lat="46.18027" lon="4.56655">
        <ele>519.2</ele>
        <time>2025-09-07T07:53:42Z</time>
      </trkpt>
      <trkpt lat="46.18028" lon="4.56656">
        <ele>519.2</ele>
        <time>2025-09-07T07:53:43Z</time>
      </trkpt>
      <trkpt lat="46.18029" lon="4.56657">
        <ele>519.2</ele>
        <time>2025-09-07T07:53:44Z</time>
      </trkpt>
      <trkpt lat="46.18029" lon="4.56658">
        <ele>519.6</ele>
        <time>2025-09-07T07:53:45Z</time>
      </trkpt>
      <trkpt lat="46.1803" lon="4.56659">
        <ele>519.6</ele>
        <time>2025-09-07T07:53:46Z</time>
      </trkpt>
      <trkpt lat="46.18031" lon="4.56661">
        <ele>519.8</ele>
        <time>2025-09-07T07:53:47Z</time>
      </trkpt>
      <trkpt lat="46.18032" lon="4.56662">
        <ele>519.8</ele>
        <time>2025-09-07T07:53:48Z</time>
      </trkpt>
      <trkpt lat="46.18032" lon="4.56663">
        <ele>520</ele>
        <time>2025-09-07T07:53:49Z</time>
      </trkpt>
      <trkpt lat="46.18033" lon="4.56664">
        <ele>520</ele>
        <time>2025-09-07T07:53:50Z</time>
      </trkpt>
      <trkpt lat="46.18034" lon="4.56665">
        <ele>520.4</ele>
        <time>2025-09-07T07:53:51Z</time>
      </trkpt>
      <trkpt lat="46.18034" lon="4.56667">
        <ele>520.4</ele>
        <time>2025-09-07T07:53:52Z</time>
      </trkpt>
      <trkpt lat="46.18035" lon="4.56668">
        <ele>520.4</ele>
        <time>2025-09-07T07:53:53Z</time>
      </trkpt>
      <trkpt lat="46.18035" lon="4.56669">
        <ele>521</ele>
        <time>2025-09-07T07:53:54Z</time>
      </trkpt>
      <trkpt lat="46.18035" lon="4.5667">
        <ele>521</ele>
        <time>2025-09-07T07:53:55Z</time>
      </trkpt>
      <trkpt lat="46.18036" lon="4.56671">
        <ele>521</ele>
        <time>2025-09-07T07:53:56Z</time>
      </trkpt>
      <trkpt lat="46.18037" lon="4.56672">
        <ele>521</ele>
        <time>2025-09-07T07:53:57Z</time>
      </trkpt>
      <trkpt lat="46.18037" lon="4.56672">
        <ele>521</ele>
        <time>2025-09-07T07:53:58Z</time>
      </trkpt>
      <trkpt lat="46.18037" lon="4.56673">
        <ele>521.4</ele>
        <time>2025-09-07T07:53:59Z</time>
      </trkpt>
      <trkpt lat="46.18038" lon="4.56674">
        <ele>521.4</ele>
        <time>2025-09-07T07:54:00Z</time>
      </trkpt>
      <trkpt lat="46.18038" lon="4.56675">
        <ele>522</ele>
        <time>2025-09-07T07:54:01Z</time>
      </trkpt>
      <trkpt lat="46.18039" lon="4.56676">
        <ele>522</ele>
        <time>2025-09-07T07:54:02Z</time>
      </trkpt>
      <trkpt lat="46.1804" lon="4.56678">
        <ele>522</ele>
        <time>2025-09-07T07:54:03Z</time>
      </trkpt>
      <trkpt lat="46.18041" lon="4.56679">
        <ele>522</ele>
        <time>2025-09-07T07:54:04Z</time>
      </trkpt>
      <trkpt lat="46.18041" lon="4.56679">
        <ele>522.2</ele>
        <time>2025-09-07T07:54:05Z</time>
      </trkpt>
      <trkpt lat="46.18042" lon="4.5668">
        <ele>522.2</ele>
        <time>2025-09-07T07:54:06Z</time>
      </trkpt>
      <trkpt lat="46.18043" lon="4.5668">
        <ele>522.4</ele>
        <time>2025-09-07T07:54:07Z</time>
      </trkpt>
      <trkpt lat="46.18043" lon="4.56681">
        <ele>522.4</ele>
        <time>2025-09-07T07:54:08Z</time>
      </trkpt>
      <trkpt lat="46.18044" lon="4.56683">
        <ele>522.4</ele>
        <time>2025-09-07T07:54:09Z</time>
      </trkpt>
      <trkpt lat="46.18044" lon="4.56684">
        <ele>522.8</ele>
        <time>2025-09-07T07:54:10Z</time>
      </trkpt>
      <trkpt lat="46.18045" lon="4.56685">
        <ele>522.8</ele>
        <time>2025-09-07T07:54:11Z</time>
      </trkpt>
      <trkpt lat="46.18046" lon="4.56686">
        <ele>522.4</ele>
        <time>2025-09-07T07:54:12Z</time>
      </trkpt>
      <trkpt lat="46.18047" lon="4.56687">
        <ele>523</ele>
        <time>2025-09-07T07:54:13Z</time>
      </trkpt>
      <trkpt lat="46.18047" lon="4.56688">
        <ele>523.2</ele>
        <time>2025-09-07T07:54:14Z</time>
      </trkpt>
      <trkpt lat="46.18048" lon="4.56689">
        <ele>523.6</ele>
        <time>2025-09-07T07:54:15Z</time>
      </trkpt>
      <trkpt lat="46.18048" lon="4.5669">
        <ele>523.6</ele>
        <time>2025-09-07T07:54:16Z</time>
      </trkpt>
      <trkpt lat="46.18049" lon="4.56691">
        <ele>523.8</ele>
        <time>2025-09-07T07:54:17Z</time>
      </trkpt>
      <trkpt lat="46.18049" lon="4.56692">
        <ele>523.8</ele>
        <time>2025-09-07T07:54:18Z</time>
      </trkpt>
      <trkpt lat="46.1805" lon="4.56692">
        <ele>523.8</ele>
        <time>2025-09-07T07:54:19Z</time>
      </trkpt>
      <trkpt lat="46.18051" lon="4.56693">
        <ele>524.2</ele>
        <time>2025-09-07T07:54:20Z</time>
      </trkpt>
      <trkpt lat="46.18051" lon="4.56694">
        <ele>524.2</ele>
        <time>2025-09-07T07:54:21Z</time>
      </trkpt>
      <trkpt lat="46.18052" lon="4.56694">
        <ele>524.4</ele>
        <time>2025-09-07T07:54:22Z</time>
      </trkpt>
      <trkpt lat="46.18053" lon="4.56694">
        <ele>524.4</ele>
        <time>2025-09-07T07:54:23Z</time>
      </trkpt>
      <trkpt lat="46.18054" lon="4.56696">
        <ele>524.4</ele>
        <time>2025-09-07T07:54:24Z</time>
      </trkpt>
      <trkpt lat="46.18055" lon="4.56697">
        <ele>524.8</ele>
        <time>2025-09-07T07:54:25Z</time>
      </trkpt>
      <trkpt lat="46.18055" lon="4.56697">
        <ele>524.8</ele>
        <time>2025-09-07T07:54:26Z</time>
      </trkpt>
      <trkpt lat="46.18056" lon="4.56698">
        <ele>524.8</ele>
        <time>2025-09-07T07:54:27Z</time>
      </trkpt>
      <trkpt lat="46.18056" lon="4.56699">
        <ele>524.8</ele>
        <time>2025-09-07T07:54:28Z</time>
      </trkpt>
      <trkpt lat="46.18057" lon="4.567">
        <ele>525.2</ele>
        <time>2025-09-07T07:54:29Z</time>
      </trkpt>
      <trkpt lat="46.18058" lon="4.56701">
        <ele>525.2</ele>
        <time>2025-09-07T07:54:30Z</time>
      </trkpt>
      <trkpt lat="46.18058" lon="4.56702">
        <ele>525.4</ele>
        <time>2025-09-07T07:54:31Z</time>
      </trkpt>
      <trkpt lat="46.18059" lon="4.56702">
        <ele>525.4</ele>
        <time>2025-09-07T07:54:32Z</time>
      </trkpt>
      <trkpt lat="46.1806" lon="4.56703">
        <ele>526</ele>
        <time>2025-09-07T07:54:33Z</time>
      </trkpt>
      <trkpt lat="46.18061" lon="4.56703">
        <ele>526.2</ele>
        <time>2025-09-07T07:54:34Z</time>
      </trkpt>
      <trkpt lat="46.18061" lon="4.56703">
        <ele>526.2</ele>
        <time>2025-09-07T07:54:35Z</time>
      </trkpt>
      <trkpt lat="46.18062" lon="4.56703">
        <ele>526.4</ele>
        <time>2025-09-07T07:54:36Z</time>
      </trkpt>
      <trkpt lat="46.18063" lon="4.56702">
        <ele>526.8</ele>
        <time>2025-09-07T07:54:37Z</time>
      </trkpt>
      <trkpt lat="46.18063" lon="4.56702">
        <ele>526.8</ele>
        <time>2025-09-07T07:54:38Z</time>
      </trkpt>
      <trkpt lat="46.18064" lon="4.56702">
        <ele>527</ele>
        <time>2025-09-07T07:54:39Z</time>
      </trkpt>
      <trkpt lat="46.18064" lon="4.56702">
        <ele>527.2</ele>
        <time>2025-09-07T07:54:40Z</time>
      </trkpt>
      <trkpt lat="46.18064" lon="4.56702">
        <ele>527.2</ele>
        <time>2025-09-07T07:54:41Z</time>
      </trkpt>
      <trkpt lat="46.18066" lon="4.56702">
        <ele>526.8</ele>
        <time>2025-09-07T07:55:03Z</time>
      </trkpt>
      <trkpt lat="46.18066" lon="4.56703">
        <ele>527.4</ele>
        <time>2025-09-07T07:55:04Z</time>
      </trkpt>
      <trkpt lat="46.18067" lon="4.56703">
        <ele>527.4</ele>
        <time>2025-09-07T07:55:05Z</time>
      </trkpt>
      <trkpt lat="46.18069" lon="4.56704">
        <ele>527.4</ele>
        <time>2025-09-07T07:55:06Z</time>
      </trkpt>
      <trkpt lat="46.1807" lon="4.56704">
        <ele>527.4</ele>
        <time>2025-09-07T07:55:07Z</time>
      </trkpt>
      <trkpt lat="46.18071" lon="4.56705">
        <ele>527.6</ele>
        <time>2025-09-07T07:55:08Z</time>
      </trkpt>
      <trkpt lat="46.18072" lon="4.56706">
        <ele>527.6</ele>
        <time>2025-09-07T07:55:09Z</time>
      </trkpt>
      <trkpt lat="46.18072" lon="4.56706">
        <ele>528.2</ele>
        <time>2025-09-07T07:55:10Z</time>
      </trkpt>
      <trkpt lat="46.18073" lon="4.56707">
        <ele>528.6</ele>
        <time>2025-09-07T07:55:11Z</time>
      </trkpt>
      <trkpt lat="46.18074" lon="4.56707">
        <ele>528.8</ele>
        <time>2025-09-07T07:55:12Z</time>
      </trkpt>
      <trkpt lat="46.18075" lon="4.56708">
        <ele>529.2</ele>
        <time>2025-09-07T07:55:13Z</time>
      </trkpt>
      <trkpt lat="46.18075" lon="4.56708">
        <ele>529.2</ele>
        <time>2025-09-07T07:55:14Z</time>
      </trkpt>
      <trkpt lat="46.18076" lon="4.56709">
        <ele>529.2</ele>
        <time>2025-09-07T07:55:15Z</time>
      </trkpt>
      <trkpt lat="46.18076" lon="4.56709">
        <ele>529</ele>
        <time>2025-09-07T07:55:16Z</time>
      </trkpt>
      <trkpt lat="46.18077" lon="4.5671">
        <ele>529.2</ele>
        <time>2025-09-07T07:55:17Z</time>
      </trkpt>
      <trkpt lat="46.18078" lon="4.5671">
        <ele>529.2</ele>
        <time>2025-09-07T07:55:18Z</time>
      </trkpt>
      <trkpt lat="46.18079" lon="4.56711">
        <ele>529.2</ele>
        <time>2025-09-07T07:55:19Z</time>
      </trkpt>
      <trkpt lat="46.1808" lon="4.56712">
        <ele>529.6</ele>
        <time>2025-09-07T07:55:20Z</time>
      </trkpt>
      <trkpt lat="46.1808" lon="4.56712">
        <ele>530</ele>
        <time>2025-09-07T07:55:21Z</time>
      </trkpt>
      <trkpt lat="46.18081" lon="4.56713">
        <ele>530</ele>
        <time>2025-09-07T07:55:22Z</time>
      </trkpt>
      <trkpt lat="46.18081" lon="4.56713">
        <ele>530</ele>
        <time>2025-09-07T07:55:23Z</time>
      </trkpt>
      <trkpt lat="46.18082" lon="4.56714">
        <ele>530.6</ele>
        <time>2025-09-07T07:55:24Z</time>
      </trkpt>
      <trkpt lat="46.18082" lon="4.56715">
        <ele>530.6</ele>
        <time>2025-09-07T07:55:25Z</time>
      </trkpt>
      <trkpt lat="46.18083" lon="4.56716">
        <ele>531</ele>
        <time>2025-09-07T07:55:26Z</time>
      </trkpt>
      <trkpt lat="46.18083" lon="4.56716">
        <ele>531.4</ele>
        <time>2025-09-07T07:55:27Z</time>
      </trkpt>
      <trkpt lat="46.18084" lon="4.56717">
        <ele>531.4</ele>
        <time>2025-09-07T07:55:28Z</time>
      </trkpt>
      <trkpt lat="46.18085" lon="4.56718">
        <ele>531.4</ele>
        <time>2025-09-07T07:55:29Z</time>
      </trkpt>
      <trkpt lat="46.18086" lon="4.56718">
        <ele>531.4</ele>
        <time>2025-09-07T07:55:30Z</time>
      </trkpt>
      <trkpt lat="46.18086" lon="4.56719">
        <ele>531.4</ele>
        <time>2025-09-07T07:55:31Z</time>
      </trkpt>
      <trkpt lat="46.18087" lon="4.56719">
        <ele>531.8</ele>
        <time>2025-09-07T07:55:32Z</time>
      </trkpt>
      <trkpt lat="46.18087" lon="4.56719">
        <ele>531.8</ele>
        <time>2025-09-07T07:55:33Z</time>
      </trkpt>
      <trkpt lat="46.18088" lon="4.56719">
        <ele>531.8</ele>
        <time>2025-09-07T07:55:34Z</time>
      </trkpt>
      <trkpt lat="46.18089" lon="4.56719">
        <ele>532.2</ele>
        <time>2025-09-07T07:55:35Z</time>
      </trkpt>
      <trkpt lat="46.1809" lon="4.56719">
        <ele>532.2</ele>
        <time>2025-09-07T07:55:36Z</time>
      </trkpt>
      <trkpt lat="46.18091" lon="4.56719">
        <ele>532.2</ele>
        <time>2025-09-07T07:55:37Z</time>
      </trkpt>
      <trkpt lat="46.18092" lon="4.56719">
        <ele>532.2</ele>
        <time>2025-09-07T07:55:38Z</time>
      </trkpt>
      <trkpt lat="46.18093" lon="4.5672">
        <ele>532.2</ele>
        <time>2025-09-07T07:55:39Z</time>
      </trkpt>
      <trkpt lat="46.18093" lon="4.5672">
        <ele>532.4</ele>
        <time>2025-09-07T07:55:40Z</time>
      </trkpt>
      <trkpt lat="46.18094" lon="4.5672">
        <ele>532.4</ele>
        <time>2025-09-07T07:55:41Z</time>
      </trkpt>
      <trkpt lat="46.18096" lon="4.56721">
        <ele>532.4</ele>
        <time>2025-09-07T07:55:42Z</time>
      </trkpt>
      <trkpt lat="46.18097" lon="4.56721">
        <ele>533</ele>
        <time>2025-09-07T07:55:43Z</time>
      </trkpt>
      <trkpt lat="46.18097" lon="4.56722">
        <ele>533</ele>
        <time>2025-09-07T07:55:44Z</time>
      </trkpt>
      <trkpt lat="46.18098" lon="4.56722">
        <ele>533.4</ele>
        <time>2025-09-07T07:55:45Z</time>
      </trkpt>
      <trkpt lat="46.18099" lon="4.56722">
        <ele>533.6</ele>
        <time>2025-09-07T07:55:46Z</time>
      </trkpt>
      <trkpt lat="46.181" lon="4.56723">
        <ele>533.6</ele>
        <time>2025-09-07T07:55:47Z</time>
      </trkpt>
      <trkpt lat="46.18101" lon="4.56723">
        <ele>533.6</ele>
        <time>2025-09-07T07:55:48Z</time>
      </trkpt>
      <trkpt lat="46.18102" lon="4.56723">
        <ele>533.6</ele>
        <time>2025-09-07T07:55:49Z</time>
      </trkpt>
      <trkpt lat="46.18103" lon="4.56724">
        <ele>533.6</ele>
        <time>2025-09-07T07:55:50Z</time>
      </trkpt>
      <trkpt lat="46.18104" lon="4.56724">
        <ele>533.6</ele>
        <time>2025-09-07T07:55:51Z</time>
      </trkpt>
      <trkpt lat="46.18105" lon="4.56724">
        <ele>534</ele>
        <time>2025-09-07T07:55:52Z</time>
      </trkpt>
      <trkpt lat="46.18106" lon="4.56725">
        <ele>534</ele>
        <time>2025-09-07T07:55:53Z</time>
      </trkpt>
      <trkpt lat="46.18107" lon="4.56725">
        <ele>534.2</ele>
        <time>2025-09-07T07:55:54Z</time>
      </trkpt>
      <trkpt lat="46.18108" lon="4.56725">
        <ele>534.4</ele>
        <time>2025-09-07T07:55:55Z</time>
      </trkpt>
      <trkpt lat="46.18109" lon="4.56726">
        <ele>534.8</ele>
        <time>2025-09-07T07:55:56Z</time>
      </trkpt>
      <trkpt lat="46.1811" lon="4.56726">
        <ele>535.2</ele>
        <time>2025-09-07T07:55:57Z</time>
      </trkpt>
      <trkpt lat="46.18111" lon="4.56726">
        <ele>534.8</ele>
        <time>2025-09-07T07:55:58Z</time>
      </trkpt>
      <trkpt lat="46.18112" lon="4.56727">
        <ele>534.8</ele>
        <time>2025-09-07T07:55:59Z</time>
      </trkpt>
      <trkpt lat="46.18113" lon="4.56727">
        <ele>535</ele>
        <time>2025-09-07T07:56:00Z</time>
      </trkpt>
      <trkpt lat="46.18114" lon="4.56728">
        <ele>535</ele>
        <time>2025-09-07T07:56:01Z</time>
      </trkpt>
      <trkpt lat="46.18114" lon="4.56728">
        <ele>535</ele>
        <time>2025-09-07T07:56:02Z</time>
      </trkpt>
      <trkpt lat="46.18115" lon="4.56729">
        <ele>535.2</ele>
        <time>2025-09-07T07:56:03Z</time>
      </trkpt>
      <trkpt lat="46.18116" lon="4.56729">
        <ele>535.2</ele>
        <time>2025-09-07T07:56:04Z</time>
      </trkpt>
      <trkpt lat="46.18116" lon="4.56729">
        <ele>535.6</ele>
        <time>2025-09-07T07:56:05Z</time>
      </trkpt>
      <trkpt lat="46.18117" lon="4.5673">
        <ele>535.6</ele>
        <time>2025-09-07T07:56:06Z</time>
      </trkpt>
      <trkpt lat="46.18117" lon="4.5673">
        <ele>535.6</ele>
        <time>2025-09-07T07:56:07Z</time>
      </trkpt>
      <trkpt lat="46.18118" lon="4.56731">
        <ele>535.6</ele>
        <time>2025-09-07T07:56:08Z</time>
      </trkpt>
      <trkpt lat="46.18119" lon="4.56732">
        <ele>536.2</ele>
        <time>2025-09-07T07:56:09Z</time>
      </trkpt>
      <trkpt lat="46.1812" lon="4.56732">
        <ele>536.4</ele>
        <time>2025-09-07T07:56:10Z</time>
      </trkpt>
      <trkpt lat="46.18122" lon="4.56733">
        <ele>536.2</ele>
        <time>2025-09-07T07:56:11Z</time>
      </trkpt>
      <trkpt lat="46.18122" lon="4.56734">
        <ele>536.8</ele>
        <time>2025-09-07T07:56:12Z</time>
      </trkpt>
      <trkpt lat="46.18123" lon="4.56734">
        <ele>536.8</ele>
        <time>2025-09-07T07:56:13Z</time>
      </trkpt>
      <trkpt lat="46.18124" lon="4.56735">
        <ele>537</ele>
        <time>2025-09-07T07:56:14Z</time>
      </trkpt>
      <trkpt lat="46.18125" lon="4.56735">
        <ele>537</ele>
        <time>2025-09-07T07:56:15Z</time>
      </trkpt>
      <trkpt lat="46.18126" lon="4.56736">
        <ele>537</ele>
        <time>2025-09-07T07:56:16Z</time>
      </trkpt>
      <trkpt lat="46.18127" lon="4.56736">
        <ele>537.4</ele>
        <time>2025-09-07T07:56:17Z</time>
      </trkpt>
      <trkpt lat="46.18128" lon="4.56736">
        <ele>537.6</ele>
        <time>2025-09-07T07:56:18Z</time>
      </trkpt>
      <trkpt lat="46.18129" lon="4.56736">
        <ele>537.8</ele>
        <time>2025-09-07T07:56:19Z</time>
      </trkpt>
      <trkpt lat="46.1813" lon="4.56736">
        <ele>537.8</ele>
        <time>2025-09-07T07:56:20Z</time>
      </trkpt>
      <trkpt lat="46.18131" lon="4.56737">
        <ele>538</ele>
        <time>2025-09-07T07:56:21Z</time>
      </trkpt>
      <trkpt lat="46.18132" lon="4.56737">
        <ele>538.4</ele>
        <time>2025-09-07T07:56:22Z</time>
      </trkpt>
      <trkpt lat="46.18133" lon="4.56737">
        <ele>538.4</ele>
        <time>2025-09-07T07:56:23Z</time>
      </trkpt>
      <trkpt lat="46.18135" lon="4.56737">
        <ele>538.4</ele>
        <time>2025-09-07T07:56:24Z</time>
      </trkpt>
      <trkpt lat="46.18135" lon="4.56737">
        <ele>538.4</ele>
        <time>2025-09-07T07:56:25Z</time>
      </trkpt>
      <trkpt lat="46.18136" lon="4.56737">
        <ele>538.8</ele>
        <time>2025-09-07T07:56:26Z</time>
      </trkpt>
      <trkpt lat="46.18137" lon="4.56738">
        <ele>538.8</ele>
        <time>2025-09-07T07:56:27Z</time>
      </trkpt>
      <trkpt lat="46.18138" lon="4.56739">
        <ele>539</ele>
        <time>2025-09-07T07:56:28Z</time>
      </trkpt>
      <trkpt lat="46.18138" lon="4.56739">
        <ele>539</ele>
        <time>2025-09-07T07:56:29Z</time>
      </trkpt>
      <trkpt lat="46.18139" lon="4.5674">
        <ele>539.2</ele>
        <time>2025-09-07T07:56:30Z</time>
      </trkpt>
      <trkpt lat="46.1814" lon="4.5674">
        <ele>539.6</ele>
        <time>2025-09-07T07:56:31Z</time>
      </trkpt>
      <trkpt lat="46.1814" lon="4.5674">
        <ele>539.6</ele>
        <time>2025-09-07T07:56:32Z</time>
      </trkpt>
      <trkpt lat="46.1814" lon="4.5674">
        <ele>539.8</ele>
        <time>2025-09-07T07:56:33Z</time>
      </trkpt>
      <trkpt lat="46.18141" lon="4.5674">
        <ele>539.6</ele>
        <time>2025-09-07T07:56:34Z</time>
      </trkpt>
      <trkpt lat="46.18141" lon="4.5674">
        <ele>539.8</ele>
        <time>2025-09-07T07:56:35Z</time>
      </trkpt>
      <trkpt lat="46.18142" lon="4.56739">
        <ele>539.8</ele>
        <time>2025-09-07T07:56:36Z</time>
      </trkpt>
      <trkpt lat="46.18143" lon="4.56739">
        <ele>539.8</ele>
        <time>2025-09-07T07:56:37Z</time>
      </trkpt>
      <trkpt lat="46.18143" lon="4.56738">
        <ele>540.2</ele>
        <time>2025-09-07T07:56:38Z</time>
      </trkpt>
      <trkpt lat="46.18144" lon="4.56737">
        <ele>540.2</ele>
        <time>2025-09-07T07:56:39Z</time>
      </trkpt>
      <trkpt lat="46.18145" lon="4.56737">
        <ele>540.2</ele>
        <time>2025-09-07T07:56:40Z</time>
      </trkpt>
      <trkpt lat="46.18145" lon="4.56736">
        <ele>540.2</ele>
        <time>2025-09-07T07:56:41Z</time>
      </trkpt>
      <trkpt lat="46.18145" lon="4.56734">
        <ele>540.6</ele>
        <time>2025-09-07T07:56:42Z</time>
      </trkpt>
      <trkpt lat="46.18145" lon="4.56733">
        <ele>540.6</ele>
        <time>2025-09-07T07:56:43Z</time>
      </trkpt>
      <trkpt lat="46.18145" lon="4.56732">
        <ele>541</ele>
        <time>2025-09-07T07:56:44Z</time>
      </trkpt>
      <trkpt lat="46.18145" lon="4.56731">
        <ele>541</ele>
        <time>2025-09-07T07:56:45Z</time>
      </trkpt>
      <trkpt lat="46.18145" lon="4.5673">
        <ele>541.2</ele>
        <time>2025-09-07T07:56:46Z</time>
      </trkpt>
      <trkpt lat="46.18145" lon="4.56729">
        <ele>541.2</ele>
        <time>2025-09-07T07:56:47Z</time>
      </trkpt>
      <trkpt lat="46.18144" lon="4.56727">
        <ele>541.2</ele>
        <time>2025-09-07T07:56:48Z</time>
      </trkpt>
      <trkpt lat="46.18143" lon="4.56726">
        <ele>541.6</ele>
        <time>2025-09-07T07:56:49Z</time>
      </trkpt>
      <trkpt lat="46.18143" lon="4.56725">
        <ele>541.6</ele>
        <time>2025-09-07T07:56:50Z</time>
      </trkpt>
      <trkpt lat="46.18142" lon="4.56724">
        <ele>541.6</ele>
        <time>2025-09-07T07:56:51Z</time>
      </trkpt>
      <trkpt lat="46.18142" lon="4.56724">
        <ele>542</ele>
        <time>2025-09-07T07:56:52Z</time>
      </trkpt>
      <trkpt lat="46.18141" lon="4.56723">
        <ele>542</ele>
        <time>2025-09-07T07:56:53Z</time>
      </trkpt>
      <trkpt lat="46.1814" lon="4.56723">
        <ele>542.6</ele>
        <time>2025-09-07T07:56:54Z</time>
      </trkpt>
      <trkpt lat="46.18139" lon="4.56722">
        <ele>542.8</ele>
        <time>2025-09-07T07:56:55Z</time>
      </trkpt>
      <trkpt lat="46.18139" lon="4.56721">
        <ele>543.2</ele>
        <time>2025-09-07T07:56:56Z</time>
      </trkpt>
      <trkpt lat="46.18138" lon="4.56721">
        <ele>543.2</ele>
        <time>2025-09-07T07:56:57Z</time>
      </trkpt>
      <trkpt lat="46.18137" lon="4.5672">
        <ele>543.2</ele>
        <time>2025-09-07T07:56:58Z</time>
      </trkpt>
      <trkpt lat="46.18136" lon="4.56719">
        <ele>543.6</ele>
        <time>2025-09-07T07:56:59Z</time>
      </trkpt>
      <trkpt lat="46.18135" lon="4.56719">
        <ele>543.6</ele>
        <time>2025-09-07T07:57:00Z</time>
      </trkpt>
      <trkpt lat="46.18135" lon="4.56718">
        <ele>544</ele>
        <time>2025-09-07T07:57:01Z</time>
      </trkpt>
      <trkpt lat="46.18134" lon="4.56718">
        <ele>544</ele>
        <time>2025-09-07T07:57:02Z</time>
      </trkpt>
      <trkpt lat="46.18133" lon="4.56717">
        <ele>544.2</ele>
        <time>2025-09-07T07:57:03Z</time>
      </trkpt>
      <trkpt lat="46.18132" lon="4.56716">
        <ele>544.2</ele>
        <time>2025-09-07T07:57:04Z</time>
      </trkpt>
      <trkpt lat="46.18132" lon="4.56715">
        <ele>544.2</ele>
        <time>2025-09-07T07:57:05Z</time>
      </trkpt>
      <trkpt lat="46.18131" lon="4.56715">
        <ele>544.2</ele>
        <time>2025-09-07T07:57:06Z</time>
      </trkpt>
      <trkpt lat="46.18131" lon="4.56714">
        <ele>544.2</ele>
        <time>2025-09-07T07:57:07Z</time>
      </trkpt>
      <trkpt lat="46.1813" lon="4.56714">
        <ele>544.2</ele>
        <time>2025-09-07T07:57:08Z</time>
      </trkpt>
      <trkpt lat="46.18129" lon="4.56713">
        <ele>544.4</ele>
        <time>2025-09-07T07:57:09Z</time>
      </trkpt>
      <trkpt lat="46.18129" lon="4.56713">
        <ele>544.4</ele>
        <time>2025-09-07T07:57:10Z</time>
      </trkpt>
      <trkpt lat="46.18129" lon="4.56712">
        <ele>544.4</ele>
        <time>2025-09-07T07:57:11Z</time>
      </trkpt>
      <trkpt lat="46.18128" lon="4.56712">
        <ele>544.4</ele>
        <time>2025-09-07T07:57:12Z</time>
      </trkpt>
      <trkpt lat="46.18127" lon="4.56711">
        <ele>544.8</ele>
        <time>2025-09-07T07:57:13Z</time>
      </trkpt>
      <trkpt lat="46.18127" lon="4.5671">
        <ele>544.8</ele>
        <time>2025-09-07T07:57:14Z</time>
      </trkpt>
      <trkpt lat="46.18126" lon="4.56709">
        <ele>545</ele>
        <time>2025-09-07T07:57:15Z</time>
      </trkpt>
      <trkpt lat="46.18126" lon="4.56708">
        <ele>545</ele>
        <time>2025-09-07T07:57:16Z</time>
      </trkpt>
      <trkpt lat="46.18126" lon="4.56707">
        <ele>545</ele>
        <time>2025-09-07T07:57:17Z</time>
      </trkpt>
      <trkpt lat="46.18126" lon="4.56707">
        <ele>545.2</ele>
        <time>2025-09-07T07:57:18Z</time>
      </trkpt>
      <trkpt lat="46.18126" lon="4.56707">
        <ele>545.2</ele>
        <time>2025-09-07T07:57:19Z</time>
      </trkpt>
      <trkpt lat="46.18126" lon="4.56707">
        <ele>545.2</ele>
        <time>2025-09-07T07:57:20Z</time>
      </trkpt>
      <trkpt lat="46.18125" lon="4.56706">
        <ele>545.2</ele>
        <time>2025-09-07T07:57:21Z</time>
      </trkpt>
      <trkpt lat="46.18125" lon="4.56705">
        <ele>545.2</ele>
        <time>2025-09-07T07:57:22Z</time>
      </trkpt>
      <trkpt lat="46.18124" lon="4.56704">
        <ele>545.2</ele>
        <time>2025-09-07T07:57:23Z</time>
      </trkpt>
      <trkpt lat="46.18124" lon="4.56703">
        <ele>545.2</ele>
        <time>2025-09-07T07:57:24Z</time>
      </trkpt>
      <trkpt lat="46.18124" lon="4.56703">
        <ele>545.6</ele>
        <time>2025-09-07T07:58:57Z</time>
      </trkpt>
      <trkpt lat="46.18124" lon="4.56701">
        <ele>545.6</ele>
        <time>2025-09-07T07:58:58Z</time>
      </trkpt>
      <trkpt lat="46.18124" lon="4.56701">
        <ele>545.6</ele>
        <time>2025-09-07T07:58:59Z</time>
      </trkpt>
      <trkpt lat="46.18124" lon="4.56701">
        <ele>545.6</ele>
        <time>2025-09-07T07:59:00Z</time>
      </trkpt>
      <trkpt lat="46.18123" lon="4.56699">
        <ele>545.2</ele>
        <time>2025-09-07T07:59:05Z</time>
      </trkpt>
      <trkpt lat="46.18123" lon="4.56697">
        <ele>545.2</ele>
        <time>2025-09-07T07:59:06Z</time>
      </trkpt>
      <trkpt lat="46.18122" lon="4.56696">
        <ele>545.2</ele>
        <time>2025-09-07T07:59:07Z</time>
      </trkpt>
      <trkpt lat="46.18122" lon="4.56694">
        <ele>545.6</ele>
        <time>2025-09-07T07:59:08Z</time>
      </trkpt>
      <trkpt lat="46.18122" lon="4.56693">
        <ele>545.6</ele>
        <time>2025-09-07T07:59:09Z</time>
      </trkpt>
      <trkpt lat="46.18122" lon="4.56691">
        <ele>545.6</ele>
        <time>2025-09-07T07:59:10Z</time>
      </trkpt>
      <trkpt lat="46.18122" lon="4.56689">
        <ele>545.6</ele>
        <time>2025-09-07T07:59:11Z</time>
      </trkpt>
      <trkpt lat="46.18122" lon="4.56687">
        <ele>545.8</ele>
        <time>2025-09-07T07:59:12Z</time>
      </trkpt>
      <trkpt lat="46.18123" lon="4.56686">
        <ele>545.8</ele>
        <time>2025-09-07T07:59:13Z</time>
      </trkpt>
      <trkpt lat="46.18123" lon="4.56684">
        <ele>545.8</ele>
        <time>2025-09-07T07:59:14Z</time>
      </trkpt>
      <trkpt lat="46.18123" lon="4.56683">
        <ele>546.6</ele>
        <time>2025-09-07T07:59:15Z</time>
      </trkpt>
      <trkpt lat="46.18123" lon="4.56682">
        <ele>546.6</ele>
        <time>2025-09-07T07:59:16Z</time>
      </trkpt>
      <trkpt lat="46.18123" lon="4.5668">
        <ele>546.8</ele>
        <time>2025-09-07T07:59:17Z</time>
      </trkpt>
      <trkpt lat="46.18123" lon="4.56679">
        <ele>546.8</ele>
        <time>2025-09-07T07:59:18Z</time>
      </trkpt>
      <trkpt lat="46.18124" lon="4.56678">
        <ele>547.4</ele>
        <time>2025-09-07T07:59:19Z</time>
      </trkpt>
      <trkpt lat="46.18124" lon="4.56677">
        <ele>547.8</ele>
        <time>2025-09-07T07:59:20Z</time>
      </trkpt>
      <trkpt lat="46.18125" lon="4.56675">
        <ele>547.8</ele>
        <time>2025-09-07T07:59:21Z</time>
      </trkpt>
      <trkpt lat="46.18125" lon="4.56673">
        <ele>547.8</ele>
        <time>2025-09-07T07:59:22Z</time>
      </trkpt>
      <trkpt lat="46.18124" lon="4.56672">
        <ele>548</ele>
        <time>2025-09-07T07:59:23Z</time>
      </trkpt>
      <trkpt lat="46.18124" lon="4.56671">
        <ele>548.2</ele>
        <time>2025-09-07T07:59:24Z</time>
      </trkpt>
      <trkpt lat="46.18125" lon="4.5667">
        <ele>548.4</ele>
        <time>2025-09-07T07:59:25Z</time>
      </trkpt>
      <trkpt lat="46.18125" lon="4.56668">
        <ele>548.4</ele>
        <time>2025-09-07T07:59:26Z</time>
      </trkpt>
      <trkpt lat="46.18126" lon="4.56668">
        <ele>548.6</ele>
        <time>2025-09-07T07:59:27Z</time>
      </trkpt>
      <trkpt lat="46.18127" lon="4.56667">
        <ele>548.6</ele>
        <time>2025-09-07T07:59:28Z</time>
      </trkpt>
      <trkpt lat="46.18127" lon="4.56666">
        <ele>549</ele>
        <time>2025-09-07T07:59:29Z</time>
      </trkpt>
      <trkpt lat="46.18128" lon="4.56666">
        <ele>549</ele>
        <time>2025-09-07T07:59:30Z</time>
      </trkpt>
      <trkpt lat="46.18129" lon="4.56665">
        <ele>549.2</ele>
        <time>2025-09-07T07:59:31Z</time>
      </trkpt>
      <trkpt lat="46.1813" lon="4.56665">
        <ele>549.2</ele>
        <time>2025-09-07T07:59:32Z</time>
      </trkpt>
      <trkpt lat="46.18131" lon="4.56664">
        <ele>549.6</ele>
        <time>2025-09-07T07:59:33Z</time>
      </trkpt>
      <trkpt lat="46.18131" lon="4.56663">
        <ele>549.6</ele>
        <time>2025-09-07T07:59:34Z</time>
      </trkpt>
      <trkpt lat="46.18132" lon="4.56663">
        <ele>549.6</ele>
        <time>2025-09-07T07:59:35Z</time>
      </trkpt>
      <trkpt lat="46.18133" lon="4.56662">
        <ele>549.8</ele>
        <time>2025-09-07T07:59:36Z</time>
      </trkpt>
      <trkpt lat="46.18133" lon="4.56662">
        <ele>549.8</ele>
        <time>2025-09-07T07:59:37Z</time>
      </trkpt>
      <trkpt lat="46.18134" lon="4.56663">
        <ele>550.8</ele>
        <time>2025-09-07T07:59:42Z</time>
      </trkpt>
      <trkpt lat="46.18135" lon="4.56663">
        <ele>550.8</ele>
        <time>2025-09-07T07:59:43Z</time>
      </trkpt>
      <trkpt lat="46.18135" lon="4.56663">
        <ele>550.8</ele>
        <time>2025-09-07T07:59:44Z</time>
      </trkpt>
      <trkpt lat="46.18136" lon="4.56663">
        <ele>550.6</ele>
        <time>2025-09-07T07:59:50Z</time>
      </trkpt>
      <trkpt lat="46.18136" lon="4.56662">
        <ele>550.6</ele>
        <time>2025-09-07T07:59:51Z</time>
      </trkpt>
      <trkpt lat="46.18137" lon="4.56662">
        <ele>550.8</ele>
        <time>2025-09-07T07:59:52Z</time>
      </trkpt>
      <trkpt lat="46.18137" lon="4.56662">
        <ele>550.8</ele>
        <time>2025-09-07T07:59:53Z</time>
      </trkpt>
      <trkpt lat="46.18138" lon="4.56662">
        <ele>551.2</ele>
        <time>2025-09-07T07:59:54Z</time>
      </trkpt>
      <trkpt lat="46.18139" lon="4.56662">
        <ele>551.2</ele>
        <time>2025-09-07T07:59:55Z</time>
      </trkpt>
      <trkpt lat="46.18139" lon="4.56662">
        <ele>551.4</ele>
        <time>2025-09-07T07:59:56Z</time>
      </trkpt>
      <trkpt lat="46.1814" lon="4.56662">
        <ele>551.4</ele>
        <time>2025-09-07T07:59:57Z</time>
      </trkpt>
      <trkpt lat="46.1814" lon="4.56662">
        <ele>552</ele>
        <time>2025-09-07T07:59:58Z</time>
      </trkpt>
      <trkpt lat="46.1814" lon="4.56662">
        <ele>552</ele>
        <time>2025-09-07T07:59:59Z</time>
      </trkpt>
      <trkpt lat="46.18143" lon="4.56661">
        <ele>553</ele>
        <time>2025-09-07T08:00:12Z</time>
      </trkpt>
      <trkpt lat="46.18143" lon="4.56661">
        <ele>553.2</ele>
        <time>2025-09-07T08:00:13Z</time>
      </trkpt>
      <trkpt lat="46.18144" lon="4.5666">
        <ele>553.2</ele>
        <time>2025-09-07T08:00:14Z</time>
      </trkpt>
      <trkpt lat="46.18144" lon="4.5666">
        <ele>553.2</ele>
        <time>2025-09-07T08:00:15Z</time>
      </trkpt>
      <trkpt lat="46.18145" lon="4.56659">
        <ele>553.2</ele>
        <time>2025-09-07T08:00:16Z</time>
      </trkpt>
      <trkpt lat="46.18145" lon="4.56658">
        <ele>553.2</ele>
        <time>2025-09-07T08:00:17Z</time>
      </trkpt>
      <trkpt lat="46.18145" lon="4.56658">
        <ele>553.2</ele>
        <time>2025-09-07T08:00:18Z</time>
      </trkpt>
      <trkpt lat="46.18145" lon="4.56658">
        <ele>553.2</ele>
        <time>2025-09-07T08:00:19Z</time>
      </trkpt>
      <trkpt lat="46.18148" lon="4.5666">
        <ele>553.4</ele>
        <time>2025-09-07T08:00:38Z</time>
      </trkpt>
      <trkpt lat="46.18148" lon="4.5666">
        <ele>553.4</ele>
        <time>2025-09-07T08:00:39Z</time>
      </trkpt>
      <trkpt lat="46.1815" lon="4.5666">
        <ele>553.4</ele>
        <time>2025-09-07T08:00:40Z</time>
      </trkpt>
      <trkpt lat="46.18151" lon="4.5666">
        <ele>553.4</ele>
        <time>2025-09-07T08:00:41Z</time>
      </trkpt>
      <trkpt lat="46.18152" lon="4.5666">
        <ele>553.4</ele>
        <time>2025-09-07T08:00:42Z</time>
      </trkpt>
      <trkpt lat="46.18153" lon="4.5666">
        <ele>553.4</ele>
        <time>2025-09-07T08:00:43Z</time>
      </trkpt>
      <trkpt lat="46.18154" lon="4.5666">
        <ele>553.8</ele>
        <time>2025-09-07T08:00:44Z</time>
      </trkpt>
      <trkpt lat="46.18155" lon="4.5666">
        <ele>554.4</ele>
        <time>2025-09-07T08:00:45Z</time>
      </trkpt>
      <trkpt lat="46.18155" lon="4.5666">
        <ele>554.8</ele>
        <time>2025-09-07T08:00:46Z</time>
      </trkpt>
      <trkpt lat="46.18156" lon="4.5666">
        <ele>554.8</ele>
        <time>2025-09-07T08:00:47Z</time>
      </trkpt>
      <trkpt lat="46.18157" lon="4.5666">
        <ele>555.2</ele>
        <time>2025-09-07T08:00:48Z</time>
      </trkpt>
      <trkpt lat="46.18157" lon="4.5666">
        <ele>555.4</ele>
        <time>2025-09-07T08:00:49Z</time>
      </trkpt>
      <trkpt lat="46.18158" lon="4.5666">
        <ele>555.4</ele>
        <time>2025-09-07T08:00:50Z</time>
      </trkpt>
      <trkpt lat="46.18159" lon="4.5666">
        <ele>555.4</ele>
        <time>2025-09-07T08:00:51Z</time>
      </trkpt>
      <trkpt lat="46.1816" lon="4.56661">
        <ele>555.8</ele>
        <time>2025-09-07T08:00:52Z</time>
      </trkpt>
      <trkpt lat="46.18161" lon="4.56661">
        <ele>555.8</ele>
        <time>2025-09-07T08:00:53Z</time>
      </trkpt>
      <trkpt lat="46.18162" lon="4.56661">
        <ele>555.8</ele>
        <time>2025-09-07T08:00:54Z</time>
      </trkpt>
      <trkpt lat="46.18162" lon="4.56661">
        <ele>556</ele>
        <time>2025-09-07T08:00:55Z</time>
      </trkpt>
      <trkpt lat="46.18163" lon="4.56661">
        <ele>556.4</ele>
        <time>2025-09-07T08:00:56Z</time>
      </trkpt>
      <trkpt lat="46.18164" lon="4.56661">
        <ele>556.4</ele>
        <time>2025-09-07T08:00:57Z</time>
      </trkpt>
      <trkpt lat="46.18164" lon="4.56662">
        <ele>556.4</ele>
        <time>2025-09-07T08:00:58Z</time>
      </trkpt>
      <trkpt lat="46.18165" lon="4.56662">
        <ele>557</ele>
        <time>2025-09-07T08:00:59Z</time>
      </trkpt>
      <trkpt lat="46.18165" lon="4.56662">
        <ele>557</ele>
        <time>2025-09-07T08:01:00Z</time>
      </trkpt>
      <trkpt lat="46.18166" lon="4.56662">
        <ele>557</ele>
        <time>2025-09-07T08:01:01Z</time>
      </trkpt>
      <trkpt lat="46.18167" lon="4.56662">
        <ele>557.2</ele>
        <time>2025-09-07T08:01:02Z</time>
      </trkpt>
      <trkpt lat="46.18167" lon="4.56662">
        <ele>557.2</ele>
        <time>2025-09-07T08:01:03Z</time>
      </trkpt>
      <trkpt lat="46.18167" lon="4.56662">
        <ele>557.2</ele>
        <time>2025-09-07T08:01:04Z</time>
      </trkpt>
      <trkpt lat="46.18168" lon="4.56662">
        <ele>557.2</ele>
        <time>2025-09-07T08:01:05Z</time>
      </trkpt>
      <trkpt lat="46.18168" lon="4.56662">
        <ele>557.6</ele>
        <time>2025-09-07T08:01:06Z</time>
      </trkpt>
      <trkpt lat="46.18169" lon="4.56661">
        <ele>558</ele>
        <time>2025-09-07T08:01:07Z</time>
      </trkpt>
      <trkpt lat="46.1817" lon="4.56662">
        <ele>558</ele>
        <time>2025-09-07T08:01:08Z</time>
      </trkpt>
      <trkpt lat="46.18171" lon="4.56662">
        <ele>558</ele>
        <time>2025-09-07T08:01:09Z</time>
      </trkpt>
      <trkpt lat="46.18171" lon="4.56662">
        <ele>558</ele>
        <time>2025-09-07T08:01:10Z</time>
      </trkpt>
      <trkpt lat="46.18172" lon="4.56661">
        <ele>558</ele>
        <time>2025-09-07T08:01:11Z</time>
      </trkpt>
      <trkpt lat="46.18172" lon="4.56661">
        <ele>558.4</ele>
        <time>2025-09-07T08:01:12Z</time>
      </trkpt>
      <trkpt lat="46.18173" lon="4.56661">
        <ele>558.4</ele>
        <time>2025-09-07T08:01:13Z</time>
      </trkpt>
      <trkpt lat="46.18174" lon="4.5666">
        <ele>558.8</ele>
        <time>2025-09-07T08:01:14Z</time>
      </trkpt>
      <trkpt lat="46.18174" lon="4.5666">
        <ele>559</ele>
        <time>2025-09-07T08:01:15Z</time>
      </trkpt>
      <trkpt lat="46.18175" lon="4.5666">
        <ele>559.4</ele>
        <time>2025-09-07T08:01:16Z</time>
      </trkpt>
      <trkpt lat="46.18175" lon="4.56659">
        <ele>559.4</ele>
        <time>2025-09-07T08:01:17Z</time>
      </trkpt>
      <trkpt lat="46.18176" lon="4.56659">
        <ele>559.6</ele>
        <time>2025-09-07T08:01:18Z</time>
      </trkpt>
      <trkpt lat="46.18176" lon="4.56659">
        <ele>560</ele>
        <time>2025-09-07T08:01:19Z</time>
      </trkpt>
      <trkpt lat="46.18177" lon="4.56659">
        <ele>560</ele>
        <time>2025-09-07T08:01:20Z</time>
      </trkpt>
      <trkpt lat="46.18177" lon="4.56659">
        <ele>560.2</ele>
        <time>2025-09-07T08:01:21Z</time>
      </trkpt>
      <trkpt lat="46.18178" lon="4.56658">
        <ele>560.2</ele>
        <time>2025-09-07T08:01:35Z</time>
      </trkpt>
      <trkpt lat="46.18179" lon="4.56659">
        <ele>560.4</ele>
        <time>2025-09-07T08:01:36Z</time>
      </trkpt>
      <trkpt lat="46.1818" lon="4.56659">
        <ele>560.4</ele>
        <time>2025-09-07T08:01:37Z</time>
      </trkpt>
      <trkpt lat="46.18181" lon="4.56659">
        <ele>560.6</ele>
        <time>2025-09-07T08:01:38Z</time>
      </trkpt>
      <trkpt lat="46.18182" lon="4.56659">
        <ele>560.6</ele>
        <time>2025-09-07T08:01:39Z</time>
      </trkpt>
      <trkpt lat="46.18183" lon="4.56659">
        <ele>561</ele>
        <time>2025-09-07T08:01:40Z</time>
      </trkpt>
      <trkpt lat="46.18184" lon="4.56658">
        <ele>561.2</ele>
        <time>2025-09-07T08:01:41Z</time>
      </trkpt>
      <trkpt lat="46.18184" lon="4.56658">
        <ele>561.2</ele>
        <time>2025-09-07T08:01:42Z</time>
      </trkpt>
      <trkpt lat="46.18185" lon="4.56657">
        <ele>561.2</ele>
        <time>2025-09-07T08:01:43Z</time>
      </trkpt>
      <trkpt lat="46.18186" lon="4.56657">
        <ele>561.4</ele>
        <time>2025-09-07T08:01:44Z</time>
      </trkpt>
      <trkpt lat="46.18186" lon="4.56657">
        <ele>561.4</ele>
        <time>2025-09-07T08:01:45Z</time>
      </trkpt>
      <trkpt lat="46.18187" lon="4.56656">
        <ele>561.6</ele>
        <time>2025-09-07T08:01:46Z</time>
      </trkpt>
      <trkpt lat="46.18188" lon="4.56656">
        <ele>561.6</ele>
        <time>2025-09-07T08:01:47Z</time>
      </trkpt>
      <trkpt lat="46.18188" lon="4.56656">
        <ele>562</ele>
        <time>2025-09-07T08:01:48Z</time>
      </trkpt>
      <trkpt lat="46.18189" lon="4.56656">
        <ele>562.4</ele>
        <time>2025-09-07T08:01:49Z</time>
      </trkpt>
      <trkpt lat="46.18189" lon="4.56656">
        <ele>562.2</ele>
        <time>2025-09-07T08:01:50Z</time>
      </trkpt>
      <trkpt lat="46.1819" lon="4.56655">
        <ele>562.2</ele>
        <time>2025-09-07T08:01:51Z</time>
      </trkpt>
      <trkpt lat="46.18191" lon="4.56655">
        <ele>562.4</ele>
        <time>2025-09-07T08:01:52Z</time>
      </trkpt>
      <trkpt lat="46.18192" lon="4.56655">
        <ele>562.8</ele>
        <time>2025-09-07T08:01:53Z</time>
      </trkpt>
      <trkpt lat="46.18193" lon="4.56655">
        <ele>562.8</ele>
        <time>2025-09-07T08:01:54Z</time>
      </trkpt>
      <trkpt lat="46.18194" lon="4.56655">
        <ele>562.8</ele>
        <time>2025-09-07T08:01:55Z</time>
      </trkpt>
      <trkpt lat="46.18194" lon="4.56655">
        <ele>563.2</ele>
        <time>2025-09-07T08:01:56Z</time>
      </trkpt>
      <trkpt lat="46.18195" lon="4.56655">
        <ele>563.6</ele>
        <time>2025-09-07T08:01:57Z</time>
      </trkpt>
      <trkpt lat="46.18196" lon="4.56655">
        <ele>563.6</ele>
        <time>2025-09-07T08:01:58Z</time>
      </trkpt>
      <trkpt lat="46.18197" lon="4.56655">
        <ele>563.6</ele>
        <time>2025-09-07T08:01:59Z</time>
      </trkpt>
      <trkpt lat="46.18198" lon="4.56655">
        <ele>563.6</ele>
        <time>2025-09-07T08:02:00Z</time>
      </trkpt>
      <trkpt lat="46.18198" lon="4.56655">
        <ele>564</ele>
        <time>2025-09-07T08:02:01Z</time>
      </trkpt>
      <trkpt lat="46.18199" lon="4.56655">
        <ele>564</ele>
        <time>2025-09-07T08:02:02Z</time>
      </trkpt>
      <trkpt lat="46.182" lon="4.56655">
        <ele>564</ele>
        <time>2025-09-07T08:02:03Z</time>
      </trkpt>
      <trkpt lat="46.18201" lon="4.56654">
        <ele>564</ele>
        <time>2025-09-07T08:02:04Z</time>
      </trkpt>
      <trkpt lat="46.18201" lon="4.56654">
        <ele>564</ele>
        <time>2025-09-07T08:02:05Z</time>
      </trkpt>
      <trkpt lat="46.18202" lon="4.56654">
        <ele>564.4</ele>
        <time>2025-09-07T08:02:06Z</time>
      </trkpt>
      <trkpt lat="46.18203" lon="4.56654">
        <ele>564.4</ele>
        <time>2025-09-07T08:02:07Z</time>
      </trkpt>
      <trkpt lat="46.18203" lon="4.56654">
        <ele>564.6</ele>
        <time>2025-09-07T08:02:08Z</time>
      </trkpt>
      <trkpt lat="46.18204" lon="4.56655">
        <ele>564.6</ele>
        <time>2025-09-07T08:02:09Z</time>
      </trkpt>
      <trkpt lat="46.18205" lon="4.56655">
        <ele>565</ele>
        <time>2025-09-07T08:02:10Z</time>
      </trkpt>
      <trkpt lat="46.18206" lon="4.56655">
        <ele>565.2</ele>
        <time>2025-09-07T08:02:11Z</time>
      </trkpt>
      <trkpt lat="46.18207" lon="4.56656">
        <ele>565.2</ele>
        <time>2025-09-07T08:02:12Z</time>
      </trkpt>
      <trkpt lat="46.18208" lon="4.56656">
        <ele>565.6</ele>
        <time>2025-09-07T08:02:13Z</time>
      </trkpt>
      <trkpt lat="46.18208" lon="4.56656">
        <ele>565.8</ele>
        <time>2025-09-07T08:02:14Z</time>
      </trkpt>
      <trkpt lat="46.18209" lon="4.56656">
        <ele>565.8</ele>
        <time>2025-09-07T08:02:15Z</time>
      </trkpt>
      <trkpt lat="46.1821" lon="4.56657">
        <ele>565.8</ele>
        <time>2025-09-07T08:02:16Z</time>
      </trkpt>
      <trkpt lat="46.18211" lon="4.56657">
        <ele>566.2</ele>
        <time>2025-09-07T08:02:17Z</time>
      </trkpt>
      <trkpt lat="46.18211" lon="4.56657">
        <ele>566.4</ele>
        <time>2025-09-07T08:02:18Z</time>
      </trkpt>
      <trkpt lat="46.18212" lon="4.56658">
        <ele>566.4</ele>
        <time>2025-09-07T08:02:23Z</time>
      </trkpt>
      <trkpt lat="46.18213" lon="4.56659">
        <ele>566.4</ele>
        <time>2025-09-07T08:02:24Z</time>
      </trkpt>
      <trkpt lat="46.18213" lon="4.5666">
        <ele>566.4</ele>
        <time>2025-09-07T08:02:25Z</time>
      </trkpt>
      <trkpt lat="46.18212" lon="4.56661">
        <ele>566.6</ele>
        <time>2025-09-07T08:02:26Z</time>
      </trkpt>
      <trkpt lat="46.18212" lon="4.5666">
        <ele>566.6</ele>
        <time>2025-09-07T08:02:27Z</time>
      </trkpt>
      <trkpt lat="46.18212" lon="4.56658">
        <ele>568</ele>
        <time>2025-09-07T08:06:49Z</time>
      </trkpt>
      <trkpt lat="46.18213" lon="4.56659">
        <ele>568</ele>
        <time>2025-09-07T08:06:50Z</time>
      </trkpt>
      <trkpt lat="46.18214" lon="4.56659">
        <ele>568</ele>
        <time>2025-09-07T08:06:51Z</time>
      </trkpt>
      <trkpt lat="46.18214" lon="4.56659">
        <ele>568</ele>
        <time>2025-09-07T08:06:52Z</time>
      </trkpt>
      <trkpt lat="46.18215" lon="4.56659">
        <ele>568</ele>
        <time>2025-09-07T08:06:53Z</time>
      </trkpt>
      <trkpt lat="46.18216" lon="4.56659">
        <ele>568</ele>
        <time>2025-09-07T08:06:54Z</time>
      </trkpt>
      <trkpt lat="46.18217" lon="4.5666">
        <ele>568</ele>
        <time>2025-09-07T08:06:55Z</time>
      </trkpt>
      <trkpt lat="46.18218" lon="4.56661">
        <ele>568</ele>
        <time>2025-09-07T08:06:56Z</time>
      </trkpt>
      <trkpt lat="46.1822" lon="4.56662">
        <ele>568.4</ele>
        <time>2025-09-07T08:06:57Z</time>
      </trkpt>
      <trkpt lat="46.18221" lon="4.56663">
        <ele>568.8</ele>
        <time>2025-09-07T08:06:58Z</time>
      </trkpt>
      <trkpt lat="46.18222" lon="4.56664">
        <ele>569.2</ele>
        <time>2025-09-07T08:06:59Z</time>
      </trkpt>
      <trkpt lat="46.18223" lon="4.56665">
        <ele>569</ele>
        <time>2025-09-07T08:07:00Z</time>
      </trkpt>
      <trkpt lat="46.18224" lon="4.56666">
        <ele>569</ele>
        <time>2025-09-07T08:07:01Z</time>
      </trkpt>
      <trkpt lat="46.18224" lon="4.56667">
        <ele>569</ele>
        <time>2025-09-07T08:07:02Z</time>
      </trkpt>
      <trkpt lat="46.18225" lon="4.56667">
        <ele>569</ele>
        <time>2025-09-07T08:07:03Z</time>
      </trkpt>
      <trkpt lat="46.18227" lon="4.56669">
        <ele>568.6</ele>
        <time>2025-09-07T08:07:04Z</time>
      </trkpt>
      <trkpt lat="46.18228" lon="4.5667">
        <ele>569</ele>
        <time>2025-09-07T08:07:05Z</time>
      </trkpt>
      <trkpt lat="46.18229" lon="4.56672">
        <ele>569.2</ele>
        <time>2025-09-07T08:07:06Z</time>
      </trkpt>
      <trkpt lat="46.18229" lon="4.56673">
        <ele>569.2</ele>
        <time>2025-09-07T08:07:07Z</time>
      </trkpt>
      <trkpt lat="46.1823" lon="4.56674">
        <ele>569.2</ele>
        <time>2025-09-07T08:07:08Z</time>
      </trkpt>
      <trkpt lat="46.18231" lon="4.56675">
        <ele>569.2</ele>
        <time>2025-09-07T08:07:09Z</time>
      </trkpt>
      <trkpt lat="46.18232" lon="4.56676">
        <ele>569.6</ele>
        <time>2025-09-07T08:07:10Z</time>
      </trkpt>
      <trkpt lat="46.18233" lon="4.56677">
        <ele>569.6</ele>
        <time>2025-09-07T08:07:11Z</time>
      </trkpt>
      <trkpt lat="46.18234" lon="4.56678">
        <ele>569.6</ele>
        <time>2025-09-07T08:07:12Z</time>
      </trkpt>
      <trkpt lat="46.18235" lon="4.56679">
        <ele>570.2</ele>
        <time>2025-09-07T08:07:13Z</time>
      </trkpt>
      <trkpt lat="46.18236" lon="4.5668">
        <ele>570.4</ele>
        <time>2025-09-07T08:07:14Z</time>
      </trkpt>
      <trkpt lat="46.18237" lon="4.56682">
        <ele>570</ele>
        <time>2025-09-07T08:07:15Z</time>
      </trkpt>
      <trkpt lat="46.18238" lon="4.56682">
        <ele>570</ele>
        <time>2025-09-07T08:07:16Z</time>
      </trkpt>
      <trkpt lat="46.18239" lon="4.56683">
        <ele>570.2</ele>
        <time>2025-09-07T08:07:17Z</time>
      </trkpt>
      <trkpt lat="46.1824" lon="4.56684">
        <ele>570.2</ele>
        <time>2025-09-07T08:07:18Z</time>
      </trkpt>
      <trkpt lat="46.18241" lon="4.56685">
        <ele>570.6</ele>
        <time>2025-09-07T08:07:19Z</time>
      </trkpt>
      <trkpt lat="46.18242" lon="4.56686">
        <ele>570.6</ele>
        <time>2025-09-07T08:07:20Z</time>
      </trkpt>
      <trkpt lat="46.18243" lon="4.56687">
        <ele>570.8</ele>
        <time>2025-09-07T08:07:21Z</time>
      </trkpt>
      <trkpt lat="46.18244" lon="4.56688">
        <ele>570.8</ele>
        <time>2025-09-07T08:07:22Z</time>
      </trkpt>
      <trkpt lat="46.18245" lon="4.56689">
        <ele>571</ele>
        <time>2025-09-07T08:07:23Z</time>
      </trkpt>
      <trkpt lat="46.18246" lon="4.5669">
        <ele>571.4</ele>
        <time>2025-09-07T08:07:24Z</time>
      </trkpt>
      <trkpt lat="46.18247" lon="4.56691">
        <ele>571.4</ele>
        <time>2025-09-07T08:07:25Z</time>
      </trkpt>
      <trkpt lat="46.18248" lon="4.56692">
        <ele>571.4</ele>
        <time>2025-09-07T08:07:26Z</time>
      </trkpt>
      <trkpt lat="46.18249" lon="4.56692">
        <ele>571.4</ele>
        <time>2025-09-07T08:07:27Z</time>
      </trkpt>
      <trkpt lat="46.18251" lon="4.56693">
        <ele>571.4</ele>
        <time>2025-09-07T08:07:28Z</time>
      </trkpt>
      <trkpt lat="46.18252" lon="4.56694">
        <ele>572</ele>
        <time>2025-09-07T08:07:29Z</time>
      </trkpt>
      <trkpt lat="46.18253" lon="4.56695">
        <ele>572</ele>
        <time>2025-09-07T08:07:30Z</time>
      </trkpt>
      <trkpt lat="46.18254" lon="4.56696">
        <ele>572</ele>
        <time>2025-09-07T08:07:31Z</time>
      </trkpt>
      <trkpt lat="46.18255" lon="4.56696">
        <ele>572</ele>
        <time>2025-09-07T08:07:32Z</time>
      </trkpt>
      <trkpt lat="46.18256" lon="4.56697">
        <ele>572</ele>
        <time>2025-09-07T08:07:33Z</time>
      </trkpt>
      <trkpt lat="46.18257" lon="4.56697">
        <ele>572.2</ele>
        <time>2025-09-07T08:07:34Z</time>
      </trkpt>
      <trkpt lat="46.18259" lon="4.56698">
        <ele>572.2</ele>
        <time>2025-09-07T08:07:35Z</time>
      </trkpt>
      <trkpt lat="46.1826" lon="4.56699">
        <ele>572.2</ele>
        <time>2025-09-07T08:07:36Z</time>
      </trkpt>
      <trkpt lat="46.18261" lon="4.56699">
        <ele>572.6</ele>
        <time>2025-09-07T08:07:37Z</time>
      </trkpt>
      <trkpt lat="46.18262" lon="4.56699">
        <ele>573</ele>
        <time>2025-09-07T08:07:38Z</time>
      </trkpt>
      <trkpt lat="46.18263" lon="4.567">
        <ele>573</ele>
        <time>2025-09-07T08:07:39Z</time>
      </trkpt>
      <trkpt lat="46.18264" lon="4.56701">
        <ele>573.2</ele>
        <time>2025-09-07T08:07:40Z</time>
      </trkpt>
      <trkpt lat="46.18266" lon="4.56701">
        <ele>573.6</ele>
        <time>2025-09-07T08:07:41Z</time>
      </trkpt>
      <trkpt lat="46.18267" lon="4.56702">
        <ele>573.6</ele>
        <time>2025-09-07T08:07:42Z</time>
      </trkpt>
      <trkpt lat="46.18268" lon="4.56703">
        <ele>573.8</ele>
        <time>2025-09-07T08:07:43Z</time>
      </trkpt>
      <trkpt lat="46.18268" lon="4.56703">
        <ele>573.4</ele>
        <time>2025-09-07T08:07:44Z</time>
      </trkpt>
      <trkpt lat="46.18269" lon="4.56704">
        <ele>573.4</ele>
        <time>2025-09-07T08:07:45Z</time>
      </trkpt>
      <trkpt lat="46.1827" lon="4.56704">
        <ele>573.4</ele>
        <time>2025-09-07T08:07:46Z</time>
      </trkpt>
      <trkpt lat="46.18271" lon="4.56705">
        <ele>573.8</ele>
        <time>2025-09-07T08:07:47Z</time>
      </trkpt>
      <trkpt lat="46.18272" lon="4.56705">
        <ele>574</ele>
        <time>2025-09-07T08:07:48Z</time>
      </trkpt>
      <trkpt lat="46.18273" lon="4.56705">
        <ele>574.6</ele>
        <time>2025-09-07T08:07:49Z</time>
      </trkpt>
      <trkpt lat="46.18273" lon="4.56706">
        <ele>574.6</ele>
        <time>2025-09-07T08:07:50Z</time>
      </trkpt>
      <trkpt lat="46.18274" lon="4.56707">
        <ele>574.6</ele>
        <time>2025-09-07T08:07:51Z</time>
      </trkpt>
      <trkpt lat="46.18275" lon="4.56708">
        <ele>574.6</ele>
        <time>2025-09-07T08:07:52Z</time>
      </trkpt>
      <trkpt lat="46.18276" lon="4.56709">
        <ele>574.8</ele>
        <time>2025-09-07T08:07:53Z</time>
      </trkpt>
      <trkpt lat="46.18276" lon="4.56709">
        <ele>574.8</ele>
        <time>2025-09-07T08:07:54Z</time>
      </trkpt>
      <trkpt lat="46.18277" lon="4.56709">
        <ele>574.8</ele>
        <time>2025-09-07T08:07:55Z</time>
      </trkpt>
      <trkpt lat="46.18277" lon="4.56709">
        <ele>574.8</ele>
        <time>2025-09-07T08:07:56Z</time>
      </trkpt>
      <trkpt lat="46.18278" lon="4.5671">
        <ele>575</ele>
        <time>2025-09-07T08:07:57Z</time>
      </trkpt>
      <trkpt lat="46.18279" lon="4.5671">
        <ele>574.6</ele>
        <time>2025-09-07T08:07:58Z</time>
      </trkpt>
      <trkpt lat="46.1828" lon="4.5671">
        <ele>574.6</ele>
        <time>2025-09-07T08:07:59Z</time>
      </trkpt>
      <trkpt lat="46.18281" lon="4.56711">
        <ele>575</ele>
        <time>2025-09-07T08:08:00Z</time>
      </trkpt>
      <trkpt lat="46.18281" lon="4.56712">
        <ele>575.4</ele>
        <time>2025-09-07T08:08:01Z</time>
      </trkpt>
      <trkpt lat="46.18282" lon="4.56713">
        <ele>575.4</ele>
        <time>2025-09-07T08:08:02Z</time>
      </trkpt>
      <trkpt lat="46.18283" lon="4.56713">
        <ele>575.6</ele>
        <time>2025-09-07T08:08:03Z</time>
      </trkpt>
      <trkpt lat="46.18284" lon="4.56713">
        <ele>575.6</ele>
        <time>2025-09-07T08:08:04Z</time>
      </trkpt>
      <trkpt lat="46.18285" lon="4.56714">
        <ele>576</ele>
        <time>2025-09-07T08:08:05Z</time>
      </trkpt>
      <trkpt lat="46.18285" lon="4.56714">
        <ele>576</ele>
        <time>2025-09-07T08:08:06Z</time>
      </trkpt>
      <trkpt lat="46.18286" lon="4.56715">
        <ele>576.2</ele>
        <time>2025-09-07T08:08:07Z</time>
      </trkpt>
      <trkpt lat="46.18287" lon="4.56715">
        <ele>576.4</ele>
        <time>2025-09-07T08:08:08Z</time>
      </trkpt>
      <trkpt lat="46.18288" lon="4.56716">
        <ele>576.4</ele>
        <time>2025-09-07T08:08:09Z</time>
      </trkpt>
      <trkpt lat="46.18289" lon="4.56716">
        <ele>576.8</ele>
        <time>2025-09-07T08:08:10Z</time>
      </trkpt>
      <trkpt lat="46.1829" lon="4.56717">
        <ele>576.8</ele>
        <time>2025-09-07T08:08:11Z</time>
      </trkpt>
      <trkpt lat="46.1829" lon="4.56718">
        <ele>576.8</ele>
        <time>2025-09-07T08:08:12Z</time>
      </trkpt>
      <trkpt lat="46.18291" lon="4.56718">
        <ele>577</ele>
        <time>2025-09-07T08:08:13Z</time>
      </trkpt>
      <trkpt lat="46.18292" lon="4.56719">
        <ele>577.4</ele>
        <time>2025-09-07T08:08:14Z</time>
      </trkpt>
      <trkpt lat="46.18293" lon="4.5672">
        <ele>577.4</ele>
        <time>2025-09-07T08:08:15Z</time>
      </trkpt>
      <trkpt lat="46.18294" lon="4.5672">
        <ele>577.4</ele>
        <time>2025-09-07T08:08:16Z</time>
      </trkpt>
      <trkpt lat="46.18295" lon="4.56721">
        <ele>577.4</ele>
        <time>2025-09-07T08:08:17Z</time>
      </trkpt>
      <trkpt lat="46.18296" lon="4.56722">
        <ele>577.4</ele>
        <time>2025-09-07T08:08:18Z</time>
      </trkpt>
      <trkpt lat="46.18296" lon="4.56723">
        <ele>577.6</ele>
        <time>2025-09-07T08:08:19Z</time>
      </trkpt>
      <trkpt lat="46.18296" lon="4.56723">
        <ele>577.6</ele>
        <time>2025-09-07T08:08:20Z</time>
      </trkpt>
      <trkpt lat="46.18297" lon="4.56724">
        <ele>578</ele>
        <time>2025-09-07T08:08:21Z</time>
      </trkpt>
      <trkpt lat="46.18298" lon="4.56725">
        <ele>578.4</ele>
        <time>2025-09-07T08:08:22Z</time>
      </trkpt>
      <trkpt lat="46.18299" lon="4.56725">
        <ele>578.4</ele>
        <time>2025-09-07T08:08:23Z</time>
      </trkpt>
      <trkpt lat="46.183" lon="4.56726">
        <ele>578.4</ele>
        <time>2025-09-07T08:08:24Z</time>
      </trkpt>
      <trkpt lat="46.18301" lon="4.56727">
        <ele>578.6</ele>
        <time>2025-09-07T08:08:25Z</time>
      </trkpt>
      <trkpt lat="46.18301" lon="4.56728">
        <ele>578.6</ele>
        <time>2025-09-07T08:08:26Z</time>
      </trkpt>
      <trkpt lat="46.18302" lon="4.56728">
        <ele>578.8</ele>
        <time>2025-09-07T08:08:27Z</time>
      </trkpt>
      <trkpt lat="46.18302" lon="4.56729">
        <ele>578.8</ele>
        <time>2025-09-07T08:08:28Z</time>
      </trkpt>
      <trkpt lat="46.18303" lon="4.5673">
        <ele>579.2</ele>
        <time>2025-09-07T08:08:29Z</time>
      </trkpt>
      <trkpt lat="46.18304" lon="4.5673">
        <ele>579.2</ele>
        <time>2025-09-07T08:08:30Z</time>
      </trkpt>
      <trkpt lat="46.18305" lon="4.56731">
        <ele>579.2</ele>
        <time>2025-09-07T08:08:31Z</time>
      </trkpt>
      <trkpt lat="46.18306" lon="4.56732">
        <ele>579.2</ele>
        <time>2025-09-07T08:08:32Z</time>
      </trkpt>
      <trkpt lat="46.18307" lon="4.56733">
        <ele>579.8</ele>
        <time>2025-09-07T08:08:33Z</time>
      </trkpt>
      <trkpt lat="46.18308" lon="4.56734">
        <ele>579.8</ele>
        <time>2025-09-07T08:08:34Z</time>
      </trkpt>
      <trkpt lat="46.18308" lon="4.56734">
        <ele>579.8</ele>
        <time>2025-09-07T08:08:35Z</time>
      </trkpt>
      <trkpt lat="46.18309" lon="4.56735">
        <ele>580</ele>
        <time>2025-09-07T08:08:36Z</time>
      </trkpt>
      <trkpt lat="46.1831" lon="4.56735">
        <ele>580</ele>
        <time>2025-09-07T08:08:37Z</time>
      </trkpt>
      <trkpt lat="46.1831" lon="4.56735">
        <ele>580.4</ele>
        <time>2025-09-07T08:08:38Z</time>
      </trkpt>
      <trkpt lat="46.18311" lon="4.56735">
        <ele>580.4</ele>
        <time>2025-09-07T08:08:39Z</time>
      </trkpt>
      <trkpt lat="46.18312" lon="4.56736">
        <ele>580.6</ele>
        <time>2025-09-07T08:08:40Z</time>
      </trkpt>
      <trkpt lat="46.18313" lon="4.56736">
        <ele>580.6</ele>
        <time>2025-09-07T08:08:41Z</time>
      </trkpt>
      <trkpt lat="46.18314" lon="4.56737">
        <ele>580.6</ele>
        <time>2025-09-07T08:08:42Z</time>
      </trkpt>
      <trkpt lat="46.18314" lon="4.56738">
        <ele>581</ele>
        <time>2025-09-07T08:08:43Z</time>
      </trkpt>
      <trkpt lat="46.18315" lon="4.56739">
        <ele>581</ele>
        <time>2025-09-07T08:08:44Z</time>
      </trkpt>
      <trkpt lat="46.18316" lon="4.5674">
        <ele>581</ele>
        <time>2025-09-07T08:08:45Z</time>
      </trkpt>
      <trkpt lat="46.18317" lon="4.5674">
        <ele>581.2</ele>
        <time>2025-09-07T08:08:46Z</time>
      </trkpt>
      <trkpt lat="46.18318" lon="4.56741">
        <ele>581.2</ele>
        <time>2025-09-07T08:08:47Z</time>
      </trkpt>
      <trkpt lat="46.18319" lon="4.56742">
        <ele>581.4</ele>
        <time>2025-09-07T08:08:48Z</time>
      </trkpt>
      <trkpt lat="46.18319" lon="4.56742">
        <ele>581.4</ele>
        <time>2025-09-07T08:08:49Z</time>
      </trkpt>
      <trkpt lat="46.1832" lon="4.56742">
        <ele>581.4</ele>
        <time>2025-09-07T08:08:50Z</time>
      </trkpt>
      <trkpt lat="46.1832" lon="4.56743">
        <ele>581.8</ele>
        <time>2025-09-07T08:08:51Z</time>
      </trkpt>
      <trkpt lat="46.18321" lon="4.56743">
        <ele>581.8</ele>
        <time>2025-09-07T08:08:52Z</time>
      </trkpt>
      <trkpt lat="46.18321" lon="4.56744">
        <ele>581.8</ele>
        <time>2025-09-07T08:08:53Z</time>
      </trkpt>
      <trkpt lat="46.18322" lon="4.56744">
        <ele>582</ele>
        <time>2025-09-07T08:08:54Z</time>
      </trkpt>
      <trkpt lat="46.18323" lon="4.56744">
        <ele>582</ele>
        <time>2025-09-07T08:08:55Z</time>
      </trkpt>
      <trkpt lat="46.18324" lon="4.56745">
        <ele>582</ele>
        <time>2025-09-07T08:08:56Z</time>
      </trkpt>
      <trkpt lat="46.18324" lon="4.56745">
        <ele>582</ele>
        <time>2025-09-07T08:08:57Z</time>
      </trkpt>
      <trkpt lat="46.18325" lon="4.56745">
        <ele>582.4</ele>
        <time>2025-09-07T08:08:58Z</time>
      </trkpt>
      <trkpt lat="46.18325" lon="4.56746">
        <ele>582.8</ele>
        <time>2025-09-07T08:08:59Z</time>
      </trkpt>
      <trkpt lat="46.18326" lon="4.56746">
        <ele>582.8</ele>
        <time>2025-09-07T08:09:00Z</time>
      </trkpt>
      <trkpt lat="46.18327" lon="4.56747">
        <ele>582.8</ele>
        <time>2025-09-07T08:09:01Z</time>
      </trkpt>
      <trkpt lat="46.18327" lon="4.56746">
        <ele>583</ele>
        <time>2025-09-07T08:09:02Z</time>
      </trkpt>
      <trkpt lat="46.18329" lon="4.56747">
        <ele>583</ele>
        <time>2025-09-07T08:09:03Z</time>
      </trkpt>
      <trkpt lat="46.18329" lon="4.56747">
        <ele>583.2</ele>
        <time>2025-09-07T08:09:04Z</time>
      </trkpt>
      <trkpt lat="46.1833" lon="4.56747">
        <ele>583.2</ele>
        <time>2025-09-07T08:09:05Z</time>
      </trkpt>
      <trkpt lat="46.1833" lon="4.56748">
        <ele>583.4</ele>
        <time>2025-09-07T08:09:06Z</time>
      </trkpt>
      <trkpt lat="46.18331" lon="4.56748">
        <ele>583.4</ele>
        <time>2025-09-07T08:09:07Z</time>
      </trkpt>
      <trkpt lat="46.18332" lon="4.56748">
        <ele>583.8</ele>
        <time>2025-09-07T08:09:08Z</time>
      </trkpt>
      <trkpt lat="46.18333" lon="4.56749">
        <ele>583.8</ele>
        <time>2025-09-07T08:09:09Z</time>
      </trkpt>
      <trkpt lat="46.18333" lon="4.56749">
        <ele>584</ele>
        <time>2025-09-07T08:09:10Z</time>
      </trkpt>
      <trkpt lat="46.18334" lon="4.56749">
        <ele>584</ele>
        <time>2025-09-07T08:09:11Z</time>
      </trkpt>
      <trkpt lat="46.18334" lon="4.5675">
        <ele>584.6</ele>
        <time>2025-09-07T08:09:12Z</time>
      </trkpt>
      <trkpt lat="46.18335" lon="4.5675">
        <ele>585</ele>
        <time>2025-09-07T08:09:13Z</time>
      </trkpt>
      <trkpt lat="46.18335" lon="4.5675">
        <ele>585</ele>
        <time>2025-09-07T08:09:14Z</time>
      </trkpt>
      <trkpt lat="46.18335" lon="4.56751">
        <ele>585</ele>
        <time>2025-09-07T08:09:15Z</time>
      </trkpt>
      <trkpt lat="46.18335" lon="4.56751">
        <ele>584.8</ele>
        <time>2025-09-07T08:09:40Z</time>
      </trkpt>
      <trkpt lat="46.18335" lon="4.56751">
        <ele>585.2</ele>
        <time>2025-09-07T08:09:41Z</time>
      </trkpt>
      <trkpt lat="46.18335" lon="4.56751">
        <ele>585</ele>
        <time>2025-09-07T08:09:42Z</time>
      </trkpt>
      <trkpt lat="46.18335" lon="4.56751">
        <ele>585.2</ele>
        <time>2025-09-07T08:09:43Z</time>
      </trkpt>
      <trkpt lat="46.18336" lon="4.56751">
        <ele>585.2</ele>
        <time>2025-09-07T08:09:44Z</time>
      </trkpt>
      <trkpt lat="46.18337" lon="4.56752">
        <ele>585.2</ele>
        <time>2025-09-07T08:09:45Z</time>
      </trkpt>
      <trkpt lat="46.18338" lon="4.56753">
        <ele>585.4</ele>
        <time>2025-09-07T08:09:46Z</time>
      </trkpt>
      <trkpt lat="46.18338" lon="4.56753">
        <ele>585.4</ele>
        <time>2025-09-07T08:09:47Z</time>
      </trkpt>
      <trkpt lat="46.18339" lon="4.56754">
        <ele>585.4</ele>
        <time>2025-09-07T08:09:48Z</time>
      </trkpt>
      <trkpt lat="46.1834" lon="4.56754">
        <ele>585.4</ele>
        <time>2025-09-07T08:09:49Z</time>
      </trkpt>
      <trkpt lat="46.1834" lon="4.56755">
        <ele>585.6</ele>
        <time>2025-09-07T08:09:50Z</time>
      </trkpt>
      <trkpt lat="46.18341" lon="4.56756">
        <ele>585.6</ele>
        <time>2025-09-07T08:09:51Z</time>
      </trkpt>
      <trkpt lat="46.18342" lon="4.56756">
        <ele>586</ele>
        <time>2025-09-07T08:09:52Z</time>
      </trkpt>
      <trkpt lat="46.18342" lon="4.56757">
        <ele>586</ele>
        <time>2025-09-07T08:09:53Z</time>
      </trkpt>
      <trkpt lat="46.18343" lon="4.56757">
        <ele>586.4</ele>
        <time>2025-09-07T08:09:54Z</time>
      </trkpt>
      <trkpt lat="46.18344" lon="4.56757">
        <ele>586.6</ele>
        <time>2025-09-07T08:09:55Z</time>
      </trkpt>
      <trkpt lat="46.18344" lon="4.56757">
        <ele>586.8</ele>
        <time>2025-09-07T08:09:56Z</time>
      </trkpt>
      <trkpt lat="46.18344" lon="4.56757">
        <ele>586.8</ele>
        <time>2025-09-07T08:09:57Z</time>
      </trkpt>
      <trkpt lat="46.18344" lon="4.56758">
        <ele>587</ele>
        <time>2025-09-07T08:09:58Z</time>
      </trkpt>
      <trkpt lat="46.18345" lon="4.56758">
        <ele>587</ele>
        <time>2025-09-07T08:09:59Z</time>
      </trkpt>
      <trkpt lat="46.18345" lon="4.56758">
        <ele>587</ele>
        <time>2025-09-07T08:10:00Z</time>
      </trkpt>
      <trkpt lat="46.18346" lon="4.56759">
        <ele>587</ele>
        <time>2025-09-07T08:10:01Z</time>
      </trkpt>
      <trkpt lat="46.18347" lon="4.56759">
        <ele>587</ele>
        <time>2025-09-07T08:10:02Z</time>
      </trkpt>
      <trkpt lat="46.18348" lon="4.5676">
        <ele>587</ele>
        <time>2025-09-07T08:10:03Z</time>
      </trkpt>
      <trkpt lat="46.18348" lon="4.56761">
        <ele>587.6</ele>
        <time>2025-09-07T08:10:04Z</time>
      </trkpt>
      <trkpt lat="46.18349" lon="4.56762">
        <ele>587.6</ele>
        <time>2025-09-07T08:10:05Z</time>
      </trkpt>
      <trkpt lat="46.1835" lon="4.56763">
        <ele>588.2</ele>
        <time>2025-09-07T08:10:06Z</time>
      </trkpt>
      <trkpt lat="46.1835" lon="4.56763">
        <ele>588.2</ele>
        <time>2025-09-07T08:10:07Z</time>
      </trkpt>
      <trkpt lat="46.18351" lon="4.56763">
        <ele>588.2</ele>
        <time>2025-09-07T08:10:08Z</time>
      </trkpt>
      <trkpt lat="46.18352" lon="4.56763">
        <ele>588.6</ele>
        <time>2025-09-07T08:10:09Z</time>
      </trkpt>
      <trkpt lat="46.18353" lon="4.56763">
        <ele>589</ele>
        <time>2025-09-07T08:10:10Z</time>
      </trkpt>
      <trkpt lat="46.18353" lon="4.56764">
        <ele>589</ele>
        <time>2025-09-07T08:10:11Z</time>
      </trkpt>
      <trkpt lat="46.18354" lon="4.56764">
        <ele>589.4</ele>
        <time>2025-09-07T08:10:12Z</time>
      </trkpt>
      <trkpt lat="46.18354" lon="4.56764">
        <ele>589.4</ele>
        <time>2025-09-07T08:10:13Z</time>
      </trkpt>
      <trkpt lat="46.18354" lon="4.56765">
        <ele>589.6</ele>
        <time>2025-09-07T08:10:14Z</time>
      </trkpt>
      <trkpt lat="46.18355" lon="4.56765">
        <ele>589.6</ele>
        <time>2025-09-07T08:10:15Z</time>
      </trkpt>
      <trkpt lat="46.18355" lon="4.56765">
        <ele>590</ele>
        <time>2025-09-07T08:10:16Z</time>
      </trkpt>
      <trkpt lat="46.18356" lon="4.56766">
        <ele>590.2</ele>
        <time>2025-09-07T08:10:17Z</time>
      </trkpt>
      <trkpt lat="46.18356" lon="4.56766">
        <ele>590.2</ele>
        <time>2025-09-07T08:10:18Z</time>
      </trkpt>
      <trkpt lat="46.18357" lon="4.56767">
        <ele>590.4</ele>
        <time>2025-09-07T08:10:19Z</time>
      </trkpt>
      <trkpt lat="46.18358" lon="4.56768">
        <ele>590.8</ele>
        <time>2025-09-07T08:10:20Z</time>
      </trkpt>
      <trkpt lat="46.18358" lon="4.56769">
        <ele>590.8</ele>
        <time>2025-09-07T08:10:21Z</time>
      </trkpt>
      <trkpt lat="46.18359" lon="4.5677">
        <ele>590.8</ele>
        <time>2025-09-07T08:10:22Z</time>
      </trkpt>
      <trkpt lat="46.18359" lon="4.56771">
        <ele>591</ele>
        <time>2025-09-07T08:10:23Z</time>
      </trkpt>
      <trkpt lat="46.1836" lon="4.56771">
        <ele>591</ele>
        <time>2025-09-07T08:10:24Z</time>
      </trkpt>
      <trkpt lat="46.1836" lon="4.56771">
        <ele>591.6</ele>
        <time>2025-09-07T08:10:25Z</time>
      </trkpt>
      <trkpt lat="46.18361" lon="4.56772">
        <ele>591.6</ele>
        <time>2025-09-07T08:10:26Z</time>
      </trkpt>
      <trkpt lat="46.18361" lon="4.56773">
        <ele>591.8</ele>
        <time>2025-09-07T08:10:27Z</time>
      </trkpt>
      <trkpt lat="46.18362" lon="4.56773">
        <ele>592</ele>
        <time>2025-09-07T08:10:28Z</time>
      </trkpt>
      <trkpt lat="46.18362" lon="4.56774">
        <ele>592</ele>
        <time>2025-09-07T08:10:29Z</time>
      </trkpt>
      <trkpt lat="46.18363" lon="4.56774">
        <ele>592</ele>
        <time>2025-09-07T08:10:30Z</time>
      </trkpt>
      <trkpt lat="46.18364" lon="4.56775">
        <ele>592.4</ele>
        <time>2025-09-07T08:10:31Z</time>
      </trkpt>
      <trkpt lat="46.18365" lon="4.56776">
        <ele>592.4</ele>
        <time>2025-09-07T08:10:32Z</time>
      </trkpt>
      <trkpt lat="46.18365" lon="4.56776">
        <ele>592.4</ele>
        <time>2025-09-07T08:10:33Z</time>
      </trkpt>
      <trkpt lat="46.18366" lon="4.56777">
        <ele>592.4</ele>
        <time>2025-09-07T08:10:34Z</time>
      </trkpt>
      <trkpt lat="46.18366" lon="4.56777">
        <ele>592.8</ele>
        <time>2025-09-07T08:10:35Z</time>
      </trkpt>
      <trkpt lat="46.18366" lon="4.56777">
        <ele>593</ele>
        <time>2025-09-07T08:10:36Z</time>
      </trkpt>
      <trkpt lat="46.18367" lon="4.56777">
        <ele>593</ele>
        <time>2025-09-07T08:10:37Z</time>
      </trkpt>
      <trkpt lat="46.18368" lon="4.56778">
        <ele>593</ele>
        <time>2025-09-07T08:10:38Z</time>
      </trkpt>
      <trkpt lat="46.18369" lon="4.56778">
        <ele>593.2</ele>
        <time>2025-09-07T08:10:39Z</time>
      </trkpt>
      <trkpt lat="46.18369" lon="4.56779">
        <ele>593.6</ele>
        <time>2025-09-07T08:10:40Z</time>
      </trkpt>
      <trkpt lat="46.1837" lon="4.56779">
        <ele>593.6</ele>
        <time>2025-09-07T08:10:41Z</time>
      </trkpt>
      <trkpt lat="46.1837" lon="4.5678">
        <ele>593.8</ele>
        <time>2025-09-07T08:10:42Z</time>
      </trkpt>
      <trkpt lat="46.18371" lon="4.56781">
        <ele>593.8</ele>
        <time>2025-09-07T08:10:43Z</time>
      </trkpt>
      <trkpt lat="46.18372" lon="4.56781">
        <ele>593.8</ele>
        <time>2025-09-07T08:10:44Z</time>
      </trkpt>
      <trkpt lat="46.18372" lon="4.56781">
        <ele>593.8</ele>
        <time>2025-09-07T08:10:45Z</time>
      </trkpt>
      <trkpt lat="46.18375" lon="4.56781">
        <ele>594.2</ele>
        <time>2025-09-07T08:11:28Z</time>
      </trkpt>
      <trkpt lat="46.18376" lon="4.56782">
        <ele>594.4</ele>
        <time>2025-09-07T08:11:29Z</time>
      </trkpt>
      <trkpt lat="46.18377" lon="4.56783">
        <ele>594.6</ele>
        <time>2025-09-07T08:11:30Z</time>
      </trkpt>
      <trkpt lat="46.18377" lon="4.56785">
        <ele>594.6</ele>
        <time>2025-09-07T08:11:31Z</time>
      </trkpt>
      <trkpt lat="46.18378" lon="4.56786">
        <ele>595</ele>
        <time>2025-09-07T08:11:32Z</time>
      </trkpt>
      <trkpt lat="46.18378" lon="4.56787">
        <ele>595.2</ele>
        <time>2025-09-07T08:11:33Z</time>
      </trkpt>
      <trkpt lat="46.18378" lon="4.56787">
        <ele>595.2</ele>
        <time>2025-09-07T08:11:34Z</time>
      </trkpt>
      <trkpt lat="46.18379" lon="4.56788">
        <ele>595.6</ele>
        <time>2025-09-07T08:11:35Z</time>
      </trkpt>
      <trkpt lat="46.1838" lon="4.56789">
        <ele>596</ele>
        <time>2025-09-07T08:11:36Z</time>
      </trkpt>
      <trkpt lat="46.1838" lon="4.56789">
        <ele>596.2</ele>
        <time>2025-09-07T08:11:37Z</time>
      </trkpt>
      <trkpt lat="46.1838" lon="4.5679">
        <ele>596.2</ele>
        <time>2025-09-07T08:11:38Z</time>
      </trkpt>
      <trkpt lat="46.18381" lon="4.5679">
        <ele>596.6</ele>
        <time>2025-09-07T08:11:39Z</time>
      </trkpt>
      <trkpt lat="46.18381" lon="4.5679">
        <ele>596.8</ele>
        <time>2025-09-07T08:11:40Z</time>
      </trkpt>
      <trkpt lat="46.18381" lon="4.5679">
        <ele>596.8</ele>
        <time>2025-09-07T08:11:41Z</time>
      </trkpt>
      <trkpt lat="46.18382" lon="4.56791">
        <ele>597.2</ele>
        <time>2025-09-07T08:11:42Z</time>
      </trkpt>
      <trkpt lat="46.18383" lon="4.56791">
        <ele>597.2</ele>
        <time>2025-09-07T08:11:43Z</time>
      </trkpt>
      <trkpt lat="46.18384" lon="4.56791">
        <ele>597.6</ele>
        <time>2025-09-07T08:11:44Z</time>
      </trkpt>
      <trkpt lat="46.18384" lon="4.56792">
        <ele>597.6</ele>
        <time>2025-09-07T08:11:45Z</time>
      </trkpt>
      <trkpt lat="46.18385" lon="4.56792">
        <ele>598</ele>
        <time>2025-09-07T08:11:46Z</time>
      </trkpt>
      <trkpt lat="46.18386" lon="4.56792">
        <ele>598</ele>
        <time>2025-09-07T08:11:47Z</time>
      </trkpt>
      <trkpt lat="46.18386" lon="4.56793">
        <ele>598.2</ele>
        <time>2025-09-07T08:11:48Z</time>
      </trkpt>
      <trkpt lat="46.18387" lon="4.56793">
        <ele>598.2</ele>
        <time>2025-09-07T08:11:49Z</time>
      </trkpt>
      <trkpt lat="46.18388" lon="4.56793">
        <ele>598.4</ele>
        <time>2025-09-07T08:11:50Z</time>
      </trkpt>
      <trkpt lat="46.18388" lon="4.56794">
        <ele>598.4</ele>
        <time>2025-09-07T08:11:51Z</time>
      </trkpt>
      <trkpt lat="46.18389" lon="4.56795">
        <ele>598.8</ele>
        <time>2025-09-07T08:11:52Z</time>
      </trkpt>
      <trkpt lat="46.18389" lon="4.56795">
        <ele>598.8</ele>
        <time>2025-09-07T08:11:53Z</time>
      </trkpt>
      <trkpt lat="46.18389" lon="4.56795">
        <ele>599</ele>
        <time>2025-09-07T08:11:54Z</time>
      </trkpt>
      <trkpt lat="46.1839" lon="4.56795">
        <ele>599</ele>
        <time>2025-09-07T08:11:55Z</time>
      </trkpt>
      <trkpt lat="46.1839" lon="4.56795">
        <ele>599.2</ele>
        <time>2025-09-07T08:12:02Z</time>
      </trkpt>
      <trkpt lat="46.1839" lon="4.56795">
        <ele>599.2</ele>
        <time>2025-09-07T08:12:03Z</time>
      </trkpt>
      <trkpt lat="46.18391" lon="4.56795">
        <ele>599.2</ele>
        <time>2025-09-07T08:12:04Z</time>
      </trkpt>
      <trkpt lat="46.18392" lon="4.56796">
        <ele>599.4</ele>
        <time>2025-09-07T08:12:05Z</time>
      </trkpt>
      <trkpt lat="46.18392" lon="4.56797">
        <ele>599.4</ele>
        <time>2025-09-07T08:12:06Z</time>
      </trkpt>
      <trkpt lat="46.18392" lon="4.56797">
        <ele>599.6</ele>
        <time>2025-09-07T08:12:07Z</time>
      </trkpt>
      <trkpt lat="46.18393" lon="4.56798">
        <ele>600</ele>
        <time>2025-09-07T08:12:08Z</time>
      </trkpt>
      <trkpt lat="46.18393" lon="4.56798">
        <ele>600</ele>
        <time>2025-09-07T08:12:09Z</time>
      </trkpt>
      <trkpt lat="46.18394" lon="4.56799">
        <ele>600</ele>
        <time>2025-09-07T08:12:10Z</time>
      </trkpt>
      <trkpt lat="46.18395" lon="4.56799">
        <ele>600</ele>
        <time>2025-09-07T08:12:11Z</time>
      </trkpt>
      <trkpt lat="46.18396" lon="4.568">
        <ele>600.2</ele>
        <time>2025-09-07T08:12:12Z</time>
      </trkpt>
      <trkpt lat="46.18396" lon="4.56799">
        <ele>600.2</ele>
        <time>2025-09-07T08:12:13Z</time>
      </trkpt>
      <trkpt lat="46.18396" lon="4.56799">
        <ele>600.6</ele>
        <time>2025-09-07T08:12:14Z</time>
      </trkpt>
      <trkpt lat="46.18397" lon="4.568">
        <ele>600.6</ele>
        <time>2025-09-07T08:12:15Z</time>
      </trkpt>
      <trkpt lat="46.18397" lon="4.56801">
        <ele>601</ele>
        <time>2025-09-07T08:12:16Z</time>
      </trkpt>
      <trkpt lat="46.18398" lon="4.56802">
        <ele>601.4</ele>
        <time>2025-09-07T08:12:17Z</time>
      </trkpt>
      <trkpt lat="46.18398" lon="4.56802">
        <ele>601.6</ele>
        <time>2025-09-07T08:12:18Z</time>
      </trkpt>
      <trkpt lat="46.18398" lon="4.56803">
        <ele>601.6</ele>
        <time>2025-09-07T08:12:19Z</time>
      </trkpt>
      <trkpt lat="46.18399" lon="4.56803">
        <ele>601.6</ele>
        <time>2025-09-07T08:12:20Z</time>
      </trkpt>
      <trkpt lat="46.18399" lon="4.56803">
        <ele>602</ele>
        <time>2025-09-07T08:12:21Z</time>
      </trkpt>
      <trkpt lat="46.184" lon="4.56803">
        <ele>602.2</ele>
        <time>2025-09-07T08:12:22Z</time>
      </trkpt>
      <trkpt lat="46.184" lon="4.56804">
        <ele>602.2</ele>
        <time>2025-09-07T08:12:23Z</time>
      </trkpt>
      <trkpt lat="46.18401" lon="4.56804">
        <ele>602.2</ele>
        <time>2025-09-07T08:12:24Z</time>
      </trkpt>
      <trkpt lat="46.18401" lon="4.56805">
        <ele>602.4</ele>
        <time>2025-09-07T08:12:25Z</time>
      </trkpt>
      <trkpt lat="46.18401" lon="4.56805">
        <ele>602.4</ele>
        <time>2025-09-07T08:12:26Z</time>
      </trkpt>
      <trkpt lat="46.18401" lon="4.56805">
        <ele>602.6</ele>
        <time>2025-09-07T08:12:27Z</time>
      </trkpt>
      <trkpt lat="46.18402" lon="4.56806">
        <ele>602.6</ele>
        <time>2025-09-07T08:12:28Z</time>
      </trkpt>
      <trkpt lat="46.18403" lon="4.56807">
        <ele>603.2</ele>
        <time>2025-09-07T08:12:29Z</time>
      </trkpt>
      <trkpt lat="46.18403" lon="4.56807">
        <ele>603.2</ele>
        <time>2025-09-07T08:12:30Z</time>
      </trkpt>
      <trkpt lat="46.18404" lon="4.56804">
        <ele>603.8</ele>
        <time>2025-09-07T08:12:57Z</time>
      </trkpt>
      <trkpt lat="46.18404" lon="4.56805">
        <ele>603.8</ele>
        <time>2025-09-07T08:12:58Z</time>
      </trkpt>
      <trkpt lat="46.18404" lon="4.56806">
        <ele>603.8</ele>
        <time>2025-09-07T08:12:59Z</time>
      </trkpt>
      <trkpt lat="46.18405" lon="4.56807">
        <ele>603.8</ele>
        <time>2025-09-07T08:13:00Z</time>
      </trkpt>
      <trkpt lat="46.18406" lon="4.56808">
        <ele>603.2</ele>
        <time>2025-09-07T08:13:01Z</time>
      </trkpt>
      <trkpt lat="46.18406" lon="4.56808">
        <ele>603.6</ele>
        <time>2025-09-07T08:13:02Z</time>
      </trkpt>
      <trkpt lat="46.18407" lon="4.56809">
        <ele>603.6</ele>
        <time>2025-09-07T08:13:03Z</time>
      </trkpt>
      <trkpt lat="46.18408" lon="4.5681">
        <ele>604.2</ele>
        <time>2025-09-07T08:13:04Z</time>
      </trkpt>
      <trkpt lat="46.18409" lon="4.56811">
        <ele>604.4</ele>
        <time>2025-09-07T08:13:05Z</time>
      </trkpt>
      <trkpt lat="46.1841" lon="4.56811">
        <ele>604.8</ele>
        <time>2025-09-07T08:13:06Z</time>
      </trkpt>
      <trkpt lat="46.1841" lon="4.56812">
        <ele>604.8</ele>
        <time>2025-09-07T08:13:07Z</time>
      </trkpt>
      <trkpt lat="46.18411" lon="4.56813">
        <ele>604.8</ele>
        <time>2025-09-07T08:13:08Z</time>
      </trkpt>
      <trkpt lat="46.18411" lon="4.56813">
        <ele>604.8</ele>
        <time>2025-09-07T08:13:09Z</time>
      </trkpt>
      <trkpt lat="46.18412" lon="4.56814">
        <ele>605.4</ele>
        <time>2025-09-07T08:13:10Z</time>
      </trkpt>
      <trkpt lat="46.18413" lon="4.56815">
        <ele>605.6</ele>
        <time>2025-09-07T08:13:11Z</time>
      </trkpt>
      <trkpt lat="46.18413" lon="4.56816">
        <ele>605.6</ele>
        <time>2025-09-07T08:13:12Z</time>
      </trkpt>
      <trkpt lat="46.18414" lon="4.56817">
        <ele>605.8</ele>
        <time>2025-09-07T08:13:13Z</time>
      </trkpt>
      <trkpt lat="46.18413" lon="4.56817">
        <ele>606</ele>
        <time>2025-09-07T08:13:14Z</time>
      </trkpt>
      <trkpt lat="46.18414" lon="4.56819">
        <ele>606.2</ele>
        <time>2025-09-07T08:13:15Z</time>
      </trkpt>
      <trkpt lat="46.18415" lon="4.5682">
        <ele>606.6</ele>
        <time>2025-09-07T08:13:16Z</time>
      </trkpt>
      <trkpt lat="46.18416" lon="4.56821">
        <ele>606.6</ele>
        <time>2025-09-07T08:13:17Z</time>
      </trkpt>
      <trkpt lat="46.18416" lon="4.56821">
        <ele>606.6</ele>
        <time>2025-09-07T08:13:18Z</time>
      </trkpt>
      <trkpt lat="46.18417" lon="4.56821">
        <ele>607</ele>
        <time>2025-09-07T08:13:19Z</time>
      </trkpt>
      <trkpt lat="46.18417" lon="4.56822">
        <ele>607</ele>
        <time>2025-09-07T08:13:20Z</time>
      </trkpt>
      <trkpt lat="46.18418" lon="4.56823">
        <ele>607.2</ele>
        <time>2025-09-07T08:13:21Z</time>
      </trkpt>
      <trkpt lat="46.18418" lon="4.56824">
        <ele>607.2</ele>
        <time>2025-09-07T08:13:22Z</time>
      </trkpt>
      <trkpt lat="46.18419" lon="4.56825">
        <ele>607.4</ele>
        <time>2025-09-07T08:13:23Z</time>
      </trkpt>
      <trkpt lat="46.1842" lon="4.56825">
        <ele>607.4</ele>
        <time>2025-09-07T08:13:24Z</time>
      </trkpt>
      <trkpt lat="46.1842" lon="4.56826">
        <ele>607.6</ele>
        <time>2025-09-07T08:13:25Z</time>
      </trkpt>
      <trkpt lat="46.18421" lon="4.56826">
        <ele>607.8</ele>
        <time>2025-09-07T08:13:26Z</time>
      </trkpt>
      <trkpt lat="46.18421" lon="4.56826">
        <ele>608.2</ele>
        <time>2025-09-07T08:13:27Z</time>
      </trkpt>
      <trkpt lat="46.18421" lon="4.56826">
        <ele>608.2</ele>
        <time>2025-09-07T08:13:28Z</time>
      </trkpt>
      <trkpt lat="46.18421" lon="4.56827">
        <ele>608.4</ele>
        <time>2025-09-07T08:13:29Z</time>
      </trkpt>
      <trkpt lat="46.18421" lon="4.56827">
        <ele>608.4</ele>
        <time>2025-09-07T08:13:30Z</time>
      </trkpt>
      <trkpt lat="46.18422" lon="4.56828">
        <ele>608.6</ele>
        <time>2025-09-07T08:13:31Z</time>
      </trkpt>
      <trkpt lat="46.18423" lon="4.56828">
        <ele>608.6</ele>
        <time>2025-09-07T08:13:32Z</time>
      </trkpt>
      <trkpt lat="46.18423" lon="4.56829">
        <ele>608.6</ele>
        <time>2025-09-07T08:13:33Z</time>
      </trkpt>
      <trkpt lat="46.18424" lon="4.5683">
        <ele>608.6</ele>
        <time>2025-09-07T08:13:34Z</time>
      </trkpt>
      <trkpt lat="46.18424" lon="4.56831">
        <ele>608.6</ele>
        <time>2025-09-07T08:13:35Z</time>
      </trkpt>
      <trkpt lat="46.18425" lon="4.56832">
        <ele>609</ele>
        <time>2025-09-07T08:13:36Z</time>
      </trkpt>
      <trkpt lat="46.18425" lon="4.56833">
        <ele>609.6</ele>
        <time>2025-09-07T08:13:37Z</time>
      </trkpt>
      <trkpt lat="46.18426" lon="4.56833">
        <ele>609.8</ele>
        <time>2025-09-07T08:13:38Z</time>
      </trkpt>
      <trkpt lat="46.18427" lon="4.56833">
        <ele>610</ele>
        <time>2025-09-07T08:13:39Z</time>
      </trkpt>
      <trkpt lat="46.18427" lon="4.56833">
        <ele>610.2</ele>
        <time>2025-09-07T08:13:40Z</time>
      </trkpt>
      <trkpt lat="46.18428" lon="4.56833">
        <ele>610.6</ele>
        <time>2025-09-07T08:13:41Z</time>
      </trkpt>
      <trkpt lat="46.18428" lon="4.56833">
        <ele>610.6</ele>
        <time>2025-09-07T08:13:42Z</time>
      </trkpt>
      <trkpt lat="46.18429" lon="4.56833">
        <ele>610.6</ele>
        <time>2025-09-07T08:13:43Z</time>
      </trkpt>
      <trkpt lat="46.18429" lon="4.56833">
        <ele>611</ele>
        <time>2025-09-07T08:13:44Z</time>
      </trkpt>
      <trkpt lat="46.1843" lon="4.56833">
        <ele>611</ele>
        <time>2025-09-07T08:13:45Z</time>
      </trkpt>
      <trkpt lat="46.1843" lon="4.56833">
        <ele>611.2</ele>
        <time>2025-09-07T08:13:46Z</time>
      </trkpt>
      <trkpt lat="46.18431" lon="4.56834">
        <ele>611.2</ele>
        <time>2025-09-07T08:13:47Z</time>
      </trkpt>
      <trkpt lat="46.18431" lon="4.56834">
        <ele>611.6</ele>
        <time>2025-09-07T08:13:48Z</time>
      </trkpt>
      <trkpt lat="46.18431" lon="4.56835">
        <ele>611.8</ele>
        <time>2025-09-07T08:13:49Z</time>
      </trkpt>
      <trkpt lat="46.18432" lon="4.56836">
        <ele>611.8</ele>
        <time>2025-09-07T08:13:50Z</time>
      </trkpt>
      <trkpt lat="46.18433" lon="4.56836">
        <ele>611.8</ele>
        <time>2025-09-07T08:13:51Z</time>
      </trkpt>
      <trkpt lat="46.18433" lon="4.56837">
        <ele>611.8</ele>
        <time>2025-09-07T08:13:52Z</time>
      </trkpt>
      <trkpt lat="46.18434" lon="4.56837">
        <ele>612</ele>
        <time>2025-09-07T08:13:53Z</time>
      </trkpt>
      <trkpt lat="46.18435" lon="4.56837">
        <ele>612</ele>
        <time>2025-09-07T08:13:54Z</time>
      </trkpt>
      <trkpt lat="46.18436" lon="4.56838">
        <ele>612.4</ele>
        <time>2025-09-07T08:13:55Z</time>
      </trkpt>
      <trkpt lat="46.18437" lon="4.56838">
        <ele>612.4</ele>
        <time>2025-09-07T08:13:56Z</time>
      </trkpt>
      <trkpt lat="46.18438" lon="4.56838">
        <ele>612.4</ele>
        <time>2025-09-07T08:13:57Z</time>
      </trkpt>
      <trkpt lat="46.18439" lon="4.56839">
        <ele>612.4</ele>
        <time>2025-09-07T08:13:58Z</time>
      </trkpt>
      <trkpt lat="46.18439" lon="4.56839">
        <ele>612.8</ele>
        <time>2025-09-07T08:13:59Z</time>
      </trkpt>
      <trkpt lat="46.18439" lon="4.56839">
        <ele>613</ele>
        <time>2025-09-07T08:14:00Z</time>
      </trkpt>
      <trkpt lat="46.1844" lon="4.5684">
        <ele>613</ele>
        <time>2025-09-07T08:14:01Z</time>
      </trkpt>
      <trkpt lat="46.1844" lon="4.5684">
        <ele>613.2</ele>
        <time>2025-09-07T08:14:02Z</time>
      </trkpt>
      <trkpt lat="46.18441" lon="4.56841">
        <ele>613.2</ele>
        <time>2025-09-07T08:14:03Z</time>
      </trkpt>
      <trkpt lat="46.18442" lon="4.56842">
        <ele>613.4</ele>
        <time>2025-09-07T08:14:04Z</time>
      </trkpt>
      <trkpt lat="46.18443" lon="4.56842">
        <ele>613.4</ele>
        <time>2025-09-07T08:14:05Z</time>
      </trkpt>
      <trkpt lat="46.18444" lon="4.56843">
        <ele>613.2</ele>
        <time>2025-09-07T08:14:06Z</time>
      </trkpt>
      <trkpt lat="46.18445" lon="4.56844">
        <ele>613.6</ele>
        <time>2025-09-07T08:14:07Z</time>
      </trkpt>
      <trkpt lat="46.18445" lon="4.56844">
        <ele>614</ele>
        <time>2025-09-07T08:14:08Z</time>
      </trkpt>
      <trkpt lat="46.18446" lon="4.56845">
        <ele>614</ele>
        <time>2025-09-07T08:14:09Z</time>
      </trkpt>
      <trkpt lat="46.18447" lon="4.56846">
        <ele>614.2</ele>
        <time>2025-09-07T08:14:10Z</time>
      </trkpt>
      <trkpt lat="46.18447" lon="4.56847">
        <ele>614.2</ele>
        <time>2025-09-07T08:14:11Z</time>
      </trkpt>
      <trkpt lat="46.18448" lon="4.56848">
        <ele>614.6</ele>
        <time>2025-09-07T08:14:12Z</time>
      </trkpt>
      <trkpt lat="46.18448" lon="4.56849">
        <ele>614.6</ele>
        <time>2025-09-07T08:14:13Z</time>
      </trkpt>
      <trkpt lat="46.18449" lon="4.5685">
        <ele>614.8</ele>
        <time>2025-09-07T08:14:14Z</time>
      </trkpt>
      <trkpt lat="46.18449" lon="4.5685">
        <ele>614.8</ele>
        <time>2025-09-07T08:14:15Z</time>
      </trkpt>
      <trkpt lat="46.1845" lon="4.5685">
        <ele>615.2</ele>
        <time>2025-09-07T08:14:16Z</time>
      </trkpt>
      <trkpt lat="46.1845" lon="4.56851">
        <ele>615.2</ele>
        <time>2025-09-07T08:14:17Z</time>
      </trkpt>
      <trkpt lat="46.18451" lon="4.56851">
        <ele>615.4</ele>
        <time>2025-09-07T08:14:18Z</time>
      </trkpt>
      <trkpt lat="46.18451" lon="4.56852">
        <ele>615.4</ele>
        <time>2025-09-07T08:14:19Z</time>
      </trkpt>
      <trkpt lat="46.18451" lon="4.56852">
        <ele>615.4</ele>
        <time>2025-09-07T08:14:20Z</time>
      </trkpt>
      <trkpt lat="46.18451" lon="4.56853">
        <ele>615.8</ele>
        <time>2025-09-07T08:14:21Z</time>
      </trkpt>
      <trkpt lat="46.18452" lon="4.56854">
        <ele>615.8</ele>
        <time>2025-09-07T08:14:22Z</time>
      </trkpt>
      <trkpt lat="46.18452" lon="4.56855">
        <ele>616</ele>
        <time>2025-09-07T08:14:23Z</time>
      </trkpt>
      <trkpt lat="46.18453" lon="4.56856">
        <ele>616</ele>
        <time>2025-09-07T08:14:24Z</time>
      </trkpt>
      <trkpt lat="46.18453" lon="4.56856">
        <ele>616.2</ele>
        <time>2025-09-07T08:14:25Z</time>
      </trkpt>
      <trkpt lat="46.18453" lon="4.56857">
        <ele>616.2</ele>
        <time>2025-09-07T08:14:26Z</time>
      </trkpt>
      <trkpt lat="46.18454" lon="4.56857">
        <ele>616.4</ele>
        <time>2025-09-07T08:14:27Z</time>
      </trkpt>
      <trkpt lat="46.18454" lon="4.56858">
        <ele>616.4</ele>
        <time>2025-09-07T08:14:28Z</time>
      </trkpt>
      <trkpt lat="46.18455" lon="4.56859">
        <ele>616.4</ele>
        <time>2025-09-07T08:14:29Z</time>
      </trkpt>
      <trkpt lat="46.18456" lon="4.5686">
        <ele>616.8</ele>
        <time>2025-09-07T08:14:30Z</time>
      </trkpt>
      <trkpt lat="46.18456" lon="4.56861">
        <ele>617</ele>
        <time>2025-09-07T08:14:31Z</time>
      </trkpt>
      <trkpt lat="46.18457" lon="4.56863">
        <ele>617</ele>
        <time>2025-09-07T08:14:32Z</time>
      </trkpt>
      <trkpt lat="46.18458" lon="4.56864">
        <ele>617.4</ele>
        <time>2025-09-07T08:14:33Z</time>
      </trkpt>
      <trkpt lat="46.18459" lon="4.56864">
        <ele>617.6</ele>
        <time>2025-09-07T08:14:34Z</time>
      </trkpt>
      <trkpt lat="46.18459" lon="4.56865">
        <ele>617.6</ele>
        <time>2025-09-07T08:14:35Z</time>
      </trkpt>
      <trkpt lat="46.1846" lon="4.56865">
        <ele>617.6</ele>
        <time>2025-09-07T08:14:36Z</time>
      </trkpt>
      <trkpt lat="46.1846" lon="4.56865">
        <ele>617.8</ele>
        <time>2025-09-07T08:14:37Z</time>
      </trkpt>
      <trkpt lat="46.18459" lon="4.56864">
        <ele>617.4</ele>
        <time>2025-09-07T08:15:03Z</time>
      </trkpt>
      <trkpt lat="46.18459" lon="4.56864">
        <ele>617.2</ele>
        <time>2025-09-07T08:15:04Z</time>
      </trkpt>
      <trkpt lat="46.1846" lon="4.56865">
        <ele>617.2</ele>
        <time>2025-09-07T08:15:05Z</time>
      </trkpt>
      <trkpt lat="46.18461" lon="4.56867">
        <ele>617.6</ele>
        <time>2025-09-07T08:15:06Z</time>
      </trkpt>
      <trkpt lat="46.18463" lon="4.56868">
        <ele>617.6</ele>
        <time>2025-09-07T08:15:07Z</time>
      </trkpt>
      <trkpt lat="46.18464" lon="4.56869">
        <ele>618</ele>
        <time>2025-09-07T08:15:08Z</time>
      </trkpt>
      <trkpt lat="46.18465" lon="4.56869">
        <ele>618.2</ele>
        <time>2025-09-07T08:15:09Z</time>
      </trkpt>
      <trkpt lat="46.18466" lon="4.5687">
        <ele>618.6</ele>
        <time>2025-09-07T08:15:10Z</time>
      </trkpt>
      <trkpt lat="46.18466" lon="4.56871">
        <ele>618.6</ele>
        <time>2025-09-07T08:15:11Z</time>
      </trkpt>
      <trkpt lat="46.18467" lon="4.56871">
        <ele>618.8</ele>
        <time>2025-09-07T08:15:12Z</time>
      </trkpt>
      <trkpt lat="46.18468" lon="4.56872">
        <ele>618.8</ele>
        <time>2025-09-07T08:15:13Z</time>
      </trkpt>
      <trkpt lat="46.18469" lon="4.56873">
        <ele>618.8</ele>
        <time>2025-09-07T08:15:14Z</time>
      </trkpt>
      <trkpt lat="46.18469" lon="4.56873">
        <ele>618.8</ele>
        <time>2025-09-07T08:15:15Z</time>
      </trkpt>
      <trkpt lat="46.1847" lon="4.56873">
        <ele>618.8</ele>
        <time>2025-09-07T08:15:16Z</time>
      </trkpt>
      <trkpt lat="46.18471" lon="4.56873">
        <ele>619</ele>
        <time>2025-09-07T08:15:17Z</time>
      </trkpt>
      <trkpt lat="46.18471" lon="4.56874">
        <ele>619</ele>
        <time>2025-09-07T08:15:18Z</time>
      </trkpt>
      <trkpt lat="46.18472" lon="4.56876">
        <ele>619.4</ele>
        <time>2025-09-07T08:15:19Z</time>
      </trkpt>
      <trkpt lat="46.18473" lon="4.56877">
        <ele>619.4</ele>
        <time>2025-09-07T08:15:20Z</time>
      </trkpt>
      <trkpt lat="46.18473" lon="4.56878">
        <ele>620</ele>
        <time>2025-09-07T08:15:21Z</time>
      </trkpt>
      <trkpt lat="46.18474" lon="4.56879">
        <ele>620</ele>
        <time>2025-09-07T08:15:22Z</time>
      </trkpt>
      <trkpt lat="46.18474" lon="4.56879">
        <ele>620</ele>
        <time>2025-09-07T08:15:23Z</time>
      </trkpt>
      <trkpt lat="46.18474" lon="4.5688">
        <ele>620.2</ele>
        <time>2025-09-07T08:15:24Z</time>
      </trkpt>
      <trkpt lat="46.18475" lon="4.56881">
        <ele>620.2</ele>
        <time>2025-09-07T08:15:25Z</time>
      </trkpt>
      <trkpt lat="46.18475" lon="4.56883">
        <ele>620.2</ele>
        <time>2025-09-07T08:15:26Z</time>
      </trkpt>
      <trkpt lat="46.18475" lon="4.56883">
        <ele>620</ele>
        <time>2025-09-07T08:15:27Z</time>
      </trkpt>
      <trkpt lat="46.18476" lon="4.56884">
        <ele>620.4</ele>
        <time>2025-09-07T08:15:28Z</time>
      </trkpt>
      <trkpt lat="46.18477" lon="4.56885">
        <ele>620.4</ele>
        <time>2025-09-07T08:15:29Z</time>
      </trkpt>
      <trkpt lat="46.18477" lon="4.56885">
        <ele>620.4</ele>
        <time>2025-09-07T08:15:30Z</time>
      </trkpt>
      <trkpt lat="46.18477" lon="4.56885">
        <ele>620.8</ele>
        <time>2025-09-07T08:15:31Z</time>
      </trkpt>
      <trkpt lat="46.18477" lon="4.56886">
        <ele>621</ele>
        <time>2025-09-07T08:15:32Z</time>
      </trkpt>
      <trkpt lat="46.18478" lon="4.56887">
        <ele>621</ele>
        <time>2025-09-07T08:15:33Z</time>
      </trkpt>
      <trkpt lat="46.18478" lon="4.56887">
        <ele>621.2</ele>
        <time>2025-09-07T08:15:34Z</time>
      </trkpt>
      <trkpt lat="46.18477" lon="4.56886">
        <ele>621.2</ele>
        <time>2025-09-07T08:15:35Z</time>
      </trkpt>
      <trkpt lat="46.18476" lon="4.56887">
        <ele>621.6</ele>
        <time>2025-09-07T08:15:42Z</time>
      </trkpt>
      <trkpt lat="46.18476" lon="4.56888">
        <ele>621.6</ele>
        <time>2025-09-07T08:15:43Z</time>
      </trkpt>
      <trkpt lat="46.18476" lon="4.56888">
        <ele>621.6</ele>
        <time>2025-09-07T08:15:44Z</time>
      </trkpt>
      <trkpt lat="46.18475" lon="4.56891">
        <ele>622.2</ele>
        <time>2025-09-07T08:15:51Z</time>
      </trkpt>
      <trkpt lat="46.18475" lon="4.56892">
        <ele>622.2</ele>
        <time>2025-09-07T08:15:52Z</time>
      </trkpt>
      <trkpt lat="46.18474" lon="4.56894">
        <ele>622.2</ele>
        <time>2025-09-07T08:15:53Z</time>
      </trkpt>
      <trkpt lat="46.18474" lon="4.56895">
        <ele>622.2</ele>
        <time>2025-09-07T08:15:54Z</time>
      </trkpt>
      <trkpt lat="46.18473" lon="4.56896">
        <ele>622.4</ele>
        <time>2025-09-07T08:15:55Z</time>
      </trkpt>
      <trkpt lat="46.18473" lon="4.56898">
        <ele>622.4</ele>
        <time>2025-09-07T08:15:56Z</time>
      </trkpt>
      <trkpt lat="46.18473" lon="4.56899">
        <ele>622.2</ele>
        <time>2025-09-07T08:15:57Z</time>
      </trkpt>
      <trkpt lat="46.18472" lon="4.569">
        <ele>622.2</ele>
        <time>2025-09-07T08:15:58Z</time>
      </trkpt>
      <trkpt lat="46.18472" lon="4.56902">
        <ele>622.6</ele>
        <time>2025-09-07T08:15:59Z</time>
      </trkpt>
      <trkpt lat="46.18472" lon="4.56904">
        <ele>622.6</ele>
        <time>2025-09-07T08:16:00Z</time>
      </trkpt>
      <trkpt lat="46.18472" lon="4.56906">
        <ele>623</ele>
        <time>2025-09-07T08:16:01Z</time>
      </trkpt>
      <trkpt lat="46.18473" lon="4.56908">
        <ele>623.4</ele>
        <time>2025-09-07T08:16:02Z</time>
      </trkpt>
      <trkpt lat="46.18474" lon="4.56909">
        <ele>623.4</ele>
        <time>2025-09-07T08:16:03Z</time>
      </trkpt>
      <trkpt lat="46.18474" lon="4.56911">
        <ele>623.4</ele>
        <time>2025-09-07T08:16:04Z</time>
      </trkpt>
      <trkpt lat="46.18475" lon="4.56912">
        <ele>623.4</ele>
        <time>2025-09-07T08:16:05Z</time>
      </trkpt>
      <trkpt lat="46.18476" lon="4.56914">
        <ele>623.4</ele>
        <time>2025-09-07T08:16:06Z</time>
      </trkpt>
      <trkpt lat="46.18476" lon="4.56916">
        <ele>623.8</ele>
        <time>2025-09-07T08:16:07Z</time>
      </trkpt>
      <trkpt lat="46.18477" lon="4.56917">
        <ele>624.2</ele>
        <time>2025-09-07T08:16:08Z</time>
      </trkpt>
      <trkpt lat="46.18477" lon="4.56918">
        <ele>624.2</ele>
        <time>2025-09-07T08:16:09Z</time>
      </trkpt>
      <trkpt lat="46.18477" lon="4.5692">
        <ele>624.6</ele>
        <time>2025-09-07T08:16:10Z</time>
      </trkpt>
      <trkpt lat="46.18477" lon="4.56921">
        <ele>624.6</ele>
        <time>2025-09-07T08:16:11Z</time>
      </trkpt>
      <trkpt lat="46.18478" lon="4.56923">
        <ele>624.6</ele>
        <time>2025-09-07T08:16:12Z</time>
      </trkpt>
      <trkpt lat="46.18478" lon="4.56925">
        <ele>625</ele>
        <time>2025-09-07T08:16:13Z</time>
      </trkpt>
      <trkpt lat="46.18479" lon="4.56926">
        <ele>625</ele>
        <time>2025-09-07T08:16:14Z</time>
      </trkpt>
      <trkpt lat="46.18479" lon="4.56928">
        <ele>625</ele>
        <time>2025-09-07T08:16:15Z</time>
      </trkpt>
      <trkpt lat="46.1848" lon="4.56929">
        <ele>625</ele>
        <time>2025-09-07T08:16:16Z</time>
      </trkpt>
      <trkpt lat="46.1848" lon="4.5693">
        <ele>625.4</ele>
        <time>2025-09-07T08:16:17Z</time>
      </trkpt>
      <trkpt lat="46.18481" lon="4.56931">
        <ele>625.4</ele>
        <time>2025-09-07T08:16:18Z</time>
      </trkpt>
      <trkpt lat="46.18482" lon="4.56933">
        <ele>625.8</ele>
        <time>2025-09-07T08:16:19Z</time>
      </trkpt>
      <trkpt lat="46.18483" lon="4.56935">
        <ele>625.6</ele>
        <time>2025-09-07T08:16:20Z</time>
      </trkpt>
      <trkpt lat="46.18484" lon="4.56936">
        <ele>625.8</ele>
        <time>2025-09-07T08:16:21Z</time>
      </trkpt>
      <trkpt lat="46.18484" lon="4.56936">
        <ele>625.8</ele>
        <time>2025-09-07T08:16:22Z</time>
      </trkpt>
      <trkpt lat="46.18485" lon="4.56937">
        <ele>625.8</ele>
        <time>2025-09-07T08:16:23Z</time>
      </trkpt>
      <trkpt lat="46.18486" lon="4.56937">
        <ele>625.8</ele>
        <time>2025-09-07T08:16:24Z</time>
      </trkpt>
      <trkpt lat="46.18486" lon="4.56938">
        <ele>626.4</ele>
        <time>2025-09-07T08:16:25Z</time>
      </trkpt>
      <trkpt lat="46.18486" lon="4.56938">
        <ele>626.4</ele>
        <time>2025-09-07T08:16:26Z</time>
      </trkpt>
      <trkpt lat="46.18487" lon="4.56939">
        <ele>626.4</ele>
        <time>2025-09-07T08:16:27Z</time>
      </trkpt>
      <trkpt lat="46.18488" lon="4.56939">
        <ele>626.4</ele>
        <time>2025-09-07T08:16:28Z</time>
      </trkpt>
      <trkpt lat="46.18488" lon="4.5694">
        <ele>626.8</ele>
        <time>2025-09-07T08:16:29Z</time>
      </trkpt>
      <trkpt lat="46.18489" lon="4.5694">
        <ele>626.8</ele>
        <time>2025-09-07T08:16:30Z</time>
      </trkpt>
      <trkpt lat="46.18489" lon="4.5694">
        <ele>627</ele>
        <time>2025-09-07T08:16:31Z</time>
      </trkpt>
      <trkpt lat="46.18489" lon="4.56941">
        <ele>627</ele>
        <time>2025-09-07T08:16:32Z</time>
      </trkpt>
      <trkpt lat="46.1849" lon="4.56941">
        <ele>627</ele>
        <time>2025-09-07T08:16:33Z</time>
      </trkpt>
      <trkpt lat="46.18492" lon="4.56941">
        <ele>627</ele>
        <time>2025-09-07T08:16:44Z</time>
      </trkpt>
      <trkpt lat="46.18493" lon="4.56941">
        <ele>627.4</ele>
        <time>2025-09-07T08:16:45Z</time>
      </trkpt>
      <trkpt lat="46.18494" lon="4.5694">
        <ele>627.4</ele>
        <time>2025-09-07T08:16:46Z</time>
      </trkpt>
      <trkpt lat="46.18494" lon="4.5694">
        <ele>627.4</ele>
        <time>2025-09-07T08:16:47Z</time>
      </trkpt>
      <trkpt lat="46.18495" lon="4.5694">
        <ele>627.6</ele>
        <time>2025-09-07T08:16:48Z</time>
      </trkpt>
      <trkpt lat="46.18496" lon="4.5694">
        <ele>628</ele>
        <time>2025-09-07T08:16:49Z</time>
      </trkpt>
      <trkpt lat="46.18497" lon="4.5694">
        <ele>628</ele>
        <time>2025-09-07T08:16:50Z</time>
      </trkpt>
      <trkpt lat="46.18498" lon="4.56939">
        <ele>628</ele>
        <time>2025-09-07T08:16:51Z</time>
      </trkpt>
      <trkpt lat="46.18499" lon="4.56939">
        <ele>628</ele>
        <time>2025-09-07T08:16:52Z</time>
      </trkpt>
      <trkpt lat="46.185" lon="4.56938">
        <ele>628</ele>
        <time>2025-09-07T08:16:53Z</time>
      </trkpt>
      <trkpt lat="46.18501" lon="4.56938">
        <ele>628</ele>
        <time>2025-09-07T08:16:54Z</time>
      </trkpt>
      <trkpt lat="46.18501" lon="4.56937">
        <ele>628</ele>
        <time>2025-09-07T08:16:55Z</time>
      </trkpt>
      <trkpt lat="46.18502" lon="4.56937">
        <ele>628</ele>
        <time>2025-09-07T08:16:56Z</time>
      </trkpt>
      <trkpt lat="46.18503" lon="4.56936">
        <ele>628</ele>
        <time>2025-09-07T08:16:57Z</time>
      </trkpt>
      <trkpt lat="46.18504" lon="4.56936">
        <ele>628.2</ele>
        <time>2025-09-07T08:16:58Z</time>
      </trkpt>
      <trkpt lat="46.18504" lon="4.56935">
        <ele>628.2</ele>
        <time>2025-09-07T08:16:59Z</time>
      </trkpt>
      <trkpt lat="46.18505" lon="4.56934">
        <ele>628.2</ele>
        <time>2025-09-07T08:17:00Z</time>
      </trkpt>
      <trkpt lat="46.18506" lon="4.56933">
        <ele>628.2</ele>
        <time>2025-09-07T08:17:01Z</time>
      </trkpt>
      <trkpt lat="46.18506" lon="4.56932">
        <ele>628.2</ele>
        <time>2025-09-07T08:17:02Z</time>
      </trkpt>
      <trkpt lat="46.18506" lon="4.56932">
        <ele>628.2</ele>
        <time>2025-09-07T08:17:03Z</time>
      </trkpt>
      <trkpt lat="46.18505" lon="4.56933">
        <ele>628.2</ele>
        <time>2025-09-07T08:17:04Z</time>
      </trkpt>
      <trkpt lat="46.18505" lon="4.56935">
        <ele>628.6</ele>
        <time>2025-09-07T08:17:13Z</time>
      </trkpt>
      <trkpt lat="46.18505" lon="4.56936">
        <ele>628.6</ele>
        <time>2025-09-07T08:17:14Z</time>
      </trkpt>
      <trkpt lat="46.18505" lon="4.56937">
        <ele>628.6</ele>
        <time>2025-09-07T08:17:15Z</time>
      </trkpt>
      <trkpt lat="46.18505" lon="4.56937">
        <ele>628.6</ele>
        <time>2025-09-07T08:17:16Z</time>
      </trkpt>
      <trkpt lat="46.18505" lon="4.56938">
        <ele>628.2</ele>
        <time>2025-09-07T08:17:17Z</time>
      </trkpt>
      <trkpt lat="46.18505" lon="4.5694">
        <ele>628.4</ele>
        <time>2025-09-07T08:17:18Z</time>
      </trkpt>
      <trkpt lat="46.18506" lon="4.56941">
        <ele>628.4</ele>
        <time>2025-09-07T08:17:19Z</time>
      </trkpt>
      <trkpt lat="46.18506" lon="4.56941">
        <ele>628.4</ele>
        <time>2025-09-07T08:17:20Z</time>
      </trkpt>
      <trkpt lat="46.18506" lon="4.56943">
        <ele>628.4</ele>
        <time>2025-09-07T08:17:21Z</time>
      </trkpt>
      <trkpt lat="46.18506" lon="4.56944">
        <ele>628.4</ele>
        <time>2025-09-07T08:17:22Z</time>
      </trkpt>
      <trkpt lat="46.18507" lon="4.56945">
        <ele>628.8</ele>
        <time>2025-09-07T08:17:23Z</time>
      </trkpt>
      <trkpt lat="46.18507" lon="4.56947">
        <ele>628.8</ele>
        <time>2025-09-07T08:17:24Z</time>
      </trkpt>
      <trkpt lat="46.18508" lon="4.56948">
        <ele>628.8</ele>
        <time>2025-09-07T08:17:25Z</time>
      </trkpt>
      <trkpt lat="46.18508" lon="4.5695">
        <ele>628.8</ele>
        <time>2025-09-07T08:17:26Z</time>
      </trkpt>
      <trkpt lat="46.18508" lon="4.56951">
        <ele>628.8</ele>
        <time>2025-09-07T08:17:27Z</time>
      </trkpt>
      <trkpt lat="46.18508" lon="4.56952">
        <ele>628.8</ele>
        <time>2025-09-07T08:17:28Z</time>
      </trkpt>
      <trkpt lat="46.18509" lon="4.56953">
        <ele>628.8</ele>
        <time>2025-09-07T08:17:29Z</time>
      </trkpt>
      <trkpt lat="46.18509" lon="4.56954">
        <ele>629</ele>
        <time>2025-09-07T08:17:30Z</time>
      </trkpt>
      <trkpt lat="46.18509" lon="4.56955">
        <ele>629</ele>
        <time>2025-09-07T08:17:31Z</time>
      </trkpt>
      <trkpt lat="46.1851" lon="4.56956">
        <ele>629.2</ele>
        <time>2025-09-07T08:17:32Z</time>
      </trkpt>
      <trkpt lat="46.1851" lon="4.56957">
        <ele>629.4</ele>
        <time>2025-09-07T08:17:33Z</time>
      </trkpt>
      <trkpt lat="46.18511" lon="4.56958">
        <ele>629.4</ele>
        <time>2025-09-07T08:17:34Z</time>
      </trkpt>
      <trkpt lat="46.18511" lon="4.56958">
        <ele>629.4</ele>
        <time>2025-09-07T08:17:35Z</time>
      </trkpt>
      <trkpt lat="46.18512" lon="4.56959">
        <ele>629.8</ele>
        <time>2025-09-07T08:17:36Z</time>
      </trkpt>
      <trkpt lat="46.18512" lon="4.5696">
        <ele>629.8</ele>
        <time>2025-09-07T08:17:37Z</time>
      </trkpt>
      <trkpt lat="46.18512" lon="4.56961">
        <ele>629.8</ele>
        <time>2025-09-07T08:17:38Z</time>
      </trkpt>
      <trkpt lat="46.18512" lon="4.56963">
        <ele>630</ele>
        <time>2025-09-07T08:17:46Z</time>
      </trkpt>
      <trkpt lat="46.18512" lon="4.56965">
        <ele>629.8</ele>
        <time>2025-09-07T08:17:47Z</time>
      </trkpt>
      <trkpt lat="46.18512" lon="4.56967">
        <ele>630.2</ele>
        <time>2025-09-07T08:17:48Z</time>
      </trkpt>
      <trkpt lat="46.18512" lon="4.56969">
        <ele>630.2</ele>
        <time>2025-09-07T08:17:49Z</time>
      </trkpt>
      <trkpt lat="46.18512" lon="4.56971">
        <ele>630</ele>
        <time>2025-09-07T08:17:50Z</time>
      </trkpt>
      <trkpt lat="46.18512" lon="4.56972">
        <ele>630</ele>
        <time>2025-09-07T08:17:51Z</time>
      </trkpt>
      <trkpt lat="46.18512" lon="4.56973">
        <ele>630</ele>
        <time>2025-09-07T08:17:52Z</time>
      </trkpt>
      <trkpt lat="46.18512" lon="4.56974">
        <ele>630.4</ele>
        <time>2025-09-07T08:17:53Z</time>
      </trkpt>
      <trkpt lat="46.18512" lon="4.56975">
        <ele>630.4</ele>
        <time>2025-09-07T08:17:54Z</time>
      </trkpt>
      <trkpt lat="46.18512" lon="4.56975">
        <ele>630.4</ele>
        <time>2025-09-07T08:17:55Z</time>
      </trkpt>
      <trkpt lat="46.18513" lon="4.56976">
        <ele>630.6</ele>
        <time>2025-09-07T08:17:56Z</time>
      </trkpt>
      <trkpt lat="46.18513" lon="4.56976">
        <ele>630.6</ele>
        <time>2025-09-07T08:17:57Z</time>
      </trkpt>
      <trkpt lat="46.18513" lon="4.56977">
        <ele>630.6</ele>
        <time>2025-09-07T08:17:58Z</time>
      </trkpt>
      <trkpt lat="46.18514" lon="4.56977">
        <ele>630.6</ele>
        <time>2025-09-07T08:17:59Z</time>
      </trkpt>
      <trkpt lat="46.18514" lon="4.56977">
        <ele>630.6</ele>
        <time>2025-09-07T08:18:00Z</time>
      </trkpt>
      <trkpt lat="46.18516" lon="4.56976">
        <ele>630.2</ele>
        <time>2025-09-07T08:20:00Z</time>
      </trkpt>
      <trkpt lat="46.18516" lon="4.56976">
        <ele>630.2</ele>
        <time>2025-09-07T08:20:01Z</time>
      </trkpt>
      <trkpt lat="46.18516" lon="4.56976">
        <ele>630.2</ele>
        <time>2025-09-07T08:20:02Z</time>
      </trkpt>
      <trkpt lat="46.18516" lon="4.56976">
        <ele>629.8</ele>
        <time>2025-09-07T08:20:03Z</time>
      </trkpt>
      <trkpt lat="46.18521" lon="4.56977">
        <ele>629.8</ele>
        <time>2025-09-07T08:20:05Z</time>
      </trkpt>
      <trkpt lat="46.18521" lon="4.56977">
        <ele>629.8</ele>
        <time>2025-09-07T08:20:06Z</time>
      </trkpt>
      <trkpt lat="46.18522" lon="4.56978">
        <ele>629.8</ele>
        <time>2025-09-07T08:20:07Z</time>
      </trkpt>
      <trkpt lat="46.18522" lon="4.56979">
        <ele>629.8</ele>
        <time>2025-09-07T08:20:08Z</time>
      </trkpt>
      <trkpt lat="46.18523" lon="4.5698">
        <ele>630.2</ele>
        <time>2025-09-07T08:20:20Z</time>
      </trkpt>
      <trkpt lat="46.18525" lon="4.56982">
        <ele>630.4</ele>
        <time>2025-09-07T08:20:21Z</time>
      </trkpt>
      <trkpt lat="46.18525" lon="4.56983">
        <ele>630.2</ele>
        <time>2025-09-07T08:20:22Z</time>
      </trkpt>
      <trkpt lat="46.18526" lon="4.56984">
        <ele>630.2</ele>
        <time>2025-09-07T08:20:23Z</time>
      </trkpt>
      <trkpt lat="46.18527" lon="4.56985">
        <ele>630.2</ele>
        <time>2025-09-07T08:20:24Z</time>
      </trkpt>
      <trkpt lat="46.18529" lon="4.56986">
        <ele>630.2</ele>
        <time>2025-09-07T08:20:25Z</time>
      </trkpt>
      <trkpt lat="46.18531" lon="4.56987">
        <ele>630.6</ele>
        <time>2025-09-07T08:20:26Z</time>
      </trkpt>
      <trkpt lat="46.18532" lon="4.56989">
        <ele>631</ele>
        <time>2025-09-07T08:20:27Z</time>
      </trkpt>
      <trkpt lat="46.18533" lon="4.56991">
        <ele>631</ele>
        <time>2025-09-07T08:20:28Z</time>
      </trkpt>
      <trkpt lat="46.18534" lon="4.56993">
        <ele>631.6</ele>
        <time>2025-09-07T08:20:29Z</time>
      </trkpt>
      <trkpt lat="46.18535" lon="4.56995">
        <ele>631.6</ele>
        <time>2025-09-07T08:20:30Z</time>
      </trkpt>
      <trkpt lat="46.18536" lon="4.56996">
        <ele>631.6</ele>
        <time>2025-09-07T08:20:31Z</time>
      </trkpt>
      <trkpt lat="46.18538" lon="4.56997">
        <ele>631.6</ele>
        <time>2025-09-07T08:20:32Z</time>
      </trkpt>
      <trkpt lat="46.1854" lon="4.56999">
        <ele>631.6</ele>
        <time>2025-09-07T08:20:33Z</time>
      </trkpt>
      <trkpt lat="46.18541" lon="4.57001">
        <ele>631.8</ele>
        <time>2025-09-07T08:20:34Z</time>
      </trkpt>
      <trkpt lat="46.18542" lon="4.57003">
        <ele>631.8</ele>
        <time>2025-09-07T08:20:35Z</time>
      </trkpt>
      <trkpt lat="46.18543" lon="4.57005">
        <ele>631.8</ele>
        <time>2025-09-07T08:20:36Z</time>
      </trkpt>
      <trkpt lat="46.18545" lon="4.57007">
        <ele>631.8</ele>
        <time>2025-09-07T08:20:37Z</time>
      </trkpt>
      <trkpt lat="46.18546" lon="4.57008">
        <ele>632</ele>
        <time>2025-09-07T08:20:38Z</time>
      </trkpt>
      <trkpt lat="46.18548" lon="4.57011">
        <ele>632.4</ele>
        <time>2025-09-07T08:20:39Z</time>
      </trkpt>
      <trkpt lat="46.18549" lon="4.57013">
        <ele>632.4</ele>
        <time>2025-09-07T08:20:40Z</time>
      </trkpt>
      <trkpt lat="46.1855" lon="4.57016">
        <ele>632.6</ele>
        <time>2025-09-07T08:20:41Z</time>
      </trkpt>
      <trkpt lat="46.18551" lon="4.57018">
        <ele>632.6</ele>
        <time>2025-09-07T08:20:42Z</time>
      </trkpt>
      <trkpt lat="46.18552" lon="4.57021">
        <ele>632.6</ele>
        <time>2025-09-07T08:20:43Z</time>
      </trkpt>
      <trkpt lat="46.18554" lon="4.57023">
        <ele>632.6</ele>
        <time>2025-09-07T08:20:44Z</time>
      </trkpt>
      <trkpt lat="46.18555" lon="4.57025">
        <ele>632.6</ele>
        <time>2025-09-07T08:20:45Z</time>
      </trkpt>
      <trkpt lat="46.18556" lon="4.57027">
        <ele>632.6</ele>
        <time>2025-09-07T08:20:46Z</time>
      </trkpt>
      <trkpt lat="46.18557" lon="4.57029">
        <ele>632.6</ele>
        <time>2025-09-07T08:20:47Z</time>
      </trkpt>
      <trkpt lat="46.18558" lon="4.57031">
        <ele>632.8</ele>
        <time>2025-09-07T08:20:48Z</time>
      </trkpt>
      <trkpt lat="46.1856" lon="4.57032">
        <ele>633.2</ele>
        <time>2025-09-07T08:20:49Z</time>
      </trkpt>
      <trkpt lat="46.18561" lon="4.57034">
        <ele>633.2</ele>
        <time>2025-09-07T08:20:50Z</time>
      </trkpt>
      <trkpt lat="46.18562" lon="4.57035">
        <ele>633.2</ele>
        <time>2025-09-07T08:20:51Z</time>
      </trkpt>
      <trkpt lat="46.18564" lon="4.57037">
        <ele>633.2</ele>
        <time>2025-09-07T08:20:52Z</time>
      </trkpt>
      <trkpt lat="46.18565" lon="4.57039">
        <ele>633.2</ele>
        <time>2025-09-07T08:20:53Z</time>
      </trkpt>
      <trkpt lat="46.18566" lon="4.57041">
        <ele>633.2</ele>
        <time>2025-09-07T08:20:54Z</time>
      </trkpt>
      <trkpt lat="46.18567" lon="4.57043">
        <ele>633.6</ele>
        <time>2025-09-07T08:20:55Z</time>
      </trkpt>
      <trkpt lat="46.18569" lon="4.57046">
        <ele>633.6</ele>
        <time>2025-09-07T08:20:56Z</time>
      </trkpt>
      <trkpt lat="46.18569" lon="4.57046">
        <ele>633.6</ele>
        <time>2025-09-07T08:20:57Z</time>
      </trkpt>
      <trkpt lat="46.18571" lon="4.57052">
        <ele>633.8</ele>
        <time>2025-09-07T08:20:58Z</time>
      </trkpt>
      <trkpt lat="46.18572" lon="4.57054">
        <ele>634</ele>
        <time>2025-09-07T08:20:59Z</time>
      </trkpt>
      <trkpt lat="46.18573" lon="4.57056">
        <ele>634</ele>
        <time>2025-09-07T08:21:00Z</time>
      </trkpt>
      <trkpt lat="46.18574" lon="4.57059">
        <ele>633.6</ele>
        <time>2025-09-07T08:21:01Z</time>
      </trkpt>
      <trkpt lat="46.18576" lon="4.57061">
        <ele>634.2</ele>
        <time>2025-09-07T08:21:02Z</time>
      </trkpt>
      <trkpt lat="46.18577" lon="4.57064">
        <ele>634.2</ele>
        <time>2025-09-07T08:21:03Z</time>
      </trkpt>
      <trkpt lat="46.18578" lon="4.57066">
        <ele>634.2</ele>
        <time>2025-09-07T08:21:04Z</time>
      </trkpt>
      <trkpt lat="46.18579" lon="4.57068">
        <ele>634.8</ele>
        <time>2025-09-07T08:21:05Z</time>
      </trkpt>
      <trkpt lat="46.1858" lon="4.57071">
        <ele>634.8</ele>
        <time>2025-09-07T08:21:06Z</time>
      </trkpt>
      <trkpt lat="46.18581" lon="4.57074">
        <ele>634.8</ele>
        <time>2025-09-07T08:21:07Z</time>
      </trkpt>
      <trkpt lat="46.18583" lon="4.57077">
        <ele>634.8</ele>
        <time>2025-09-07T08:21:08Z</time>
      </trkpt>
      <trkpt lat="46.18584" lon="4.57079">
        <ele>635.2</ele>
        <time>2025-09-07T08:21:09Z</time>
      </trkpt>
      <trkpt lat="46.18586" lon="4.57081">
        <ele>635.2</ele>
        <time>2025-09-07T08:21:10Z</time>
      </trkpt>
      <trkpt lat="46.18587" lon="4.57083">
        <ele>635.2</ele>
        <time>2025-09-07T08:21:11Z</time>
      </trkpt>
      <trkpt lat="46.18589" lon="4.57085">
        <ele>635.2</ele>
        <time>2025-09-07T08:21:12Z</time>
      </trkpt>
      <trkpt lat="46.1859" lon="4.57086">
        <ele>635.2</ele>
        <time>2025-09-07T08:21:13Z</time>
      </trkpt>
      <trkpt lat="46.18592" lon="4.57088">
        <ele>635.6</ele>
        <time>2025-09-07T08:21:14Z</time>
      </trkpt>
      <trkpt lat="46.18594" lon="4.5709">
        <ele>635.6</ele>
        <time>2025-09-07T08:21:15Z</time>
      </trkpt>
      <trkpt lat="46.18595" lon="4.57092">
        <ele>635.6</ele>
        <time>2025-09-07T08:21:16Z</time>
      </trkpt>
      <trkpt lat="46.18597" lon="4.57094">
        <ele>635.6</ele>
        <time>2025-09-07T08:21:17Z</time>
      </trkpt>
      <trkpt lat="46.18599" lon="4.57097">
        <ele>635.6</ele>
        <time>2025-09-07T08:21:18Z</time>
      </trkpt>
      <trkpt lat="46.186" lon="4.57099">
        <ele>635.8</ele>
        <time>2025-09-07T08:21:19Z</time>
      </trkpt>
      <trkpt lat="46.18602" lon="4.57101">
        <ele>636.2</ele>
        <time>2025-09-07T08:21:20Z</time>
      </trkpt>
      <trkpt lat="46.18603" lon="4.57102">
        <ele>636.2</ele>
        <time>2025-09-07T08:21:21Z</time>
      </trkpt>
      <trkpt lat="46.18606" lon="4.57103">
        <ele>636.6</ele>
        <time>2025-09-07T08:21:22Z</time>
      </trkpt>
      <trkpt lat="46.18608" lon="4.57104">
        <ele>636.8</ele>
        <time>2025-09-07T08:21:23Z</time>
      </trkpt>
      <trkpt lat="46.1861" lon="4.57104">
        <ele>636.6</ele>
        <time>2025-09-07T08:21:24Z</time>
      </trkpt>
      <trkpt lat="46.18612" lon="4.57105">
        <ele>636.6</ele>
        <time>2025-09-07T08:21:25Z</time>
      </trkpt>
      <trkpt lat="46.18614" lon="4.57106">
        <ele>636.6</ele>
        <time>2025-09-07T08:21:26Z</time>
      </trkpt>
      <trkpt lat="46.18617" lon="4.57106">
        <ele>636.6</ele>
        <time>2025-09-07T08:21:27Z</time>
      </trkpt>
      <trkpt lat="46.1862" lon="4.57107">
        <ele>636.6</ele>
        <time>2025-09-07T08:21:28Z</time>
      </trkpt>
      <trkpt lat="46.18623" lon="4.57108">
        <ele>636.6</ele>
        <time>2025-09-07T08:21:29Z</time>
      </trkpt>
      <trkpt lat="46.18625" lon="4.57109">
        <ele>636.8</ele>
        <time>2025-09-07T08:21:30Z</time>
      </trkpt>
      <trkpt lat="46.18627" lon="4.5711">
        <ele>636.8</ele>
        <time>2025-09-07T08:21:31Z</time>
      </trkpt>
      <trkpt lat="46.18629" lon="4.5711">
        <ele>637.2</ele>
        <time>2025-09-07T08:21:32Z</time>
      </trkpt>
      <trkpt lat="46.18631" lon="4.57111">
        <ele>637.2</ele>
        <time>2025-09-07T08:21:33Z</time>
      </trkpt>
      <trkpt lat="46.18633" lon="4.57111">
        <ele>637.6</ele>
        <time>2025-09-07T08:21:34Z</time>
      </trkpt>
      <trkpt lat="46.18635" lon="4.57112">
        <ele>637.6</ele>
        <time>2025-09-07T08:21:35Z</time>
      </trkpt>
      <trkpt lat="46.18637" lon="4.57113">
        <ele>637.6</ele>
        <time>2025-09-07T08:21:36Z</time>
      </trkpt>
      <trkpt lat="46.18639" lon="4.57114">
        <ele>637.6</ele>
        <time>2025-09-07T08:21:37Z</time>
      </trkpt>
      <trkpt lat="46.18641" lon="4.57115">
        <ele>636.4</ele>
        <time>2025-09-07T08:21:38Z</time>
      </trkpt>
      <trkpt lat="46.18643" lon="4.57116">
        <ele>636.8</ele>
        <time>2025-09-07T08:21:39Z</time>
      </trkpt>
      <trkpt lat="46.18644" lon="4.57117">
        <ele>637.2</ele>
        <time>2025-09-07T08:21:40Z</time>
      </trkpt>
      <trkpt lat="46.18647" lon="4.57117">
        <ele>637.6</ele>
        <time>2025-09-07T08:21:41Z</time>
      </trkpt>
      <trkpt lat="46.1865" lon="4.57118">
        <ele>637.6</ele>
        <time>2025-09-07T08:21:42Z</time>
      </trkpt>
      <trkpt lat="46.18652" lon="4.57119">
        <ele>637.8</ele>
        <time>2025-09-07T08:21:43Z</time>
      </trkpt>
      <trkpt lat="46.18653" lon="4.5712">
        <ele>638.2</ele>
        <time>2025-09-07T08:21:44Z</time>
      </trkpt>
      <trkpt lat="46.18655" lon="4.57121">
        <ele>638.2</ele>
        <time>2025-09-07T08:21:45Z</time>
      </trkpt>
      <trkpt lat="46.18657" lon="4.57122">
        <ele>638.8</ele>
        <time>2025-09-07T08:21:46Z</time>
      </trkpt>
      <trkpt lat="46.18659" lon="4.57123">
        <ele>638.8</ele>
        <time>2025-09-07T08:21:47Z</time>
      </trkpt>
      <trkpt lat="46.1866" lon="4.57124">
        <ele>639</ele>
        <time>2025-09-07T08:21:48Z</time>
      </trkpt>
      <trkpt lat="46.18662" lon="4.57125">
        <ele>638.6</ele>
        <time>2025-09-07T08:21:49Z</time>
      </trkpt>
      <trkpt lat="46.18663" lon="4.57126">
        <ele>638.6</ele>
        <time>2025-09-07T08:21:50Z</time>
      </trkpt>
      <trkpt lat="46.18664" lon="4.57127">
        <ele>638.8</ele>
        <time>2025-09-07T08:21:51Z</time>
      </trkpt>
      <trkpt lat="46.18666" lon="4.57128">
        <ele>638.8</ele>
        <time>2025-09-07T08:21:52Z</time>
      </trkpt>
      <trkpt lat="46.18668" lon="4.57129">
        <ele>639.2</ele>
        <time>2025-09-07T08:21:53Z</time>
      </trkpt>
      <trkpt lat="46.18669" lon="4.5713">
        <ele>639.2</ele>
        <time>2025-09-07T08:21:54Z</time>
      </trkpt>
      <trkpt lat="46.18671" lon="4.57132">
        <ele>639.6</ele>
        <time>2025-09-07T08:21:55Z</time>
      </trkpt>
      <trkpt lat="46.18672" lon="4.57133">
        <ele>640</ele>
        <time>2025-09-07T08:21:56Z</time>
      </trkpt>
      <trkpt lat="46.18673" lon="4.57135">
        <ele>640.2</ele>
        <time>2025-09-07T08:21:57Z</time>
      </trkpt>
      <trkpt lat="46.18675" lon="4.57137">
        <ele>640.4</ele>
        <time>2025-09-07T08:21:58Z</time>
      </trkpt>
      <trkpt lat="46.18677" lon="4.5714">
        <ele>640.4</ele>
        <time>2025-09-07T08:21:59Z</time>
      </trkpt>
      <trkpt lat="46.18678" lon="4.57141">
        <ele>640.4</ele>
        <time>2025-09-07T08:22:00Z</time>
      </trkpt>
      <trkpt lat="46.18679" lon="4.57142">
        <ele>640.8</ele>
        <time>2025-09-07T08:22:01Z</time>
      </trkpt>
      <trkpt lat="46.1868" lon="4.57143">
        <ele>641</ele>
        <time>2025-09-07T08:22:02Z</time>
      </trkpt>
      <trkpt lat="46.18681" lon="4.57143">
        <ele>641</ele>
        <time>2025-09-07T08:22:03Z</time>
      </trkpt>
      <trkpt lat="46.1868" lon="4.57143">
        <ele>641</ele>
        <time>2025-09-07T08:22:04Z</time>
      </trkpt>
      <trkpt lat="46.1868" lon="4.57142">
        <ele>641</ele>
        <time>2025-09-07T08:22:05Z</time>
      </trkpt>
      <trkpt lat="46.18684" lon="4.57141">
        <ele>640.8</ele>
        <time>2025-09-07T08:22:17Z</time>
      </trkpt>
      <trkpt lat="46.18685" lon="4.57142">
        <ele>640.2</ele>
        <time>2025-09-07T08:22:18Z</time>
      </trkpt>
      <trkpt lat="46.18687" lon="4.57144">
        <ele>640.2</ele>
        <time>2025-09-07T08:22:19Z</time>
      </trkpt>
      <trkpt lat="46.18688" lon="4.57146">
        <ele>640.8</ele>
        <time>2025-09-07T08:22:20Z</time>
      </trkpt>
      <trkpt lat="46.18689" lon="4.57147">
        <ele>640.8</ele>
        <time>2025-09-07T08:22:21Z</time>
      </trkpt>
      <trkpt lat="46.1869" lon="4.5715">
        <ele>640.8</ele>
        <time>2025-09-07T08:22:22Z</time>
      </trkpt>
      <trkpt lat="46.18693" lon="4.57152">
        <ele>641.4</ele>
        <time>2025-09-07T08:22:23Z</time>
      </trkpt>
      <trkpt lat="46.18695" lon="4.57154">
        <ele>641.4</ele>
        <time>2025-09-07T08:22:24Z</time>
      </trkpt>
      <trkpt lat="46.18697" lon="4.57156">
        <ele>641.4</ele>
        <time>2025-09-07T08:22:25Z</time>
      </trkpt>
      <trkpt lat="46.18698" lon="4.57158">
        <ele>641.6</ele>
        <time>2025-09-07T08:22:26Z</time>
      </trkpt>
      <trkpt lat="46.18701" lon="4.5716">
        <ele>642</ele>
        <time>2025-09-07T08:22:27Z</time>
      </trkpt>
      <trkpt lat="46.18702" lon="4.57162">
        <ele>642</ele>
        <time>2025-09-07T08:22:28Z</time>
      </trkpt>
      <trkpt lat="46.18704" lon="4.57164">
        <ele>643</ele>
        <time>2025-09-07T08:22:29Z</time>
      </trkpt>
      <trkpt lat="46.18706" lon="4.57166">
        <ele>642.6</ele>
        <time>2025-09-07T08:22:30Z</time>
      </trkpt>
      <trkpt lat="46.18707" lon="4.57167">
        <ele>643</ele>
        <time>2025-09-07T08:22:31Z</time>
      </trkpt>
      <trkpt lat="46.18709" lon="4.57169">
        <ele>643</ele>
        <time>2025-09-07T08:22:32Z</time>
      </trkpt>
      <trkpt lat="46.18711" lon="4.57171">
        <ele>643.2</ele>
        <time>2025-09-07T08:22:33Z</time>
      </trkpt>
      <trkpt lat="46.18713" lon="4.57173">
        <ele>643.2</ele>
        <time>2025-09-07T08:22:34Z</time>
      </trkpt>
      <trkpt lat="46.18713" lon="4.57175">
        <ele>643.2</ele>
        <time>2025-09-07T08:22:35Z</time>
      </trkpt>
      <trkpt lat="46.18714" lon="4.57176">
        <ele>643.2</ele>
        <time>2025-09-07T08:22:36Z</time>
      </trkpt>
      <trkpt lat="46.18716" lon="4.57179">
        <ele>643.2</ele>
        <time>2025-09-07T08:22:37Z</time>
      </trkpt>
      <trkpt lat="46.18717" lon="4.5718">
        <ele>643.2</ele>
        <time>2025-09-07T08:22:38Z</time>
      </trkpt>
      <trkpt lat="46.18719" lon="4.57182">
        <ele>643.6</ele>
        <time>2025-09-07T08:22:39Z</time>
      </trkpt>
      <trkpt lat="46.1872" lon="4.57184">
        <ele>643.8</ele>
        <time>2025-09-07T08:22:40Z</time>
      </trkpt>
      <trkpt lat="46.18722" lon="4.57185">
        <ele>643.8</ele>
        <time>2025-09-07T08:22:41Z</time>
      </trkpt>
      <trkpt lat="46.18724" lon="4.57187">
        <ele>644.2</ele>
        <time>2025-09-07T08:22:42Z</time>
      </trkpt>
      <trkpt lat="46.18726" lon="4.57188">
        <ele>644.6</ele>
        <time>2025-09-07T08:22:43Z</time>
      </trkpt>
      <trkpt lat="46.18726" lon="4.5719">
        <ele>645</ele>
        <time>2025-09-07T08:22:44Z</time>
      </trkpt>
      <trkpt lat="46.18727" lon="4.57193">
        <ele>644.6</ele>
        <time>2025-09-07T08:22:45Z</time>
      </trkpt>
      <trkpt lat="46.18728" lon="4.57195">
        <ele>645.2</ele>
        <time>2025-09-07T08:22:46Z</time>
      </trkpt>
      <trkpt lat="46.18729" lon="4.57196">
        <ele>645.2</ele>
        <time>2025-09-07T08:22:47Z</time>
      </trkpt>
      <trkpt lat="46.18731" lon="4.57197">
        <ele>645.6</ele>
        <time>2025-09-07T08:22:48Z</time>
      </trkpt>
      <trkpt lat="46.18732" lon="4.57198">
        <ele>645.6</ele>
        <time>2025-09-07T08:22:49Z</time>
      </trkpt>
      <trkpt lat="46.18734" lon="4.572">
        <ele>645.4</ele>
        <time>2025-09-07T08:22:50Z</time>
      </trkpt>
      <trkpt lat="46.18735" lon="4.57202">
        <ele>645.8</ele>
        <time>2025-09-07T08:22:51Z</time>
      </trkpt>
      <trkpt lat="46.18737" lon="4.57203">
        <ele>645.8</ele>
        <time>2025-09-07T08:22:52Z</time>
      </trkpt>
      <trkpt lat="46.18738" lon="4.57204">
        <ele>646.6</ele>
        <time>2025-09-07T08:22:53Z</time>
      </trkpt>
      <trkpt lat="46.18738" lon="4.57204">
        <ele>646.6</ele>
        <time>2025-09-07T08:22:54Z</time>
      </trkpt>
      <trkpt lat="46.18739" lon="4.57205">
        <ele>646.4</ele>
        <time>2025-09-07T08:22:55Z</time>
      </trkpt>
      <trkpt lat="46.1874" lon="4.57206">
        <ele>646.4</ele>
        <time>2025-09-07T08:22:56Z</time>
      </trkpt>
      <trkpt lat="46.18742" lon="4.57207">
        <ele>646.8</ele>
        <time>2025-09-07T08:22:57Z</time>
      </trkpt>
      <trkpt lat="46.18744" lon="4.57207">
        <ele>646.8</ele>
        <time>2025-09-07T08:22:58Z</time>
      </trkpt>
      <trkpt lat="46.18745" lon="4.57208">
        <ele>647</ele>
        <time>2025-09-07T08:22:59Z</time>
      </trkpt>
      <trkpt lat="46.18746" lon="4.57209">
        <ele>647.2</ele>
        <time>2025-09-07T08:23:00Z</time>
      </trkpt>
      <trkpt lat="46.18748" lon="4.5721">
        <ele>647.4</ele>
        <time>2025-09-07T08:23:01Z</time>
      </trkpt>
      <trkpt lat="46.18749" lon="4.5721">
        <ele>647.6</ele>
        <time>2025-09-07T08:23:02Z</time>
      </trkpt>
      <trkpt lat="46.1875" lon="4.57211">
        <ele>647.6</ele>
        <time>2025-09-07T08:23:03Z</time>
      </trkpt>
      <trkpt lat="46.18751" lon="4.57212">
        <ele>648</ele>
        <time>2025-09-07T08:23:04Z</time>
      </trkpt>
      <trkpt lat="46.18753" lon="4.57214">
        <ele>648</ele>
        <time>2025-09-07T08:23:05Z</time>
      </trkpt>
      <trkpt lat="46.18754" lon="4.57215">
        <ele>648</ele>
        <time>2025-09-07T08:23:06Z</time>
      </trkpt>
      <trkpt lat="46.18754" lon="4.57215">
        <ele>648.6</ele>
        <time>2025-09-07T08:23:07Z</time>
      </trkpt>
      <trkpt lat="46.18756" lon="4.57217">
        <ele>648.6</ele>
        <time>2025-09-07T08:23:08Z</time>
      </trkpt>
      <trkpt lat="46.18757" lon="4.57218">
        <ele>648.6</ele>
        <time>2025-09-07T08:23:09Z</time>
      </trkpt>
      <trkpt lat="46.18758" lon="4.57218">
        <ele>648.6</ele>
        <time>2025-09-07T08:23:10Z</time>
      </trkpt>
      <trkpt lat="46.18759" lon="4.57219">
        <ele>648.2</ele>
        <time>2025-09-07T08:23:11Z</time>
      </trkpt>
      <trkpt lat="46.1876" lon="4.5722">
        <ele>648.2</ele>
        <time>2025-09-07T08:23:12Z</time>
      </trkpt>
      <trkpt lat="46.18762" lon="4.57221">
        <ele>648.2</ele>
        <time>2025-09-07T08:23:13Z</time>
      </trkpt>
      <trkpt lat="46.18763" lon="4.57222">
        <ele>648.2</ele>
        <time>2025-09-07T08:23:14Z</time>
      </trkpt>
      <trkpt lat="46.18764" lon="4.57223">
        <ele>648.6</ele>
        <time>2025-09-07T08:23:15Z</time>
      </trkpt>
      <trkpt lat="46.18766" lon="4.57224">
        <ele>648.6</ele>
        <time>2025-09-07T08:23:16Z</time>
      </trkpt>
      <trkpt lat="46.18767" lon="4.57225">
        <ele>649.2</ele>
        <time>2025-09-07T08:23:17Z</time>
      </trkpt>
      <trkpt lat="46.18767" lon="4.57226">
        <ele>649.2</ele>
        <time>2025-09-07T08:23:18Z</time>
      </trkpt>
      <trkpt lat="46.18768" lon="4.57228">
        <ele>649.2</ele>
        <time>2025-09-07T08:23:19Z</time>
      </trkpt>
      <trkpt lat="46.18769" lon="4.5723">
        <ele>649.6</ele>
        <time>2025-09-07T08:23:20Z</time>
      </trkpt>
      <trkpt lat="46.1877" lon="4.57231">
        <ele>649.4</ele>
        <time>2025-09-07T08:23:21Z</time>
      </trkpt>
      <trkpt lat="46.18772" lon="4.57232">
        <ele>649.4</ele>
        <time>2025-09-07T08:23:22Z</time>
      </trkpt>
      <trkpt lat="46.18774" lon="4.57234">
        <ele>649.8</ele>
        <time>2025-09-07T08:23:23Z</time>
      </trkpt>
      <trkpt lat="46.18775" lon="4.57235">
        <ele>650</ele>
        <time>2025-09-07T08:23:24Z</time>
      </trkpt>
      <trkpt lat="46.18777" lon="4.57237">
        <ele>650</ele>
        <time>2025-09-07T08:23:25Z</time>
      </trkpt>
      <trkpt lat="46.18778" lon="4.57238">
        <ele>650</ele>
        <time>2025-09-07T08:23:26Z</time>
      </trkpt>
      <trkpt lat="46.1878" lon="4.57239">
        <ele>650</ele>
        <time>2025-09-07T08:23:27Z</time>
      </trkpt>
      <trkpt lat="46.18782" lon="4.5724">
        <ele>650</ele>
        <time>2025-09-07T08:23:28Z</time>
      </trkpt>
      <trkpt lat="46.18783" lon="4.57241">
        <ele>650</ele>
        <time>2025-09-07T08:23:29Z</time>
      </trkpt>
      <trkpt lat="46.18784" lon="4.57242">
        <ele>650</ele>
        <time>2025-09-07T08:23:30Z</time>
      </trkpt>
      <trkpt lat="46.18785" lon="4.57242">
        <ele>650</ele>
        <time>2025-09-07T08:23:31Z</time>
      </trkpt>
      <trkpt lat="46.18787" lon="4.57243">
        <ele>650.4</ele>
        <time>2025-09-07T08:23:32Z</time>
      </trkpt>
      <trkpt lat="46.18788" lon="4.57244">
        <ele>650.4</ele>
        <time>2025-09-07T08:23:33Z</time>
      </trkpt>
      <trkpt lat="46.18789" lon="4.57244">
        <ele>651.2</ele>
        <time>2025-09-07T08:23:34Z</time>
      </trkpt>
      <trkpt lat="46.1879" lon="4.57244">
        <ele>651.2</ele>
        <time>2025-09-07T08:23:35Z</time>
      </trkpt>
      <trkpt lat="46.18792" lon="4.57245">
        <ele>651.2</ele>
        <time>2025-09-07T08:23:36Z</time>
      </trkpt>
      <trkpt lat="46.18792" lon="4.57246">
        <ele>650.8</ele>
        <time>2025-09-07T08:23:37Z</time>
      </trkpt>
      <trkpt lat="46.18793" lon="4.57246">
        <ele>651.2</ele>
        <time>2025-09-07T08:23:38Z</time>
      </trkpt>
      <trkpt lat="46.18794" lon="4.57247">
        <ele>650.8</ele>
        <time>2025-09-07T08:23:39Z</time>
      </trkpt>
      <trkpt lat="46.18795" lon="4.57247">
        <ele>651.2</ele>
        <time>2025-09-07T08:23:40Z</time>
      </trkpt>
      <trkpt lat="46.18796" lon="4.57247">
        <ele>651.2</ele>
        <time>2025-09-07T08:23:41Z</time>
      </trkpt>
      <trkpt lat="46.18797" lon="4.57247">
        <ele>651.4</ele>
        <time>2025-09-07T08:23:42Z</time>
      </trkpt>
      <trkpt lat="46.18799" lon="4.57248">
        <ele>651.4</ele>
        <time>2025-09-07T08:23:43Z</time>
      </trkpt>
      <trkpt lat="46.188" lon="4.57249">
        <ele>651.4</ele>
        <time>2025-09-07T08:23:44Z</time>
      </trkpt>
      <trkpt lat="46.18802" lon="4.57249">
        <ele>651.6</ele>
        <time>2025-09-07T08:23:45Z</time>
      </trkpt>
      <trkpt lat="46.18803" lon="4.5725">
        <ele>651.6</ele>
        <time>2025-09-07T08:23:46Z</time>
      </trkpt>
      <trkpt lat="46.18804" lon="4.5725">
        <ele>652.4</ele>
        <time>2025-09-07T08:23:47Z</time>
      </trkpt>
      <trkpt lat="46.18806" lon="4.5725">
        <ele>652.4</ele>
        <time>2025-09-07T08:23:48Z</time>
      </trkpt>
      <trkpt lat="46.18807" lon="4.5725">
        <ele>652.4</ele>
        <time>2025-09-07T08:23:49Z</time>
      </trkpt>
      <trkpt lat="46.18809" lon="4.5725">
        <ele>652.2</ele>
        <time>2025-09-07T08:23:50Z</time>
      </trkpt>
      <trkpt lat="46.1881" lon="4.5725">
        <ele>652.2</ele>
        <time>2025-09-07T08:23:51Z</time>
      </trkpt>
      <trkpt lat="46.18811" lon="4.5725">
        <ele>652.6</ele>
        <time>2025-09-07T08:23:52Z</time>
      </trkpt>
      <trkpt lat="46.18813" lon="4.5725">
        <ele>653</ele>
        <time>2025-09-07T08:23:53Z</time>
      </trkpt>
      <trkpt lat="46.18815" lon="4.57251">
        <ele>653</ele>
        <time>2025-09-07T08:23:54Z</time>
      </trkpt>
      <trkpt lat="46.18816" lon="4.5725">
        <ele>653.4</ele>
        <time>2025-09-07T08:23:55Z</time>
      </trkpt>
      <trkpt lat="46.18818" lon="4.5725">
        <ele>653.4</ele>
        <time>2025-09-07T08:23:56Z</time>
      </trkpt>
      <trkpt lat="46.18819" lon="4.57249">
        <ele>653.4</ele>
        <time>2025-09-07T08:23:57Z</time>
      </trkpt>
      <trkpt lat="46.18821" lon="4.57249">
        <ele>653.4</ele>
        <time>2025-09-07T08:23:58Z</time>
      </trkpt>
      <trkpt lat="46.18823" lon="4.57249">
        <ele>653.4</ele>
        <time>2025-09-07T08:23:59Z</time>
      </trkpt>
      <trkpt lat="46.18824" lon="4.57249">
        <ele>653.4</ele>
        <time>2025-09-07T08:24:00Z</time>
      </trkpt>
      <trkpt lat="46.18826" lon="4.57248">
        <ele>653.6</ele>
        <time>2025-09-07T08:24:01Z</time>
      </trkpt>
      <trkpt lat="46.18827" lon="4.57248">
        <ele>654</ele>
        <time>2025-09-07T08:24:02Z</time>
      </trkpt>
      <trkpt lat="46.18828" lon="4.57247">
        <ele>654</ele>
        <time>2025-09-07T08:24:03Z</time>
      </trkpt>
      <trkpt lat="46.1883" lon="4.57247">
        <ele>654.2</ele>
        <time>2025-09-07T08:24:04Z</time>
      </trkpt>
      <trkpt lat="46.18832" lon="4.57247">
        <ele>654.6</ele>
        <time>2025-09-07T08:24:05Z</time>
      </trkpt>
      <trkpt lat="46.18833" lon="4.57247">
        <ele>654.6</ele>
        <time>2025-09-07T08:24:06Z</time>
      </trkpt>
      <trkpt lat="46.18834" lon="4.57247">
        <ele>654.6</ele>
        <time>2025-09-07T08:24:07Z</time>
      </trkpt>
      <trkpt lat="46.18836" lon="4.57247">
        <ele>654.8</ele>
        <time>2025-09-07T08:24:08Z</time>
      </trkpt>
      <trkpt lat="46.18837" lon="4.57246">
        <ele>654.8</ele>
        <time>2025-09-07T08:24:09Z</time>
      </trkpt>
      <trkpt lat="46.18838" lon="4.57246">
        <ele>654.8</ele>
        <time>2025-09-07T08:24:10Z</time>
      </trkpt>
      <trkpt lat="46.1884" lon="4.57246">
        <ele>655.4</ele>
        <time>2025-09-07T08:24:11Z</time>
      </trkpt>
      <trkpt lat="46.18841" lon="4.57246">
        <ele>655.4</ele>
        <time>2025-09-07T08:24:12Z</time>
      </trkpt>
      <trkpt lat="46.18843" lon="4.57246">
        <ele>655.4</ele>
        <time>2025-09-07T08:24:13Z</time>
      </trkpt>
      <trkpt lat="46.18844" lon="4.57247">
        <ele>655.6</ele>
        <time>2025-09-07T08:24:14Z</time>
      </trkpt>
      <trkpt lat="46.18845" lon="4.57247">
        <ele>655.6</ele>
        <time>2025-09-07T08:24:15Z</time>
      </trkpt>
      <trkpt lat="46.18846" lon="4.57247">
        <ele>655.6</ele>
        <time>2025-09-07T08:24:16Z</time>
      </trkpt>
      <trkpt lat="46.18847" lon="4.57248">
        <ele>656.2</ele>
        <time>2025-09-07T08:24:17Z</time>
      </trkpt>
      <trkpt lat="46.18848" lon="4.57249">
        <ele>656.4</ele>
        <time>2025-09-07T08:24:18Z</time>
      </trkpt>
      <trkpt lat="46.1885" lon="4.5725">
        <ele>655.8</ele>
        <time>2025-09-07T08:24:19Z</time>
      </trkpt>
      <trkpt lat="46.18851" lon="4.57251">
        <ele>655.8</ele>
        <time>2025-09-07T08:24:20Z</time>
      </trkpt>
      <trkpt lat="46.18853" lon="4.57251">
        <ele>655.8</ele>
        <time>2025-09-07T08:24:21Z</time>
      </trkpt>
      <trkpt lat="46.18854" lon="4.57252">
        <ele>655.8</ele>
        <time>2025-09-07T08:24:22Z</time>
      </trkpt>
      <trkpt lat="46.18855" lon="4.57253">
        <ele>655.6</ele>
        <time>2025-09-07T08:24:23Z</time>
      </trkpt>
      <trkpt lat="46.18856" lon="4.57253">
        <ele>655.6</ele>
        <time>2025-09-07T08:24:24Z</time>
      </trkpt>
      <trkpt lat="46.18857" lon="4.57255">
        <ele>656</ele>
        <time>2025-09-07T08:24:25Z</time>
      </trkpt>
      <trkpt lat="46.18859" lon="4.57257">
        <ele>656</ele>
        <time>2025-09-07T08:24:26Z</time>
      </trkpt>
      <trkpt lat="46.1886" lon="4.57259">
        <ele>656</ele>
        <time>2025-09-07T08:24:27Z</time>
      </trkpt>
      <trkpt lat="46.18861" lon="4.5726">
        <ele>656</ele>
        <time>2025-09-07T08:24:28Z</time>
      </trkpt>
      <trkpt lat="46.18863" lon="4.57261">
        <ele>656.4</ele>
        <time>2025-09-07T08:24:29Z</time>
      </trkpt>
      <trkpt lat="46.18864" lon="4.57262">
        <ele>656.4</ele>
        <time>2025-09-07T08:24:30Z</time>
      </trkpt>
      <trkpt lat="46.18865" lon="4.57263">
        <ele>657</ele>
        <time>2025-09-07T08:24:31Z</time>
      </trkpt>
      <trkpt lat="46.18866" lon="4.57264">
        <ele>657</ele>
        <time>2025-09-07T08:24:32Z</time>
      </trkpt>
      <trkpt lat="46.18867" lon="4.57265">
        <ele>657.2</ele>
        <time>2025-09-07T08:24:33Z</time>
      </trkpt>
      <trkpt lat="46.18868" lon="4.57267">
        <ele>657.2</ele>
        <time>2025-09-07T08:24:34Z</time>
      </trkpt>
      <trkpt lat="46.18869" lon="4.57268">
        <ele>657.4</ele>
        <time>2025-09-07T08:24:35Z</time>
      </trkpt>
      <trkpt lat="46.18869" lon="4.57269">
        <ele>657.4</ele>
        <time>2025-09-07T08:24:36Z</time>
      </trkpt>
      <trkpt lat="46.18869" lon="4.57272">
        <ele>657.4</ele>
        <time>2025-09-07T08:24:37Z</time>
      </trkpt>
      <trkpt lat="46.1887" lon="4.57275">
        <ele>657.4</ele>
        <time>2025-09-07T08:24:38Z</time>
      </trkpt>
      <trkpt lat="46.1887" lon="4.57277">
        <ele>657.4</ele>
        <time>2025-09-07T08:24:39Z</time>
      </trkpt>
      <trkpt lat="46.1887" lon="4.57279">
        <ele>657.8</ele>
        <time>2025-09-07T08:24:40Z</time>
      </trkpt>
      <trkpt lat="46.1887" lon="4.57281">
        <ele>658</ele>
        <time>2025-09-07T08:24:41Z</time>
      </trkpt>
      <trkpt lat="46.1887" lon="4.57283">
        <ele>658</ele>
        <time>2025-09-07T08:24:42Z</time>
      </trkpt>
      <trkpt lat="46.1887" lon="4.57285">
        <ele>658.2</ele>
        <time>2025-09-07T08:24:43Z</time>
      </trkpt>
      <trkpt lat="46.1887" lon="4.57287">
        <ele>658.8</ele>
        <time>2025-09-07T08:24:44Z</time>
      </trkpt>
      <trkpt lat="46.18869" lon="4.57288">
        <ele>658.8</ele>
        <time>2025-09-07T08:24:45Z</time>
      </trkpt>
      <trkpt lat="46.18868" lon="4.57289">
        <ele>658.8</ele>
        <time>2025-09-07T08:24:46Z</time>
      </trkpt>
      <trkpt lat="46.18867" lon="4.57291">
        <ele>658.8</ele>
        <time>2025-09-07T08:24:47Z</time>
      </trkpt>
      <trkpt lat="46.18866" lon="4.57293">
        <ele>658.8</ele>
        <time>2025-09-07T08:24:48Z</time>
      </trkpt>
      <trkpt lat="46.18865" lon="4.57294">
        <ele>658.8</ele>
        <time>2025-09-07T08:24:49Z</time>
      </trkpt>
      <trkpt lat="46.18864" lon="4.57296">
        <ele>658.8</ele>
        <time>2025-09-07T08:24:50Z</time>
      </trkpt>
      <trkpt lat="46.18864" lon="4.57298">
        <ele>659.2</ele>
        <time>2025-09-07T08:24:51Z</time>
      </trkpt>
      <trkpt lat="46.18863" lon="4.573">
        <ele>658.8</ele>
        <time>2025-09-07T08:24:52Z</time>
      </trkpt>
      <trkpt lat="46.18862" lon="4.57301">
        <ele>659.2</ele>
        <time>2025-09-07T08:24:53Z</time>
      </trkpt>
      <trkpt lat="46.18861" lon="4.57302">
        <ele>659.2</ele>
        <time>2025-09-07T08:24:54Z</time>
      </trkpt>
      <trkpt lat="46.1886" lon="4.57303">
        <ele>659.6</ele>
        <time>2025-09-07T08:24:55Z</time>
      </trkpt>
      <trkpt lat="46.18859" lon="4.57305">
        <ele>659.6</ele>
        <time>2025-09-07T08:24:56Z</time>
      </trkpt>
      <trkpt lat="46.18857" lon="4.57306">
        <ele>660</ele>
        <time>2025-09-07T08:24:57Z</time>
      </trkpt>
      <trkpt lat="46.18856" lon="4.57308">
        <ele>660.2</ele>
        <time>2025-09-07T08:24:58Z</time>
      </trkpt>
      <trkpt lat="46.18855" lon="4.57309">
        <ele>660.4</ele>
        <time>2025-09-07T08:24:59Z</time>
      </trkpt>
      <trkpt lat="46.18855" lon="4.57311">
        <ele>660.6</ele>
        <time>2025-09-07T08:25:00Z</time>
      </trkpt>
      <trkpt lat="46.18854" lon="4.57313">
        <ele>660.6</ele>
        <time>2025-09-07T08:25:01Z</time>
      </trkpt>
      <trkpt lat="46.18853" lon="4.57315">
        <ele>661</ele>
        <time>2025-09-07T08:25:02Z</time>
      </trkpt>
      <trkpt lat="46.18851" lon="4.57316">
        <ele>661.2</ele>
        <time>2025-09-07T08:25:03Z</time>
      </trkpt>
      <trkpt lat="46.1885" lon="4.57318">
        <ele>660.6</ele>
        <time>2025-09-07T08:25:04Z</time>
      </trkpt>
      <trkpt lat="46.18849" lon="4.5732">
        <ele>660.6</ele>
        <time>2025-09-07T08:25:05Z</time>
      </trkpt>
      <trkpt lat="46.18848" lon="4.57322">
        <ele>661</ele>
        <time>2025-09-07T08:25:06Z</time>
      </trkpt>
      <trkpt lat="46.18847" lon="4.57323">
        <ele>661.2</ele>
        <time>2025-09-07T08:25:07Z</time>
      </trkpt>
      <trkpt lat="46.18845" lon="4.57324">
        <ele>661.2</ele>
        <time>2025-09-07T08:25:08Z</time>
      </trkpt>
      <trkpt lat="46.18844" lon="4.57325">
        <ele>661.2</ele>
        <time>2025-09-07T08:25:09Z</time>
      </trkpt>
      <trkpt lat="46.18842" lon="4.57327">
        <ele>661.6</ele>
        <time>2025-09-07T08:25:10Z</time>
      </trkpt>
      <trkpt lat="46.18842" lon="4.57329">
        <ele>661.6</ele>
        <time>2025-09-07T08:25:11Z</time>
      </trkpt>
      <trkpt lat="46.18841" lon="4.5733">
        <ele>661.6</ele>
        <time>2025-09-07T08:25:12Z</time>
      </trkpt>
      <trkpt lat="46.1884" lon="4.57333">
        <ele>662</ele>
        <time>2025-09-07T08:25:13Z</time>
      </trkpt>
      <trkpt lat="46.1884" lon="4.57335">
        <ele>662.2</ele>
        <time>2025-09-07T08:25:14Z</time>
      </trkpt>
      <trkpt lat="46.18839" lon="4.57337">
        <ele>662.2</ele>
        <time>2025-09-07T08:25:15Z</time>
      </trkpt>
      <trkpt lat="46.18838" lon="4.57339">
        <ele>662.2</ele>
        <time>2025-09-07T08:25:16Z</time>
      </trkpt>
      <trkpt lat="46.18838" lon="4.5734">
        <ele>662.2</ele>
        <time>2025-09-07T08:25:17Z</time>
      </trkpt>
      <trkpt lat="46.18837" lon="4.57342">
        <ele>662.6</ele>
        <time>2025-09-07T08:25:18Z</time>
      </trkpt>
      <trkpt lat="46.18836" lon="4.57345">
        <ele>662.6</ele>
        <time>2025-09-07T08:25:19Z</time>
      </trkpt>
      <trkpt lat="46.18835" lon="4.57347">
        <ele>662.6</ele>
        <time>2025-09-07T08:25:20Z</time>
      </trkpt>
      <trkpt lat="46.18834" lon="4.57348">
        <ele>662.6</ele>
        <time>2025-09-07T08:25:21Z</time>
      </trkpt>
      <trkpt lat="46.18833" lon="4.57349">
        <ele>663</ele>
        <time>2025-09-07T08:25:22Z</time>
      </trkpt>
      <trkpt lat="46.18832" lon="4.5735">
        <ele>663</ele>
        <time>2025-09-07T08:25:23Z</time>
      </trkpt>
      <trkpt lat="46.18831" lon="4.57351">
        <ele>663.2</ele>
        <time>2025-09-07T08:25:24Z</time>
      </trkpt>
      <trkpt lat="46.1883" lon="4.57352">
        <ele>663.2</ele>
        <time>2025-09-07T08:25:25Z</time>
      </trkpt>
      <trkpt lat="46.18829" lon="4.57354">
        <ele>663.2</ele>
        <time>2025-09-07T08:25:26Z</time>
      </trkpt>
      <trkpt lat="46.18828" lon="4.57355">
        <ele>663.6</ele>
        <time>2025-09-07T08:25:27Z</time>
      </trkpt>
      <trkpt lat="46.18824" lon="4.57357">
        <ele>663.6</ele>
        <time>2025-09-07T08:25:28Z</time>
      </trkpt>
      <trkpt lat="46.18823" lon="4.57357">
        <ele>663.6</ele>
        <time>2025-09-07T08:25:29Z</time>
      </trkpt>
      <trkpt lat="46.18821" lon="4.57358">
        <ele>663.6</ele>
        <time>2025-09-07T08:25:30Z</time>
      </trkpt>
      <trkpt lat="46.18819" lon="4.57359">
        <ele>663.6</ele>
        <time>2025-09-07T08:25:31Z</time>
      </trkpt>
      <trkpt lat="46.18817" lon="4.57361">
        <ele>664</ele>
        <time>2025-09-07T08:25:32Z</time>
      </trkpt>
      <trkpt lat="46.18816" lon="4.57362">
        <ele>664.2</ele>
        <time>2025-09-07T08:25:33Z</time>
      </trkpt>
      <trkpt lat="46.18815" lon="4.57364">
        <ele>664.2</ele>
        <time>2025-09-07T08:25:34Z</time>
      </trkpt>
      <trkpt lat="46.18813" lon="4.57365">
        <ele>664.2</ele>
        <time>2025-09-07T08:25:35Z</time>
      </trkpt>
      <trkpt lat="46.18812" lon="4.57367">
        <ele>664.2</ele>
        <time>2025-09-07T08:25:36Z</time>
      </trkpt>
      <trkpt lat="46.1881" lon="4.57367">
        <ele>664.6</ele>
        <time>2025-09-07T08:25:37Z</time>
      </trkpt>
      <trkpt lat="46.18809" lon="4.57368">
        <ele>664.6</ele>
        <time>2025-09-07T08:25:38Z</time>
      </trkpt>
      <trkpt lat="46.18808" lon="4.57368">
        <ele>665</ele>
        <time>2025-09-07T08:25:39Z</time>
      </trkpt>
      <trkpt lat="46.18807" lon="4.57369">
        <ele>664.6</ele>
        <time>2025-09-07T08:25:40Z</time>
      </trkpt>
      <trkpt lat="46.18805" lon="4.57371">
        <ele>665</ele>
        <time>2025-09-07T08:25:41Z</time>
      </trkpt>
      <trkpt lat="46.18804" lon="4.57372">
        <ele>665</ele>
        <time>2025-09-07T08:25:42Z</time>
      </trkpt>
      <trkpt lat="46.18802" lon="4.57373">
        <ele>665</ele>
        <time>2025-09-07T08:25:43Z</time>
      </trkpt>
      <trkpt lat="46.18801" lon="4.57375">
        <ele>665.4</ele>
        <time>2025-09-07T08:25:44Z</time>
      </trkpt>
      <trkpt lat="46.188" lon="4.57376">
        <ele>665.6</ele>
        <time>2025-09-07T08:25:45Z</time>
      </trkpt>
      <trkpt lat="46.18798" lon="4.57377">
        <ele>665.6</ele>
        <time>2025-09-07T08:25:46Z</time>
      </trkpt>
      <trkpt lat="46.18796" lon="4.57378">
        <ele>666.2</ele>
        <time>2025-09-07T08:25:47Z</time>
      </trkpt>
      <trkpt lat="46.18795" lon="4.57378">
        <ele>666.6</ele>
        <time>2025-09-07T08:25:48Z</time>
      </trkpt>
      <trkpt lat="46.18794" lon="4.5738">
        <ele>666.6</ele>
        <time>2025-09-07T08:25:49Z</time>
      </trkpt>
      <trkpt lat="46.18792" lon="4.57381">
        <ele>666.6</ele>
        <time>2025-09-07T08:25:50Z</time>
      </trkpt>
      <trkpt lat="46.1879" lon="4.57383">
        <ele>666.6</ele>
        <time>2025-09-07T08:25:51Z</time>
      </trkpt>
      <trkpt lat="46.18789" lon="4.57384">
        <ele>666.6</ele>
        <time>2025-09-07T08:25:52Z</time>
      </trkpt>
      <trkpt lat="46.18788" lon="4.57385">
        <ele>667</ele>
        <time>2025-09-07T08:25:53Z</time>
      </trkpt>
      <trkpt lat="46.18787" lon="4.57386">
        <ele>667</ele>
        <time>2025-09-07T08:25:54Z</time>
      </trkpt>
      <trkpt lat="46.18785" lon="4.57388">
        <ele>667</ele>
        <time>2025-09-07T08:25:55Z</time>
      </trkpt>
      <trkpt lat="46.18784" lon="4.57389">
        <ele>667</ele>
        <time>2025-09-07T08:25:56Z</time>
      </trkpt>
      <trkpt lat="46.18783" lon="4.5739">
        <ele>667</ele>
        <time>2025-09-07T08:25:57Z</time>
      </trkpt>
      <trkpt lat="46.18782" lon="4.57391">
        <ele>667.2</ele>
        <time>2025-09-07T08:25:58Z</time>
      </trkpt>
      <trkpt lat="46.18781" lon="4.57392">
        <ele>667.2</ele>
        <time>2025-09-07T08:25:59Z</time>
      </trkpt>
      <trkpt lat="46.18781" lon="4.57392">
        <ele>667.6</ele>
        <time>2025-09-07T08:26:00Z</time>
      </trkpt>
      <trkpt lat="46.18781" lon="4.57393">
        <ele>667.6</ele>
        <time>2025-09-07T08:26:01Z</time>
      </trkpt>
      <trkpt lat="46.18782" lon="4.57393">
        <ele>667.6</ele>
        <time>2025-09-07T08:26:02Z</time>
      </trkpt>
      <trkpt lat="46.18778" lon="4.57399">
        <ele>667</ele>
        <time>2025-09-07T08:26:12Z</time>
      </trkpt>
      <trkpt lat="46.18777" lon="4.57401">
        <ele>667</ele>
        <time>2025-09-07T08:26:13Z</time>
      </trkpt>
      <trkpt lat="46.18776" lon="4.57403">
        <ele>667</ele>
        <time>2025-09-07T08:26:14Z</time>
      </trkpt>
      <trkpt lat="46.18775" lon="4.57405">
        <ele>667</ele>
        <time>2025-09-07T08:26:15Z</time>
      </trkpt>
      <trkpt lat="46.18774" lon="4.57407">
        <ele>667</ele>
        <time>2025-09-07T08:26:16Z</time>
      </trkpt>
      <trkpt lat="46.18772" lon="4.57407">
        <ele>667.2</ele>
        <time>2025-09-07T08:26:17Z</time>
      </trkpt>
      <trkpt lat="46.18772" lon="4.57407">
        <ele>667.2</ele>
        <time>2025-09-07T08:26:18Z</time>
      </trkpt>
      <trkpt lat="46.18771" lon="4.57408">
        <ele>667.2</ele>
        <time>2025-09-07T08:26:19Z</time>
      </trkpt>
      <trkpt lat="46.18769" lon="4.57408">
        <ele>667.2</ele>
        <time>2025-09-07T08:26:20Z</time>
      </trkpt>
      <trkpt lat="46.18768" lon="4.5741">
        <ele>667.4</ele>
        <time>2025-09-07T08:26:21Z</time>
      </trkpt>
      <trkpt lat="46.18766" lon="4.57411">
        <ele>667.8</ele>
        <time>2025-09-07T08:26:22Z</time>
      </trkpt>
      <trkpt lat="46.18765" lon="4.57413">
        <ele>667.8</ele>
        <time>2025-09-07T08:26:23Z</time>
      </trkpt>
      <trkpt lat="46.18764" lon="4.57414">
        <ele>667.8</ele>
        <time>2025-09-07T08:26:24Z</time>
      </trkpt>
      <trkpt lat="46.18762" lon="4.57415">
        <ele>668</ele>
        <time>2025-09-07T08:26:25Z</time>
      </trkpt>
      <trkpt lat="46.18761" lon="4.57416">
        <ele>668</ele>
        <time>2025-09-07T08:26:26Z</time>
      </trkpt>
      <trkpt lat="46.18759" lon="4.57417">
        <ele>668.6</ele>
        <time>2025-09-07T08:26:27Z</time>
      </trkpt>
      <trkpt lat="46.18758" lon="4.57418">
        <ele>668.6</ele>
        <time>2025-09-07T08:26:28Z</time>
      </trkpt>
      <trkpt lat="46.18756" lon="4.57419">
        <ele>668.6</ele>
        <time>2025-09-07T08:26:29Z</time>
      </trkpt>
      <trkpt lat="46.18754" lon="4.5742">
        <ele>668.6</ele>
        <time>2025-09-07T08:26:30Z</time>
      </trkpt>
      <trkpt lat="46.18753" lon="4.57422">
        <ele>668.8</ele>
        <time>2025-09-07T08:26:31Z</time>
      </trkpt>
      <trkpt lat="46.18752" lon="4.57423">
        <ele>669</ele>
        <time>2025-09-07T08:26:32Z</time>
      </trkpt>
      <trkpt lat="46.18752" lon="4.57424">
        <ele>669</ele>
        <time>2025-09-07T08:26:33Z</time>
      </trkpt>
      <trkpt lat="46.18751" lon="4.57425">
        <ele>669.4</ele>
        <time>2025-09-07T08:26:34Z</time>
      </trkpt>
      <trkpt lat="46.18749" lon="4.57426">
        <ele>669.4</ele>
        <time>2025-09-07T08:26:35Z</time>
      </trkpt>
      <trkpt lat="46.18748" lon="4.57427">
        <ele>669.6</ele>
        <time>2025-09-07T08:26:36Z</time>
      </trkpt>
      <trkpt lat="46.18747" lon="4.57428">
        <ele>669.2</ele>
        <time>2025-09-07T08:26:37Z</time>
      </trkpt>
      <trkpt lat="46.18746" lon="4.57429">
        <ele>669.6</ele>
        <time>2025-09-07T08:26:38Z</time>
      </trkpt>
      <trkpt lat="46.18745" lon="4.5743">
        <ele>670</ele>
        <time>2025-09-07T08:26:39Z</time>
      </trkpt>
      <trkpt lat="46.18743" lon="4.57432">
        <ele>670</ele>
        <time>2025-09-07T08:26:40Z</time>
      </trkpt>
      <trkpt lat="46.18742" lon="4.57433">
        <ele>670</ele>
        <time>2025-09-07T08:26:41Z</time>
      </trkpt>
      <trkpt lat="46.18741" lon="4.57434">
        <ele>669.6</ele>
        <time>2025-09-07T08:26:42Z</time>
      </trkpt>
      <trkpt lat="46.1874" lon="4.57434">
        <ele>670</ele>
        <time>2025-09-07T08:26:43Z</time>
      </trkpt>
      <trkpt lat="46.18738" lon="4.57435">
        <ele>670</ele>
        <time>2025-09-07T08:26:44Z</time>
      </trkpt>
      <trkpt lat="46.18735" lon="4.57436">
        <ele>670.6</ele>
        <time>2025-09-07T08:26:45Z</time>
      </trkpt>
      <trkpt lat="46.18734" lon="4.57436">
        <ele>671</ele>
        <time>2025-09-07T08:26:46Z</time>
      </trkpt>
      <trkpt lat="46.18733" lon="4.57438">
        <ele>671</ele>
        <time>2025-09-07T08:26:47Z</time>
      </trkpt>
      <trkpt lat="46.18732" lon="4.5744">
        <ele>671.2</ele>
        <time>2025-09-07T08:26:48Z</time>
      </trkpt>
      <trkpt lat="46.1873" lon="4.57442">
        <ele>671.4</ele>
        <time>2025-09-07T08:26:49Z</time>
      </trkpt>
      <trkpt lat="46.18729" lon="4.57443">
        <ele>671.6</ele>
        <time>2025-09-07T08:26:50Z</time>
      </trkpt>
      <trkpt lat="46.18728" lon="4.57445">
        <ele>671.6</ele>
        <time>2025-09-07T08:26:51Z</time>
      </trkpt>
      <trkpt lat="46.18728" lon="4.57445">
        <ele>671.6</ele>
        <time>2025-09-07T08:26:52Z</time>
      </trkpt>
      <trkpt lat="46.18728" lon="4.57444">
        <ele>671.8</ele>
        <time>2025-09-07T08:26:53Z</time>
      </trkpt>
      <trkpt lat="46.18729" lon="4.57444">
        <ele>671.8</ele>
        <time>2025-09-07T08:26:54Z</time>
      </trkpt>
      <trkpt lat="46.18727" lon="4.57445">
        <ele>671.8</ele>
        <time>2025-09-07T08:26:55Z</time>
      </trkpt>
      <trkpt lat="46.18725" lon="4.57446">
        <ele>672.4</ele>
        <time>2025-09-07T08:26:56Z</time>
      </trkpt>
      <trkpt lat="46.18724" lon="4.57447">
        <ele>672.4</ele>
        <time>2025-09-07T08:26:57Z</time>
      </trkpt>
      <trkpt lat="46.18723" lon="4.57448">
        <ele>672.8</ele>
        <time>2025-09-07T08:26:58Z</time>
      </trkpt>
      <trkpt lat="46.18722" lon="4.57449">
        <ele>672.8</ele>
        <time>2025-09-07T08:26:59Z</time>
      </trkpt>
      <trkpt lat="46.18721" lon="4.57451">
        <ele>673</ele>
        <time>2025-09-07T08:27:00Z</time>
      </trkpt>
      <trkpt lat="46.1872" lon="4.57452">
        <ele>673</ele>
        <time>2025-09-07T08:27:01Z</time>
      </trkpt>
      <trkpt lat="46.18719" lon="4.57453">
        <ele>673</ele>
        <time>2025-09-07T08:27:02Z</time>
      </trkpt>
      <trkpt lat="46.18717" lon="4.57454">
        <ele>673.4</ele>
        <time>2025-09-07T08:27:03Z</time>
      </trkpt>
      <trkpt lat="46.18716" lon="4.57455">
        <ele>673.4</ele>
        <time>2025-09-07T08:27:04Z</time>
      </trkpt>
      <trkpt lat="46.18714" lon="4.57456">
        <ele>673.4</ele>
        <time>2025-09-07T08:27:05Z</time>
      </trkpt>
      <trkpt lat="46.18712" lon="4.57459">
        <ele>673.4</ele>
        <time>2025-09-07T08:27:06Z</time>
      </trkpt>
      <trkpt lat="46.18711" lon="4.5746">
        <ele>673.6</ele>
        <time>2025-09-07T08:27:07Z</time>
      </trkpt>
      <trkpt lat="46.1871" lon="4.57462">
        <ele>674.2</ele>
        <time>2025-09-07T08:27:08Z</time>
      </trkpt>
      <trkpt lat="46.18709" lon="4.57463">
        <ele>674.2</ele>
        <time>2025-09-07T08:27:09Z</time>
      </trkpt>
      <trkpt lat="46.18708" lon="4.57464">
        <ele>674.2</ele>
        <time>2025-09-07T08:27:10Z</time>
      </trkpt>
      <trkpt lat="46.18706" lon="4.57465">
        <ele>674.6</ele>
        <time>2025-09-07T08:27:11Z</time>
      </trkpt>
      <trkpt lat="46.18705" lon="4.57466">
        <ele>674.6</ele>
        <time>2025-09-07T08:27:12Z</time>
      </trkpt>
      <trkpt lat="46.18703" lon="4.57467">
        <ele>674.6</ele>
        <time>2025-09-07T08:27:13Z</time>
      </trkpt>
      <trkpt lat="46.18701" lon="4.57468">
        <ele>674.6</ele>
        <time>2025-09-07T08:27:14Z</time>
      </trkpt>
      <trkpt lat="46.187" lon="4.57469">
        <ele>675</ele>
        <time>2025-09-07T08:27:15Z</time>
      </trkpt>
      <trkpt lat="46.18698" lon="4.57469">
        <ele>675</ele>
        <time>2025-09-07T08:27:16Z</time>
      </trkpt>
      <trkpt lat="46.18697" lon="4.5747">
        <ele>674.8</ele>
        <time>2025-09-07T08:27:17Z</time>
      </trkpt>
      <trkpt lat="46.18696" lon="4.5747">
        <ele>674.8</ele>
        <time>2025-09-07T08:27:18Z</time>
      </trkpt>
      <trkpt lat="46.18695" lon="4.57471">
        <ele>674.8</ele>
        <time>2025-09-07T08:27:19Z</time>
      </trkpt>
      <trkpt lat="46.18693" lon="4.57472">
        <ele>675.4</ele>
        <time>2025-09-07T08:27:20Z</time>
      </trkpt>
      <trkpt lat="46.18692" lon="4.57473">
        <ele>675.4</ele>
        <time>2025-09-07T08:27:21Z</time>
      </trkpt>
      <trkpt lat="46.1869" lon="4.57474">
        <ele>676</ele>
        <time>2025-09-07T08:27:22Z</time>
      </trkpt>
      <trkpt lat="46.1869" lon="4.57476">
        <ele>676</ele>
        <time>2025-09-07T08:27:23Z</time>
      </trkpt>
      <trkpt lat="46.18689" lon="4.57479">
        <ele>675.4</ele>
        <time>2025-09-07T08:27:24Z</time>
      </trkpt>
      <trkpt lat="46.18689" lon="4.57481">
        <ele>675.4</ele>
        <time>2025-09-07T08:27:25Z</time>
      </trkpt>
      <trkpt lat="46.18688" lon="4.57483">
        <ele>675.6</ele>
        <time>2025-09-07T08:27:26Z</time>
      </trkpt>
      <trkpt lat="46.18687" lon="4.57484">
        <ele>675.6</ele>
        <time>2025-09-07T08:27:27Z</time>
      </trkpt>
      <trkpt lat="46.18685" lon="4.57485">
        <ele>676</ele>
        <time>2025-09-07T08:27:28Z</time>
      </trkpt>
      <trkpt lat="46.18684" lon="4.57486">
        <ele>676.2</ele>
        <time>2025-09-07T08:27:29Z</time>
      </trkpt>
      <trkpt lat="46.18683" lon="4.57488">
        <ele>676.2</ele>
        <time>2025-09-07T08:27:30Z</time>
      </trkpt>
      <trkpt lat="46.18681" lon="4.5749">
        <ele>676.2</ele>
        <time>2025-09-07T08:27:31Z</time>
      </trkpt>
      <trkpt lat="46.1868" lon="4.57491">
        <ele>676.6</ele>
        <time>2025-09-07T08:27:32Z</time>
      </trkpt>
      <trkpt lat="46.18679" lon="4.57492">
        <ele>676.6</ele>
        <time>2025-09-07T08:27:33Z</time>
      </trkpt>
      <trkpt lat="46.18677" lon="4.57493">
        <ele>677.2</ele>
        <time>2025-09-07T08:27:34Z</time>
      </trkpt>
      <trkpt lat="46.18675" lon="4.57494">
        <ele>677.8</ele>
        <time>2025-09-07T08:27:35Z</time>
      </trkpt>
      <trkpt lat="46.18674" lon="4.57496">
        <ele>677.8</ele>
        <time>2025-09-07T08:27:36Z</time>
      </trkpt>
      <trkpt lat="46.18672" lon="4.57498">
        <ele>677.8</ele>
        <time>2025-09-07T08:27:37Z</time>
      </trkpt>
      <trkpt lat="46.18671" lon="4.57499">
        <ele>677.8</ele>
        <time>2025-09-07T08:27:38Z</time>
      </trkpt>
      <trkpt lat="46.1867" lon="4.57501">
        <ele>677.8</ele>
        <time>2025-09-07T08:27:39Z</time>
      </trkpt>
      <trkpt lat="46.18669" lon="4.57502">
        <ele>677.8</ele>
        <time>2025-09-07T08:27:40Z</time>
      </trkpt>
      <trkpt lat="46.18669" lon="4.57503">
        <ele>677.6</ele>
        <time>2025-09-07T08:27:41Z</time>
      </trkpt>
      <trkpt lat="46.18668" lon="4.57504">
        <ele>677.6</ele>
        <time>2025-09-07T08:27:42Z</time>
      </trkpt>
      <trkpt lat="46.18666" lon="4.57506">
        <ele>678</ele>
        <time>2025-09-07T08:27:43Z</time>
      </trkpt>
      <trkpt lat="46.18665" lon="4.57507">
        <ele>678.2</ele>
        <time>2025-09-07T08:27:44Z</time>
      </trkpt>
      <trkpt lat="46.18663" lon="4.57508">
        <ele>678.2</ele>
        <time>2025-09-07T08:27:45Z</time>
      </trkpt>
      <trkpt lat="46.18662" lon="4.5751">
        <ele>678.4</ele>
        <time>2025-09-07T08:27:46Z</time>
      </trkpt>
      <trkpt lat="46.18661" lon="4.57511">
        <ele>678.4</ele>
        <time>2025-09-07T08:27:47Z</time>
      </trkpt>
      <trkpt lat="46.1866" lon="4.57513">
        <ele>678.4</ele>
        <time>2025-09-07T08:27:48Z</time>
      </trkpt>
      <trkpt lat="46.18658" lon="4.57515">
        <ele>678.4</ele>
        <time>2025-09-07T08:27:49Z</time>
      </trkpt>
      <trkpt lat="46.18657" lon="4.57516">
        <ele>678.6</ele>
        <time>2025-09-07T08:27:50Z</time>
      </trkpt>
      <trkpt lat="46.18656" lon="4.57516">
        <ele>678.6</ele>
        <time>2025-09-07T08:27:51Z</time>
      </trkpt>
      <trkpt lat="46.18654" lon="4.57517">
        <ele>679</ele>
        <time>2025-09-07T08:27:52Z</time>
      </trkpt>
      <trkpt lat="46.18652" lon="4.57519">
        <ele>679</ele>
        <time>2025-09-07T08:27:53Z</time>
      </trkpt>
      <trkpt lat="46.1865" lon="4.5752">
        <ele>679</ele>
        <time>2025-09-07T08:27:54Z</time>
      </trkpt>
      <trkpt lat="46.18649" lon="4.57521">
        <ele>679.4</ele>
        <time>2025-09-07T08:27:55Z</time>
      </trkpt>
      <trkpt lat="46.18647" lon="4.57522">
        <ele>679.4</ele>
        <time>2025-09-07T08:27:56Z</time>
      </trkpt>
      <trkpt lat="46.18646" lon="4.57523">
        <ele>679.8</ele>
        <time>2025-09-07T08:27:57Z</time>
      </trkpt>
      <trkpt lat="46.18644" lon="4.57524">
        <ele>680</ele>
        <time>2025-09-07T08:27:58Z</time>
      </trkpt>
      <trkpt lat="46.18643" lon="4.57525">
        <ele>680.2</ele>
        <time>2025-09-07T08:27:59Z</time>
      </trkpt>
      <trkpt lat="46.18642" lon="4.57526">
        <ele>680.6</ele>
        <time>2025-09-07T08:28:00Z</time>
      </trkpt>
      <trkpt lat="46.1864" lon="4.57528">
        <ele>680.6</ele>
        <time>2025-09-07T08:28:01Z</time>
      </trkpt>
      <trkpt lat="46.18639" lon="4.57529">
        <ele>680.6</ele>
        <time>2025-09-07T08:28:02Z</time>
      </trkpt>
      <trkpt lat="46.18638" lon="4.5753">
        <ele>680.4</ele>
        <time>2025-09-07T08:28:03Z</time>
      </trkpt>
      <trkpt lat="46.18637" lon="4.57531">
        <ele>680.4</ele>
        <time>2025-09-07T08:28:04Z</time>
      </trkpt>
      <trkpt lat="46.18636" lon="4.57532">
        <ele>680.4</ele>
        <time>2025-09-07T08:28:05Z</time>
      </trkpt>
      <trkpt lat="46.18635" lon="4.57533">
        <ele>680.4</ele>
        <time>2025-09-07T08:28:06Z</time>
      </trkpt>
      <trkpt lat="46.18634" lon="4.57534">
        <ele>680.6</ele>
        <time>2025-09-07T08:28:07Z</time>
      </trkpt>
      <trkpt lat="46.18633" lon="4.57535">
        <ele>680.6</ele>
        <time>2025-09-07T08:28:08Z</time>
      </trkpt>
      <trkpt lat="46.18632" lon="4.57536">
        <ele>680.6</ele>
        <time>2025-09-07T08:28:09Z</time>
      </trkpt>
      <trkpt lat="46.1863" lon="4.57537">
        <ele>680.6</ele>
        <time>2025-09-07T08:28:10Z</time>
      </trkpt>
      <trkpt lat="46.1863" lon="4.57538">
        <ele>680.6</ele>
        <time>2025-09-07T08:28:11Z</time>
      </trkpt>
      <trkpt lat="46.18629" lon="4.5754">
        <ele>680.8</ele>
        <time>2025-09-07T08:28:12Z</time>
      </trkpt>
      <trkpt lat="46.18628" lon="4.57541">
        <ele>680.8</ele>
        <time>2025-09-07T08:28:13Z</time>
      </trkpt>
      <trkpt lat="46.18627" lon="4.57541">
        <ele>680.8</ele>
        <time>2025-09-07T08:28:14Z</time>
      </trkpt>
      <trkpt lat="46.18626" lon="4.57542">
        <ele>681.2</ele>
        <time>2025-09-07T08:28:15Z</time>
      </trkpt>
      <trkpt lat="46.18625" lon="4.57542">
        <ele>681.2</ele>
        <time>2025-09-07T08:28:16Z</time>
      </trkpt>
      <trkpt lat="46.18624" lon="4.57542">
        <ele>681.2</ele>
        <time>2025-09-07T08:28:17Z</time>
      </trkpt>
      <trkpt lat="46.18623" lon="4.57544">
        <ele>681.2</ele>
        <time>2025-09-07T08:28:18Z</time>
      </trkpt>
      <trkpt lat="46.18621" lon="4.57545">
        <ele>681.4</ele>
        <time>2025-09-07T08:28:19Z</time>
      </trkpt>
      <trkpt lat="46.1862" lon="4.57546">
        <ele>681.8</ele>
        <time>2025-09-07T08:28:20Z</time>
      </trkpt>
      <trkpt lat="46.18619" lon="4.57547">
        <ele>681.8</ele>
        <time>2025-09-07T08:28:21Z</time>
      </trkpt>
      <trkpt lat="46.18618" lon="4.57548">
        <ele>681.8</ele>
        <time>2025-09-07T08:28:22Z</time>
      </trkpt>
      <trkpt lat="46.18616" lon="4.5755">
        <ele>681.8</ele>
        <time>2025-09-07T08:28:23Z</time>
      </trkpt>
      <trkpt lat="46.18614" lon="4.57551">
        <ele>681.8</ele>
        <time>2025-09-07T08:28:24Z</time>
      </trkpt>
      <trkpt lat="46.18613" lon="4.57553">
        <ele>682.2</ele>
        <time>2025-09-07T08:28:25Z</time>
      </trkpt>
      <trkpt lat="46.18612" lon="4.57554">
        <ele>682.2</ele>
        <time>2025-09-07T08:28:26Z</time>
      </trkpt>
      <trkpt lat="46.1861" lon="4.57555">
        <ele>682.2</ele>
        <time>2025-09-07T08:28:27Z</time>
      </trkpt>
      <trkpt lat="46.18609" lon="4.57557">
        <ele>682.4</ele>
        <time>2025-09-07T08:28:28Z</time>
      </trkpt>
      <trkpt lat="46.18608" lon="4.57558">
        <ele>682.4</ele>
        <time>2025-09-07T08:28:29Z</time>
      </trkpt>
      <trkpt lat="46.18606" lon="4.5756">
        <ele>682.4</ele>
        <time>2025-09-07T08:28:30Z</time>
      </trkpt>
      <trkpt lat="46.18605" lon="4.57561">
        <ele>682.8</ele>
        <time>2025-09-07T08:28:31Z</time>
      </trkpt>
      <trkpt lat="46.18604" lon="4.57563">
        <ele>682.8</ele>
        <time>2025-09-07T08:28:32Z</time>
      </trkpt>
      <trkpt lat="46.18603" lon="4.57565">
        <ele>682.8</ele>
        <time>2025-09-07T08:28:33Z</time>
      </trkpt>
      <trkpt lat="46.18602" lon="4.57567">
        <ele>682.8</ele>
        <time>2025-09-07T08:28:34Z</time>
      </trkpt>
      <trkpt lat="46.18601" lon="4.57568">
        <ele>683</ele>
        <time>2025-09-07T08:28:35Z</time>
      </trkpt>
      <trkpt lat="46.18601" lon="4.5757">
        <ele>683</ele>
        <time>2025-09-07T08:28:36Z</time>
      </trkpt>
      <trkpt lat="46.186" lon="4.57572">
        <ele>683</ele>
        <time>2025-09-07T08:28:37Z</time>
      </trkpt>
      <trkpt lat="46.186" lon="4.57573">
        <ele>683.6</ele>
        <time>2025-09-07T08:28:38Z</time>
      </trkpt>
      <trkpt lat="46.18599" lon="4.57575">
        <ele>683.6</ele>
        <time>2025-09-07T08:28:39Z</time>
      </trkpt>
      <trkpt lat="46.18598" lon="4.57577">
        <ele>683.6</ele>
        <time>2025-09-07T08:28:40Z</time>
      </trkpt>
      <trkpt lat="46.18597" lon="4.57578">
        <ele>683.6</ele>
        <time>2025-09-07T08:28:41Z</time>
      </trkpt>
      <trkpt lat="46.18595" lon="4.57579">
        <ele>684</ele>
        <time>2025-09-07T08:28:42Z</time>
      </trkpt>
      <trkpt lat="46.18593" lon="4.57581">
        <ele>684</ele>
        <time>2025-09-07T08:28:43Z</time>
      </trkpt>
      <trkpt lat="46.18592" lon="4.57583">
        <ele>684</ele>
        <time>2025-09-07T08:28:44Z</time>
      </trkpt>
      <trkpt lat="46.18591" lon="4.57584">
        <ele>684</ele>
        <time>2025-09-07T08:28:45Z</time>
      </trkpt>
      <trkpt lat="46.18591" lon="4.57586">
        <ele>684.2</ele>
        <time>2025-09-07T08:28:46Z</time>
      </trkpt>
      <trkpt lat="46.18589" lon="4.57589">
        <ele>684.2</ele>
        <time>2025-09-07T08:28:47Z</time>
      </trkpt>
      <trkpt lat="46.18588" lon="4.5759">
        <ele>684.6</ele>
        <time>2025-09-07T08:28:48Z</time>
      </trkpt>
      <trkpt lat="46.18587" lon="4.57592">
        <ele>684.6</ele>
        <time>2025-09-07T08:28:49Z</time>
      </trkpt>
      <trkpt lat="46.18586" lon="4.57593">
        <ele>684.6</ele>
        <time>2025-09-07T08:28:50Z</time>
      </trkpt>
      <trkpt lat="46.18585" lon="4.57595">
        <ele>684.6</ele>
        <time>2025-09-07T08:28:51Z</time>
      </trkpt>
      <trkpt lat="46.18585" lon="4.57596">
        <ele>684.6</ele>
        <time>2025-09-07T08:28:52Z</time>
      </trkpt>
      <trkpt lat="46.18584" lon="4.57597">
        <ele>684.8</ele>
        <time>2025-09-07T08:28:53Z</time>
      </trkpt>
      <trkpt lat="46.18583" lon="4.576">
        <ele>684.8</ele>
        <time>2025-09-07T08:28:54Z</time>
      </trkpt>
      <trkpt lat="46.18582" lon="4.57602">
        <ele>684.8</ele>
        <time>2025-09-07T08:28:55Z</time>
      </trkpt>
      <trkpt lat="46.18582" lon="4.57604">
        <ele>684.8</ele>
        <time>2025-09-07T08:28:56Z</time>
      </trkpt>
      <trkpt lat="46.18581" lon="4.57606">
        <ele>685.2</ele>
        <time>2025-09-07T08:28:57Z</time>
      </trkpt>
      <trkpt lat="46.1858" lon="4.57608">
        <ele>685.2</ele>
        <time>2025-09-07T08:28:58Z</time>
      </trkpt>
      <trkpt lat="46.1858" lon="4.5761">
        <ele>685.6</ele>
        <time>2025-09-07T08:28:59Z</time>
      </trkpt>
      <trkpt lat="46.18579" lon="4.57613">
        <ele>685.6</ele>
        <time>2025-09-07T08:29:00Z</time>
      </trkpt>
      <trkpt lat="46.18578" lon="4.57615">
        <ele>686</ele>
        <time>2025-09-07T08:29:01Z</time>
      </trkpt>
      <trkpt lat="46.18577" lon="4.57616">
        <ele>686.4</ele>
        <time>2025-09-07T08:29:02Z</time>
      </trkpt>
      <trkpt lat="46.18577" lon="4.57617">
        <ele>686.4</ele>
        <time>2025-09-07T08:29:03Z</time>
      </trkpt>
      <trkpt lat="46.18576" lon="4.57619">
        <ele>685.8</ele>
        <time>2025-09-07T08:29:04Z</time>
      </trkpt>
      <trkpt lat="46.18575" lon="4.57622">
        <ele>685.8</ele>
        <time>2025-09-07T08:29:05Z</time>
      </trkpt>
      <trkpt lat="46.18575" lon="4.57623">
        <ele>685.8</ele>
        <time>2025-09-07T08:29:06Z</time>
      </trkpt>
      <trkpt lat="46.18574" lon="4.57626">
        <ele>686.2</ele>
        <time>2025-09-07T08:29:07Z</time>
      </trkpt>
      <trkpt lat="46.18573" lon="4.57628">
        <ele>686.2</ele>
        <time>2025-09-07T08:29:08Z</time>
      </trkpt>
      <trkpt lat="46.18573" lon="4.5763">
        <ele>686.6</ele>
        <time>2025-09-07T08:29:09Z</time>
      </trkpt>
      <trkpt lat="46.18573" lon="4.57632">
        <ele>687</ele>
        <time>2025-09-07T08:29:10Z</time>
      </trkpt>
      <trkpt lat="46.18574" lon="4.57634">
        <ele>687</ele>
        <time>2025-09-07T08:29:11Z</time>
      </trkpt>
      <trkpt lat="46.18574" lon="4.57637">
        <ele>687</ele>
        <time>2025-09-07T08:29:12Z</time>
      </trkpt>
      <trkpt lat="46.18573" lon="4.57639">
        <ele>687.2</ele>
        <time>2025-09-07T08:29:13Z</time>
      </trkpt>
      <trkpt lat="46.18573" lon="4.57641">
        <ele>687.2</ele>
        <time>2025-09-07T08:29:14Z</time>
      </trkpt>
      <trkpt lat="46.18573" lon="4.57643">
        <ele>687.2</ele>
        <time>2025-09-07T08:29:15Z</time>
      </trkpt>
      <trkpt lat="46.18573" lon="4.57645">
        <ele>687.8</ele>
        <time>2025-09-07T08:29:16Z</time>
      </trkpt>
      <trkpt lat="46.18573" lon="4.57646">
        <ele>687.8</ele>
        <time>2025-09-07T08:29:17Z</time>
      </trkpt>
      <trkpt lat="46.18572" lon="4.57648">
        <ele>688.2</ele>
        <time>2025-09-07T08:29:18Z</time>
      </trkpt>
      <trkpt lat="46.18572" lon="4.5765">
        <ele>688.2</ele>
        <time>2025-09-07T08:29:19Z</time>
      </trkpt>
      <trkpt lat="46.18572" lon="4.57652">
        <ele>688.2</ele>
        <time>2025-09-07T08:29:20Z</time>
      </trkpt>
      <trkpt lat="46.18572" lon="4.57654">
        <ele>688.2</ele>
        <time>2025-09-07T08:29:21Z</time>
      </trkpt>
      <trkpt lat="46.18573" lon="4.57657">
        <ele>688.4</ele>
        <time>2025-09-07T08:29:22Z</time>
      </trkpt>
      <trkpt lat="46.18572" lon="4.57659">
        <ele>688.6</ele>
        <time>2025-09-07T08:29:23Z</time>
      </trkpt>
      <trkpt lat="46.18571" lon="4.57662">
        <ele>688.6</ele>
        <time>2025-09-07T08:29:24Z</time>
      </trkpt>
      <trkpt lat="46.1857" lon="4.57664">
        <ele>688.6</ele>
        <time>2025-09-07T08:29:25Z</time>
      </trkpt>
      <trkpt lat="46.18569" lon="4.57666">
        <ele>688.6</ele>
        <time>2025-09-07T08:29:26Z</time>
      </trkpt>
      <trkpt lat="46.18569" lon="4.57667">
        <ele>689</ele>
        <time>2025-09-07T08:29:27Z</time>
      </trkpt>
      <trkpt lat="46.18568" lon="4.57669">
        <ele>689</ele>
        <time>2025-09-07T08:29:28Z</time>
      </trkpt>
      <trkpt lat="46.18568" lon="4.57671">
        <ele>689</ele>
        <time>2025-09-07T08:29:29Z</time>
      </trkpt>
      <trkpt lat="46.18567" lon="4.57672">
        <ele>689</ele>
        <time>2025-09-07T08:29:30Z</time>
      </trkpt>
      <trkpt lat="46.18566" lon="4.57674">
        <ele>689</ele>
        <time>2025-09-07T08:29:31Z</time>
      </trkpt>
      <trkpt lat="46.18566" lon="4.57676">
        <ele>689.6</ele>
        <time>2025-09-07T08:29:32Z</time>
      </trkpt>
      <trkpt lat="46.18565" lon="4.57678">
        <ele>689.6</ele>
        <time>2025-09-07T08:29:33Z</time>
      </trkpt>
      <trkpt lat="46.18565" lon="4.57679">
        <ele>690</ele>
        <time>2025-09-07T08:29:34Z</time>
      </trkpt>
      <trkpt lat="46.18565" lon="4.57681">
        <ele>690</ele>
        <time>2025-09-07T08:29:35Z</time>
      </trkpt>
      <trkpt lat="46.18565" lon="4.57681">
        <ele>690</ele>
        <time>2025-09-07T08:29:36Z</time>
      </trkpt>
      <trkpt lat="46.18566" lon="4.57682">
        <ele>690</ele>
        <time>2025-09-07T08:29:37Z</time>
      </trkpt>
      <trkpt lat="46.18566" lon="4.57684">
        <ele>690</ele>
        <time>2025-09-07T08:29:38Z</time>
      </trkpt>
      <trkpt lat="46.18566" lon="4.57686">
        <ele>690.4</ele>
        <time>2025-09-07T08:29:39Z</time>
      </trkpt>
      <trkpt lat="46.18566" lon="4.57688">
        <ele>690.4</ele>
        <time>2025-09-07T08:29:40Z</time>
      </trkpt>
      <trkpt lat="46.18566" lon="4.5769">
        <ele>690.4</ele>
        <time>2025-09-07T08:29:41Z</time>
      </trkpt>
      <trkpt lat="46.18565" lon="4.57692">
        <ele>690.8</ele>
        <time>2025-09-07T08:29:42Z</time>
      </trkpt>
      <trkpt lat="46.18564" lon="4.57694">
        <ele>690.8</ele>
        <time>2025-09-07T08:29:43Z</time>
      </trkpt>
      <trkpt lat="46.18563" lon="4.57696">
        <ele>690.8</ele>
        <time>2025-09-07T08:29:44Z</time>
      </trkpt>
      <trkpt lat="46.18562" lon="4.57698">
        <ele>690.4</ele>
        <time>2025-09-07T08:29:45Z</time>
      </trkpt>
      <trkpt lat="46.18562" lon="4.57699">
        <ele>690.4</ele>
        <time>2025-09-07T08:29:46Z</time>
      </trkpt>
      <trkpt lat="46.18562" lon="4.57701">
        <ele>690.6</ele>
        <time>2025-09-07T08:29:47Z</time>
      </trkpt>
      <trkpt lat="46.18562" lon="4.57703">
        <ele>690.6</ele>
        <time>2025-09-07T08:29:48Z</time>
      </trkpt>
      <trkpt lat="46.18562" lon="4.57705">
        <ele>690.8</ele>
        <time>2025-09-07T08:29:49Z</time>
      </trkpt>
      <trkpt lat="46.18561" lon="4.57707">
        <ele>691</ele>
        <time>2025-09-07T08:29:50Z</time>
      </trkpt>
      <trkpt lat="46.18561" lon="4.57709">
        <ele>691</ele>
        <time>2025-09-07T08:29:51Z</time>
      </trkpt>
      <trkpt lat="46.18561" lon="4.57711">
        <ele>691</ele>
        <time>2025-09-07T08:29:52Z</time>
      </trkpt>
      <trkpt lat="46.18561" lon="4.57713">
        <ele>691</ele>
        <time>2025-09-07T08:29:53Z</time>
      </trkpt>
      <trkpt lat="46.18561" lon="4.57716">
        <ele>691.4</ele>
        <time>2025-09-07T08:29:54Z</time>
      </trkpt>
      <trkpt lat="46.18561" lon="4.57718">
        <ele>691</ele>
        <time>2025-09-07T08:29:55Z</time>
      </trkpt>
      <trkpt lat="46.1856" lon="4.5772">
        <ele>691.4</ele>
        <time>2025-09-07T08:29:56Z</time>
      </trkpt>
      <trkpt lat="46.1856" lon="4.57722">
        <ele>691.4</ele>
        <time>2025-09-07T08:29:57Z</time>
      </trkpt>
      <trkpt lat="46.1856" lon="4.57724">
        <ele>691.6</ele>
        <time>2025-09-07T08:29:58Z</time>
      </trkpt>
      <trkpt lat="46.1856" lon="4.57726">
        <ele>691.6</ele>
        <time>2025-09-07T08:29:59Z</time>
      </trkpt>
      <trkpt lat="46.18559" lon="4.57729">
        <ele>691.8</ele>
        <time>2025-09-07T08:30:00Z</time>
      </trkpt>
      <trkpt lat="46.18559" lon="4.57731">
        <ele>691.8</ele>
        <time>2025-09-07T08:30:01Z</time>
      </trkpt>
      <trkpt lat="46.18559" lon="4.57733">
        <ele>691.8</ele>
        <time>2025-09-07T08:30:02Z</time>
      </trkpt>
      <trkpt lat="46.18559" lon="4.57734">
        <ele>691.8</ele>
        <time>2025-09-07T08:30:03Z</time>
      </trkpt>
      <trkpt lat="46.18559" lon="4.57736">
        <ele>691.8</ele>
        <time>2025-09-07T08:30:04Z</time>
      </trkpt>
      <trkpt lat="46.18559" lon="4.57738">
        <ele>692.2</ele>
        <time>2025-09-07T08:30:05Z</time>
      </trkpt>
      <trkpt lat="46.18559" lon="4.57739">
        <ele>692.2</ele>
        <time>2025-09-07T08:30:06Z</time>
      </trkpt>
      <trkpt lat="46.18558" lon="4.57741">
        <ele>692.2</ele>
        <time>2025-09-07T08:30:07Z</time>
      </trkpt>
      <trkpt lat="46.18558" lon="4.57743">
        <ele>692.6</ele>
        <time>2025-09-07T08:30:08Z</time>
      </trkpt>
      <trkpt lat="46.18557" lon="4.57744">
        <ele>692.6</ele>
        <time>2025-09-07T08:30:09Z</time>
      </trkpt>
      <trkpt lat="46.18557" lon="4.57746">
        <ele>692.8</ele>
        <time>2025-09-07T08:30:10Z</time>
      </trkpt>
      <trkpt lat="46.18556" lon="4.57749">
        <ele>693</ele>
        <time>2025-09-07T08:30:11Z</time>
      </trkpt>
      <trkpt lat="46.18556" lon="4.5775">
        <ele>693.4</ele>
        <time>2025-09-07T08:30:12Z</time>
      </trkpt>
      <trkpt lat="46.18555" lon="4.57752">
        <ele>693.4</ele>
        <time>2025-09-07T08:30:13Z</time>
      </trkpt>
      <trkpt lat="46.18555" lon="4.57754">
        <ele>693.4</ele>
        <time>2025-09-07T08:30:14Z</time>
      </trkpt>
      <trkpt lat="46.18555" lon="4.57755">
        <ele>693.6</ele>
        <time>2025-09-07T08:30:15Z</time>
      </trkpt>
      <trkpt lat="46.18554" lon="4.57756">
        <ele>693.6</ele>
        <time>2025-09-07T08:30:16Z</time>
      </trkpt>
      <trkpt lat="46.18553" lon="4.57759">
        <ele>693.8</ele>
        <time>2025-09-07T08:30:17Z</time>
      </trkpt>
      <trkpt lat="46.18552" lon="4.57761">
        <ele>693.8</ele>
        <time>2025-09-07T08:30:18Z</time>
      </trkpt>
      <trkpt lat="46.18551" lon="4.57763">
        <ele>694.4</ele>
        <time>2025-09-07T08:30:19Z</time>
      </trkpt>
      <trkpt lat="46.18551" lon="4.57765">
        <ele>694.4</ele>
        <time>2025-09-07T08:30:20Z</time>
      </trkpt>
      <trkpt lat="46.1855" lon="4.57767">
        <ele>694.4</ele>
        <time>2025-09-07T08:30:21Z</time>
      </trkpt>
      <trkpt lat="46.18549" lon="4.57768">
        <ele>694.6</ele>
        <time>2025-09-07T08:30:22Z</time>
      </trkpt>
      <trkpt lat="46.18548" lon="4.5777">
        <ele>694.6</ele>
        <time>2025-09-07T08:30:23Z</time>
      </trkpt>
      <trkpt lat="46.18547" lon="4.57773">
        <ele>695</ele>
        <time>2025-09-07T08:30:24Z</time>
      </trkpt>
      <trkpt lat="46.18547" lon="4.57774">
        <ele>695</ele>
        <time>2025-09-07T08:30:25Z</time>
      </trkpt>
      <trkpt lat="46.18546" lon="4.57777">
        <ele>695</ele>
        <time>2025-09-07T08:30:26Z</time>
      </trkpt>
      <trkpt lat="46.18546" lon="4.57779">
        <ele>695</ele>
        <time>2025-09-07T08:30:27Z</time>
      </trkpt>
      <trkpt lat="46.18545" lon="4.57782">
        <ele>695.4</ele>
        <time>2025-09-07T08:30:28Z</time>
      </trkpt>
      <trkpt lat="46.18545" lon="4.57784">
        <ele>695.4</ele>
        <time>2025-09-07T08:30:29Z</time>
      </trkpt>
      <trkpt lat="46.18544" lon="4.57787">
        <ele>695</ele>
        <time>2025-09-07T08:30:30Z</time>
      </trkpt>
      <trkpt lat="46.18543" lon="4.57789">
        <ele>695.4</ele>
        <time>2025-09-07T08:30:31Z</time>
      </trkpt>
      <trkpt lat="46.18542" lon="4.57792">
        <ele>695.4</ele>
        <time>2025-09-07T08:30:32Z</time>
      </trkpt>
      <trkpt lat="46.18542" lon="4.57795">
        <ele>696</ele>
        <time>2025-09-07T08:30:33Z</time>
      </trkpt>
      <trkpt lat="46.18542" lon="4.57797">
        <ele>696</ele>
        <time>2025-09-07T08:30:34Z</time>
      </trkpt>
      <trkpt lat="46.18541" lon="4.578">
        <ele>695.6</ele>
        <time>2025-09-07T08:30:35Z</time>
      </trkpt>
      <trkpt lat="46.1854" lon="4.57802">
        <ele>695.6</ele>
        <time>2025-09-07T08:30:36Z</time>
      </trkpt>
      <trkpt lat="46.18539" lon="4.57805">
        <ele>696.2</ele>
        <time>2025-09-07T08:30:37Z</time>
      </trkpt>
      <trkpt lat="46.18538" lon="4.57807">
        <ele>696.2</ele>
        <time>2025-09-07T08:30:38Z</time>
      </trkpt>
      <trkpt lat="46.18538" lon="4.57809">
        <ele>696.2</ele>
        <time>2025-09-07T08:30:39Z</time>
      </trkpt>
      <trkpt lat="46.18539" lon="4.57812">
        <ele>696.2</ele>
        <time>2025-09-07T08:30:40Z</time>
      </trkpt>
      <trkpt lat="46.18539" lon="4.57815">
        <ele>696.6</ele>
        <time>2025-09-07T08:30:41Z</time>
      </trkpt>
      <trkpt lat="46.18539" lon="4.57817">
        <ele>696.6</ele>
        <time>2025-09-07T08:30:42Z</time>
      </trkpt>
      <trkpt lat="46.18539" lon="4.5782">
        <ele>696.6</ele>
        <time>2025-09-07T08:30:43Z</time>
      </trkpt>
      <trkpt lat="46.18539" lon="4.57822">
        <ele>696.4</ele>
        <time>2025-09-07T08:30:44Z</time>
      </trkpt>
      <trkpt lat="46.18538" lon="4.57825">
        <ele>696.4</ele>
        <time>2025-09-07T08:30:45Z</time>
      </trkpt>
      <trkpt lat="46.18539" lon="4.57827">
        <ele>696.4</ele>
        <time>2025-09-07T08:30:46Z</time>
      </trkpt>
      <trkpt lat="46.18539" lon="4.5783">
        <ele>696.4</ele>
        <time>2025-09-07T08:30:47Z</time>
      </trkpt>
      <trkpt lat="46.18539" lon="4.57833">
        <ele>696.4</ele>
        <time>2025-09-07T08:30:48Z</time>
      </trkpt>
      <trkpt lat="46.18539" lon="4.57835">
        <ele>696.8</ele>
        <time>2025-09-07T08:30:49Z</time>
      </trkpt>
      <trkpt lat="46.18539" lon="4.57838">
        <ele>696.8</ele>
        <time>2025-09-07T08:30:50Z</time>
      </trkpt>
      <trkpt lat="46.18539" lon="4.57841">
        <ele>696.8</ele>
        <time>2025-09-07T08:30:51Z</time>
      </trkpt>
      <trkpt lat="46.18539" lon="4.57843">
        <ele>697.2</ele>
        <time>2025-09-07T08:30:52Z</time>
      </trkpt>
      <trkpt lat="46.18539" lon="4.57846">
        <ele>697.2</ele>
        <time>2025-09-07T08:30:53Z</time>
      </trkpt>
      <trkpt lat="46.18539" lon="4.57848">
        <ele>697</ele>
        <time>2025-09-07T08:30:54Z</time>
      </trkpt>
      <trkpt lat="46.18538" lon="4.57851">
        <ele>697.6</ele>
        <time>2025-09-07T08:30:55Z</time>
      </trkpt>
      <trkpt lat="46.18537" lon="4.57852">
        <ele>697.6</ele>
        <time>2025-09-07T08:30:56Z</time>
      </trkpt>
      <trkpt lat="46.18536" lon="4.57854">
        <ele>697.4</ele>
        <time>2025-09-07T08:30:57Z</time>
      </trkpt>
      <trkpt lat="46.18535" lon="4.57857">
        <ele>697.8</ele>
        <time>2025-09-07T08:30:58Z</time>
      </trkpt>
      <trkpt lat="46.18535" lon="4.57859">
        <ele>697.8</ele>
        <time>2025-09-07T08:30:59Z</time>
      </trkpt>
      <trkpt lat="46.18534" lon="4.57861">
        <ele>697.8</ele>
        <time>2025-09-07T08:31:00Z</time>
      </trkpt>
      <trkpt lat="46.18533" lon="4.57862">
        <ele>698.4</ele>
        <time>2025-09-07T08:31:01Z</time>
      </trkpt>
      <trkpt lat="46.18532" lon="4.57863">
        <ele>698.6</ele>
        <time>2025-09-07T08:31:02Z</time>
      </trkpt>
      <trkpt lat="46.18531" lon="4.57865">
        <ele>699.2</ele>
        <time>2025-09-07T08:31:03Z</time>
      </trkpt>
      <trkpt lat="46.1853" lon="4.57867">
        <ele>699.4</ele>
        <time>2025-09-07T08:31:04Z</time>
      </trkpt>
      <trkpt lat="46.18529" lon="4.57869">
        <ele>699.4</ele>
        <time>2025-09-07T08:31:05Z</time>
      </trkpt>
      <trkpt lat="46.18528" lon="4.57871">
        <ele>700</ele>
        <time>2025-09-07T08:31:06Z</time>
      </trkpt>
      <trkpt lat="46.18527" lon="4.57873">
        <ele>700</ele>
        <time>2025-09-07T08:31:07Z</time>
      </trkpt>
      <trkpt lat="46.18526" lon="4.57875">
        <ele>700.4</ele>
        <time>2025-09-07T08:31:08Z</time>
      </trkpt>
      <trkpt lat="46.18526" lon="4.57877">
        <ele>700.4</ele>
        <time>2025-09-07T08:31:09Z</time>
      </trkpt>
      <trkpt lat="46.18525" lon="4.57878">
        <ele>700.4</ele>
        <time>2025-09-07T08:31:10Z</time>
      </trkpt>
      <trkpt lat="46.18525" lon="4.5788">
        <ele>700.6</ele>
        <time>2025-09-07T08:31:11Z</time>
      </trkpt>
      <trkpt lat="46.18524" lon="4.57882">
        <ele>700.6</ele>
        <time>2025-09-07T08:31:12Z</time>
      </trkpt>
      <trkpt lat="46.18523" lon="4.57884">
        <ele>700.4</ele>
        <time>2025-09-07T08:31:13Z</time>
      </trkpt>
      <trkpt lat="46.18522" lon="4.57886">
        <ele>700.2</ele>
        <time>2025-09-07T08:31:14Z</time>
      </trkpt>
      <trkpt lat="46.1852" lon="4.57888">
        <ele>700.2</ele>
        <time>2025-09-07T08:31:15Z</time>
      </trkpt>
      <trkpt lat="46.18519" lon="4.5789">
        <ele>700.4</ele>
        <time>2025-09-07T08:31:16Z</time>
      </trkpt>
      <trkpt lat="46.18519" lon="4.57892">
        <ele>700.4</ele>
        <time>2025-09-07T08:31:17Z</time>
      </trkpt>
      <trkpt lat="46.18519" lon="4.57894">
        <ele>700.4</ele>
        <time>2025-09-07T08:31:18Z</time>
      </trkpt>
      <trkpt lat="46.18519" lon="4.57895">
        <ele>700.2</ele>
        <time>2025-09-07T08:31:19Z</time>
      </trkpt>
      <trkpt lat="46.1852" lon="4.57896">
        <ele>700.4</ele>
        <time>2025-09-07T08:31:20Z</time>
      </trkpt>
      <trkpt lat="46.18522" lon="4.57898">
        <ele>700.4</ele>
        <time>2025-09-07T08:31:21Z</time>
      </trkpt>
      <trkpt lat="46.18523" lon="4.57899">
        <ele>700.8</ele>
        <time>2025-09-07T08:31:22Z</time>
      </trkpt>
      <trkpt lat="46.18524" lon="4.579">
        <ele>700.8</ele>
        <time>2025-09-07T08:31:23Z</time>
      </trkpt>
      <trkpt lat="46.18525" lon="4.57901">
        <ele>700.8</ele>
        <time>2025-09-07T08:31:24Z</time>
      </trkpt>
      <trkpt lat="46.18526" lon="4.57901">
        <ele>701</ele>
        <time>2025-09-07T08:31:25Z</time>
      </trkpt>
      <trkpt lat="46.18527" lon="4.57902">
        <ele>701.2</ele>
        <time>2025-09-07T08:31:26Z</time>
      </trkpt>
      <trkpt lat="46.18529" lon="4.57902">
        <ele>701.2</ele>
        <time>2025-09-07T08:31:27Z</time>
      </trkpt>
      <trkpt lat="46.1853" lon="4.57901">
        <ele>701.2</ele>
        <time>2025-09-07T08:31:28Z</time>
      </trkpt>
      <trkpt lat="46.18531" lon="4.579">
        <ele>701.6</ele>
        <time>2025-09-07T08:31:29Z</time>
      </trkpt>
      <trkpt lat="46.18533" lon="4.579">
        <ele>701.6</ele>
        <time>2025-09-07T08:31:30Z</time>
      </trkpt>
      <trkpt lat="46.18534" lon="4.57898">
        <ele>702</ele>
        <time>2025-09-07T08:31:31Z</time>
      </trkpt>
      <trkpt lat="46.18536" lon="4.57897">
        <ele>702</ele>
        <time>2025-09-07T08:31:32Z</time>
      </trkpt>
      <trkpt lat="46.18537" lon="4.57895">
        <ele>702</ele>
        <time>2025-09-07T08:31:33Z</time>
      </trkpt>
      <trkpt lat="46.18538" lon="4.57894">
        <ele>702</ele>
        <time>2025-09-07T08:31:34Z</time>
      </trkpt>
      <trkpt lat="46.18539" lon="4.57892">
        <ele>702</ele>
        <time>2025-09-07T08:31:35Z</time>
      </trkpt>
      <trkpt lat="46.1854" lon="4.5789">
        <ele>702</ele>
        <time>2025-09-07T08:31:36Z</time>
      </trkpt>
      <trkpt lat="46.18541" lon="4.57888">
        <ele>702</ele>
        <time>2025-09-07T08:31:37Z</time>
      </trkpt>
      <trkpt lat="46.18541" lon="4.57886">
        <ele>702.6</ele>
        <time>2025-09-07T08:31:38Z</time>
      </trkpt>
      <trkpt lat="46.18542" lon="4.57884">
        <ele>702.8</ele>
        <time>2025-09-07T08:31:39Z</time>
      </trkpt>
      <trkpt lat="46.18542" lon="4.57882">
        <ele>702.6</ele>
        <time>2025-09-07T08:31:40Z</time>
      </trkpt>
      <trkpt lat="46.18543" lon="4.5788">
        <ele>702.6</ele>
        <time>2025-09-07T08:31:41Z</time>
      </trkpt>
      <trkpt lat="46.18543" lon="4.57878">
        <ele>702.6</ele>
        <time>2025-09-07T08:31:42Z</time>
      </trkpt>
      <trkpt lat="46.18544" lon="4.57875">
        <ele>702.8</ele>
        <time>2025-09-07T08:31:43Z</time>
      </trkpt>
      <trkpt lat="46.18544" lon="4.57873">
        <ele>703</ele>
        <time>2025-09-07T08:31:44Z</time>
      </trkpt>
      <trkpt lat="46.18545" lon="4.5787">
        <ele>703</ele>
        <time>2025-09-07T08:31:45Z</time>
      </trkpt>
      <trkpt lat="46.18546" lon="4.57868">
        <ele>703</ele>
        <time>2025-09-07T08:31:46Z</time>
      </trkpt>
      <trkpt lat="46.18546" lon="4.57866">
        <ele>703</ele>
        <time>2025-09-07T08:31:47Z</time>
      </trkpt>
      <trkpt lat="46.18547" lon="4.57864">
        <ele>703.6</ele>
        <time>2025-09-07T08:31:48Z</time>
      </trkpt>
      <trkpt lat="46.18548" lon="4.57862">
        <ele>703.8</ele>
        <time>2025-09-07T08:31:49Z</time>
      </trkpt>
      <trkpt lat="46.18548" lon="4.57861">
        <ele>703.8</ele>
        <time>2025-09-07T08:31:50Z</time>
      </trkpt>
      <trkpt lat="46.18549" lon="4.5786">
        <ele>703.8</ele>
        <time>2025-09-07T08:31:51Z</time>
      </trkpt>
      <trkpt lat="46.1855" lon="4.57857">
        <ele>703.8</ele>
        <time>2025-09-07T08:31:52Z</time>
      </trkpt>
      <trkpt lat="46.1855" lon="4.57855">
        <ele>703.8</ele>
        <time>2025-09-07T08:31:53Z</time>
      </trkpt>
      <trkpt lat="46.1855" lon="4.57853">
        <ele>703.8</ele>
        <time>2025-09-07T08:31:54Z</time>
      </trkpt>
      <trkpt lat="46.18551" lon="4.5785">
        <ele>703.8</ele>
        <time>2025-09-07T08:31:55Z</time>
      </trkpt>
      <trkpt lat="46.18552" lon="4.57846">
        <ele>703.8</ele>
        <time>2025-09-07T08:31:56Z</time>
      </trkpt>
      <trkpt lat="46.18552" lon="4.57843">
        <ele>703.8</ele>
        <time>2025-09-07T08:31:57Z</time>
      </trkpt>
      <trkpt lat="46.18553" lon="4.5784">
        <ele>703.8</ele>
        <time>2025-09-07T08:31:58Z</time>
      </trkpt>
      <trkpt lat="46.18553" lon="4.57838">
        <ele>703.8</ele>
        <time>2025-09-07T08:31:59Z</time>
      </trkpt>
      <trkpt lat="46.18553" lon="4.57835">
        <ele>704.2</ele>
        <time>2025-09-07T08:32:00Z</time>
      </trkpt>
      <trkpt lat="46.18554" lon="4.57833">
        <ele>704.4</ele>
        <time>2025-09-07T08:32:01Z</time>
      </trkpt>
      <trkpt lat="46.18554" lon="4.57831">
        <ele>704.4</ele>
        <time>2025-09-07T08:32:02Z</time>
      </trkpt>
      <trkpt lat="46.18555" lon="4.57829">
        <ele>704.4</ele>
        <time>2025-09-07T08:32:03Z</time>
      </trkpt>
      <trkpt lat="46.18556" lon="4.57827">
        <ele>703.6</ele>
        <time>2025-09-07T08:32:04Z</time>
      </trkpt>
      <trkpt lat="46.18556" lon="4.57825">
        <ele>704.2</ele>
        <time>2025-09-07T08:32:05Z</time>
      </trkpt>
      <trkpt lat="46.18557" lon="4.57823">
        <ele>704.8</ele>
        <time>2025-09-07T08:32:06Z</time>
      </trkpt>
      <trkpt lat="46.18558" lon="4.57821">
        <ele>705</ele>
        <time>2025-09-07T08:32:07Z</time>
      </trkpt>
      <trkpt lat="46.18558" lon="4.57818">
        <ele>705</ele>
        <time>2025-09-07T08:32:08Z</time>
      </trkpt>
      <trkpt lat="46.18559" lon="4.57817">
        <ele>705.4</ele>
        <time>2025-09-07T08:32:09Z</time>
      </trkpt>
      <trkpt lat="46.18559" lon="4.57815">
        <ele>705.4</ele>
        <time>2025-09-07T08:32:10Z</time>
      </trkpt>
      <trkpt lat="46.1856" lon="4.57813">
        <ele>705.6</ele>
        <time>2025-09-07T08:32:11Z</time>
      </trkpt>
      <trkpt lat="46.18561" lon="4.57811">
        <ele>705.6</ele>
        <time>2025-09-07T08:32:12Z</time>
      </trkpt>
      <trkpt lat="46.18561" lon="4.57809">
        <ele>706</ele>
        <time>2025-09-07T08:32:13Z</time>
      </trkpt>
      <trkpt lat="46.18562" lon="4.57808">
        <ele>706</ele>
        <time>2025-09-07T08:32:14Z</time>
      </trkpt>
      <trkpt lat="46.18563" lon="4.57805">
        <ele>706</ele>
        <time>2025-09-07T08:32:15Z</time>
      </trkpt>
      <trkpt lat="46.18563" lon="4.57805">
        <ele>706.4</ele>
        <time>2025-09-07T08:32:16Z</time>
      </trkpt>
      <trkpt lat="46.18563" lon="4.57805">
        <ele>706.4</ele>
        <time>2025-09-07T08:32:17Z</time>
      </trkpt>
      <trkpt lat="46.18563" lon="4.57805">
        <ele>706.8</ele>
        <time>2025-09-07T08:32:18Z</time>
      </trkpt>
      <trkpt lat="46.18567" lon="4.57798">
        <ele>706.8</ele>
        <time>2025-09-07T08:32:19Z</time>
      </trkpt>
      <trkpt lat="46.18568" lon="4.57797">
        <ele>706.4</ele>
        <time>2025-09-07T08:32:20Z</time>
      </trkpt>
      <trkpt lat="46.18569" lon="4.57797">
        <ele>706.4</ele>
        <time>2025-09-07T08:32:21Z</time>
      </trkpt>
      <trkpt lat="46.1857" lon="4.57796">
        <ele>706.8</ele>
        <time>2025-09-07T08:32:22Z</time>
      </trkpt>
      <trkpt lat="46.18571" lon="4.57795">
        <ele>707.2</ele>
        <time>2025-09-07T08:32:23Z</time>
      </trkpt>
      <trkpt lat="46.18572" lon="4.57794">
        <ele>707.2</ele>
        <time>2025-09-07T08:32:24Z</time>
      </trkpt>
      <trkpt lat="46.18572" lon="4.57793">
        <ele>707.2</ele>
        <time>2025-09-07T08:32:25Z</time>
      </trkpt>
      <trkpt lat="46.18573" lon="4.57791">
        <ele>707.2</ele>
        <time>2025-09-07T08:32:26Z</time>
      </trkpt>
      <trkpt lat="46.18574" lon="4.5779">
        <ele>707.4</ele>
        <time>2025-09-07T08:32:27Z</time>
      </trkpt>
      <trkpt lat="46.18575" lon="4.57788">
        <ele>707.4</ele>
        <time>2025-09-07T08:32:28Z</time>
      </trkpt>
      <trkpt lat="46.18576" lon="4.57785">
        <ele>707.4</ele>
        <time>2025-09-07T08:32:29Z</time>
      </trkpt>
      <trkpt lat="46.18577" lon="4.57782">
        <ele>707.4</ele>
        <time>2025-09-07T08:32:30Z</time>
      </trkpt>
      <trkpt lat="46.18578" lon="4.57781">
        <ele>708.2</ele>
        <time>2025-09-07T08:32:31Z</time>
      </trkpt>
      <trkpt lat="46.18579" lon="4.57779">
        <ele>708.6</ele>
        <time>2025-09-07T08:32:32Z</time>
      </trkpt>
      <trkpt lat="46.18579" lon="4.57777">
        <ele>708.6</ele>
        <time>2025-09-07T08:32:33Z</time>
      </trkpt>
      <trkpt lat="46.1858" lon="4.57773">
        <ele>709</ele>
        <time>2025-09-07T08:32:34Z</time>
      </trkpt>
      <trkpt lat="46.1858" lon="4.5777">
        <ele>709.2</ele>
        <time>2025-09-07T08:32:35Z</time>
      </trkpt>
      <trkpt lat="46.18581" lon="4.57768">
        <ele>709.2</ele>
        <time>2025-09-07T08:32:36Z</time>
      </trkpt>
      <trkpt lat="46.18581" lon="4.57766">
        <ele>709.2</ele>
        <time>2025-09-07T08:32:37Z</time>
      </trkpt>
      <trkpt lat="46.18582" lon="4.57764">
        <ele>709.2</ele>
        <time>2025-09-07T08:32:38Z</time>
      </trkpt>
      <trkpt lat="46.18583" lon="4.57763">
        <ele>709.4</ele>
        <time>2025-09-07T08:32:39Z</time>
      </trkpt>
      <trkpt lat="46.18584" lon="4.57761">
        <ele>709.6</ele>
        <time>2025-09-07T08:32:40Z</time>
      </trkpt>
      <trkpt lat="46.18584" lon="4.5776">
        <ele>709.6</ele>
        <time>2025-09-07T08:32:41Z</time>
      </trkpt>
      <trkpt lat="46.18585" lon="4.57758">
        <ele>709</ele>
        <time>2025-09-07T08:32:42Z</time>
      </trkpt>
      <trkpt lat="46.18587" lon="4.57756">
        <ele>709.2</ele>
        <time>2025-09-07T08:32:43Z</time>
      </trkpt>
      <trkpt lat="46.18588" lon="4.57754">
        <ele>709.2</ele>
        <time>2025-09-07T08:32:44Z</time>
      </trkpt>
      <trkpt lat="46.18589" lon="4.57752">
        <ele>709.6</ele>
        <time>2025-09-07T08:32:45Z</time>
      </trkpt>
      <trkpt lat="46.1859" lon="4.57751">
        <ele>710</ele>
        <time>2025-09-07T08:32:46Z</time>
      </trkpt>
      <trkpt lat="46.18591" lon="4.57749">
        <ele>710.2</ele>
        <time>2025-09-07T08:32:47Z</time>
      </trkpt>
      <trkpt lat="46.18592" lon="4.57748">
        <ele>710.2</ele>
        <time>2025-09-07T08:32:48Z</time>
      </trkpt>
      <trkpt lat="46.18593" lon="4.57746">
        <ele>710.2</ele>
        <time>2025-09-07T08:32:49Z</time>
      </trkpt>
      <trkpt lat="46.18594" lon="4.57745">
        <ele>710.4</ele>
        <time>2025-09-07T08:32:50Z</time>
      </trkpt>
      <trkpt lat="46.18595" lon="4.57743">
        <ele>711</ele>
        <time>2025-09-07T08:32:51Z</time>
      </trkpt>
      <trkpt lat="46.18595" lon="4.57742">
        <ele>711.4</ele>
        <time>2025-09-07T08:32:52Z</time>
      </trkpt>
      <trkpt lat="46.18595" lon="4.5774">
        <ele>711.8</ele>
        <time>2025-09-07T08:32:53Z</time>
      </trkpt>
      <trkpt lat="46.18595" lon="4.57738">
        <ele>711.8</ele>
        <time>2025-09-07T08:32:54Z</time>
      </trkpt>
      <trkpt lat="46.18595" lon="4.57736">
        <ele>711.8</ele>
        <time>2025-09-07T08:32:55Z</time>
      </trkpt>
      <trkpt lat="46.18595" lon="4.57736">
        <ele>712.2</ele>
        <time>2025-09-07T08:32:56Z</time>
      </trkpt>
      <trkpt lat="46.18597" lon="4.57735">
        <ele>712.6</ele>
        <time>2025-09-07T08:32:57Z</time>
      </trkpt>
      <trkpt lat="46.18598" lon="4.57734">
        <ele>712.6</ele>
        <time>2025-09-07T08:32:58Z</time>
      </trkpt>
      <trkpt lat="46.18598" lon="4.57732">
        <ele>713</ele>
        <time>2025-09-07T08:32:59Z</time>
      </trkpt>
      <trkpt lat="46.18598" lon="4.57732">
        <ele>713.2</ele>
        <time>2025-09-07T08:33:00Z</time>
      </trkpt>
      <trkpt lat="46.18599" lon="4.57728">
        <ele>713.2</ele>
        <time>2025-09-07T08:33:01Z</time>
      </trkpt>
      <trkpt lat="46.186" lon="4.57727">
        <ele>713.4</ele>
        <time>2025-09-07T08:33:02Z</time>
      </trkpt>
      <trkpt lat="46.18601" lon="4.57726">
        <ele>713.4</ele>
        <time>2025-09-07T08:33:03Z</time>
      </trkpt>
      <trkpt lat="46.18602" lon="4.57724">
        <ele>713.4</ele>
        <time>2025-09-07T08:33:04Z</time>
      </trkpt>
      <trkpt lat="46.18603" lon="4.57723">
        <ele>714</ele>
        <time>2025-09-07T08:33:05Z</time>
      </trkpt>
      <trkpt lat="46.18604" lon="4.57721">
        <ele>714.2</ele>
        <time>2025-09-07T08:33:06Z</time>
      </trkpt>
      <trkpt lat="46.18605" lon="4.5772">
        <ele>714.4</ele>
        <time>2025-09-07T08:33:07Z</time>
      </trkpt>
      <trkpt lat="46.18606" lon="4.57718">
        <ele>714.4</ele>
        <time>2025-09-07T08:33:08Z</time>
      </trkpt>
      <trkpt lat="46.18607" lon="4.57718">
        <ele>714.8</ele>
        <time>2025-09-07T08:33:09Z</time>
      </trkpt>
      <trkpt lat="46.18607" lon="4.57717">
        <ele>715.2</ele>
        <time>2025-09-07T08:33:10Z</time>
      </trkpt>
      <trkpt lat="46.18608" lon="4.57715">
        <ele>715.2</ele>
        <time>2025-09-07T08:33:11Z</time>
      </trkpt>
      <trkpt lat="46.18609" lon="4.57715">
        <ele>715.2</ele>
        <time>2025-09-07T08:33:12Z</time>
      </trkpt>
      <trkpt lat="46.1861" lon="4.57713">
        <ele>715.6</ele>
        <time>2025-09-07T08:33:13Z</time>
      </trkpt>
      <trkpt lat="46.18611" lon="4.57712">
        <ele>715.6</ele>
        <time>2025-09-07T08:33:14Z</time>
      </trkpt>
      <trkpt lat="46.18612" lon="4.5771">
        <ele>715.6</ele>
        <time>2025-09-07T08:33:15Z</time>
      </trkpt>
      <trkpt lat="46.18612" lon="4.57709">
        <ele>715.6</ele>
        <time>2025-09-07T08:33:16Z</time>
      </trkpt>
      <trkpt lat="46.18612" lon="4.57707">
        <ele>715.6</ele>
        <time>2025-09-07T08:33:17Z</time>
      </trkpt>
      <trkpt lat="46.18612" lon="4.57705">
        <ele>716</ele>
        <time>2025-09-07T08:33:18Z</time>
      </trkpt>
      <trkpt lat="46.18613" lon="4.57704">
        <ele>716.6</ele>
        <time>2025-09-07T08:33:19Z</time>
      </trkpt>
      <trkpt lat="46.18614" lon="4.57702">
        <ele>716.2</ele>
        <time>2025-09-07T08:33:20Z</time>
      </trkpt>
      <trkpt lat="46.18615" lon="4.57701">
        <ele>716.2</ele>
        <time>2025-09-07T08:33:21Z</time>
      </trkpt>
      <trkpt lat="46.18616" lon="4.577">
        <ele>716.8</ele>
        <time>2025-09-07T08:33:22Z</time>
      </trkpt>
      <trkpt lat="46.18616" lon="4.57699">
        <ele>716.8</ele>
        <time>2025-09-07T08:33:23Z</time>
      </trkpt>
      <trkpt lat="46.18617" lon="4.57697">
        <ele>716.8</ele>
        <time>2025-09-07T08:33:24Z</time>
      </trkpt>
      <trkpt lat="46.18618" lon="4.57696">
        <ele>716.8</ele>
        <time>2025-09-07T08:33:25Z</time>
      </trkpt>
      <trkpt lat="46.18619" lon="4.57695">
        <ele>717</ele>
        <time>2025-09-07T08:33:26Z</time>
      </trkpt>
      <trkpt lat="46.18619" lon="4.57694">
        <ele>717.2</ele>
        <time>2025-09-07T08:33:27Z</time>
      </trkpt>
      <trkpt lat="46.1862" lon="4.57693">
        <ele>717.2</ele>
        <time>2025-09-07T08:33:28Z</time>
      </trkpt>
      <trkpt lat="46.18621" lon="4.57692">
        <ele>717.2</ele>
        <time>2025-09-07T08:33:29Z</time>
      </trkpt>
      <trkpt lat="46.18622" lon="4.5769">
        <ele>717.6</ele>
        <time>2025-09-07T08:33:30Z</time>
      </trkpt>
      <trkpt lat="46.18623" lon="4.57689">
        <ele>717.8</ele>
        <time>2025-09-07T08:33:31Z</time>
      </trkpt>
      <trkpt lat="46.18624" lon="4.57688">
        <ele>717.8</ele>
        <time>2025-09-07T08:33:32Z</time>
      </trkpt>
      <trkpt lat="46.18625" lon="4.57688">
        <ele>717.8</ele>
        <time>2025-09-07T08:33:33Z</time>
      </trkpt>
      <trkpt lat="46.18627" lon="4.57687">
        <ele>717.8</ele>
        <time>2025-09-07T08:33:34Z</time>
      </trkpt>
      <trkpt lat="46.18628" lon="4.57686">
        <ele>718.2</ele>
        <time>2025-09-07T08:33:35Z</time>
      </trkpt>
      <trkpt lat="46.18629" lon="4.57684">
        <ele>717.8</ele>
        <time>2025-09-07T08:33:36Z</time>
      </trkpt>
      <trkpt lat="46.1863" lon="4.57684">
        <ele>718.2</ele>
        <time>2025-09-07T08:33:37Z</time>
      </trkpt>
      <trkpt lat="46.18631" lon="4.57683">
        <ele>718.8</ele>
        <time>2025-09-07T08:33:38Z</time>
      </trkpt>
      <trkpt lat="46.18631" lon="4.57683">
        <ele>718.8</ele>
        <time>2025-09-07T08:33:39Z</time>
      </trkpt>
      <trkpt lat="46.18632" lon="4.57682">
        <ele>719.2</ele>
        <time>2025-09-07T08:33:40Z</time>
      </trkpt>
      <trkpt lat="46.18634" lon="4.57681">
        <ele>719.4</ele>
        <time>2025-09-07T08:33:41Z</time>
      </trkpt>
      <trkpt lat="46.18635" lon="4.57679">
        <ele>719.6</ele>
        <time>2025-09-07T08:33:42Z</time>
      </trkpt>
      <trkpt lat="46.18636" lon="4.57678">
        <ele>719.6</ele>
        <time>2025-09-07T08:33:43Z</time>
      </trkpt>
      <trkpt lat="46.18637" lon="4.57677">
        <ele>719.8</ele>
        <time>2025-09-07T08:33:44Z</time>
      </trkpt>
      <trkpt lat="46.18639" lon="4.57676">
        <ele>719.8</ele>
        <time>2025-09-07T08:33:45Z</time>
      </trkpt>
      <trkpt lat="46.1864" lon="4.57676">
        <ele>720.2</ele>
        <time>2025-09-07T08:33:46Z</time>
      </trkpt>
      <trkpt lat="46.18641" lon="4.57675">
        <ele>720</ele>
        <time>2025-09-07T08:33:47Z</time>
      </trkpt>
      <trkpt lat="46.18642" lon="4.57674">
        <ele>720</ele>
        <time>2025-09-07T08:33:48Z</time>
      </trkpt>
      <trkpt lat="46.18643" lon="4.57672">
        <ele>720.2</ele>
        <time>2025-09-07T08:33:49Z</time>
      </trkpt>
      <trkpt lat="46.18644" lon="4.57671">
        <ele>720.2</ele>
        <time>2025-09-07T08:33:50Z</time>
      </trkpt>
      <trkpt lat="46.18646" lon="4.5767">
        <ele>720.8</ele>
        <time>2025-09-07T08:33:51Z</time>
      </trkpt>
      <trkpt lat="46.18649" lon="4.57668">
        <ele>721</ele>
        <time>2025-09-07T08:33:52Z</time>
      </trkpt>
      <trkpt lat="46.1865" lon="4.57667">
        <ele>721</ele>
        <time>2025-09-07T08:33:53Z</time>
      </trkpt>
      <trkpt lat="46.18652" lon="4.57666">
        <ele>721</ele>
        <time>2025-09-07T08:33:54Z</time>
      </trkpt>
      <trkpt lat="46.18653" lon="4.57665">
        <ele>721</ele>
        <time>2025-09-07T08:33:55Z</time>
      </trkpt>
      <trkpt lat="46.18655" lon="4.57664">
        <ele>721</ele>
        <time>2025-09-07T08:33:56Z</time>
      </trkpt>
      <trkpt lat="46.18656" lon="4.57663">
        <ele>721</ele>
        <time>2025-09-07T08:33:57Z</time>
      </trkpt>
      <trkpt lat="46.18657" lon="4.57662">
        <ele>721</ele>
        <time>2025-09-07T08:33:58Z</time>
      </trkpt>
      <trkpt lat="46.18659" lon="4.57661">
        <ele>721.4</ele>
        <time>2025-09-07T08:33:59Z</time>
      </trkpt>
      <trkpt lat="46.1866" lon="4.57661">
        <ele>721.4</ele>
        <time>2025-09-07T08:34:00Z</time>
      </trkpt>
      <trkpt lat="46.18662" lon="4.5766">
        <ele>721.4</ele>
        <time>2025-09-07T08:34:01Z</time>
      </trkpt>
      <trkpt lat="46.18663" lon="4.5766">
        <ele>721.6</ele>
        <time>2025-09-07T08:34:02Z</time>
      </trkpt>
      <trkpt lat="46.18664" lon="4.57659">
        <ele>721.6</ele>
        <time>2025-09-07T08:34:03Z</time>
      </trkpt>
      <trkpt lat="46.18666" lon="4.57658">
        <ele>721.8</ele>
        <time>2025-09-07T08:34:04Z</time>
      </trkpt>
      <trkpt lat="46.18668" lon="4.57657">
        <ele>722.2</ele>
        <time>2025-09-07T08:34:05Z</time>
      </trkpt>
      <trkpt lat="46.18669" lon="4.57656">
        <ele>722.2</ele>
        <time>2025-09-07T08:34:06Z</time>
      </trkpt>
      <trkpt lat="46.1867" lon="4.57656">
        <ele>722.2</ele>
        <time>2025-09-07T08:34:07Z</time>
      </trkpt>
      <trkpt lat="46.18671" lon="4.57655">
        <ele>722.4</ele>
        <time>2025-09-07T08:34:08Z</time>
      </trkpt>
      <trkpt lat="46.18673" lon="4.57654">
        <ele>722.4</ele>
        <time>2025-09-07T08:34:09Z</time>
      </trkpt>
      <trkpt lat="46.18675" lon="4.57653">
        <ele>722.4</ele>
        <time>2025-09-07T08:34:10Z</time>
      </trkpt>
      <trkpt lat="46.18676" lon="4.57653">
        <ele>722.4</ele>
        <time>2025-09-07T08:34:11Z</time>
      </trkpt>
      <trkpt lat="46.18678" lon="4.57653">
        <ele>722.4</ele>
        <time>2025-09-07T08:34:12Z</time>
      </trkpt>
      <trkpt lat="46.1868" lon="4.57652">
        <ele>722.6</ele>
        <time>2025-09-07T08:34:13Z</time>
      </trkpt>
      <trkpt lat="46.18681" lon="4.57651">
        <ele>723</ele>
        <time>2025-09-07T08:34:14Z</time>
      </trkpt>
      <trkpt lat="46.18683" lon="4.57651">
        <ele>723.2</ele>
        <time>2025-09-07T08:34:15Z</time>
      </trkpt>
      <trkpt lat="46.18684" lon="4.5765">
        <ele>723.2</ele>
        <time>2025-09-07T08:34:16Z</time>
      </trkpt>
      <trkpt lat="46.18686" lon="4.57649">
        <ele>723.2</ele>
        <time>2025-09-07T08:34:17Z</time>
      </trkpt>
      <trkpt lat="46.18688" lon="4.57648">
        <ele>723.2</ele>
        <time>2025-09-07T08:34:18Z</time>
      </trkpt>
      <trkpt lat="46.18689" lon="4.57648">
        <ele>723.6</ele>
        <time>2025-09-07T08:34:19Z</time>
      </trkpt>
      <trkpt lat="46.1869" lon="4.57647">
        <ele>723.6</ele>
        <time>2025-09-07T08:34:20Z</time>
      </trkpt>
      <trkpt lat="46.18691" lon="4.57647">
        <ele>723.6</ele>
        <time>2025-09-07T08:34:21Z</time>
      </trkpt>
      <trkpt lat="46.18693" lon="4.57646">
        <ele>723.6</ele>
        <time>2025-09-07T08:34:22Z</time>
      </trkpt>
      <trkpt lat="46.18695" lon="4.57646">
        <ele>724</ele>
        <time>2025-09-07T08:34:23Z</time>
      </trkpt>
      <trkpt lat="46.18696" lon="4.57646">
        <ele>724</ele>
        <time>2025-09-07T08:34:24Z</time>
      </trkpt>
      <trkpt lat="46.18697" lon="4.57645">
        <ele>724</ele>
        <time>2025-09-07T08:34:25Z</time>
      </trkpt>
      <trkpt lat="46.18698" lon="4.57645">
        <ele>724</ele>
        <time>2025-09-07T08:34:26Z</time>
      </trkpt>
      <trkpt lat="46.187" lon="4.57645">
        <ele>724</ele>
        <time>2025-09-07T08:34:27Z</time>
      </trkpt>
      <trkpt lat="46.18701" lon="4.57646">
        <ele>724</ele>
        <time>2025-09-07T08:34:28Z</time>
      </trkpt>
      <trkpt lat="46.18703" lon="4.57646">
        <ele>724</ele>
        <time>2025-09-07T08:34:29Z</time>
      </trkpt>
      <trkpt lat="46.18704" lon="4.57645">
        <ele>724</ele>
        <time>2025-09-07T08:34:30Z</time>
      </trkpt>
      <trkpt lat="46.18705" lon="4.57645">
        <ele>724.4</ele>
        <time>2025-09-07T08:34:31Z</time>
      </trkpt>
      <trkpt lat="46.18706" lon="4.57645">
        <ele>724.4</ele>
        <time>2025-09-07T08:34:32Z</time>
      </trkpt>
      <trkpt lat="46.18708" lon="4.57645">
        <ele>724.8</ele>
        <time>2025-09-07T08:34:33Z</time>
      </trkpt>
      <trkpt lat="46.18709" lon="4.57644">
        <ele>724.8</ele>
        <time>2025-09-07T08:34:34Z</time>
      </trkpt>
      <trkpt lat="46.1871" lon="4.57643">
        <ele>725.2</ele>
        <time>2025-09-07T08:34:35Z</time>
      </trkpt>
      <trkpt lat="46.18712" lon="4.57643">
        <ele>725.2</ele>
        <time>2025-09-07T08:34:36Z</time>
      </trkpt>
      <trkpt lat="46.18713" lon="4.57643">
        <ele>725.2</ele>
        <time>2025-09-07T08:34:37Z</time>
      </trkpt>
      <trkpt lat="46.18715" lon="4.57643">
        <ele>726</ele>
        <time>2025-09-07T08:34:38Z</time>
      </trkpt>
      <trkpt lat="46.18716" lon="4.57643">
        <ele>726</ele>
        <time>2025-09-07T08:34:39Z</time>
      </trkpt>
      <trkpt lat="46.18718" lon="4.57643">
        <ele>726</ele>
        <time>2025-09-07T08:34:40Z</time>
      </trkpt>
      <trkpt lat="46.18719" lon="4.57643">
        <ele>726</ele>
        <time>2025-09-07T08:34:41Z</time>
      </trkpt>
      <trkpt lat="46.18721" lon="4.57643">
        <ele>726.6</ele>
        <time>2025-09-07T08:34:42Z</time>
      </trkpt>
      <trkpt lat="46.18722" lon="4.57643">
        <ele>727.6</ele>
        <time>2025-09-07T08:34:43Z</time>
      </trkpt>
      <trkpt lat="46.18724" lon="4.57643">
        <ele>727.8</ele>
        <time>2025-09-07T08:34:44Z</time>
      </trkpt>
      <trkpt lat="46.18724" lon="4.57643">
        <ele>727.8</ele>
        <time>2025-09-07T08:34:45Z</time>
      </trkpt>
      <trkpt lat="46.18725" lon="4.57643">
        <ele>727.8</ele>
        <time>2025-09-07T08:34:46Z</time>
      </trkpt>
      <trkpt lat="46.18727" lon="4.57643">
        <ele>728.2</ele>
        <time>2025-09-07T08:34:47Z</time>
      </trkpt>
      <trkpt lat="46.18729" lon="4.57643">
        <ele>727.8</ele>
        <time>2025-09-07T08:34:48Z</time>
      </trkpt>
      <trkpt lat="46.1873" lon="4.57643">
        <ele>727.8</ele>
        <time>2025-09-07T08:34:49Z</time>
      </trkpt>
      <trkpt lat="46.18732" lon="4.57644">
        <ele>727.8</ele>
        <time>2025-09-07T08:34:50Z</time>
      </trkpt>
      <trkpt lat="46.18734" lon="4.57645">
        <ele>728.4</ele>
        <time>2025-09-07T08:34:51Z</time>
      </trkpt>
      <trkpt lat="46.18735" lon="4.57645">
        <ele>728.4</ele>
        <time>2025-09-07T08:34:52Z</time>
      </trkpt>
      <trkpt lat="46.18737" lon="4.57646">
        <ele>728.8</ele>
        <time>2025-09-07T08:34:53Z</time>
      </trkpt>
      <trkpt lat="46.18738" lon="4.57646">
        <ele>729.2</ele>
        <time>2025-09-07T08:34:54Z</time>
      </trkpt>
      <trkpt lat="46.1874" lon="4.57646">
        <ele>729.6</ele>
        <time>2025-09-07T08:34:55Z</time>
      </trkpt>
      <trkpt lat="46.18742" lon="4.57646">
        <ele>729.6</ele>
        <time>2025-09-07T08:34:56Z</time>
      </trkpt>
      <trkpt lat="46.18743" lon="4.57646">
        <ele>729.6</ele>
        <time>2025-09-07T08:34:57Z</time>
      </trkpt>
      <trkpt lat="46.18744" lon="4.57645">
        <ele>729.8</ele>
        <time>2025-09-07T08:34:58Z</time>
      </trkpt>
      <trkpt lat="46.18746" lon="4.57645">
        <ele>729.8</ele>
        <time>2025-09-07T08:34:59Z</time>
      </trkpt>
      <trkpt lat="46.18747" lon="4.57645">
        <ele>729.8</ele>
        <time>2025-09-07T08:35:00Z</time>
      </trkpt>
      <trkpt lat="46.18749" lon="4.57645">
        <ele>729.8</ele>
        <time>2025-09-07T08:35:01Z</time>
      </trkpt>
      <trkpt lat="46.18751" lon="4.57645">
        <ele>729.8</ele>
        <time>2025-09-07T08:35:02Z</time>
      </trkpt>
      <trkpt lat="46.18752" lon="4.57645">
        <ele>730.2</ele>
        <time>2025-09-07T08:35:03Z</time>
      </trkpt>
      <trkpt lat="46.18753" lon="4.57644">
        <ele>730.2</ele>
        <time>2025-09-07T08:35:04Z</time>
      </trkpt>
      <trkpt lat="46.18755" lon="4.57644">
        <ele>730.2</ele>
        <time>2025-09-07T08:35:05Z</time>
      </trkpt>
      <trkpt lat="46.18756" lon="4.57644">
        <ele>730.2</ele>
        <time>2025-09-07T08:35:06Z</time>
      </trkpt>
      <trkpt lat="46.18758" lon="4.57645">
        <ele>730.2</ele>
        <time>2025-09-07T08:35:07Z</time>
      </trkpt>
      <trkpt lat="46.18759" lon="4.57646">
        <ele>730.8</ele>
        <time>2025-09-07T08:35:08Z</time>
      </trkpt>
      <trkpt lat="46.18761" lon="4.57646">
        <ele>731</ele>
        <time>2025-09-07T08:35:09Z</time>
      </trkpt>
      <trkpt lat="46.18762" lon="4.57646">
        <ele>731</ele>
        <time>2025-09-07T08:35:10Z</time>
      </trkpt>
      <trkpt lat="46.18763" lon="4.57645">
        <ele>731</ele>
        <time>2025-09-07T08:35:11Z</time>
      </trkpt>
      <trkpt lat="46.18764" lon="4.57645">
        <ele>731</ele>
        <time>2025-09-07T08:35:12Z</time>
      </trkpt>
      <trkpt lat="46.18765" lon="4.57645">
        <ele>731.4</ele>
        <time>2025-09-07T08:35:13Z</time>
      </trkpt>
      <trkpt lat="46.18767" lon="4.57646">
        <ele>731.4</ele>
        <time>2025-09-07T08:35:14Z</time>
      </trkpt>
      <trkpt lat="46.18768" lon="4.57647">
        <ele>731.4</ele>
        <time>2025-09-07T08:35:15Z</time>
      </trkpt>
      <trkpt lat="46.1877" lon="4.57648">
        <ele>731.4</ele>
        <time>2025-09-07T08:35:16Z</time>
      </trkpt>
      <trkpt lat="46.18771" lon="4.57648">
        <ele>731.8</ele>
        <time>2025-09-07T08:35:17Z</time>
      </trkpt>
      <trkpt lat="46.18773" lon="4.57649">
        <ele>732.2</ele>
        <time>2025-09-07T08:35:18Z</time>
      </trkpt>
      <trkpt lat="46.18774" lon="4.57648">
        <ele>732</ele>
        <time>2025-09-07T08:35:19Z</time>
      </trkpt>
      <trkpt lat="46.18775" lon="4.57648">
        <ele>732</ele>
        <time>2025-09-07T08:35:20Z</time>
      </trkpt>
      <trkpt lat="46.18777" lon="4.57648">
        <ele>732</ele>
        <time>2025-09-07T08:35:21Z</time>
      </trkpt>
      <trkpt lat="46.18778" lon="4.57647">
        <ele>732.2</ele>
        <time>2025-09-07T08:35:22Z</time>
      </trkpt>
      <trkpt lat="46.1878" lon="4.57647">
        <ele>732.2</ele>
        <time>2025-09-07T08:35:23Z</time>
      </trkpt>
      <trkpt lat="46.18781" lon="4.57646">
        <ele>732.2</ele>
        <time>2025-09-07T08:35:24Z</time>
      </trkpt>
      <trkpt lat="46.18783" lon="4.57645">
        <ele>732.2</ele>
        <time>2025-09-07T08:35:25Z</time>
      </trkpt>
      <trkpt lat="46.18784" lon="4.57645">
        <ele>732.6</ele>
        <time>2025-09-07T08:35:26Z</time>
      </trkpt>
      <trkpt lat="46.18786" lon="4.57644">
        <ele>732.6</ele>
        <time>2025-09-07T08:35:27Z</time>
      </trkpt>
      <trkpt lat="46.18787" lon="4.57643">
        <ele>732.8</ele>
        <time>2025-09-07T08:35:28Z</time>
      </trkpt>
      <trkpt lat="46.18789" lon="4.57643">
        <ele>733</ele>
        <time>2025-09-07T08:35:29Z</time>
      </trkpt>
      <trkpt lat="46.1879" lon="4.57643">
        <ele>733</ele>
        <time>2025-09-07T08:35:30Z</time>
      </trkpt>
      <trkpt lat="46.18792" lon="4.57642">
        <ele>733</ele>
        <time>2025-09-07T08:35:31Z</time>
      </trkpt>
      <trkpt lat="46.18793" lon="4.57641">
        <ele>733.4</ele>
        <time>2025-09-07T08:35:32Z</time>
      </trkpt>
      <trkpt lat="46.18794" lon="4.57641">
        <ele>733.4</ele>
        <time>2025-09-07T08:35:33Z</time>
      </trkpt>
      <trkpt lat="46.18795" lon="4.57641">
        <ele>733.4</ele>
        <time>2025-09-07T08:35:34Z</time>
      </trkpt>
      <trkpt lat="46.18797" lon="4.57641">
        <ele>733.4</ele>
        <time>2025-09-07T08:35:35Z</time>
      </trkpt>
      <trkpt lat="46.18799" lon="4.5764">
        <ele>733.8</ele>
        <time>2025-09-07T08:35:36Z</time>
      </trkpt>
      <trkpt lat="46.188" lon="4.5764">
        <ele>733.8</ele>
        <time>2025-09-07T08:35:37Z</time>
      </trkpt>
      <trkpt lat="46.18802" lon="4.5764">
        <ele>733.8</ele>
        <time>2025-09-07T08:35:38Z</time>
      </trkpt>
      <trkpt lat="46.18803" lon="4.57641">
        <ele>734</ele>
        <time>2025-09-07T08:35:39Z</time>
      </trkpt>
      <trkpt lat="46.18804" lon="4.57641">
        <ele>734</ele>
        <time>2025-09-07T08:35:40Z</time>
      </trkpt>
      <trkpt lat="46.18806" lon="4.57641">
        <ele>734.4</ele>
        <time>2025-09-07T08:35:41Z</time>
      </trkpt>
      <trkpt lat="46.18808" lon="4.5764">
        <ele>735</ele>
        <time>2025-09-07T08:35:42Z</time>
      </trkpt>
      <trkpt lat="46.18809" lon="4.5764">
        <ele>734.6</ele>
        <time>2025-09-07T08:35:43Z</time>
      </trkpt>
      <trkpt lat="46.18811" lon="4.5764">
        <ele>734.6</ele>
        <time>2025-09-07T08:35:44Z</time>
      </trkpt>
      <trkpt lat="46.18812" lon="4.5764">
        <ele>734.6</ele>
        <time>2025-09-07T08:35:45Z</time>
      </trkpt>
      <trkpt lat="46.18814" lon="4.5764">
        <ele>734.6</ele>
        <time>2025-09-07T08:35:46Z</time>
      </trkpt>
      <trkpt lat="46.18815" lon="4.5764">
        <ele>735.4</ele>
        <time>2025-09-07T08:35:47Z</time>
      </trkpt>
      <trkpt lat="46.18816" lon="4.57639">
        <ele>735.4</ele>
        <time>2025-09-07T08:35:48Z</time>
      </trkpt>
      <trkpt lat="46.18817" lon="4.57639">
        <ele>736</ele>
        <time>2025-09-07T08:35:49Z</time>
      </trkpt>
      <trkpt lat="46.18819" lon="4.57638">
        <ele>736</ele>
        <time>2025-09-07T08:35:50Z</time>
      </trkpt>
      <trkpt lat="46.1882" lon="4.57637">
        <ele>736</ele>
        <time>2025-09-07T08:35:51Z</time>
      </trkpt>
      <trkpt lat="46.18821" lon="4.57636">
        <ele>736</ele>
        <time>2025-09-07T08:35:52Z</time>
      </trkpt>
      <trkpt lat="46.18823" lon="4.57636">
        <ele>736.4</ele>
        <time>2025-09-07T08:35:53Z</time>
      </trkpt>
      <trkpt lat="46.18824" lon="4.57636">
        <ele>736.6</ele>
        <time>2025-09-07T08:35:54Z</time>
      </trkpt>
      <trkpt lat="46.18826" lon="4.57636">
        <ele>736.6</ele>
        <time>2025-09-07T08:35:55Z</time>
      </trkpt>
      <trkpt lat="46.18828" lon="4.57636">
        <ele>737</ele>
        <time>2025-09-07T08:35:56Z</time>
      </trkpt>
      <trkpt lat="46.18829" lon="4.57635">
        <ele>737</ele>
        <time>2025-09-07T08:35:57Z</time>
      </trkpt>
      <trkpt lat="46.1883" lon="4.57635">
        <ele>737.4</ele>
        <time>2025-09-07T08:35:58Z</time>
      </trkpt>
      <trkpt lat="46.18831" lon="4.57634">
        <ele>737.4</ele>
        <time>2025-09-07T08:35:59Z</time>
      </trkpt>
      <trkpt lat="46.18832" lon="4.57634">
        <ele>738</ele>
        <time>2025-09-07T08:36:00Z</time>
      </trkpt>
      <trkpt lat="46.18834" lon="4.57634">
        <ele>738.4</ele>
        <time>2025-09-07T08:36:01Z</time>
      </trkpt>
      <trkpt lat="46.18835" lon="4.57634">
        <ele>738.4</ele>
        <time>2025-09-07T08:36:02Z</time>
      </trkpt>
      <trkpt lat="46.18836" lon="4.57634">
        <ele>738.2</ele>
        <time>2025-09-07T08:36:03Z</time>
      </trkpt>
      <trkpt lat="46.18837" lon="4.57634">
        <ele>738.4</ele>
        <time>2025-09-07T08:36:04Z</time>
      </trkpt>
      <trkpt lat="46.18839" lon="4.57634">
        <ele>738.6</ele>
        <time>2025-09-07T08:36:05Z</time>
      </trkpt>
      <trkpt lat="46.18839" lon="4.57634">
        <ele>738.6</ele>
        <time>2025-09-07T08:36:06Z</time>
      </trkpt>
      <trkpt lat="46.18841" lon="4.57635">
        <ele>738.6</ele>
        <time>2025-09-07T08:36:07Z</time>
      </trkpt>
      <trkpt lat="46.18842" lon="4.57635">
        <ele>738.8</ele>
        <time>2025-09-07T08:36:08Z</time>
      </trkpt>
      <trkpt lat="46.18844" lon="4.57636">
        <ele>738.8</ele>
        <time>2025-09-07T08:36:09Z</time>
      </trkpt>
      <trkpt lat="46.18845" lon="4.57635">
        <ele>739</ele>
        <time>2025-09-07T08:36:10Z</time>
      </trkpt>
      <trkpt lat="46.18846" lon="4.57635">
        <ele>739</ele>
        <time>2025-09-07T08:36:11Z</time>
      </trkpt>
      <trkpt lat="46.18847" lon="4.57634">
        <ele>739.6</ele>
        <time>2025-09-07T08:36:12Z</time>
      </trkpt>
      <trkpt lat="46.18848" lon="4.57633">
        <ele>739.6</ele>
        <time>2025-09-07T08:36:13Z</time>
      </trkpt>
      <trkpt lat="46.1885" lon="4.57633">
        <ele>739.6</ele>
        <time>2025-09-07T08:36:14Z</time>
      </trkpt>
      <trkpt lat="46.18852" lon="4.57633">
        <ele>739.6</ele>
        <time>2025-09-07T08:36:15Z</time>
      </trkpt>
      <trkpt lat="46.18853" lon="4.57633">
        <ele>740</ele>
        <time>2025-09-07T08:36:16Z</time>
      </trkpt>
      <trkpt lat="46.18855" lon="4.57633">
        <ele>740.4</ele>
        <time>2025-09-07T08:36:17Z</time>
      </trkpt>
      <trkpt lat="46.18856" lon="4.57633">
        <ele>740.6</ele>
        <time>2025-09-07T08:36:18Z</time>
      </trkpt>
      <trkpt lat="46.18857" lon="4.57633">
        <ele>740.6</ele>
        <time>2025-09-07T08:36:19Z</time>
      </trkpt>
      <trkpt lat="46.18858" lon="4.57633">
        <ele>740.6</ele>
        <time>2025-09-07T08:36:20Z</time>
      </trkpt>
      <trkpt lat="46.1886" lon="4.57633">
        <ele>740.6</ele>
        <time>2025-09-07T08:36:21Z</time>
      </trkpt>
      <trkpt lat="46.18861" lon="4.57633">
        <ele>741</ele>
        <time>2025-09-07T08:36:22Z</time>
      </trkpt>
      <trkpt lat="46.18862" lon="4.57633">
        <ele>741</ele>
        <time>2025-09-07T08:36:23Z</time>
      </trkpt>
      <trkpt lat="46.18863" lon="4.57633">
        <ele>741</ele>
        <time>2025-09-07T08:36:24Z</time>
      </trkpt>
      <trkpt lat="46.18865" lon="4.57631">
        <ele>741.4</ele>
        <time>2025-09-07T08:36:25Z</time>
      </trkpt>
      <trkpt lat="46.18867" lon="4.5763">
        <ele>741.4</ele>
        <time>2025-09-07T08:36:26Z</time>
      </trkpt>
      <trkpt lat="46.18868" lon="4.57629">
        <ele>741.4</ele>
        <time>2025-09-07T08:36:27Z</time>
      </trkpt>
      <trkpt lat="46.1887" lon="4.57629">
        <ele>741.8</ele>
        <time>2025-09-07T08:36:28Z</time>
      </trkpt>
      <trkpt lat="46.18871" lon="4.5763">
        <ele>741.6</ele>
        <time>2025-09-07T08:36:29Z</time>
      </trkpt>
      <trkpt lat="46.18872" lon="4.5763">
        <ele>741.6</ele>
        <time>2025-09-07T08:36:30Z</time>
      </trkpt>
      <trkpt lat="46.18874" lon="4.57631">
        <ele>741.6</ele>
        <time>2025-09-07T08:36:31Z</time>
      </trkpt>
      <trkpt lat="46.18875" lon="4.57631">
        <ele>741.8</ele>
        <time>2025-09-07T08:36:32Z</time>
      </trkpt>
      <trkpt lat="46.18876" lon="4.57632">
        <ele>742</ele>
        <time>2025-09-07T08:36:33Z</time>
      </trkpt>
      <trkpt lat="46.18877" lon="4.57632">
        <ele>742</ele>
        <time>2025-09-07T08:36:34Z</time>
      </trkpt>
      <trkpt lat="46.18878" lon="4.57632">
        <ele>742.6</ele>
        <time>2025-09-07T08:36:35Z</time>
      </trkpt>
      <trkpt lat="46.18879" lon="4.57632">
        <ele>742.6</ele>
        <time>2025-09-07T08:36:36Z</time>
      </trkpt>
      <trkpt lat="46.1888" lon="4.57632">
        <ele>742.6</ele>
        <time>2025-09-07T08:36:37Z</time>
      </trkpt>
      <trkpt lat="46.18881" lon="4.57633">
        <ele>742.8</ele>
        <time>2025-09-07T08:36:38Z</time>
      </trkpt>
      <trkpt lat="46.18882" lon="4.57635">
        <ele>742.8</ele>
        <time>2025-09-07T08:36:39Z</time>
      </trkpt>
      <trkpt lat="46.18883" lon="4.57636">
        <ele>742.8</ele>
        <time>2025-09-07T08:36:40Z</time>
      </trkpt>
      <trkpt lat="46.18885" lon="4.57637">
        <ele>742.8</ele>
        <time>2025-09-07T08:36:41Z</time>
      </trkpt>
      <trkpt lat="46.18886" lon="4.57638">
        <ele>743.2</ele>
        <time>2025-09-07T08:36:42Z</time>
      </trkpt>
      <trkpt lat="46.18887" lon="4.57638">
        <ele>743.2</ele>
        <time>2025-09-07T08:36:43Z</time>
      </trkpt>
      <trkpt lat="46.18889" lon="4.57639">
        <ele>743.4</ele>
        <time>2025-09-07T08:36:44Z</time>
      </trkpt>
      <trkpt lat="46.1889" lon="4.5764">
        <ele>743.6</ele>
        <time>2025-09-07T08:36:45Z</time>
      </trkpt>
      <trkpt lat="46.18891" lon="4.57641">
        <ele>743.6</ele>
        <time>2025-09-07T08:36:46Z</time>
      </trkpt>
      <trkpt lat="46.18892" lon="4.57641">
        <ele>744</ele>
        <time>2025-09-07T08:36:47Z</time>
      </trkpt>
      <trkpt lat="46.18894" lon="4.57643">
        <ele>744</ele>
        <time>2025-09-07T08:36:48Z</time>
      </trkpt>
      <trkpt lat="46.18895" lon="4.57644">
        <ele>744</ele>
        <time>2025-09-07T08:36:49Z</time>
      </trkpt>
      <trkpt lat="46.18896" lon="4.57645">
        <ele>744</ele>
        <time>2025-09-07T08:36:50Z</time>
      </trkpt>
      <trkpt lat="46.18898" lon="4.57645">
        <ele>744.8</ele>
        <time>2025-09-07T08:36:51Z</time>
      </trkpt>
      <trkpt lat="46.18899" lon="4.57645">
        <ele>744.8</ele>
        <time>2025-09-07T08:36:52Z</time>
      </trkpt>
      <trkpt lat="46.189" lon="4.57645">
        <ele>744.8</ele>
        <time>2025-09-07T08:36:53Z</time>
      </trkpt>
      <trkpt lat="46.18901" lon="4.57645">
        <ele>744.8</ele>
        <time>2025-09-07T08:36:54Z</time>
      </trkpt>
      <trkpt lat="46.18903" lon="4.57646">
        <ele>744.8</ele>
        <time>2025-09-07T08:36:55Z</time>
      </trkpt>
      <trkpt lat="46.18904" lon="4.57646">
        <ele>744.8</ele>
        <time>2025-09-07T08:36:56Z</time>
      </trkpt>
      <trkpt lat="46.18906" lon="4.57648">
        <ele>745</ele>
        <time>2025-09-07T08:36:57Z</time>
      </trkpt>
      <trkpt lat="46.18907" lon="4.57648">
        <ele>745</ele>
        <time>2025-09-07T08:36:58Z</time>
      </trkpt>
      <trkpt lat="46.18908" lon="4.57649">
        <ele>745.2</ele>
        <time>2025-09-07T08:36:59Z</time>
      </trkpt>
      <trkpt lat="46.1891" lon="4.5765">
        <ele>745.2</ele>
        <time>2025-09-07T08:37:00Z</time>
      </trkpt>
      <trkpt lat="46.18911" lon="4.5765">
        <ele>745.2</ele>
        <time>2025-09-07T08:37:01Z</time>
      </trkpt>
      <trkpt lat="46.18915" lon="4.5765">
        <ele>745.6</ele>
        <time>2025-09-07T08:37:02Z</time>
      </trkpt>
      <trkpt lat="46.18916" lon="4.5765">
        <ele>745.6</ele>
        <time>2025-09-07T08:37:03Z</time>
      </trkpt>
      <trkpt lat="46.18917" lon="4.5765">
        <ele>746</ele>
        <time>2025-09-07T08:37:04Z</time>
      </trkpt>
      <trkpt lat="46.18919" lon="4.5765">
        <ele>746</ele>
        <time>2025-09-07T08:37:05Z</time>
      </trkpt>
      <trkpt lat="46.18921" lon="4.5765">
        <ele>746.4</ele>
        <time>2025-09-07T08:37:06Z</time>
      </trkpt>
      <trkpt lat="46.18923" lon="4.57651">
        <ele>746.2</ele>
        <time>2025-09-07T08:37:07Z</time>
      </trkpt>
      <trkpt lat="46.18924" lon="4.57651">
        <ele>746.2</ele>
        <time>2025-09-07T08:37:08Z</time>
      </trkpt>
      <trkpt lat="46.18925" lon="4.57652">
        <ele>746.6</ele>
        <time>2025-09-07T08:37:09Z</time>
      </trkpt>
      <trkpt lat="46.18926" lon="4.57653">
        <ele>746.8</ele>
        <time>2025-09-07T08:37:10Z</time>
      </trkpt>
      <trkpt lat="46.18927" lon="4.57653">
        <ele>746.6</ele>
        <time>2025-09-07T08:37:11Z</time>
      </trkpt>
      <trkpt lat="46.18929" lon="4.57653">
        <ele>746.6</ele>
        <time>2025-09-07T08:37:12Z</time>
      </trkpt>
      <trkpt lat="46.1893" lon="4.57652">
        <ele>746.8</ele>
        <time>2025-09-07T08:37:13Z</time>
      </trkpt>
      <trkpt lat="46.18932" lon="4.57652">
        <ele>746.8</ele>
        <time>2025-09-07T08:37:14Z</time>
      </trkpt>
      <trkpt lat="46.18933" lon="4.57651">
        <ele>747</ele>
        <time>2025-09-07T08:37:15Z</time>
      </trkpt>
      <trkpt lat="46.18935" lon="4.57651">
        <ele>747.6</ele>
        <time>2025-09-07T08:37:16Z</time>
      </trkpt>
      <trkpt lat="46.18936" lon="4.5765">
        <ele>747.6</ele>
        <time>2025-09-07T08:37:17Z</time>
      </trkpt>
      <trkpt lat="46.18938" lon="4.5765">
        <ele>747.6</ele>
        <time>2025-09-07T08:37:18Z</time>
      </trkpt>
      <trkpt lat="46.1894" lon="4.5765">
        <ele>748</ele>
        <time>2025-09-07T08:37:19Z</time>
      </trkpt>
      <trkpt lat="46.18941" lon="4.5765">
        <ele>748</ele>
        <time>2025-09-07T08:37:20Z</time>
      </trkpt>
      <trkpt lat="46.18943" lon="4.5765">
        <ele>748</ele>
        <time>2025-09-07T08:37:21Z</time>
      </trkpt>
      <trkpt lat="46.18944" lon="4.5765">
        <ele>748</ele>
        <time>2025-09-07T08:37:22Z</time>
      </trkpt>
      <trkpt lat="46.18945" lon="4.57651">
        <ele>748.4</ele>
        <time>2025-09-07T08:37:23Z</time>
      </trkpt>
      <trkpt lat="46.18947" lon="4.57651">
        <ele>748.4</ele>
        <time>2025-09-07T08:37:24Z</time>
      </trkpt>
      <trkpt lat="46.18948" lon="4.57651">
        <ele>748.4</ele>
        <time>2025-09-07T08:37:25Z</time>
      </trkpt>
      <trkpt lat="46.1895" lon="4.57651">
        <ele>748.4</ele>
        <time>2025-09-07T08:37:26Z</time>
      </trkpt>
      <trkpt lat="46.18951" lon="4.57651">
        <ele>748.6</ele>
        <time>2025-09-07T08:37:27Z</time>
      </trkpt>
      <trkpt lat="46.18952" lon="4.57651">
        <ele>748.6</ele>
        <time>2025-09-07T08:37:28Z</time>
      </trkpt>
      <trkpt lat="46.18954" lon="4.57651">
        <ele>748.6</ele>
        <time>2025-09-07T08:37:29Z</time>
      </trkpt>
      <trkpt lat="46.18955" lon="4.57652">
        <ele>748.6</ele>
        <time>2025-09-07T08:37:30Z</time>
      </trkpt>
      <trkpt lat="46.18957" lon="4.57652">
        <ele>749</ele>
        <time>2025-09-07T08:37:31Z</time>
      </trkpt>
      <trkpt lat="46.18958" lon="4.57653">
        <ele>749</ele>
        <time>2025-09-07T08:37:32Z</time>
      </trkpt>
      <trkpt lat="46.18959" lon="4.57653">
        <ele>749.4</ele>
        <time>2025-09-07T08:37:33Z</time>
      </trkpt>
      <trkpt lat="46.1896" lon="4.57653">
        <ele>749.4</ele>
        <time>2025-09-07T08:37:34Z</time>
      </trkpt>
      <trkpt lat="46.18961" lon="4.57653">
        <ele>749.6</ele>
        <time>2025-09-07T08:37:35Z</time>
      </trkpt>
      <trkpt lat="46.18963" lon="4.57654">
        <ele>749.6</ele>
        <time>2025-09-07T08:37:36Z</time>
      </trkpt>
      <trkpt lat="46.18964" lon="4.57655">
        <ele>749.6</ele>
        <time>2025-09-07T08:37:37Z</time>
      </trkpt>
      <trkpt lat="46.18965" lon="4.57655">
        <ele>750.2</ele>
        <time>2025-09-07T08:37:38Z</time>
      </trkpt>
      <trkpt lat="46.18966" lon="4.57656">
        <ele>750.2</ele>
        <time>2025-09-07T08:37:39Z</time>
      </trkpt>
      <trkpt lat="46.18968" lon="4.57656">
        <ele>750.6</ele>
        <time>2025-09-07T08:37:40Z</time>
      </trkpt>
      <trkpt lat="46.18969" lon="4.57656">
        <ele>750.6</ele>
        <time>2025-09-07T08:37:41Z</time>
      </trkpt>
      <trkpt lat="46.1897" lon="4.57656">
        <ele>750.6</ele>
        <time>2025-09-07T08:37:42Z</time>
      </trkpt>
      <trkpt lat="46.18971" lon="4.57657">
        <ele>750.6</ele>
        <time>2025-09-07T08:37:43Z</time>
      </trkpt>
      <trkpt lat="46.18973" lon="4.57657">
        <ele>750.2</ele>
        <time>2025-09-07T08:37:44Z</time>
      </trkpt>
      <trkpt lat="46.18974" lon="4.57658">
        <ele>750.6</ele>
        <time>2025-09-07T08:37:45Z</time>
      </trkpt>
      <trkpt lat="46.18975" lon="4.57658">
        <ele>750.6</ele>
        <time>2025-09-07T08:37:46Z</time>
      </trkpt>
      <trkpt lat="46.18976" lon="4.57659">
        <ele>750.8</ele>
        <time>2025-09-07T08:37:47Z</time>
      </trkpt>
      <trkpt lat="46.18978" lon="4.57659">
        <ele>750.8</ele>
        <time>2025-09-07T08:37:48Z</time>
      </trkpt>
      <trkpt lat="46.18979" lon="4.5766">
        <ele>751.4</ele>
        <time>2025-09-07T08:37:49Z</time>
      </trkpt>
      <trkpt lat="46.18979" lon="4.5766">
        <ele>751.4</ele>
        <time>2025-09-07T08:37:50Z</time>
      </trkpt>
      <trkpt lat="46.18981" lon="4.5766">
        <ele>751.2</ele>
        <time>2025-09-07T08:37:51Z</time>
      </trkpt>
      <trkpt lat="46.18983" lon="4.5766">
        <ele>751.2</ele>
        <time>2025-09-07T08:37:52Z</time>
      </trkpt>
      <trkpt lat="46.18984" lon="4.5766">
        <ele>751.4</ele>
        <time>2025-09-07T08:37:53Z</time>
      </trkpt>
      <trkpt lat="46.18986" lon="4.5766">
        <ele>752</ele>
        <time>2025-09-07T08:37:54Z</time>
      </trkpt>
      <trkpt lat="46.18987" lon="4.5766">
        <ele>752</ele>
        <time>2025-09-07T08:37:55Z</time>
      </trkpt>
      <trkpt lat="46.18989" lon="4.5766">
        <ele>752</ele>
        <time>2025-09-07T08:37:56Z</time>
      </trkpt>
      <trkpt lat="46.18991" lon="4.57659">
        <ele>752</ele>
        <time>2025-09-07T08:37:57Z</time>
      </trkpt>
      <trkpt lat="46.18993" lon="4.57659">
        <ele>752</ele>
        <time>2025-09-07T08:37:58Z</time>
      </trkpt>
      <trkpt lat="46.18994" lon="4.57659">
        <ele>752</ele>
        <time>2025-09-07T08:37:59Z</time>
      </trkpt>
      <trkpt lat="46.18996" lon="4.57659">
        <ele>752.2</ele>
        <time>2025-09-07T08:38:00Z</time>
      </trkpt>
      <trkpt lat="46.18998" lon="4.57659">
        <ele>752.4</ele>
        <time>2025-09-07T08:38:01Z</time>
      </trkpt>
      <trkpt lat="46.18999" lon="4.5766">
        <ele>752.4</ele>
        <time>2025-09-07T08:38:02Z</time>
      </trkpt>
      <trkpt lat="46.19001" lon="4.57661">
        <ele>752.4</ele>
        <time>2025-09-07T08:38:03Z</time>
      </trkpt>
      <trkpt lat="46.19003" lon="4.57661">
        <ele>753.2</ele>
        <time>2025-09-07T08:38:04Z</time>
      </trkpt>
      <trkpt lat="46.19005" lon="4.57662">
        <ele>753.2</ele>
        <time>2025-09-07T08:38:05Z</time>
      </trkpt>
      <trkpt lat="46.19006" lon="4.57662">
        <ele>753.2</ele>
        <time>2025-09-07T08:38:06Z</time>
      </trkpt>
      <trkpt lat="46.19007" lon="4.57663">
        <ele>753.4</ele>
        <time>2025-09-07T08:38:07Z</time>
      </trkpt>
      <trkpt lat="46.19009" lon="4.57663">
        <ele>753.4</ele>
        <time>2025-09-07T08:38:08Z</time>
      </trkpt>
      <trkpt lat="46.19011" lon="4.57664">
        <ele>753.4</ele>
        <time>2025-09-07T08:38:09Z</time>
      </trkpt>
      <trkpt lat="46.19012" lon="4.57665">
        <ele>753.8</ele>
        <time>2025-09-07T08:38:10Z</time>
      </trkpt>
      <trkpt lat="46.19014" lon="4.57665">
        <ele>753.8</ele>
        <time>2025-09-07T08:38:11Z</time>
      </trkpt>
      <trkpt lat="46.19015" lon="4.57665">
        <ele>753.8</ele>
        <time>2025-09-07T08:38:12Z</time>
      </trkpt>
      <trkpt lat="46.19016" lon="4.57666">
        <ele>753.8</ele>
        <time>2025-09-07T08:38:13Z</time>
      </trkpt>
      <trkpt lat="46.19018" lon="4.57667">
        <ele>754</ele>
        <time>2025-09-07T08:38:14Z</time>
      </trkpt>
      <trkpt lat="46.19019" lon="4.57668">
        <ele>754</ele>
        <time>2025-09-07T08:38:15Z</time>
      </trkpt>
      <trkpt lat="46.1902" lon="4.57669">
        <ele>754</ele>
        <time>2025-09-07T08:38:16Z</time>
      </trkpt>
      <trkpt lat="46.19021" lon="4.5767">
        <ele>754.4</ele>
        <time>2025-09-07T08:38:17Z</time>
      </trkpt>
      <trkpt lat="46.19023" lon="4.5767">
        <ele>754.4</ele>
        <time>2025-09-07T08:38:18Z</time>
      </trkpt>
      <trkpt lat="46.19024" lon="4.57671">
        <ele>754.4</ele>
        <time>2025-09-07T08:38:19Z</time>
      </trkpt>
      <trkpt lat="46.19025" lon="4.57671">
        <ele>754.8</ele>
        <time>2025-09-07T08:38:20Z</time>
      </trkpt>
      <trkpt lat="46.19026" lon="4.57672">
        <ele>755</ele>
        <time>2025-09-07T08:38:21Z</time>
      </trkpt>
      <trkpt lat="46.19027" lon="4.57672">
        <ele>755</ele>
        <time>2025-09-07T08:38:22Z</time>
      </trkpt>
      <trkpt lat="46.19028" lon="4.57673">
        <ele>755</ele>
        <time>2025-09-07T08:38:23Z</time>
      </trkpt>
      <trkpt lat="46.19029" lon="4.57673">
        <ele>755</ele>
        <time>2025-09-07T08:38:24Z</time>
      </trkpt>
      <trkpt lat="46.1903" lon="4.57673">
        <ele>755</ele>
        <time>2025-09-07T08:38:25Z</time>
      </trkpt>
      <trkpt lat="46.19032" lon="4.57673">
        <ele>755.6</ele>
        <time>2025-09-07T08:38:26Z</time>
      </trkpt>
      <trkpt lat="46.19033" lon="4.57673">
        <ele>755.6</ele>
        <time>2025-09-07T08:38:27Z</time>
      </trkpt>
      <trkpt lat="46.19034" lon="4.57674">
        <ele>755.8</ele>
        <time>2025-09-07T08:38:28Z</time>
      </trkpt>
      <trkpt lat="46.19035" lon="4.57674">
        <ele>755.8</ele>
        <time>2025-09-07T08:38:29Z</time>
      </trkpt>
      <trkpt lat="46.19037" lon="4.57675">
        <ele>755.8</ele>
        <time>2025-09-07T08:38:30Z</time>
      </trkpt>
      <trkpt lat="46.19038" lon="4.57676">
        <ele>756</ele>
        <time>2025-09-07T08:38:31Z</time>
      </trkpt>
      <trkpt lat="46.1904" lon="4.57676">
        <ele>756.4</ele>
        <time>2025-09-07T08:38:32Z</time>
      </trkpt>
      <trkpt lat="46.19041" lon="4.57676">
        <ele>756.4</ele>
        <time>2025-09-07T08:38:33Z</time>
      </trkpt>
      <trkpt lat="46.19042" lon="4.57677">
        <ele>756.8</ele>
        <time>2025-09-07T08:38:34Z</time>
      </trkpt>
      <trkpt lat="46.19044" lon="4.57677">
        <ele>756.8</ele>
        <time>2025-09-07T08:38:35Z</time>
      </trkpt>
      <trkpt lat="46.19045" lon="4.57677">
        <ele>757</ele>
        <time>2025-09-07T08:38:36Z</time>
      </trkpt>
      <trkpt lat="46.19047" lon="4.57677">
        <ele>757</ele>
        <time>2025-09-07T08:38:37Z</time>
      </trkpt>
      <trkpt lat="46.19048" lon="4.57678">
        <ele>757</ele>
        <time>2025-09-07T08:38:38Z</time>
      </trkpt>
      <trkpt lat="46.1905" lon="4.57678">
        <ele>757.6</ele>
        <time>2025-09-07T08:38:39Z</time>
      </trkpt>
      <trkpt lat="46.19051" lon="4.57678">
        <ele>757.6</ele>
        <time>2025-09-07T08:38:40Z</time>
      </trkpt>
      <trkpt lat="46.19054" lon="4.57679">
        <ele>757.6</ele>
        <time>2025-09-07T08:38:41Z</time>
      </trkpt>
      <trkpt lat="46.19056" lon="4.5768">
        <ele>757.6</ele>
        <time>2025-09-07T08:38:42Z</time>
      </trkpt>
      <trkpt lat="46.19057" lon="4.5768">
        <ele>757.4</ele>
        <time>2025-09-07T08:38:43Z</time>
      </trkpt>
      <trkpt lat="46.19058" lon="4.5768">
        <ele>757.4</ele>
        <time>2025-09-07T08:38:44Z</time>
      </trkpt>
      <trkpt lat="46.1906" lon="4.5768">
        <ele>757.4</ele>
        <time>2025-09-07T08:38:45Z</time>
      </trkpt>
      <trkpt lat="46.19061" lon="4.5768">
        <ele>757.8</ele>
        <time>2025-09-07T08:38:46Z</time>
      </trkpt>
      <trkpt lat="46.19063" lon="4.5768">
        <ele>757.8</ele>
        <time>2025-09-07T08:38:47Z</time>
      </trkpt>
      <trkpt lat="46.19064" lon="4.5768">
        <ele>758</ele>
        <time>2025-09-07T08:38:48Z</time>
      </trkpt>
      <trkpt lat="46.19065" lon="4.57679">
        <ele>758</ele>
        <time>2025-09-07T08:38:49Z</time>
      </trkpt>
      <trkpt lat="46.19066" lon="4.57679">
        <ele>758.6</ele>
        <time>2025-09-07T08:38:50Z</time>
      </trkpt>
      <trkpt lat="46.19067" lon="4.57678">
        <ele>759</ele>
        <time>2025-09-07T08:38:51Z</time>
      </trkpt>
      <trkpt lat="46.19068" lon="4.57678">
        <ele>759</ele>
        <time>2025-09-07T08:38:52Z</time>
      </trkpt>
      <trkpt lat="46.1907" lon="4.57679">
        <ele>759.6</ele>
        <time>2025-09-07T08:38:53Z</time>
      </trkpt>
      <trkpt lat="46.19071" lon="4.57679">
        <ele>759.6</ele>
        <time>2025-09-07T08:38:54Z</time>
      </trkpt>
      <trkpt lat="46.19073" lon="4.57679">
        <ele>759.8</ele>
        <time>2025-09-07T08:38:55Z</time>
      </trkpt>
      <trkpt lat="46.19074" lon="4.57678">
        <ele>759.8</ele>
        <time>2025-09-07T08:38:56Z</time>
      </trkpt>
      <trkpt lat="46.19076" lon="4.57678">
        <ele>760</ele>
        <time>2025-09-07T08:38:57Z</time>
      </trkpt>
      <trkpt lat="46.19077" lon="4.57678">
        <ele>759.8</ele>
        <time>2025-09-07T08:38:58Z</time>
      </trkpt>
      <trkpt lat="46.19079" lon="4.57679">
        <ele>759.8</ele>
        <time>2025-09-07T08:38:59Z</time>
      </trkpt>
      <trkpt lat="46.1908" lon="4.57679">
        <ele>759.8</ele>
        <time>2025-09-07T08:39:00Z</time>
      </trkpt>
      <trkpt lat="46.1908" lon="4.5768">
        <ele>760</ele>
        <time>2025-09-07T08:39:01Z</time>
      </trkpt>
      <trkpt lat="46.19082" lon="4.57681">
        <ele>760</ele>
        <time>2025-09-07T08:39:02Z</time>
      </trkpt>
      <trkpt lat="46.19083" lon="4.57681">
        <ele>760.4</ele>
        <time>2025-09-07T08:39:03Z</time>
      </trkpt>
      <trkpt lat="46.19084" lon="4.57682">
        <ele>760.4</ele>
        <time>2025-09-07T08:39:04Z</time>
      </trkpt>
      <trkpt lat="46.19085" lon="4.57682">
        <ele>760.6</ele>
        <time>2025-09-07T08:39:05Z</time>
      </trkpt>
      <trkpt lat="46.19087" lon="4.57681">
        <ele>761</ele>
        <time>2025-09-07T08:39:06Z</time>
      </trkpt>
      <trkpt lat="46.19088" lon="4.57681">
        <ele>761</ele>
        <time>2025-09-07T08:39:07Z</time>
      </trkpt>
      <trkpt lat="46.1909" lon="4.57681">
        <ele>761.2</ele>
        <time>2025-09-07T08:39:08Z</time>
      </trkpt>
      <trkpt lat="46.19091" lon="4.57682">
        <ele>761.2</ele>
        <time>2025-09-07T08:39:09Z</time>
      </trkpt>
      <trkpt lat="46.19092" lon="4.57683">
        <ele>761.2</ele>
        <time>2025-09-07T08:39:10Z</time>
      </trkpt>
      <trkpt lat="46.19093" lon="4.57682">
        <ele>761.2</ele>
        <time>2025-09-07T08:39:11Z</time>
      </trkpt>
      <trkpt lat="46.19094" lon="4.57682">
        <ele>761.2</ele>
        <time>2025-09-07T08:39:12Z</time>
      </trkpt>
      <trkpt lat="46.19095" lon="4.57681">
        <ele>761.2</ele>
        <time>2025-09-07T08:39:13Z</time>
      </trkpt>
      <trkpt lat="46.19096" lon="4.57681">
        <ele>761.2</ele>
        <time>2025-09-07T08:39:14Z</time>
      </trkpt>
      <trkpt lat="46.19097" lon="4.57681">
        <ele>761.6</ele>
        <time>2025-09-07T08:39:15Z</time>
      </trkpt>
      <trkpt lat="46.19097" lon="4.57682">
        <ele>761.6</ele>
        <time>2025-09-07T08:39:16Z</time>
      </trkpt>
      <trkpt lat="46.19098" lon="4.57683">
        <ele>761.6</ele>
        <time>2025-09-07T08:39:17Z</time>
      </trkpt>
      <trkpt lat="46.19099" lon="4.57684">
        <ele>761.6</ele>
        <time>2025-09-07T08:39:18Z</time>
      </trkpt>
      <trkpt lat="46.191" lon="4.57684">
        <ele>761.6</ele>
        <time>2025-09-07T08:39:19Z</time>
      </trkpt>
      <trkpt lat="46.19102" lon="4.57683">
        <ele>762</ele>
        <time>2025-09-07T08:39:20Z</time>
      </trkpt>
      <trkpt lat="46.19103" lon="4.57683">
        <ele>762.4</ele>
        <time>2025-09-07T08:39:21Z</time>
      </trkpt>
      <trkpt lat="46.19103" lon="4.57682">
        <ele>762.4</ele>
        <time>2025-09-07T08:39:22Z</time>
      </trkpt>
      <trkpt lat="46.19104" lon="4.57681">
        <ele>762.8</ele>
        <time>2025-09-07T08:39:23Z</time>
      </trkpt>
      <trkpt lat="46.19105" lon="4.57681">
        <ele>762.8</ele>
        <time>2025-09-07T08:39:24Z</time>
      </trkpt>
      <trkpt lat="46.19106" lon="4.57681">
        <ele>762.8</ele>
        <time>2025-09-07T08:39:25Z</time>
      </trkpt>
      <trkpt lat="46.19107" lon="4.57681">
        <ele>763</ele>
        <time>2025-09-07T08:39:26Z</time>
      </trkpt>
      <trkpt lat="46.19108" lon="4.57682">
        <ele>763</ele>
        <time>2025-09-07T08:39:27Z</time>
      </trkpt>
      <trkpt lat="46.1911" lon="4.5768">
        <ele>763.4</ele>
        <time>2025-09-07T08:39:28Z</time>
      </trkpt>
      <trkpt lat="46.19112" lon="4.57679">
        <ele>763.4</ele>
        <time>2025-09-07T08:39:29Z</time>
      </trkpt>
      <trkpt lat="46.19113" lon="4.57678">
        <ele>763</ele>
        <time>2025-09-07T08:39:30Z</time>
      </trkpt>
      <trkpt lat="46.19114" lon="4.57677">
        <ele>763.4</ele>
        <time>2025-09-07T08:39:31Z</time>
      </trkpt>
      <trkpt lat="46.19116" lon="4.57678">
        <ele>763.4</ele>
        <time>2025-09-07T08:39:32Z</time>
      </trkpt>
      <trkpt lat="46.19118" lon="4.57678">
        <ele>764</ele>
        <time>2025-09-07T08:39:33Z</time>
      </trkpt>
      <trkpt lat="46.1912" lon="4.57678">
        <ele>764.6</ele>
        <time>2025-09-07T08:39:34Z</time>
      </trkpt>
      <trkpt lat="46.19122" lon="4.57679">
        <ele>764.6</ele>
        <time>2025-09-07T08:39:35Z</time>
      </trkpt>
      <trkpt lat="46.19123" lon="4.57679">
        <ele>764.2</ele>
        <time>2025-09-07T08:39:36Z</time>
      </trkpt>
      <trkpt lat="46.19125" lon="4.57679">
        <ele>763.8</ele>
        <time>2025-09-07T08:39:37Z</time>
      </trkpt>
      <trkpt lat="46.19127" lon="4.57679">
        <ele>764.4</ele>
        <time>2025-09-07T08:39:38Z</time>
      </trkpt>
      <trkpt lat="46.19129" lon="4.57679">
        <ele>764</ele>
        <time>2025-09-07T08:39:39Z</time>
      </trkpt>
      <trkpt lat="46.19131" lon="4.57679">
        <ele>764.4</ele>
        <time>2025-09-07T08:39:40Z</time>
      </trkpt>
      <trkpt lat="46.19133" lon="4.5768">
        <ele>765</ele>
        <time>2025-09-07T08:39:41Z</time>
      </trkpt>
      <trkpt lat="46.19135" lon="4.57679">
        <ele>765.4</ele>
        <time>2025-09-07T08:39:42Z</time>
      </trkpt>
      <trkpt lat="46.19137" lon="4.57678">
        <ele>765</ele>
        <time>2025-09-07T08:39:43Z</time>
      </trkpt>
      <trkpt lat="46.19137" lon="4.57678">
        <ele>765.2</ele>
        <time>2025-09-07T08:39:44Z</time>
      </trkpt>
      <trkpt lat="46.19138" lon="4.57677">
        <ele>765.6</ele>
        <time>2025-09-07T08:39:45Z</time>
      </trkpt>
      <trkpt lat="46.19138" lon="4.57677">
        <ele>766.2</ele>
        <time>2025-09-07T08:39:46Z</time>
      </trkpt>
      <trkpt lat="46.19137" lon="4.57677">
        <ele>766.2</ele>
        <time>2025-09-07T08:39:47Z</time>
      </trkpt>
      <trkpt lat="46.19137" lon="4.57677">
        <ele>766.2</ele>
        <time>2025-09-07T08:39:48Z</time>
      </trkpt>
      <trkpt lat="46.19139" lon="4.57677">
        <ele>766.2</ele>
        <time>2025-09-07T08:39:49Z</time>
      </trkpt>
      <trkpt lat="46.19141" lon="4.57676">
        <ele>766.2</ele>
        <time>2025-09-07T08:39:50Z</time>
      </trkpt>
      <trkpt lat="46.19142" lon="4.57675">
        <ele>765.8</ele>
        <time>2025-09-07T08:39:51Z</time>
      </trkpt>
      <trkpt lat="46.19144" lon="4.57675">
        <ele>766.2</ele>
        <time>2025-09-07T08:39:52Z</time>
      </trkpt>
      <trkpt lat="46.19145" lon="4.57673">
        <ele>766.2</ele>
        <time>2025-09-07T08:39:53Z</time>
      </trkpt>
      <trkpt lat="46.19146" lon="4.57672">
        <ele>766.2</ele>
        <time>2025-09-07T08:39:54Z</time>
      </trkpt>
      <trkpt lat="46.19148" lon="4.57671">
        <ele>766.6</ele>
        <time>2025-09-07T08:39:55Z</time>
      </trkpt>
      <trkpt lat="46.19149" lon="4.57669">
        <ele>767</ele>
        <time>2025-09-07T08:39:56Z</time>
      </trkpt>
      <trkpt lat="46.1915" lon="4.57669">
        <ele>767.4</ele>
        <time>2025-09-07T08:39:57Z</time>
      </trkpt>
      <trkpt lat="46.19152" lon="4.57669">
        <ele>767.6</ele>
        <time>2025-09-07T08:39:58Z</time>
      </trkpt>
      <trkpt lat="46.19153" lon="4.5767">
        <ele>767.4</ele>
        <time>2025-09-07T08:39:59Z</time>
      </trkpt>
      <trkpt lat="46.19154" lon="4.57671">
        <ele>767.4</ele>
        <time>2025-09-07T08:40:00Z</time>
      </trkpt>
      <trkpt lat="46.19156" lon="4.57671">
        <ele>767.4</ele>
        <time>2025-09-07T08:40:01Z</time>
      </trkpt>
      <trkpt lat="46.19157" lon="4.5767">
        <ele>767.6</ele>
        <time>2025-09-07T08:40:02Z</time>
      </trkpt>
      <trkpt lat="46.19159" lon="4.57671">
        <ele>768</ele>
        <time>2025-09-07T08:40:03Z</time>
      </trkpt>
      <trkpt lat="46.1916" lon="4.57672">
        <ele>768.2</ele>
        <time>2025-09-07T08:40:04Z</time>
      </trkpt>
      <trkpt lat="46.19161" lon="4.57672">
        <ele>768.6</ele>
        <time>2025-09-07T08:40:05Z</time>
      </trkpt>
      <trkpt lat="46.19162" lon="4.57673">
        <ele>768.6</ele>
        <time>2025-09-07T08:40:06Z</time>
      </trkpt>
      <trkpt lat="46.19163" lon="4.57673">
        <ele>768.2</ele>
        <time>2025-09-07T08:40:07Z</time>
      </trkpt>
      <trkpt lat="46.19164" lon="4.57674">
        <ele>768.2</ele>
        <time>2025-09-07T08:40:08Z</time>
      </trkpt>
      <trkpt lat="46.19166" lon="4.57674">
        <ele>768.6</ele>
        <time>2025-09-07T08:40:09Z</time>
      </trkpt>
      <trkpt lat="46.19168" lon="4.57674">
        <ele>768.6</ele>
        <time>2025-09-07T08:40:10Z</time>
      </trkpt>
      <trkpt lat="46.19169" lon="4.57673">
        <ele>768.6</ele>
        <time>2025-09-07T08:40:11Z</time>
      </trkpt>
      <trkpt lat="46.19171" lon="4.57673">
        <ele>768.8</ele>
        <time>2025-09-07T08:40:12Z</time>
      </trkpt>
      <trkpt lat="46.19172" lon="4.57673">
        <ele>769.2</ele>
        <time>2025-09-07T08:40:13Z</time>
      </trkpt>
      <trkpt lat="46.19173" lon="4.57673">
        <ele>770</ele>
        <time>2025-09-07T08:40:14Z</time>
      </trkpt>
      <trkpt lat="46.19175" lon="4.57673">
        <ele>770</ele>
        <time>2025-09-07T08:40:15Z</time>
      </trkpt>
      <trkpt lat="46.19177" lon="4.57672">
        <ele>769.4</ele>
        <time>2025-09-07T08:40:16Z</time>
      </trkpt>
      <trkpt lat="46.19178" lon="4.57672">
        <ele>769.4</ele>
        <time>2025-09-07T08:40:17Z</time>
      </trkpt>
      <trkpt lat="46.1918" lon="4.57672">
        <ele>769.8</ele>
        <time>2025-09-07T08:40:18Z</time>
      </trkpt>
      <trkpt lat="46.19182" lon="4.57672">
        <ele>769.8</ele>
        <time>2025-09-07T08:40:19Z</time>
      </trkpt>
      <trkpt lat="46.19183" lon="4.57672">
        <ele>770.2</ele>
        <time>2025-09-07T08:40:20Z</time>
      </trkpt>
      <trkpt lat="46.19184" lon="4.57671">
        <ele>770.4</ele>
        <time>2025-09-07T08:40:21Z</time>
      </trkpt>
      <trkpt lat="46.19185" lon="4.57671">
        <ele>770.4</ele>
        <time>2025-09-07T08:40:22Z</time>
      </trkpt>
      <trkpt lat="46.19186" lon="4.57671">
        <ele>770.8</ele>
        <time>2025-09-07T08:40:23Z</time>
      </trkpt>
      <trkpt lat="46.19187" lon="4.57671">
        <ele>770.8</ele>
        <time>2025-09-07T08:40:24Z</time>
      </trkpt>
      <trkpt lat="46.19189" lon="4.57672">
        <ele>770.8</ele>
        <time>2025-09-07T08:40:25Z</time>
      </trkpt>
      <trkpt lat="46.19191" lon="4.57673">
        <ele>771</ele>
        <time>2025-09-07T08:40:26Z</time>
      </trkpt>
      <trkpt lat="46.19192" lon="4.57674">
        <ele>771</ele>
        <time>2025-09-07T08:40:27Z</time>
      </trkpt>
      <trkpt lat="46.19194" lon="4.57675">
        <ele>771</ele>
        <time>2025-09-07T08:40:28Z</time>
      </trkpt>
      <trkpt lat="46.19195" lon="4.57676">
        <ele>771.2</ele>
        <time>2025-09-07T08:40:29Z</time>
      </trkpt>
      <trkpt lat="46.19197" lon="4.57678">
        <ele>771.2</ele>
        <time>2025-09-07T08:40:30Z</time>
      </trkpt>
      <trkpt lat="46.19198" lon="4.57679">
        <ele>771.2</ele>
        <time>2025-09-07T08:40:31Z</time>
      </trkpt>
      <trkpt lat="46.19199" lon="4.57679">
        <ele>771.8</ele>
        <time>2025-09-07T08:40:32Z</time>
      </trkpt>
      <trkpt lat="46.19201" lon="4.5768">
        <ele>771.8</ele>
        <time>2025-09-07T08:40:33Z</time>
      </trkpt>
      <trkpt lat="46.19202" lon="4.57681">
        <ele>771.8</ele>
        <time>2025-09-07T08:40:34Z</time>
      </trkpt>
      <trkpt lat="46.19204" lon="4.57681">
        <ele>771.8</ele>
        <time>2025-09-07T08:40:35Z</time>
      </trkpt>
      <trkpt lat="46.19206" lon="4.57682">
        <ele>772</ele>
        <time>2025-09-07T08:40:36Z</time>
      </trkpt>
      <trkpt lat="46.19207" lon="4.57683">
        <ele>772</ele>
        <time>2025-09-07T08:40:37Z</time>
      </trkpt>
      <trkpt lat="46.19208" lon="4.57686">
        <ele>772</ele>
        <time>2025-09-07T08:40:38Z</time>
      </trkpt>
      <trkpt lat="46.1921" lon="4.57688">
        <ele>772.2</ele>
        <time>2025-09-07T08:40:39Z</time>
      </trkpt>
      <trkpt lat="46.19211" lon="4.57689">
        <ele>772.2</ele>
        <time>2025-09-07T08:40:40Z</time>
      </trkpt>
      <trkpt lat="46.19212" lon="4.57691">
        <ele>772.4</ele>
        <time>2025-09-07T08:40:41Z</time>
      </trkpt>
      <trkpt lat="46.19213" lon="4.57692">
        <ele>772.8</ele>
        <time>2025-09-07T08:40:42Z</time>
      </trkpt>
      <trkpt lat="46.19214" lon="4.57693">
        <ele>773</ele>
        <time>2025-09-07T08:40:43Z</time>
      </trkpt>
      <trkpt lat="46.19215" lon="4.57694">
        <ele>772.8</ele>
        <time>2025-09-07T08:40:44Z</time>
      </trkpt>
      <trkpt lat="46.19216" lon="4.57695">
        <ele>772.8</ele>
        <time>2025-09-07T08:40:45Z</time>
      </trkpt>
      <trkpt lat="46.19218" lon="4.57697">
        <ele>773.2</ele>
        <time>2025-09-07T08:40:46Z</time>
      </trkpt>
      <trkpt lat="46.19219" lon="4.57697">
        <ele>773.2</ele>
        <time>2025-09-07T08:40:47Z</time>
      </trkpt>
      <trkpt lat="46.19221" lon="4.57698">
        <ele>773.4</ele>
        <time>2025-09-07T08:40:48Z</time>
      </trkpt>
      <trkpt lat="46.19222" lon="4.57698">
        <ele>773.4</ele>
        <time>2025-09-07T08:40:49Z</time>
      </trkpt>
      <trkpt lat="46.19223" lon="4.57698">
        <ele>773.6</ele>
        <time>2025-09-07T08:40:50Z</time>
      </trkpt>
      <trkpt lat="46.19225" lon="4.577">
        <ele>773.6</ele>
        <time>2025-09-07T08:40:51Z</time>
      </trkpt>
      <trkpt lat="46.19226" lon="4.57701">
        <ele>774</ele>
        <time>2025-09-07T08:40:52Z</time>
      </trkpt>
      <trkpt lat="46.19227" lon="4.57702">
        <ele>773.6</ele>
        <time>2025-09-07T08:40:53Z</time>
      </trkpt>
      <trkpt lat="46.19229" lon="4.57703">
        <ele>773.6</ele>
        <time>2025-09-07T08:40:54Z</time>
      </trkpt>
      <trkpt lat="46.1923" lon="4.57704">
        <ele>773.6</ele>
        <time>2025-09-07T08:40:55Z</time>
      </trkpt>
      <trkpt lat="46.19231" lon="4.57705">
        <ele>773.6</ele>
        <time>2025-09-07T08:40:56Z</time>
      </trkpt>
      <trkpt lat="46.19233" lon="4.57706">
        <ele>773.6</ele>
        <time>2025-09-07T08:40:57Z</time>
      </trkpt>
      <trkpt lat="46.19234" lon="4.57707">
        <ele>773.6</ele>
        <time>2025-09-07T08:40:58Z</time>
      </trkpt>
      <trkpt lat="46.19236" lon="4.57708">
        <ele>773.6</ele>
        <time>2025-09-07T08:40:59Z</time>
      </trkpt>
      <trkpt lat="46.19237" lon="4.57709">
        <ele>773.6</ele>
        <time>2025-09-07T08:41:00Z</time>
      </trkpt>
      <trkpt lat="46.19239" lon="4.57711">
        <ele>774</ele>
        <time>2025-09-07T08:41:01Z</time>
      </trkpt>
      <trkpt lat="46.19241" lon="4.57712">
        <ele>774</ele>
        <time>2025-09-07T08:41:02Z</time>
      </trkpt>
      <trkpt lat="46.19243" lon="4.57713">
        <ele>774</ele>
        <time>2025-09-07T08:41:03Z</time>
      </trkpt>
      <trkpt lat="46.19245" lon="4.57714">
        <ele>774.4</ele>
        <time>2025-09-07T08:41:04Z</time>
      </trkpt>
      <trkpt lat="46.19245" lon="4.57714">
        <ele>774.4</ele>
        <time>2025-09-07T08:41:05Z</time>
      </trkpt>
      <trkpt lat="46.19247" lon="4.57716">
        <ele>774.6</ele>
        <time>2025-09-07T08:41:06Z</time>
      </trkpt>
      <trkpt lat="46.19248" lon="4.57718">
        <ele>774.6</ele>
        <time>2025-09-07T08:41:07Z</time>
      </trkpt>
      <trkpt lat="46.1925" lon="4.57719">
        <ele>774.6</ele>
        <time>2025-09-07T08:41:08Z</time>
      </trkpt>
      <trkpt lat="46.19252" lon="4.57721">
        <ele>774.6</ele>
        <time>2025-09-07T08:41:09Z</time>
      </trkpt>
      <trkpt lat="46.19254" lon="4.57722">
        <ele>774.8</ele>
        <time>2025-09-07T08:41:10Z</time>
      </trkpt>
      <trkpt lat="46.19255" lon="4.57723">
        <ele>774.8</ele>
        <time>2025-09-07T08:41:11Z</time>
      </trkpt>
      <trkpt lat="46.19257" lon="4.57725">
        <ele>774.8</ele>
        <time>2025-09-07T08:41:12Z</time>
      </trkpt>
      <trkpt lat="46.19259" lon="4.57726">
        <ele>774.8</ele>
        <time>2025-09-07T08:41:13Z</time>
      </trkpt>
      <trkpt lat="46.19261" lon="4.57728">
        <ele>774.8</ele>
        <time>2025-09-07T08:41:14Z</time>
      </trkpt>
      <trkpt lat="46.19262" lon="4.57729">
        <ele>775.2</ele>
        <time>2025-09-07T08:41:15Z</time>
      </trkpt>
      <trkpt lat="46.19264" lon="4.57731">
        <ele>775.4</ele>
        <time>2025-09-07T08:41:16Z</time>
      </trkpt>
      <trkpt lat="46.19266" lon="4.57732">
        <ele>775.6</ele>
        <time>2025-09-07T08:41:17Z</time>
      </trkpt>
      <trkpt lat="46.19267" lon="4.57733">
        <ele>775.6</ele>
        <time>2025-09-07T08:41:18Z</time>
      </trkpt>
      <trkpt lat="46.19269" lon="4.57734">
        <ele>775.6</ele>
        <time>2025-09-07T08:41:19Z</time>
      </trkpt>
      <trkpt lat="46.19271" lon="4.57735">
        <ele>775.6</ele>
        <time>2025-09-07T08:41:20Z</time>
      </trkpt>
      <trkpt lat="46.19272" lon="4.57736">
        <ele>776</ele>
        <time>2025-09-07T08:41:21Z</time>
      </trkpt>
      <trkpt lat="46.19274" lon="4.57737">
        <ele>776</ele>
        <time>2025-09-07T08:41:22Z</time>
      </trkpt>
      <trkpt lat="46.19275" lon="4.57737">
        <ele>775.6</ele>
        <time>2025-09-07T08:41:23Z</time>
      </trkpt>
      <trkpt lat="46.19276" lon="4.57737">
        <ele>775.6</ele>
        <time>2025-09-07T08:41:24Z</time>
      </trkpt>
      <trkpt lat="46.19278" lon="4.57738">
        <ele>775.6</ele>
        <time>2025-09-07T08:41:25Z</time>
      </trkpt>
      <trkpt lat="46.19278" lon="4.57739">
        <ele>775.6</ele>
        <time>2025-09-07T08:41:26Z</time>
      </trkpt>
      <trkpt lat="46.19279" lon="4.57741">
        <ele>776.2</ele>
        <time>2025-09-07T08:41:27Z</time>
      </trkpt>
      <trkpt lat="46.1928" lon="4.57742">
        <ele>776.2</ele>
        <time>2025-09-07T08:41:28Z</time>
      </trkpt>
      <trkpt lat="46.19281" lon="4.57743">
        <ele>775.8</ele>
        <time>2025-09-07T08:41:29Z</time>
      </trkpt>
      <trkpt lat="46.19282" lon="4.57745">
        <ele>775.8</ele>
        <time>2025-09-07T08:41:30Z</time>
      </trkpt>
      <trkpt lat="46.19281" lon="4.57746">
        <ele>775.8</ele>
        <time>2025-09-07T08:41:31Z</time>
      </trkpt>
      <trkpt lat="46.19281" lon="4.57746">
        <ele>775.8</ele>
        <time>2025-09-07T08:41:32Z</time>
      </trkpt>
      <trkpt lat="46.1928" lon="4.57747">
        <ele>775.6</ele>
        <time>2025-09-07T08:41:45Z</time>
      </trkpt>
      <trkpt lat="46.1928" lon="4.57747">
        <ele>775.6</ele>
        <time>2025-09-07T08:41:46Z</time>
      </trkpt>
      <trkpt lat="46.19279" lon="4.57748">
        <ele>775.6</ele>
        <time>2025-09-07T08:41:47Z</time>
      </trkpt>
      <trkpt lat="46.19278" lon="4.5775">
        <ele>775.6</ele>
        <time>2025-09-07T08:41:48Z</time>
      </trkpt>
      <trkpt lat="46.19277" lon="4.57751">
        <ele>775.8</ele>
        <time>2025-09-07T08:41:49Z</time>
      </trkpt>
      <trkpt lat="46.19277" lon="4.57751">
        <ele>775.6</ele>
        <time>2025-09-07T08:41:50Z</time>
      </trkpt>
      <trkpt lat="46.19278" lon="4.57751">
        <ele>775.6</ele>
        <time>2025-09-07T08:41:51Z</time>
      </trkpt>
      <trkpt lat="46.1928" lon="4.57749">
        <ele>775.8</ele>
        <time>2025-09-07T08:41:52Z</time>
      </trkpt>
      <trkpt lat="46.1928" lon="4.57748">
        <ele>775.8</ele>
        <time>2025-09-07T08:41:53Z</time>
      </trkpt>
      <trkpt lat="46.19281" lon="4.57746">
        <ele>776</ele>
        <time>2025-09-07T08:41:54Z</time>
      </trkpt>
      <trkpt lat="46.19282" lon="4.57745">
        <ele>776.4</ele>
        <time>2025-09-07T08:41:55Z</time>
      </trkpt>
      <trkpt lat="46.19282" lon="4.57743">
        <ele>776.4</ele>
        <time>2025-09-07T08:41:56Z</time>
      </trkpt>
      <trkpt lat="46.19283" lon="4.57743">
        <ele>776.4</ele>
        <time>2025-09-07T08:41:57Z</time>
      </trkpt>
      <trkpt lat="46.19283" lon="4.57742">
        <ele>776.4</ele>
        <time>2025-09-07T08:41:58Z</time>
      </trkpt>
      <trkpt lat="46.19285" lon="4.57746">
        <ele>775.4</ele>
        <time>2025-09-07T08:43:24Z</time>
      </trkpt>
      <trkpt lat="46.19284" lon="4.57747">
        <ele>775.4</ele>
        <time>2025-09-07T08:43:25Z</time>
      </trkpt>
      <trkpt lat="46.19284" lon="4.57748">
        <ele>775.4</ele>
        <time>2025-09-07T08:43:26Z</time>
      </trkpt>
      <trkpt lat="46.19284" lon="4.57748">
        <ele>775.6</ele>
        <time>2025-09-07T08:43:27Z</time>
      </trkpt>
      <trkpt lat="46.19284" lon="4.57749">
        <ele>775.6</ele>
        <time>2025-09-07T08:43:28Z</time>
      </trkpt>
      <trkpt lat="46.19284" lon="4.57749">
        <ele>775.8</ele>
        <time>2025-09-07T08:43:29Z</time>
      </trkpt>
      <trkpt lat="46.19283" lon="4.5775">
        <ele>775.8</ele>
        <time>2025-09-07T08:43:30Z</time>
      </trkpt>
      <trkpt lat="46.19282" lon="4.57751">
        <ele>775.8</ele>
        <time>2025-09-07T08:43:31Z</time>
      </trkpt>
      <trkpt lat="46.1928" lon="4.57752">
        <ele>775.8</ele>
        <time>2025-09-07T08:43:32Z</time>
      </trkpt>
      <trkpt lat="46.19278" lon="4.57754">
        <ele>775.8</ele>
        <time>2025-09-07T08:43:33Z</time>
      </trkpt>
      <trkpt lat="46.19276" lon="4.57756">
        <ele>775.4</ele>
        <time>2025-09-07T08:43:34Z</time>
      </trkpt>
      <trkpt lat="46.19274" lon="4.57759">
        <ele>775.2</ele>
        <time>2025-09-07T08:43:35Z</time>
      </trkpt>
      <trkpt lat="46.19272" lon="4.57762">
        <ele>775.2</ele>
        <time>2025-09-07T08:43:36Z</time>
      </trkpt>
      <trkpt lat="46.19269" lon="4.57765">
        <ele>775</ele>
        <time>2025-09-07T08:43:37Z</time>
      </trkpt>
      <trkpt lat="46.19266" lon="4.57768">
        <ele>775</ele>
        <time>2025-09-07T08:43:38Z</time>
      </trkpt>
      <trkpt lat="46.19262" lon="4.57771">
        <ele>775</ele>
        <time>2025-09-07T08:43:39Z</time>
      </trkpt>
      <trkpt lat="46.19259" lon="4.57774">
        <ele>775</ele>
        <time>2025-09-07T08:43:40Z</time>
      </trkpt>
      <trkpt lat="46.19255" lon="4.57777">
        <ele>775</ele>
        <time>2025-09-07T08:43:41Z</time>
      </trkpt>
      <trkpt lat="46.19251" lon="4.57781">
        <ele>775</ele>
        <time>2025-09-07T08:43:42Z</time>
      </trkpt>
      <trkpt lat="46.19247" lon="4.57785">
        <ele>774.6</ele>
        <time>2025-09-07T08:43:43Z</time>
      </trkpt>
      <trkpt lat="46.19243" lon="4.57789">
        <ele>774.6</ele>
        <time>2025-09-07T08:43:44Z</time>
      </trkpt>
      <trkpt lat="46.1924" lon="4.57793">
        <ele>774.6</ele>
        <time>2025-09-07T08:43:45Z</time>
      </trkpt>
      <trkpt lat="46.19236" lon="4.57796">
        <ele>774.6</ele>
        <time>2025-09-07T08:43:46Z</time>
      </trkpt>
      <trkpt lat="46.19233" lon="4.57799">
        <ele>774.2</ele>
        <time>2025-09-07T08:43:47Z</time>
      </trkpt>
      <trkpt lat="46.1923" lon="4.57802">
        <ele>774.2</ele>
        <time>2025-09-07T08:43:48Z</time>
      </trkpt>
      <trkpt lat="46.19228" lon="4.57804">
        <ele>774.2</ele>
        <time>2025-09-07T08:43:49Z</time>
      </trkpt>
      <trkpt lat="46.19228" lon="4.57805">
        <ele>774.2</ele>
        <time>2025-09-07T08:43:50Z</time>
      </trkpt>
      <trkpt lat="46.19227" lon="4.57806">
        <ele>774.6</ele>
        <time>2025-09-07T08:43:51Z</time>
      </trkpt>
      <trkpt lat="46.19225" lon="4.57808">
        <ele>774.6</ele>
        <time>2025-09-07T08:43:52Z</time>
      </trkpt>
      <trkpt lat="46.19223" lon="4.57808">
        <ele>774.6</ele>
        <time>2025-09-07T08:43:53Z</time>
      </trkpt>
      <trkpt lat="46.19222" lon="4.5781">
        <ele>774.6</ele>
        <time>2025-09-07T08:43:54Z</time>
      </trkpt>
      <trkpt lat="46.1922" lon="4.57811">
        <ele>774.4</ele>
        <time>2025-09-07T08:43:55Z</time>
      </trkpt>
      <trkpt lat="46.19219" lon="4.57813">
        <ele>774.4</ele>
        <time>2025-09-07T08:43:56Z</time>
      </trkpt>
      <trkpt lat="46.19216" lon="4.57814">
        <ele>774.4</ele>
        <time>2025-09-07T08:43:57Z</time>
      </trkpt>
      <trkpt lat="46.19214" lon="4.57816">
        <ele>774.4</ele>
        <time>2025-09-07T08:43:58Z</time>
      </trkpt>
      <trkpt lat="46.19212" lon="4.57819">
        <ele>774.6</ele>
        <time>2025-09-07T08:43:59Z</time>
      </trkpt>
      <trkpt lat="46.19209" lon="4.57822">
        <ele>774.6</ele>
        <time>2025-09-07T08:44:00Z</time>
      </trkpt>
      <trkpt lat="46.19206" lon="4.57825">
        <ele>774.6</ele>
        <time>2025-09-07T08:44:01Z</time>
      </trkpt>
      <trkpt lat="46.19202" lon="4.57828">
        <ele>774.6</ele>
        <time>2025-09-07T08:44:02Z</time>
      </trkpt>
      <trkpt lat="46.19199" lon="4.5783">
        <ele>774.6</ele>
        <time>2025-09-07T08:44:03Z</time>
      </trkpt>
      <trkpt lat="46.19195" lon="4.57834">
        <ele>774.6</ele>
        <time>2025-09-07T08:44:04Z</time>
      </trkpt>
      <trkpt lat="46.19192" lon="4.57837">
        <ele>774.6</ele>
        <time>2025-09-07T08:44:05Z</time>
      </trkpt>
      <trkpt lat="46.19187" lon="4.5784">
        <ele>774.6</ele>
        <time>2025-09-07T08:44:06Z</time>
      </trkpt>
      <trkpt lat="46.19183" lon="4.57844">
        <ele>774.6</ele>
        <time>2025-09-07T08:44:07Z</time>
      </trkpt>
      <trkpt lat="46.19179" lon="4.57847">
        <ele>774.6</ele>
        <time>2025-09-07T08:44:08Z</time>
      </trkpt>
      <trkpt lat="46.19174" lon="4.57849">
        <ele>774.6</ele>
        <time>2025-09-07T08:44:09Z</time>
      </trkpt>
      <trkpt lat="46.1917" lon="4.57853">
        <ele>774.6</ele>
        <time>2025-09-07T08:44:10Z</time>
      </trkpt>
      <trkpt lat="46.19165" lon="4.57856">
        <ele>774.6</ele>
        <time>2025-09-07T08:44:11Z</time>
      </trkpt>
      <trkpt lat="46.19161" lon="4.57858">
        <ele>774.6</ele>
        <time>2025-09-07T08:44:12Z</time>
      </trkpt>
      <trkpt lat="46.19157" lon="4.57861">
        <ele>774.6</ele>
        <time>2025-09-07T08:44:13Z</time>
      </trkpt>
      <trkpt lat="46.19153" lon="4.57864">
        <ele>774.6</ele>
        <time>2025-09-07T08:44:14Z</time>
      </trkpt>
      <trkpt lat="46.1915" lon="4.57868">
        <ele>774.8</ele>
        <time>2025-09-07T08:44:15Z</time>
      </trkpt>
      <trkpt lat="46.19146" lon="4.57872">
        <ele>775</ele>
        <time>2025-09-07T08:44:16Z</time>
      </trkpt>
      <trkpt lat="46.19143" lon="4.57876">
        <ele>775</ele>
        <time>2025-09-07T08:44:17Z</time>
      </trkpt>
      <trkpt lat="46.1914" lon="4.57879">
        <ele>775</ele>
        <time>2025-09-07T08:44:18Z</time>
      </trkpt>
      <trkpt lat="46.19137" lon="4.57883">
        <ele>775.6</ele>
        <time>2025-09-07T08:44:19Z</time>
      </trkpt>
      <trkpt lat="46.19134" lon="4.57885">
        <ele>776.2</ele>
        <time>2025-09-07T08:44:20Z</time>
      </trkpt>
      <trkpt lat="46.19132" lon="4.57889">
        <ele>776.6</ele>
        <time>2025-09-07T08:44:21Z</time>
      </trkpt>
      <trkpt lat="46.1913" lon="4.57892">
        <ele>777</ele>
        <time>2025-09-07T08:44:22Z</time>
      </trkpt>
      <trkpt lat="46.19127" lon="4.57894">
        <ele>777.4</ele>
        <time>2025-09-07T08:44:23Z</time>
      </trkpt>
      <trkpt lat="46.19126" lon="4.57897">
        <ele>777.8</ele>
        <time>2025-09-07T08:44:24Z</time>
      </trkpt>
      <trkpt lat="46.19122" lon="4.57902">
        <ele>778.2</ele>
        <time>2025-09-07T08:44:25Z</time>
      </trkpt>
      <trkpt lat="46.1912" lon="4.57905">
        <ele>778.4</ele>
        <time>2025-09-07T08:44:26Z</time>
      </trkpt>
      <trkpt lat="46.19119" lon="4.57907">
        <ele>778.4</ele>
        <time>2025-09-07T08:44:27Z</time>
      </trkpt>
      <trkpt lat="46.19117" lon="4.57909">
        <ele>778.6</ele>
        <time>2025-09-07T08:44:28Z</time>
      </trkpt>
      <trkpt lat="46.19116" lon="4.5791">
        <ele>779.2</ele>
        <time>2025-09-07T08:44:29Z</time>
      </trkpt>
      <trkpt lat="46.19115" lon="4.57912">
        <ele>779.2</ele>
        <time>2025-09-07T08:44:30Z</time>
      </trkpt>
      <trkpt lat="46.19113" lon="4.57914">
        <ele>779.4</ele>
        <time>2025-09-07T08:44:31Z</time>
      </trkpt>
      <trkpt lat="46.19112" lon="4.57916">
        <ele>779.6</ele>
        <time>2025-09-07T08:44:32Z</time>
      </trkpt>
      <trkpt lat="46.19111" lon="4.57919">
        <ele>779.6</ele>
        <time>2025-09-07T08:44:33Z</time>
      </trkpt>
      <trkpt lat="46.1911" lon="4.57921">
        <ele>779.8</ele>
        <time>2025-09-07T08:44:34Z</time>
      </trkpt>
      <trkpt lat="46.19109" lon="4.57923">
        <ele>779.8</ele>
        <time>2025-09-07T08:44:35Z</time>
      </trkpt>
      <trkpt lat="46.19108" lon="4.57925">
        <ele>779.8</ele>
        <time>2025-09-07T08:44:36Z</time>
      </trkpt>
      <trkpt lat="46.19107" lon="4.57927">
        <ele>780</ele>
        <time>2025-09-07T08:44:37Z</time>
      </trkpt>
      <trkpt lat="46.19105" lon="4.57929">
        <ele>780</ele>
        <time>2025-09-07T08:44:38Z</time>
      </trkpt>
      <trkpt lat="46.19104" lon="4.5793">
        <ele>780.4</ele>
        <time>2025-09-07T08:44:39Z</time>
      </trkpt>
      <trkpt lat="46.19102" lon="4.57931">
        <ele>780.4</ele>
        <time>2025-09-07T08:44:40Z</time>
      </trkpt>
      <trkpt lat="46.191" lon="4.57932">
        <ele>780.6</ele>
        <time>2025-09-07T08:44:41Z</time>
      </trkpt>
      <trkpt lat="46.19099" lon="4.57933">
        <ele>780.6</ele>
        <time>2025-09-07T08:44:42Z</time>
      </trkpt>
      <trkpt lat="46.19097" lon="4.57935">
        <ele>780.6</ele>
        <time>2025-09-07T08:44:43Z</time>
      </trkpt>
      <trkpt lat="46.19096" lon="4.57937">
        <ele>780.8</ele>
        <time>2025-09-07T08:44:44Z</time>
      </trkpt>
      <trkpt lat="46.19094" lon="4.57938">
        <ele>780.8</ele>
        <time>2025-09-07T08:44:45Z</time>
      </trkpt>
      <trkpt lat="46.19093" lon="4.5794">
        <ele>781.2</ele>
        <time>2025-09-07T08:44:46Z</time>
      </trkpt>
      <trkpt lat="46.19091" lon="4.57941">
        <ele>781.2</ele>
        <time>2025-09-07T08:44:47Z</time>
      </trkpt>
      <trkpt lat="46.1909" lon="4.57942">
        <ele>781.4</ele>
        <time>2025-09-07T08:44:48Z</time>
      </trkpt>
      <trkpt lat="46.19088" lon="4.57944">
        <ele>781.4</ele>
        <time>2025-09-07T08:44:49Z</time>
      </trkpt>
      <trkpt lat="46.19087" lon="4.57946">
        <ele>781.6</ele>
        <time>2025-09-07T08:44:50Z</time>
      </trkpt>
      <trkpt lat="46.19085" lon="4.57948">
        <ele>781.6</ele>
        <time>2025-09-07T08:44:51Z</time>
      </trkpt>
      <trkpt lat="46.19084" lon="4.5795">
        <ele>781.6</ele>
        <time>2025-09-07T08:44:52Z</time>
      </trkpt>
      <trkpt lat="46.19082" lon="4.57953">
        <ele>781.6</ele>
        <time>2025-09-07T08:44:53Z</time>
      </trkpt>
      <trkpt lat="46.19081" lon="4.57955">
        <ele>781.8</ele>
        <time>2025-09-07T08:44:54Z</time>
      </trkpt>
      <trkpt lat="46.1908" lon="4.57958">
        <ele>782</ele>
        <time>2025-09-07T08:44:55Z</time>
      </trkpt>
      <trkpt lat="46.19079" lon="4.57961">
        <ele>782</ele>
        <time>2025-09-07T08:44:56Z</time>
      </trkpt>
      <trkpt lat="46.19078" lon="4.57964">
        <ele>782.4</ele>
        <time>2025-09-07T08:44:57Z</time>
      </trkpt>
      <trkpt lat="46.19077" lon="4.57966">
        <ele>782.4</ele>
        <time>2025-09-07T08:44:58Z</time>
      </trkpt>
      <trkpt lat="46.19076" lon="4.57967">
        <ele>782.8</ele>
        <time>2025-09-07T08:44:59Z</time>
      </trkpt>
      <trkpt lat="46.19074" lon="4.57969">
        <ele>783</ele>
        <time>2025-09-07T08:45:00Z</time>
      </trkpt>
      <trkpt lat="46.19073" lon="4.57971">
        <ele>783</ele>
        <time>2025-09-07T08:45:01Z</time>
      </trkpt>
      <trkpt lat="46.19071" lon="4.57974">
        <ele>783</ele>
        <time>2025-09-07T08:45:02Z</time>
      </trkpt>
      <trkpt lat="46.1907" lon="4.57976">
        <ele>783.4</ele>
        <time>2025-09-07T08:45:03Z</time>
      </trkpt>
      <trkpt lat="46.19068" lon="4.57978">
        <ele>783.6</ele>
        <time>2025-09-07T08:45:04Z</time>
      </trkpt>
      <trkpt lat="46.19067" lon="4.57979">
        <ele>783.6</ele>
        <time>2025-09-07T08:45:05Z</time>
      </trkpt>
      <trkpt lat="46.19065" lon="4.57981">
        <ele>783.8</ele>
        <time>2025-09-07T08:45:06Z</time>
      </trkpt>
      <trkpt lat="46.19064" lon="4.57983">
        <ele>783.8</ele>
        <time>2025-09-07T08:45:07Z</time>
      </trkpt>
      <trkpt lat="46.19062" lon="4.57985">
        <ele>784.2</ele>
        <time>2025-09-07T08:45:08Z</time>
      </trkpt>
      <trkpt lat="46.19059" lon="4.57987">
        <ele>784.2</ele>
        <time>2025-09-07T08:45:09Z</time>
      </trkpt>
      <trkpt lat="46.19057" lon="4.5799">
        <ele>784.2</ele>
        <time>2025-09-07T08:45:10Z</time>
      </trkpt>
      <trkpt lat="46.19055" lon="4.57992">
        <ele>784.2</ele>
        <time>2025-09-07T08:45:11Z</time>
      </trkpt>
      <trkpt lat="46.19055" lon="4.57992">
        <ele>784.6</ele>
        <time>2025-09-07T08:45:12Z</time>
      </trkpt>
      <trkpt lat="46.19054" lon="4.57994">
        <ele>784.6</ele>
        <time>2025-09-07T08:45:13Z</time>
      </trkpt>
      <trkpt lat="46.19052" lon="4.57996">
        <ele>784.6</ele>
        <time>2025-09-07T08:45:14Z</time>
      </trkpt>
      <trkpt lat="46.19051" lon="4.57998">
        <ele>784.6</ele>
        <time>2025-09-07T08:45:15Z</time>
      </trkpt>
      <trkpt lat="46.19049" lon="4.58">
        <ele>784.8</ele>
        <time>2025-09-07T08:45:16Z</time>
      </trkpt>
      <trkpt lat="46.19046" lon="4.58002">
        <ele>785</ele>
        <time>2025-09-07T08:45:17Z</time>
      </trkpt>
      <trkpt lat="46.19044" lon="4.58003">
        <ele>785.4</ele>
        <time>2025-09-07T08:45:18Z</time>
      </trkpt>
      <trkpt lat="46.19042" lon="4.58005">
        <ele>785.4</ele>
        <time>2025-09-07T08:45:19Z</time>
      </trkpt>
      <trkpt lat="46.19041" lon="4.58007">
        <ele>785.6</ele>
        <time>2025-09-07T08:45:20Z</time>
      </trkpt>
      <trkpt lat="46.1904" lon="4.58009">
        <ele>785.6</ele>
        <time>2025-09-07T08:45:21Z</time>
      </trkpt>
      <trkpt lat="46.19039" lon="4.58012">
        <ele>785.6</ele>
        <time>2025-09-07T08:45:22Z</time>
      </trkpt>
      <trkpt lat="46.19038" lon="4.58014">
        <ele>785.6</ele>
        <time>2025-09-07T08:45:23Z</time>
      </trkpt>
      <trkpt lat="46.19036" lon="4.58016">
        <ele>786</ele>
        <time>2025-09-07T08:45:24Z</time>
      </trkpt>
      <trkpt lat="46.19034" lon="4.58019">
        <ele>786.2</ele>
        <time>2025-09-07T08:45:25Z</time>
      </trkpt>
      <trkpt lat="46.19033" lon="4.58021">
        <ele>786.4</ele>
        <time>2025-09-07T08:45:26Z</time>
      </trkpt>
      <trkpt lat="46.19031" lon="4.58023">
        <ele>786.4</ele>
        <time>2025-09-07T08:45:27Z</time>
      </trkpt>
      <trkpt lat="46.1903" lon="4.58024">
        <ele>786.4</ele>
        <time>2025-09-07T08:45:28Z</time>
      </trkpt>
      <trkpt lat="46.19028" lon="4.58027">
        <ele>786.4</ele>
        <time>2025-09-07T08:45:29Z</time>
      </trkpt>
      <trkpt lat="46.19026" lon="4.58028">
        <ele>786.4</ele>
        <time>2025-09-07T08:45:30Z</time>
      </trkpt>
      <trkpt lat="46.19024" lon="4.5803">
        <ele>786.4</ele>
        <time>2025-09-07T08:45:31Z</time>
      </trkpt>
      <trkpt lat="46.19022" lon="4.58032">
        <ele>786.4</ele>
        <time>2025-09-07T08:45:32Z</time>
      </trkpt>
      <trkpt lat="46.1902" lon="4.58033">
        <ele>786.8</ele>
        <time>2025-09-07T08:45:33Z</time>
      </trkpt>
      <trkpt lat="46.19018" lon="4.58035">
        <ele>786.8</ele>
        <time>2025-09-07T08:45:34Z</time>
      </trkpt>
      <trkpt lat="46.19016" lon="4.58037">
        <ele>787</ele>
        <time>2025-09-07T08:45:35Z</time>
      </trkpt>
      <trkpt lat="46.19014" lon="4.5804">
        <ele>787</ele>
        <time>2025-09-07T08:45:36Z</time>
      </trkpt>
      <trkpt lat="46.19012" lon="4.58041">
        <ele>787</ele>
        <time>2025-09-07T08:45:37Z</time>
      </trkpt>
      <trkpt lat="46.1901" lon="4.58043">
        <ele>787.4</ele>
        <time>2025-09-07T08:45:38Z</time>
      </trkpt>
      <trkpt lat="46.19008" lon="4.58044">
        <ele>787.4</ele>
        <time>2025-09-07T08:45:39Z</time>
      </trkpt>
      <trkpt lat="46.19006" lon="4.58045">
        <ele>787.4</ele>
        <time>2025-09-07T08:45:40Z</time>
      </trkpt>
      <trkpt lat="46.19005" lon="4.58047">
        <ele>787.4</ele>
        <time>2025-09-07T08:45:41Z</time>
      </trkpt>
      <trkpt lat="46.19004" lon="4.58049">
        <ele>787.4</ele>
        <time>2025-09-07T08:45:42Z</time>
      </trkpt>
      <trkpt lat="46.19002" lon="4.58051">
        <ele>787.6</ele>
        <time>2025-09-07T08:45:43Z</time>
      </trkpt>
      <trkpt lat="46.19" lon="4.58052">
        <ele>787.6</ele>
        <time>2025-09-07T08:45:44Z</time>
      </trkpt>
      <trkpt lat="46.18999" lon="4.58054">
        <ele>787.8</ele>
        <time>2025-09-07T08:45:45Z</time>
      </trkpt>
      <trkpt lat="46.18997" lon="4.58055">
        <ele>787.8</ele>
        <time>2025-09-07T08:45:46Z</time>
      </trkpt>
      <trkpt lat="46.18996" lon="4.58056">
        <ele>787.8</ele>
        <time>2025-09-07T08:45:47Z</time>
      </trkpt>
      <trkpt lat="46.18995" lon="4.58057">
        <ele>788.4</ele>
        <time>2025-09-07T08:45:48Z</time>
      </trkpt>
      <trkpt lat="46.18994" lon="4.58059">
        <ele>788.4</ele>
        <time>2025-09-07T08:45:49Z</time>
      </trkpt>
      <trkpt lat="46.18993" lon="4.58062">
        <ele>788.6</ele>
        <time>2025-09-07T08:45:50Z</time>
      </trkpt>
      <trkpt lat="46.18991" lon="4.58064">
        <ele>788.8</ele>
        <time>2025-09-07T08:45:51Z</time>
      </trkpt>
      <trkpt lat="46.1899" lon="4.58065">
        <ele>788.8</ele>
        <time>2025-09-07T08:45:52Z</time>
      </trkpt>
      <trkpt lat="46.18989" lon="4.58067">
        <ele>789.2</ele>
        <time>2025-09-07T08:45:53Z</time>
      </trkpt>
      <trkpt lat="46.18988" lon="4.58068">
        <ele>789.2</ele>
        <time>2025-09-07T08:45:54Z</time>
      </trkpt>
      <trkpt lat="46.18987" lon="4.58069">
        <ele>789.2</ele>
        <time>2025-09-07T08:45:55Z</time>
      </trkpt>
      <trkpt lat="46.18986" lon="4.5807">
        <ele>789.2</ele>
        <time>2025-09-07T08:45:56Z</time>
      </trkpt>
      <trkpt lat="46.18985" lon="4.58072">
        <ele>789.4</ele>
        <time>2025-09-07T08:45:57Z</time>
      </trkpt>
      <trkpt lat="46.18983" lon="4.58073">
        <ele>789.8</ele>
        <time>2025-09-07T08:45:58Z</time>
      </trkpt>
      <trkpt lat="46.18982" lon="4.58075">
        <ele>789.8</ele>
        <time>2025-09-07T08:45:59Z</time>
      </trkpt>
      <trkpt lat="46.1898" lon="4.58076">
        <ele>790.2</ele>
        <time>2025-09-07T08:46:00Z</time>
      </trkpt>
      <trkpt lat="46.18979" lon="4.58077">
        <ele>790.2</ele>
        <time>2025-09-07T08:46:01Z</time>
      </trkpt>
      <trkpt lat="46.18978" lon="4.58079">
        <ele>790.2</ele>
        <time>2025-09-07T08:46:02Z</time>
      </trkpt>
      <trkpt lat="46.18977" lon="4.5808">
        <ele>790.6</ele>
        <time>2025-09-07T08:46:03Z</time>
      </trkpt>
      <trkpt lat="46.18975" lon="4.58081">
        <ele>790.8</ele>
        <time>2025-09-07T08:46:04Z</time>
      </trkpt>
      <trkpt lat="46.18974" lon="4.58083">
        <ele>791</ele>
        <time>2025-09-07T08:46:05Z</time>
      </trkpt>
      <trkpt lat="46.18973" lon="4.58084">
        <ele>791</ele>
        <time>2025-09-07T08:46:06Z</time>
      </trkpt>
      <trkpt lat="46.18971" lon="4.58085">
        <ele>791.4</ele>
        <time>2025-09-07T08:46:07Z</time>
      </trkpt>
      <trkpt lat="46.1897" lon="4.58086">
        <ele>791.6</ele>
        <time>2025-09-07T08:46:08Z</time>
      </trkpt>
      <trkpt lat="46.18968" lon="4.58088">
        <ele>791.6</ele>
        <time>2025-09-07T08:46:09Z</time>
      </trkpt>
      <trkpt lat="46.18966" lon="4.58089">
        <ele>791.6</ele>
        <time>2025-09-07T08:46:10Z</time>
      </trkpt>
      <trkpt lat="46.18964" lon="4.58091">
        <ele>791.8</ele>
        <time>2025-09-07T08:46:11Z</time>
      </trkpt>
      <trkpt lat="46.18963" lon="4.58092">
        <ele>791.8</ele>
        <time>2025-09-07T08:46:12Z</time>
      </trkpt>
      <trkpt lat="46.18961" lon="4.58094">
        <ele>791.8</ele>
        <time>2025-09-07T08:46:13Z</time>
      </trkpt>
      <trkpt lat="46.1896" lon="4.58095">
        <ele>791.8</ele>
        <time>2025-09-07T08:46:14Z</time>
      </trkpt>
      <trkpt lat="46.18958" lon="4.58095">
        <ele>792</ele>
        <time>2025-09-07T08:46:15Z</time>
      </trkpt>
      <trkpt lat="46.18956" lon="4.58096">
        <ele>792</ele>
        <time>2025-09-07T08:46:16Z</time>
      </trkpt>
      <trkpt lat="46.18954" lon="4.58097">
        <ele>792</ele>
        <time>2025-09-07T08:46:17Z</time>
      </trkpt>
      <trkpt lat="46.18952" lon="4.58098">
        <ele>792</ele>
        <time>2025-09-07T08:46:18Z</time>
      </trkpt>
      <trkpt lat="46.18951" lon="4.58099">
        <ele>792.2</ele>
        <time>2025-09-07T08:46:19Z</time>
      </trkpt>
      <trkpt lat="46.18949" lon="4.581">
        <ele>792.2</ele>
        <time>2025-09-07T08:46:20Z</time>
      </trkpt>
      <trkpt lat="46.18948" lon="4.58102">
        <ele>792.2</ele>
        <time>2025-09-07T08:46:21Z</time>
      </trkpt>
      <trkpt lat="46.18947" lon="4.58103">
        <ele>792.6</ele>
        <time>2025-09-07T08:46:22Z</time>
      </trkpt>
      <trkpt lat="46.18945" lon="4.58105">
        <ele>792.8</ele>
        <time>2025-09-07T08:46:23Z</time>
      </trkpt>
      <trkpt lat="46.18944" lon="4.58107">
        <ele>792.8</ele>
        <time>2025-09-07T08:46:24Z</time>
      </trkpt>
      <trkpt lat="46.18943" lon="4.58108">
        <ele>792.8</ele>
        <time>2025-09-07T08:46:25Z</time>
      </trkpt>
      <trkpt lat="46.18941" lon="4.5811">
        <ele>792.8</ele>
        <time>2025-09-07T08:46:26Z</time>
      </trkpt>
      <trkpt lat="46.1894" lon="4.58111">
        <ele>793.2</ele>
        <time>2025-09-07T08:46:27Z</time>
      </trkpt>
      <trkpt lat="46.18939" lon="4.58111">
        <ele>793.2</ele>
        <time>2025-09-07T08:46:28Z</time>
      </trkpt>
      <trkpt lat="46.18937" lon="4.58113">
        <ele>793.2</ele>
        <time>2025-09-07T08:46:29Z</time>
      </trkpt>
      <trkpt lat="46.18936" lon="4.58114">
        <ele>793.2</ele>
        <time>2025-09-07T08:46:30Z</time>
      </trkpt>
      <trkpt lat="46.18935" lon="4.58115">
        <ele>793.4</ele>
        <time>2025-09-07T08:46:31Z</time>
      </trkpt>
      <trkpt lat="46.18933" lon="4.58117">
        <ele>793.4</ele>
        <time>2025-09-07T08:46:32Z</time>
      </trkpt>
      <trkpt lat="46.18932" lon="4.58118">
        <ele>793.4</ele>
        <time>2025-09-07T08:46:33Z</time>
      </trkpt>
      <trkpt lat="46.1893" lon="4.58119">
        <ele>793.4</ele>
        <time>2025-09-07T08:46:34Z</time>
      </trkpt>
      <trkpt lat="46.18929" lon="4.5812">
        <ele>793.4</ele>
        <time>2025-09-07T08:46:35Z</time>
      </trkpt>
      <trkpt lat="46.18927" lon="4.58122">
        <ele>793.6</ele>
        <time>2025-09-07T08:46:36Z</time>
      </trkpt>
      <trkpt lat="46.18926" lon="4.58123">
        <ele>793.6</ele>
        <time>2025-09-07T08:46:37Z</time>
      </trkpt>
      <trkpt lat="46.18925" lon="4.58125">
        <ele>793.8</ele>
        <time>2025-09-07T08:46:38Z</time>
      </trkpt>
      <trkpt lat="46.18923" lon="4.58126">
        <ele>793.8</ele>
        <time>2025-09-07T08:46:39Z</time>
      </trkpt>
      <trkpt lat="46.18922" lon="4.58127">
        <ele>793.8</ele>
        <time>2025-09-07T08:46:40Z</time>
      </trkpt>
      <trkpt lat="46.1892" lon="4.58128">
        <ele>794.2</ele>
        <time>2025-09-07T08:46:41Z</time>
      </trkpt>
      <trkpt lat="46.18919" lon="4.58129">
        <ele>794.2</ele>
        <time>2025-09-07T08:46:42Z</time>
      </trkpt>
      <trkpt lat="46.18917" lon="4.5813">
        <ele>794.6</ele>
        <time>2025-09-07T08:46:43Z</time>
      </trkpt>
      <trkpt lat="46.18916" lon="4.58131">
        <ele>794.6</ele>
        <time>2025-09-07T08:46:44Z</time>
      </trkpt>
      <trkpt lat="46.18914" lon="4.58132">
        <ele>794.6</ele>
        <time>2025-09-07T08:46:45Z</time>
      </trkpt>
      <trkpt lat="46.18912" lon="4.58133">
        <ele>794.6</ele>
        <time>2025-09-07T08:46:46Z</time>
      </trkpt>
      <trkpt lat="46.18911" lon="4.58134">
        <ele>794.8</ele>
        <time>2025-09-07T08:46:47Z</time>
      </trkpt>
      <trkpt lat="46.18909" lon="4.58135">
        <ele>794.8</ele>
        <time>2025-09-07T08:46:48Z</time>
      </trkpt>
      <trkpt lat="46.18908" lon="4.58136">
        <ele>795</ele>
        <time>2025-09-07T08:46:49Z</time>
      </trkpt>
      <trkpt lat="46.18907" lon="4.58138">
        <ele>795</ele>
        <time>2025-09-07T08:46:50Z</time>
      </trkpt>
      <trkpt lat="46.18905" lon="4.58139">
        <ele>795</ele>
        <time>2025-09-07T08:46:51Z</time>
      </trkpt>
      <trkpt lat="46.18904" lon="4.5814">
        <ele>795.6</ele>
        <time>2025-09-07T08:46:52Z</time>
      </trkpt>
      <trkpt lat="46.18902" lon="4.58142">
        <ele>795.8</ele>
        <time>2025-09-07T08:46:53Z</time>
      </trkpt>
      <trkpt lat="46.189" lon="4.58143">
        <ele>795.8</ele>
        <time>2025-09-07T08:46:54Z</time>
      </trkpt>
      <trkpt lat="46.18899" lon="4.58144">
        <ele>795.8</ele>
        <time>2025-09-07T08:46:55Z</time>
      </trkpt>
      <trkpt lat="46.18898" lon="4.58145">
        <ele>795.8</ele>
        <time>2025-09-07T08:46:56Z</time>
      </trkpt>
      <trkpt lat="46.18896" lon="4.58146">
        <ele>795.8</ele>
        <time>2025-09-07T08:46:57Z</time>
      </trkpt>
      <trkpt lat="46.18895" lon="4.58147">
        <ele>795.8</ele>
        <time>2025-09-07T08:46:58Z</time>
      </trkpt>
      <trkpt lat="46.18894" lon="4.58148">
        <ele>795.8</ele>
        <time>2025-09-07T08:46:59Z</time>
      </trkpt>
      <trkpt lat="46.18892" lon="4.58149">
        <ele>795.8</ele>
        <time>2025-09-07T08:47:00Z</time>
      </trkpt>
      <trkpt lat="46.18891" lon="4.58149">
        <ele>796</ele>
        <time>2025-09-07T08:47:01Z</time>
      </trkpt>
      <trkpt lat="46.1889" lon="4.5815">
        <ele>796.4</ele>
        <time>2025-09-07T08:47:02Z</time>
      </trkpt>
      <trkpt lat="46.18888" lon="4.58152">
        <ele>796.6</ele>
        <time>2025-09-07T08:47:03Z</time>
      </trkpt>
      <trkpt lat="46.18887" lon="4.58153">
        <ele>796.8</ele>
        <time>2025-09-07T08:47:04Z</time>
      </trkpt>
      <trkpt lat="46.18885" lon="4.58154">
        <ele>797.2</ele>
        <time>2025-09-07T08:47:05Z</time>
      </trkpt>
      <trkpt lat="46.18883" lon="4.58155">
        <ele>797.4</ele>
        <time>2025-09-07T08:47:06Z</time>
      </trkpt>
      <trkpt lat="46.18882" lon="4.58157">
        <ele>797.4</ele>
        <time>2025-09-07T08:47:07Z</time>
      </trkpt>
      <trkpt lat="46.1888" lon="4.58158">
        <ele>797.8</ele>
        <time>2025-09-07T08:47:08Z</time>
      </trkpt>
      <trkpt lat="46.18879" lon="4.5816">
        <ele>798.2</ele>
        <time>2025-09-07T08:47:09Z</time>
      </trkpt>
      <trkpt lat="46.18878" lon="4.58161">
        <ele>798.2</ele>
        <time>2025-09-07T08:47:10Z</time>
      </trkpt>
      <trkpt lat="46.18877" lon="4.58163">
        <ele>798.4</ele>
        <time>2025-09-07T08:47:11Z</time>
      </trkpt>
      <trkpt lat="46.18876" lon="4.58165">
        <ele>798.4</ele>
        <time>2025-09-07T08:47:12Z</time>
      </trkpt>
      <trkpt lat="46.18874" lon="4.58167">
        <ele>798.8</ele>
        <time>2025-09-07T08:47:13Z</time>
      </trkpt>
      <trkpt lat="46.18873" lon="4.58169">
        <ele>798.8</ele>
        <time>2025-09-07T08:47:14Z</time>
      </trkpt>
      <trkpt lat="46.18872" lon="4.58171">
        <ele>798.8</ele>
        <time>2025-09-07T08:47:15Z</time>
      </trkpt>
      <trkpt lat="46.18871" lon="4.58173">
        <ele>799.2</ele>
        <time>2025-09-07T08:47:16Z</time>
      </trkpt>
      <trkpt lat="46.18869" lon="4.58175">
        <ele>799.4</ele>
        <time>2025-09-07T08:47:17Z</time>
      </trkpt>
      <trkpt lat="46.18868" lon="4.58177">
        <ele>799.6</ele>
        <time>2025-09-07T08:47:18Z</time>
      </trkpt>
      <trkpt lat="46.18867" lon="4.58179">
        <ele>799.6</ele>
        <time>2025-09-07T08:47:19Z</time>
      </trkpt>
      <trkpt lat="46.18865" lon="4.5818">
        <ele>799.6</ele>
        <time>2025-09-07T08:47:20Z</time>
      </trkpt>
      <trkpt lat="46.18864" lon="4.58182">
        <ele>799.8</ele>
        <time>2025-09-07T08:47:21Z</time>
      </trkpt>
      <trkpt lat="46.18863" lon="4.58184">
        <ele>799.8</ele>
        <time>2025-09-07T08:47:22Z</time>
      </trkpt>
      <trkpt lat="46.18861" lon="4.58187">
        <ele>799.8</ele>
        <time>2025-09-07T08:47:23Z</time>
      </trkpt>
      <trkpt lat="46.18861" lon="4.58189">
        <ele>800</ele>
        <time>2025-09-07T08:47:24Z</time>
      </trkpt>
      <trkpt lat="46.1886" lon="4.58192">
        <ele>800</ele>
        <time>2025-09-07T08:47:25Z</time>
      </trkpt>
      <trkpt lat="46.18859" lon="4.58194">
        <ele>800</ele>
        <time>2025-09-07T08:47:26Z</time>
      </trkpt>
      <trkpt lat="46.18858" lon="4.58197">
        <ele>800</ele>
        <time>2025-09-07T08:47:27Z</time>
      </trkpt>
      <trkpt lat="46.18857" lon="4.58199">
        <ele>800</ele>
        <time>2025-09-07T08:47:28Z</time>
      </trkpt>
      <trkpt lat="46.18857" lon="4.58201">
        <ele>800</ele>
        <time>2025-09-07T08:47:29Z</time>
      </trkpt>
      <trkpt lat="46.18856" lon="4.58204">
        <ele>800</ele>
        <time>2025-09-07T08:47:30Z</time>
      </trkpt>
      <trkpt lat="46.18855" lon="4.58207">
        <ele>800</ele>
        <time>2025-09-07T08:47:31Z</time>
      </trkpt>
      <trkpt lat="46.18854" lon="4.58209">
        <ele>800</ele>
        <time>2025-09-07T08:47:32Z</time>
      </trkpt>
      <trkpt lat="46.18853" lon="4.58211">
        <ele>800.2</ele>
        <time>2025-09-07T08:47:33Z</time>
      </trkpt>
      <trkpt lat="46.18852" lon="4.58214">
        <ele>800.2</ele>
        <time>2025-09-07T08:47:34Z</time>
      </trkpt>
      <trkpt lat="46.18851" lon="4.58216">
        <ele>800.2</ele>
        <time>2025-09-07T08:47:35Z</time>
      </trkpt>
      <trkpt lat="46.18851" lon="4.58218">
        <ele>800.4</ele>
        <time>2025-09-07T08:47:36Z</time>
      </trkpt>
      <trkpt lat="46.1885" lon="4.58221">
        <ele>800.4</ele>
        <time>2025-09-07T08:47:37Z</time>
      </trkpt>
      <trkpt lat="46.18848" lon="4.58227">
        <ele>800.4</ele>
        <time>2025-09-07T08:47:38Z</time>
      </trkpt>
      <trkpt lat="46.18847" lon="4.58229">
        <ele>800.8</ele>
        <time>2025-09-07T08:47:39Z</time>
      </trkpt>
      <trkpt lat="46.18846" lon="4.58232">
        <ele>800.8</ele>
        <time>2025-09-07T08:47:40Z</time>
      </trkpt>
      <trkpt lat="46.18846" lon="4.58235">
        <ele>800.8</ele>
        <time>2025-09-07T08:47:41Z</time>
      </trkpt>
      <trkpt lat="46.18845" lon="4.58238">
        <ele>801</ele>
        <time>2025-09-07T08:47:42Z</time>
      </trkpt>
      <trkpt lat="46.18844" lon="4.58242">
        <ele>801</ele>
        <time>2025-09-07T08:47:43Z</time>
      </trkpt>
      <trkpt lat="46.18844" lon="4.58245">
        <ele>801.4</ele>
        <time>2025-09-07T08:47:44Z</time>
      </trkpt>
      <trkpt lat="46.18843" lon="4.58248">
        <ele>801.4</ele>
        <time>2025-09-07T08:47:45Z</time>
      </trkpt>
      <trkpt lat="46.18843" lon="4.58251">
        <ele>801.4</ele>
        <time>2025-09-07T08:47:46Z</time>
      </trkpt>
      <trkpt lat="46.18842" lon="4.58254">
        <ele>801.2</ele>
        <time>2025-09-07T08:47:47Z</time>
      </trkpt>
      <trkpt lat="46.18842" lon="4.58257">
        <ele>801.2</ele>
        <time>2025-09-07T08:47:48Z</time>
      </trkpt>
      <trkpt lat="46.18841" lon="4.58261">
        <ele>801.2</ele>
        <time>2025-09-07T08:47:49Z</time>
      </trkpt>
      <trkpt lat="46.1884" lon="4.58264">
        <ele>801.2</ele>
        <time>2025-09-07T08:47:50Z</time>
      </trkpt>
      <trkpt lat="46.18839" lon="4.58268">
        <ele>801.2</ele>
        <time>2025-09-07T08:47:51Z</time>
      </trkpt>
      <trkpt lat="46.18836" lon="4.58271">
        <ele>801.6</ele>
        <time>2025-09-07T08:47:52Z</time>
      </trkpt>
      <trkpt lat="46.18835" lon="4.58274">
        <ele>801.6</ele>
        <time>2025-09-07T08:47:53Z</time>
      </trkpt>
      <trkpt lat="46.18834" lon="4.58276">
        <ele>801.6</ele>
        <time>2025-09-07T08:47:54Z</time>
      </trkpt>
      <trkpt lat="46.18833" lon="4.5828">
        <ele>801.6</ele>
        <time>2025-09-07T08:47:55Z</time>
      </trkpt>
      <trkpt lat="46.18833" lon="4.58283">
        <ele>801.6</ele>
        <time>2025-09-07T08:47:56Z</time>
      </trkpt>
      <trkpt lat="46.18832" lon="4.58286">
        <ele>801.8</ele>
        <time>2025-09-07T08:47:57Z</time>
      </trkpt>
      <trkpt lat="46.18831" lon="4.58289">
        <ele>801.8</ele>
        <time>2025-09-07T08:47:58Z</time>
      </trkpt>
      <trkpt lat="46.1883" lon="4.58292">
        <ele>801.8</ele>
        <time>2025-09-07T08:47:59Z</time>
      </trkpt>
      <trkpt lat="46.1883" lon="4.58295">
        <ele>801.8</ele>
        <time>2025-09-07T08:48:00Z</time>
      </trkpt>
      <trkpt lat="46.18829" lon="4.58298">
        <ele>801.8</ele>
        <time>2025-09-07T08:48:01Z</time>
      </trkpt>
      <trkpt lat="46.18829" lon="4.58301">
        <ele>802</ele>
        <time>2025-09-07T08:48:02Z</time>
      </trkpt>
      <trkpt lat="46.18828" lon="4.58303">
        <ele>802</ele>
        <time>2025-09-07T08:48:03Z</time>
      </trkpt>
      <trkpt lat="46.18828" lon="4.58305">
        <ele>802</ele>
        <time>2025-09-07T08:48:04Z</time>
      </trkpt>
      <trkpt lat="46.18827" lon="4.58307">
        <ele>802</ele>
        <time>2025-09-07T08:48:05Z</time>
      </trkpt>
      <trkpt lat="46.18827" lon="4.5831">
        <ele>802</ele>
        <time>2025-09-07T08:48:06Z</time>
      </trkpt>
      <trkpt lat="46.18826" lon="4.58312">
        <ele>802.4</ele>
        <time>2025-09-07T08:48:07Z</time>
      </trkpt>
      <trkpt lat="46.18826" lon="4.58315">
        <ele>802.4</ele>
        <time>2025-09-07T08:48:08Z</time>
      </trkpt>
      <trkpt lat="46.18825" lon="4.58317">
        <ele>802.8</ele>
        <time>2025-09-07T08:48:09Z</time>
      </trkpt>
      <trkpt lat="46.18825" lon="4.58321">
        <ele>802.8</ele>
        <time>2025-09-07T08:48:10Z</time>
      </trkpt>
      <trkpt lat="46.18824" lon="4.58324">
        <ele>802.8</ele>
        <time>2025-09-07T08:48:11Z</time>
      </trkpt>
      <trkpt lat="46.18824" lon="4.58326">
        <ele>802.8</ele>
        <time>2025-09-07T08:48:12Z</time>
      </trkpt>
      <trkpt lat="46.18823" lon="4.58329">
        <ele>802.8</ele>
        <time>2025-09-07T08:48:13Z</time>
      </trkpt>
      <trkpt lat="46.18823" lon="4.58332">
        <ele>802.8</ele>
        <time>2025-09-07T08:48:14Z</time>
      </trkpt>
      <trkpt lat="46.18822" lon="4.58334">
        <ele>803</ele>
        <time>2025-09-07T08:48:15Z</time>
      </trkpt>
      <trkpt lat="46.18821" lon="4.58337">
        <ele>803</ele>
        <time>2025-09-07T08:48:16Z</time>
      </trkpt>
      <trkpt lat="46.1882" lon="4.5834">
        <ele>803.4</ele>
        <time>2025-09-07T08:48:17Z</time>
      </trkpt>
      <trkpt lat="46.18818" lon="4.58343">
        <ele>803.4</ele>
        <time>2025-09-07T08:48:18Z</time>
      </trkpt>
      <trkpt lat="46.18818" lon="4.58346">
        <ele>803.6</ele>
        <time>2025-09-07T08:48:19Z</time>
      </trkpt>
      <trkpt lat="46.18817" lon="4.58348">
        <ele>803.8</ele>
        <time>2025-09-07T08:48:20Z</time>
      </trkpt>
      <trkpt lat="46.18816" lon="4.58351">
        <ele>804.2</ele>
        <time>2025-09-07T08:48:21Z</time>
      </trkpt>
      <trkpt lat="46.18815" lon="4.58355">
        <ele>804.2</ele>
        <time>2025-09-07T08:48:22Z</time>
      </trkpt>
      <trkpt lat="46.18814" lon="4.58357">
        <ele>804.6</ele>
        <time>2025-09-07T08:48:23Z</time>
      </trkpt>
      <trkpt lat="46.18813" lon="4.5836">
        <ele>804.6</ele>
        <time>2025-09-07T08:48:24Z</time>
      </trkpt>
      <trkpt lat="46.18812" lon="4.58363">
        <ele>804.6</ele>
        <time>2025-09-07T08:48:25Z</time>
      </trkpt>
      <trkpt lat="46.18812" lon="4.58366">
        <ele>804.6</ele>
        <time>2025-09-07T08:48:26Z</time>
      </trkpt>
      <trkpt lat="46.18812" lon="4.58366">
        <ele>804.6</ele>
        <time>2025-09-07T08:48:27Z</time>
      </trkpt>
      <trkpt lat="46.18812" lon="4.58369">
        <ele>804.8</ele>
        <time>2025-09-07T08:48:28Z</time>
      </trkpt>
      <trkpt lat="46.18812" lon="4.58371">
        <ele>804.8</ele>
        <time>2025-09-07T08:48:29Z</time>
      </trkpt>
      <trkpt lat="46.18812" lon="4.58374">
        <ele>804.8</ele>
        <time>2025-09-07T08:48:30Z</time>
      </trkpt>
      <trkpt lat="46.18811" lon="4.58376">
        <ele>805.2</ele>
        <time>2025-09-07T08:48:31Z</time>
      </trkpt>
      <trkpt lat="46.18811" lon="4.58379">
        <ele>805.4</ele>
        <time>2025-09-07T08:48:32Z</time>
      </trkpt>
      <trkpt lat="46.18811" lon="4.58381">
        <ele>805.4</ele>
        <time>2025-09-07T08:48:33Z</time>
      </trkpt>
      <trkpt lat="46.18811" lon="4.58383">
        <ele>805.8</ele>
        <time>2025-09-07T08:48:34Z</time>
      </trkpt>
      <trkpt lat="46.18811" lon="4.58385">
        <ele>806</ele>
        <time>2025-09-07T08:48:35Z</time>
      </trkpt>
      <trkpt lat="46.18811" lon="4.58388">
        <ele>806</ele>
        <time>2025-09-07T08:48:36Z</time>
      </trkpt>
      <trkpt lat="46.1881" lon="4.58391">
        <ele>806.2</ele>
        <time>2025-09-07T08:48:37Z</time>
      </trkpt>
      <trkpt lat="46.18809" lon="4.58394">
        <ele>806.2</ele>
        <time>2025-09-07T08:48:38Z</time>
      </trkpt>
      <trkpt lat="46.18808" lon="4.58396">
        <ele>806.4</ele>
        <time>2025-09-07T08:48:39Z</time>
      </trkpt>
      <trkpt lat="46.18808" lon="4.58399">
        <ele>806.8</ele>
        <time>2025-09-07T08:48:40Z</time>
      </trkpt>
      <trkpt lat="46.18807" lon="4.58401">
        <ele>806.8</ele>
        <time>2025-09-07T08:48:41Z</time>
      </trkpt>
      <trkpt lat="46.18807" lon="4.58404">
        <ele>806.8</ele>
        <time>2025-09-07T08:48:42Z</time>
      </trkpt>
      <trkpt lat="46.18807" lon="4.58407">
        <ele>806.8</ele>
        <time>2025-09-07T08:48:43Z</time>
      </trkpt>
      <trkpt lat="46.18806" lon="4.5841">
        <ele>807</ele>
        <time>2025-09-07T08:48:44Z</time>
      </trkpt>
      <trkpt lat="46.18806" lon="4.58412">
        <ele>807</ele>
        <time>2025-09-07T08:48:45Z</time>
      </trkpt>
      <trkpt lat="46.18806" lon="4.58415">
        <ele>807.4</ele>
        <time>2025-09-07T08:48:46Z</time>
      </trkpt>
      <trkpt lat="46.18806" lon="4.58418">
        <ele>807.4</ele>
        <time>2025-09-07T08:48:47Z</time>
      </trkpt>
      <trkpt lat="46.18805" lon="4.58421">
        <ele>807.8</ele>
        <time>2025-09-07T08:48:48Z</time>
      </trkpt>
      <trkpt lat="46.18804" lon="4.58423">
        <ele>808.4</ele>
        <time>2025-09-07T08:48:49Z</time>
      </trkpt>
      <trkpt lat="46.18803" lon="4.58426">
        <ele>808.4</ele>
        <time>2025-09-07T08:48:50Z</time>
      </trkpt>
      <trkpt lat="46.18803" lon="4.58428">
        <ele>808.8</ele>
        <time>2025-09-07T08:48:51Z</time>
      </trkpt>
      <trkpt lat="46.18803" lon="4.5843">
        <ele>808.8</ele>
        <time>2025-09-07T08:48:52Z</time>
      </trkpt>
      <trkpt lat="46.18802" lon="4.58433">
        <ele>809</ele>
        <time>2025-09-07T08:48:53Z</time>
      </trkpt>
      <trkpt lat="46.18802" lon="4.58435">
        <ele>809</ele>
        <time>2025-09-07T08:48:54Z</time>
      </trkpt>
      <trkpt lat="46.18802" lon="4.58437">
        <ele>809</ele>
        <time>2025-09-07T08:48:55Z</time>
      </trkpt>
      <trkpt lat="46.18801" lon="4.5844">
        <ele>809</ele>
        <time>2025-09-07T08:48:56Z</time>
      </trkpt>
      <trkpt lat="46.18801" lon="4.58442">
        <ele>809</ele>
        <time>2025-09-07T08:48:57Z</time>
      </trkpt>
      <trkpt lat="46.188" lon="4.58444">
        <ele>809.2</ele>
        <time>2025-09-07T08:48:58Z</time>
      </trkpt>
      <trkpt lat="46.188" lon="4.58447">
        <ele>809.2</ele>
        <time>2025-09-07T08:48:59Z</time>
      </trkpt>
      <trkpt lat="46.188" lon="4.5845">
        <ele>809.2</ele>
        <time>2025-09-07T08:49:00Z</time>
      </trkpt>
      <trkpt lat="46.188" lon="4.58452">
        <ele>809.6</ele>
        <time>2025-09-07T08:49:01Z</time>
      </trkpt>
      <trkpt lat="46.188" lon="4.58455">
        <ele>809.8</ele>
        <time>2025-09-07T08:49:02Z</time>
      </trkpt>
      <trkpt lat="46.188" lon="4.58457">
        <ele>809.8</ele>
        <time>2025-09-07T08:49:03Z</time>
      </trkpt>
      <trkpt lat="46.188" lon="4.58459">
        <ele>810.2</ele>
        <time>2025-09-07T08:49:04Z</time>
      </trkpt>
      <trkpt lat="46.188" lon="4.58462">
        <ele>810.2</ele>
        <time>2025-09-07T08:49:05Z</time>
      </trkpt>
      <trkpt lat="46.18801" lon="4.58464">
        <ele>810.2</ele>
        <time>2025-09-07T08:49:06Z</time>
      </trkpt>
      <trkpt lat="46.18802" lon="4.58466">
        <ele>810.2</ele>
        <time>2025-09-07T08:49:07Z</time>
      </trkpt>
      <trkpt lat="46.18802" lon="4.58468">
        <ele>810.2</ele>
        <time>2025-09-07T08:49:08Z</time>
      </trkpt>
      <trkpt lat="46.18802" lon="4.5847">
        <ele>810.2</ele>
        <time>2025-09-07T08:49:09Z</time>
      </trkpt>
      <trkpt lat="46.18802" lon="4.58473">
        <ele>810.4</ele>
        <time>2025-09-07T08:49:10Z</time>
      </trkpt>
      <trkpt lat="46.18802" lon="4.58475">
        <ele>810.4</ele>
        <time>2025-09-07T08:49:11Z</time>
      </trkpt>
      <trkpt lat="46.18802" lon="4.58477">
        <ele>810.4</ele>
        <time>2025-09-07T08:49:12Z</time>
      </trkpt>
      <trkpt lat="46.18803" lon="4.58479">
        <ele>810.8</ele>
        <time>2025-09-07T08:49:13Z</time>
      </trkpt>
      <trkpt lat="46.18803" lon="4.58481">
        <ele>810.8</ele>
        <time>2025-09-07T08:49:14Z</time>
      </trkpt>
      <trkpt lat="46.18803" lon="4.58483">
        <ele>810.8</ele>
        <time>2025-09-07T08:49:15Z</time>
      </trkpt>
      <trkpt lat="46.18804" lon="4.58485">
        <ele>810.8</ele>
        <time>2025-09-07T08:49:16Z</time>
      </trkpt>
      <trkpt lat="46.18804" lon="4.58486">
        <ele>810.8</ele>
        <time>2025-09-07T08:49:17Z</time>
      </trkpt>
      <trkpt lat="46.18805" lon="4.58488">
        <ele>810.8</ele>
        <time>2025-09-07T08:49:18Z</time>
      </trkpt>
      <trkpt lat="46.18805" lon="4.58489">
        <ele>810.8</ele>
        <time>2025-09-07T08:49:19Z</time>
      </trkpt>
      <trkpt lat="46.18806" lon="4.58491">
        <ele>810.8</ele>
        <time>2025-09-07T08:49:20Z</time>
      </trkpt>
      <trkpt lat="46.18806" lon="4.58493">
        <ele>811</ele>
        <time>2025-09-07T08:49:21Z</time>
      </trkpt>
      <trkpt lat="46.18805" lon="4.58496">
        <ele>811</ele>
        <time>2025-09-07T08:49:22Z</time>
      </trkpt>
      <trkpt lat="46.18803" lon="4.58498">
        <ele>811</ele>
        <time>2025-09-07T08:49:23Z</time>
      </trkpt>
      <trkpt lat="46.18801" lon="4.58499">
        <ele>811</ele>
        <time>2025-09-07T08:49:24Z</time>
      </trkpt>
      <trkpt lat="46.18799" lon="4.585">
        <ele>811</ele>
        <time>2025-09-07T08:49:25Z</time>
      </trkpt>
      <trkpt lat="46.18797" lon="4.58501">
        <ele>811</ele>
        <time>2025-09-07T08:49:26Z</time>
      </trkpt>
      <trkpt lat="46.18794" lon="4.58501">
        <ele>811</ele>
        <time>2025-09-07T08:49:27Z</time>
      </trkpt>
      <trkpt lat="46.18792" lon="4.58501">
        <ele>811.6</ele>
        <time>2025-09-07T08:49:28Z</time>
      </trkpt>
      <trkpt lat="46.18789" lon="4.58502">
        <ele>812</ele>
        <time>2025-09-07T08:49:29Z</time>
      </trkpt>
      <trkpt lat="46.18788" lon="4.58502">
        <ele>812</ele>
        <time>2025-09-07T08:49:30Z</time>
      </trkpt>
      <trkpt lat="46.18787" lon="4.58502">
        <ele>812</ele>
        <time>2025-09-07T08:49:31Z</time>
      </trkpt>
      <trkpt lat="46.18786" lon="4.58502">
        <ele>811.4</ele>
        <time>2025-09-07T08:49:32Z</time>
      </trkpt>
      <trkpt lat="46.18784" lon="4.58503">
        <ele>811.4</ele>
        <time>2025-09-07T08:49:33Z</time>
      </trkpt>
      <trkpt lat="46.18783" lon="4.58503">
        <ele>811.8</ele>
        <time>2025-09-07T08:49:34Z</time>
      </trkpt>
      <trkpt lat="46.18782" lon="4.58503">
        <ele>812.6</ele>
        <time>2025-09-07T08:49:35Z</time>
      </trkpt>
      <trkpt lat="46.18781" lon="4.58503">
        <ele>812.8</ele>
        <time>2025-09-07T08:49:36Z</time>
      </trkpt>
      <trkpt lat="46.18779" lon="4.58502">
        <ele>812.8</ele>
        <time>2025-09-07T08:49:37Z</time>
      </trkpt>
      <trkpt lat="46.18778" lon="4.58501">
        <ele>812.6</ele>
        <time>2025-09-07T08:49:38Z</time>
      </trkpt>
      <trkpt lat="46.18777" lon="4.585">
        <ele>812.4</ele>
        <time>2025-09-07T08:49:39Z</time>
      </trkpt>
      <trkpt lat="46.18776" lon="4.58499">
        <ele>812.6</ele>
        <time>2025-09-07T08:49:40Z</time>
      </trkpt>
      <trkpt lat="46.18775" lon="4.58499">
        <ele>812.8</ele>
        <time>2025-09-07T08:49:41Z</time>
      </trkpt>
      <trkpt lat="46.18774" lon="4.58499">
        <ele>813.2</ele>
        <time>2025-09-07T08:49:42Z</time>
      </trkpt>
      <trkpt lat="46.18772" lon="4.58499">
        <ele>813.6</ele>
        <time>2025-09-07T08:49:43Z</time>
      </trkpt>
      <trkpt lat="46.18771" lon="4.58499">
        <ele>813.6</ele>
        <time>2025-09-07T08:49:44Z</time>
      </trkpt>
      <trkpt lat="46.18769" lon="4.58499">
        <ele>813.6</ele>
        <time>2025-09-07T08:49:45Z</time>
      </trkpt>
      <trkpt lat="46.18767" lon="4.58499">
        <ele>814.2</ele>
        <time>2025-09-07T08:49:46Z</time>
      </trkpt>
      <trkpt lat="46.18765" lon="4.58499">
        <ele>814.2</ele>
        <time>2025-09-07T08:49:47Z</time>
      </trkpt>
      <trkpt lat="46.18764" lon="4.58499">
        <ele>814.2</ele>
        <time>2025-09-07T08:49:48Z</time>
      </trkpt>
      <trkpt lat="46.18762" lon="4.58499">
        <ele>814.2</ele>
        <time>2025-09-07T08:49:49Z</time>
      </trkpt>
      <trkpt lat="46.18761" lon="4.58499">
        <ele>814.2</ele>
        <time>2025-09-07T08:49:50Z</time>
      </trkpt>
      <trkpt lat="46.18759" lon="4.58499">
        <ele>814.2</ele>
        <time>2025-09-07T08:49:51Z</time>
      </trkpt>
      <trkpt lat="46.18757" lon="4.58499">
        <ele>814.6</ele>
        <time>2025-09-07T08:49:52Z</time>
      </trkpt>
      <trkpt lat="46.18755" lon="4.58499">
        <ele>814.6</ele>
        <time>2025-09-07T08:49:53Z</time>
      </trkpt>
      <trkpt lat="46.18753" lon="4.58499">
        <ele>815</ele>
        <time>2025-09-07T08:49:54Z</time>
      </trkpt>
      <trkpt lat="46.18751" lon="4.58499">
        <ele>815</ele>
        <time>2025-09-07T08:49:55Z</time>
      </trkpt>
      <trkpt lat="46.18749" lon="4.58499">
        <ele>815.4</ele>
        <time>2025-09-07T08:49:56Z</time>
      </trkpt>
      <trkpt lat="46.18747" lon="4.585">
        <ele>815.4</ele>
        <time>2025-09-07T08:49:57Z</time>
      </trkpt>
      <trkpt lat="46.18745" lon="4.58499">
        <ele>815.4</ele>
        <time>2025-09-07T08:49:58Z</time>
      </trkpt>
      <trkpt lat="46.18743" lon="4.58498">
        <ele>815.4</ele>
        <time>2025-09-07T08:49:59Z</time>
      </trkpt>
      <trkpt lat="46.18741" lon="4.58497">
        <ele>815.4</ele>
        <time>2025-09-07T08:50:00Z</time>
      </trkpt>
      <trkpt lat="46.1874" lon="4.58495">
        <ele>815.4</ele>
        <time>2025-09-07T08:50:01Z</time>
      </trkpt>
      <trkpt lat="46.18739" lon="4.58493">
        <ele>815.2</ele>
        <time>2025-09-07T08:50:02Z</time>
      </trkpt>
      <trkpt lat="46.18738" lon="4.58491">
        <ele>815.6</ele>
        <time>2025-09-07T08:50:03Z</time>
      </trkpt>
      <trkpt lat="46.18737" lon="4.5849">
        <ele>815.6</ele>
        <time>2025-09-07T08:50:04Z</time>
      </trkpt>
      <trkpt lat="46.18735" lon="4.58489">
        <ele>815.6</ele>
        <time>2025-09-07T08:50:05Z</time>
      </trkpt>
      <trkpt lat="46.18734" lon="4.58488">
        <ele>815.8</ele>
        <time>2025-09-07T08:50:06Z</time>
      </trkpt>
      <trkpt lat="46.18733" lon="4.58488">
        <ele>815.8</ele>
        <time>2025-09-07T08:50:07Z</time>
      </trkpt>
      <trkpt lat="46.18732" lon="4.58487">
        <ele>815.8</ele>
        <time>2025-09-07T08:50:08Z</time>
      </trkpt>
      <trkpt lat="46.18731" lon="4.58486">
        <ele>815.8</ele>
        <time>2025-09-07T08:50:09Z</time>
      </trkpt>
      <trkpt lat="46.1873" lon="4.58485">
        <ele>815.8</ele>
        <time>2025-09-07T08:50:10Z</time>
      </trkpt>
      <trkpt lat="46.18729" lon="4.58484">
        <ele>815.4</ele>
        <time>2025-09-07T08:50:11Z</time>
      </trkpt>
      <trkpt lat="46.18727" lon="4.58483">
        <ele>815.4</ele>
        <time>2025-09-07T08:50:12Z</time>
      </trkpt>
      <trkpt lat="46.18726" lon="4.58482">
        <ele>815.6</ele>
        <time>2025-09-07T08:50:13Z</time>
      </trkpt>
      <trkpt lat="46.18725" lon="4.5848">
        <ele>816</ele>
        <time>2025-09-07T08:50:14Z</time>
      </trkpt>
      <trkpt lat="46.18723" lon="4.58479">
        <ele>816</ele>
        <time>2025-09-07T08:50:15Z</time>
      </trkpt>
      <trkpt lat="46.18722" lon="4.58476">
        <ele>816</ele>
        <time>2025-09-07T08:50:16Z</time>
      </trkpt>
      <trkpt lat="46.18721" lon="4.58474">
        <ele>816</ele>
        <time>2025-09-07T08:50:17Z</time>
      </trkpt>
      <trkpt lat="46.1872" lon="4.58472">
        <ele>816</ele>
        <time>2025-09-07T08:50:18Z</time>
      </trkpt>
      <trkpt lat="46.18718" lon="4.5847">
        <ele>816.6</ele>
        <time>2025-09-07T08:50:19Z</time>
      </trkpt>
      <trkpt lat="46.18717" lon="4.58468">
        <ele>816.8</ele>
        <time>2025-09-07T08:50:20Z</time>
      </trkpt>
      <trkpt lat="46.18715" lon="4.58466">
        <ele>816.8</ele>
        <time>2025-09-07T08:50:21Z</time>
      </trkpt>
      <trkpt lat="46.18714" lon="4.58464">
        <ele>816.8</ele>
        <time>2025-09-07T08:50:22Z</time>
      </trkpt>
      <trkpt lat="46.18713" lon="4.58462">
        <ele>816.8</ele>
        <time>2025-09-07T08:50:23Z</time>
      </trkpt>
      <trkpt lat="46.18712" lon="4.5846">
        <ele>817.2</ele>
        <time>2025-09-07T08:50:24Z</time>
      </trkpt>
      <trkpt lat="46.18711" lon="4.58458">
        <ele>817.2</ele>
        <time>2025-09-07T08:50:25Z</time>
      </trkpt>
      <trkpt lat="46.18709" lon="4.58456">
        <ele>817.2</ele>
        <time>2025-09-07T08:50:26Z</time>
      </trkpt>
      <trkpt lat="46.18708" lon="4.58454">
        <ele>817.2</ele>
        <time>2025-09-07T08:50:27Z</time>
      </trkpt>
      <trkpt lat="46.18706" lon="4.58452">
        <ele>818</ele>
        <time>2025-09-07T08:50:28Z</time>
      </trkpt>
      <trkpt lat="46.18705" lon="4.58451">
        <ele>818</ele>
        <time>2025-09-07T08:50:29Z</time>
      </trkpt>
      <trkpt lat="46.18704" lon="4.58449">
        <ele>818</ele>
        <time>2025-09-07T08:50:30Z</time>
      </trkpt>
      <trkpt lat="46.18702" lon="4.58447">
        <ele>818.2</ele>
        <time>2025-09-07T08:50:31Z</time>
      </trkpt>
      <trkpt lat="46.18701" lon="4.58445">
        <ele>818.2</ele>
        <time>2025-09-07T08:50:32Z</time>
      </trkpt>
      <trkpt lat="46.187" lon="4.58443">
        <ele>818.2</ele>
        <time>2025-09-07T08:50:33Z</time>
      </trkpt>
      <trkpt lat="46.18699" lon="4.58441">
        <ele>818.2</ele>
        <time>2025-09-07T08:50:34Z</time>
      </trkpt>
      <trkpt lat="46.18697" lon="4.5844">
        <ele>818.8</ele>
        <time>2025-09-07T08:50:35Z</time>
      </trkpt>
      <trkpt lat="46.18696" lon="4.58438">
        <ele>818.8</ele>
        <time>2025-09-07T08:50:36Z</time>
      </trkpt>
      <trkpt lat="46.18694" lon="4.58437">
        <ele>819</ele>
        <time>2025-09-07T08:50:37Z</time>
      </trkpt>
      <trkpt lat="46.18693" lon="4.58435">
        <ele>819.4</ele>
        <time>2025-09-07T08:50:38Z</time>
      </trkpt>
      <trkpt lat="46.18692" lon="4.58434">
        <ele>820</ele>
        <time>2025-09-07T08:50:39Z</time>
      </trkpt>
      <trkpt lat="46.18691" lon="4.58433">
        <ele>819.8</ele>
        <time>2025-09-07T08:50:40Z</time>
      </trkpt>
      <trkpt lat="46.1869" lon="4.58431">
        <ele>819.8</ele>
        <time>2025-09-07T08:50:41Z</time>
      </trkpt>
      <trkpt lat="46.18688" lon="4.5843">
        <ele>819.8</ele>
        <time>2025-09-07T08:50:42Z</time>
      </trkpt>
      <trkpt lat="46.18687" lon="4.58428">
        <ele>819.8</ele>
        <time>2025-09-07T08:50:43Z</time>
      </trkpt>
      <trkpt lat="46.18686" lon="4.58427">
        <ele>819.8</ele>
        <time>2025-09-07T08:50:44Z</time>
      </trkpt>
      <trkpt lat="46.18685" lon="4.58425">
        <ele>819.8</ele>
        <time>2025-09-07T08:50:45Z</time>
      </trkpt>
      <trkpt lat="46.18684" lon="4.58423">
        <ele>819.8</ele>
        <time>2025-09-07T08:50:46Z</time>
      </trkpt>
      <trkpt lat="46.18683" lon="4.58422">
        <ele>820.2</ele>
        <time>2025-09-07T08:50:47Z</time>
      </trkpt>
      <trkpt lat="46.18681" lon="4.5842">
        <ele>820.2</ele>
        <time>2025-09-07T08:50:48Z</time>
      </trkpt>
      <trkpt lat="46.1868" lon="4.58419">
        <ele>820.2</ele>
        <time>2025-09-07T08:50:49Z</time>
      </trkpt>
      <trkpt lat="46.18679" lon="4.58417">
        <ele>820.4</ele>
        <time>2025-09-07T08:50:50Z</time>
      </trkpt>
      <trkpt lat="46.18678" lon="4.58416">
        <ele>820.4</ele>
        <time>2025-09-07T08:50:51Z</time>
      </trkpt>
      <trkpt lat="46.18676" lon="4.58415">
        <ele>820.6</ele>
        <time>2025-09-07T08:50:52Z</time>
      </trkpt>
      <trkpt lat="46.18675" lon="4.58414">
        <ele>821.2</ele>
        <time>2025-09-07T08:50:53Z</time>
      </trkpt>
      <trkpt lat="46.18672" lon="4.58411">
        <ele>821.2</ele>
        <time>2025-09-07T08:50:54Z</time>
      </trkpt>
      <trkpt lat="46.18671" lon="4.5841">
        <ele>821.2</ele>
        <time>2025-09-07T08:50:55Z</time>
      </trkpt>
      <trkpt lat="46.1867" lon="4.58408">
        <ele>821.4</ele>
        <time>2025-09-07T08:50:56Z</time>
      </trkpt>
      <trkpt lat="46.18668" lon="4.58407">
        <ele>821.8</ele>
        <time>2025-09-07T08:50:57Z</time>
      </trkpt>
      <trkpt lat="46.18667" lon="4.58405">
        <ele>822.2</ele>
        <time>2025-09-07T08:50:58Z</time>
      </trkpt>
      <trkpt lat="46.18665" lon="4.58404">
        <ele>822.2</ele>
        <time>2025-09-07T08:50:59Z</time>
      </trkpt>
      <trkpt lat="46.18664" lon="4.58402">
        <ele>822.2</ele>
        <time>2025-09-07T08:51:00Z</time>
      </trkpt>
      <trkpt lat="46.18663" lon="4.58401">
        <ele>822.4</ele>
        <time>2025-09-07T08:51:01Z</time>
      </trkpt>
      <trkpt lat="46.18661" lon="4.58399">
        <ele>823</ele>
        <time>2025-09-07T08:51:02Z</time>
      </trkpt>
      <trkpt lat="46.1866" lon="4.58398">
        <ele>823</ele>
        <time>2025-09-07T08:51:03Z</time>
      </trkpt>
      <trkpt lat="46.18658" lon="4.58396">
        <ele>823</ele>
        <time>2025-09-07T08:51:04Z</time>
      </trkpt>
      <trkpt lat="46.18657" lon="4.58395">
        <ele>823.2</ele>
        <time>2025-09-07T08:51:05Z</time>
      </trkpt>
      <trkpt lat="46.18656" lon="4.58393">
        <ele>823.2</ele>
        <time>2025-09-07T08:51:06Z</time>
      </trkpt>
      <trkpt lat="46.18655" lon="4.58391">
        <ele>823.6</ele>
        <time>2025-09-07T08:51:07Z</time>
      </trkpt>
      <trkpt lat="46.18654" lon="4.58389">
        <ele>823.4</ele>
        <time>2025-09-07T08:51:08Z</time>
      </trkpt>
      <trkpt lat="46.18652" lon="4.58388">
        <ele>823</ele>
        <time>2025-09-07T08:51:09Z</time>
      </trkpt>
      <trkpt lat="46.1865" lon="4.58386">
        <ele>823</ele>
        <time>2025-09-07T08:51:10Z</time>
      </trkpt>
      <trkpt lat="46.18649" lon="4.58385">
        <ele>823.2</ele>
        <time>2025-09-07T08:51:11Z</time>
      </trkpt>
      <trkpt lat="46.18647" lon="4.58383">
        <ele>823.2</ele>
        <time>2025-09-07T08:51:12Z</time>
      </trkpt>
      <trkpt lat="46.18645" lon="4.58382">
        <ele>823.4</ele>
        <time>2025-09-07T08:51:13Z</time>
      </trkpt>
      <trkpt lat="46.18642" lon="4.58381">
        <ele>823.8</ele>
        <time>2025-09-07T08:51:14Z</time>
      </trkpt>
      <trkpt lat="46.18641" lon="4.5838">
        <ele>823.6</ele>
        <time>2025-09-07T08:51:15Z</time>
      </trkpt>
      <trkpt lat="46.18639" lon="4.58378">
        <ele>823.6</ele>
        <time>2025-09-07T08:51:16Z</time>
      </trkpt>
      <trkpt lat="46.18638" lon="4.58376">
        <ele>823.6</ele>
        <time>2025-09-07T08:51:17Z</time>
      </trkpt>
      <trkpt lat="46.18636" lon="4.58375">
        <ele>823.6</ele>
        <time>2025-09-07T08:51:18Z</time>
      </trkpt>
      <trkpt lat="46.18634" lon="4.58373">
        <ele>823.8</ele>
        <time>2025-09-07T08:51:19Z</time>
      </trkpt>
      <trkpt lat="46.18632" lon="4.58372">
        <ele>823.8</ele>
        <time>2025-09-07T08:51:20Z</time>
      </trkpt>
      <trkpt lat="46.1863" lon="4.5837">
        <ele>823.8</ele>
        <time>2025-09-07T08:51:21Z</time>
      </trkpt>
      <trkpt lat="46.18628" lon="4.58367">
        <ele>823.8</ele>
        <time>2025-09-07T08:51:22Z</time>
      </trkpt>
      <trkpt lat="46.18626" lon="4.58365">
        <ele>824.2</ele>
        <time>2025-09-07T08:51:23Z</time>
      </trkpt>
      <trkpt lat="46.18624" lon="4.58362">
        <ele>824.2</ele>
        <time>2025-09-07T08:51:24Z</time>
      </trkpt>
      <trkpt lat="46.18622" lon="4.5836">
        <ele>824.2</ele>
        <time>2025-09-07T08:51:25Z</time>
      </trkpt>
      <trkpt lat="46.18621" lon="4.58358">
        <ele>824.2</ele>
        <time>2025-09-07T08:51:26Z</time>
      </trkpt>
      <trkpt lat="46.18618" lon="4.58357">
        <ele>824.4</ele>
        <time>2025-09-07T08:51:27Z</time>
      </trkpt>
      <trkpt lat="46.18616" lon="4.58355">
        <ele>824.4</ele>
        <time>2025-09-07T08:51:28Z</time>
      </trkpt>
      <trkpt lat="46.18614" lon="4.58353">
        <ele>824.4</ele>
        <time>2025-09-07T08:51:29Z</time>
      </trkpt>
      <trkpt lat="46.18612" lon="4.58351">
        <ele>824.8</ele>
        <time>2025-09-07T08:51:30Z</time>
      </trkpt>
      <trkpt lat="46.1861" lon="4.58348">
        <ele>824.8</ele>
        <time>2025-09-07T08:51:31Z</time>
      </trkpt>
      <trkpt lat="46.18609" lon="4.58344">
        <ele>824.8</ele>
        <time>2025-09-07T08:51:32Z</time>
      </trkpt>
      <trkpt lat="46.18607" lon="4.5834">
        <ele>824.4</ele>
        <time>2025-09-07T08:51:33Z</time>
      </trkpt>
      <trkpt lat="46.18604" lon="4.58336">
        <ele>824.4</ele>
        <time>2025-09-07T08:51:34Z</time>
      </trkpt>
      <trkpt lat="46.18602" lon="4.58333">
        <ele>824.4</ele>
        <time>2025-09-07T08:51:35Z</time>
      </trkpt>
      <trkpt lat="46.186" lon="4.5833">
        <ele>824.6</ele>
        <time>2025-09-07T08:51:36Z</time>
      </trkpt>
      <trkpt lat="46.18598" lon="4.58329">
        <ele>824.6</ele>
        <time>2025-09-07T08:51:37Z</time>
      </trkpt>
      <trkpt lat="46.18596" lon="4.58328">
        <ele>824.2</ele>
        <time>2025-09-07T08:51:38Z</time>
      </trkpt>
      <trkpt lat="46.18595" lon="4.58328">
        <ele>824.2</ele>
        <time>2025-09-07T08:51:39Z</time>
      </trkpt>
      <trkpt lat="46.18594" lon="4.58329">
        <ele>824.2</ele>
        <time>2025-09-07T08:51:40Z</time>
      </trkpt>
      <trkpt lat="46.18594" lon="4.58329">
        <ele>824.2</ele>
        <time>2025-09-07T08:51:41Z</time>
      </trkpt>
      <trkpt lat="46.1859" lon="4.58332">
        <ele>824.4</ele>
        <time>2025-09-07T08:52:01Z</time>
      </trkpt>
      <trkpt lat="46.18589" lon="4.58332">
        <ele>824.4</ele>
        <time>2025-09-07T08:52:02Z</time>
      </trkpt>
      <trkpt lat="46.18588" lon="4.58333">
        <ele>824.2</ele>
        <time>2025-09-07T08:52:03Z</time>
      </trkpt>
      <trkpt lat="46.18587" lon="4.58334">
        <ele>824.2</ele>
        <time>2025-09-07T08:52:04Z</time>
      </trkpt>
      <trkpt lat="46.18587" lon="4.58334">
        <ele>824.2</ele>
        <time>2025-09-07T08:52:05Z</time>
      </trkpt>
      <trkpt lat="46.18587" lon="4.58335">
        <ele>824.4</ele>
        <time>2025-09-07T08:52:06Z</time>
      </trkpt>
      <trkpt lat="46.18586" lon="4.58334">
        <ele>824.4</ele>
        <time>2025-09-07T08:52:07Z</time>
      </trkpt>
      <trkpt lat="46.18586" lon="4.58331">
        <ele>824.6</ele>
        <time>2025-09-07T08:52:17Z</time>
      </trkpt>
      <trkpt lat="46.18587" lon="4.58331">
        <ele>824.6</ele>
        <time>2025-09-07T08:52:18Z</time>
      </trkpt>
      <trkpt lat="46.18586" lon="4.58328">
        <ele>824.8</ele>
        <time>2025-09-07T08:52:53Z</time>
      </trkpt>
      <trkpt lat="46.18586" lon="4.58328">
        <ele>824.8</ele>
        <time>2025-09-07T08:52:54Z</time>
      </trkpt>
      <trkpt lat="46.18586" lon="4.58326">
        <ele>825.4</ele>
        <time>2025-09-07T08:54:02Z</time>
      </trkpt>
      <trkpt lat="46.18586" lon="4.58326">
        <ele>825.4</ele>
        <time>2025-09-07T08:54:03Z</time>
      </trkpt>
      <trkpt lat="46.18586" lon="4.58326">
        <ele>825.4</ele>
        <time>2025-09-07T08:54:04Z</time>
      </trkpt>
      <trkpt lat="46.18588" lon="4.5833">
        <ele>825.4</ele>
        <time>2025-09-07T08:55:29Z</time>
      </trkpt>
      <trkpt lat="46.18588" lon="4.5833">
        <ele>825.4</ele>
        <time>2025-09-07T08:55:30Z</time>
      </trkpt>
      <trkpt lat="46.18588" lon="4.5833">
        <ele>825.4</ele>
        <time>2025-09-07T08:55:31Z</time>
      </trkpt>
      <trkpt lat="46.18587" lon="4.5833">
        <ele>825.4</ele>
        <time>2025-09-07T08:55:32Z</time>
      </trkpt>
      <trkpt lat="46.18585" lon="4.5833">
        <ele>825.4</ele>
        <time>2025-09-07T08:55:33Z</time>
      </trkpt>
      <trkpt lat="46.18584" lon="4.5833">
        <ele>825.4</ele>
        <time>2025-09-07T08:55:34Z</time>
      </trkpt>
      <trkpt lat="46.18583" lon="4.5833">
        <ele>825.6</ele>
        <time>2025-09-07T08:55:35Z</time>
      </trkpt>
      <trkpt lat="46.18581" lon="4.5833">
        <ele>825.6</ele>
        <time>2025-09-07T08:55:36Z</time>
      </trkpt>
      <trkpt lat="46.1858" lon="4.58329">
        <ele>825.6</ele>
        <time>2025-09-07T08:55:37Z</time>
      </trkpt>
      <trkpt lat="46.18579" lon="4.58329">
        <ele>825.6</ele>
        <time>2025-09-07T08:55:38Z</time>
      </trkpt>
      <trkpt lat="46.18577" lon="4.58328">
        <ele>825.6</ele>
        <time>2025-09-07T08:55:39Z</time>
      </trkpt>
      <trkpt lat="46.18576" lon="4.58328">
        <ele>825.6</ele>
        <time>2025-09-07T08:55:40Z</time>
      </trkpt>
      <trkpt lat="46.18575" lon="4.58328">
        <ele>826</ele>
        <time>2025-09-07T08:55:41Z</time>
      </trkpt>
      <trkpt lat="46.18574" lon="4.58328">
        <ele>826</ele>
        <time>2025-09-07T08:55:42Z</time>
      </trkpt>
      <trkpt lat="46.18574" lon="4.58329">
        <ele>826</ele>
        <time>2025-09-07T08:55:43Z</time>
      </trkpt>
      <trkpt lat="46.18573" lon="4.5833">
        <ele>825.6</ele>
        <time>2025-09-07T08:55:44Z</time>
      </trkpt>
      <trkpt lat="46.18572" lon="4.58331">
        <ele>825.6</ele>
        <time>2025-09-07T08:55:45Z</time>
      </trkpt>
      <trkpt lat="46.18571" lon="4.58331">
        <ele>826.2</ele>
        <time>2025-09-07T08:55:46Z</time>
      </trkpt>
      <trkpt lat="46.1857" lon="4.58331">
        <ele>826.4</ele>
        <time>2025-09-07T08:55:47Z</time>
      </trkpt>
      <trkpt lat="46.18569" lon="4.58331">
        <ele>826.8</ele>
        <time>2025-09-07T08:55:48Z</time>
      </trkpt>
      <trkpt lat="46.18568" lon="4.58331">
        <ele>827</ele>
        <time>2025-09-07T08:55:49Z</time>
      </trkpt>
      <trkpt lat="46.18568" lon="4.58331">
        <ele>827.2</ele>
        <time>2025-09-07T08:55:50Z</time>
      </trkpt>
      <trkpt lat="46.18567" lon="4.58332">
        <ele>827.4</ele>
        <time>2025-09-07T08:55:51Z</time>
      </trkpt>
      <trkpt lat="46.18566" lon="4.58332">
        <ele>827.4</ele>
        <time>2025-09-07T08:55:52Z</time>
      </trkpt>
      <trkpt lat="46.18565" lon="4.58332">
        <ele>827.8</ele>
        <time>2025-09-07T08:55:53Z</time>
      </trkpt>
      <trkpt lat="46.18564" lon="4.58331">
        <ele>828.2</ele>
        <time>2025-09-07T08:55:54Z</time>
      </trkpt>
      <trkpt lat="46.18563" lon="4.58331">
        <ele>828.6</ele>
        <time>2025-09-07T08:55:55Z</time>
      </trkpt>
      <trkpt lat="46.18562" lon="4.5833">
        <ele>828.6</ele>
        <time>2025-09-07T08:55:56Z</time>
      </trkpt>
      <trkpt lat="46.18562" lon="4.5833">
        <ele>828.6</ele>
        <time>2025-09-07T08:55:57Z</time>
      </trkpt>
      <trkpt lat="46.18559" lon="4.5833">
        <ele>828.8</ele>
        <time>2025-09-07T08:56:13Z</time>
      </trkpt>
      <trkpt lat="46.18558" lon="4.5833">
        <ele>828.8</ele>
        <time>2025-09-07T08:56:14Z</time>
      </trkpt>
      <trkpt lat="46.18557" lon="4.5833">
        <ele>828.8</ele>
        <time>2025-09-07T08:56:15Z</time>
      </trkpt>
      <trkpt lat="46.18555" lon="4.58329">
        <ele>829</ele>
        <time>2025-09-07T08:56:16Z</time>
      </trkpt>
      <trkpt lat="46.18554" lon="4.58329">
        <ele>829</ele>
        <time>2025-09-07T08:56:17Z</time>
      </trkpt>
      <trkpt lat="46.18553" lon="4.58329">
        <ele>829.2</ele>
        <time>2025-09-07T08:56:18Z</time>
      </trkpt>
      <trkpt lat="46.18552" lon="4.58329">
        <ele>829.2</ele>
        <time>2025-09-07T08:56:19Z</time>
      </trkpt>
      <trkpt lat="46.18551" lon="4.58328">
        <ele>829.6</ele>
        <time>2025-09-07T08:56:20Z</time>
      </trkpt>
      <trkpt lat="46.1855" lon="4.58328">
        <ele>829.6</ele>
        <time>2025-09-07T08:56:21Z</time>
      </trkpt>
      <trkpt lat="46.18549" lon="4.58328">
        <ele>829.8</ele>
        <time>2025-09-07T08:56:22Z</time>
      </trkpt>
      <trkpt lat="46.18549" lon="4.58328">
        <ele>829.8</ele>
        <time>2025-09-07T08:56:23Z</time>
      </trkpt>
      <trkpt lat="46.18548" lon="4.58328">
        <ele>829.8</ele>
        <time>2025-09-07T08:56:24Z</time>
      </trkpt>
      <trkpt lat="46.18548" lon="4.58328">
        <ele>830</ele>
        <time>2025-09-07T08:56:25Z</time>
      </trkpt>
      <trkpt lat="46.18547" lon="4.58328">
        <ele>830</ele>
        <time>2025-09-07T08:56:26Z</time>
      </trkpt>
      <trkpt lat="46.18548" lon="4.58327">
        <ele>830.4</ele>
        <time>2025-09-07T08:56:27Z</time>
      </trkpt>
      <trkpt lat="46.18548" lon="4.58327">
        <ele>830.4</ele>
        <time>2025-09-07T08:56:28Z</time>
      </trkpt>
      <trkpt lat="46.18546" lon="4.58327">
        <ele>830.8</ele>
        <time>2025-09-07T08:56:40Z</time>
      </trkpt>
      <trkpt lat="46.18544" lon="4.58328">
        <ele>830.8</ele>
        <time>2025-09-07T08:56:41Z</time>
      </trkpt>
      <trkpt lat="46.18543" lon="4.58328">
        <ele>831</ele>
        <time>2025-09-07T08:56:42Z</time>
      </trkpt>
      <trkpt lat="46.18542" lon="4.58328">
        <ele>831</ele>
        <time>2025-09-07T08:56:43Z</time>
      </trkpt>
      <trkpt lat="46.18542" lon="4.58328">
        <ele>831</ele>
        <time>2025-09-07T08:56:44Z</time>
      </trkpt>
      <trkpt lat="46.18541" lon="4.58328">
        <ele>831</ele>
        <time>2025-09-07T08:56:45Z</time>
      </trkpt>
      <trkpt lat="46.18541" lon="4.58327">
        <ele>831.2</ele>
        <time>2025-09-07T08:56:46Z</time>
      </trkpt>
      <trkpt lat="46.18539" lon="4.58327">
        <ele>831.2</ele>
        <time>2025-09-07T08:56:47Z</time>
      </trkpt>
      <trkpt lat="46.18538" lon="4.58327">
        <ele>831.2</ele>
        <time>2025-09-07T08:56:48Z</time>
      </trkpt>
      <trkpt lat="46.18537" lon="4.58327">
        <ele>831.6</ele>
        <time>2025-09-07T08:56:49Z</time>
      </trkpt>
      <trkpt lat="46.18536" lon="4.58328">
        <ele>831.6</ele>
        <time>2025-09-07T08:56:50Z</time>
      </trkpt>
      <trkpt lat="46.18535" lon="4.58328">
        <ele>832</ele>
        <time>2025-09-07T08:56:51Z</time>
      </trkpt>
      <trkpt lat="46.18534" lon="4.58327">
        <ele>832</ele>
        <time>2025-09-07T08:56:52Z</time>
      </trkpt>
      <trkpt lat="46.18534" lon="4.58327">
        <ele>831.6</ele>
        <time>2025-09-07T08:56:53Z</time>
      </trkpt>
      <trkpt lat="46.18533" lon="4.58326">
        <ele>832</ele>
        <time>2025-09-07T08:56:54Z</time>
      </trkpt>
      <trkpt lat="46.18531" lon="4.58326">
        <ele>831.4</ele>
        <time>2025-09-07T08:56:55Z</time>
      </trkpt>
      <trkpt lat="46.18531" lon="4.58326">
        <ele>831.8</ele>
        <time>2025-09-07T08:56:56Z</time>
      </trkpt>
      <trkpt lat="46.18529" lon="4.58326">
        <ele>832.4</ele>
        <time>2025-09-07T08:56:57Z</time>
      </trkpt>
      <trkpt lat="46.18528" lon="4.58326">
        <ele>832.4</ele>
        <time>2025-09-07T08:56:58Z</time>
      </trkpt>
      <trkpt lat="46.18528" lon="4.58326">
        <ele>832.6</ele>
        <time>2025-09-07T08:56:59Z</time>
      </trkpt>
      <trkpt lat="46.18527" lon="4.58326">
        <ele>832.6</ele>
        <time>2025-09-07T08:57:00Z</time>
      </trkpt>
      <trkpt lat="46.18527" lon="4.58326">
        <ele>832.8</ele>
        <time>2025-09-07T08:57:01Z</time>
      </trkpt>
      <trkpt lat="46.18526" lon="4.58326">
        <ele>832.8</ele>
        <time>2025-09-07T08:57:02Z</time>
      </trkpt>
      <trkpt lat="46.18525" lon="4.58326">
        <ele>833</ele>
        <time>2025-09-07T08:57:03Z</time>
      </trkpt>
      <trkpt lat="46.18524" lon="4.58326">
        <ele>833</ele>
        <time>2025-09-07T08:57:04Z</time>
      </trkpt>
      <trkpt lat="46.18524" lon="4.58325">
        <ele>833.8</ele>
        <time>2025-09-07T08:57:05Z</time>
      </trkpt>
      <trkpt lat="46.18523" lon="4.58325">
        <ele>833.8</ele>
        <time>2025-09-07T08:57:06Z</time>
      </trkpt>
      <trkpt lat="46.18523" lon="4.58324">
        <ele>833.8</ele>
        <time>2025-09-07T08:57:07Z</time>
      </trkpt>
      <trkpt lat="46.18522" lon="4.58324">
        <ele>833.8</ele>
        <time>2025-09-07T08:57:08Z</time>
      </trkpt>
      <trkpt lat="46.18521" lon="4.58323">
        <ele>833.8</ele>
        <time>2025-09-07T08:57:09Z</time>
      </trkpt>
      <trkpt lat="46.18521" lon="4.58322">
        <ele>833.8</ele>
        <time>2025-09-07T08:57:10Z</time>
      </trkpt>
      <trkpt lat="46.1852" lon="4.5832">
        <ele>833.8</ele>
        <time>2025-09-07T08:57:11Z</time>
      </trkpt>
      <trkpt lat="46.18519" lon="4.5832">
        <ele>833.8</ele>
        <time>2025-09-07T08:57:12Z</time>
      </trkpt>
      <trkpt lat="46.18518" lon="4.5832">
        <ele>834.2</ele>
        <time>2025-09-07T08:57:13Z</time>
      </trkpt>
      <trkpt lat="46.18516" lon="4.58321">
        <ele>834.4</ele>
        <time>2025-09-07T08:57:14Z</time>
      </trkpt>
      <trkpt lat="46.18515" lon="4.58322">
        <ele>834.4</ele>
        <time>2025-09-07T08:57:15Z</time>
      </trkpt>
      <trkpt lat="46.18514" lon="4.58322">
        <ele>835</ele>
        <time>2025-09-07T08:57:16Z</time>
      </trkpt>
      <trkpt lat="46.18514" lon="4.58322">
        <ele>835</ele>
        <time>2025-09-07T08:57:17Z</time>
      </trkpt>
      <trkpt lat="46.18513" lon="4.58323">
        <ele>835.4</ele>
        <time>2025-09-07T08:57:18Z</time>
      </trkpt>
      <trkpt lat="46.18513" lon="4.58323">
        <ele>835.4</ele>
        <time>2025-09-07T08:57:19Z</time>
      </trkpt>
      <trkpt lat="46.18512" lon="4.58323">
        <ele>835.8</ele>
        <time>2025-09-07T08:57:20Z</time>
      </trkpt>
      <trkpt lat="46.18512" lon="4.58323">
        <ele>835.8</ele>
        <time>2025-09-07T08:57:21Z</time>
      </trkpt>
      <trkpt lat="46.18512" lon="4.58323">
        <ele>836.2</ele>
        <time>2025-09-07T08:57:22Z</time>
      </trkpt>
      <trkpt lat="46.18511" lon="4.58323">
        <ele>836.2</ele>
        <time>2025-09-07T08:57:23Z</time>
      </trkpt>
      <trkpt lat="46.18511" lon="4.58323">
        <ele>836.2</ele>
        <time>2025-09-07T08:57:24Z</time>
      </trkpt>
      <trkpt lat="46.1851" lon="4.58324">
        <ele>836.6</ele>
        <time>2025-09-07T08:57:25Z</time>
      </trkpt>
      <trkpt lat="46.1851" lon="4.58324">
        <ele>836.8</ele>
        <time>2025-09-07T08:57:26Z</time>
      </trkpt>
      <trkpt lat="46.18509" lon="4.58325">
        <ele>836.8</ele>
        <time>2025-09-07T08:57:27Z</time>
      </trkpt>
      <trkpt lat="46.18508" lon="4.58325">
        <ele>836.8</ele>
        <time>2025-09-07T08:57:28Z</time>
      </trkpt>
      <trkpt lat="46.18507" lon="4.58326">
        <ele>837.2</ele>
        <time>2025-09-07T08:57:29Z</time>
      </trkpt>
      <trkpt lat="46.18507" lon="4.58326">
        <ele>837.2</ele>
        <time>2025-09-07T08:57:30Z</time>
      </trkpt>
      <trkpt lat="46.18506" lon="4.58326">
        <ele>837.8</ele>
        <time>2025-09-07T08:57:31Z</time>
      </trkpt>
      <trkpt lat="46.18506" lon="4.58326">
        <ele>838</ele>
        <time>2025-09-07T08:57:32Z</time>
      </trkpt>
      <trkpt lat="46.18505" lon="4.58327">
        <ele>838</ele>
        <time>2025-09-07T08:57:33Z</time>
      </trkpt>
      <trkpt lat="46.18505" lon="4.58327">
        <ele>838</ele>
        <time>2025-09-07T08:57:34Z</time>
      </trkpt>
      <trkpt lat="46.18504" lon="4.58328">
        <ele>838.4</ele>
        <time>2025-09-07T08:57:35Z</time>
      </trkpt>
      <trkpt lat="46.18503" lon="4.58328">
        <ele>838.6</ele>
        <time>2025-09-07T08:57:36Z</time>
      </trkpt>
      <trkpt lat="46.18503" lon="4.58329">
        <ele>838.6</ele>
        <time>2025-09-07T08:57:37Z</time>
      </trkpt>
      <trkpt lat="46.18502" lon="4.58329">
        <ele>838.6</ele>
        <time>2025-09-07T08:57:38Z</time>
      </trkpt>
      <trkpt lat="46.18502" lon="4.58329">
        <ele>838.6</ele>
        <time>2025-09-07T08:57:39Z</time>
      </trkpt>
      <trkpt lat="46.18502" lon="4.58329">
        <ele>839</ele>
        <time>2025-09-07T08:57:40Z</time>
      </trkpt>
      <trkpt lat="46.18501" lon="4.5833">
        <ele>839</ele>
        <time>2025-09-07T08:57:41Z</time>
      </trkpt>
      <trkpt lat="46.18501" lon="4.5833">
        <ele>839.2</ele>
        <time>2025-09-07T08:57:42Z</time>
      </trkpt>
      <trkpt lat="46.18501" lon="4.58331">
        <ele>839.8</ele>
        <time>2025-09-07T08:57:43Z</time>
      </trkpt>
      <trkpt lat="46.185" lon="4.58332">
        <ele>839.8</ele>
        <time>2025-09-07T08:57:44Z</time>
      </trkpt>
      <trkpt lat="46.18499" lon="4.58332">
        <ele>839.8</ele>
        <time>2025-09-07T08:57:45Z</time>
      </trkpt>
      <trkpt lat="46.18499" lon="4.58333">
        <ele>840.2</ele>
        <time>2025-09-07T08:57:46Z</time>
      </trkpt>
      <trkpt lat="46.18498" lon="4.58333">
        <ele>840.4</ele>
        <time>2025-09-07T08:57:47Z</time>
      </trkpt>
      <trkpt lat="46.18498" lon="4.58332">
        <ele>840.4</ele>
        <time>2025-09-07T08:57:48Z</time>
      </trkpt>
      <trkpt lat="46.18498" lon="4.58331">
        <ele>840.6</ele>
        <time>2025-09-07T08:57:49Z</time>
      </trkpt>
      <trkpt lat="46.18495" lon="4.58329">
        <ele>840</ele>
        <time>2025-09-07T08:58:19Z</time>
      </trkpt>
      <trkpt lat="46.18494" lon="4.58328">
        <ele>839.4</ele>
        <time>2025-09-07T08:58:20Z</time>
      </trkpt>
      <trkpt lat="46.18493" lon="4.58327">
        <ele>840</ele>
        <time>2025-09-07T08:58:21Z</time>
      </trkpt>
      <trkpt lat="46.18492" lon="4.58326">
        <ele>840.2</ele>
        <time>2025-09-07T08:58:22Z</time>
      </trkpt>
      <trkpt lat="46.18491" lon="4.58324">
        <ele>840.4</ele>
        <time>2025-09-07T08:58:23Z</time>
      </trkpt>
      <trkpt lat="46.1849" lon="4.58324">
        <ele>840.8</ele>
        <time>2025-09-07T08:58:24Z</time>
      </trkpt>
      <trkpt lat="46.18489" lon="4.58323">
        <ele>840.8</ele>
        <time>2025-09-07T08:58:25Z</time>
      </trkpt>
      <trkpt lat="46.18488" lon="4.58322">
        <ele>841.2</ele>
        <time>2025-09-07T08:58:26Z</time>
      </trkpt>
      <trkpt lat="46.18487" lon="4.58322">
        <ele>841.4</ele>
        <time>2025-09-07T08:58:27Z</time>
      </trkpt>
      <trkpt lat="46.18487" lon="4.58322">
        <ele>841.6</ele>
        <time>2025-09-07T08:58:28Z</time>
      </trkpt>
      <trkpt lat="46.18486" lon="4.58322">
        <ele>841.6</ele>
        <time>2025-09-07T08:58:29Z</time>
      </trkpt>
      <trkpt lat="46.18485" lon="4.58322">
        <ele>841.6</ele>
        <time>2025-09-07T08:58:30Z</time>
      </trkpt>
      <trkpt lat="46.18484" lon="4.58322">
        <ele>841.6</ele>
        <time>2025-09-07T08:58:31Z</time>
      </trkpt>
      <trkpt lat="46.18484" lon="4.58322">
        <ele>841.8</ele>
        <time>2025-09-07T08:58:32Z</time>
      </trkpt>
      <trkpt lat="46.18484" lon="4.58323">
        <ele>841.8</ele>
        <time>2025-09-07T08:58:33Z</time>
      </trkpt>
      <trkpt lat="46.18484" lon="4.58323">
        <ele>842.2</ele>
        <time>2025-09-07T08:58:34Z</time>
      </trkpt>
      <trkpt lat="46.18483" lon="4.58324">
        <ele>842.2</ele>
        <time>2025-09-07T08:58:35Z</time>
      </trkpt>
      <trkpt lat="46.18482" lon="4.58324">
        <ele>842.2</ele>
        <time>2025-09-07T08:58:36Z</time>
      </trkpt>
      <trkpt lat="46.18481" lon="4.58324">
        <ele>842.4</ele>
        <time>2025-09-07T08:58:37Z</time>
      </trkpt>
      <trkpt lat="46.18479" lon="4.58324">
        <ele>842.8</ele>
        <time>2025-09-07T08:58:38Z</time>
      </trkpt>
      <trkpt lat="46.18478" lon="4.58324">
        <ele>842.8</ele>
        <time>2025-09-07T08:58:39Z</time>
      </trkpt>
      <trkpt lat="46.18477" lon="4.58324">
        <ele>843.2</ele>
        <time>2025-09-07T08:58:40Z</time>
      </trkpt>
      <trkpt lat="46.18477" lon="4.58325">
        <ele>843.6</ele>
        <time>2025-09-07T08:58:41Z</time>
      </trkpt>
      <trkpt lat="46.18476" lon="4.58325">
        <ele>843.6</ele>
        <time>2025-09-07T08:58:42Z</time>
      </trkpt>
      <trkpt lat="46.18475" lon="4.58325">
        <ele>843.8</ele>
        <time>2025-09-07T08:58:43Z</time>
      </trkpt>
      <trkpt lat="46.18474" lon="4.58325">
        <ele>843.8</ele>
        <time>2025-09-07T08:58:44Z</time>
      </trkpt>
      <trkpt lat="46.18473" lon="4.58325">
        <ele>844</ele>
        <time>2025-09-07T08:58:45Z</time>
      </trkpt>
      <trkpt lat="46.18473" lon="4.58325">
        <ele>844.2</ele>
        <time>2025-09-07T08:58:46Z</time>
      </trkpt>
      <trkpt lat="46.18472" lon="4.58325">
        <ele>844.2</ele>
        <time>2025-09-07T08:58:47Z</time>
      </trkpt>
      <trkpt lat="46.18471" lon="4.58325">
        <ele>844.2</ele>
        <time>2025-09-07T08:58:48Z</time>
      </trkpt>
      <trkpt lat="46.1847" lon="4.58325">
        <ele>844.2</ele>
        <time>2025-09-07T08:58:49Z</time>
      </trkpt>
      <trkpt lat="46.18469" lon="4.58325">
        <ele>844.6</ele>
        <time>2025-09-07T08:58:50Z</time>
      </trkpt>
      <trkpt lat="46.18468" lon="4.58325">
        <ele>844.2</ele>
        <time>2025-09-07T08:58:51Z</time>
      </trkpt>
      <trkpt lat="46.18467" lon="4.58325">
        <ele>844.2</ele>
        <time>2025-09-07T08:58:52Z</time>
      </trkpt>
      <trkpt lat="46.18466" lon="4.58326">
        <ele>844.8</ele>
        <time>2025-09-07T08:58:53Z</time>
      </trkpt>
      <trkpt lat="46.18466" lon="4.58326">
        <ele>845</ele>
        <time>2025-09-07T08:58:54Z</time>
      </trkpt>
      <trkpt lat="46.18465" lon="4.58325">
        <ele>845.4</ele>
        <time>2025-09-07T08:58:55Z</time>
      </trkpt>
      <trkpt lat="46.18465" lon="4.58325">
        <ele>845.4</ele>
        <time>2025-09-07T08:58:56Z</time>
      </trkpt>
      <trkpt lat="46.18465" lon="4.58326">
        <ele>845.8</ele>
        <time>2025-09-07T08:58:57Z</time>
      </trkpt>
      <trkpt lat="46.18464" lon="4.58326">
        <ele>845.6</ele>
        <time>2025-09-07T08:58:58Z</time>
      </trkpt>
      <trkpt lat="46.18463" lon="4.58326">
        <ele>846.2</ele>
        <time>2025-09-07T08:58:59Z</time>
      </trkpt>
      <trkpt lat="46.18463" lon="4.58325">
        <ele>846.6</ele>
        <time>2025-09-07T08:59:00Z</time>
      </trkpt>
      <trkpt lat="46.18462" lon="4.58325">
        <ele>847</ele>
        <time>2025-09-07T08:59:01Z</time>
      </trkpt>
      <trkpt lat="46.18461" lon="4.58324">
        <ele>847</ele>
        <time>2025-09-07T08:59:02Z</time>
      </trkpt>
      <trkpt lat="46.1846" lon="4.58324">
        <ele>847.2</ele>
        <time>2025-09-07T08:59:03Z</time>
      </trkpt>
      <trkpt lat="46.1846" lon="4.58324">
        <ele>847.8</ele>
        <time>2025-09-07T08:59:04Z</time>
      </trkpt>
      <trkpt lat="46.18459" lon="4.58324">
        <ele>847.4</ele>
        <time>2025-09-07T08:59:05Z</time>
      </trkpt>
      <trkpt lat="46.18458" lon="4.58324">
        <ele>847.4</ele>
        <time>2025-09-07T08:59:06Z</time>
      </trkpt>
      <trkpt lat="46.18457" lon="4.58324">
        <ele>847.4</ele>
        <time>2025-09-07T08:59:07Z</time>
      </trkpt>
      <trkpt lat="46.18456" lon="4.58324">
        <ele>847.4</ele>
        <time>2025-09-07T08:59:08Z</time>
      </trkpt>
      <trkpt lat="46.18455" lon="4.58325">
        <ele>848</ele>
        <time>2025-09-07T08:59:09Z</time>
      </trkpt>
      <trkpt lat="46.18455" lon="4.58325">
        <ele>848</ele>
        <time>2025-09-07T08:59:10Z</time>
      </trkpt>
      <trkpt lat="46.18454" lon="4.58326">
        <ele>848.4</ele>
        <time>2025-09-07T08:59:11Z</time>
      </trkpt>
      <trkpt lat="46.18453" lon="4.58326">
        <ele>848.8</ele>
        <time>2025-09-07T08:59:12Z</time>
      </trkpt>
      <trkpt lat="46.18453" lon="4.58327">
        <ele>848.8</ele>
        <time>2025-09-07T08:59:13Z</time>
      </trkpt>
      <trkpt lat="46.18453" lon="4.58329">
        <ele>848.8</ele>
        <time>2025-09-07T08:59:14Z</time>
      </trkpt>
      <trkpt lat="46.18453" lon="4.5833">
        <ele>849</ele>
        <time>2025-09-07T08:59:15Z</time>
      </trkpt>
      <trkpt lat="46.18453" lon="4.58331">
        <ele>849.2</ele>
        <time>2025-09-07T08:59:16Z</time>
      </trkpt>
      <trkpt lat="46.18453" lon="4.58331">
        <ele>849.2</ele>
        <time>2025-09-07T08:59:17Z</time>
      </trkpt>
      <trkpt lat="46.18452" lon="4.58332">
        <ele>849.2</ele>
        <time>2025-09-07T08:59:18Z</time>
      </trkpt>
      <trkpt lat="46.18451" lon="4.58333">
        <ele>849.2</ele>
        <time>2025-09-07T08:59:19Z</time>
      </trkpt>
      <trkpt lat="46.18451" lon="4.58333">
        <ele>849.6</ele>
        <time>2025-09-07T08:59:20Z</time>
      </trkpt>
      <trkpt lat="46.1845" lon="4.58334">
        <ele>849.6</ele>
        <time>2025-09-07T08:59:21Z</time>
      </trkpt>
      <trkpt lat="46.1845" lon="4.58334">
        <ele>849.6</ele>
        <time>2025-09-07T08:59:22Z</time>
      </trkpt>
      <trkpt lat="46.1845" lon="4.58335">
        <ele>849.6</ele>
        <time>2025-09-07T08:59:23Z</time>
      </trkpt>
      <trkpt lat="46.1845" lon="4.58335">
        <ele>849.8</ele>
        <time>2025-09-07T08:59:24Z</time>
      </trkpt>
      <trkpt lat="46.18448" lon="4.58339">
        <ele>849.8</ele>
        <time>2025-09-07T08:59:41Z</time>
      </trkpt>
      <trkpt lat="46.18448" lon="4.58341">
        <ele>850</ele>
        <time>2025-09-07T08:59:42Z</time>
      </trkpt>
      <trkpt lat="46.18447" lon="4.58342">
        <ele>850</ele>
        <time>2025-09-07T08:59:43Z</time>
      </trkpt>
      <trkpt lat="46.18447" lon="4.58343">
        <ele>850</ele>
        <time>2025-09-07T08:59:44Z</time>
      </trkpt>
      <trkpt lat="46.18446" lon="4.58344">
        <ele>850.4</ele>
        <time>2025-09-07T08:59:45Z</time>
      </trkpt>
      <trkpt lat="46.18446" lon="4.58344">
        <ele>850.4</ele>
        <time>2025-09-07T08:59:46Z</time>
      </trkpt>
      <trkpt lat="46.18445" lon="4.58345">
        <ele>850.6</ele>
        <time>2025-09-07T08:59:47Z</time>
      </trkpt>
      <trkpt lat="46.18444" lon="4.58346">
        <ele>850.6</ele>
        <time>2025-09-07T08:59:48Z</time>
      </trkpt>
      <trkpt lat="46.18444" lon="4.58346">
        <ele>851</ele>
        <time>2025-09-07T08:59:49Z</time>
      </trkpt>
      <trkpt lat="46.18444" lon="4.58346">
        <ele>851</ele>
        <time>2025-09-07T08:59:50Z</time>
      </trkpt>
      <trkpt lat="46.18443" lon="4.58347">
        <ele>851</ele>
        <time>2025-09-07T08:59:51Z</time>
      </trkpt>
      <trkpt lat="46.18442" lon="4.58348">
        <ele>851.2</ele>
        <time>2025-09-07T08:59:52Z</time>
      </trkpt>
      <trkpt lat="46.18442" lon="4.58349">
        <ele>851</ele>
        <time>2025-09-07T08:59:53Z</time>
      </trkpt>
      <trkpt lat="46.18441" lon="4.58349">
        <ele>851</ele>
        <time>2025-09-07T08:59:54Z</time>
      </trkpt>
      <trkpt lat="46.1844" lon="4.58349">
        <ele>851.2</ele>
        <time>2025-09-07T08:59:55Z</time>
      </trkpt>
      <trkpt lat="46.18439" lon="4.58348">
        <ele>851.2</ele>
        <time>2025-09-07T08:59:56Z</time>
      </trkpt>
      <trkpt lat="46.18438" lon="4.58348">
        <ele>851.6</ele>
        <time>2025-09-07T08:59:57Z</time>
      </trkpt>
      <trkpt lat="46.18438" lon="4.58348">
        <ele>851.8</ele>
        <time>2025-09-07T08:59:58Z</time>
      </trkpt>
      <trkpt lat="46.18436" lon="4.58348">
        <ele>851.8</ele>
        <time>2025-09-07T08:59:59Z</time>
      </trkpt>
      <trkpt lat="46.18435" lon="4.58348">
        <ele>852.2</ele>
        <time>2025-09-07T09:00:00Z</time>
      </trkpt>
      <trkpt lat="46.18435" lon="4.58348">
        <ele>852.2</ele>
        <time>2025-09-07T09:00:01Z</time>
      </trkpt>
      <trkpt lat="46.18434" lon="4.58348">
        <ele>852.4</ele>
        <time>2025-09-07T09:00:02Z</time>
      </trkpt>
      <trkpt lat="46.18434" lon="4.58349">
        <ele>852.4</ele>
        <time>2025-09-07T09:00:03Z</time>
      </trkpt>
      <trkpt lat="46.18434" lon="4.58349">
        <ele>852.8</ele>
        <time>2025-09-07T09:00:04Z</time>
      </trkpt>
      <trkpt lat="46.18432" lon="4.5835">
        <ele>852.8</ele>
        <time>2025-09-07T09:00:05Z</time>
      </trkpt>
      <trkpt lat="46.18431" lon="4.58351">
        <ele>853</ele>
        <time>2025-09-07T09:00:06Z</time>
      </trkpt>
      <trkpt lat="46.1843" lon="4.58352">
        <ele>853</ele>
        <time>2025-09-07T09:00:07Z</time>
      </trkpt>
      <trkpt lat="46.18429" lon="4.58352">
        <ele>853.4</ele>
        <time>2025-09-07T09:00:08Z</time>
      </trkpt>
      <trkpt lat="46.18429" lon="4.58352">
        <ele>853.6</ele>
        <time>2025-09-07T09:00:09Z</time>
      </trkpt>
      <trkpt lat="46.18428" lon="4.58353">
        <ele>853.6</ele>
        <time>2025-09-07T09:00:10Z</time>
      </trkpt>
      <trkpt lat="46.18427" lon="4.58353">
        <ele>853.6</ele>
        <time>2025-09-07T09:00:11Z</time>
      </trkpt>
      <trkpt lat="46.18427" lon="4.58354">
        <ele>853.6</ele>
        <time>2025-09-07T09:00:12Z</time>
      </trkpt>
      <trkpt lat="46.18426" lon="4.58354">
        <ele>853.8</ele>
        <time>2025-09-07T09:00:13Z</time>
      </trkpt>
      <trkpt lat="46.18425" lon="4.58355">
        <ele>853.8</ele>
        <time>2025-09-07T09:00:14Z</time>
      </trkpt>
      <trkpt lat="46.18425" lon="4.58356">
        <ele>854.2</ele>
        <time>2025-09-07T09:00:15Z</time>
      </trkpt>
      <trkpt lat="46.18424" lon="4.58356">
        <ele>854.2</ele>
        <time>2025-09-07T09:00:16Z</time>
      </trkpt>
      <trkpt lat="46.18423" lon="4.58357">
        <ele>854.2</ele>
        <time>2025-09-07T09:00:17Z</time>
      </trkpt>
      <trkpt lat="46.18423" lon="4.58358">
        <ele>854.8</ele>
        <time>2025-09-07T09:00:18Z</time>
      </trkpt>
      <trkpt lat="46.18422" lon="4.58359">
        <ele>855.2</ele>
        <time>2025-09-07T09:00:19Z</time>
      </trkpt>
      <trkpt lat="46.18421" lon="4.5836">
        <ele>855.6</ele>
        <time>2025-09-07T09:00:20Z</time>
      </trkpt>
      <trkpt lat="46.18421" lon="4.58361">
        <ele>855.6</ele>
        <time>2025-09-07T09:00:21Z</time>
      </trkpt>
      <trkpt lat="46.18419" lon="4.58361">
        <ele>855.8</ele>
        <time>2025-09-07T09:00:22Z</time>
      </trkpt>
      <trkpt lat="46.18418" lon="4.58362">
        <ele>856.2</ele>
        <time>2025-09-07T09:00:23Z</time>
      </trkpt>
      <trkpt lat="46.18416" lon="4.58362">
        <ele>856.2</ele>
        <time>2025-09-07T09:00:24Z</time>
      </trkpt>
      <trkpt lat="46.18416" lon="4.58362">
        <ele>856.2</ele>
        <time>2025-09-07T09:00:25Z</time>
      </trkpt>
      <trkpt lat="46.18415" lon="4.58362">
        <ele>856.2</ele>
        <time>2025-09-07T09:00:26Z</time>
      </trkpt>
      <trkpt lat="46.18413" lon="4.58362">
        <ele>856.6</ele>
        <time>2025-09-07T09:00:27Z</time>
      </trkpt>
      <trkpt lat="46.18412" lon="4.58362">
        <ele>856.6</ele>
        <time>2025-09-07T09:00:28Z</time>
      </trkpt>
      <trkpt lat="46.18411" lon="4.58362">
        <ele>856.2</ele>
        <time>2025-09-07T09:00:29Z</time>
      </trkpt>
      <trkpt lat="46.18411" lon="4.58362">
        <ele>856.4</ele>
        <time>2025-09-07T09:00:30Z</time>
      </trkpt>
      <trkpt lat="46.1841" lon="4.58362">
        <ele>856.8</ele>
        <time>2025-09-07T09:00:31Z</time>
      </trkpt>
      <trkpt lat="46.1841" lon="4.58362">
        <ele>857</ele>
        <time>2025-09-07T09:00:32Z</time>
      </trkpt>
      <trkpt lat="46.18408" lon="4.58364">
        <ele>857</ele>
        <time>2025-09-07T09:00:33Z</time>
      </trkpt>
      <trkpt lat="46.18408" lon="4.58366">
        <ele>857</ele>
        <time>2025-09-07T09:00:34Z</time>
      </trkpt>
      <trkpt lat="46.18407" lon="4.58366">
        <ele>857.4</ele>
        <time>2025-09-07T09:00:35Z</time>
      </trkpt>
      <trkpt lat="46.18407" lon="4.58367">
        <ele>857.4</ele>
        <time>2025-09-07T09:00:36Z</time>
      </trkpt>
      <trkpt lat="46.18407" lon="4.58368">
        <ele>857.4</ele>
        <time>2025-09-07T09:00:37Z</time>
      </trkpt>
      <trkpt lat="46.18406" lon="4.5837">
        <ele>857.4</ele>
        <time>2025-09-07T09:00:38Z</time>
      </trkpt>
      <trkpt lat="46.18405" lon="4.5837">
        <ele>857.4</ele>
        <time>2025-09-07T09:00:39Z</time>
      </trkpt>
      <trkpt lat="46.18405" lon="4.58371">
        <ele>857.8</ele>
        <time>2025-09-07T09:00:40Z</time>
      </trkpt>
      <trkpt lat="46.18404" lon="4.58372">
        <ele>857.8</ele>
        <time>2025-09-07T09:00:41Z</time>
      </trkpt>
      <trkpt lat="46.18404" lon="4.58373">
        <ele>858.2</ele>
        <time>2025-09-07T09:00:42Z</time>
      </trkpt>
      <trkpt lat="46.18404" lon="4.58374">
        <ele>858.6</ele>
        <time>2025-09-07T09:00:43Z</time>
      </trkpt>
      <trkpt lat="46.18404" lon="4.58375">
        <ele>858.6</ele>
        <time>2025-09-07T09:00:44Z</time>
      </trkpt>
      <trkpt lat="46.18404" lon="4.58376">
        <ele>859</ele>
        <time>2025-09-07T09:00:45Z</time>
      </trkpt>
      <trkpt lat="46.18403" lon="4.58376">
        <ele>859</ele>
        <time>2025-09-07T09:00:46Z</time>
      </trkpt>
      <trkpt lat="46.18403" lon="4.58377">
        <ele>859.2</ele>
        <time>2025-09-07T09:00:47Z</time>
      </trkpt>
      <trkpt lat="46.18403" lon="4.58378">
        <ele>859.6</ele>
        <time>2025-09-07T09:00:48Z</time>
      </trkpt>
      <trkpt lat="46.18402" lon="4.58378">
        <ele>859.6</ele>
        <time>2025-09-07T09:00:49Z</time>
      </trkpt>
      <trkpt lat="46.18402" lon="4.58379">
        <ele>860</ele>
        <time>2025-09-07T09:00:50Z</time>
      </trkpt>
      <trkpt lat="46.18402" lon="4.58379">
        <ele>860</ele>
        <time>2025-09-07T09:00:51Z</time>
      </trkpt>
      <trkpt lat="46.18401" lon="4.58379">
        <ele>860.4</ele>
        <time>2025-09-07T09:00:52Z</time>
      </trkpt>
      <trkpt lat="46.18401" lon="4.58379">
        <ele>860.4</ele>
        <time>2025-09-07T09:00:53Z</time>
      </trkpt>
      <trkpt lat="46.184" lon="4.58379">
        <ele>860.4</ele>
        <time>2025-09-07T09:00:54Z</time>
      </trkpt>
      <trkpt lat="46.184" lon="4.58378">
        <ele>860.4</ele>
        <time>2025-09-07T09:00:55Z</time>
      </trkpt>
      <trkpt lat="46.184" lon="4.58377">
        <ele>860.4</ele>
        <time>2025-09-07T09:00:56Z</time>
      </trkpt>
      <trkpt lat="46.18401" lon="4.58377">
        <ele>860.4</ele>
        <time>2025-09-07T09:00:57Z</time>
      </trkpt>
      <trkpt lat="46.18397" lon="4.58378">
        <ele>860.6</ele>
        <time>2025-09-07T09:01:14Z</time>
      </trkpt>
      <trkpt lat="46.18396" lon="4.58379">
        <ele>860.8</ele>
        <time>2025-09-07T09:01:15Z</time>
      </trkpt>
      <trkpt lat="46.18395" lon="4.58381">
        <ele>860.8</ele>
        <time>2025-09-07T09:01:16Z</time>
      </trkpt>
      <trkpt lat="46.18394" lon="4.58383">
        <ele>860.8</ele>
        <time>2025-09-07T09:01:17Z</time>
      </trkpt>
      <trkpt lat="46.18394" lon="4.58383">
        <ele>860.8</ele>
        <time>2025-09-07T09:01:18Z</time>
      </trkpt>
      <trkpt lat="46.18394" lon="4.58383">
        <ele>860.8</ele>
        <time>2025-09-07T09:01:19Z</time>
      </trkpt>
      <trkpt lat="46.18394" lon="4.58383">
        <ele>860.8</ele>
        <time>2025-09-07T09:01:20Z</time>
      </trkpt>
      <trkpt lat="46.18394" lon="4.58384">
        <ele>861</ele>
        <time>2025-09-07T09:01:21Z</time>
      </trkpt>
      <trkpt lat="46.18394" lon="4.58384">
        <ele>861</ele>
        <time>2025-09-07T09:01:22Z</time>
      </trkpt>
      <trkpt lat="46.18394" lon="4.58386">
        <ele>861.4</ele>
        <time>2025-09-07T09:01:23Z</time>
      </trkpt>
      <trkpt lat="46.18394" lon="4.58386">
        <ele>861.4</ele>
        <time>2025-09-07T09:01:24Z</time>
      </trkpt>
      <trkpt lat="46.18395" lon="4.58387">
        <ele>861.8</ele>
        <time>2025-09-07T09:01:25Z</time>
      </trkpt>
      <trkpt lat="46.18395" lon="4.58388">
        <ele>861.8</ele>
        <time>2025-09-07T09:01:26Z</time>
      </trkpt>
      <trkpt lat="46.18395" lon="4.58389">
        <ele>861.8</ele>
        <time>2025-09-07T09:01:27Z</time>
      </trkpt>
      <trkpt lat="46.18394" lon="4.58389">
        <ele>862.2</ele>
        <time>2025-09-07T09:01:28Z</time>
      </trkpt>
      <trkpt lat="46.18394" lon="4.5839">
        <ele>862.2</ele>
        <time>2025-09-07T09:01:29Z</time>
      </trkpt>
      <trkpt lat="46.18393" lon="4.58391">
        <ele>862.4</ele>
        <time>2025-09-07T09:01:30Z</time>
      </trkpt>
      <trkpt lat="46.18392" lon="4.58392">
        <ele>862.4</ele>
        <time>2025-09-07T09:01:31Z</time>
      </trkpt>
      <trkpt lat="46.18392" lon="4.58392">
        <ele>862.4</ele>
        <time>2025-09-07T09:01:32Z</time>
      </trkpt>
      <trkpt lat="46.18391" lon="4.58393">
        <ele>862.8</ele>
        <time>2025-09-07T09:01:33Z</time>
      </trkpt>
      <trkpt lat="46.18391" lon="4.58394">
        <ele>863</ele>
        <time>2025-09-07T09:01:34Z</time>
      </trkpt>
      <trkpt lat="46.1839" lon="4.58396">
        <ele>862.6</ele>
        <time>2025-09-07T09:01:35Z</time>
      </trkpt>
      <trkpt lat="46.1839" lon="4.58397">
        <ele>863</ele>
        <time>2025-09-07T09:01:36Z</time>
      </trkpt>
      <trkpt lat="46.18389" lon="4.58397">
        <ele>863.2</ele>
        <time>2025-09-07T09:01:37Z</time>
      </trkpt>
      <trkpt lat="46.18388" lon="4.58398">
        <ele>863.2</ele>
        <time>2025-09-07T09:01:38Z</time>
      </trkpt>
      <trkpt lat="46.18388" lon="4.58399">
        <ele>863.2</ele>
        <time>2025-09-07T09:01:39Z</time>
      </trkpt>
      <trkpt lat="46.18387" lon="4.584">
        <ele>863.2</ele>
        <time>2025-09-07T09:01:40Z</time>
      </trkpt>
      <trkpt lat="46.18386" lon="4.584">
        <ele>863.6</ele>
        <time>2025-09-07T09:01:41Z</time>
      </trkpt>
      <trkpt lat="46.18385" lon="4.584">
        <ele>863.6</ele>
        <time>2025-09-07T09:01:42Z</time>
      </trkpt>
      <trkpt lat="46.18384" lon="4.584">
        <ele>863.6</ele>
        <time>2025-09-07T09:01:43Z</time>
      </trkpt>
      <trkpt lat="46.18384" lon="4.584">
        <ele>864</ele>
        <time>2025-09-07T09:01:44Z</time>
      </trkpt>
      <trkpt lat="46.18383" lon="4.58401">
        <ele>864</ele>
        <time>2025-09-07T09:01:45Z</time>
      </trkpt>
      <trkpt lat="46.18383" lon="4.58403">
        <ele>864</ele>
        <time>2025-09-07T09:01:46Z</time>
      </trkpt>
      <trkpt lat="46.18382" lon="4.58405">
        <ele>864</ele>
        <time>2025-09-07T09:01:47Z</time>
      </trkpt>
      <trkpt lat="46.18382" lon="4.58406">
        <ele>864.2</ele>
        <time>2025-09-07T09:01:48Z</time>
      </trkpt>
      <trkpt lat="46.18382" lon="4.58406">
        <ele>864.4</ele>
        <time>2025-09-07T09:01:49Z</time>
      </trkpt>
      <trkpt lat="46.18381" lon="4.58407">
        <ele>864.4</ele>
        <time>2025-09-07T09:01:50Z</time>
      </trkpt>
      <trkpt lat="46.18381" lon="4.58407">
        <ele>864.8</ele>
        <time>2025-09-07T09:01:51Z</time>
      </trkpt>
      <trkpt lat="46.18381" lon="4.58407">
        <ele>865</ele>
        <time>2025-09-07T09:01:52Z</time>
      </trkpt>
      <trkpt lat="46.18381" lon="4.58407">
        <ele>865.4</ele>
        <time>2025-09-07T09:01:53Z</time>
      </trkpt>
      <trkpt lat="46.18381" lon="4.58407">
        <ele>865.6</ele>
        <time>2025-09-07T09:01:54Z</time>
      </trkpt>
      <trkpt lat="46.18381" lon="4.58407">
        <ele>865.6</ele>
        <time>2025-09-07T09:01:55Z</time>
      </trkpt>
      <trkpt lat="46.18381" lon="4.58406">
        <ele>866</ele>
        <time>2025-09-07T09:01:56Z</time>
      </trkpt>
      <trkpt lat="46.1838" lon="4.58406">
        <ele>866</ele>
        <time>2025-09-07T09:01:57Z</time>
      </trkpt>
      <trkpt lat="46.18379" lon="4.58406">
        <ele>866.2</ele>
        <time>2025-09-07T09:01:58Z</time>
      </trkpt>
      <trkpt lat="46.18378" lon="4.58406">
        <ele>865.8</ele>
        <time>2025-09-07T09:01:59Z</time>
      </trkpt>
      <trkpt lat="46.18377" lon="4.58407">
        <ele>865.8</ele>
        <time>2025-09-07T09:02:00Z</time>
      </trkpt>
      <trkpt lat="46.18377" lon="4.58408">
        <ele>865.6</ele>
        <time>2025-09-07T09:02:01Z</time>
      </trkpt>
      <trkpt lat="46.18376" lon="4.5841">
        <ele>865.6</ele>
        <time>2025-09-07T09:02:02Z</time>
      </trkpt>
      <trkpt lat="46.18375" lon="4.58411">
        <ele>865.6</ele>
        <time>2025-09-07T09:02:03Z</time>
      </trkpt>
      <trkpt lat="46.18374" lon="4.58412">
        <ele>865.6</ele>
        <time>2025-09-07T09:02:04Z</time>
      </trkpt>
      <trkpt lat="46.18373" lon="4.58414">
        <ele>865.6</ele>
        <time>2025-09-07T09:02:05Z</time>
      </trkpt>
      <trkpt lat="46.18373" lon="4.58414">
        <ele>865.6</ele>
        <time>2025-09-07T09:02:06Z</time>
      </trkpt>
      <trkpt lat="46.18372" lon="4.58415">
        <ele>865.4</ele>
        <time>2025-09-07T09:02:07Z</time>
      </trkpt>
      <trkpt lat="46.18372" lon="4.58416">
        <ele>865.8</ele>
        <time>2025-09-07T09:02:08Z</time>
      </trkpt>
      <trkpt lat="46.18371" lon="4.58416">
        <ele>865.8</ele>
        <time>2025-09-07T09:02:09Z</time>
      </trkpt>
      <trkpt lat="46.1837" lon="4.58417">
        <ele>866</ele>
        <time>2025-09-07T09:02:10Z</time>
      </trkpt>
      <trkpt lat="46.18369" lon="4.58418">
        <ele>866.4</ele>
        <time>2025-09-07T09:02:11Z</time>
      </trkpt>
      <trkpt lat="46.18369" lon="4.58418">
        <ele>866.6</ele>
        <time>2025-09-07T09:02:12Z</time>
      </trkpt>
      <trkpt lat="46.18369" lon="4.58418">
        <ele>866.6</ele>
        <time>2025-09-07T09:02:13Z</time>
      </trkpt>
      <trkpt lat="46.18367" lon="4.58419">
        <ele>866.6</ele>
        <time>2025-09-07T09:02:14Z</time>
      </trkpt>
      <trkpt lat="46.18366" lon="4.58419">
        <ele>866.6</ele>
        <time>2025-09-07T09:02:15Z</time>
      </trkpt>
      <trkpt lat="46.18365" lon="4.58419">
        <ele>866.6</ele>
        <time>2025-09-07T09:02:16Z</time>
      </trkpt>
      <trkpt lat="46.18364" lon="4.58419">
        <ele>866.2</ele>
        <time>2025-09-07T09:02:17Z</time>
      </trkpt>
      <trkpt lat="46.18363" lon="4.5842">
        <ele>866.4</ele>
        <time>2025-09-07T09:02:18Z</time>
      </trkpt>
      <trkpt lat="46.18362" lon="4.58421">
        <ele>866.8</ele>
        <time>2025-09-07T09:02:19Z</time>
      </trkpt>
      <trkpt lat="46.18362" lon="4.58422">
        <ele>866.8</ele>
        <time>2025-09-07T09:02:20Z</time>
      </trkpt>
      <trkpt lat="46.18362" lon="4.58424">
        <ele>867</ele>
        <time>2025-09-07T09:02:21Z</time>
      </trkpt>
      <trkpt lat="46.18362" lon="4.58425">
        <ele>867.2</ele>
        <time>2025-09-07T09:02:22Z</time>
      </trkpt>
      <trkpt lat="46.18362" lon="4.58426">
        <ele>867.2</ele>
        <time>2025-09-07T09:02:23Z</time>
      </trkpt>
      <trkpt lat="46.18362" lon="4.58427">
        <ele>867.8</ele>
        <time>2025-09-07T09:02:24Z</time>
      </trkpt>
      <trkpt lat="46.18362" lon="4.58427">
        <ele>868.2</ele>
        <time>2025-09-07T09:02:25Z</time>
      </trkpt>
      <trkpt lat="46.18361" lon="4.58428">
        <ele>868.2</ele>
        <time>2025-09-07T09:02:26Z</time>
      </trkpt>
      <trkpt lat="46.18361" lon="4.58428">
        <ele>868.4</ele>
        <time>2025-09-07T09:02:27Z</time>
      </trkpt>
      <trkpt lat="46.1836" lon="4.58429">
        <ele>868.4</ele>
        <time>2025-09-07T09:02:28Z</time>
      </trkpt>
      <trkpt lat="46.1836" lon="4.58429">
        <ele>868.4</ele>
        <time>2025-09-07T09:02:29Z</time>
      </trkpt>
      <trkpt lat="46.18359" lon="4.58429">
        <ele>868.8</ele>
        <time>2025-09-07T09:02:30Z</time>
      </trkpt>
      <trkpt lat="46.18358" lon="4.58429">
        <ele>868.8</ele>
        <time>2025-09-07T09:02:31Z</time>
      </trkpt>
      <trkpt lat="46.18357" lon="4.5843">
        <ele>868.8</ele>
        <time>2025-09-07T09:02:32Z</time>
      </trkpt>
      <trkpt lat="46.18356" lon="4.5843">
        <ele>869</ele>
        <time>2025-09-07T09:02:33Z</time>
      </trkpt>
      <trkpt lat="46.18355" lon="4.5843">
        <ele>869</ele>
        <time>2025-09-07T09:02:34Z</time>
      </trkpt>
      <trkpt lat="46.18355" lon="4.5843">
        <ele>869</ele>
        <time>2025-09-07T09:02:35Z</time>
      </trkpt>
      <trkpt lat="46.18354" lon="4.58431">
        <ele>869</ele>
        <time>2025-09-07T09:02:36Z</time>
      </trkpt>
      <trkpt lat="46.18353" lon="4.5843">
        <ele>869</ele>
        <time>2025-09-07T09:02:37Z</time>
      </trkpt>
      <trkpt lat="46.18352" lon="4.5843">
        <ele>869</ele>
        <time>2025-09-07T09:02:38Z</time>
      </trkpt>
      <trkpt lat="46.18353" lon="4.5843">
        <ele>869</ele>
        <time>2025-09-07T09:02:39Z</time>
      </trkpt>
      <trkpt lat="46.18352" lon="4.58428">
        <ele>869.2</ele>
        <time>2025-09-07T09:03:33Z</time>
      </trkpt>
      <trkpt lat="46.18351" lon="4.58428">
        <ele>869.2</ele>
        <time>2025-09-07T09:03:34Z</time>
      </trkpt>
      <trkpt lat="46.18351" lon="4.58428">
        <ele>868.6</ele>
        <time>2025-09-07T09:03:35Z</time>
      </trkpt>
      <trkpt lat="46.18351" lon="4.58428">
        <ele>868.6</ele>
        <time>2025-09-07T09:03:36Z</time>
      </trkpt>
      <trkpt lat="46.18347" lon="4.5843">
        <ele>868.4</ele>
        <time>2025-09-07T09:03:38Z</time>
      </trkpt>
      <trkpt lat="46.18347" lon="4.58432">
        <ele>868.4</ele>
        <time>2025-09-07T09:03:39Z</time>
      </trkpt>
      <trkpt lat="46.18346" lon="4.58433">
        <ele>868.8</ele>
        <time>2025-09-07T09:03:40Z</time>
      </trkpt>
      <trkpt lat="46.18345" lon="4.58434">
        <ele>868.8</ele>
        <time>2025-09-07T09:03:41Z</time>
      </trkpt>
      <trkpt lat="46.18345" lon="4.58435">
        <ele>869.4</ele>
        <time>2025-09-07T09:03:42Z</time>
      </trkpt>
      <trkpt lat="46.18344" lon="4.58436">
        <ele>868.8</ele>
        <time>2025-09-07T09:03:43Z</time>
      </trkpt>
      <trkpt lat="46.18343" lon="4.58437">
        <ele>868.8</ele>
        <time>2025-09-07T09:03:44Z</time>
      </trkpt>
      <trkpt lat="46.18342" lon="4.58438">
        <ele>869.4</ele>
        <time>2025-09-07T09:03:45Z</time>
      </trkpt>
      <trkpt lat="46.18341" lon="4.5844">
        <ele>869</ele>
        <time>2025-09-07T09:03:46Z</time>
      </trkpt>
      <trkpt lat="46.1834" lon="4.5844">
        <ele>869</ele>
        <time>2025-09-07T09:03:47Z</time>
      </trkpt>
      <trkpt lat="46.18339" lon="4.58441">
        <ele>869</ele>
        <time>2025-09-07T09:03:48Z</time>
      </trkpt>
      <trkpt lat="46.18337" lon="4.58442">
        <ele>869.4</ele>
        <time>2025-09-07T09:03:49Z</time>
      </trkpt>
      <trkpt lat="46.18337" lon="4.58443">
        <ele>869.4</ele>
        <time>2025-09-07T09:03:50Z</time>
      </trkpt>
      <trkpt lat="46.18336" lon="4.58443">
        <ele>869.4</ele>
        <time>2025-09-07T09:03:51Z</time>
      </trkpt>
      <trkpt lat="46.18335" lon="4.58443">
        <ele>869.4</ele>
        <time>2025-09-07T09:03:52Z</time>
      </trkpt>
      <trkpt lat="46.18334" lon="4.58443">
        <ele>869.4</ele>
        <time>2025-09-07T09:03:53Z</time>
      </trkpt>
      <trkpt lat="46.18333" lon="4.58443">
        <ele>869.8</ele>
        <time>2025-09-07T09:03:54Z</time>
      </trkpt>
      <trkpt lat="46.18332" lon="4.58445">
        <ele>869.8</ele>
        <time>2025-09-07T09:03:55Z</time>
      </trkpt>
      <trkpt lat="46.18331" lon="4.58446">
        <ele>869.8</ele>
        <time>2025-09-07T09:03:56Z</time>
      </trkpt>
      <trkpt lat="46.1833" lon="4.58447">
        <ele>869.8</ele>
        <time>2025-09-07T09:03:57Z</time>
      </trkpt>
      <trkpt lat="46.18329" lon="4.58448">
        <ele>869.4</ele>
        <time>2025-09-07T09:03:58Z</time>
      </trkpt>
      <trkpt lat="46.18328" lon="4.58449">
        <ele>869.4</ele>
        <time>2025-09-07T09:03:59Z</time>
      </trkpt>
      <trkpt lat="46.18327" lon="4.5845">
        <ele>869.4</ele>
        <time>2025-09-07T09:04:00Z</time>
      </trkpt>
      <trkpt lat="46.18326" lon="4.58451">
        <ele>869.8</ele>
        <time>2025-09-07T09:04:01Z</time>
      </trkpt>
      <trkpt lat="46.18325" lon="4.58452">
        <ele>869.8</ele>
        <time>2025-09-07T09:04:02Z</time>
      </trkpt>
      <trkpt lat="46.18324" lon="4.58452">
        <ele>869.8</ele>
        <time>2025-09-07T09:04:03Z</time>
      </trkpt>
      <trkpt lat="46.18324" lon="4.58453">
        <ele>870.2</ele>
        <time>2025-09-07T09:04:04Z</time>
      </trkpt>
      <trkpt lat="46.18323" lon="4.58454">
        <ele>870.2</ele>
        <time>2025-09-07T09:04:05Z</time>
      </trkpt>
      <trkpt lat="46.18323" lon="4.58454">
        <ele>870.6</ele>
        <time>2025-09-07T09:04:06Z</time>
      </trkpt>
      <trkpt lat="46.18322" lon="4.58455">
        <ele>870.8</ele>
        <time>2025-09-07T09:04:07Z</time>
      </trkpt>
      <trkpt lat="46.1832" lon="4.58455">
        <ele>870.8</ele>
        <time>2025-09-07T09:04:08Z</time>
      </trkpt>
      <trkpt lat="46.18319" lon="4.58454">
        <ele>870.8</ele>
        <time>2025-09-07T09:04:09Z</time>
      </trkpt>
      <trkpt lat="46.18318" lon="4.58454">
        <ele>870.8</ele>
        <time>2025-09-07T09:04:10Z</time>
      </trkpt>
      <trkpt lat="46.18317" lon="4.58453">
        <ele>871</ele>
        <time>2025-09-07T09:04:11Z</time>
      </trkpt>
      <trkpt lat="46.18316" lon="4.58452">
        <ele>870.8</ele>
        <time>2025-09-07T09:04:12Z</time>
      </trkpt>
      <trkpt lat="46.18315" lon="4.58451">
        <ele>870.8</ele>
        <time>2025-09-07T09:04:13Z</time>
      </trkpt>
      <trkpt lat="46.18314" lon="4.58451">
        <ele>870.8</ele>
        <time>2025-09-07T09:04:14Z</time>
      </trkpt>
      <trkpt lat="46.18312" lon="4.58451">
        <ele>870.4</ele>
        <time>2025-09-07T09:04:15Z</time>
      </trkpt>
      <trkpt lat="46.18312" lon="4.58452">
        <ele>870.4</ele>
        <time>2025-09-07T09:04:16Z</time>
      </trkpt>
      <trkpt lat="46.1831" lon="4.58453">
        <ele>870.4</ele>
        <time>2025-09-07T09:04:31Z</time>
      </trkpt>
      <trkpt lat="46.18309" lon="4.58453">
        <ele>870.4</ele>
        <time>2025-09-07T09:04:32Z</time>
      </trkpt>
      <trkpt lat="46.18308" lon="4.58453">
        <ele>870.4</ele>
        <time>2025-09-07T09:04:33Z</time>
      </trkpt>
      <trkpt lat="46.18307" lon="4.58454">
        <ele>870.4</ele>
        <time>2025-09-07T09:04:34Z</time>
      </trkpt>
      <trkpt lat="46.18306" lon="4.58455">
        <ele>870.4</ele>
        <time>2025-09-07T09:04:35Z</time>
      </trkpt>
      <trkpt lat="46.18306" lon="4.58457">
        <ele>870.4</ele>
        <time>2025-09-07T09:04:36Z</time>
      </trkpt>
      <trkpt lat="46.18306" lon="4.58458">
        <ele>871</ele>
        <time>2025-09-07T09:04:37Z</time>
      </trkpt>
      <trkpt lat="46.18307" lon="4.58458">
        <ele>871</ele>
        <time>2025-09-07T09:04:38Z</time>
      </trkpt>
      <trkpt lat="46.18306" lon="4.5846">
        <ele>870.6</ele>
        <time>2025-09-07T09:04:39Z</time>
      </trkpt>
      <trkpt lat="46.18304" lon="4.58461">
        <ele>870.6</ele>
        <time>2025-09-07T09:04:40Z</time>
      </trkpt>
      <trkpt lat="46.18303" lon="4.58461">
        <ele>870.6</ele>
        <time>2025-09-07T09:04:41Z</time>
      </trkpt>
      <trkpt lat="46.18303" lon="4.58461">
        <ele>870.6</ele>
        <time>2025-09-07T09:04:42Z</time>
      </trkpt>
      <trkpt lat="46.18303" lon="4.5846">
        <ele>870.6</ele>
        <time>2025-09-07T09:04:43Z</time>
      </trkpt>
      <trkpt lat="46.18303" lon="4.58461">
        <ele>870.6</ele>
        <time>2025-09-07T09:04:44Z</time>
      </trkpt>
      <trkpt lat="46.18303" lon="4.58461">
        <ele>870.6</ele>
        <time>2025-09-07T09:04:45Z</time>
      </trkpt>
      <trkpt lat="46.18303" lon="4.58461">
        <ele>870.6</ele>
        <time>2025-09-07T09:04:46Z</time>
      </trkpt>
      <trkpt lat="46.18302" lon="4.58461">
        <ele>870.6</ele>
        <time>2025-09-07T09:04:47Z</time>
      </trkpt>
      <trkpt lat="46.18299" lon="4.58461">
        <ele>870.6</ele>
        <time>2025-09-07T09:04:50Z</time>
      </trkpt>
      <trkpt lat="46.18298" lon="4.5846">
        <ele>870.6</ele>
        <time>2025-09-07T09:04:51Z</time>
      </trkpt>
      <trkpt lat="46.18296" lon="4.58461">
        <ele>870.6</ele>
        <time>2025-09-07T09:04:52Z</time>
      </trkpt>
      <trkpt lat="46.18295" lon="4.58462">
        <ele>870.6</ele>
        <time>2025-09-07T09:04:53Z</time>
      </trkpt>
      <trkpt lat="46.18293" lon="4.58463">
        <ele>870.2</ele>
        <time>2025-09-07T09:04:54Z</time>
      </trkpt>
      <trkpt lat="46.18293" lon="4.58464">
        <ele>870.2</ele>
        <time>2025-09-07T09:04:55Z</time>
      </trkpt>
      <trkpt lat="46.18292" lon="4.58466">
        <ele>870.2</ele>
        <time>2025-09-07T09:04:56Z</time>
      </trkpt>
      <trkpt lat="46.18291" lon="4.58467">
        <ele>870.2</ele>
        <time>2025-09-07T09:04:57Z</time>
      </trkpt>
      <trkpt lat="46.1829" lon="4.58468">
        <ele>870.4</ele>
        <time>2025-09-07T09:04:58Z</time>
      </trkpt>
      <trkpt lat="46.18289" lon="4.58469">
        <ele>870.4</ele>
        <time>2025-09-07T09:04:59Z</time>
      </trkpt>
      <trkpt lat="46.18288" lon="4.5847">
        <ele>870.4</ele>
        <time>2025-09-07T09:05:00Z</time>
      </trkpt>
      <trkpt lat="46.18287" lon="4.58472">
        <ele>870.8</ele>
        <time>2025-09-07T09:05:01Z</time>
      </trkpt>
      <trkpt lat="46.18285" lon="4.58473">
        <ele>870.8</ele>
        <time>2025-09-07T09:05:02Z</time>
      </trkpt>
      <trkpt lat="46.18284" lon="4.58474">
        <ele>870.8</ele>
        <time>2025-09-07T09:05:03Z</time>
      </trkpt>
      <trkpt lat="46.18283" lon="4.58475">
        <ele>871.2</ele>
        <time>2025-09-07T09:05:04Z</time>
      </trkpt>
      <trkpt lat="46.18282" lon="4.58475">
        <ele>871.4</ele>
        <time>2025-09-07T09:05:05Z</time>
      </trkpt>
      <trkpt lat="46.18281" lon="4.58476">
        <ele>871.4</ele>
        <time>2025-09-07T09:05:06Z</time>
      </trkpt>
      <trkpt lat="46.1828" lon="4.58477">
        <ele>872</ele>
        <time>2025-09-07T09:05:07Z</time>
      </trkpt>
      <trkpt lat="46.1828" lon="4.58478">
        <ele>872</ele>
        <time>2025-09-07T09:05:08Z</time>
      </trkpt>
      <trkpt lat="46.18279" lon="4.58479">
        <ele>872.2</ele>
        <time>2025-09-07T09:05:09Z</time>
      </trkpt>
      <trkpt lat="46.18278" lon="4.5848">
        <ele>872</ele>
        <time>2025-09-07T09:05:10Z</time>
      </trkpt>
      <trkpt lat="46.18277" lon="4.58481">
        <ele>872</ele>
        <time>2025-09-07T09:05:11Z</time>
      </trkpt>
      <trkpt lat="46.18276" lon="4.58481">
        <ele>872</ele>
        <time>2025-09-07T09:05:12Z</time>
      </trkpt>
      <trkpt lat="46.18275" lon="4.58482">
        <ele>872</ele>
        <time>2025-09-07T09:05:13Z</time>
      </trkpt>
      <trkpt lat="46.18274" lon="4.58483">
        <ele>872</ele>
        <time>2025-09-07T09:05:14Z</time>
      </trkpt>
      <trkpt lat="46.18273" lon="4.58483">
        <ele>872</ele>
        <time>2025-09-07T09:05:15Z</time>
      </trkpt>
      <trkpt lat="46.18272" lon="4.58484">
        <ele>872</ele>
        <time>2025-09-07T09:05:16Z</time>
      </trkpt>
      <trkpt lat="46.18272" lon="4.58485">
        <ele>872</ele>
        <time>2025-09-07T09:05:17Z</time>
      </trkpt>
      <trkpt lat="46.18271" lon="4.58486">
        <ele>872</ele>
        <time>2025-09-07T09:05:18Z</time>
      </trkpt>
      <trkpt lat="46.1827" lon="4.58487">
        <ele>872</ele>
        <time>2025-09-07T09:05:19Z</time>
      </trkpt>
      <trkpt lat="46.18269" lon="4.58488">
        <ele>872.2</ele>
        <time>2025-09-07T09:05:20Z</time>
      </trkpt>
      <trkpt lat="46.18269" lon="4.58488">
        <ele>872</ele>
        <time>2025-09-07T09:05:21Z</time>
      </trkpt>
      <trkpt lat="46.18268" lon="4.58489">
        <ele>872</ele>
        <time>2025-09-07T09:05:22Z</time>
      </trkpt>
      <trkpt lat="46.18267" lon="4.5849">
        <ele>872</ele>
        <time>2025-09-07T09:05:23Z</time>
      </trkpt>
      <trkpt lat="46.18266" lon="4.58491">
        <ele>872</ele>
        <time>2025-09-07T09:05:24Z</time>
      </trkpt>
      <trkpt lat="46.18265" lon="4.58493">
        <ele>872.4</ele>
        <time>2025-09-07T09:05:25Z</time>
      </trkpt>
      <trkpt lat="46.18264" lon="4.58494">
        <ele>872.4</ele>
        <time>2025-09-07T09:05:26Z</time>
      </trkpt>
      <trkpt lat="46.18264" lon="4.58495">
        <ele>872.6</ele>
        <time>2025-09-07T09:05:27Z</time>
      </trkpt>
      <trkpt lat="46.18264" lon="4.58497">
        <ele>873</ele>
        <time>2025-09-07T09:05:28Z</time>
      </trkpt>
      <trkpt lat="46.18263" lon="4.58498">
        <ele>873</ele>
        <time>2025-09-07T09:05:29Z</time>
      </trkpt>
      <trkpt lat="46.18262" lon="4.58499">
        <ele>873</ele>
        <time>2025-09-07T09:05:30Z</time>
      </trkpt>
      <trkpt lat="46.18262" lon="4.58501">
        <ele>873</ele>
        <time>2025-09-07T09:05:31Z</time>
      </trkpt>
      <trkpt lat="46.18262" lon="4.58503">
        <ele>873.8</ele>
        <time>2025-09-07T09:05:32Z</time>
      </trkpt>
      <trkpt lat="46.18262" lon="4.58504">
        <ele>874</ele>
        <time>2025-09-07T09:05:33Z</time>
      </trkpt>
      <trkpt lat="46.18261" lon="4.58505">
        <ele>874</ele>
        <time>2025-09-07T09:05:34Z</time>
      </trkpt>
      <trkpt lat="46.18261" lon="4.58507">
        <ele>874</ele>
        <time>2025-09-07T09:05:35Z</time>
      </trkpt>
      <trkpt lat="46.1826" lon="4.58509">
        <ele>874.6</ele>
        <time>2025-09-07T09:05:36Z</time>
      </trkpt>
      <trkpt lat="46.1826" lon="4.5851">
        <ele>874.6</ele>
        <time>2025-09-07T09:05:37Z</time>
      </trkpt>
      <trkpt lat="46.1826" lon="4.58511">
        <ele>874.8</ele>
        <time>2025-09-07T09:05:38Z</time>
      </trkpt>
      <trkpt lat="46.1826" lon="4.58512">
        <ele>875</ele>
        <time>2025-09-07T09:05:39Z</time>
      </trkpt>
      <trkpt lat="46.1826" lon="4.58512">
        <ele>875</ele>
        <time>2025-09-07T09:05:40Z</time>
      </trkpt>
      <trkpt lat="46.1826" lon="4.58513">
        <ele>875</ele>
        <time>2025-09-07T09:05:41Z</time>
      </trkpt>
      <trkpt lat="46.18259" lon="4.58514">
        <ele>875.2</ele>
        <time>2025-09-07T09:05:42Z</time>
      </trkpt>
      <trkpt lat="46.18259" lon="4.58516">
        <ele>875.2</ele>
        <time>2025-09-07T09:05:43Z</time>
      </trkpt>
      <trkpt lat="46.18258" lon="4.58516">
        <ele>875.6</ele>
        <time>2025-09-07T09:05:44Z</time>
      </trkpt>
      <trkpt lat="46.18258" lon="4.58517">
        <ele>876.4</ele>
        <time>2025-09-07T09:05:45Z</time>
      </trkpt>
      <trkpt lat="46.18257" lon="4.58517">
        <ele>876.6</ele>
        <time>2025-09-07T09:05:46Z</time>
      </trkpt>
      <trkpt lat="46.18256" lon="4.58518">
        <ele>876.6</ele>
        <time>2025-09-07T09:05:47Z</time>
      </trkpt>
      <trkpt lat="46.18256" lon="4.58518">
        <ele>876.4</ele>
        <time>2025-09-07T09:05:48Z</time>
      </trkpt>
      <trkpt lat="46.18256" lon="4.58519">
        <ele>876.4</ele>
        <time>2025-09-07T09:05:49Z</time>
      </trkpt>
      <trkpt lat="46.18255" lon="4.58521">
        <ele>876.4</ele>
        <time>2025-09-07T09:05:50Z</time>
      </trkpt>
      <trkpt lat="46.18255" lon="4.58523">
        <ele>876.4</ele>
        <time>2025-09-07T09:05:51Z</time>
      </trkpt>
      <trkpt lat="46.18254" lon="4.58525">
        <ele>876.6</ele>
        <time>2025-09-07T09:05:52Z</time>
      </trkpt>
      <trkpt lat="46.18254" lon="4.58526">
        <ele>876.6</ele>
        <time>2025-09-07T09:05:53Z</time>
      </trkpt>
      <trkpt lat="46.18255" lon="4.58528">
        <ele>876.4</ele>
        <time>2025-09-07T09:05:54Z</time>
      </trkpt>
      <trkpt lat="46.18255" lon="4.58528">
        <ele>876.4</ele>
        <time>2025-09-07T09:05:55Z</time>
      </trkpt>
      <trkpt lat="46.18256" lon="4.58528">
        <ele>876.4</ele>
        <time>2025-09-07T09:05:56Z</time>
      </trkpt>
      <trkpt lat="46.18256" lon="4.58529">
        <ele>876.4</ele>
        <time>2025-09-07T09:05:57Z</time>
      </trkpt>
      <trkpt lat="46.18256" lon="4.5853">
        <ele>876.6</ele>
        <time>2025-09-07T09:05:58Z</time>
      </trkpt>
      <trkpt lat="46.18255" lon="4.5853">
        <ele>876.6</ele>
        <time>2025-09-07T09:05:59Z</time>
      </trkpt>
      <trkpt lat="46.18254" lon="4.5853">
        <ele>876.4</ele>
        <time>2025-09-07T09:06:00Z</time>
      </trkpt>
      <trkpt lat="46.18253" lon="4.58531">
        <ele>876.4</ele>
        <time>2025-09-07T09:06:01Z</time>
      </trkpt>
      <trkpt lat="46.18252" lon="4.58531">
        <ele>876.4</ele>
        <time>2025-09-07T09:06:02Z</time>
      </trkpt>
      <trkpt lat="46.18251" lon="4.58531">
        <ele>876.4</ele>
        <time>2025-09-07T09:06:03Z</time>
      </trkpt>
      <trkpt lat="46.18251" lon="4.58531">
        <ele>876.2</ele>
        <time>2025-09-07T09:06:04Z</time>
      </trkpt>
      <trkpt lat="46.1825" lon="4.58532">
        <ele>876.2</ele>
        <time>2025-09-07T09:06:05Z</time>
      </trkpt>
      <trkpt lat="46.18249" lon="4.58533">
        <ele>876.2</ele>
        <time>2025-09-07T09:06:06Z</time>
      </trkpt>
      <trkpt lat="46.18249" lon="4.58533">
        <ele>876.2</ele>
        <time>2025-09-07T09:06:07Z</time>
      </trkpt>
      <trkpt lat="46.18245" lon="4.58535">
        <ele>875.6</ele>
        <time>2025-09-07T09:06:24Z</time>
      </trkpt>
      <trkpt lat="46.18244" lon="4.58536">
        <ele>875.6</ele>
        <time>2025-09-07T09:06:25Z</time>
      </trkpt>
      <trkpt lat="46.18243" lon="4.58537">
        <ele>875.6</ele>
        <time>2025-09-07T09:06:26Z</time>
      </trkpt>
      <trkpt lat="46.18242" lon="4.58537">
        <ele>875.6</ele>
        <time>2025-09-07T09:06:27Z</time>
      </trkpt>
      <trkpt lat="46.1824" lon="4.58538">
        <ele>875.6</ele>
        <time>2025-09-07T09:06:28Z</time>
      </trkpt>
      <trkpt lat="46.18237" lon="4.5854">
        <ele>875.6</ele>
        <time>2025-09-07T09:06:29Z</time>
      </trkpt>
      <trkpt lat="46.18235" lon="4.58542">
        <ele>875.6</ele>
        <time>2025-09-07T09:06:30Z</time>
      </trkpt>
      <trkpt lat="46.18233" lon="4.58543">
        <ele>876</ele>
        <time>2025-09-07T09:06:31Z</time>
      </trkpt>
      <trkpt lat="46.18232" lon="4.58544">
        <ele>876</ele>
        <time>2025-09-07T09:06:32Z</time>
      </trkpt>
      <trkpt lat="46.18231" lon="4.58545">
        <ele>875.8</ele>
        <time>2025-09-07T09:06:33Z</time>
      </trkpt>
      <trkpt lat="46.18229" lon="4.58546">
        <ele>875.6</ele>
        <time>2025-09-07T09:06:34Z</time>
      </trkpt>
      <trkpt lat="46.18229" lon="4.58547">
        <ele>875.6</ele>
        <time>2025-09-07T09:06:35Z</time>
      </trkpt>
      <trkpt lat="46.18228" lon="4.58549">
        <ele>875.2</ele>
        <time>2025-09-07T09:06:36Z</time>
      </trkpt>
      <trkpt lat="46.18227" lon="4.5855">
        <ele>875</ele>
        <time>2025-09-07T09:06:37Z</time>
      </trkpt>
      <trkpt lat="46.18226" lon="4.58552">
        <ele>875</ele>
        <time>2025-09-07T09:06:38Z</time>
      </trkpt>
      <trkpt lat="46.18224" lon="4.58553">
        <ele>875</ele>
        <time>2025-09-07T09:06:39Z</time>
      </trkpt>
      <trkpt lat="46.18223" lon="4.58554">
        <ele>875</ele>
        <time>2025-09-07T09:06:40Z</time>
      </trkpt>
      <trkpt lat="46.18222" lon="4.58556">
        <ele>875</ele>
        <time>2025-09-07T09:06:41Z</time>
      </trkpt>
      <trkpt lat="46.18221" lon="4.58557">
        <ele>875</ele>
        <time>2025-09-07T09:06:42Z</time>
      </trkpt>
      <trkpt lat="46.1822" lon="4.58558">
        <ele>875</ele>
        <time>2025-09-07T09:06:43Z</time>
      </trkpt>
      <trkpt lat="46.1822" lon="4.58559">
        <ele>874.6</ele>
        <time>2025-09-07T09:06:44Z</time>
      </trkpt>
      <trkpt lat="46.1822" lon="4.58562">
        <ele>874.6</ele>
        <time>2025-09-07T09:06:45Z</time>
      </trkpt>
      <trkpt lat="46.18218" lon="4.58564">
        <ele>874.6</ele>
        <time>2025-09-07T09:06:46Z</time>
      </trkpt>
      <trkpt lat="46.18217" lon="4.58564">
        <ele>874.6</ele>
        <time>2025-09-07T09:06:47Z</time>
      </trkpt>
      <trkpt lat="46.18215" lon="4.58565">
        <ele>874.2</ele>
        <time>2025-09-07T09:06:48Z</time>
      </trkpt>
      <trkpt lat="46.18213" lon="4.58565">
        <ele>874.2</ele>
        <time>2025-09-07T09:06:49Z</time>
      </trkpt>
      <trkpt lat="46.18211" lon="4.58564">
        <ele>874.2</ele>
        <time>2025-09-07T09:06:50Z</time>
      </trkpt>
      <trkpt lat="46.18209" lon="4.58563">
        <ele>873.8</ele>
        <time>2025-09-07T09:06:51Z</time>
      </trkpt>
      <trkpt lat="46.18207" lon="4.58562">
        <ele>873.8</ele>
        <time>2025-09-07T09:06:52Z</time>
      </trkpt>
      <trkpt lat="46.18205" lon="4.58562">
        <ele>873.8</ele>
        <time>2025-09-07T09:06:53Z</time>
      </trkpt>
      <trkpt lat="46.18204" lon="4.58562">
        <ele>873.8</ele>
        <time>2025-09-07T09:06:54Z</time>
      </trkpt>
      <trkpt lat="46.18202" lon="4.58562">
        <ele>873.8</ele>
        <time>2025-09-07T09:06:55Z</time>
      </trkpt>
      <trkpt lat="46.182" lon="4.58561">
        <ele>873.8</ele>
        <time>2025-09-07T09:06:56Z</time>
      </trkpt>
      <trkpt lat="46.18199" lon="4.58561">
        <ele>873.6</ele>
        <time>2025-09-07T09:06:57Z</time>
      </trkpt>
      <trkpt lat="46.18198" lon="4.5856">
        <ele>873.2</ele>
        <time>2025-09-07T09:06:58Z</time>
      </trkpt>
      <trkpt lat="46.18197" lon="4.58559">
        <ele>873.2</ele>
        <time>2025-09-07T09:06:59Z</time>
      </trkpt>
      <trkpt lat="46.18198" lon="4.58559">
        <ele>873</ele>
        <time>2025-09-07T09:07:00Z</time>
      </trkpt>
      <trkpt lat="46.18197" lon="4.58557">
        <ele>872.8</ele>
        <time>2025-09-07T09:07:07Z</time>
      </trkpt>
      <trkpt lat="46.18198" lon="4.58556">
        <ele>873</ele>
        <time>2025-09-07T09:07:08Z</time>
      </trkpt>
      <trkpt lat="46.18198" lon="4.58554">
        <ele>872.8</ele>
        <time>2025-09-07T09:07:09Z</time>
      </trkpt>
      <trkpt lat="46.18198" lon="4.58553">
        <ele>872.8</ele>
        <time>2025-09-07T09:07:10Z</time>
      </trkpt>
      <trkpt lat="46.18199" lon="4.58552">
        <ele>872.8</ele>
        <time>2025-09-07T09:07:11Z</time>
      </trkpt>
      <trkpt lat="46.18199" lon="4.58552">
        <ele>872.8</ele>
        <time>2025-09-07T09:07:12Z</time>
      </trkpt>
      <trkpt lat="46.18199" lon="4.58551">
        <ele>872.8</ele>
        <time>2025-09-07T09:07:13Z</time>
      </trkpt>
      <trkpt lat="46.18198" lon="4.5855">
        <ele>872.8</ele>
        <time>2025-09-07T09:07:14Z</time>
      </trkpt>
      <trkpt lat="46.18198" lon="4.5855">
        <ele>872.8</ele>
        <time>2025-09-07T09:07:15Z</time>
      </trkpt>
      <trkpt lat="46.18137" lon="4.59281">
        <ele>825</ele>
        <time>2025-09-07T09:35:27Z</time>
      </trkpt>
      <trkpt lat="46.18137" lon="4.59283">
        <ele>825.4</ele>
        <time>2025-09-07T09:35:42Z</time>
      </trkpt>
      <trkpt lat="46.18138" lon="4.59285">
        <ele>825.4</ele>
        <time>2025-09-07T09:35:43Z</time>
      </trkpt>
      <trkpt lat="46.18138" lon="4.59289">
        <ele>825</ele>
        <time>2025-09-07T09:35:44Z</time>
      </trkpt>
      <trkpt lat="46.18137" lon="4.59293">
        <ele>824.8</ele>
        <time>2025-09-07T09:35:45Z</time>
      </trkpt>
      <trkpt lat="46.18137" lon="4.59297">
        <ele>824.8</ele>
        <time>2025-09-07T09:35:46Z</time>
      </trkpt>
      <trkpt lat="46.18137" lon="4.59301">
        <ele>824.4</ele>
        <time>2025-09-07T09:35:47Z</time>
      </trkpt>
      <trkpt lat="46.18137" lon="4.59305">
        <ele>824.4</ele>
        <time>2025-09-07T09:35:48Z</time>
      </trkpt>
      <trkpt lat="46.18138" lon="4.5931">
        <ele>824</ele>
        <time>2025-09-07T09:35:49Z</time>
      </trkpt>
      <trkpt lat="46.18139" lon="4.59316">
        <ele>824</ele>
        <time>2025-09-07T09:35:50Z</time>
      </trkpt>
      <trkpt lat="46.1814" lon="4.5932">
        <ele>824</ele>
        <time>2025-09-07T09:35:51Z</time>
      </trkpt>
      <trkpt lat="46.18142" lon="4.59326">
        <ele>823.8</ele>
        <time>2025-09-07T09:35:52Z</time>
      </trkpt>
      <trkpt lat="46.18143" lon="4.5933">
        <ele>823.8</ele>
        <time>2025-09-07T09:35:53Z</time>
      </trkpt>
      <trkpt lat="46.18145" lon="4.59335">
        <ele>822.8</ele>
        <time>2025-09-07T09:35:54Z</time>
      </trkpt>
      <trkpt lat="46.18146" lon="4.59339">
        <ele>822.8</ele>
        <time>2025-09-07T09:35:55Z</time>
      </trkpt>
      <trkpt lat="46.18147" lon="4.59343">
        <ele>822.8</ele>
        <time>2025-09-07T09:35:56Z</time>
      </trkpt>
      <trkpt lat="46.18149" lon="4.59348">
        <ele>823.4</ele>
        <time>2025-09-07T09:35:57Z</time>
      </trkpt>
      <trkpt lat="46.18151" lon="4.59353">
        <ele>823.4</ele>
        <time>2025-09-07T09:35:58Z</time>
      </trkpt>
      <trkpt lat="46.18153" lon="4.59357">
        <ele>823.4</ele>
        <time>2025-09-07T09:35:59Z</time>
      </trkpt>
      <trkpt lat="46.18155" lon="4.59361">
        <ele>823.4</ele>
        <time>2025-09-07T09:36:00Z</time>
      </trkpt>
      <trkpt lat="46.18157" lon="4.59366">
        <ele>823.4</ele>
        <time>2025-09-07T09:36:01Z</time>
      </trkpt>
      <trkpt lat="46.18158" lon="4.59371">
        <ele>823.4</ele>
        <time>2025-09-07T09:36:02Z</time>
      </trkpt>
      <trkpt lat="46.18162" lon="4.59379">
        <ele>823.4</ele>
        <time>2025-09-07T09:36:03Z</time>
      </trkpt>
      <trkpt lat="46.18164" lon="4.59384">
        <ele>823.4</ele>
        <time>2025-09-07T09:36:04Z</time>
      </trkpt>
      <trkpt lat="46.18166" lon="4.59389">
        <ele>823.4</ele>
        <time>2025-09-07T09:36:05Z</time>
      </trkpt>
      <trkpt lat="46.18168" lon="4.59392">
        <ele>823.4</ele>
        <time>2025-09-07T09:36:06Z</time>
      </trkpt>
      <trkpt lat="46.1817" lon="4.59397">
        <ele>823.4</ele>
        <time>2025-09-07T09:36:07Z</time>
      </trkpt>
      <trkpt lat="46.1817" lon="4.594">
        <ele>823.8</ele>
        <time>2025-09-07T09:36:08Z</time>
      </trkpt>
      <trkpt lat="46.1817" lon="4.59403">
        <ele>823.8</ele>
        <time>2025-09-07T09:36:09Z</time>
      </trkpt>
      <trkpt lat="46.18169" lon="4.59405">
        <ele>824.4</ele>
        <time>2025-09-07T09:36:10Z</time>
      </trkpt>
      <trkpt lat="46.18169" lon="4.5941">
        <ele>824.4</ele>
        <time>2025-09-07T09:36:11Z</time>
      </trkpt>
      <trkpt lat="46.18169" lon="4.59412">
        <ele>824.4</ele>
        <time>2025-09-07T09:36:12Z</time>
      </trkpt>
      <trkpt lat="46.18167" lon="4.59413">
        <ele>824.4</ele>
        <time>2025-09-07T09:36:13Z</time>
      </trkpt>
      <trkpt lat="46.18166" lon="4.59416">
        <ele>824.4</ele>
        <time>2025-09-07T09:36:14Z</time>
      </trkpt>
      <trkpt lat="46.18165" lon="4.5942">
        <ele>824.6</ele>
        <time>2025-09-07T09:36:15Z</time>
      </trkpt>
      <trkpt lat="46.18165" lon="4.59424">
        <ele>825</ele>
        <time>2025-09-07T09:36:16Z</time>
      </trkpt>
      <trkpt lat="46.18165" lon="4.59428">
        <ele>825</ele>
        <time>2025-09-07T09:36:17Z</time>
      </trkpt>
      <trkpt lat="46.18165" lon="4.59432">
        <ele>825</ele>
        <time>2025-09-07T09:36:18Z</time>
      </trkpt>
      <trkpt lat="46.18167" lon="4.59435">
        <ele>825</ele>
        <time>2025-09-07T09:36:19Z</time>
      </trkpt>
      <trkpt lat="46.18168" lon="4.59439">
        <ele>825.4</ele>
        <time>2025-09-07T09:36:20Z</time>
      </trkpt>
      <trkpt lat="46.1817" lon="4.59442">
        <ele>824.8</ele>
        <time>2025-09-07T09:36:21Z</time>
      </trkpt>
      <trkpt lat="46.18171" lon="4.59446">
        <ele>825.2</ele>
        <time>2025-09-07T09:36:22Z</time>
      </trkpt>
      <trkpt lat="46.18171" lon="4.59449">
        <ele>826.2</ele>
        <time>2025-09-07T09:36:23Z</time>
      </trkpt>
      <trkpt lat="46.18171" lon="4.59451">
        <ele>826.2</ele>
        <time>2025-09-07T09:36:24Z</time>
      </trkpt>
      <trkpt lat="46.18172" lon="4.59453">
        <ele>826.2</ele>
        <time>2025-09-07T09:36:25Z</time>
      </trkpt>
      <trkpt lat="46.18174" lon="4.59455">
        <ele>826.2</ele>
        <time>2025-09-07T09:36:26Z</time>
      </trkpt>
      <trkpt lat="46.18175" lon="4.59458">
        <ele>826.6</ele>
        <time>2025-09-07T09:36:27Z</time>
      </trkpt>
      <trkpt lat="46.18177" lon="4.5946">
        <ele>826.8</ele>
        <time>2025-09-07T09:36:28Z</time>
      </trkpt>
      <trkpt lat="46.18178" lon="4.59462">
        <ele>826.8</ele>
        <time>2025-09-07T09:36:29Z</time>
      </trkpt>
      <trkpt lat="46.18179" lon="4.59465">
        <ele>827.4</ele>
        <time>2025-09-07T09:36:30Z</time>
      </trkpt>
      <trkpt lat="46.18179" lon="4.59467">
        <ele>827.4</ele>
        <time>2025-09-07T09:36:31Z</time>
      </trkpt>
      <trkpt lat="46.1818" lon="4.59469">
        <ele>827.6</ele>
        <time>2025-09-07T09:36:32Z</time>
      </trkpt>
      <trkpt lat="46.1818" lon="4.59472">
        <ele>827.6</ele>
        <time>2025-09-07T09:36:33Z</time>
      </trkpt>
      <trkpt lat="46.1818" lon="4.59474">
        <ele>827.6</ele>
        <time>2025-09-07T09:36:34Z</time>
      </trkpt>
      <trkpt lat="46.1818" lon="4.59475">
        <ele>827.6</ele>
        <time>2025-09-07T09:36:35Z</time>
      </trkpt>
      <trkpt lat="46.1818" lon="4.59477">
        <ele>827.6</ele>
        <time>2025-09-07T09:36:36Z</time>
      </trkpt>
      <trkpt lat="46.18181" lon="4.59479">
        <ele>827.6</ele>
        <time>2025-09-07T09:36:37Z</time>
      </trkpt>
      <trkpt lat="46.18181" lon="4.59479">
        <ele>827</ele>
        <time>2025-09-07T09:36:38Z</time>
      </trkpt>
      <trkpt lat="46.18181" lon="4.59479">
        <ele>827</ele>
        <time>2025-09-07T09:36:39Z</time>
      </trkpt>
      <trkpt lat="46.18181" lon="4.5948">
        <ele>827.4</ele>
        <time>2025-09-07T09:36:54Z</time>
      </trkpt>
      <trkpt lat="46.1818" lon="4.59483">
        <ele>827.4</ele>
        <time>2025-09-07T09:36:55Z</time>
      </trkpt>
      <trkpt lat="46.18179" lon="4.59486">
        <ele>827.4</ele>
        <time>2025-09-07T09:36:56Z</time>
      </trkpt>
      <trkpt lat="46.18178" lon="4.59488">
        <ele>827.4</ele>
        <time>2025-09-07T09:36:57Z</time>
      </trkpt>
      <trkpt lat="46.18178" lon="4.5949">
        <ele>827.8</ele>
        <time>2025-09-07T09:36:58Z</time>
      </trkpt>
      <trkpt lat="46.18177" lon="4.59491">
        <ele>827.6</ele>
        <time>2025-09-07T09:36:59Z</time>
      </trkpt>
      <trkpt lat="46.18177" lon="4.59492">
        <ele>827.6</ele>
        <time>2025-09-07T09:37:00Z</time>
      </trkpt>
      <trkpt lat="46.18176" lon="4.59494">
        <ele>827</ele>
        <time>2025-09-07T09:37:01Z</time>
      </trkpt>
      <trkpt lat="46.18177" lon="4.59497">
        <ele>827</ele>
        <time>2025-09-07T09:37:02Z</time>
      </trkpt>
      <trkpt lat="46.18177" lon="4.59501">
        <ele>827</ele>
        <time>2025-09-07T09:37:03Z</time>
      </trkpt>
      <trkpt lat="46.18177" lon="4.59504">
        <ele>826.8</ele>
        <time>2025-09-07T09:37:04Z</time>
      </trkpt>
      <trkpt lat="46.18177" lon="4.59507">
        <ele>827.2</ele>
        <time>2025-09-07T09:37:05Z</time>
      </trkpt>
      <trkpt lat="46.18177" lon="4.59509">
        <ele>828</ele>
        <time>2025-09-07T09:37:06Z</time>
      </trkpt>
      <trkpt lat="46.18178" lon="4.59513">
        <ele>827.4</ele>
        <time>2025-09-07T09:37:07Z</time>
      </trkpt>
      <trkpt lat="46.18178" lon="4.59516">
        <ele>827</ele>
        <time>2025-09-07T09:37:08Z</time>
      </trkpt>
      <trkpt lat="46.18179" lon="4.59519">
        <ele>826.6</ele>
        <time>2025-09-07T09:37:09Z</time>
      </trkpt>
      <trkpt lat="46.1818" lon="4.59522">
        <ele>826.6</ele>
        <time>2025-09-07T09:37:10Z</time>
      </trkpt>
      <trkpt lat="46.18179" lon="4.59526">
        <ele>826.6</ele>
        <time>2025-09-07T09:37:11Z</time>
      </trkpt>
      <trkpt lat="46.18179" lon="4.59529">
        <ele>826</ele>
        <time>2025-09-07T09:37:12Z</time>
      </trkpt>
      <trkpt lat="46.18179" lon="4.59532">
        <ele>826</ele>
        <time>2025-09-07T09:37:13Z</time>
      </trkpt>
      <trkpt lat="46.1818" lon="4.59535">
        <ele>826</ele>
        <time>2025-09-07T09:37:14Z</time>
      </trkpt>
      <trkpt lat="46.1818" lon="4.59538">
        <ele>826</ele>
        <time>2025-09-07T09:37:15Z</time>
      </trkpt>
      <trkpt lat="46.18181" lon="4.59541">
        <ele>826</ele>
        <time>2025-09-07T09:37:16Z</time>
      </trkpt>
      <trkpt lat="46.18181" lon="4.59543">
        <ele>826</ele>
        <time>2025-09-07T09:37:17Z</time>
      </trkpt>
      <trkpt lat="46.18181" lon="4.59547">
        <ele>826</ele>
        <time>2025-09-07T09:37:18Z</time>
      </trkpt>
      <trkpt lat="46.18181" lon="4.59551">
        <ele>826</ele>
        <time>2025-09-07T09:37:19Z</time>
      </trkpt>
      <trkpt lat="46.1818" lon="4.59554">
        <ele>826</ele>
        <time>2025-09-07T09:37:20Z</time>
      </trkpt>
      <trkpt lat="46.1818" lon="4.59557">
        <ele>826.4</ele>
        <time>2025-09-07T09:37:21Z</time>
      </trkpt>
      <trkpt lat="46.1818" lon="4.5956">
        <ele>826</ele>
        <time>2025-09-07T09:37:22Z</time>
      </trkpt>
      <trkpt lat="46.1818" lon="4.59564">
        <ele>826</ele>
        <time>2025-09-07T09:37:23Z</time>
      </trkpt>
      <trkpt lat="46.1818" lon="4.59568">
        <ele>826</ele>
        <time>2025-09-07T09:37:24Z</time>
      </trkpt>
      <trkpt lat="46.1818" lon="4.59572">
        <ele>826.2</ele>
        <time>2025-09-07T09:37:25Z</time>
      </trkpt>
      <trkpt lat="46.1818" lon="4.59575">
        <ele>825.6</ele>
        <time>2025-09-07T09:37:26Z</time>
      </trkpt>
      <trkpt lat="46.1818" lon="4.59578">
        <ele>825.2</ele>
        <time>2025-09-07T09:37:27Z</time>
      </trkpt>
      <trkpt lat="46.1818" lon="4.59581">
        <ele>825.2</ele>
        <time>2025-09-07T09:37:28Z</time>
      </trkpt>
      <trkpt lat="46.1818" lon="4.59583">
        <ele>825.2</ele>
        <time>2025-09-07T09:37:29Z</time>
      </trkpt>
      <trkpt lat="46.1818" lon="4.59586">
        <ele>824.4</ele>
        <time>2025-09-07T09:37:30Z</time>
      </trkpt>
      <trkpt lat="46.1818" lon="4.59586">
        <ele>824.4</ele>
        <time>2025-09-07T09:37:31Z</time>
      </trkpt>
      <trkpt lat="46.1818" lon="4.59586">
        <ele>824.4</ele>
        <time>2025-09-07T09:37:32Z</time>
      </trkpt>
      <trkpt lat="46.18178" lon="4.59589">
        <ele>824.4</ele>
        <time>2025-09-07T09:37:34Z</time>
      </trkpt>
      <trkpt lat="46.18178" lon="4.5959">
        <ele>824.4</ele>
        <time>2025-09-07T09:37:35Z</time>
      </trkpt>
      <trkpt lat="46.18179" lon="4.59592">
        <ele>824</ele>
        <time>2025-09-07T09:37:36Z</time>
      </trkpt>
      <trkpt lat="46.18179" lon="4.59594">
        <ele>824</ele>
        <time>2025-09-07T09:37:37Z</time>
      </trkpt>
      <trkpt lat="46.1818" lon="4.59596">
        <ele>823.8</ele>
        <time>2025-09-07T09:37:38Z</time>
      </trkpt>
      <trkpt lat="46.18181" lon="4.59599">
        <ele>823.2</ele>
        <time>2025-09-07T09:37:39Z</time>
      </trkpt>
      <trkpt lat="46.18182" lon="4.59602">
        <ele>823.6</ele>
        <time>2025-09-07T09:37:40Z</time>
      </trkpt>
      <trkpt lat="46.18183" lon="4.59606">
        <ele>823.4</ele>
        <time>2025-09-07T09:37:41Z</time>
      </trkpt>
      <trkpt lat="46.18183" lon="4.59609">
        <ele>823.4</ele>
        <time>2025-09-07T09:37:42Z</time>
      </trkpt>
      <trkpt lat="46.18184" lon="4.59611">
        <ele>823.4</ele>
        <time>2025-09-07T09:37:43Z</time>
      </trkpt>
      <trkpt lat="46.18184" lon="4.59615">
        <ele>822.8</ele>
        <time>2025-09-07T09:37:44Z</time>
      </trkpt>
      <trkpt lat="46.18185" lon="4.59618">
        <ele>822.6</ele>
        <time>2025-09-07T09:37:45Z</time>
      </trkpt>
      <trkpt lat="46.18186" lon="4.59623">
        <ele>822.6</ele>
        <time>2025-09-07T09:37:46Z</time>
      </trkpt>
      <trkpt lat="46.18187" lon="4.59627">
        <ele>822.6</ele>
        <time>2025-09-07T09:37:47Z</time>
      </trkpt>
      <trkpt lat="46.18188" lon="4.5963">
        <ele>822.6</ele>
        <time>2025-09-07T09:37:48Z</time>
      </trkpt>
      <trkpt lat="46.18189" lon="4.59634">
        <ele>822.6</ele>
        <time>2025-09-07T09:37:49Z</time>
      </trkpt>
      <trkpt lat="46.1819" lon="4.59636">
        <ele>822</ele>
        <time>2025-09-07T09:37:50Z</time>
      </trkpt>
      <trkpt lat="46.18191" lon="4.59639">
        <ele>822.4</ele>
        <time>2025-09-07T09:37:51Z</time>
      </trkpt>
      <trkpt lat="46.18193" lon="4.59642">
        <ele>822.6</ele>
        <time>2025-09-07T09:37:52Z</time>
      </trkpt>
      <trkpt lat="46.18194" lon="4.59646">
        <ele>822.6</ele>
        <time>2025-09-07T09:37:53Z</time>
      </trkpt>
      <trkpt lat="46.18195" lon="4.59649">
        <ele>822.6</ele>
        <time>2025-09-07T09:37:54Z</time>
      </trkpt>
      <trkpt lat="46.18195" lon="4.59653">
        <ele>822.6</ele>
        <time>2025-09-07T09:37:55Z</time>
      </trkpt>
      <trkpt lat="46.18195" lon="4.59657">
        <ele>822.6</ele>
        <time>2025-09-07T09:37:56Z</time>
      </trkpt>
      <trkpt lat="46.18196" lon="4.59661">
        <ele>822.8</ele>
        <time>2025-09-07T09:37:57Z</time>
      </trkpt>
      <trkpt lat="46.18196" lon="4.59664">
        <ele>822.8</ele>
        <time>2025-09-07T09:37:58Z</time>
      </trkpt>
      <trkpt lat="46.18196" lon="4.59667">
        <ele>823.2</ele>
        <time>2025-09-07T09:37:59Z</time>
      </trkpt>
      <trkpt lat="46.18196" lon="4.59669">
        <ele>823.6</ele>
        <time>2025-09-07T09:38:00Z</time>
      </trkpt>
      <trkpt lat="46.18197" lon="4.59673">
        <ele>823.6</ele>
        <time>2025-09-07T09:38:01Z</time>
      </trkpt>
      <trkpt lat="46.18198" lon="4.59675">
        <ele>824.4</ele>
        <time>2025-09-07T09:38:02Z</time>
      </trkpt>
      <trkpt lat="46.18198" lon="4.59677">
        <ele>824.4</ele>
        <time>2025-09-07T09:38:03Z</time>
      </trkpt>
      <trkpt lat="46.18199" lon="4.59679">
        <ele>824</ele>
        <time>2025-09-07T09:38:04Z</time>
      </trkpt>
      <trkpt lat="46.182" lon="4.59682">
        <ele>824</ele>
        <time>2025-09-07T09:38:05Z</time>
      </trkpt>
      <trkpt lat="46.18202" lon="4.59684">
        <ele>824</ele>
        <time>2025-09-07T09:38:06Z</time>
      </trkpt>
      <trkpt lat="46.18204" lon="4.59685">
        <ele>824.4</ele>
        <time>2025-09-07T09:38:07Z</time>
      </trkpt>
      <trkpt lat="46.18205" lon="4.59686">
        <ele>824.4</ele>
        <time>2025-09-07T09:38:08Z</time>
      </trkpt>
      <trkpt lat="46.18206" lon="4.59688">
        <ele>824.8</ele>
        <time>2025-09-07T09:38:09Z</time>
      </trkpt>
      <trkpt lat="46.18207" lon="4.59691">
        <ele>824.8</ele>
        <time>2025-09-07T09:38:10Z</time>
      </trkpt>
      <trkpt lat="46.18208" lon="4.59694">
        <ele>825.2</ele>
        <time>2025-09-07T09:38:11Z</time>
      </trkpt>
      <trkpt lat="46.1821" lon="4.59696">
        <ele>825.2</ele>
        <time>2025-09-07T09:38:12Z</time>
      </trkpt>
      <trkpt lat="46.18211" lon="4.59698">
        <ele>825.2</ele>
        <time>2025-09-07T09:38:13Z</time>
      </trkpt>
      <trkpt lat="46.18213" lon="4.59701">
        <ele>825.4</ele>
        <time>2025-09-07T09:38:14Z</time>
      </trkpt>
      <trkpt lat="46.18213" lon="4.59704">
        <ele>825.4</ele>
        <time>2025-09-07T09:38:15Z</time>
      </trkpt>
      <trkpt lat="46.18214" lon="4.59706">
        <ele>825.6</ele>
        <time>2025-09-07T09:38:16Z</time>
      </trkpt>
      <trkpt lat="46.18215" lon="4.59708">
        <ele>825.6</ele>
        <time>2025-09-07T09:38:17Z</time>
      </trkpt>
      <trkpt lat="46.18216" lon="4.59716">
        <ele>826</ele>
        <time>2025-09-07T09:38:36Z</time>
      </trkpt>
      <trkpt lat="46.18216" lon="4.59718">
        <ele>825.6</ele>
        <time>2025-09-07T09:38:37Z</time>
      </trkpt>
      <trkpt lat="46.18217" lon="4.59719">
        <ele>825.6</ele>
        <time>2025-09-07T09:38:38Z</time>
      </trkpt>
      <trkpt lat="46.18218" lon="4.59722">
        <ele>825.6</ele>
        <time>2025-09-07T09:38:39Z</time>
      </trkpt>
      <trkpt lat="46.18218" lon="4.59724">
        <ele>825</ele>
        <time>2025-09-07T09:38:40Z</time>
      </trkpt>
      <trkpt lat="46.18218" lon="4.59727">
        <ele>824.8</ele>
        <time>2025-09-07T09:38:41Z</time>
      </trkpt>
      <trkpt lat="46.18218" lon="4.5973">
        <ele>824.8</ele>
        <time>2025-09-07T09:38:42Z</time>
      </trkpt>
      <trkpt lat="46.18219" lon="4.59732">
        <ele>824.2</ele>
        <time>2025-09-07T09:38:43Z</time>
      </trkpt>
      <trkpt lat="46.1822" lon="4.59735">
        <ele>824.2</ele>
        <time>2025-09-07T09:38:44Z</time>
      </trkpt>
      <trkpt lat="46.18221" lon="4.59738">
        <ele>823.8</ele>
        <time>2025-09-07T09:38:45Z</time>
      </trkpt>
      <trkpt lat="46.18222" lon="4.59741">
        <ele>824</ele>
        <time>2025-09-07T09:38:46Z</time>
      </trkpt>
      <trkpt lat="46.18222" lon="4.59743">
        <ele>824</ele>
        <time>2025-09-07T09:38:47Z</time>
      </trkpt>
      <trkpt lat="46.18223" lon="4.59745">
        <ele>824.4</ele>
        <time>2025-09-07T09:38:48Z</time>
      </trkpt>
      <trkpt lat="46.18224" lon="4.59747">
        <ele>824.4</ele>
        <time>2025-09-07T09:38:49Z</time>
      </trkpt>
      <trkpt lat="46.18225" lon="4.59749">
        <ele>824.4</ele>
        <time>2025-09-07T09:38:50Z</time>
      </trkpt>
      <trkpt lat="46.18225" lon="4.59753">
        <ele>823.8</ele>
        <time>2025-09-07T09:38:51Z</time>
      </trkpt>
      <trkpt lat="46.18225" lon="4.59757">
        <ele>823.4</ele>
        <time>2025-09-07T09:38:52Z</time>
      </trkpt>
      <trkpt lat="46.18224" lon="4.5976">
        <ele>823.4</ele>
        <time>2025-09-07T09:38:53Z</time>
      </trkpt>
      <trkpt lat="46.18223" lon="4.59762">
        <ele>822.8</ele>
        <time>2025-09-07T09:38:54Z</time>
      </trkpt>
      <trkpt lat="46.18223" lon="4.59764">
        <ele>822.4</ele>
        <time>2025-09-07T09:38:55Z</time>
      </trkpt>
      <trkpt lat="46.18222" lon="4.59766">
        <ele>822.4</ele>
        <time>2025-09-07T09:38:56Z</time>
      </trkpt>
      <trkpt lat="46.18221" lon="4.59769">
        <ele>821.4</ele>
        <time>2025-09-07T09:38:57Z</time>
      </trkpt>
      <trkpt lat="46.18221" lon="4.59772">
        <ele>821.6</ele>
        <time>2025-09-07T09:38:58Z</time>
      </trkpt>
      <trkpt lat="46.18219" lon="4.59776">
        <ele>822.2</ele>
        <time>2025-09-07T09:38:59Z</time>
      </trkpt>
      <trkpt lat="46.18218" lon="4.5978">
        <ele>821.6</ele>
        <time>2025-09-07T09:39:00Z</time>
      </trkpt>
      <trkpt lat="46.18218" lon="4.59783">
        <ele>821.6</ele>
        <time>2025-09-07T09:39:01Z</time>
      </trkpt>
      <trkpt lat="46.18217" lon="4.59787">
        <ele>821.4</ele>
        <time>2025-09-07T09:39:02Z</time>
      </trkpt>
      <trkpt lat="46.18217" lon="4.5979">
        <ele>821.2</ele>
        <time>2025-09-07T09:39:03Z</time>
      </trkpt>
      <trkpt lat="46.18217" lon="4.59793">
        <ele>821.6</ele>
        <time>2025-09-07T09:39:04Z</time>
      </trkpt>
      <trkpt lat="46.18217" lon="4.59797">
        <ele>821.6</ele>
        <time>2025-09-07T09:39:05Z</time>
      </trkpt>
      <trkpt lat="46.18218" lon="4.59801">
        <ele>821.2</ele>
        <time>2025-09-07T09:39:06Z</time>
      </trkpt>
      <trkpt lat="46.18218" lon="4.59804">
        <ele>820.8</ele>
        <time>2025-09-07T09:39:07Z</time>
      </trkpt>
      <trkpt lat="46.18218" lon="4.59807">
        <ele>820.2</ele>
        <time>2025-09-07T09:39:08Z</time>
      </trkpt>
      <trkpt lat="46.18218" lon="4.59811">
        <ele>820.2</ele>
        <time>2025-09-07T09:39:09Z</time>
      </trkpt>
      <trkpt lat="46.18218" lon="4.59814">
        <ele>820</ele>
        <time>2025-09-07T09:39:10Z</time>
      </trkpt>
      <trkpt lat="46.18218" lon="4.59818">
        <ele>820.4</ele>
        <time>2025-09-07T09:39:11Z</time>
      </trkpt>
      <trkpt lat="46.18217" lon="4.59821">
        <ele>820</ele>
        <time>2025-09-07T09:39:12Z</time>
      </trkpt>
      <trkpt lat="46.18216" lon="4.59824">
        <ele>819.8</ele>
        <time>2025-09-07T09:39:13Z</time>
      </trkpt>
      <trkpt lat="46.18215" lon="4.59826">
        <ele>819.8</ele>
        <time>2025-09-07T09:39:14Z</time>
      </trkpt>
      <trkpt lat="46.18214" lon="4.59829">
        <ele>819.8</ele>
        <time>2025-09-07T09:39:15Z</time>
      </trkpt>
      <trkpt lat="46.18213" lon="4.59831">
        <ele>819.8</ele>
        <time>2025-09-07T09:39:16Z</time>
      </trkpt>
      <trkpt lat="46.18211" lon="4.59833">
        <ele>820</ele>
        <time>2025-09-07T09:39:17Z</time>
      </trkpt>
      <trkpt lat="46.18209" lon="4.59836">
        <ele>819.6</ele>
        <time>2025-09-07T09:39:18Z</time>
      </trkpt>
      <trkpt lat="46.18207" lon="4.5984">
        <ele>819.4</ele>
        <time>2025-09-07T09:39:19Z</time>
      </trkpt>
      <trkpt lat="46.18205" lon="4.59843">
        <ele>819.4</ele>
        <time>2025-09-07T09:39:20Z</time>
      </trkpt>
      <trkpt lat="46.18205" lon="4.59847">
        <ele>819.2</ele>
        <time>2025-09-07T09:39:21Z</time>
      </trkpt>
      <trkpt lat="46.18204" lon="4.5985">
        <ele>819</ele>
        <time>2025-09-07T09:39:22Z</time>
      </trkpt>
      <trkpt lat="46.18204" lon="4.59854">
        <ele>818.8</ele>
        <time>2025-09-07T09:39:23Z</time>
      </trkpt>
      <trkpt lat="46.18204" lon="4.59854">
        <ele>818.8</ele>
        <time>2025-09-07T09:39:24Z</time>
      </trkpt>
      <trkpt lat="46.18204" lon="4.59858">
        <ele>818.8</ele>
        <time>2025-09-07T09:39:25Z</time>
      </trkpt>
      <trkpt lat="46.18204" lon="4.59861">
        <ele>818.8</ele>
        <time>2025-09-07T09:39:26Z</time>
      </trkpt>
      <trkpt lat="46.18204" lon="4.59864">
        <ele>818.4</ele>
        <time>2025-09-07T09:39:27Z</time>
      </trkpt>
      <trkpt lat="46.18204" lon="4.59868">
        <ele>818</ele>
        <time>2025-09-07T09:39:28Z</time>
      </trkpt>
      <trkpt lat="46.18204" lon="4.59873">
        <ele>818</ele>
        <time>2025-09-07T09:39:29Z</time>
      </trkpt>
      <trkpt lat="46.18204" lon="4.59877">
        <ele>818</ele>
        <time>2025-09-07T09:39:30Z</time>
      </trkpt>
      <trkpt lat="46.18204" lon="4.5988">
        <ele>818</ele>
        <time>2025-09-07T09:39:31Z</time>
      </trkpt>
      <trkpt lat="46.18204" lon="4.59883">
        <ele>817.8</ele>
        <time>2025-09-07T09:39:32Z</time>
      </trkpt>
      <trkpt lat="46.18204" lon="4.59887">
        <ele>817.4</ele>
        <time>2025-09-07T09:39:33Z</time>
      </trkpt>
      <trkpt lat="46.18205" lon="4.5989">
        <ele>817.4</ele>
        <time>2025-09-07T09:39:34Z</time>
      </trkpt>
      <trkpt lat="46.18205" lon="4.59893">
        <ele>818.4</ele>
        <time>2025-09-07T09:39:35Z</time>
      </trkpt>
      <trkpt lat="46.18206" lon="4.59896">
        <ele>818</ele>
        <time>2025-09-07T09:39:36Z</time>
      </trkpt>
      <trkpt lat="46.18207" lon="4.59899">
        <ele>818</ele>
        <time>2025-09-07T09:39:37Z</time>
      </trkpt>
      <trkpt lat="46.18207" lon="4.59902">
        <ele>818.2</ele>
        <time>2025-09-07T09:39:38Z</time>
      </trkpt>
      <trkpt lat="46.18207" lon="4.59906">
        <ele>818.2</ele>
        <time>2025-09-07T09:39:39Z</time>
      </trkpt>
      <trkpt lat="46.18208" lon="4.59909">
        <ele>818.2</ele>
        <time>2025-09-07T09:39:40Z</time>
      </trkpt>
      <trkpt lat="46.18209" lon="4.59912">
        <ele>818</ele>
        <time>2025-09-07T09:39:41Z</time>
      </trkpt>
      <trkpt lat="46.18211" lon="4.59914">
        <ele>818.6</ele>
        <time>2025-09-07T09:39:42Z</time>
      </trkpt>
      <trkpt lat="46.18213" lon="4.59917">
        <ele>818.6</ele>
        <time>2025-09-07T09:39:43Z</time>
      </trkpt>
      <trkpt lat="46.18213" lon="4.59919">
        <ele>818.6</ele>
        <time>2025-09-07T09:39:44Z</time>
      </trkpt>
      <trkpt lat="46.18214" lon="4.59921">
        <ele>818.2</ele>
        <time>2025-09-07T09:39:45Z</time>
      </trkpt>
      <trkpt lat="46.18214" lon="4.59923">
        <ele>818</ele>
        <time>2025-09-07T09:39:46Z</time>
      </trkpt>
      <trkpt lat="46.18214" lon="4.59925">
        <ele>818</ele>
        <time>2025-09-07T09:39:47Z</time>
      </trkpt>
      <trkpt lat="46.18213" lon="4.59928">
        <ele>818</ele>
        <time>2025-09-07T09:39:48Z</time>
      </trkpt>
      <trkpt lat="46.18213" lon="4.5993">
        <ele>818</ele>
        <time>2025-09-07T09:39:49Z</time>
      </trkpt>
      <trkpt lat="46.18213" lon="4.59932">
        <ele>817.4</ele>
        <time>2025-09-07T09:39:50Z</time>
      </trkpt>
      <trkpt lat="46.18213" lon="4.59934">
        <ele>817.4</ele>
        <time>2025-09-07T09:39:51Z</time>
      </trkpt>
      <trkpt lat="46.18213" lon="4.59937">
        <ele>817.4</ele>
        <time>2025-09-07T09:39:52Z</time>
      </trkpt>
      <trkpt lat="46.18213" lon="4.59939">
        <ele>817.4</ele>
        <time>2025-09-07T09:39:53Z</time>
      </trkpt>
      <trkpt lat="46.18212" lon="4.59941">
        <ele>817.4</ele>
        <time>2025-09-07T09:39:54Z</time>
      </trkpt>
      <trkpt lat="46.18211" lon="4.59944">
        <ele>817.4</ele>
        <time>2025-09-07T09:39:55Z</time>
      </trkpt>
      <trkpt lat="46.1821" lon="4.59946">
        <ele>817</ele>
        <time>2025-09-07T09:39:56Z</time>
      </trkpt>
      <trkpt lat="46.1821" lon="4.59948">
        <ele>817</ele>
        <time>2025-09-07T09:39:57Z</time>
      </trkpt>
      <trkpt lat="46.1821" lon="4.59952">
        <ele>816.8</ele>
        <time>2025-09-07T09:39:58Z</time>
      </trkpt>
      <trkpt lat="46.18211" lon="4.59955">
        <ele>816.8</ele>
        <time>2025-09-07T09:39:59Z</time>
      </trkpt>
      <trkpt lat="46.18211" lon="4.59957">
        <ele>816.4</ele>
        <time>2025-09-07T09:40:00Z</time>
      </trkpt>
      <trkpt lat="46.18212" lon="4.5996">
        <ele>816.4</ele>
        <time>2025-09-07T09:40:01Z</time>
      </trkpt>
      <trkpt lat="46.18212" lon="4.59963">
        <ele>816.4</ele>
        <time>2025-09-07T09:40:02Z</time>
      </trkpt>
      <trkpt lat="46.18211" lon="4.59966">
        <ele>816.4</ele>
        <time>2025-09-07T09:40:03Z</time>
      </trkpt>
      <trkpt lat="46.1821" lon="4.59969">
        <ele>816.4</ele>
        <time>2025-09-07T09:40:04Z</time>
      </trkpt>
      <trkpt lat="46.18209" lon="4.59971">
        <ele>816.8</ele>
        <time>2025-09-07T09:40:05Z</time>
      </trkpt>
      <trkpt lat="46.18209" lon="4.59973">
        <ele>816.8</ele>
        <time>2025-09-07T09:40:06Z</time>
      </trkpt>
      <trkpt lat="46.18209" lon="4.59976">
        <ele>816.8</ele>
        <time>2025-09-07T09:40:07Z</time>
      </trkpt>
      <trkpt lat="46.1821" lon="4.59979">
        <ele>816.8</ele>
        <time>2025-09-07T09:40:08Z</time>
      </trkpt>
      <trkpt lat="46.18209" lon="4.59983">
        <ele>816.8</ele>
        <time>2025-09-07T09:40:09Z</time>
      </trkpt>
      <trkpt lat="46.18209" lon="4.59986">
        <ele>816.8</ele>
        <time>2025-09-07T09:40:10Z</time>
      </trkpt>
      <trkpt lat="46.18208" lon="4.5999">
        <ele>816.8</ele>
        <time>2025-09-07T09:40:11Z</time>
      </trkpt>
      <trkpt lat="46.18208" lon="4.59993">
        <ele>816.8</ele>
        <time>2025-09-07T09:40:12Z</time>
      </trkpt>
      <trkpt lat="46.18207" lon="4.59997">
        <ele>816.4</ele>
        <time>2025-09-07T09:40:13Z</time>
      </trkpt>
      <trkpt lat="46.18207" lon="4.60001">
        <ele>816.4</ele>
        <time>2025-09-07T09:40:14Z</time>
      </trkpt>
      <trkpt lat="46.18207" lon="4.60004">
        <ele>817.4</ele>
        <time>2025-09-07T09:40:15Z</time>
      </trkpt>
      <trkpt lat="46.18208" lon="4.60007">
        <ele>817.4</ele>
        <time>2025-09-07T09:40:16Z</time>
      </trkpt>
      <trkpt lat="46.18208" lon="4.60009">
        <ele>817.4</ele>
        <time>2025-09-07T09:40:17Z</time>
      </trkpt>
      <trkpt lat="46.18209" lon="4.60012">
        <ele>817</ele>
        <time>2025-09-07T09:40:18Z</time>
      </trkpt>
      <trkpt lat="46.1821" lon="4.60016">
        <ele>817</ele>
        <time>2025-09-07T09:40:19Z</time>
      </trkpt>
      <trkpt lat="46.1821" lon="4.60019">
        <ele>817</ele>
        <time>2025-09-07T09:40:20Z</time>
      </trkpt>
      <trkpt lat="46.18209" lon="4.60022">
        <ele>816.8</ele>
        <time>2025-09-07T09:40:21Z</time>
      </trkpt>
      <trkpt lat="46.18209" lon="4.60024">
        <ele>816.8</ele>
        <time>2025-09-07T09:40:22Z</time>
      </trkpt>
      <trkpt lat="46.18208" lon="4.60026">
        <ele>816.8</ele>
        <time>2025-09-07T09:40:23Z</time>
      </trkpt>
      <trkpt lat="46.18207" lon="4.60028">
        <ele>817</ele>
        <time>2025-09-07T09:40:24Z</time>
      </trkpt>
      <trkpt lat="46.18206" lon="4.60031">
        <ele>816.6</ele>
        <time>2025-09-07T09:40:25Z</time>
      </trkpt>
      <trkpt lat="46.18205" lon="4.60033">
        <ele>816.8</ele>
        <time>2025-09-07T09:40:26Z</time>
      </trkpt>
      <trkpt lat="46.18204" lon="4.60036">
        <ele>816.8</ele>
        <time>2025-09-07T09:40:27Z</time>
      </trkpt>
      <trkpt lat="46.18203" lon="4.60038">
        <ele>817</ele>
        <time>2025-09-07T09:40:28Z</time>
      </trkpt>
      <trkpt lat="46.18203" lon="4.60039">
        <ele>817</ele>
        <time>2025-09-07T09:40:29Z</time>
      </trkpt>
      <trkpt lat="46.18203" lon="4.60041">
        <ele>817</ele>
        <time>2025-09-07T09:40:30Z</time>
      </trkpt>
      <trkpt lat="46.18204" lon="4.60044">
        <ele>817</ele>
        <time>2025-09-07T09:40:31Z</time>
      </trkpt>
      <trkpt lat="46.18207" lon="4.60046">
        <ele>817</ele>
        <time>2025-09-07T09:40:32Z</time>
      </trkpt>
      <trkpt lat="46.18209" lon="4.60047">
        <ele>817</ele>
        <time>2025-09-07T09:40:33Z</time>
      </trkpt>
      <trkpt lat="46.18212" lon="4.60047">
        <ele>817.4</ele>
        <time>2025-09-07T09:40:34Z</time>
      </trkpt>
      <trkpt lat="46.18214" lon="4.60048">
        <ele>817.4</ele>
        <time>2025-09-07T09:40:35Z</time>
      </trkpt>
      <trkpt lat="46.18215" lon="4.60049">
        <ele>817.4</ele>
        <time>2025-09-07T09:40:36Z</time>
      </trkpt>
      <trkpt lat="46.18217" lon="4.60051">
        <ele>817.4</ele>
        <time>2025-09-07T09:40:37Z</time>
      </trkpt>
      <trkpt lat="46.1822" lon="4.60053">
        <ele>817.4</ele>
        <time>2025-09-07T09:40:38Z</time>
      </trkpt>
      <trkpt lat="46.18222" lon="4.60055">
        <ele>817.4</ele>
        <time>2025-09-07T09:40:39Z</time>
      </trkpt>
      <trkpt lat="46.18224" lon="4.60058">
        <ele>817</ele>
        <time>2025-09-07T09:40:40Z</time>
      </trkpt>
      <trkpt lat="46.18226" lon="4.60061">
        <ele>817</ele>
        <time>2025-09-07T09:40:41Z</time>
      </trkpt>
      <trkpt lat="46.18227" lon="4.60064">
        <ele>817</ele>
        <time>2025-09-07T09:40:42Z</time>
      </trkpt>
      <trkpt lat="46.18228" lon="4.60067">
        <ele>817.4</ele>
        <time>2025-09-07T09:40:43Z</time>
      </trkpt>
      <trkpt lat="46.1823" lon="4.60069">
        <ele>817.4</ele>
        <time>2025-09-07T09:40:44Z</time>
      </trkpt>
      <trkpt lat="46.18232" lon="4.60071">
        <ele>817.4</ele>
        <time>2025-09-07T09:40:45Z</time>
      </trkpt>
      <trkpt lat="46.18234" lon="4.60073">
        <ele>817.4</ele>
        <time>2025-09-07T09:40:46Z</time>
      </trkpt>
      <trkpt lat="46.18237" lon="4.60075">
        <ele>817.4</ele>
        <time>2025-09-07T09:40:47Z</time>
      </trkpt>
      <trkpt lat="46.18239" lon="4.60077">
        <ele>817.4</ele>
        <time>2025-09-07T09:40:48Z</time>
      </trkpt>
      <trkpt lat="46.18242" lon="4.6008">
        <ele>817.2</ele>
        <time>2025-09-07T09:40:49Z</time>
      </trkpt>
      <trkpt lat="46.18243" lon="4.60083">
        <ele>817.2</ele>
        <time>2025-09-07T09:40:50Z</time>
      </trkpt>
      <trkpt lat="46.18245" lon="4.60087">
        <ele>817.2</ele>
        <time>2025-09-07T09:40:51Z</time>
      </trkpt>
      <trkpt lat="46.18246" lon="4.60091">
        <ele>817.2</ele>
        <time>2025-09-07T09:40:52Z</time>
      </trkpt>
      <trkpt lat="46.18247" lon="4.60095">
        <ele>817.2</ele>
        <time>2025-09-07T09:40:53Z</time>
      </trkpt>
      <trkpt lat="46.18249" lon="4.60099">
        <ele>817.2</ele>
        <time>2025-09-07T09:40:54Z</time>
      </trkpt>
      <trkpt lat="46.18251" lon="4.60102">
        <ele>817.2</ele>
        <time>2025-09-07T09:40:55Z</time>
      </trkpt>
      <trkpt lat="46.18252" lon="4.60104">
        <ele>817.2</ele>
        <time>2025-09-07T09:40:56Z</time>
      </trkpt>
      <trkpt lat="46.18253" lon="4.60105">
        <ele>817.4</ele>
        <time>2025-09-07T09:40:57Z</time>
      </trkpt>
      <trkpt lat="46.18255" lon="4.60108">
        <ele>817.4</ele>
        <time>2025-09-07T09:40:58Z</time>
      </trkpt>
      <trkpt lat="46.18256" lon="4.6011">
        <ele>817.4</ele>
        <time>2025-09-07T09:40:59Z</time>
      </trkpt>
      <trkpt lat="46.18257" lon="4.60114">
        <ele>817.8</ele>
        <time>2025-09-07T09:41:00Z</time>
      </trkpt>
      <trkpt lat="46.18258" lon="4.60118">
        <ele>817.4</ele>
        <time>2025-09-07T09:41:01Z</time>
      </trkpt>
      <trkpt lat="46.18259" lon="4.60121">
        <ele>817.4</ele>
        <time>2025-09-07T09:41:02Z</time>
      </trkpt>
      <trkpt lat="46.18259" lon="4.60125">
        <ele>818.4</ele>
        <time>2025-09-07T09:41:03Z</time>
      </trkpt>
      <trkpt lat="46.18259" lon="4.60129">
        <ele>818.6</ele>
        <time>2025-09-07T09:41:04Z</time>
      </trkpt>
      <trkpt lat="46.1826" lon="4.60133">
        <ele>818.6</ele>
        <time>2025-09-07T09:41:05Z</time>
      </trkpt>
      <trkpt lat="46.1826" lon="4.60135">
        <ele>818.6</ele>
        <time>2025-09-07T09:41:06Z</time>
      </trkpt>
      <trkpt lat="46.18261" lon="4.60137">
        <ele>818.6</ele>
        <time>2025-09-07T09:41:07Z</time>
      </trkpt>
      <trkpt lat="46.18261" lon="4.60137">
        <ele>819</ele>
        <time>2025-09-07T09:41:08Z</time>
      </trkpt>
      <trkpt lat="46.1826" lon="4.60139">
        <ele>818.4</ele>
        <time>2025-09-07T09:41:17Z</time>
      </trkpt>
      <trkpt lat="46.1826" lon="4.60143">
        <ele>818.4</ele>
        <time>2025-09-07T09:41:18Z</time>
      </trkpt>
      <trkpt lat="46.1826" lon="4.60146">
        <ele>818.8</ele>
        <time>2025-09-07T09:41:19Z</time>
      </trkpt>
      <trkpt lat="46.1826" lon="4.60149">
        <ele>818.8</ele>
        <time>2025-09-07T09:41:20Z</time>
      </trkpt>
      <trkpt lat="46.1826" lon="4.60152">
        <ele>818.2</ele>
        <time>2025-09-07T09:41:21Z</time>
      </trkpt>
      <trkpt lat="46.18261" lon="4.60155">
        <ele>818.4</ele>
        <time>2025-09-07T09:41:22Z</time>
      </trkpt>
      <trkpt lat="46.18261" lon="4.60158">
        <ele>818.4</ele>
        <time>2025-09-07T09:41:23Z</time>
      </trkpt>
      <trkpt lat="46.1826" lon="4.6016">
        <ele>818.8</ele>
        <time>2025-09-07T09:41:24Z</time>
      </trkpt>
      <trkpt lat="46.1826" lon="4.60163">
        <ele>819.8</ele>
        <time>2025-09-07T09:41:25Z</time>
      </trkpt>
      <trkpt lat="46.1826" lon="4.60166">
        <ele>820</ele>
        <time>2025-09-07T09:41:26Z</time>
      </trkpt>
      <trkpt lat="46.1826" lon="4.60168">
        <ele>819.8</ele>
        <time>2025-09-07T09:41:27Z</time>
      </trkpt>
      <trkpt lat="46.1826" lon="4.6017">
        <ele>819.8</ele>
        <time>2025-09-07T09:41:28Z</time>
      </trkpt>
      <trkpt lat="46.1826" lon="4.60173">
        <ele>819.8</ele>
        <time>2025-09-07T09:41:29Z</time>
      </trkpt>
      <trkpt lat="46.1826" lon="4.60176">
        <ele>820.2</ele>
        <time>2025-09-07T09:41:30Z</time>
      </trkpt>
      <trkpt lat="46.18261" lon="4.60178">
        <ele>820.2</ele>
        <time>2025-09-07T09:41:31Z</time>
      </trkpt>
      <trkpt lat="46.18262" lon="4.60181">
        <ele>820.2</ele>
        <time>2025-09-07T09:41:32Z</time>
      </trkpt>
      <trkpt lat="46.18262" lon="4.60183">
        <ele>820.2</ele>
        <time>2025-09-07T09:41:33Z</time>
      </trkpt>
      <trkpt lat="46.18263" lon="4.60185">
        <ele>820.4</ele>
        <time>2025-09-07T09:41:34Z</time>
      </trkpt>
      <trkpt lat="46.18263" lon="4.60188">
        <ele>820.8</ele>
        <time>2025-09-07T09:41:35Z</time>
      </trkpt>
      <trkpt lat="46.18264" lon="4.6019">
        <ele>820.8</ele>
        <time>2025-09-07T09:41:36Z</time>
      </trkpt>
      <trkpt lat="46.18264" lon="4.60192">
        <ele>821</ele>
        <time>2025-09-07T09:41:37Z</time>
      </trkpt>
      <trkpt lat="46.18264" lon="4.60194">
        <ele>821</ele>
        <time>2025-09-07T09:41:38Z</time>
      </trkpt>
      <trkpt lat="46.18265" lon="4.60197">
        <ele>820.8</ele>
        <time>2025-09-07T09:41:39Z</time>
      </trkpt>
      <trkpt lat="46.18265" lon="4.60199">
        <ele>820.8</ele>
        <time>2025-09-07T09:41:40Z</time>
      </trkpt>
      <trkpt lat="46.18266" lon="4.60202">
        <ele>820.8</ele>
        <time>2025-09-07T09:41:41Z</time>
      </trkpt>
      <trkpt lat="46.18267" lon="4.60204">
        <ele>821</ele>
        <time>2025-09-07T09:41:42Z</time>
      </trkpt>
      <trkpt lat="46.18268" lon="4.60206">
        <ele>821</ele>
        <time>2025-09-07T09:41:43Z</time>
      </trkpt>
      <trkpt lat="46.18268" lon="4.60209">
        <ele>821.4</ele>
        <time>2025-09-07T09:41:44Z</time>
      </trkpt>
      <trkpt lat="46.18269" lon="4.60212">
        <ele>821.4</ele>
        <time>2025-09-07T09:41:45Z</time>
      </trkpt>
      <trkpt lat="46.18269" lon="4.60214">
        <ele>821.2</ele>
        <time>2025-09-07T09:41:46Z</time>
      </trkpt>
      <trkpt lat="46.1827" lon="4.60217">
        <ele>821.2</ele>
        <time>2025-09-07T09:41:47Z</time>
      </trkpt>
      <trkpt lat="46.18272" lon="4.60219">
        <ele>821.2</ele>
        <time>2025-09-07T09:41:48Z</time>
      </trkpt>
      <trkpt lat="46.18273" lon="4.60221">
        <ele>821.2</ele>
        <time>2025-09-07T09:41:49Z</time>
      </trkpt>
      <trkpt lat="46.18274" lon="4.60223">
        <ele>821.2</ele>
        <time>2025-09-07T09:41:50Z</time>
      </trkpt>
      <trkpt lat="46.18275" lon="4.60226">
        <ele>820.8</ele>
        <time>2025-09-07T09:41:51Z</time>
      </trkpt>
      <trkpt lat="46.18275" lon="4.60228">
        <ele>821.4</ele>
        <time>2025-09-07T09:41:52Z</time>
      </trkpt>
      <trkpt lat="46.18276" lon="4.6023">
        <ele>821.6</ele>
        <time>2025-09-07T09:41:53Z</time>
      </trkpt>
      <trkpt lat="46.18277" lon="4.60232">
        <ele>821.6</ele>
        <time>2025-09-07T09:41:54Z</time>
      </trkpt>
      <trkpt lat="46.18277" lon="4.60234">
        <ele>822</ele>
        <time>2025-09-07T09:41:55Z</time>
      </trkpt>
      <trkpt lat="46.18278" lon="4.60236">
        <ele>822.6</ele>
        <time>2025-09-07T09:41:56Z</time>
      </trkpt>
      <trkpt lat="46.1828" lon="4.6024">
        <ele>822.6</ele>
        <time>2025-09-07T09:41:57Z</time>
      </trkpt>
      <trkpt lat="46.18281" lon="4.60242">
        <ele>822.6</ele>
        <time>2025-09-07T09:41:58Z</time>
      </trkpt>
      <trkpt lat="46.18281" lon="4.60244">
        <ele>823</ele>
        <time>2025-09-07T09:41:59Z</time>
      </trkpt>
      <trkpt lat="46.18282" lon="4.60245">
        <ele>823</ele>
        <time>2025-09-07T09:42:00Z</time>
      </trkpt>
      <trkpt lat="46.18283" lon="4.60248">
        <ele>823</ele>
        <time>2025-09-07T09:42:01Z</time>
      </trkpt>
      <trkpt lat="46.18284" lon="4.60251">
        <ele>823</ele>
        <time>2025-09-07T09:42:02Z</time>
      </trkpt>
      <trkpt lat="46.18284" lon="4.60252">
        <ele>823.2</ele>
        <time>2025-09-07T09:42:03Z</time>
      </trkpt>
      <trkpt lat="46.18286" lon="4.60255">
        <ele>823.2</ele>
        <time>2025-09-07T09:42:04Z</time>
      </trkpt>
      <trkpt lat="46.18287" lon="4.60257">
        <ele>823.2</ele>
        <time>2025-09-07T09:42:05Z</time>
      </trkpt>
      <trkpt lat="46.18288" lon="4.6026">
        <ele>823.2</ele>
        <time>2025-09-07T09:42:06Z</time>
      </trkpt>
      <trkpt lat="46.18289" lon="4.60263">
        <ele>823.2</ele>
        <time>2025-09-07T09:42:07Z</time>
      </trkpt>
      <trkpt lat="46.1829" lon="4.60267">
        <ele>822.8</ele>
        <time>2025-09-07T09:42:08Z</time>
      </trkpt>
      <trkpt lat="46.18291" lon="4.60269">
        <ele>822.8</ele>
        <time>2025-09-07T09:42:09Z</time>
      </trkpt>
      <trkpt lat="46.18292" lon="4.60272">
        <ele>823</ele>
        <time>2025-09-07T09:42:10Z</time>
      </trkpt>
      <trkpt lat="46.18292" lon="4.60276">
        <ele>822.8</ele>
        <time>2025-09-07T09:42:11Z</time>
      </trkpt>
      <trkpt lat="46.18293" lon="4.60279">
        <ele>823.2</ele>
        <time>2025-09-07T09:42:12Z</time>
      </trkpt>
      <trkpt lat="46.18294" lon="4.60282">
        <ele>823.2</ele>
        <time>2025-09-07T09:42:13Z</time>
      </trkpt>
      <trkpt lat="46.18295" lon="4.60284">
        <ele>822.8</ele>
        <time>2025-09-07T09:42:14Z</time>
      </trkpt>
      <trkpt lat="46.18295" lon="4.60286">
        <ele>822.8</ele>
        <time>2025-09-07T09:42:15Z</time>
      </trkpt>
      <trkpt lat="46.18296" lon="4.60289">
        <ele>822.8</ele>
        <time>2025-09-07T09:42:16Z</time>
      </trkpt>
      <trkpt lat="46.18296" lon="4.60292">
        <ele>821.8</ele>
        <time>2025-09-07T09:42:17Z</time>
      </trkpt>
      <trkpt lat="46.18297" lon="4.60295">
        <ele>822</ele>
        <time>2025-09-07T09:42:18Z</time>
      </trkpt>
      <trkpt lat="46.18297" lon="4.60297">
        <ele>822</ele>
        <time>2025-09-07T09:42:19Z</time>
      </trkpt>
      <trkpt lat="46.18298" lon="4.603">
        <ele>822.2</ele>
        <time>2025-09-07T09:42:20Z</time>
      </trkpt>
      <trkpt lat="46.18299" lon="4.60302">
        <ele>822</ele>
        <time>2025-09-07T09:42:21Z</time>
      </trkpt>
      <trkpt lat="46.18301" lon="4.60305">
        <ele>822</ele>
        <time>2025-09-07T09:42:22Z</time>
      </trkpt>
      <trkpt lat="46.18302" lon="4.60307">
        <ele>822</ele>
        <time>2025-09-07T09:42:23Z</time>
      </trkpt>
      <trkpt lat="46.18303" lon="4.60311">
        <ele>822.4</ele>
        <time>2025-09-07T09:42:24Z</time>
      </trkpt>
      <trkpt lat="46.18305" lon="4.60313">
        <ele>822.4</ele>
        <time>2025-09-07T09:42:25Z</time>
      </trkpt>
      <trkpt lat="46.18306" lon="4.60316">
        <ele>822.6</ele>
        <time>2025-09-07T09:42:26Z</time>
      </trkpt>
      <trkpt lat="46.18308" lon="4.60319">
        <ele>822.2</ele>
        <time>2025-09-07T09:42:27Z</time>
      </trkpt>
      <trkpt lat="46.18309" lon="4.60322">
        <ele>822.2</ele>
        <time>2025-09-07T09:42:28Z</time>
      </trkpt>
      <trkpt lat="46.1831" lon="4.60325">
        <ele>822.2</ele>
        <time>2025-09-07T09:42:29Z</time>
      </trkpt>
      <trkpt lat="46.18311" lon="4.60328">
        <ele>822.2</ele>
        <time>2025-09-07T09:42:30Z</time>
      </trkpt>
      <trkpt lat="46.18313" lon="4.60332">
        <ele>822.2</ele>
        <time>2025-09-07T09:42:31Z</time>
      </trkpt>
      <trkpt lat="46.18314" lon="4.60336">
        <ele>822.2</ele>
        <time>2025-09-07T09:42:32Z</time>
      </trkpt>
      <trkpt lat="46.18316" lon="4.6034">
        <ele>822.2</ele>
        <time>2025-09-07T09:42:33Z</time>
      </trkpt>
      <trkpt lat="46.18317" lon="4.60344">
        <ele>822.4</ele>
        <time>2025-09-07T09:42:34Z</time>
      </trkpt>
      <trkpt lat="46.18319" lon="4.60348">
        <ele>822.4</ele>
        <time>2025-09-07T09:42:35Z</time>
      </trkpt>
      <trkpt lat="46.18321" lon="4.60351">
        <ele>822.4</ele>
        <time>2025-09-07T09:42:36Z</time>
      </trkpt>
      <trkpt lat="46.18323" lon="4.60355">
        <ele>822.8</ele>
        <time>2025-09-07T09:42:37Z</time>
      </trkpt>
      <trkpt lat="46.18325" lon="4.60358">
        <ele>823</ele>
        <time>2025-09-07T09:42:38Z</time>
      </trkpt>
      <trkpt lat="46.18327" lon="4.60361">
        <ele>823</ele>
        <time>2025-09-07T09:42:39Z</time>
      </trkpt>
      <trkpt lat="46.18329" lon="4.60364">
        <ele>823</ele>
        <time>2025-09-07T09:42:40Z</time>
      </trkpt>
      <trkpt lat="46.1833" lon="4.60367">
        <ele>823</ele>
        <time>2025-09-07T09:42:41Z</time>
      </trkpt>
      <trkpt lat="46.18332" lon="4.60369">
        <ele>823</ele>
        <time>2025-09-07T09:42:42Z</time>
      </trkpt>
      <trkpt lat="46.18334" lon="4.60371">
        <ele>823</ele>
        <time>2025-09-07T09:42:43Z</time>
      </trkpt>
      <trkpt lat="46.18336" lon="4.60374">
        <ele>823</ele>
        <time>2025-09-07T09:42:44Z</time>
      </trkpt>
      <trkpt lat="46.18338" lon="4.60377">
        <ele>823</ele>
        <time>2025-09-07T09:42:45Z</time>
      </trkpt>
      <trkpt lat="46.1834" lon="4.60381">
        <ele>823</ele>
        <time>2025-09-07T09:42:46Z</time>
      </trkpt>
      <trkpt lat="46.18342" lon="4.60385">
        <ele>823</ele>
        <time>2025-09-07T09:42:47Z</time>
      </trkpt>
      <trkpt lat="46.18342" lon="4.60385">
        <ele>823.2</ele>
        <time>2025-09-07T09:42:48Z</time>
      </trkpt>
      <trkpt lat="46.18345" lon="4.60388">
        <ele>823.2</ele>
        <time>2025-09-07T09:42:49Z</time>
      </trkpt>
      <trkpt lat="46.18347" lon="4.6039">
        <ele>823.2</ele>
        <time>2025-09-07T09:42:50Z</time>
      </trkpt>
      <trkpt lat="46.1835" lon="4.60392">
        <ele>823.2</ele>
        <time>2025-09-07T09:42:51Z</time>
      </trkpt>
      <trkpt lat="46.18353" lon="4.60394">
        <ele>823</ele>
        <time>2025-09-07T09:42:52Z</time>
      </trkpt>
      <trkpt lat="46.18354" lon="4.60396">
        <ele>823</ele>
        <time>2025-09-07T09:42:53Z</time>
      </trkpt>
      <trkpt lat="46.18355" lon="4.60397">
        <ele>823.4</ele>
        <time>2025-09-07T09:42:54Z</time>
      </trkpt>
      <trkpt lat="46.18356" lon="4.60398">
        <ele>823.6</ele>
        <time>2025-09-07T09:42:55Z</time>
      </trkpt>
      <trkpt lat="46.18357" lon="4.60399">
        <ele>823.8</ele>
        <time>2025-09-07T09:42:56Z</time>
      </trkpt>
      <trkpt lat="46.18357" lon="4.60398">
        <ele>824.2</ele>
        <time>2025-09-07T09:42:57Z</time>
      </trkpt>
      <trkpt lat="46.18361" lon="4.60395">
        <ele>824.6</ele>
        <time>2025-09-07T09:44:12Z</time>
      </trkpt>
      <trkpt lat="46.18363" lon="4.60396">
        <ele>824.6</ele>
        <time>2025-09-07T09:44:13Z</time>
      </trkpt>
      <trkpt lat="46.18365" lon="4.60396">
        <ele>824.6</ele>
        <time>2025-09-07T09:44:14Z</time>
      </trkpt>
      <trkpt lat="46.18367" lon="4.60396">
        <ele>824.6</ele>
        <time>2025-09-07T09:44:15Z</time>
      </trkpt>
      <trkpt lat="46.18369" lon="4.60396">
        <ele>824.8</ele>
        <time>2025-09-07T09:44:16Z</time>
      </trkpt>
      <trkpt lat="46.1837" lon="4.60396">
        <ele>824.8</ele>
        <time>2025-09-07T09:44:17Z</time>
      </trkpt>
      <trkpt lat="46.18372" lon="4.60394">
        <ele>824.8</ele>
        <time>2025-09-07T09:44:18Z</time>
      </trkpt>
      <trkpt lat="46.18373" lon="4.60391">
        <ele>824.8</ele>
        <time>2025-09-07T09:44:19Z</time>
      </trkpt>
      <trkpt lat="46.18375" lon="4.60388">
        <ele>824.8</ele>
        <time>2025-09-07T09:44:20Z</time>
      </trkpt>
      <trkpt lat="46.18376" lon="4.60385">
        <ele>824.8</ele>
        <time>2025-09-07T09:44:21Z</time>
      </trkpt>
      <trkpt lat="46.18378" lon="4.60382">
        <ele>824.8</ele>
        <time>2025-09-07T09:44:22Z</time>
      </trkpt>
      <trkpt lat="46.18381" lon="4.60379">
        <ele>824.8</ele>
        <time>2025-09-07T09:44:23Z</time>
      </trkpt>
      <trkpt lat="46.18384" lon="4.60375">
        <ele>824.6</ele>
        <time>2025-09-07T09:44:24Z</time>
      </trkpt>
      <trkpt lat="46.18387" lon="4.60372">
        <ele>824.6</ele>
        <time>2025-09-07T09:44:25Z</time>
      </trkpt>
      <trkpt lat="46.18391" lon="4.60369">
        <ele>824.4</ele>
        <time>2025-09-07T09:44:26Z</time>
      </trkpt>
      <trkpt lat="46.18394" lon="4.60369">
        <ele>824.4</ele>
        <time>2025-09-07T09:44:27Z</time>
      </trkpt>
      <trkpt lat="46.18399" lon="4.60367">
        <ele>824.4</ele>
        <time>2025-09-07T09:44:28Z</time>
      </trkpt>
      <trkpt lat="46.18404" lon="4.60365">
        <ele>824.4</ele>
        <time>2025-09-07T09:44:29Z</time>
      </trkpt>
      <trkpt lat="46.18408" lon="4.60362">
        <ele>824.2</ele>
        <time>2025-09-07T09:44:30Z</time>
      </trkpt>
      <trkpt lat="46.18414" lon="4.60361">
        <ele>824.2</ele>
        <time>2025-09-07T09:44:31Z</time>
      </trkpt>
      <trkpt lat="46.18419" lon="4.60359">
        <ele>824.2</ele>
        <time>2025-09-07T09:44:32Z</time>
      </trkpt>
      <trkpt lat="46.18424" lon="4.60356">
        <ele>823.8</ele>
        <time>2025-09-07T09:44:33Z</time>
      </trkpt>
      <trkpt lat="46.1843" lon="4.60355">
        <ele>823.6</ele>
        <time>2025-09-07T09:44:34Z</time>
      </trkpt>
      <trkpt lat="46.18436" lon="4.60352">
        <ele>823.6</ele>
        <time>2025-09-07T09:44:35Z</time>
      </trkpt>
      <trkpt lat="46.18441" lon="4.60349">
        <ele>823.2</ele>
        <time>2025-09-07T09:44:36Z</time>
      </trkpt>
      <trkpt lat="46.18447" lon="4.60346">
        <ele>822.6</ele>
        <time>2025-09-07T09:44:37Z</time>
      </trkpt>
      <trkpt lat="46.18454" lon="4.60342">
        <ele>822.2</ele>
        <time>2025-09-07T09:44:38Z</time>
      </trkpt>
      <trkpt lat="46.18463" lon="4.60339">
        <ele>821.8</ele>
        <time>2025-09-07T09:44:39Z</time>
      </trkpt>
      <trkpt lat="46.1847" lon="4.60336">
        <ele>821.2</ele>
        <time>2025-09-07T09:44:40Z</time>
      </trkpt>
      <trkpt lat="46.18479" lon="4.60336">
        <ele>820.4</ele>
        <time>2025-09-07T09:44:41Z</time>
      </trkpt>
      <trkpt lat="46.18488" lon="4.60335">
        <ele>820</ele>
        <time>2025-09-07T09:44:42Z</time>
      </trkpt>
      <trkpt lat="46.18495" lon="4.60331">
        <ele>819.4</ele>
        <time>2025-09-07T09:44:43Z</time>
      </trkpt>
      <trkpt lat="46.18503" lon="4.60331">
        <ele>819</ele>
        <time>2025-09-07T09:44:44Z</time>
      </trkpt>
      <trkpt lat="46.18512" lon="4.60329">
        <ele>818.4</ele>
        <time>2025-09-07T09:44:45Z</time>
      </trkpt>
      <trkpt lat="46.1852" lon="4.60328">
        <ele>818</ele>
        <time>2025-09-07T09:44:46Z</time>
      </trkpt>
      <trkpt lat="46.18529" lon="4.60325">
        <ele>817.2</ele>
        <time>2025-09-07T09:44:47Z</time>
      </trkpt>
      <trkpt lat="46.1854" lon="4.60323">
        <ele>817</ele>
        <time>2025-09-07T09:44:48Z</time>
      </trkpt>
      <trkpt lat="46.18549" lon="4.60322">
        <ele>816.6</ele>
        <time>2025-09-07T09:44:49Z</time>
      </trkpt>
      <trkpt lat="46.18558" lon="4.60321">
        <ele>815.6</ele>
        <time>2025-09-07T09:44:50Z</time>
      </trkpt>
      <trkpt lat="46.18567" lon="4.6032">
        <ele>815.2</ele>
        <time>2025-09-07T09:44:51Z</time>
      </trkpt>
      <trkpt lat="46.18578" lon="4.6032">
        <ele>814</ele>
        <time>2025-09-07T09:44:52Z</time>
      </trkpt>
      <trkpt lat="46.18588" lon="4.60318">
        <ele>813.4</ele>
        <time>2025-09-07T09:44:53Z</time>
      </trkpt>
      <trkpt lat="46.18597" lon="4.60317">
        <ele>813</ele>
        <time>2025-09-07T09:44:54Z</time>
      </trkpt>
      <trkpt lat="46.18606" lon="4.60317">
        <ele>812.2</ele>
        <time>2025-09-07T09:44:55Z</time>
      </trkpt>
      <trkpt lat="46.18617" lon="4.60314">
        <ele>811.6</ele>
        <time>2025-09-07T09:44:56Z</time>
      </trkpt>
      <trkpt lat="46.18628" lon="4.60313">
        <ele>810.8</ele>
        <time>2025-09-07T09:44:57Z</time>
      </trkpt>
      <trkpt lat="46.18638" lon="4.6031">
        <ele>810.6</ele>
        <time>2025-09-07T09:44:58Z</time>
      </trkpt>
      <trkpt lat="46.18649" lon="4.60306">
        <ele>809.6</ele>
        <time>2025-09-07T09:44:59Z</time>
      </trkpt>
      <trkpt lat="46.1866" lon="4.60302">
        <ele>808.6</ele>
        <time>2025-09-07T09:45:00Z</time>
      </trkpt>
      <trkpt lat="46.18671" lon="4.60299">
        <ele>807.8</ele>
        <time>2025-09-07T09:45:01Z</time>
      </trkpt>
      <trkpt lat="46.18682" lon="4.60294">
        <ele>807</ele>
        <time>2025-09-07T09:45:02Z</time>
      </trkpt>
      <trkpt lat="46.18693" lon="4.6029">
        <ele>806.2</ele>
        <time>2025-09-07T09:45:03Z</time>
      </trkpt>
      <trkpt lat="46.18704" lon="4.60284">
        <ele>805.6</ele>
        <time>2025-09-07T09:45:04Z</time>
      </trkpt>
      <trkpt lat="46.18716" lon="4.60279">
        <ele>804.8</ele>
        <time>2025-09-07T09:45:05Z</time>
      </trkpt>
      <trkpt lat="46.18727" lon="4.60271">
        <ele>803.8</ele>
        <time>2025-09-07T09:45:06Z</time>
      </trkpt>
      <trkpt lat="46.18739" lon="4.60264">
        <ele>803</ele>
        <time>2025-09-07T09:45:07Z</time>
      </trkpt>
      <trkpt lat="46.1875" lon="4.60259">
        <ele>802</ele>
        <time>2025-09-07T09:45:08Z</time>
      </trkpt>
      <trkpt lat="46.18761" lon="4.60254">
        <ele>801.4</ele>
        <time>2025-09-07T09:45:09Z</time>
      </trkpt>
      <trkpt lat="46.18772" lon="4.60248">
        <ele>800.6</ele>
        <time>2025-09-07T09:45:10Z</time>
      </trkpt>
      <trkpt lat="46.18782" lon="4.60243">
        <ele>799.6</ele>
        <time>2025-09-07T09:45:11Z</time>
      </trkpt>
      <trkpt lat="46.18794" lon="4.60238">
        <ele>798.8</ele>
        <time>2025-09-07T09:45:12Z</time>
      </trkpt>
      <trkpt lat="46.18806" lon="4.60235">
        <ele>798</ele>
        <time>2025-09-07T09:45:13Z</time>
      </trkpt>
      <trkpt lat="46.18818" lon="4.6023">
        <ele>798</ele>
        <time>2025-09-07T09:45:14Z</time>
      </trkpt>
      <trkpt lat="46.18829" lon="4.60225">
        <ele>796.4</ele>
        <time>2025-09-07T09:45:15Z</time>
      </trkpt>
      <trkpt lat="46.18841" lon="4.6022">
        <ele>795.6</ele>
        <time>2025-09-07T09:45:16Z</time>
      </trkpt>
      <trkpt lat="46.18853" lon="4.60214">
        <ele>794.8</ele>
        <time>2025-09-07T09:45:17Z</time>
      </trkpt>
      <trkpt lat="46.18865" lon="4.60208">
        <ele>793.6</ele>
        <time>2025-09-07T09:45:18Z</time>
      </trkpt>
      <trkpt lat="46.18877" lon="4.60202">
        <ele>793</ele>
        <time>2025-09-07T09:45:19Z</time>
      </trkpt>
      <trkpt lat="46.189" lon="4.60189">
        <ele>792.2</ele>
        <time>2025-09-07T09:45:20Z</time>
      </trkpt>
      <trkpt lat="46.18912" lon="4.60183">
        <ele>791</ele>
        <time>2025-09-07T09:45:21Z</time>
      </trkpt>
      <trkpt lat="46.18924" lon="4.60178">
        <ele>790.2</ele>
        <time>2025-09-07T09:45:22Z</time>
      </trkpt>
      <trkpt lat="46.18935" lon="4.60174">
        <ele>789.8</ele>
        <time>2025-09-07T09:45:23Z</time>
      </trkpt>
      <trkpt lat="46.18945" lon="4.6017">
        <ele>789</ele>
        <time>2025-09-07T09:45:24Z</time>
      </trkpt>
      <trkpt lat="46.18954" lon="4.60167">
        <ele>788.6</ele>
        <time>2025-09-07T09:45:25Z</time>
      </trkpt>
      <trkpt lat="46.18964" lon="4.60166">
        <ele>788.6</ele>
        <time>2025-09-07T09:45:26Z</time>
      </trkpt>
      <trkpt lat="46.18974" lon="4.60166">
        <ele>788.4</ele>
        <time>2025-09-07T09:45:27Z</time>
      </trkpt>
      <trkpt lat="46.18983" lon="4.60167">
        <ele>788.4</ele>
        <time>2025-09-07T09:45:28Z</time>
      </trkpt>
      <trkpt lat="46.18991" lon="4.60167">
        <ele>787.8</ele>
        <time>2025-09-07T09:45:29Z</time>
      </trkpt>
      <trkpt lat="46.18999" lon="4.6017">
        <ele>787.4</ele>
        <time>2025-09-07T09:45:30Z</time>
      </trkpt>
      <trkpt lat="46.19007" lon="4.60171">
        <ele>787.4</ele>
        <time>2025-09-07T09:45:31Z</time>
      </trkpt>
      <trkpt lat="46.19014" lon="4.60173">
        <ele>787</ele>
        <time>2025-09-07T09:45:32Z</time>
      </trkpt>
      <trkpt lat="46.19025" lon="4.60176">
        <ele>786.4</ele>
        <time>2025-09-07T09:45:33Z</time>
      </trkpt>
      <trkpt lat="46.19034" lon="4.60178">
        <ele>786</ele>
        <time>2025-09-07T09:45:34Z</time>
      </trkpt>
      <trkpt lat="46.19043" lon="4.60181">
        <ele>785.2</ele>
        <time>2025-09-07T09:45:35Z</time>
      </trkpt>
      <trkpt lat="46.1905" lon="4.60186">
        <ele>784.8</ele>
        <time>2025-09-07T09:45:36Z</time>
      </trkpt>
      <trkpt lat="46.19054" lon="4.60191">
        <ele>784.2</ele>
        <time>2025-09-07T09:45:37Z</time>
      </trkpt>
      <trkpt lat="46.19059" lon="4.60194">
        <ele>783.6</ele>
        <time>2025-09-07T09:45:38Z</time>
      </trkpt>
      <trkpt lat="46.19063" lon="4.60197">
        <ele>783.2</ele>
        <time>2025-09-07T09:45:39Z</time>
      </trkpt>
      <trkpt lat="46.19065" lon="4.60199">
        <ele>782.8</ele>
        <time>2025-09-07T09:45:40Z</time>
      </trkpt>
      <trkpt lat="46.19065" lon="4.60202">
        <ele>782.4</ele>
        <time>2025-09-07T09:45:41Z</time>
      </trkpt>
      <trkpt lat="46.19066" lon="4.60203">
        <ele>782.2</ele>
        <time>2025-09-07T09:45:42Z</time>
      </trkpt>
      <trkpt lat="46.19068" lon="4.60205">
        <ele>781.8</ele>
        <time>2025-09-07T09:45:43Z</time>
      </trkpt>
      <trkpt lat="46.19071" lon="4.60206">
        <ele>781</ele>
        <time>2025-09-07T09:45:44Z</time>
      </trkpt>
      <trkpt lat="46.19073" lon="4.60206">
        <ele>780.6</ele>
        <time>2025-09-07T09:45:45Z</time>
      </trkpt>
      <trkpt lat="46.19078" lon="4.60204">
        <ele>780.4</ele>
        <time>2025-09-07T09:45:46Z</time>
      </trkpt>
      <trkpt lat="46.19082" lon="4.60206">
        <ele>780</ele>
        <time>2025-09-07T09:45:47Z</time>
      </trkpt>
      <trkpt lat="46.19086" lon="4.60212">
        <ele>779.8</ele>
        <time>2025-09-07T09:45:48Z</time>
      </trkpt>
      <trkpt lat="46.19091" lon="4.60217">
        <ele>779.2</ele>
        <time>2025-09-07T09:45:49Z</time>
      </trkpt>
      <trkpt lat="46.19094" lon="4.60222">
        <ele>778.8</ele>
        <time>2025-09-07T09:45:50Z</time>
      </trkpt>
      <trkpt lat="46.19099" lon="4.60228">
        <ele>778.2</ele>
        <time>2025-09-07T09:45:51Z</time>
      </trkpt>
      <trkpt lat="46.19104" lon="4.60235">
        <ele>777.8</ele>
        <time>2025-09-07T09:45:52Z</time>
      </trkpt>
      <trkpt lat="46.19108" lon="4.60242">
        <ele>777.2</ele>
        <time>2025-09-07T09:45:53Z</time>
      </trkpt>
      <trkpt lat="46.1911" lon="4.6025">
        <ele>776.4</ele>
        <time>2025-09-07T09:45:54Z</time>
      </trkpt>
      <trkpt lat="46.19115" lon="4.60257">
        <ele>776</ele>
        <time>2025-09-07T09:45:55Z</time>
      </trkpt>
      <trkpt lat="46.19119" lon="4.60264">
        <ele>775.4</ele>
        <time>2025-09-07T09:45:56Z</time>
      </trkpt>
      <trkpt lat="46.19122" lon="4.60272">
        <ele>775</ele>
        <time>2025-09-07T09:45:57Z</time>
      </trkpt>
      <trkpt lat="46.19124" lon="4.60278">
        <ele>775</ele>
        <time>2025-09-07T09:45:58Z</time>
      </trkpt>
      <trkpt lat="46.19127" lon="4.60285">
        <ele>774</ele>
        <time>2025-09-07T09:45:59Z</time>
      </trkpt>
      <trkpt lat="46.19131" lon="4.60292">
        <ele>773</ele>
        <time>2025-09-07T09:46:00Z</time>
      </trkpt>
      <trkpt lat="46.19133" lon="4.603">
        <ele>773.2</ele>
        <time>2025-09-07T09:46:01Z</time>
      </trkpt>
      <trkpt lat="46.19134" lon="4.60306">
        <ele>773.2</ele>
        <time>2025-09-07T09:46:02Z</time>
      </trkpt>
      <trkpt lat="46.19136" lon="4.6031">
        <ele>772.6</ele>
        <time>2025-09-07T09:46:03Z</time>
      </trkpt>
      <trkpt lat="46.19136" lon="4.60313">
        <ele>772</ele>
        <time>2025-09-07T09:46:04Z</time>
      </trkpt>
      <trkpt lat="46.19137" lon="4.60316">
        <ele>771.4</ele>
        <time>2025-09-07T09:46:05Z</time>
      </trkpt>
      <trkpt lat="46.19137" lon="4.6032">
        <ele>771</ele>
        <time>2025-09-07T09:46:06Z</time>
      </trkpt>
      <trkpt lat="46.19137" lon="4.60324">
        <ele>770.4</ele>
        <time>2025-09-07T09:46:07Z</time>
      </trkpt>
      <trkpt lat="46.19137" lon="4.60324">
        <ele>770</ele>
        <time>2025-09-07T09:46:08Z</time>
      </trkpt>
      <trkpt lat="46.19138" lon="4.60327">
        <ele>769.8</ele>
        <time>2025-09-07T09:46:09Z</time>
      </trkpt>
      <trkpt lat="46.19139" lon="4.60334">
        <ele>769.2</ele>
        <time>2025-09-07T09:46:10Z</time>
      </trkpt>
      <trkpt lat="46.19139" lon="4.60341">
        <ele>768.8</ele>
        <time>2025-09-07T09:46:11Z</time>
      </trkpt>
      <trkpt lat="46.1914" lon="4.60349">
        <ele>768.2</ele>
        <time>2025-09-07T09:46:12Z</time>
      </trkpt>
      <trkpt lat="46.1914" lon="4.60356">
        <ele>767.6</ele>
        <time>2025-09-07T09:46:13Z</time>
      </trkpt>
      <trkpt lat="46.1914" lon="4.60364">
        <ele>767.2</ele>
        <time>2025-09-07T09:46:14Z</time>
      </trkpt>
      <trkpt lat="46.19139" lon="4.6037">
        <ele>766.6</ele>
        <time>2025-09-07T09:46:15Z</time>
      </trkpt>
      <trkpt lat="46.19139" lon="4.60375">
        <ele>766.2</ele>
        <time>2025-09-07T09:46:16Z</time>
      </trkpt>
      <trkpt lat="46.1914" lon="4.60378">
        <ele>765.6</ele>
        <time>2025-09-07T09:46:17Z</time>
      </trkpt>
      <trkpt lat="46.19143" lon="4.60379">
        <ele>765.4</ele>
        <time>2025-09-07T09:46:18Z</time>
      </trkpt>
      <trkpt lat="46.19145" lon="4.60379">
        <ele>764.8</ele>
        <time>2025-09-07T09:46:19Z</time>
      </trkpt>
      <trkpt lat="46.1915" lon="4.60375">
        <ele>764.4</ele>
        <time>2025-09-07T09:46:20Z</time>
      </trkpt>
      <trkpt lat="46.19151" lon="4.60371">
        <ele>764.4</ele>
        <time>2025-09-07T09:46:21Z</time>
      </trkpt>
      <trkpt lat="46.19152" lon="4.60367">
        <ele>764.4</ele>
        <time>2025-09-07T09:46:22Z</time>
      </trkpt>
      <trkpt lat="46.19152" lon="4.60364">
        <ele>764.4</ele>
        <time>2025-09-07T09:46:23Z</time>
      </trkpt>
      <trkpt lat="46.19153" lon="4.60359">
        <ele>764.4</ele>
        <time>2025-09-07T09:46:24Z</time>
      </trkpt>
      <trkpt lat="46.19154" lon="4.60354">
        <ele>764.4</ele>
        <time>2025-09-07T09:46:25Z</time>
      </trkpt>
      <trkpt lat="46.19154" lon="4.60349">
        <ele>764.4</ele>
        <time>2025-09-07T09:46:26Z</time>
      </trkpt>
      <trkpt lat="46.19155" lon="4.60344">
        <ele>764.4</ele>
        <time>2025-09-07T09:46:27Z</time>
      </trkpt>
      <trkpt lat="46.19153" lon="4.60341">
        <ele>764.4</ele>
        <time>2025-09-07T09:46:28Z</time>
      </trkpt>
      <trkpt lat="46.19153" lon="4.60334">
        <ele>764.6</ele>
        <time>2025-09-07T09:46:29Z</time>
      </trkpt>
      <trkpt lat="46.19154" lon="4.60329">
        <ele>764.6</ele>
        <time>2025-09-07T09:46:30Z</time>
      </trkpt>
      <trkpt lat="46.19155" lon="4.60324">
        <ele>765</ele>
        <time>2025-09-07T09:46:31Z</time>
      </trkpt>
      <trkpt lat="46.19156" lon="4.60318">
        <ele>765</ele>
        <time>2025-09-07T09:46:32Z</time>
      </trkpt>
      <trkpt lat="46.19156" lon="4.60313">
        <ele>765.2</ele>
        <time>2025-09-07T09:46:33Z</time>
      </trkpt>
      <trkpt lat="46.19156" lon="4.60308">
        <ele>765.2</ele>
        <time>2025-09-07T09:46:34Z</time>
      </trkpt>
      <trkpt lat="46.19156" lon="4.60303">
        <ele>765.2</ele>
        <time>2025-09-07T09:46:35Z</time>
      </trkpt>
      <trkpt lat="46.19155" lon="4.60298">
        <ele>765.2</ele>
        <time>2025-09-07T09:46:36Z</time>
      </trkpt>
      <trkpt lat="46.19156" lon="4.60293">
        <ele>765.8</ele>
        <time>2025-09-07T09:46:37Z</time>
      </trkpt>
      <trkpt lat="46.19156" lon="4.60287">
        <ele>766</ele>
        <time>2025-09-07T09:46:38Z</time>
      </trkpt>
      <trkpt lat="46.19158" lon="4.60283">
        <ele>766</ele>
        <time>2025-09-07T09:46:39Z</time>
      </trkpt>
      <trkpt lat="46.19158" lon="4.60278">
        <ele>766.2</ele>
        <time>2025-09-07T09:46:40Z</time>
      </trkpt>
      <trkpt lat="46.19158" lon="4.60274">
        <ele>766.4</ele>
        <time>2025-09-07T09:46:41Z</time>
      </trkpt>
      <trkpt lat="46.19159" lon="4.6027">
        <ele>766.6</ele>
        <time>2025-09-07T09:46:42Z</time>
      </trkpt>
      <trkpt lat="46.19159" lon="4.60266">
        <ele>766.6</ele>
        <time>2025-09-07T09:46:43Z</time>
      </trkpt>
      <trkpt lat="46.19159" lon="4.60261">
        <ele>767</ele>
        <time>2025-09-07T09:46:44Z</time>
      </trkpt>
      <trkpt lat="46.19159" lon="4.60256">
        <ele>767</ele>
        <time>2025-09-07T09:46:45Z</time>
      </trkpt>
      <trkpt lat="46.19159" lon="4.60252">
        <ele>767.4</ele>
        <time>2025-09-07T09:46:46Z</time>
      </trkpt>
      <trkpt lat="46.19159" lon="4.60248">
        <ele>767.4</ele>
        <time>2025-09-07T09:46:47Z</time>
      </trkpt>
      <trkpt lat="46.19159" lon="4.60244">
        <ele>767.4</ele>
        <time>2025-09-07T09:46:48Z</time>
      </trkpt>
      <trkpt lat="46.19158" lon="4.6024">
        <ele>767.4</ele>
        <time>2025-09-07T09:46:49Z</time>
      </trkpt>
      <trkpt lat="46.19158" lon="4.60237">
        <ele>767.6</ele>
        <time>2025-09-07T09:46:50Z</time>
      </trkpt>
      <trkpt lat="46.19158" lon="4.60235">
        <ele>767.6</ele>
        <time>2025-09-07T09:46:51Z</time>
      </trkpt>
      <trkpt lat="46.19158" lon="4.60234">
        <ele>767.6</ele>
        <time>2025-09-07T09:46:52Z</time>
      </trkpt>
      <trkpt lat="46.19159" lon="4.60233">
        <ele>767.6</ele>
        <time>2025-09-07T09:46:53Z</time>
      </trkpt>
      <trkpt lat="46.1916" lon="4.60232">
        <ele>767.6</ele>
        <time>2025-09-07T09:46:54Z</time>
      </trkpt>
      <trkpt lat="46.19162" lon="4.60232">
        <ele>767.6</ele>
        <time>2025-09-07T09:46:55Z</time>
      </trkpt>
      <trkpt lat="46.19164" lon="4.60233">
        <ele>767.4</ele>
        <time>2025-09-07T09:46:56Z</time>
      </trkpt>
      <trkpt lat="46.19166" lon="4.60234">
        <ele>767.2</ele>
        <time>2025-09-07T09:46:57Z</time>
      </trkpt>
      <trkpt lat="46.19167" lon="4.60235">
        <ele>766.8</ele>
        <time>2025-09-07T09:46:58Z</time>
      </trkpt>
      <trkpt lat="46.19169" lon="4.60235">
        <ele>766.8</ele>
        <time>2025-09-07T09:46:59Z</time>
      </trkpt>
      <trkpt lat="46.1917" lon="4.60235">
        <ele>766.4</ele>
        <time>2025-09-07T09:47:00Z</time>
      </trkpt>
      <trkpt lat="46.19171" lon="4.60235">
        <ele>766</ele>
        <time>2025-09-07T09:47:01Z</time>
      </trkpt>
      <trkpt lat="46.19172" lon="4.60235">
        <ele>765.2</ele>
        <time>2025-09-07T09:47:02Z</time>
      </trkpt>
      <trkpt lat="46.19172" lon="4.60236">
        <ele>765.4</ele>
        <time>2025-09-07T09:47:03Z</time>
      </trkpt>
      <trkpt lat="46.19173" lon="4.60238">
        <ele>765.4</ele>
        <time>2025-09-07T09:47:07Z</time>
      </trkpt>
      <trkpt lat="46.19174" lon="4.6024">
        <ele>765.2</ele>
        <time>2025-09-07T09:47:08Z</time>
      </trkpt>
      <trkpt lat="46.19174" lon="4.60242">
        <ele>765</ele>
        <time>2025-09-07T09:47:09Z</time>
      </trkpt>
      <trkpt lat="46.19176" lon="4.60244">
        <ele>764.4</ele>
        <time>2025-09-07T09:47:10Z</time>
      </trkpt>
      <trkpt lat="46.19177" lon="4.60245">
        <ele>763.8</ele>
        <time>2025-09-07T09:47:11Z</time>
      </trkpt>
      <trkpt lat="46.19179" lon="4.60247">
        <ele>763.4</ele>
        <time>2025-09-07T09:47:12Z</time>
      </trkpt>
      <trkpt lat="46.19182" lon="4.60248">
        <ele>762.8</ele>
        <time>2025-09-07T09:47:13Z</time>
      </trkpt>
      <trkpt lat="46.19185" lon="4.60249">
        <ele>762.8</ele>
        <time>2025-09-07T09:47:14Z</time>
      </trkpt>
      <trkpt lat="46.19188" lon="4.6025">
        <ele>762.6</ele>
        <time>2025-09-07T09:47:15Z</time>
      </trkpt>
      <trkpt lat="46.1919" lon="4.60251">
        <ele>761.8</ele>
        <time>2025-09-07T09:47:16Z</time>
      </trkpt>
      <trkpt lat="46.19193" lon="4.60252">
        <ele>761.2</ele>
        <time>2025-09-07T09:47:17Z</time>
      </trkpt>
      <trkpt lat="46.19196" lon="4.60254">
        <ele>760.8</ele>
        <time>2025-09-07T09:47:18Z</time>
      </trkpt>
      <trkpt lat="46.19198" lon="4.60255">
        <ele>760.4</ele>
        <time>2025-09-07T09:47:19Z</time>
      </trkpt>
      <trkpt lat="46.19199" lon="4.60256">
        <ele>760</ele>
        <time>2025-09-07T09:47:20Z</time>
      </trkpt>
      <trkpt lat="46.19201" lon="4.60258">
        <ele>759.4</ele>
        <time>2025-09-07T09:47:21Z</time>
      </trkpt>
      <trkpt lat="46.19202" lon="4.60259">
        <ele>759.2</ele>
        <time>2025-09-07T09:47:22Z</time>
      </trkpt>
      <trkpt lat="46.19203" lon="4.6026">
        <ele>758.8</ele>
        <time>2025-09-07T09:47:23Z</time>
      </trkpt>
      <trkpt lat="46.19205" lon="4.60261">
        <ele>758.4</ele>
        <time>2025-09-07T09:47:24Z</time>
      </trkpt>
      <trkpt lat="46.19207" lon="4.60262">
        <ele>758.2</ele>
        <time>2025-09-07T09:47:25Z</time>
      </trkpt>
      <trkpt lat="46.19208" lon="4.60262">
        <ele>758.2</ele>
        <time>2025-09-07T09:47:26Z</time>
      </trkpt>
      <trkpt lat="46.19209" lon="4.60264">
        <ele>757.2</ele>
        <time>2025-09-07T09:47:29Z</time>
      </trkpt>
      <trkpt lat="46.1921" lon="4.60266">
        <ele>756.8</ele>
        <time>2025-09-07T09:47:30Z</time>
      </trkpt>
      <trkpt lat="46.19212" lon="4.60266">
        <ele>756.4</ele>
        <time>2025-09-07T09:47:31Z</time>
      </trkpt>
      <trkpt lat="46.19213" lon="4.60267">
        <ele>756.2</ele>
        <time>2025-09-07T09:47:32Z</time>
      </trkpt>
      <trkpt lat="46.19215" lon="4.60266">
        <ele>755.8</ele>
        <time>2025-09-07T09:47:33Z</time>
      </trkpt>
      <trkpt lat="46.19218" lon="4.60266">
        <ele>755.4</ele>
        <time>2025-09-07T09:47:34Z</time>
      </trkpt>
      <trkpt lat="46.19221" lon="4.60266">
        <ele>755</ele>
        <time>2025-09-07T09:47:35Z</time>
      </trkpt>
      <trkpt lat="46.19224" lon="4.60267">
        <ele>754.6</ele>
        <time>2025-09-07T09:47:36Z</time>
      </trkpt>
      <trkpt lat="46.19227" lon="4.60268">
        <ele>754.6</ele>
        <time>2025-09-07T09:47:37Z</time>
      </trkpt>
      <trkpt lat="46.19229" lon="4.60268">
        <ele>753.8</ele>
        <time>2025-09-07T09:47:38Z</time>
      </trkpt>
      <trkpt lat="46.1923" lon="4.60267">
        <ele>753.8</ele>
        <time>2025-09-07T09:47:39Z</time>
      </trkpt>
      <trkpt lat="46.19231" lon="4.60268">
        <ele>753.2</ele>
        <time>2025-09-07T09:47:40Z</time>
      </trkpt>
      <trkpt lat="46.19233" lon="4.60268">
        <ele>752.8</ele>
        <time>2025-09-07T09:47:41Z</time>
      </trkpt>
      <trkpt lat="46.19235" lon="4.6027">
        <ele>752.4</ele>
        <time>2025-09-07T09:47:42Z</time>
      </trkpt>
      <trkpt lat="46.19237" lon="4.60272">
        <ele>752</ele>
        <time>2025-09-07T09:47:43Z</time>
      </trkpt>
      <trkpt lat="46.19239" lon="4.60274">
        <ele>752</ele>
        <time>2025-09-07T09:47:44Z</time>
      </trkpt>
      <trkpt lat="46.19241" lon="4.60277">
        <ele>751.6</ele>
        <time>2025-09-07T09:47:45Z</time>
      </trkpt>
      <trkpt lat="46.19244" lon="4.60278">
        <ele>751</ele>
        <time>2025-09-07T09:47:46Z</time>
      </trkpt>
      <trkpt lat="46.19246" lon="4.6028">
        <ele>750.8</ele>
        <time>2025-09-07T09:47:47Z</time>
      </trkpt>
      <trkpt lat="46.19247" lon="4.60282">
        <ele>750.6</ele>
        <time>2025-09-07T09:47:48Z</time>
      </trkpt>
      <trkpt lat="46.19248" lon="4.60284">
        <ele>750</ele>
        <time>2025-09-07T09:47:49Z</time>
      </trkpt>
      <trkpt lat="46.19249" lon="4.60286">
        <ele>749.4</ele>
        <time>2025-09-07T09:47:50Z</time>
      </trkpt>
      <trkpt lat="46.1925" lon="4.60289">
        <ele>749</ele>
        <time>2025-09-07T09:47:51Z</time>
      </trkpt>
      <trkpt lat="46.1925" lon="4.60291">
        <ele>748.6</ele>
        <time>2025-09-07T09:47:52Z</time>
      </trkpt>
      <trkpt lat="46.19251" lon="4.60293">
        <ele>748.2</ele>
        <time>2025-09-07T09:47:53Z</time>
      </trkpt>
      <trkpt lat="46.19252" lon="4.60295">
        <ele>747.4</ele>
        <time>2025-09-07T09:47:54Z</time>
      </trkpt>
      <trkpt lat="46.19254" lon="4.60298">
        <ele>747.2</ele>
        <time>2025-09-07T09:47:55Z</time>
      </trkpt>
      <trkpt lat="46.19256" lon="4.60302">
        <ele>746.8</ele>
        <time>2025-09-07T09:47:56Z</time>
      </trkpt>
      <trkpt lat="46.19257" lon="4.60304">
        <ele>746.4</ele>
        <time>2025-09-07T09:47:57Z</time>
      </trkpt>
      <trkpt lat="46.19257" lon="4.60305">
        <ele>746</ele>
        <time>2025-09-07T09:47:58Z</time>
      </trkpt>
      <trkpt lat="46.19258" lon="4.60308">
        <ele>745.6</ele>
        <time>2025-09-07T09:47:59Z</time>
      </trkpt>
      <trkpt lat="46.19258" lon="4.60309">
        <ele>745.2</ele>
        <time>2025-09-07T09:48:00Z</time>
      </trkpt>
      <trkpt lat="46.19259" lon="4.60311">
        <ele>745.2</ele>
        <time>2025-09-07T09:48:01Z</time>
      </trkpt>
      <trkpt lat="46.19259" lon="4.60314">
        <ele>744.8</ele>
        <time>2025-09-07T09:48:02Z</time>
      </trkpt>
      <trkpt lat="46.19258" lon="4.60315">
        <ele>744</ele>
        <time>2025-09-07T09:48:03Z</time>
      </trkpt>
      <trkpt lat="46.19258" lon="4.60317">
        <ele>744</ele>
        <time>2025-09-07T09:48:04Z</time>
      </trkpt>
      <trkpt lat="46.19258" lon="4.60318">
        <ele>743.6</ele>
        <time>2025-09-07T09:48:05Z</time>
      </trkpt>
      <trkpt lat="46.19258" lon="4.60318">
        <ele>743.6</ele>
        <time>2025-09-07T09:48:06Z</time>
      </trkpt>
      <trkpt lat="46.19258" lon="4.60318">
        <ele>743.6</ele>
        <time>2025-09-07T09:48:07Z</time>
      </trkpt>
      <trkpt lat="46.19259" lon="4.60324">
        <ele>743.2</ele>
        <time>2025-09-07T09:48:08Z</time>
      </trkpt>
      <trkpt lat="46.19259" lon="4.60326">
        <ele>743.2</ele>
        <time>2025-09-07T09:48:09Z</time>
      </trkpt>
      <trkpt lat="46.19258" lon="4.60328">
        <ele>743</ele>
        <time>2025-09-07T09:48:10Z</time>
      </trkpt>
      <trkpt lat="46.19258" lon="4.60329">
        <ele>742.6</ele>
        <time>2025-09-07T09:48:11Z</time>
      </trkpt>
      <trkpt lat="46.19258" lon="4.60329">
        <ele>742.6</ele>
        <time>2025-09-07T09:48:12Z</time>
      </trkpt>
      <trkpt lat="46.19258" lon="4.60329">
        <ele>742.4</ele>
        <time>2025-09-07T09:48:13Z</time>
      </trkpt>
      <trkpt lat="46.19259" lon="4.60329">
        <ele>742.4</ele>
        <time>2025-09-07T09:48:14Z</time>
      </trkpt>
      <trkpt lat="46.19259" lon="4.60329">
        <ele>742</ele>
        <time>2025-09-07T09:48:15Z</time>
      </trkpt>
      <trkpt lat="46.1926" lon="4.60331">
        <ele>742</ele>
        <time>2025-09-07T09:48:16Z</time>
      </trkpt>
      <trkpt lat="46.19261" lon="4.60332">
        <ele>742</ele>
        <time>2025-09-07T09:48:17Z</time>
      </trkpt>
      <trkpt lat="46.19262" lon="4.60332">
        <ele>741.4</ele>
        <time>2025-09-07T09:48:18Z</time>
      </trkpt>
      <trkpt lat="46.19264" lon="4.60333">
        <ele>741</ele>
        <time>2025-09-07T09:48:19Z</time>
      </trkpt>
      <trkpt lat="46.19265" lon="4.60334">
        <ele>741</ele>
        <time>2025-09-07T09:48:20Z</time>
      </trkpt>
      <trkpt lat="46.19266" lon="4.60334">
        <ele>740.4</ele>
        <time>2025-09-07T09:48:21Z</time>
      </trkpt>
      <trkpt lat="46.19266" lon="4.60335">
        <ele>740.4</ele>
        <time>2025-09-07T09:48:22Z</time>
      </trkpt>
      <trkpt lat="46.19267" lon="4.60337">
        <ele>740</ele>
        <time>2025-09-07T09:48:23Z</time>
      </trkpt>
      <trkpt lat="46.19269" lon="4.60338">
        <ele>740</ele>
        <time>2025-09-07T09:48:24Z</time>
      </trkpt>
      <trkpt lat="46.1927" lon="4.60339">
        <ele>739.8</ele>
        <time>2025-09-07T09:48:25Z</time>
      </trkpt>
      <trkpt lat="46.19272" lon="4.60339">
        <ele>739.4</ele>
        <time>2025-09-07T09:48:26Z</time>
      </trkpt>
      <trkpt lat="46.19273" lon="4.6034">
        <ele>739.4</ele>
        <time>2025-09-07T09:48:27Z</time>
      </trkpt>
      <trkpt lat="46.19274" lon="4.60341">
        <ele>739.2</ele>
        <time>2025-09-07T09:48:28Z</time>
      </trkpt>
      <trkpt lat="46.19275" lon="4.60342">
        <ele>739.2</ele>
        <time>2025-09-07T09:48:29Z</time>
      </trkpt>
      <trkpt lat="46.19275" lon="4.60344">
        <ele>738.8</ele>
        <time>2025-09-07T09:48:30Z</time>
      </trkpt>
      <trkpt lat="46.19276" lon="4.60346">
        <ele>738.4</ele>
        <time>2025-09-07T09:48:31Z</time>
      </trkpt>
      <trkpt lat="46.19276" lon="4.60348">
        <ele>738.2</ele>
        <time>2025-09-07T09:48:32Z</time>
      </trkpt>
      <trkpt lat="46.19276" lon="4.6035">
        <ele>738.2</ele>
        <time>2025-09-07T09:48:33Z</time>
      </trkpt>
      <trkpt lat="46.19276" lon="4.6035">
        <ele>737.4</ele>
        <time>2025-09-07T09:48:34Z</time>
      </trkpt>
      <trkpt lat="46.19276" lon="4.60351">
        <ele>737.4</ele>
        <time>2025-09-07T09:48:35Z</time>
      </trkpt>
      <trkpt lat="46.19276" lon="4.60353">
        <ele>737.4</ele>
        <time>2025-09-07T09:48:36Z</time>
      </trkpt>
      <trkpt lat="46.19275" lon="4.60356">
        <ele>737.4</ele>
        <time>2025-09-07T09:48:37Z</time>
      </trkpt>
      <trkpt lat="46.19275" lon="4.60359">
        <ele>737</ele>
        <time>2025-09-07T09:48:38Z</time>
      </trkpt>
      <trkpt lat="46.19275" lon="4.60361">
        <ele>736.8</ele>
        <time>2025-09-07T09:48:39Z</time>
      </trkpt>
      <trkpt lat="46.19276" lon="4.60363">
        <ele>736.8</ele>
        <time>2025-09-07T09:48:40Z</time>
      </trkpt>
      <trkpt lat="46.19276" lon="4.60364">
        <ele>736.4</ele>
        <time>2025-09-07T09:48:41Z</time>
      </trkpt>
      <trkpt lat="46.19278" lon="4.60365">
        <ele>736</ele>
        <time>2025-09-07T09:48:42Z</time>
      </trkpt>
      <trkpt lat="46.1928" lon="4.60366">
        <ele>735.8</ele>
        <time>2025-09-07T09:48:43Z</time>
      </trkpt>
      <trkpt lat="46.19281" lon="4.60366">
        <ele>735.8</ele>
        <time>2025-09-07T09:48:44Z</time>
      </trkpt>
      <trkpt lat="46.19281" lon="4.60367">
        <ele>734.8</ele>
        <time>2025-09-07T09:48:45Z</time>
      </trkpt>
      <trkpt lat="46.19281" lon="4.60367">
        <ele>734.8</ele>
        <time>2025-09-07T09:48:46Z</time>
      </trkpt>
      <trkpt lat="46.19281" lon="4.60369">
        <ele>734.8</ele>
        <time>2025-09-07T09:48:47Z</time>
      </trkpt>
      <trkpt lat="46.19281" lon="4.6037">
        <ele>734.8</ele>
        <time>2025-09-07T09:48:48Z</time>
      </trkpt>
      <trkpt lat="46.19281" lon="4.60371">
        <ele>734.4</ele>
        <time>2025-09-07T09:48:49Z</time>
      </trkpt>
      <trkpt lat="46.19282" lon="4.60373">
        <ele>734.2</ele>
        <time>2025-09-07T09:48:50Z</time>
      </trkpt>
      <trkpt lat="46.19283" lon="4.60375">
        <ele>733.8</ele>
        <time>2025-09-07T09:48:51Z</time>
      </trkpt>
      <trkpt lat="46.19284" lon="4.60376">
        <ele>733.8</ele>
        <time>2025-09-07T09:48:52Z</time>
      </trkpt>
      <trkpt lat="46.19285" lon="4.60378">
        <ele>733.6</ele>
        <time>2025-09-07T09:48:53Z</time>
      </trkpt>
      <trkpt lat="46.19285" lon="4.60379">
        <ele>733.6</ele>
        <time>2025-09-07T09:48:54Z</time>
      </trkpt>
      <trkpt lat="46.19285" lon="4.60379">
        <ele>733.6</ele>
        <time>2025-09-07T09:48:55Z</time>
      </trkpt>
      <trkpt lat="46.19285" lon="4.6038">
        <ele>732.8</ele>
        <time>2025-09-07T09:48:56Z</time>
      </trkpt>
      <trkpt lat="46.19285" lon="4.60384">
        <ele>730.4</ele>
        <time>2025-09-07T09:49:02Z</time>
      </trkpt>
      <trkpt lat="46.19284" lon="4.60388">
        <ele>729.8</ele>
        <time>2025-09-07T09:49:03Z</time>
      </trkpt>
      <trkpt lat="46.19283" lon="4.6039">
        <ele>730</ele>
        <time>2025-09-07T09:49:04Z</time>
      </trkpt>
      <trkpt lat="46.19283" lon="4.60393">
        <ele>729.8</ele>
        <time>2025-09-07T09:49:05Z</time>
      </trkpt>
      <trkpt lat="46.19282" lon="4.60394">
        <ele>729.8</ele>
        <time>2025-09-07T09:49:06Z</time>
      </trkpt>
      <trkpt lat="46.19281" lon="4.60395">
        <ele>729.4</ele>
        <time>2025-09-07T09:49:07Z</time>
      </trkpt>
      <trkpt lat="46.1928" lon="4.60397">
        <ele>729.2</ele>
        <time>2025-09-07T09:49:08Z</time>
      </trkpt>
      <trkpt lat="46.19279" lon="4.604">
        <ele>729.2</ele>
        <time>2025-09-07T09:49:09Z</time>
      </trkpt>
      <trkpt lat="46.19278" lon="4.60401">
        <ele>729.2</ele>
        <time>2025-09-07T09:49:10Z</time>
      </trkpt>
      <trkpt lat="46.19277" lon="4.60403">
        <ele>728.8</ele>
        <time>2025-09-07T09:49:11Z</time>
      </trkpt>
      <trkpt lat="46.19276" lon="4.60406">
        <ele>728.8</ele>
        <time>2025-09-07T09:49:12Z</time>
      </trkpt>
      <trkpt lat="46.19276" lon="4.60408">
        <ele>728.4</ele>
        <time>2025-09-07T09:49:13Z</time>
      </trkpt>
      <trkpt lat="46.19276" lon="4.6041">
        <ele>728.4</ele>
        <time>2025-09-07T09:49:14Z</time>
      </trkpt>
      <trkpt lat="46.19275" lon="4.60413">
        <ele>728</ele>
        <time>2025-09-07T09:49:15Z</time>
      </trkpt>
      <trkpt lat="46.19274" lon="4.60415">
        <ele>728</ele>
        <time>2025-09-07T09:49:16Z</time>
      </trkpt>
      <trkpt lat="46.19274" lon="4.60418">
        <ele>727.6</ele>
        <time>2025-09-07T09:49:17Z</time>
      </trkpt>
      <trkpt lat="46.19274" lon="4.6042">
        <ele>728</ele>
        <time>2025-09-07T09:49:18Z</time>
      </trkpt>
      <trkpt lat="46.19275" lon="4.60422">
        <ele>727.8</ele>
        <time>2025-09-07T09:49:19Z</time>
      </trkpt>
      <trkpt lat="46.19276" lon="4.60423">
        <ele>727.2</ele>
        <time>2025-09-07T09:49:20Z</time>
      </trkpt>
      <trkpt lat="46.19277" lon="4.60426">
        <ele>726.4</ele>
        <time>2025-09-07T09:49:21Z</time>
      </trkpt>
      <trkpt lat="46.19278" lon="4.60429">
        <ele>726.4</ele>
        <time>2025-09-07T09:49:22Z</time>
      </trkpt>
      <trkpt lat="46.19278" lon="4.60431">
        <ele>726.4</ele>
        <time>2025-09-07T09:49:23Z</time>
      </trkpt>
      <trkpt lat="46.19278" lon="4.60432">
        <ele>726</ele>
        <time>2025-09-07T09:49:24Z</time>
      </trkpt>
      <trkpt lat="46.19278" lon="4.60433">
        <ele>725.8</ele>
        <time>2025-09-07T09:49:25Z</time>
      </trkpt>
      <trkpt lat="46.19279" lon="4.60434">
        <ele>725.8</ele>
        <time>2025-09-07T09:49:26Z</time>
      </trkpt>
      <trkpt lat="46.1928" lon="4.60434">
        <ele>725.4</ele>
        <time>2025-09-07T09:49:27Z</time>
      </trkpt>
      <trkpt lat="46.1928" lon="4.60435">
        <ele>725.4</ele>
        <time>2025-09-07T09:49:28Z</time>
      </trkpt>
      <trkpt lat="46.19281" lon="4.60437">
        <ele>724.8</ele>
        <time>2025-09-07T09:49:29Z</time>
      </trkpt>
      <trkpt lat="46.19281" lon="4.60439">
        <ele>724.4</ele>
        <time>2025-09-07T09:49:30Z</time>
      </trkpt>
      <trkpt lat="46.19282" lon="4.60439">
        <ele>724.4</ele>
        <time>2025-09-07T09:49:31Z</time>
      </trkpt>
      <trkpt lat="46.19282" lon="4.60441">
        <ele>724</ele>
        <time>2025-09-07T09:49:32Z</time>
      </trkpt>
      <trkpt lat="46.19282" lon="4.60442">
        <ele>723.6</ele>
        <time>2025-09-07T09:49:33Z</time>
      </trkpt>
      <trkpt lat="46.19283" lon="4.60443">
        <ele>723.4</ele>
        <time>2025-09-07T09:49:34Z</time>
      </trkpt>
      <trkpt lat="46.19284" lon="4.60444">
        <ele>723.4</ele>
        <time>2025-09-07T09:49:35Z</time>
      </trkpt>
      <trkpt lat="46.19285" lon="4.60445">
        <ele>722.6</ele>
        <time>2025-09-07T09:49:36Z</time>
      </trkpt>
      <trkpt lat="46.19286" lon="4.60446">
        <ele>722.4</ele>
        <time>2025-09-07T09:49:37Z</time>
      </trkpt>
      <trkpt lat="46.19287" lon="4.60446">
        <ele>722.4</ele>
        <time>2025-09-07T09:49:38Z</time>
      </trkpt>
      <trkpt lat="46.19287" lon="4.60447">
        <ele>722.4</ele>
        <time>2025-09-07T09:49:39Z</time>
      </trkpt>
      <trkpt lat="46.19288" lon="4.60447">
        <ele>722</ele>
        <time>2025-09-07T09:49:40Z</time>
      </trkpt>
      <trkpt lat="46.19288" lon="4.60448">
        <ele>722</ele>
        <time>2025-09-07T09:49:41Z</time>
      </trkpt>
      <trkpt lat="46.19289" lon="4.60448">
        <ele>722</ele>
        <time>2025-09-07T09:49:42Z</time>
      </trkpt>
      <trkpt lat="46.19289" lon="4.60449">
        <ele>722</ele>
        <time>2025-09-07T09:49:43Z</time>
      </trkpt>
      <trkpt lat="46.1929" lon="4.60449">
        <ele>722</ele>
        <time>2025-09-07T09:49:44Z</time>
      </trkpt>
      <trkpt lat="46.1929" lon="4.6045">
        <ele>721.2</ele>
        <time>2025-09-07T09:49:45Z</time>
      </trkpt>
      <trkpt lat="46.1929" lon="4.60451">
        <ele>721</ele>
        <time>2025-09-07T09:49:46Z</time>
      </trkpt>
      <trkpt lat="46.1929" lon="4.60452">
        <ele>720.6</ele>
        <time>2025-09-07T09:49:47Z</time>
      </trkpt>
      <trkpt lat="46.19291" lon="4.60453">
        <ele>720.4</ele>
        <time>2025-09-07T09:49:48Z</time>
      </trkpt>
      <trkpt lat="46.19291" lon="4.60454">
        <ele>720.4</ele>
        <time>2025-09-07T09:49:49Z</time>
      </trkpt>
      <trkpt lat="46.19292" lon="4.60454">
        <ele>720.4</ele>
        <time>2025-09-07T09:49:50Z</time>
      </trkpt>
      <trkpt lat="46.19293" lon="4.60454">
        <ele>719.8</ele>
        <time>2025-09-07T09:49:51Z</time>
      </trkpt>
      <trkpt lat="46.19293" lon="4.60455">
        <ele>719.8</ele>
        <time>2025-09-07T09:49:52Z</time>
      </trkpt>
      <trkpt lat="46.19293" lon="4.60456">
        <ele>719.6</ele>
        <time>2025-09-07T09:49:53Z</time>
      </trkpt>
      <trkpt lat="46.19293" lon="4.60457">
        <ele>719.2</ele>
        <time>2025-09-07T09:49:54Z</time>
      </trkpt>
      <trkpt lat="46.19293" lon="4.60459">
        <ele>719</ele>
        <time>2025-09-07T09:49:55Z</time>
      </trkpt>
      <trkpt lat="46.19293" lon="4.6046">
        <ele>719</ele>
        <time>2025-09-07T09:49:56Z</time>
      </trkpt>
      <trkpt lat="46.19293" lon="4.60461">
        <ele>719</ele>
        <time>2025-09-07T09:49:57Z</time>
      </trkpt>
      <trkpt lat="46.19294" lon="4.60462">
        <ele>719.6</ele>
        <time>2025-09-07T09:49:58Z</time>
      </trkpt>
      <trkpt lat="46.19295" lon="4.60462">
        <ele>719.2</ele>
        <time>2025-09-07T09:49:59Z</time>
      </trkpt>
      <trkpt lat="46.19295" lon="4.60462">
        <ele>719.2</ele>
        <time>2025-09-07T09:50:00Z</time>
      </trkpt>
      <trkpt lat="46.19296" lon="4.60462">
        <ele>718.6</ele>
        <time>2025-09-07T09:50:01Z</time>
      </trkpt>
      <trkpt lat="46.19297" lon="4.60463">
        <ele>718.2</ele>
        <time>2025-09-07T09:50:02Z</time>
      </trkpt>
      <trkpt lat="46.19297" lon="4.60464">
        <ele>718.2</ele>
        <time>2025-09-07T09:50:03Z</time>
      </trkpt>
      <trkpt lat="46.19298" lon="4.60465">
        <ele>718.2</ele>
        <time>2025-09-07T09:50:04Z</time>
      </trkpt>
      <trkpt lat="46.19298" lon="4.60466">
        <ele>718.2</ele>
        <time>2025-09-07T09:50:05Z</time>
      </trkpt>
      <trkpt lat="46.19299" lon="4.60468">
        <ele>717.4</ele>
        <time>2025-09-07T09:50:06Z</time>
      </trkpt>
      <trkpt lat="46.19299" lon="4.60469">
        <ele>716.2</ele>
        <time>2025-09-07T09:50:07Z</time>
      </trkpt>
      <trkpt lat="46.193" lon="4.6047">
        <ele>716.2</ele>
        <time>2025-09-07T09:50:08Z</time>
      </trkpt>
      <trkpt lat="46.193" lon="4.60472">
        <ele>716.2</ele>
        <time>2025-09-07T09:50:09Z</time>
      </trkpt>
      <trkpt lat="46.19301" lon="4.60473">
        <ele>716.2</ele>
        <time>2025-09-07T09:50:10Z</time>
      </trkpt>
      <trkpt lat="46.19301" lon="4.60474">
        <ele>716.2</ele>
        <time>2025-09-07T09:50:11Z</time>
      </trkpt>
      <trkpt lat="46.19301" lon="4.60474">
        <ele>716</ele>
        <time>2025-09-07T09:50:12Z</time>
      </trkpt>
      <trkpt lat="46.19301" lon="4.60474">
        <ele>715.4</ele>
        <time>2025-09-07T09:50:13Z</time>
      </trkpt>
      <trkpt lat="46.19301" lon="4.60474">
        <ele>715.4</ele>
        <time>2025-09-07T09:50:14Z</time>
      </trkpt>
      <trkpt lat="46.19302" lon="4.60476">
        <ele>716</ele>
        <time>2025-09-07T09:50:52Z</time>
      </trkpt>
      <trkpt lat="46.19302" lon="4.60477">
        <ele>716.2</ele>
        <time>2025-09-07T09:50:53Z</time>
      </trkpt>
      <trkpt lat="46.19303" lon="4.60477">
        <ele>716</ele>
        <time>2025-09-07T09:50:54Z</time>
      </trkpt>
      <trkpt lat="46.19303" lon="4.60478">
        <ele>715.4</ele>
        <time>2025-09-07T09:50:55Z</time>
      </trkpt>
      <trkpt lat="46.19303" lon="4.60478">
        <ele>715.4</ele>
        <time>2025-09-07T09:50:56Z</time>
      </trkpt>
      <trkpt lat="46.19303" lon="4.60479">
        <ele>715</ele>
        <time>2025-09-07T09:50:57Z</time>
      </trkpt>
      <trkpt lat="46.19304" lon="4.6048">
        <ele>714.6</ele>
        <time>2025-09-07T09:50:58Z</time>
      </trkpt>
      <trkpt lat="46.19304" lon="4.60481">
        <ele>714</ele>
        <time>2025-09-07T09:50:59Z</time>
      </trkpt>
      <trkpt lat="46.19305" lon="4.60482">
        <ele>714</ele>
        <time>2025-09-07T09:51:00Z</time>
      </trkpt>
      <trkpt lat="46.19306" lon="4.60483">
        <ele>714</ele>
        <time>2025-09-07T09:51:01Z</time>
      </trkpt>
      <trkpt lat="46.19307" lon="4.60484">
        <ele>713.8</ele>
        <time>2025-09-07T09:51:02Z</time>
      </trkpt>
      <trkpt lat="46.19307" lon="4.60484">
        <ele>713.8</ele>
        <time>2025-09-07T09:51:03Z</time>
      </trkpt>
      <trkpt lat="46.19308" lon="4.60485">
        <ele>713</ele>
        <time>2025-09-07T09:51:04Z</time>
      </trkpt>
      <trkpt lat="46.19309" lon="4.60486">
        <ele>713</ele>
        <time>2025-09-07T09:51:05Z</time>
      </trkpt>
      <trkpt lat="46.19309" lon="4.60486">
        <ele>712.6</ele>
        <time>2025-09-07T09:51:06Z</time>
      </trkpt>
      <trkpt lat="46.1931" lon="4.60487">
        <ele>712.6</ele>
        <time>2025-09-07T09:51:07Z</time>
      </trkpt>
      <trkpt lat="46.1931" lon="4.60488">
        <ele>712</ele>
        <time>2025-09-07T09:51:08Z</time>
      </trkpt>
      <trkpt lat="46.1931" lon="4.60489">
        <ele>711.6</ele>
        <time>2025-09-07T09:51:09Z</time>
      </trkpt>
      <trkpt lat="46.1931" lon="4.6049">
        <ele>711.6</ele>
        <time>2025-09-07T09:51:10Z</time>
      </trkpt>
      <trkpt lat="46.19311" lon="4.6049">
        <ele>712.2</ele>
        <time>2025-09-07T09:51:11Z</time>
      </trkpt>
      <trkpt lat="46.19312" lon="4.60491">
        <ele>712.2</ele>
        <time>2025-09-07T09:51:12Z</time>
      </trkpt>
      <trkpt lat="46.19313" lon="4.60491">
        <ele>712.2</ele>
        <time>2025-09-07T09:51:13Z</time>
      </trkpt>
      <trkpt lat="46.19314" lon="4.60492">
        <ele>711</ele>
        <time>2025-09-07T09:51:14Z</time>
      </trkpt>
      <trkpt lat="46.19315" lon="4.60493">
        <ele>711</ele>
        <time>2025-09-07T09:51:15Z</time>
      </trkpt>
      <trkpt lat="46.19317" lon="4.60493">
        <ele>710.8</ele>
        <time>2025-09-07T09:51:16Z</time>
      </trkpt>
      <trkpt lat="46.19318" lon="4.60494">
        <ele>710.8</ele>
        <time>2025-09-07T09:51:17Z</time>
      </trkpt>
      <trkpt lat="46.1932" lon="4.60495">
        <ele>710.6</ele>
        <time>2025-09-07T09:51:18Z</time>
      </trkpt>
      <trkpt lat="46.19322" lon="4.60495">
        <ele>709.8</ele>
        <time>2025-09-07T09:51:19Z</time>
      </trkpt>
      <trkpt lat="46.19323" lon="4.60495">
        <ele>709.8</ele>
        <time>2025-09-07T09:51:20Z</time>
      </trkpt>
      <trkpt lat="46.19324" lon="4.60495">
        <ele>709.8</ele>
        <time>2025-09-07T09:51:21Z</time>
      </trkpt>
      <trkpt lat="46.19325" lon="4.60496">
        <ele>709.4</ele>
        <time>2025-09-07T09:51:22Z</time>
      </trkpt>
      <trkpt lat="46.19325" lon="4.60497">
        <ele>709.4</ele>
        <time>2025-09-07T09:51:23Z</time>
      </trkpt>
      <trkpt lat="46.19325" lon="4.60498">
        <ele>708.8</ele>
        <time>2025-09-07T09:51:24Z</time>
      </trkpt>
      <trkpt lat="46.19325" lon="4.605">
        <ele>708.8</ele>
        <time>2025-09-07T09:51:25Z</time>
      </trkpt>
      <trkpt lat="46.19325" lon="4.60501">
        <ele>708.6</ele>
        <time>2025-09-07T09:51:26Z</time>
      </trkpt>
      <trkpt lat="46.19326" lon="4.60502">
        <ele>708.6</ele>
        <time>2025-09-07T09:51:27Z</time>
      </trkpt>
      <trkpt lat="46.19326" lon="4.60504">
        <ele>708.6</ele>
        <time>2025-09-07T09:51:28Z</time>
      </trkpt>
      <trkpt lat="46.19327" lon="4.60506">
        <ele>708.6</ele>
        <time>2025-09-07T09:51:29Z</time>
      </trkpt>
      <trkpt lat="46.19327" lon="4.60507">
        <ele>708.4</ele>
        <time>2025-09-07T09:51:30Z</time>
      </trkpt>
      <trkpt lat="46.19327" lon="4.60508">
        <ele>708</ele>
        <time>2025-09-07T09:51:31Z</time>
      </trkpt>
      <trkpt lat="46.19328" lon="4.60509">
        <ele>707.8</ele>
        <time>2025-09-07T09:51:32Z</time>
      </trkpt>
      <trkpt lat="46.1933" lon="4.6051">
        <ele>707.8</ele>
        <time>2025-09-07T09:51:33Z</time>
      </trkpt>
      <trkpt lat="46.19331" lon="4.60511">
        <ele>707.4</ele>
        <time>2025-09-07T09:51:34Z</time>
      </trkpt>
      <trkpt lat="46.19333" lon="4.60512">
        <ele>707.4</ele>
        <time>2025-09-07T09:51:35Z</time>
      </trkpt>
      <trkpt lat="46.19334" lon="4.60512">
        <ele>707.4</ele>
        <time>2025-09-07T09:51:36Z</time>
      </trkpt>
      <trkpt lat="46.19334" lon="4.60512">
        <ele>707</ele>
        <time>2025-09-07T09:51:37Z</time>
      </trkpt>
      <trkpt lat="46.19336" lon="4.60514">
        <ele>705.6</ele>
        <time>2025-09-07T09:51:44Z</time>
      </trkpt>
      <trkpt lat="46.19337" lon="4.60514">
        <ele>705</ele>
        <time>2025-09-07T09:51:45Z</time>
      </trkpt>
      <trkpt lat="46.19338" lon="4.60516">
        <ele>705</ele>
        <time>2025-09-07T09:51:46Z</time>
      </trkpt>
      <trkpt lat="46.1934" lon="4.60518">
        <ele>705</ele>
        <time>2025-09-07T09:51:47Z</time>
      </trkpt>
      <trkpt lat="46.1934" lon="4.60519">
        <ele>705</ele>
        <time>2025-09-07T09:51:48Z</time>
      </trkpt>
      <trkpt lat="46.19341" lon="4.60521">
        <ele>705</ele>
        <time>2025-09-07T09:51:49Z</time>
      </trkpt>
      <trkpt lat="46.19342" lon="4.60523">
        <ele>705</ele>
        <time>2025-09-07T09:51:50Z</time>
      </trkpt>
      <trkpt lat="46.19343" lon="4.60525">
        <ele>705</ele>
        <time>2025-09-07T09:51:51Z</time>
      </trkpt>
      <trkpt lat="46.19344" lon="4.60526">
        <ele>705</ele>
        <time>2025-09-07T09:51:52Z</time>
      </trkpt>
      <trkpt lat="46.19344" lon="4.60527">
        <ele>705</ele>
        <time>2025-09-07T09:51:53Z</time>
      </trkpt>
      <trkpt lat="46.19345" lon="4.60529">
        <ele>705</ele>
        <time>2025-09-07T09:51:54Z</time>
      </trkpt>
      <trkpt lat="46.19346" lon="4.6053">
        <ele>704.6</ele>
        <time>2025-09-07T09:51:55Z</time>
      </trkpt>
      <trkpt lat="46.19347" lon="4.6053">
        <ele>704.2</ele>
        <time>2025-09-07T09:51:56Z</time>
      </trkpt>
      <trkpt lat="46.19349" lon="4.60531">
        <ele>704.2</ele>
        <time>2025-09-07T09:51:57Z</time>
      </trkpt>
      <trkpt lat="46.1935" lon="4.60533">
        <ele>704.2</ele>
        <time>2025-09-07T09:51:58Z</time>
      </trkpt>
      <trkpt lat="46.19351" lon="4.60533">
        <ele>703.6</ele>
        <time>2025-09-07T09:51:59Z</time>
      </trkpt>
      <trkpt lat="46.19352" lon="4.60533">
        <ele>703</ele>
        <time>2025-09-07T09:52:00Z</time>
      </trkpt>
      <trkpt lat="46.19353" lon="4.60534">
        <ele>703.2</ele>
        <time>2025-09-07T09:52:01Z</time>
      </trkpt>
      <trkpt lat="46.19354" lon="4.60536">
        <ele>703.6</ele>
        <time>2025-09-07T09:52:02Z</time>
      </trkpt>
      <trkpt lat="46.19355" lon="4.60538">
        <ele>703</ele>
        <time>2025-09-07T09:52:03Z</time>
      </trkpt>
      <trkpt lat="46.19355" lon="4.6054">
        <ele>703</ele>
        <time>2025-09-07T09:52:04Z</time>
      </trkpt>
      <trkpt lat="46.19356" lon="4.60541">
        <ele>702.6</ele>
        <time>2025-09-07T09:52:05Z</time>
      </trkpt>
      <trkpt lat="46.19357" lon="4.60542">
        <ele>702.4</ele>
        <time>2025-09-07T09:52:06Z</time>
      </trkpt>
      <trkpt lat="46.19358" lon="4.60544">
        <ele>702</ele>
        <time>2025-09-07T09:52:07Z</time>
      </trkpt>
      <trkpt lat="46.19359" lon="4.60545">
        <ele>701.6</ele>
        <time>2025-09-07T09:52:08Z</time>
      </trkpt>
      <trkpt lat="46.1936" lon="4.60546">
        <ele>701.6</ele>
        <time>2025-09-07T09:52:09Z</time>
      </trkpt>
      <trkpt lat="46.19361" lon="4.60547">
        <ele>701.8</ele>
        <time>2025-09-07T09:52:10Z</time>
      </trkpt>
      <trkpt lat="46.19361" lon="4.60547">
        <ele>701.6</ele>
        <time>2025-09-07T09:52:11Z</time>
      </trkpt>
      <trkpt lat="46.19362" lon="4.60548">
        <ele>701.2</ele>
        <time>2025-09-07T09:52:12Z</time>
      </trkpt>
      <trkpt lat="46.19363" lon="4.60549">
        <ele>701.2</ele>
        <time>2025-09-07T09:52:13Z</time>
      </trkpt>
      <trkpt lat="46.19365" lon="4.60549">
        <ele>701.2</ele>
        <time>2025-09-07T09:52:14Z</time>
      </trkpt>
      <trkpt lat="46.19366" lon="4.60548">
        <ele>701</ele>
        <time>2025-09-07T09:52:15Z</time>
      </trkpt>
      <trkpt lat="46.19368" lon="4.60548">
        <ele>701.6</ele>
        <time>2025-09-07T09:52:16Z</time>
      </trkpt>
      <trkpt lat="46.19368" lon="4.60547">
        <ele>701</ele>
        <time>2025-09-07T09:52:17Z</time>
      </trkpt>
      <trkpt lat="46.19369" lon="4.60547">
        <ele>700.8</ele>
        <time>2025-09-07T09:52:18Z</time>
      </trkpt>
      <trkpt lat="46.1937" lon="4.60547">
        <ele>700.8</ele>
        <time>2025-09-07T09:52:19Z</time>
      </trkpt>
      <trkpt lat="46.19371" lon="4.60547">
        <ele>700.2</ele>
        <time>2025-09-07T09:52:20Z</time>
      </trkpt>
      <trkpt lat="46.19372" lon="4.60547">
        <ele>699.6</ele>
        <time>2025-09-07T09:52:21Z</time>
      </trkpt>
      <trkpt lat="46.19373" lon="4.60547">
        <ele>699.2</ele>
        <time>2025-09-07T09:52:22Z</time>
      </trkpt>
      <trkpt lat="46.19374" lon="4.60546">
        <ele>699.6</ele>
        <time>2025-09-07T09:52:23Z</time>
      </trkpt>
      <trkpt lat="46.19375" lon="4.60545">
        <ele>698.6</ele>
        <time>2025-09-07T09:52:24Z</time>
      </trkpt>
      <trkpt lat="46.19375" lon="4.60544">
        <ele>698.4</ele>
        <time>2025-09-07T09:52:25Z</time>
      </trkpt>
      <trkpt lat="46.19377" lon="4.60543">
        <ele>698.4</ele>
        <time>2025-09-07T09:52:26Z</time>
      </trkpt>
      <trkpt lat="46.19378" lon="4.60542">
        <ele>698.4</ele>
        <time>2025-09-07T09:52:27Z</time>
      </trkpt>
      <trkpt lat="46.19379" lon="4.60542">
        <ele>698.4</ele>
        <time>2025-09-07T09:52:28Z</time>
      </trkpt>
      <trkpt lat="46.19379" lon="4.60542">
        <ele>698.4</ele>
        <time>2025-09-07T09:52:29Z</time>
      </trkpt>
      <trkpt lat="46.19379" lon="4.60542">
        <ele>698.2</ele>
        <time>2025-09-07T09:52:30Z</time>
      </trkpt>
      <trkpt lat="46.1938" lon="4.60541">
        <ele>697.8</ele>
        <time>2025-09-07T09:52:31Z</time>
      </trkpt>
      <trkpt lat="46.19382" lon="4.6054">
        <ele>697.8</ele>
        <time>2025-09-07T09:52:32Z</time>
      </trkpt>
      <trkpt lat="46.19384" lon="4.6054">
        <ele>697.6</ele>
        <time>2025-09-07T09:52:33Z</time>
      </trkpt>
      <trkpt lat="46.19386" lon="4.60539">
        <ele>697.2</ele>
        <time>2025-09-07T09:52:34Z</time>
      </trkpt>
      <trkpt lat="46.19387" lon="4.60539">
        <ele>697.2</ele>
        <time>2025-09-07T09:52:35Z</time>
      </trkpt>
      <trkpt lat="46.19388" lon="4.6054">
        <ele>696.8</ele>
        <time>2025-09-07T09:52:36Z</time>
      </trkpt>
      <trkpt lat="46.19387" lon="4.60545">
        <ele>696.6</ele>
        <time>2025-09-07T09:52:47Z</time>
      </trkpt>
      <trkpt lat="46.19387" lon="4.60545">
        <ele>696.6</ele>
        <time>2025-09-07T09:52:48Z</time>
      </trkpt>
      <trkpt lat="46.19387" lon="4.60544">
        <ele>696.6</ele>
        <time>2025-09-07T09:52:49Z</time>
      </trkpt>
      <trkpt lat="46.19389" lon="4.60545">
        <ele>696.4</ele>
        <time>2025-09-07T09:52:55Z</time>
      </trkpt>
      <trkpt lat="46.19391" lon="4.60546">
        <ele>696.4</ele>
        <time>2025-09-07T09:52:56Z</time>
      </trkpt>
      <trkpt lat="46.19393" lon="4.60546">
        <ele>695.8</ele>
        <time>2025-09-07T09:52:57Z</time>
      </trkpt>
      <trkpt lat="46.19394" lon="4.60546">
        <ele>695.4</ele>
        <time>2025-09-07T09:52:58Z</time>
      </trkpt>
      <trkpt lat="46.19397" lon="4.60546">
        <ele>694.8</ele>
        <time>2025-09-07T09:52:59Z</time>
      </trkpt>
      <trkpt lat="46.194" lon="4.60546">
        <ele>694</ele>
        <time>2025-09-07T09:53:00Z</time>
      </trkpt>
      <trkpt lat="46.19406" lon="4.60546">
        <ele>693.2</ele>
        <time>2025-09-07T09:53:01Z</time>
      </trkpt>
      <trkpt lat="46.19412" lon="4.60546">
        <ele>692.2</ele>
        <time>2025-09-07T09:53:02Z</time>
      </trkpt>
      <trkpt lat="46.19416" lon="4.60548">
        <ele>691.4</ele>
        <time>2025-09-07T09:53:03Z</time>
      </trkpt>
      <trkpt lat="46.1942" lon="4.60547">
        <ele>690.8</ele>
        <time>2025-09-07T09:53:04Z</time>
      </trkpt>
      <trkpt lat="46.19425" lon="4.60548">
        <ele>690</ele>
        <time>2025-09-07T09:53:05Z</time>
      </trkpt>
      <trkpt lat="46.19429" lon="4.6055">
        <ele>689.2</ele>
        <time>2025-09-07T09:53:06Z</time>
      </trkpt>
      <trkpt lat="46.19433" lon="4.60552">
        <ele>688.6</ele>
        <time>2025-09-07T09:53:07Z</time>
      </trkpt>
      <trkpt lat="46.19435" lon="4.60555">
        <ele>688</ele>
        <time>2025-09-07T09:53:08Z</time>
      </trkpt>
      <trkpt lat="46.19438" lon="4.60557">
        <ele>687.4</ele>
        <time>2025-09-07T09:53:09Z</time>
      </trkpt>
      <trkpt lat="46.1944" lon="4.60561">
        <ele>686.8</ele>
        <time>2025-09-07T09:53:10Z</time>
      </trkpt>
      <trkpt lat="46.19441" lon="4.60565">
        <ele>686.8</ele>
        <time>2025-09-07T09:53:11Z</time>
      </trkpt>
      <trkpt lat="46.19442" lon="4.60571">
        <ele>686</ele>
        <time>2025-09-07T09:53:12Z</time>
      </trkpt>
      <trkpt lat="46.19443" lon="4.60575">
        <ele>685.2</ele>
        <time>2025-09-07T09:53:13Z</time>
      </trkpt>
      <trkpt lat="46.19444" lon="4.6058">
        <ele>684.4</ele>
        <time>2025-09-07T09:53:14Z</time>
      </trkpt>
      <trkpt lat="46.19444" lon="4.60585">
        <ele>683.6</ele>
        <time>2025-09-07T09:53:15Z</time>
      </trkpt>
      <trkpt lat="46.19445" lon="4.60589">
        <ele>683</ele>
        <time>2025-09-07T09:53:16Z</time>
      </trkpt>
      <trkpt lat="46.19445" lon="4.60593">
        <ele>682.4</ele>
        <time>2025-09-07T09:53:17Z</time>
      </trkpt>
      <trkpt lat="46.19445" lon="4.60596">
        <ele>682</ele>
        <time>2025-09-07T09:53:18Z</time>
      </trkpt>
      <trkpt lat="46.19445" lon="4.606">
        <ele>682</ele>
        <time>2025-09-07T09:53:19Z</time>
      </trkpt>
      <trkpt lat="46.19444" lon="4.60604">
        <ele>681.8</ele>
        <time>2025-09-07T09:53:20Z</time>
      </trkpt>
      <trkpt lat="46.19443" lon="4.60607">
        <ele>681.8</ele>
        <time>2025-09-07T09:53:21Z</time>
      </trkpt>
      <trkpt lat="46.19442" lon="4.60611">
        <ele>681.8</ele>
        <time>2025-09-07T09:53:22Z</time>
      </trkpt>
      <trkpt lat="46.19442" lon="4.60615">
        <ele>681.8</ele>
        <time>2025-09-07T09:53:23Z</time>
      </trkpt>
      <trkpt lat="46.19441" lon="4.60619">
        <ele>682</ele>
        <time>2025-09-07T09:53:24Z</time>
      </trkpt>
      <trkpt lat="46.1944" lon="4.60623">
        <ele>682</ele>
        <time>2025-09-07T09:53:25Z</time>
      </trkpt>
      <trkpt lat="46.19439" lon="4.60627">
        <ele>682.4</ele>
        <time>2025-09-07T09:53:26Z</time>
      </trkpt>
      <trkpt lat="46.19438" lon="4.6063">
        <ele>682.4</ele>
        <time>2025-09-07T09:53:27Z</time>
      </trkpt>
      <trkpt lat="46.19438" lon="4.60634">
        <ele>682.6</ele>
        <time>2025-09-07T09:53:28Z</time>
      </trkpt>
      <trkpt lat="46.19436" lon="4.60641">
        <ele>682.6</ele>
        <time>2025-09-07T09:53:29Z</time>
      </trkpt>
      <trkpt lat="46.19436" lon="4.60644">
        <ele>682.8</ele>
        <time>2025-09-07T09:53:30Z</time>
      </trkpt>
      <trkpt lat="46.19435" lon="4.60647">
        <ele>683.2</ele>
        <time>2025-09-07T09:53:31Z</time>
      </trkpt>
      <trkpt lat="46.19435" lon="4.60651">
        <ele>683.2</ele>
        <time>2025-09-07T09:53:32Z</time>
      </trkpt>
      <trkpt lat="46.19434" lon="4.60654">
        <ele>683.2</ele>
        <time>2025-09-07T09:53:33Z</time>
      </trkpt>
      <trkpt lat="46.19434" lon="4.60658">
        <ele>683.6</ele>
        <time>2025-09-07T09:53:34Z</time>
      </trkpt>
      <trkpt lat="46.19433" lon="4.60661">
        <ele>683.6</ele>
        <time>2025-09-07T09:53:35Z</time>
      </trkpt>
      <trkpt lat="46.19432" lon="4.60665">
        <ele>683.6</ele>
        <time>2025-09-07T09:53:36Z</time>
      </trkpt>
      <trkpt lat="46.19431" lon="4.60669">
        <ele>683.8</ele>
        <time>2025-09-07T09:53:37Z</time>
      </trkpt>
      <trkpt lat="46.19431" lon="4.60672">
        <ele>684.2</ele>
        <time>2025-09-07T09:53:38Z</time>
      </trkpt>
      <trkpt lat="46.1943" lon="4.60676">
        <ele>684.4</ele>
        <time>2025-09-07T09:53:39Z</time>
      </trkpt>
      <trkpt lat="46.1943" lon="4.60679">
        <ele>684.4</ele>
        <time>2025-09-07T09:53:40Z</time>
      </trkpt>
      <trkpt lat="46.19429" lon="4.60683">
        <ele>684.4</ele>
        <time>2025-09-07T09:53:41Z</time>
      </trkpt>
      <trkpt lat="46.19428" lon="4.60686">
        <ele>684.4</ele>
        <time>2025-09-07T09:53:42Z</time>
      </trkpt>
      <trkpt lat="46.19427" lon="4.60689">
        <ele>684.4</ele>
        <time>2025-09-07T09:53:43Z</time>
      </trkpt>
      <trkpt lat="46.19427" lon="4.60691">
        <ele>684.4</ele>
        <time>2025-09-07T09:53:44Z</time>
      </trkpt>
      <trkpt lat="46.19426" lon="4.60695">
        <ele>684.8</ele>
        <time>2025-09-07T09:53:45Z</time>
      </trkpt>
      <trkpt lat="46.19426" lon="4.60698">
        <ele>684.8</ele>
        <time>2025-09-07T09:53:46Z</time>
      </trkpt>
      <trkpt lat="46.19425" lon="4.60701">
        <ele>685.2</ele>
        <time>2025-09-07T09:53:47Z</time>
      </trkpt>
      <trkpt lat="46.19425" lon="4.60704">
        <ele>685.2</ele>
        <time>2025-09-07T09:53:48Z</time>
      </trkpt>
      <trkpt lat="46.19424" lon="4.60706">
        <ele>685.4</ele>
        <time>2025-09-07T09:53:49Z</time>
      </trkpt>
      <trkpt lat="46.19424" lon="4.60709">
        <ele>685.4</ele>
        <time>2025-09-07T09:53:50Z</time>
      </trkpt>
      <trkpt lat="46.19423" lon="4.60711">
        <ele>685.6</ele>
        <time>2025-09-07T09:53:51Z</time>
      </trkpt>
      <trkpt lat="46.19423" lon="4.60714">
        <ele>685.6</ele>
        <time>2025-09-07T09:53:52Z</time>
      </trkpt>
      <trkpt lat="46.19422" lon="4.60717">
        <ele>685.6</ele>
        <time>2025-09-07T09:53:53Z</time>
      </trkpt>
      <trkpt lat="46.19422" lon="4.6072">
        <ele>685.8</ele>
        <time>2025-09-07T09:53:54Z</time>
      </trkpt>
      <trkpt lat="46.19421" lon="4.60722">
        <ele>685.8</ele>
        <time>2025-09-07T09:53:55Z</time>
      </trkpt>
      <trkpt lat="46.19421" lon="4.60725">
        <ele>686.2</ele>
        <time>2025-09-07T09:53:56Z</time>
      </trkpt>
      <trkpt lat="46.1942" lon="4.60727">
        <ele>686.2</ele>
        <time>2025-09-07T09:53:57Z</time>
      </trkpt>
      <trkpt lat="46.19419" lon="4.6073">
        <ele>686.4</ele>
        <time>2025-09-07T09:53:58Z</time>
      </trkpt>
      <trkpt lat="46.19418" lon="4.60733">
        <ele>686.4</ele>
        <time>2025-09-07T09:53:59Z</time>
      </trkpt>
      <trkpt lat="46.19418" lon="4.60736">
        <ele>686.4</ele>
        <time>2025-09-07T09:54:00Z</time>
      </trkpt>
      <trkpt lat="46.19418" lon="4.60739">
        <ele>686.4</ele>
        <time>2025-09-07T09:54:01Z</time>
      </trkpt>
      <trkpt lat="46.19417" lon="4.60741">
        <ele>686.4</ele>
        <time>2025-09-07T09:54:02Z</time>
      </trkpt>
      <trkpt lat="46.19416" lon="4.60744">
        <ele>686.4</ele>
        <time>2025-09-07T09:54:03Z</time>
      </trkpt>
      <trkpt lat="46.19416" lon="4.60747">
        <ele>686.6</ele>
        <time>2025-09-07T09:54:04Z</time>
      </trkpt>
      <trkpt lat="46.19415" lon="4.60749">
        <ele>686.6</ele>
        <time>2025-09-07T09:54:05Z</time>
      </trkpt>
      <trkpt lat="46.19415" lon="4.60752">
        <ele>686.6</ele>
        <time>2025-09-07T09:54:06Z</time>
      </trkpt>
      <trkpt lat="46.19414" lon="4.60754">
        <ele>686.6</ele>
        <time>2025-09-07T09:54:07Z</time>
      </trkpt>
      <trkpt lat="46.19414" lon="4.60756">
        <ele>686.8</ele>
        <time>2025-09-07T09:54:08Z</time>
      </trkpt>
      <trkpt lat="46.19413" lon="4.60759">
        <ele>687.2</ele>
        <time>2025-09-07T09:54:09Z</time>
      </trkpt>
      <trkpt lat="46.19412" lon="4.60761">
        <ele>687.4</ele>
        <time>2025-09-07T09:54:10Z</time>
      </trkpt>
      <trkpt lat="46.19412" lon="4.60763">
        <ele>687.4</ele>
        <time>2025-09-07T09:54:11Z</time>
      </trkpt>
      <trkpt lat="46.19412" lon="4.60766">
        <ele>687.8</ele>
        <time>2025-09-07T09:54:12Z</time>
      </trkpt>
      <trkpt lat="46.19412" lon="4.60768">
        <ele>687.8</ele>
        <time>2025-09-07T09:54:13Z</time>
      </trkpt>
      <trkpt lat="46.19411" lon="4.6077">
        <ele>687.8</ele>
        <time>2025-09-07T09:54:14Z</time>
      </trkpt>
      <trkpt lat="46.1941" lon="4.60772">
        <ele>687.8</ele>
        <time>2025-09-07T09:54:15Z</time>
      </trkpt>
      <trkpt lat="46.1941" lon="4.60773">
        <ele>687.8</ele>
        <time>2025-09-07T09:54:16Z</time>
      </trkpt>
      <trkpt lat="46.19409" lon="4.60775">
        <ele>687.8</ele>
        <time>2025-09-07T09:54:17Z</time>
      </trkpt>
      <trkpt lat="46.19409" lon="4.60775">
        <ele>688</ele>
        <time>2025-09-07T09:54:18Z</time>
      </trkpt>
      <trkpt lat="46.19409" lon="4.60777">
        <ele>688</ele>
        <time>2025-09-07T09:54:19Z</time>
      </trkpt>
      <trkpt lat="46.19408" lon="4.60779">
        <ele>688.4</ele>
        <time>2025-09-07T09:54:20Z</time>
      </trkpt>
      <trkpt lat="46.19408" lon="4.60781">
        <ele>688.6</ele>
        <time>2025-09-07T09:54:21Z</time>
      </trkpt>
      <trkpt lat="46.19407" lon="4.60783">
        <ele>688.6</ele>
        <time>2025-09-07T09:54:22Z</time>
      </trkpt>
      <trkpt lat="46.19408" lon="4.60785">
        <ele>688.8</ele>
        <time>2025-09-07T09:54:23Z</time>
      </trkpt>
      <trkpt lat="46.19408" lon="4.60787">
        <ele>688.8</ele>
        <time>2025-09-07T09:54:24Z</time>
      </trkpt>
      <trkpt lat="46.19409" lon="4.6079">
        <ele>689</ele>
        <time>2025-09-07T09:54:25Z</time>
      </trkpt>
      <trkpt lat="46.19409" lon="4.60793">
        <ele>689</ele>
        <time>2025-09-07T09:54:26Z</time>
      </trkpt>
      <trkpt lat="46.1941" lon="4.60795">
        <ele>689.4</ele>
        <time>2025-09-07T09:54:27Z</time>
      </trkpt>
      <trkpt lat="46.19411" lon="4.60797">
        <ele>689.4</ele>
        <time>2025-09-07T09:54:28Z</time>
      </trkpt>
      <trkpt lat="46.19413" lon="4.60798">
        <ele>689.6</ele>
        <time>2025-09-07T09:54:29Z</time>
      </trkpt>
      <trkpt lat="46.19415" lon="4.608">
        <ele>689.6</ele>
        <time>2025-09-07T09:54:30Z</time>
      </trkpt>
      <trkpt lat="46.19418" lon="4.60802">
        <ele>689.6</ele>
        <time>2025-09-07T09:54:31Z</time>
      </trkpt>
      <trkpt lat="46.19421" lon="4.60803">
        <ele>689.4</ele>
        <time>2025-09-07T09:54:32Z</time>
      </trkpt>
      <trkpt lat="46.19423" lon="4.60804">
        <ele>689.2</ele>
        <time>2025-09-07T09:54:33Z</time>
      </trkpt>
      <trkpt lat="46.19426" lon="4.60807">
        <ele>688.8</ele>
        <time>2025-09-07T09:54:34Z</time>
      </trkpt>
      <trkpt lat="46.19428" lon="4.6081">
        <ele>688.4</ele>
        <time>2025-09-07T09:54:35Z</time>
      </trkpt>
      <trkpt lat="46.19429" lon="4.60813">
        <ele>688.2</ele>
        <time>2025-09-07T09:54:36Z</time>
      </trkpt>
      <trkpt lat="46.19428" lon="4.60816">
        <ele>688.2</ele>
        <time>2025-09-07T09:54:37Z</time>
      </trkpt>
      <trkpt lat="46.19428" lon="4.60816">
        <ele>688.2</ele>
        <time>2025-09-07T09:54:38Z</time>
      </trkpt>
      <trkpt lat="46.19427" lon="4.60816">
        <ele>688.2</ele>
        <time>2025-09-07T09:54:39Z</time>
      </trkpt>
      <trkpt lat="46.19411" lon="4.60761">
        <ele>689.2</ele>
        <time>2025-09-07T10:21:59Z</time>
      </trkpt>
      <trkpt lat="46.19411" lon="4.60761">
        <ele>689.2</ele>
        <time>2025-09-07T10:22:00Z</time>
      </trkpt>
      <trkpt lat="46.19412" lon="4.60761">
        <ele>689.2</ele>
        <time>2025-09-07T10:22:01Z</time>
      </trkpt>
      <trkpt lat="46.19412" lon="4.60761">
        <ele>689.2</ele>
        <time>2025-09-07T10:22:02Z</time>
      </trkpt>
      <trkpt lat="46.19412" lon="4.60761">
        <ele>689.2</ele>
        <time>2025-09-07T10:22:03Z</time>
      </trkpt>
      <trkpt lat="46.19423" lon="4.60752">
        <ele>688</ele>
        <time>2025-09-07T10:22:53Z</time>
      </trkpt>
      <trkpt lat="46.19424" lon="4.60749">
        <ele>687.6</ele>
        <time>2025-09-07T10:22:54Z</time>
      </trkpt>
      <trkpt lat="46.19424" lon="4.60745">
        <ele>687.6</ele>
        <time>2025-09-07T10:22:55Z</time>
      </trkpt>
      <trkpt lat="46.19425" lon="4.60741">
        <ele>687.4</ele>
        <time>2025-09-07T10:22:56Z</time>
      </trkpt>
      <trkpt lat="46.19425" lon="4.60736">
        <ele>687.2</ele>
        <time>2025-09-07T10:22:57Z</time>
      </trkpt>
      <trkpt lat="46.19425" lon="4.60732">
        <ele>687.2</ele>
        <time>2025-09-07T10:22:58Z</time>
      </trkpt>
      <trkpt lat="46.19426" lon="4.60729">
        <ele>687.2</ele>
        <time>2025-09-07T10:22:59Z</time>
      </trkpt>
      <trkpt lat="46.19427" lon="4.60725">
        <ele>687.2</ele>
        <time>2025-09-07T10:23:00Z</time>
      </trkpt>
      <trkpt lat="46.19428" lon="4.60721">
        <ele>687</ele>
        <time>2025-09-07T10:23:01Z</time>
      </trkpt>
      <trkpt lat="46.19429" lon="4.60718">
        <ele>686.2</ele>
        <time>2025-09-07T10:23:02Z</time>
      </trkpt>
      <trkpt lat="46.1943" lon="4.60714">
        <ele>685.8</ele>
        <time>2025-09-07T10:23:03Z</time>
      </trkpt>
      <trkpt lat="46.1943" lon="4.6071">
        <ele>685.8</ele>
        <time>2025-09-07T10:23:04Z</time>
      </trkpt>
      <trkpt lat="46.19431" lon="4.60706">
        <ele>686.2</ele>
        <time>2025-09-07T10:23:05Z</time>
      </trkpt>
      <trkpt lat="46.19432" lon="4.60702">
        <ele>685.8</ele>
        <time>2025-09-07T10:23:06Z</time>
      </trkpt>
      <trkpt lat="46.19433" lon="4.60697">
        <ele>686.2</ele>
        <time>2025-09-07T10:23:07Z</time>
      </trkpt>
      <trkpt lat="46.19434" lon="4.60691">
        <ele>686.2</ele>
        <time>2025-09-07T10:23:08Z</time>
      </trkpt>
      <trkpt lat="46.19436" lon="4.60685">
        <ele>685.8</ele>
        <time>2025-09-07T10:23:09Z</time>
      </trkpt>
      <trkpt lat="46.19437" lon="4.60679">
        <ele>685.6</ele>
        <time>2025-09-07T10:23:10Z</time>
      </trkpt>
      <trkpt lat="46.19438" lon="4.60672">
        <ele>685.6</ele>
        <time>2025-09-07T10:23:11Z</time>
      </trkpt>
      <trkpt lat="46.1944" lon="4.60665">
        <ele>685.2</ele>
        <time>2025-09-07T10:23:12Z</time>
      </trkpt>
      <trkpt lat="46.19441" lon="4.60658">
        <ele>683.8</ele>
        <time>2025-09-07T10:23:13Z</time>
      </trkpt>
      <trkpt lat="46.19442" lon="4.60652">
        <ele>683.8</ele>
        <time>2025-09-07T10:23:14Z</time>
      </trkpt>
      <trkpt lat="46.19443" lon="4.60646">
        <ele>683.8</ele>
        <time>2025-09-07T10:23:15Z</time>
      </trkpt>
      <trkpt lat="46.19445" lon="4.6064">
        <ele>683.8</ele>
        <time>2025-09-07T10:23:16Z</time>
      </trkpt>
      <trkpt lat="46.19446" lon="4.60633">
        <ele>683.6</ele>
        <time>2025-09-07T10:23:17Z</time>
      </trkpt>
      <trkpt lat="46.19447" lon="4.60627">
        <ele>683.6</ele>
        <time>2025-09-07T10:23:18Z</time>
      </trkpt>
      <trkpt lat="46.19448" lon="4.6062">
        <ele>683.6</ele>
        <time>2025-09-07T10:23:19Z</time>
      </trkpt>
      <trkpt lat="46.1945" lon="4.60614">
        <ele>683.6</ele>
        <time>2025-09-07T10:23:20Z</time>
      </trkpt>
      <trkpt lat="46.1945" lon="4.60607">
        <ele>683</ele>
        <time>2025-09-07T10:23:21Z</time>
      </trkpt>
      <trkpt lat="46.19452" lon="4.606">
        <ele>682.8</ele>
        <time>2025-09-07T10:23:22Z</time>
      </trkpt>
      <trkpt lat="46.19453" lon="4.60594">
        <ele>682.8</ele>
        <time>2025-09-07T10:23:23Z</time>
      </trkpt>
      <trkpt lat="46.19454" lon="4.60588">
        <ele>682.6</ele>
        <time>2025-09-07T10:23:24Z</time>
      </trkpt>
      <trkpt lat="46.19456" lon="4.60581">
        <ele>682.6</ele>
        <time>2025-09-07T10:23:25Z</time>
      </trkpt>
      <trkpt lat="46.19457" lon="4.60574">
        <ele>682.2</ele>
        <time>2025-09-07T10:23:26Z</time>
      </trkpt>
      <trkpt lat="46.19458" lon="4.60567">
        <ele>682</ele>
        <time>2025-09-07T10:23:27Z</time>
      </trkpt>
      <trkpt lat="46.19459" lon="4.6056">
        <ele>682</ele>
        <time>2025-09-07T10:23:28Z</time>
      </trkpt>
      <trkpt lat="46.1946" lon="4.60553">
        <ele>682</ele>
        <time>2025-09-07T10:23:29Z</time>
      </trkpt>
      <trkpt lat="46.19461" lon="4.60548">
        <ele>682</ele>
        <time>2025-09-07T10:23:30Z</time>
      </trkpt>
      <trkpt lat="46.19463" lon="4.60544">
        <ele>681.8</ele>
        <time>2025-09-07T10:23:31Z</time>
      </trkpt>
      <trkpt lat="46.19463" lon="4.6054">
        <ele>681.4</ele>
        <time>2025-09-07T10:23:32Z</time>
      </trkpt>
      <trkpt lat="46.19463" lon="4.60535">
        <ele>681.4</ele>
        <time>2025-09-07T10:23:33Z</time>
      </trkpt>
      <trkpt lat="46.19463" lon="4.6053">
        <ele>681.2</ele>
        <time>2025-09-07T10:23:34Z</time>
      </trkpt>
      <trkpt lat="46.19462" lon="4.60526">
        <ele>680.8</ele>
        <time>2025-09-07T10:23:35Z</time>
      </trkpt>
      <trkpt lat="46.19463" lon="4.60522">
        <ele>680.8</ele>
        <time>2025-09-07T10:23:36Z</time>
      </trkpt>
      <trkpt lat="46.19463" lon="4.60517">
        <ele>680.4</ele>
        <time>2025-09-07T10:23:37Z</time>
      </trkpt>
      <trkpt lat="46.19463" lon="4.60512">
        <ele>680.4</ele>
        <time>2025-09-07T10:23:38Z</time>
      </trkpt>
      <trkpt lat="46.19463" lon="4.60507">
        <ele>680.4</ele>
        <time>2025-09-07T10:23:39Z</time>
      </trkpt>
      <trkpt lat="46.19463" lon="4.60502">
        <ele>680.2</ele>
        <time>2025-09-07T10:23:40Z</time>
      </trkpt>
      <trkpt lat="46.19463" lon="4.60497">
        <ele>680.2</ele>
        <time>2025-09-07T10:23:41Z</time>
      </trkpt>
      <trkpt lat="46.19463" lon="4.60492">
        <ele>680.2</ele>
        <time>2025-09-07T10:23:42Z</time>
      </trkpt>
      <trkpt lat="46.19463" lon="4.60486">
        <ele>680</ele>
        <time>2025-09-07T10:23:43Z</time>
      </trkpt>
      <trkpt lat="46.19464" lon="4.60481">
        <ele>680</ele>
        <time>2025-09-07T10:23:44Z</time>
      </trkpt>
      <trkpt lat="46.19465" lon="4.60475">
        <ele>679.4</ele>
        <time>2025-09-07T10:23:45Z</time>
      </trkpt>
      <trkpt lat="46.19466" lon="4.60469">
        <ele>679.4</ele>
        <time>2025-09-07T10:23:46Z</time>
      </trkpt>
      <trkpt lat="46.19467" lon="4.60461">
        <ele>679.4</ele>
        <time>2025-09-07T10:23:47Z</time>
      </trkpt>
      <trkpt lat="46.19469" lon="4.60455">
        <ele>679.4</ele>
        <time>2025-09-07T10:23:48Z</time>
      </trkpt>
      <trkpt lat="46.1947" lon="4.60451">
        <ele>679.4</ele>
        <time>2025-09-07T10:23:49Z</time>
      </trkpt>
      <trkpt lat="46.19471" lon="4.60445">
        <ele>679.4</ele>
        <time>2025-09-07T10:23:50Z</time>
      </trkpt>
      <trkpt lat="46.19471" lon="4.60442">
        <ele>679.2</ele>
        <time>2025-09-07T10:23:51Z</time>
      </trkpt>
      <trkpt lat="46.19472" lon="4.60439">
        <ele>679.2</ele>
        <time>2025-09-07T10:23:52Z</time>
      </trkpt>
      <trkpt lat="46.19473" lon="4.60437">
        <ele>679.2</ele>
        <time>2025-09-07T10:23:53Z</time>
      </trkpt>
      <trkpt lat="46.19473" lon="4.60436">
        <ele>679.2</ele>
        <time>2025-09-07T10:23:54Z</time>
      </trkpt>
      <trkpt lat="46.19473" lon="4.60433">
        <ele>679</ele>
        <time>2025-09-07T10:23:55Z</time>
      </trkpt>
      <trkpt lat="46.19473" lon="4.6043">
        <ele>678.6</ele>
        <time>2025-09-07T10:23:56Z</time>
      </trkpt>
      <trkpt lat="46.19474" lon="4.60426">
        <ele>678.4</ele>
        <time>2025-09-07T10:23:57Z</time>
      </trkpt>
      <trkpt lat="46.19475" lon="4.60423">
        <ele>678.4</ele>
        <time>2025-09-07T10:23:58Z</time>
      </trkpt>
      <trkpt lat="46.19476" lon="4.60419">
        <ele>678.4</ele>
        <time>2025-09-07T10:23:59Z</time>
      </trkpt>
      <trkpt lat="46.19477" lon="4.60416">
        <ele>678.2</ele>
        <time>2025-09-07T10:24:00Z</time>
      </trkpt>
      <trkpt lat="46.19478" lon="4.60413">
        <ele>678</ele>
        <time>2025-09-07T10:24:01Z</time>
      </trkpt>
      <trkpt lat="46.19479" lon="4.6041">
        <ele>678</ele>
        <time>2025-09-07T10:24:02Z</time>
      </trkpt>
      <trkpt lat="46.1948" lon="4.60408">
        <ele>677.6</ele>
        <time>2025-09-07T10:24:03Z</time>
      </trkpt>
      <trkpt lat="46.19481" lon="4.60406">
        <ele>677.6</ele>
        <time>2025-09-07T10:24:04Z</time>
      </trkpt>
      <trkpt lat="46.19481" lon="4.60404">
        <ele>677.4</ele>
        <time>2025-09-07T10:24:05Z</time>
      </trkpt>
      <trkpt lat="46.19482" lon="4.60403">
        <ele>677.4</ele>
        <time>2025-09-07T10:24:06Z</time>
      </trkpt>
      <trkpt lat="46.19482" lon="4.60402">
        <ele>677.4</ele>
        <time>2025-09-07T10:24:07Z</time>
      </trkpt>
      <trkpt lat="46.19482" lon="4.60401">
        <ele>677.4</ele>
        <time>2025-09-07T10:24:08Z</time>
      </trkpt>
      <trkpt lat="46.19483" lon="4.604">
        <ele>677.2</ele>
        <time>2025-09-07T10:24:09Z</time>
      </trkpt>
      <trkpt lat="46.19483" lon="4.60399">
        <ele>677.2</ele>
        <time>2025-09-07T10:24:10Z</time>
      </trkpt>
      <trkpt lat="46.19483" lon="4.60398">
        <ele>677</ele>
        <time>2025-09-07T10:24:11Z</time>
      </trkpt>
      <trkpt lat="46.19483" lon="4.60399">
        <ele>677</ele>
        <time>2025-09-07T10:24:12Z</time>
      </trkpt>
      <trkpt lat="46.19484" lon="4.604">
        <ele>677</ele>
        <time>2025-09-07T10:24:16Z</time>
      </trkpt>
      <trkpt lat="46.19484" lon="4.604">
        <ele>677</ele>
        <time>2025-09-07T10:24:17Z</time>
      </trkpt>
      <trkpt lat="46.19484" lon="4.604">
        <ele>677</ele>
        <time>2025-09-07T10:24:18Z</time>
      </trkpt>
      <trkpt lat="46.19484" lon="4.60399">
        <ele>677</ele>
        <time>2025-09-07T10:25:53Z</time>
      </trkpt>
      <trkpt lat="46.19484" lon="4.60399">
        <ele>677</ele>
        <time>2025-09-07T10:25:54Z</time>
      </trkpt>
      <trkpt lat="46.19486" lon="4.60397">
        <ele>676.8</ele>
        <time>2025-09-07T10:25:58Z</time>
      </trkpt>
      <trkpt lat="46.19488" lon="4.60393">
        <ele>676.4</ele>
        <time>2025-09-07T10:25:59Z</time>
      </trkpt>
      <trkpt lat="46.1949" lon="4.60389">
        <ele>676.2</ele>
        <time>2025-09-07T10:26:00Z</time>
      </trkpt>
      <trkpt lat="46.19491" lon="4.60386">
        <ele>676</ele>
        <time>2025-09-07T10:26:01Z</time>
      </trkpt>
      <trkpt lat="46.19494" lon="4.60382">
        <ele>675.8</ele>
        <time>2025-09-07T10:26:02Z</time>
      </trkpt>
      <trkpt lat="46.19497" lon="4.60377">
        <ele>675.8</ele>
        <time>2025-09-07T10:26:03Z</time>
      </trkpt>
      <trkpt lat="46.195" lon="4.60372">
        <ele>675.8</ele>
        <time>2025-09-07T10:26:04Z</time>
      </trkpt>
      <trkpt lat="46.19504" lon="4.60367">
        <ele>675.4</ele>
        <time>2025-09-07T10:26:05Z</time>
      </trkpt>
      <trkpt lat="46.19508" lon="4.60363">
        <ele>675.2</ele>
        <time>2025-09-07T10:26:06Z</time>
      </trkpt>
      <trkpt lat="46.19513" lon="4.60358">
        <ele>674.6</ele>
        <time>2025-09-07T10:26:07Z</time>
      </trkpt>
      <trkpt lat="46.19517" lon="4.60354">
        <ele>674.2</ele>
        <time>2025-09-07T10:26:08Z</time>
      </trkpt>
      <trkpt lat="46.19522" lon="4.6035">
        <ele>674.2</ele>
        <time>2025-09-07T10:26:09Z</time>
      </trkpt>
      <trkpt lat="46.19526" lon="4.60348">
        <ele>673.8</ele>
        <time>2025-09-07T10:26:10Z</time>
      </trkpt>
      <trkpt lat="46.19531" lon="4.60345">
        <ele>672.2</ele>
        <time>2025-09-07T10:26:11Z</time>
      </trkpt>
      <trkpt lat="46.19536" lon="4.60343">
        <ele>672.4</ele>
        <time>2025-09-07T10:26:12Z</time>
      </trkpt>
      <trkpt lat="46.1954" lon="4.60341">
        <ele>672.4</ele>
        <time>2025-09-07T10:26:13Z</time>
      </trkpt>
      <trkpt lat="46.19546" lon="4.60339">
        <ele>672</ele>
        <time>2025-09-07T10:26:14Z</time>
      </trkpt>
      <trkpt lat="46.19551" lon="4.60337">
        <ele>671.8</ele>
        <time>2025-09-07T10:26:15Z</time>
      </trkpt>
      <trkpt lat="46.19555" lon="4.60335">
        <ele>671.8</ele>
        <time>2025-09-07T10:26:16Z</time>
      </trkpt>
      <trkpt lat="46.19559" lon="4.60335">
        <ele>671.8</ele>
        <time>2025-09-07T10:26:17Z</time>
      </trkpt>
      <trkpt lat="46.19561" lon="4.60337">
        <ele>671.6</ele>
        <time>2025-09-07T10:26:18Z</time>
      </trkpt>
      <trkpt lat="46.19563" lon="4.6034">
        <ele>671.6</ele>
        <time>2025-09-07T10:26:19Z</time>
      </trkpt>
      <trkpt lat="46.19558" lon="4.60344">
        <ele>671</ele>
        <time>2025-09-07T10:26:20Z</time>
      </trkpt>
      <trkpt lat="46.19556" lon="4.60347">
        <ele>671</ele>
        <time>2025-09-07T10:26:21Z</time>
      </trkpt>
      <trkpt lat="46.19553" lon="4.60351">
        <ele>670.6</ele>
        <time>2025-09-07T10:26:22Z</time>
      </trkpt>
      <trkpt lat="46.19548" lon="4.60352">
        <ele>670</ele>
        <time>2025-09-07T10:26:23Z</time>
      </trkpt>
      <trkpt lat="46.19542" lon="4.60358">
        <ele>669.4</ele>
        <time>2025-09-07T10:26:24Z</time>
      </trkpt>
      <trkpt lat="46.19539" lon="4.60364">
        <ele>669</ele>
        <time>2025-09-07T10:26:25Z</time>
      </trkpt>
      <trkpt lat="46.19537" lon="4.6037">
        <ele>668.4</ele>
        <time>2025-09-07T10:26:26Z</time>
      </trkpt>
      <trkpt lat="46.19535" lon="4.60371">
        <ele>668</ele>
        <time>2025-09-07T10:26:27Z</time>
      </trkpt>
      <trkpt lat="46.19534" lon="4.60375">
        <ele>667.6</ele>
        <time>2025-09-07T10:26:28Z</time>
      </trkpt>
      <trkpt lat="46.19532" lon="4.60374">
        <ele>666.6</ele>
        <time>2025-09-07T10:26:29Z</time>
      </trkpt>
      <trkpt lat="46.1953" lon="4.60377">
        <ele>666.6</ele>
        <time>2025-09-07T10:26:30Z</time>
      </trkpt>
      <trkpt lat="46.19528" lon="4.60378">
        <ele>666.8</ele>
        <time>2025-09-07T10:26:31Z</time>
      </trkpt>
      <trkpt lat="46.1953" lon="4.60378">
        <ele>666.6</ele>
        <time>2025-09-07T10:26:32Z</time>
      </trkpt>
      <trkpt lat="46.19531" lon="4.60378">
        <ele>666.6</ele>
        <time>2025-09-07T10:26:33Z</time>
      </trkpt>
      <trkpt lat="46.19533" lon="4.60378">
        <ele>666.6</ele>
        <time>2025-09-07T10:26:34Z</time>
      </trkpt>
      <trkpt lat="46.19534" lon="4.60376">
        <ele>666.6</ele>
        <time>2025-09-07T10:26:35Z</time>
      </trkpt>
      <trkpt lat="46.19535" lon="4.60375">
        <ele>666.6</ele>
        <time>2025-09-07T10:26:36Z</time>
      </trkpt>
      <trkpt lat="46.19536" lon="4.60374">
        <ele>666.6</ele>
        <time>2025-09-07T10:26:37Z</time>
      </trkpt>
      <trkpt lat="46.19536" lon="4.60372">
        <ele>666.4</ele>
        <time>2025-09-07T10:26:38Z</time>
      </trkpt>
      <trkpt lat="46.19537" lon="4.60371">
        <ele>666.4</ele>
        <time>2025-09-07T10:26:39Z</time>
      </trkpt>
      <trkpt lat="46.19537" lon="4.6037">
        <ele>666.4</ele>
        <time>2025-09-07T10:26:40Z</time>
      </trkpt>
      <trkpt lat="46.19538" lon="4.60369">
        <ele>666.4</ele>
        <time>2025-09-07T10:26:41Z</time>
      </trkpt>
      <trkpt lat="46.19539" lon="4.60368">
        <ele>666.4</ele>
        <time>2025-09-07T10:26:42Z</time>
      </trkpt>
      <trkpt lat="46.1954" lon="4.60367">
        <ele>666.4</ele>
        <time>2025-09-07T10:26:43Z</time>
      </trkpt>
      <trkpt lat="46.19542" lon="4.60367">
        <ele>666.8</ele>
        <time>2025-09-07T10:26:44Z</time>
      </trkpt>
      <trkpt lat="46.19544" lon="4.60367">
        <ele>666.8</ele>
        <time>2025-09-07T10:26:45Z</time>
      </trkpt>
      <trkpt lat="46.19545" lon="4.60367">
        <ele>666.8</ele>
        <time>2025-09-07T10:26:46Z</time>
      </trkpt>
      <trkpt lat="46.19548" lon="4.60366">
        <ele>667.2</ele>
        <time>2025-09-07T10:26:47Z</time>
      </trkpt>
      <trkpt lat="46.19551" lon="4.60365">
        <ele>667</ele>
        <time>2025-09-07T10:26:48Z</time>
      </trkpt>
      <trkpt lat="46.19554" lon="4.60364">
        <ele>667</ele>
        <time>2025-09-07T10:26:49Z</time>
      </trkpt>
      <trkpt lat="46.19557" lon="4.60362">
        <ele>666.4</ele>
        <time>2025-09-07T10:26:50Z</time>
      </trkpt>
      <trkpt lat="46.19559" lon="4.60361">
        <ele>666</ele>
        <time>2025-09-07T10:26:51Z</time>
      </trkpt>
      <trkpt lat="46.19562" lon="4.6036">
        <ele>665.4</ele>
        <time>2025-09-07T10:26:52Z</time>
      </trkpt>
      <trkpt lat="46.19565" lon="4.60359">
        <ele>665</ele>
        <time>2025-09-07T10:26:53Z</time>
      </trkpt>
      <trkpt lat="46.19567" lon="4.60358">
        <ele>664.6</ele>
        <time>2025-09-07T10:26:54Z</time>
      </trkpt>
      <trkpt lat="46.1957" lon="4.60358">
        <ele>664.4</ele>
        <time>2025-09-07T10:26:55Z</time>
      </trkpt>
      <trkpt lat="46.19573" lon="4.60357">
        <ele>664</ele>
        <time>2025-09-07T10:26:56Z</time>
      </trkpt>
      <trkpt lat="46.19576" lon="4.60357">
        <ele>663.6</ele>
        <time>2025-09-07T10:26:57Z</time>
      </trkpt>
      <trkpt lat="46.19578" lon="4.60357">
        <ele>663.4</ele>
        <time>2025-09-07T10:26:58Z</time>
      </trkpt>
      <trkpt lat="46.1958" lon="4.60357">
        <ele>663.4</ele>
        <time>2025-09-07T10:26:59Z</time>
      </trkpt>
      <trkpt lat="46.19583" lon="4.60357">
        <ele>662.2</ele>
        <time>2025-09-07T10:27:00Z</time>
      </trkpt>
      <trkpt lat="46.19587" lon="4.60358">
        <ele>662.2</ele>
        <time>2025-09-07T10:27:01Z</time>
      </trkpt>
      <trkpt lat="46.1959" lon="4.60358">
        <ele>662.2</ele>
        <time>2025-09-07T10:27:02Z</time>
      </trkpt>
      <trkpt lat="46.19592" lon="4.60358">
        <ele>662.2</ele>
        <time>2025-09-07T10:27:03Z</time>
      </trkpt>
      <trkpt lat="46.19595" lon="4.60357">
        <ele>662</ele>
        <time>2025-09-07T10:27:04Z</time>
      </trkpt>
      <trkpt lat="46.19598" lon="4.60357">
        <ele>662</ele>
        <time>2025-09-07T10:27:05Z</time>
      </trkpt>
      <trkpt lat="46.19599" lon="4.60357">
        <ele>661.6</ele>
        <time>2025-09-07T10:27:06Z</time>
      </trkpt>
      <trkpt lat="46.196" lon="4.60357">
        <ele>661</ele>
        <time>2025-09-07T10:27:07Z</time>
      </trkpt>
      <trkpt lat="46.19602" lon="4.60357">
        <ele>660.8</ele>
        <time>2025-09-07T10:27:08Z</time>
      </trkpt>
      <trkpt lat="46.19604" lon="4.60358">
        <ele>660</ele>
        <time>2025-09-07T10:27:09Z</time>
      </trkpt>
      <trkpt lat="46.19607" lon="4.60358">
        <ele>659.2</ele>
        <time>2025-09-07T10:27:10Z</time>
      </trkpt>
      <trkpt lat="46.1961" lon="4.60357">
        <ele>658.8</ele>
        <time>2025-09-07T10:27:11Z</time>
      </trkpt>
      <trkpt lat="46.19613" lon="4.60355">
        <ele>658.4</ele>
        <time>2025-09-07T10:27:12Z</time>
      </trkpt>
      <trkpt lat="46.19617" lon="4.60354">
        <ele>657.8</ele>
        <time>2025-09-07T10:27:13Z</time>
      </trkpt>
      <trkpt lat="46.19625" lon="4.60351">
        <ele>657.2</ele>
        <time>2025-09-07T10:27:14Z</time>
      </trkpt>
      <trkpt lat="46.19626" lon="4.60352">
        <ele>656.8</ele>
        <time>2025-09-07T10:27:15Z</time>
      </trkpt>
      <trkpt lat="46.19629" lon="4.60354">
        <ele>656.4</ele>
        <time>2025-09-07T10:27:16Z</time>
      </trkpt>
      <trkpt lat="46.19629" lon="4.60355">
        <ele>655.8</ele>
        <time>2025-09-07T10:27:17Z</time>
      </trkpt>
      <trkpt lat="46.1963" lon="4.60355">
        <ele>655.4</ele>
        <time>2025-09-07T10:27:18Z</time>
      </trkpt>
      <trkpt lat="46.19632" lon="4.60356">
        <ele>655</ele>
        <time>2025-09-07T10:27:19Z</time>
      </trkpt>
      <trkpt lat="46.19638" lon="4.60354">
        <ele>654.6</ele>
        <time>2025-09-07T10:27:20Z</time>
      </trkpt>
      <trkpt lat="46.19641" lon="4.60355">
        <ele>653.8</ele>
        <time>2025-09-07T10:27:21Z</time>
      </trkpt>
      <trkpt lat="46.19643" lon="4.60355">
        <ele>653.2</ele>
        <time>2025-09-07T10:27:22Z</time>
      </trkpt>
      <trkpt lat="46.19643" lon="4.60355">
        <ele>652.6</ele>
        <time>2025-09-07T10:27:23Z</time>
      </trkpt>
      <trkpt lat="46.19643" lon="4.60357">
        <ele>652.2</ele>
        <time>2025-09-07T10:27:24Z</time>
      </trkpt>
      <trkpt lat="46.19643" lon="4.60358">
        <ele>652</ele>
        <time>2025-09-07T10:27:25Z</time>
      </trkpt>
      <trkpt lat="46.19645" lon="4.60358">
        <ele>651.6</ele>
        <time>2025-09-07T10:27:26Z</time>
      </trkpt>
      <trkpt lat="46.19647" lon="4.60357">
        <ele>651</ele>
        <time>2025-09-07T10:27:27Z</time>
      </trkpt>
      <trkpt lat="46.19649" lon="4.60357">
        <ele>650.6</ele>
        <time>2025-09-07T10:27:28Z</time>
      </trkpt>
      <trkpt lat="46.19651" lon="4.60357">
        <ele>650.2</ele>
        <time>2025-09-07T10:27:29Z</time>
      </trkpt>
      <trkpt lat="46.19653" lon="4.60357">
        <ele>649.8</ele>
        <time>2025-09-07T10:27:30Z</time>
      </trkpt>
      <trkpt lat="46.19656" lon="4.60357">
        <ele>649.4</ele>
        <time>2025-09-07T10:27:31Z</time>
      </trkpt>
      <trkpt lat="46.19658" lon="4.60358">
        <ele>648.8</ele>
        <time>2025-09-07T10:27:32Z</time>
      </trkpt>
      <trkpt lat="46.19661" lon="4.60359">
        <ele>648.4</ele>
        <time>2025-09-07T10:27:33Z</time>
      </trkpt>
      <trkpt lat="46.19663" lon="4.60359">
        <ele>648.2</ele>
        <time>2025-09-07T10:27:34Z</time>
      </trkpt>
      <trkpt lat="46.19665" lon="4.6036">
        <ele>647.6</ele>
        <time>2025-09-07T10:27:35Z</time>
      </trkpt>
      <trkpt lat="46.19666" lon="4.6036">
        <ele>646.8</ele>
        <time>2025-09-07T10:27:36Z</time>
      </trkpt>
      <trkpt lat="46.19668" lon="4.60361">
        <ele>646.4</ele>
        <time>2025-09-07T10:27:37Z</time>
      </trkpt>
      <trkpt lat="46.19671" lon="4.60361">
        <ele>645.8</ele>
        <time>2025-09-07T10:27:38Z</time>
      </trkpt>
      <trkpt lat="46.19674" lon="4.60362">
        <ele>644.8</ele>
        <time>2025-09-07T10:27:39Z</time>
      </trkpt>
      <trkpt lat="46.19676" lon="4.60363">
        <ele>644.4</ele>
        <time>2025-09-07T10:27:40Z</time>
      </trkpt>
      <trkpt lat="46.19678" lon="4.60363">
        <ele>643.8</ele>
        <time>2025-09-07T10:27:41Z</time>
      </trkpt>
      <trkpt lat="46.1968" lon="4.60364">
        <ele>643.4</ele>
        <time>2025-09-07T10:27:42Z</time>
      </trkpt>
      <trkpt lat="46.19681" lon="4.60364">
        <ele>643.4</ele>
        <time>2025-09-07T10:27:43Z</time>
      </trkpt>
      <trkpt lat="46.19683" lon="4.60364">
        <ele>642.8</ele>
        <time>2025-09-07T10:27:44Z</time>
      </trkpt>
      <trkpt lat="46.19685" lon="4.60365">
        <ele>642.8</ele>
        <time>2025-09-07T10:27:45Z</time>
      </trkpt>
      <trkpt lat="46.19688" lon="4.60366">
        <ele>642.4</ele>
        <time>2025-09-07T10:27:46Z</time>
      </trkpt>
      <trkpt lat="46.1969" lon="4.60367">
        <ele>641.8</ele>
        <time>2025-09-07T10:27:47Z</time>
      </trkpt>
      <trkpt lat="46.19694" lon="4.60367">
        <ele>641.4</ele>
        <time>2025-09-07T10:27:48Z</time>
      </trkpt>
      <trkpt lat="46.19698" lon="4.60366">
        <ele>641</ele>
        <time>2025-09-07T10:27:49Z</time>
      </trkpt>
      <trkpt lat="46.19701" lon="4.60366">
        <ele>640.2</ele>
        <time>2025-09-07T10:27:50Z</time>
      </trkpt>
      <trkpt lat="46.19705" lon="4.60366">
        <ele>639.6</ele>
        <time>2025-09-07T10:27:51Z</time>
      </trkpt>
      <trkpt lat="46.19712" lon="4.60363">
        <ele>639.2</ele>
        <time>2025-09-07T10:27:52Z</time>
      </trkpt>
      <trkpt lat="46.19715" lon="4.60363">
        <ele>639.2</ele>
        <time>2025-09-07T10:27:53Z</time>
      </trkpt>
      <trkpt lat="46.19719" lon="4.60364">
        <ele>639</ele>
        <time>2025-09-07T10:27:54Z</time>
      </trkpt>
      <trkpt lat="46.19722" lon="4.60366">
        <ele>638.4</ele>
        <time>2025-09-07T10:27:55Z</time>
      </trkpt>
      <trkpt lat="46.19724" lon="4.60367">
        <ele>638.6</ele>
        <time>2025-09-07T10:27:56Z</time>
      </trkpt>
      <trkpt lat="46.19725" lon="4.60369">
        <ele>637.8</ele>
        <time>2025-09-07T10:27:57Z</time>
      </trkpt>
      <trkpt lat="46.19726" lon="4.60373">
        <ele>637.8</ele>
        <time>2025-09-07T10:27:58Z</time>
      </trkpt>
      <trkpt lat="46.19729" lon="4.60373">
        <ele>637.4</ele>
        <time>2025-09-07T10:27:59Z</time>
      </trkpt>
      <trkpt lat="46.1973" lon="4.60374">
        <ele>637.4</ele>
        <time>2025-09-07T10:28:00Z</time>
      </trkpt>
      <trkpt lat="46.19732" lon="4.60374">
        <ele>636.8</ele>
        <time>2025-09-07T10:28:01Z</time>
      </trkpt>
      <trkpt lat="46.19734" lon="4.60375">
        <ele>635.6</ele>
        <time>2025-09-07T10:28:02Z</time>
      </trkpt>
      <trkpt lat="46.19738" lon="4.60375">
        <ele>634.8</ele>
        <time>2025-09-07T10:28:03Z</time>
      </trkpt>
      <trkpt lat="46.19739" lon="4.60376">
        <ele>634</ele>
        <time>2025-09-07T10:28:04Z</time>
      </trkpt>
      <trkpt lat="46.19742" lon="4.60378">
        <ele>634.2</ele>
        <time>2025-09-07T10:28:05Z</time>
      </trkpt>
      <trkpt lat="46.19744" lon="4.60379">
        <ele>633.6</ele>
        <time>2025-09-07T10:28:06Z</time>
      </trkpt>
      <trkpt lat="46.19747" lon="4.60379">
        <ele>633.2</ele>
        <time>2025-09-07T10:28:07Z</time>
      </trkpt>
      <trkpt lat="46.19749" lon="4.60379">
        <ele>632.8</ele>
        <time>2025-09-07T10:28:08Z</time>
      </trkpt>
      <trkpt lat="46.1975" lon="4.60379">
        <ele>632.8</ele>
        <time>2025-09-07T10:28:09Z</time>
      </trkpt>
      <trkpt lat="46.19752" lon="4.60379">
        <ele>632.4</ele>
        <time>2025-09-07T10:28:10Z</time>
      </trkpt>
      <trkpt lat="46.19753" lon="4.60377">
        <ele>632</ele>
        <time>2025-09-07T10:28:11Z</time>
      </trkpt>
      <trkpt lat="46.19754" lon="4.60377">
        <ele>632</ele>
        <time>2025-09-07T10:28:12Z</time>
      </trkpt>
      <trkpt lat="46.19761" lon="4.60377">
        <ele>628.4</ele>
        <time>2025-09-07T10:28:22Z</time>
      </trkpt>
      <trkpt lat="46.19763" lon="4.60377">
        <ele>628.4</ele>
        <time>2025-09-07T10:28:23Z</time>
      </trkpt>
      <trkpt lat="46.19766" lon="4.60376">
        <ele>628.4</ele>
        <time>2025-09-07T10:28:24Z</time>
      </trkpt>
      <trkpt lat="46.19768" lon="4.60376">
        <ele>627.8</ele>
        <time>2025-09-07T10:28:25Z</time>
      </trkpt>
      <trkpt lat="46.19769" lon="4.60376">
        <ele>627.4</ele>
        <time>2025-09-07T10:28:26Z</time>
      </trkpt>
      <trkpt lat="46.19772" lon="4.60375">
        <ele>627</ele>
        <time>2025-09-07T10:28:27Z</time>
      </trkpt>
      <trkpt lat="46.19775" lon="4.60376">
        <ele>626.4</ele>
        <time>2025-09-07T10:28:28Z</time>
      </trkpt>
      <trkpt lat="46.19778" lon="4.60376">
        <ele>626</ele>
        <time>2025-09-07T10:28:29Z</time>
      </trkpt>
      <trkpt lat="46.19782" lon="4.60376">
        <ele>625.6</ele>
        <time>2025-09-07T10:28:30Z</time>
      </trkpt>
      <trkpt lat="46.19785" lon="4.60376">
        <ele>625</ele>
        <time>2025-09-07T10:28:31Z</time>
      </trkpt>
      <trkpt lat="46.19787" lon="4.60376">
        <ele>624.8</ele>
        <time>2025-09-07T10:28:32Z</time>
      </trkpt>
      <trkpt lat="46.19788" lon="4.60376">
        <ele>624.8</ele>
        <time>2025-09-07T10:28:33Z</time>
      </trkpt>
      <trkpt lat="46.19789" lon="4.60376">
        <ele>624.6</ele>
        <time>2025-09-07T10:28:34Z</time>
      </trkpt>
      <trkpt lat="46.1979" lon="4.60376">
        <ele>624.2</ele>
        <time>2025-09-07T10:28:35Z</time>
      </trkpt>
      <trkpt lat="46.19796" lon="4.60375">
        <ele>623.8</ele>
        <time>2025-09-07T10:29:18Z</time>
      </trkpt>
      <trkpt lat="46.19797" lon="4.60374">
        <ele>623.2</ele>
        <time>2025-09-07T10:29:19Z</time>
      </trkpt>
      <trkpt lat="46.19799" lon="4.60375">
        <ele>622.8</ele>
        <time>2025-09-07T10:29:20Z</time>
      </trkpt>
      <trkpt lat="46.19801" lon="4.60375">
        <ele>622.6</ele>
        <time>2025-09-07T10:29:21Z</time>
      </trkpt>
      <trkpt lat="46.19802" lon="4.60375">
        <ele>622</ele>
        <time>2025-09-07T10:29:22Z</time>
      </trkpt>
      <trkpt lat="46.19804" lon="4.60375">
        <ele>621.4</ele>
        <time>2025-09-07T10:29:23Z</time>
      </trkpt>
      <trkpt lat="46.19807" lon="4.60375">
        <ele>620.8</ele>
        <time>2025-09-07T10:29:24Z</time>
      </trkpt>
      <trkpt lat="46.19809" lon="4.60375">
        <ele>620</ele>
        <time>2025-09-07T10:29:25Z</time>
      </trkpt>
      <trkpt lat="46.19812" lon="4.60375">
        <ele>619.6</ele>
        <time>2025-09-07T10:29:26Z</time>
      </trkpt>
      <trkpt lat="46.19814" lon="4.60375">
        <ele>619.6</ele>
        <time>2025-09-07T10:29:27Z</time>
      </trkpt>
      <trkpt lat="46.19816" lon="4.60375">
        <ele>619</ele>
        <time>2025-09-07T10:29:28Z</time>
      </trkpt>
      <trkpt lat="46.19818" lon="4.60374">
        <ele>618.6</ele>
        <time>2025-09-07T10:29:29Z</time>
      </trkpt>
      <trkpt lat="46.1982" lon="4.60373">
        <ele>618</ele>
        <time>2025-09-07T10:29:30Z</time>
      </trkpt>
      <trkpt lat="46.19822" lon="4.60372">
        <ele>618</ele>
        <time>2025-09-07T10:29:31Z</time>
      </trkpt>
      <trkpt lat="46.19823" lon="4.60372">
        <ele>617.8</ele>
        <time>2025-09-07T10:29:32Z</time>
      </trkpt>
      <trkpt lat="46.19824" lon="4.60372">
        <ele>617.8</ele>
        <time>2025-09-07T10:29:33Z</time>
      </trkpt>
      <trkpt lat="46.19825" lon="4.60372">
        <ele>617.2</ele>
        <time>2025-09-07T10:29:34Z</time>
      </trkpt>
      <trkpt lat="46.19826" lon="4.60372">
        <ele>617.2</ele>
        <time>2025-09-07T10:29:35Z</time>
      </trkpt>
      <trkpt lat="46.19828" lon="4.60371">
        <ele>617.2</ele>
        <time>2025-09-07T10:29:36Z</time>
      </trkpt>
      <trkpt lat="46.1983" lon="4.6037">
        <ele>616.8</ele>
        <time>2025-09-07T10:29:37Z</time>
      </trkpt>
      <trkpt lat="46.19832" lon="4.60369">
        <ele>616.8</ele>
        <time>2025-09-07T10:29:38Z</time>
      </trkpt>
      <trkpt lat="46.19834" lon="4.60368">
        <ele>616.4</ele>
        <time>2025-09-07T10:29:39Z</time>
      </trkpt>
      <trkpt lat="46.19835" lon="4.60368">
        <ele>616.4</ele>
        <time>2025-09-07T10:29:40Z</time>
      </trkpt>
      <trkpt lat="46.19836" lon="4.60367">
        <ele>615.4</ele>
        <time>2025-09-07T10:29:41Z</time>
      </trkpt>
      <trkpt lat="46.19838" lon="4.60367">
        <ele>615</ele>
        <time>2025-09-07T10:29:42Z</time>
      </trkpt>
      <trkpt lat="46.19841" lon="4.60366">
        <ele>614.6</ele>
        <time>2025-09-07T10:29:43Z</time>
      </trkpt>
      <trkpt lat="46.19843" lon="4.60366">
        <ele>614.2</ele>
        <time>2025-09-07T10:29:44Z</time>
      </trkpt>
      <trkpt lat="46.19844" lon="4.60365">
        <ele>613.6</ele>
        <time>2025-09-07T10:29:45Z</time>
      </trkpt>
      <trkpt lat="46.19846" lon="4.60365">
        <ele>613.2</ele>
        <time>2025-09-07T10:29:46Z</time>
      </trkpt>
      <trkpt lat="46.19849" lon="4.60365">
        <ele>613</ele>
        <time>2025-09-07T10:29:47Z</time>
      </trkpt>
      <trkpt lat="46.19851" lon="4.60364">
        <ele>612.6</ele>
        <time>2025-09-07T10:29:48Z</time>
      </trkpt>
      <trkpt lat="46.19853" lon="4.60364">
        <ele>612.2</ele>
        <time>2025-09-07T10:29:49Z</time>
      </trkpt>
      <trkpt lat="46.19855" lon="4.60363">
        <ele>612</ele>
        <time>2025-09-07T10:29:50Z</time>
      </trkpt>
      <trkpt lat="46.19857" lon="4.60363">
        <ele>612</ele>
        <time>2025-09-07T10:29:51Z</time>
      </trkpt>
      <trkpt lat="46.19859" lon="4.60363">
        <ele>611.4</ele>
        <time>2025-09-07T10:29:52Z</time>
      </trkpt>
      <trkpt lat="46.1986" lon="4.60362">
        <ele>611</ele>
        <time>2025-09-07T10:29:53Z</time>
      </trkpt>
      <trkpt lat="46.19861" lon="4.60362">
        <ele>611</ele>
        <time>2025-09-07T10:29:54Z</time>
      </trkpt>
      <trkpt lat="46.19862" lon="4.60362">
        <ele>610.6</ele>
        <time>2025-09-07T10:29:55Z</time>
      </trkpt>
      <trkpt lat="46.19862" lon="4.60362">
        <ele>610.4</ele>
        <time>2025-09-07T10:29:56Z</time>
      </trkpt>
      <trkpt lat="46.19864" lon="4.6036">
        <ele>610.6</ele>
        <time>2025-09-07T10:30:13Z</time>
      </trkpt>
      <trkpt lat="46.19866" lon="4.60358">
        <ele>610</ele>
        <time>2025-09-07T10:30:14Z</time>
      </trkpt>
      <trkpt lat="46.19869" lon="4.60356">
        <ele>610</ele>
        <time>2025-09-07T10:30:15Z</time>
      </trkpt>
      <trkpt lat="46.19871" lon="4.60354">
        <ele>609.6</ele>
        <time>2025-09-07T10:30:16Z</time>
      </trkpt>
      <trkpt lat="46.19874" lon="4.60352">
        <ele>608.4</ele>
        <time>2025-09-07T10:30:17Z</time>
      </trkpt>
      <trkpt lat="46.19876" lon="4.60351">
        <ele>607.2</ele>
        <time>2025-09-07T10:30:18Z</time>
      </trkpt>
      <trkpt lat="46.19879" lon="4.60349">
        <ele>606.8</ele>
        <time>2025-09-07T10:30:19Z</time>
      </trkpt>
      <trkpt lat="46.19882" lon="4.60347">
        <ele>606.2</ele>
        <time>2025-09-07T10:30:20Z</time>
      </trkpt>
      <trkpt lat="46.19884" lon="4.60344">
        <ele>605.6</ele>
        <time>2025-09-07T10:30:21Z</time>
      </trkpt>
      <trkpt lat="46.19887" lon="4.60342">
        <ele>605.6</ele>
        <time>2025-09-07T10:30:22Z</time>
      </trkpt>
      <trkpt lat="46.1989" lon="4.6034">
        <ele>605.2</ele>
        <time>2025-09-07T10:30:23Z</time>
      </trkpt>
      <trkpt lat="46.19893" lon="4.60338">
        <ele>604.8</ele>
        <time>2025-09-07T10:30:24Z</time>
      </trkpt>
      <trkpt lat="46.19896" lon="4.60336">
        <ele>604.4</ele>
        <time>2025-09-07T10:30:25Z</time>
      </trkpt>
      <trkpt lat="46.19899" lon="4.60334">
        <ele>604.4</ele>
        <time>2025-09-07T10:30:26Z</time>
      </trkpt>
      <trkpt lat="46.19903" lon="4.60332">
        <ele>604.4</ele>
        <time>2025-09-07T10:30:27Z</time>
      </trkpt>
      <trkpt lat="46.19906" lon="4.60332">
        <ele>603.4</ele>
        <time>2025-09-07T10:30:28Z</time>
      </trkpt>
      <trkpt lat="46.1991" lon="4.60332">
        <ele>602.4</ele>
        <time>2025-09-07T10:30:29Z</time>
      </trkpt>
      <trkpt lat="46.19914" lon="4.60332">
        <ele>602</ele>
        <time>2025-09-07T10:30:30Z</time>
      </trkpt>
      <trkpt lat="46.19918" lon="4.60332">
        <ele>602</ele>
        <time>2025-09-07T10:30:31Z</time>
      </trkpt>
      <trkpt lat="46.19922" lon="4.60332">
        <ele>601</ele>
        <time>2025-09-07T10:30:32Z</time>
      </trkpt>
      <trkpt lat="46.19925" lon="4.60331">
        <ele>600.4</ele>
        <time>2025-09-07T10:30:33Z</time>
      </trkpt>
      <trkpt lat="46.19928" lon="4.60331">
        <ele>599.8</ele>
        <time>2025-09-07T10:30:34Z</time>
      </trkpt>
      <trkpt lat="46.19931" lon="4.6033">
        <ele>599.8</ele>
        <time>2025-09-07T10:30:35Z</time>
      </trkpt>
      <trkpt lat="46.19934" lon="4.60329">
        <ele>599.8</ele>
        <time>2025-09-07T10:30:36Z</time>
      </trkpt>
      <trkpt lat="46.19936" lon="4.60329">
        <ele>599.2</ele>
        <time>2025-09-07T10:30:37Z</time>
      </trkpt>
      <trkpt lat="46.19938" lon="4.60328">
        <ele>599.2</ele>
        <time>2025-09-07T10:30:38Z</time>
      </trkpt>
      <trkpt lat="46.19941" lon="4.60328">
        <ele>599</ele>
        <time>2025-09-07T10:30:39Z</time>
      </trkpt>
      <trkpt lat="46.19944" lon="4.60329">
        <ele>598.6</ele>
        <time>2025-09-07T10:30:40Z</time>
      </trkpt>
      <trkpt lat="46.19946" lon="4.60329">
        <ele>598.4</ele>
        <time>2025-09-07T10:30:41Z</time>
      </trkpt>
      <trkpt lat="46.19949" lon="4.60329">
        <ele>598</ele>
        <time>2025-09-07T10:30:42Z</time>
      </trkpt>
      <trkpt lat="46.19952" lon="4.60329">
        <ele>597.6</ele>
        <time>2025-09-07T10:30:43Z</time>
      </trkpt>
      <trkpt lat="46.19954" lon="4.60329">
        <ele>597.2</ele>
        <time>2025-09-07T10:30:44Z</time>
      </trkpt>
      <trkpt lat="46.19956" lon="4.60329">
        <ele>596.4</ele>
        <time>2025-09-07T10:30:45Z</time>
      </trkpt>
      <trkpt lat="46.19958" lon="4.60329">
        <ele>595.8</ele>
        <time>2025-09-07T10:30:46Z</time>
      </trkpt>
      <trkpt lat="46.19961" lon="4.60328">
        <ele>595.8</ele>
        <time>2025-09-07T10:30:47Z</time>
      </trkpt>
      <trkpt lat="46.19963" lon="4.60328">
        <ele>595.8</ele>
        <time>2025-09-07T10:30:48Z</time>
      </trkpt>
      <trkpt lat="46.19966" lon="4.60327">
        <ele>595</ele>
        <time>2025-09-07T10:30:49Z</time>
      </trkpt>
      <trkpt lat="46.19966" lon="4.60327">
        <ele>594.4</ele>
        <time>2025-09-07T10:30:50Z</time>
      </trkpt>
      <trkpt lat="46.19966" lon="4.60327">
        <ele>594.4</ele>
        <time>2025-09-07T10:30:51Z</time>
      </trkpt>
      <trkpt lat="46.19976" lon="4.60321">
        <ele>593.6</ele>
        <time>2025-09-07T10:30:53Z</time>
      </trkpt>
      <trkpt lat="46.19978" lon="4.6032">
        <ele>593.4</ele>
        <time>2025-09-07T10:30:54Z</time>
      </trkpt>
      <trkpt lat="46.19979" lon="4.60318">
        <ele>592.8</ele>
        <time>2025-09-07T10:30:55Z</time>
      </trkpt>
      <trkpt lat="46.1998" lon="4.60316">
        <ele>592.8</ele>
        <time>2025-09-07T10:30:56Z</time>
      </trkpt>
      <trkpt lat="46.19982" lon="4.60314">
        <ele>592.2</ele>
        <time>2025-09-07T10:30:57Z</time>
      </trkpt>
      <trkpt lat="46.19983" lon="4.60312">
        <ele>591.6</ele>
        <time>2025-09-07T10:30:58Z</time>
      </trkpt>
      <trkpt lat="46.19985" lon="4.60311">
        <ele>591.6</ele>
        <time>2025-09-07T10:30:59Z</time>
      </trkpt>
      <trkpt lat="46.19988" lon="4.60309">
        <ele>591.6</ele>
        <time>2025-09-07T10:31:00Z</time>
      </trkpt>
      <trkpt lat="46.19991" lon="4.60307">
        <ele>591</ele>
        <time>2025-09-07T10:31:01Z</time>
      </trkpt>
      <trkpt lat="46.19994" lon="4.60304">
        <ele>590.6</ele>
        <time>2025-09-07T10:31:02Z</time>
      </trkpt>
      <trkpt lat="46.19995" lon="4.60302">
        <ele>590.2</ele>
        <time>2025-09-07T10:31:03Z</time>
      </trkpt>
      <trkpt lat="46.19996" lon="4.60299">
        <ele>589.8</ele>
        <time>2025-09-07T10:31:04Z</time>
      </trkpt>
      <trkpt lat="46.19998" lon="4.60297">
        <ele>589.6</ele>
        <time>2025-09-07T10:31:05Z</time>
      </trkpt>
      <trkpt lat="46.2" lon="4.60293">
        <ele>589.6</ele>
        <time>2025-09-07T10:31:06Z</time>
      </trkpt>
      <trkpt lat="46.20002" lon="4.60291">
        <ele>589.6</ele>
        <time>2025-09-07T10:31:07Z</time>
      </trkpt>
      <trkpt lat="46.20004" lon="4.60287">
        <ele>589.2</ele>
        <time>2025-09-07T10:31:08Z</time>
      </trkpt>
      <trkpt lat="46.20006" lon="4.60284">
        <ele>588.6</ele>
        <time>2025-09-07T10:31:09Z</time>
      </trkpt>
      <trkpt lat="46.20009" lon="4.6028">
        <ele>588.4</ele>
        <time>2025-09-07T10:31:10Z</time>
      </trkpt>
      <trkpt lat="46.20011" lon="4.60276">
        <ele>588.4</ele>
        <time>2025-09-07T10:31:11Z</time>
      </trkpt>
      <trkpt lat="46.20013" lon="4.60272">
        <ele>587.6</ele>
        <time>2025-09-07T10:31:12Z</time>
      </trkpt>
      <trkpt lat="46.20015" lon="4.60269">
        <ele>587.4</ele>
        <time>2025-09-07T10:31:13Z</time>
      </trkpt>
      <trkpt lat="46.20017" lon="4.60267">
        <ele>586.6</ele>
        <time>2025-09-07T10:31:14Z</time>
      </trkpt>
      <trkpt lat="46.20019" lon="4.60264">
        <ele>586.4</ele>
        <time>2025-09-07T10:31:15Z</time>
      </trkpt>
      <trkpt lat="46.20021" lon="4.60261">
        <ele>586.4</ele>
        <time>2025-09-07T10:31:16Z</time>
      </trkpt>
      <trkpt lat="46.20022" lon="4.60258">
        <ele>585.8</ele>
        <time>2025-09-07T10:31:17Z</time>
      </trkpt>
      <trkpt lat="46.20024" lon="4.60255">
        <ele>585.6</ele>
        <time>2025-09-07T10:31:18Z</time>
      </trkpt>
      <trkpt lat="46.20025" lon="4.60253">
        <ele>585.6</ele>
        <time>2025-09-07T10:31:19Z</time>
      </trkpt>
      <trkpt lat="46.20027" lon="4.6025">
        <ele>585</ele>
        <time>2025-09-07T10:31:20Z</time>
      </trkpt>
      <trkpt lat="46.20028" lon="4.60249">
        <ele>585</ele>
        <time>2025-09-07T10:31:21Z</time>
      </trkpt>
      <trkpt lat="46.2003" lon="4.60247">
        <ele>584.8</ele>
        <time>2025-09-07T10:31:22Z</time>
      </trkpt>
      <trkpt lat="46.20032" lon="4.60245">
        <ele>584.4</ele>
        <time>2025-09-07T10:31:23Z</time>
      </trkpt>
      <trkpt lat="46.20033" lon="4.60243">
        <ele>583.8</ele>
        <time>2025-09-07T10:31:24Z</time>
      </trkpt>
      <trkpt lat="46.20035" lon="4.6024">
        <ele>583.4</ele>
        <time>2025-09-07T10:31:25Z</time>
      </trkpt>
      <trkpt lat="46.20037" lon="4.60238">
        <ele>583.4</ele>
        <time>2025-09-07T10:31:26Z</time>
      </trkpt>
      <trkpt lat="46.20038" lon="4.60235">
        <ele>583.4</ele>
        <time>2025-09-07T10:31:27Z</time>
      </trkpt>
      <trkpt lat="46.20039" lon="4.60232">
        <ele>583</ele>
        <time>2025-09-07T10:31:28Z</time>
      </trkpt>
      <trkpt lat="46.20041" lon="4.60229">
        <ele>582.8</ele>
        <time>2025-09-07T10:31:29Z</time>
      </trkpt>
      <trkpt lat="46.20043" lon="4.60226">
        <ele>582.6</ele>
        <time>2025-09-07T10:31:30Z</time>
      </trkpt>
      <trkpt lat="46.20044" lon="4.60223">
        <ele>582.6</ele>
        <time>2025-09-07T10:31:31Z</time>
      </trkpt>
      <trkpt lat="46.20046" lon="4.60221">
        <ele>582</ele>
        <time>2025-09-07T10:31:32Z</time>
      </trkpt>
      <trkpt lat="46.20048" lon="4.60218">
        <ele>581.8</ele>
        <time>2025-09-07T10:31:33Z</time>
      </trkpt>
      <trkpt lat="46.2005" lon="4.60215">
        <ele>581.2</ele>
        <time>2025-09-07T10:31:34Z</time>
      </trkpt>
      <trkpt lat="46.20052" lon="4.60212">
        <ele>580.6</ele>
        <time>2025-09-07T10:31:35Z</time>
      </trkpt>
      <trkpt lat="46.20055" lon="4.60208">
        <ele>580.6</ele>
        <time>2025-09-07T10:31:36Z</time>
      </trkpt>
      <trkpt lat="46.20058" lon="4.60204">
        <ele>580.4</ele>
        <time>2025-09-07T10:31:37Z</time>
      </trkpt>
      <trkpt lat="46.2006" lon="4.60201">
        <ele>579.8</ele>
        <time>2025-09-07T10:31:38Z</time>
      </trkpt>
      <trkpt lat="46.20063" lon="4.60197">
        <ele>579.6</ele>
        <time>2025-09-07T10:31:39Z</time>
      </trkpt>
      <trkpt lat="46.20065" lon="4.60193">
        <ele>579</ele>
        <time>2025-09-07T10:31:40Z</time>
      </trkpt>
      <trkpt lat="46.20066" lon="4.6019">
        <ele>579</ele>
        <time>2025-09-07T10:31:41Z</time>
      </trkpt>
      <trkpt lat="46.20068" lon="4.60186">
        <ele>579</ele>
        <time>2025-09-07T10:31:42Z</time>
      </trkpt>
      <trkpt lat="46.2007" lon="4.60183">
        <ele>579</ele>
        <time>2025-09-07T10:31:43Z</time>
      </trkpt>
      <trkpt lat="46.20072" lon="4.6018">
        <ele>578.6</ele>
        <time>2025-09-07T10:31:44Z</time>
      </trkpt>
      <trkpt lat="46.20073" lon="4.60176">
        <ele>578</ele>
        <time>2025-09-07T10:31:45Z</time>
      </trkpt>
      <trkpt lat="46.20075" lon="4.60173">
        <ele>577.4</ele>
        <time>2025-09-07T10:31:46Z</time>
      </trkpt>
      <trkpt lat="46.20077" lon="4.60169">
        <ele>577.4</ele>
        <time>2025-09-07T10:31:47Z</time>
      </trkpt>
      <trkpt lat="46.20079" lon="4.60166">
        <ele>577</ele>
        <time>2025-09-07T10:31:48Z</time>
      </trkpt>
      <trkpt lat="46.2008" lon="4.60163">
        <ele>577</ele>
        <time>2025-09-07T10:31:49Z</time>
      </trkpt>
      <trkpt lat="46.20082" lon="4.60161">
        <ele>576.4</ele>
        <time>2025-09-07T10:31:50Z</time>
      </trkpt>
      <trkpt lat="46.20084" lon="4.60158">
        <ele>576.4</ele>
        <time>2025-09-07T10:31:51Z</time>
      </trkpt>
      <trkpt lat="46.20086" lon="4.60154">
        <ele>576.4</ele>
        <time>2025-09-07T10:31:52Z</time>
      </trkpt>
      <trkpt lat="46.20088" lon="4.6015">
        <ele>576.4</ele>
        <time>2025-09-07T10:31:53Z</time>
      </trkpt>
      <trkpt lat="46.20089" lon="4.60145">
        <ele>576.4</ele>
        <time>2025-09-07T10:31:54Z</time>
      </trkpt>
      <trkpt lat="46.2009" lon="4.60141">
        <ele>576.6</ele>
        <time>2025-09-07T10:31:55Z</time>
      </trkpt>
      <trkpt lat="46.20092" lon="4.60137">
        <ele>576</ele>
        <time>2025-09-07T10:31:56Z</time>
      </trkpt>
      <trkpt lat="46.20093" lon="4.60133">
        <ele>575.8</ele>
        <time>2025-09-07T10:31:57Z</time>
      </trkpt>
      <trkpt lat="46.20095" lon="4.60129">
        <ele>575.2</ele>
        <time>2025-09-07T10:31:58Z</time>
      </trkpt>
      <trkpt lat="46.20096" lon="4.60125">
        <ele>575</ele>
        <time>2025-09-07T10:31:59Z</time>
      </trkpt>
      <trkpt lat="46.20098" lon="4.60121">
        <ele>574</ele>
        <time>2025-09-07T10:32:00Z</time>
      </trkpt>
      <trkpt lat="46.201" lon="4.60116">
        <ele>574</ele>
        <time>2025-09-07T10:32:01Z</time>
      </trkpt>
      <trkpt lat="46.20102" lon="4.60112">
        <ele>574</ele>
        <time>2025-09-07T10:32:02Z</time>
      </trkpt>
      <trkpt lat="46.20104" lon="4.60109">
        <ele>573.6</ele>
        <time>2025-09-07T10:32:03Z</time>
      </trkpt>
      <trkpt lat="46.20105" lon="4.60106">
        <ele>572.8</ele>
        <time>2025-09-07T10:32:04Z</time>
      </trkpt>
      <trkpt lat="46.20107" lon="4.60104">
        <ele>573.2</ele>
        <time>2025-09-07T10:32:05Z</time>
      </trkpt>
      <trkpt lat="46.20108" lon="4.60103">
        <ele>573.6</ele>
        <time>2025-09-07T10:32:06Z</time>
      </trkpt>
      <trkpt lat="46.20109" lon="4.60102">
        <ele>572.8</ele>
        <time>2025-09-07T10:32:07Z</time>
      </trkpt>
      <trkpt lat="46.2011" lon="4.60099">
        <ele>572.8</ele>
        <time>2025-09-07T10:32:08Z</time>
      </trkpt>
      <trkpt lat="46.20111" lon="4.60095">
        <ele>572.2</ele>
        <time>2025-09-07T10:32:09Z</time>
      </trkpt>
      <trkpt lat="46.20112" lon="4.60091">
        <ele>571.6</ele>
        <time>2025-09-07T10:32:10Z</time>
      </trkpt>
      <trkpt lat="46.20113" lon="4.60087">
        <ele>571.2</ele>
        <time>2025-09-07T10:32:11Z</time>
      </trkpt>
      <trkpt lat="46.20115" lon="4.60083">
        <ele>570.4</ele>
        <time>2025-09-07T10:32:12Z</time>
      </trkpt>
      <trkpt lat="46.20117" lon="4.60079">
        <ele>570</ele>
        <time>2025-09-07T10:32:13Z</time>
      </trkpt>
      <trkpt lat="46.20119" lon="4.60075">
        <ele>569.6</ele>
        <time>2025-09-07T10:32:14Z</time>
      </trkpt>
      <trkpt lat="46.20122" lon="4.60071">
        <ele>570.2</ele>
        <time>2025-09-07T10:32:15Z</time>
      </trkpt>
      <trkpt lat="46.20125" lon="4.60067">
        <ele>570</ele>
        <time>2025-09-07T10:32:16Z</time>
      </trkpt>
      <trkpt lat="46.20128" lon="4.60064">
        <ele>569</ele>
        <time>2025-09-07T10:32:17Z</time>
      </trkpt>
      <trkpt lat="46.20132" lon="4.60061">
        <ele>568.8</ele>
        <time>2025-09-07T10:32:18Z</time>
      </trkpt>
      <trkpt lat="46.20134" lon="4.6006">
        <ele>568.8</ele>
        <time>2025-09-07T10:32:19Z</time>
      </trkpt>
      <trkpt lat="46.20134" lon="4.60059">
        <ele>568.8</ele>
        <time>2025-09-07T10:32:20Z</time>
      </trkpt>
      <trkpt lat="46.20134" lon="4.6006">
        <ele>568.2</ele>
        <time>2025-09-07T10:32:21Z</time>
      </trkpt>
      <trkpt lat="46.20135" lon="4.6006">
        <ele>568</ele>
        <time>2025-09-07T10:32:22Z</time>
      </trkpt>
      <trkpt lat="46.20135" lon="4.6006">
        <ele>567.8</ele>
        <time>2025-09-07T10:32:23Z</time>
      </trkpt>
      <trkpt lat="46.20134" lon="4.60061">
        <ele>567.8</ele>
        <time>2025-09-07T10:32:24Z</time>
      </trkpt>
      <trkpt lat="46.20134" lon="4.60061">
        <ele>567</ele>
        <time>2025-09-07T10:32:43Z</time>
      </trkpt>
      <trkpt lat="46.20135" lon="4.6006">
        <ele>567</ele>
        <time>2025-09-07T10:32:44Z</time>
      </trkpt>
      <trkpt lat="46.20137" lon="4.60059">
        <ele>567</ele>
        <time>2025-09-07T10:32:45Z</time>
      </trkpt>
      <trkpt lat="46.20138" lon="4.60058">
        <ele>566.6</ele>
        <time>2025-09-07T10:32:46Z</time>
      </trkpt>
      <trkpt lat="46.20139" lon="4.60057">
        <ele>566.2</ele>
        <time>2025-09-07T10:32:47Z</time>
      </trkpt>
      <trkpt lat="46.2014" lon="4.60056">
        <ele>566.2</ele>
        <time>2025-09-07T10:32:48Z</time>
      </trkpt>
      <trkpt lat="46.20142" lon="4.60054">
        <ele>566.2</ele>
        <time>2025-09-07T10:32:49Z</time>
      </trkpt>
      <trkpt lat="46.20142" lon="4.60051">
        <ele>566.2</ele>
        <time>2025-09-07T10:32:50Z</time>
      </trkpt>
      <trkpt lat="46.20142" lon="4.60049">
        <ele>566.2</ele>
        <time>2025-09-07T10:32:51Z</time>
      </trkpt>
      <trkpt lat="46.20142" lon="4.60047">
        <ele>566.2</ele>
        <time>2025-09-07T10:32:52Z</time>
      </trkpt>
      <trkpt lat="46.20142" lon="4.60044">
        <ele>566</ele>
        <time>2025-09-07T10:32:53Z</time>
      </trkpt>
      <trkpt lat="46.20143" lon="4.60042">
        <ele>566</ele>
        <time>2025-09-07T10:32:54Z</time>
      </trkpt>
      <trkpt lat="46.20144" lon="4.6004">
        <ele>566</ele>
        <time>2025-09-07T10:32:55Z</time>
      </trkpt>
      <trkpt lat="46.20146" lon="4.60037">
        <ele>566</ele>
        <time>2025-09-07T10:32:56Z</time>
      </trkpt>
      <trkpt lat="46.20149" lon="4.60033">
        <ele>565.4</ele>
        <time>2025-09-07T10:32:57Z</time>
      </trkpt>
      <trkpt lat="46.20151" lon="4.6003">
        <ele>565</ele>
        <time>2025-09-07T10:32:58Z</time>
      </trkpt>
      <trkpt lat="46.20154" lon="4.60028">
        <ele>565</ele>
        <time>2025-09-07T10:32:59Z</time>
      </trkpt>
      <trkpt lat="46.20156" lon="4.60025">
        <ele>564.4</ele>
        <time>2025-09-07T10:33:00Z</time>
      </trkpt>
      <trkpt lat="46.2016" lon="4.60022">
        <ele>564.4</ele>
        <time>2025-09-07T10:33:01Z</time>
      </trkpt>
      <trkpt lat="46.20163" lon="4.60019">
        <ele>564.4</ele>
        <time>2025-09-07T10:33:02Z</time>
      </trkpt>
      <trkpt lat="46.20166" lon="4.60016">
        <ele>564.2</ele>
        <time>2025-09-07T10:33:03Z</time>
      </trkpt>
      <trkpt lat="46.20169" lon="4.60013">
        <ele>564.2</ele>
        <time>2025-09-07T10:33:04Z</time>
      </trkpt>
      <trkpt lat="46.20172" lon="4.6001">
        <ele>563.8</ele>
        <time>2025-09-07T10:33:05Z</time>
      </trkpt>
      <trkpt lat="46.20175" lon="4.60008">
        <ele>563.2</ele>
        <time>2025-09-07T10:33:06Z</time>
      </trkpt>
      <trkpt lat="46.20178" lon="4.60006">
        <ele>561.6</ele>
        <time>2025-09-07T10:33:07Z</time>
      </trkpt>
      <trkpt lat="46.2018" lon="4.60005">
        <ele>561.4</ele>
        <time>2025-09-07T10:33:08Z</time>
      </trkpt>
      <trkpt lat="46.20182" lon="4.60003">
        <ele>561.4</ele>
        <time>2025-09-07T10:33:09Z</time>
      </trkpt>
      <trkpt lat="46.20185" lon="4.60001">
        <ele>561.4</ele>
        <time>2025-09-07T10:33:10Z</time>
      </trkpt>
      <trkpt lat="46.20188" lon="4.6">
        <ele>561</ele>
        <time>2025-09-07T10:33:11Z</time>
      </trkpt>
      <trkpt lat="46.2019" lon="4.59999">
        <ele>561</ele>
        <time>2025-09-07T10:33:12Z</time>
      </trkpt>
      <trkpt lat="46.20192" lon="4.59997">
        <ele>560.6</ele>
        <time>2025-09-07T10:33:13Z</time>
      </trkpt>
      <trkpt lat="46.20193" lon="4.59996">
        <ele>560.6</ele>
        <time>2025-09-07T10:33:14Z</time>
      </trkpt>
      <trkpt lat="46.20195" lon="4.59992">
        <ele>560.2</ele>
        <time>2025-09-07T10:33:15Z</time>
      </trkpt>
      <trkpt lat="46.20197" lon="4.59988">
        <ele>559.6</ele>
        <time>2025-09-07T10:33:16Z</time>
      </trkpt>
      <trkpt lat="46.20198" lon="4.59984">
        <ele>559.6</ele>
        <time>2025-09-07T10:33:17Z</time>
      </trkpt>
      <trkpt lat="46.20198" lon="4.59982">
        <ele>559.2</ele>
        <time>2025-09-07T10:33:18Z</time>
      </trkpt>
      <trkpt lat="46.20199" lon="4.59981">
        <ele>559.2</ele>
        <time>2025-09-07T10:33:19Z</time>
      </trkpt>
      <trkpt lat="46.202" lon="4.59978">
        <ele>559.6</ele>
        <time>2025-09-07T10:33:20Z</time>
      </trkpt>
      <trkpt lat="46.20202" lon="4.59976">
        <ele>559.2</ele>
        <time>2025-09-07T10:33:21Z</time>
      </trkpt>
      <trkpt lat="46.20204" lon="4.59974">
        <ele>558.4</ele>
        <time>2025-09-07T10:33:22Z</time>
      </trkpt>
      <trkpt lat="46.20206" lon="4.59972">
        <ele>558.4</ele>
        <time>2025-09-07T10:33:23Z</time>
      </trkpt>
      <trkpt lat="46.2021" lon="4.59967">
        <ele>558</ele>
        <time>2025-09-07T10:33:24Z</time>
      </trkpt>
      <trkpt lat="46.20212" lon="4.59965">
        <ele>558</ele>
        <time>2025-09-07T10:33:25Z</time>
      </trkpt>
      <trkpt lat="46.20214" lon="4.59963">
        <ele>557.4</ele>
        <time>2025-09-07T10:33:26Z</time>
      </trkpt>
      <trkpt lat="46.20216" lon="4.59962">
        <ele>556.6</ele>
        <time>2025-09-07T10:33:27Z</time>
      </trkpt>
      <trkpt lat="46.20218" lon="4.5996">
        <ele>556.2</ele>
        <time>2025-09-07T10:33:28Z</time>
      </trkpt>
      <trkpt lat="46.2022" lon="4.59958">
        <ele>555.4</ele>
        <time>2025-09-07T10:33:29Z</time>
      </trkpt>
      <trkpt lat="46.20223" lon="4.59956">
        <ele>555.4</ele>
        <time>2025-09-07T10:33:30Z</time>
      </trkpt>
      <trkpt lat="46.20226" lon="4.59955">
        <ele>555</ele>
        <time>2025-09-07T10:33:31Z</time>
      </trkpt>
      <trkpt lat="46.20229" lon="4.59952">
        <ele>555</ele>
        <time>2025-09-07T10:33:32Z</time>
      </trkpt>
      <trkpt lat="46.2023" lon="4.5995">
        <ele>555</ele>
        <time>2025-09-07T10:33:33Z</time>
      </trkpt>
      <trkpt lat="46.20231" lon="4.59949">
        <ele>554.8</ele>
        <time>2025-09-07T10:33:34Z</time>
      </trkpt>
      <trkpt lat="46.20232" lon="4.59946">
        <ele>554.6</ele>
        <time>2025-09-07T10:33:35Z</time>
      </trkpt>
      <trkpt lat="46.20234" lon="4.59945">
        <ele>554.2</ele>
        <time>2025-09-07T10:33:36Z</time>
      </trkpt>
      <trkpt lat="46.20235" lon="4.59943">
        <ele>554.2</ele>
        <time>2025-09-07T10:33:37Z</time>
      </trkpt>
      <trkpt lat="46.20237" lon="4.59941">
        <ele>553.8</ele>
        <time>2025-09-07T10:33:38Z</time>
      </trkpt>
      <trkpt lat="46.20238" lon="4.5994">
        <ele>553.6</ele>
        <time>2025-09-07T10:33:39Z</time>
      </trkpt>
      <trkpt lat="46.2024" lon="4.59938">
        <ele>553</ele>
        <time>2025-09-07T10:33:40Z</time>
      </trkpt>
      <trkpt lat="46.20242" lon="4.59938">
        <ele>553</ele>
        <time>2025-09-07T10:33:41Z</time>
      </trkpt>
      <trkpt lat="46.20244" lon="4.59937">
        <ele>553</ele>
        <time>2025-09-07T10:33:42Z</time>
      </trkpt>
      <trkpt lat="46.20246" lon="4.59937">
        <ele>553</ele>
        <time>2025-09-07T10:33:43Z</time>
      </trkpt>
      <trkpt lat="46.20248" lon="4.59937">
        <ele>552.6</ele>
        <time>2025-09-07T10:33:44Z</time>
      </trkpt>
      <trkpt lat="46.20249" lon="4.59939">
        <ele>552.6</ele>
        <time>2025-09-07T10:33:45Z</time>
      </trkpt>
      <trkpt lat="46.20252" lon="4.59941">
        <ele>553</ele>
        <time>2025-09-07T10:33:46Z</time>
      </trkpt>
      <trkpt lat="46.20254" lon="4.59942">
        <ele>553</ele>
        <time>2025-09-07T10:33:47Z</time>
      </trkpt>
      <trkpt lat="46.20258" lon="4.59941">
        <ele>552.6</ele>
        <time>2025-09-07T10:33:48Z</time>
      </trkpt>
      <trkpt lat="46.20262" lon="4.59938">
        <ele>552.6</ele>
        <time>2025-09-07T10:33:49Z</time>
      </trkpt>
      <trkpt lat="46.20266" lon="4.59935">
        <ele>552.4</ele>
        <time>2025-09-07T10:33:50Z</time>
      </trkpt>
      <trkpt lat="46.2027" lon="4.59933">
        <ele>552.4</ele>
        <time>2025-09-07T10:33:51Z</time>
      </trkpt>
      <trkpt lat="46.20274" lon="4.59931">
        <ele>552</ele>
        <time>2025-09-07T10:33:52Z</time>
      </trkpt>
      <trkpt lat="46.20277" lon="4.5993">
        <ele>552</ele>
        <time>2025-09-07T10:33:53Z</time>
      </trkpt>
      <trkpt lat="46.2028" lon="4.59929">
        <ele>552</ele>
        <time>2025-09-07T10:33:54Z</time>
      </trkpt>
      <trkpt lat="46.20283" lon="4.59928">
        <ele>551.8</ele>
        <time>2025-09-07T10:33:55Z</time>
      </trkpt>
      <trkpt lat="46.20287" lon="4.59925">
        <ele>551.8</ele>
        <time>2025-09-07T10:33:56Z</time>
      </trkpt>
      <trkpt lat="46.20291" lon="4.59922">
        <ele>551.6</ele>
        <time>2025-09-07T10:33:57Z</time>
      </trkpt>
      <trkpt lat="46.20294" lon="4.59919">
        <ele>551.6</ele>
        <time>2025-09-07T10:33:58Z</time>
      </trkpt>
      <trkpt lat="46.20296" lon="4.59916">
        <ele>551.6</ele>
        <time>2025-09-07T10:33:59Z</time>
      </trkpt>
      <trkpt lat="46.20298" lon="4.59913">
        <ele>551.6</ele>
        <time>2025-09-07T10:34:00Z</time>
      </trkpt>
      <trkpt lat="46.20303" lon="4.59903">
        <ele>551.6</ele>
        <time>2025-09-07T10:34:01Z</time>
      </trkpt>
      <trkpt lat="46.20305" lon="4.59899">
        <ele>551.6</ele>
        <time>2025-09-07T10:34:02Z</time>
      </trkpt>
      <trkpt lat="46.20309" lon="4.59896">
        <ele>550.8</ele>
        <time>2025-09-07T10:34:03Z</time>
      </trkpt>
      <trkpt lat="46.20314" lon="4.5989">
        <ele>550.6</ele>
        <time>2025-09-07T10:34:04Z</time>
      </trkpt>
      <trkpt lat="46.20318" lon="4.59889">
        <ele>550</ele>
        <time>2025-09-07T10:34:05Z</time>
      </trkpt>
      <trkpt lat="46.20322" lon="4.59888">
        <ele>549.8</ele>
        <time>2025-09-07T10:34:06Z</time>
      </trkpt>
      <trkpt lat="46.20324" lon="4.59886">
        <ele>549.6</ele>
        <time>2025-09-07T10:34:07Z</time>
      </trkpt>
      <trkpt lat="46.20326" lon="4.59885">
        <ele>549.6</ele>
        <time>2025-09-07T10:34:08Z</time>
      </trkpt>
      <trkpt lat="46.20328" lon="4.59882">
        <ele>549.2</ele>
        <time>2025-09-07T10:34:09Z</time>
      </trkpt>
      <trkpt lat="46.20328" lon="4.59882">
        <ele>548.8</ele>
        <time>2025-09-07T10:34:10Z</time>
      </trkpt>
      <trkpt lat="46.20335" lon="4.59878">
        <ele>548.4</ele>
        <time>2025-09-07T10:34:11Z</time>
      </trkpt>
      <trkpt lat="46.2034" lon="4.59875">
        <ele>548.4</ele>
        <time>2025-09-07T10:34:12Z</time>
      </trkpt>
      <trkpt lat="46.2034" lon="4.59875">
        <ele>548</ele>
        <time>2025-09-07T10:34:13Z</time>
      </trkpt>
      <trkpt lat="46.20344" lon="4.59872">
        <ele>547.4</ele>
        <time>2025-09-07T10:34:14Z</time>
      </trkpt>
      <trkpt lat="46.20347" lon="4.5987">
        <ele>547.4</ele>
        <time>2025-09-07T10:34:15Z</time>
      </trkpt>
      <trkpt lat="46.20349" lon="4.59868">
        <ele>547</ele>
        <time>2025-09-07T10:34:16Z</time>
      </trkpt>
      <trkpt lat="46.20353" lon="4.59866">
        <ele>546.4</ele>
        <time>2025-09-07T10:34:17Z</time>
      </trkpt>
      <trkpt lat="46.20358" lon="4.59866">
        <ele>546</ele>
        <time>2025-09-07T10:34:18Z</time>
      </trkpt>
      <trkpt lat="46.20362" lon="4.59864">
        <ele>545.6</ele>
        <time>2025-09-07T10:34:19Z</time>
      </trkpt>
      <trkpt lat="46.20366" lon="4.59862">
        <ele>545.6</ele>
        <time>2025-09-07T10:34:20Z</time>
      </trkpt>
      <trkpt lat="46.20371" lon="4.59859">
        <ele>545</ele>
        <time>2025-09-07T10:34:21Z</time>
      </trkpt>
      <trkpt lat="46.20375" lon="4.59858">
        <ele>544.6</ele>
        <time>2025-09-07T10:34:22Z</time>
      </trkpt>
      <trkpt lat="46.20378" lon="4.59856">
        <ele>544.2</ele>
        <time>2025-09-07T10:34:23Z</time>
      </trkpt>
      <trkpt lat="46.20382" lon="4.59854">
        <ele>543.6</ele>
        <time>2025-09-07T10:34:24Z</time>
      </trkpt>
      <trkpt lat="46.20386" lon="4.59852">
        <ele>543.6</ele>
        <time>2025-09-07T10:34:25Z</time>
      </trkpt>
      <trkpt lat="46.20389" lon="4.5985">
        <ele>543.2</ele>
        <time>2025-09-07T10:34:26Z</time>
      </trkpt>
      <trkpt lat="46.20392" lon="4.59846">
        <ele>543.6</ele>
        <time>2025-09-07T10:34:27Z</time>
      </trkpt>
      <trkpt lat="46.20393" lon="4.59844">
        <ele>543.6</ele>
        <time>2025-09-07T10:34:28Z</time>
      </trkpt>
      <trkpt lat="46.20395" lon="4.59842">
        <ele>543.2</ele>
        <time>2025-09-07T10:34:29Z</time>
      </trkpt>
      <trkpt lat="46.20397" lon="4.59839">
        <ele>543.2</ele>
        <time>2025-09-07T10:34:30Z</time>
      </trkpt>
      <trkpt lat="46.20398" lon="4.59836">
        <ele>543.2</ele>
        <time>2025-09-07T10:34:31Z</time>
      </trkpt>
      <trkpt lat="46.20398" lon="4.59839">
        <ele>543.2</ele>
        <time>2025-09-07T10:34:32Z</time>
      </trkpt>
      <trkpt lat="46.20398" lon="4.59838">
        <ele>543.2</ele>
        <time>2025-09-07T10:34:33Z</time>
      </trkpt>
      <trkpt lat="46.20399" lon="4.59848">
        <ele>542.6</ele>
        <time>2025-09-07T11:45:47Z</time>
      </trkpt>
      <trkpt lat="46.20399" lon="4.59847">
        <ele>542.6</ele>
        <time>2025-09-07T11:45:48Z</time>
      </trkpt>
      <trkpt lat="46.20399" lon="4.59845">
        <ele>542.6</ele>
        <time>2025-09-07T11:45:49Z</time>
      </trkpt>
      <trkpt lat="46.20399" lon="4.59845">
        <ele>542.6</ele>
        <time>2025-09-07T11:45:50Z</time>
      </trkpt>
      <trkpt lat="46.204" lon="4.59844">
        <ele>542.6</ele>
        <time>2025-09-07T11:45:51Z</time>
      </trkpt>
      <trkpt lat="46.204" lon="4.59843">
        <ele>542.6</ele>
        <time>2025-09-07T11:45:52Z</time>
      </trkpt>
      <trkpt lat="46.204" lon="4.59844">
        <ele>542.6</ele>
        <time>2025-09-07T11:45:53Z</time>
      </trkpt>
      <trkpt lat="46.20398" lon="4.59844">
        <ele>542.4</ele>
        <time>2025-09-07T11:46:02Z</time>
      </trkpt>
      <trkpt lat="46.20399" lon="4.59841">
        <ele>542.4</ele>
        <time>2025-09-07T11:46:03Z</time>
      </trkpt>
      <trkpt lat="46.20399" lon="4.59839">
        <ele>542.4</ele>
        <time>2025-09-07T11:46:04Z</time>
      </trkpt>
      <trkpt lat="46.204" lon="4.59836">
        <ele>542.4</ele>
        <time>2025-09-07T11:46:05Z</time>
      </trkpt>
      <trkpt lat="46.204" lon="4.59835">
        <ele>542.4</ele>
        <time>2025-09-07T11:46:06Z</time>
      </trkpt>
      <trkpt lat="46.204" lon="4.59835">
        <ele>542.4</ele>
        <time>2025-09-07T11:46:07Z</time>
      </trkpt>
      <trkpt lat="46.204" lon="4.59834">
        <ele>542.4</ele>
        <time>2025-09-07T11:46:22Z</time>
      </trkpt>
      <trkpt lat="46.20401" lon="4.59832">
        <ele>542.4</ele>
        <time>2025-09-07T11:46:23Z</time>
      </trkpt>
      <trkpt lat="46.20402" lon="4.5983">
        <ele>542.2</ele>
        <time>2025-09-07T11:46:24Z</time>
      </trkpt>
      <trkpt lat="46.20403" lon="4.59826">
        <ele>542.2</ele>
        <time>2025-09-07T11:46:25Z</time>
      </trkpt>
      <trkpt lat="46.20404" lon="4.59823">
        <ele>542</ele>
        <time>2025-09-07T11:46:26Z</time>
      </trkpt>
      <trkpt lat="46.20405" lon="4.59821">
        <ele>542</ele>
        <time>2025-09-07T11:46:27Z</time>
      </trkpt>
      <trkpt lat="46.20405" lon="4.59819">
        <ele>541.8</ele>
        <time>2025-09-07T11:46:28Z</time>
      </trkpt>
      <trkpt lat="46.20406" lon="4.59817">
        <ele>541.8</ele>
        <time>2025-09-07T11:46:29Z</time>
      </trkpt>
      <trkpt lat="46.20407" lon="4.59814">
        <ele>541.4</ele>
        <time>2025-09-07T11:46:30Z</time>
      </trkpt>
      <trkpt lat="46.20408" lon="4.59811">
        <ele>541.4</ele>
        <time>2025-09-07T11:46:31Z</time>
      </trkpt>
      <trkpt lat="46.20409" lon="4.59808">
        <ele>541.4</ele>
        <time>2025-09-07T11:46:32Z</time>
      </trkpt>
      <trkpt lat="46.2041" lon="4.59805">
        <ele>541.4</ele>
        <time>2025-09-07T11:46:33Z</time>
      </trkpt>
      <trkpt lat="46.20411" lon="4.59801">
        <ele>541.4</ele>
        <time>2025-09-07T11:46:34Z</time>
      </trkpt>
      <trkpt lat="46.20413" lon="4.59797">
        <ele>541.4</ele>
        <time>2025-09-07T11:46:35Z</time>
      </trkpt>
      <trkpt lat="46.20413" lon="4.59795">
        <ele>541.4</ele>
        <time>2025-09-07T11:46:36Z</time>
      </trkpt>
      <trkpt lat="46.20413" lon="4.59793">
        <ele>541.2</ele>
        <time>2025-09-07T11:46:37Z</time>
      </trkpt>
      <trkpt lat="46.20414" lon="4.59791">
        <ele>541.2</ele>
        <time>2025-09-07T11:46:38Z</time>
      </trkpt>
      <trkpt lat="46.20414" lon="4.59789">
        <ele>541.2</ele>
        <time>2025-09-07T11:46:39Z</time>
      </trkpt>
      <trkpt lat="46.20415" lon="4.59787">
        <ele>541.2</ele>
        <time>2025-09-07T11:46:40Z</time>
      </trkpt>
      <trkpt lat="46.20416" lon="4.59784">
        <ele>541.2</ele>
        <time>2025-09-07T11:46:41Z</time>
      </trkpt>
      <trkpt lat="46.20416" lon="4.59782">
        <ele>541.2</ele>
        <time>2025-09-07T11:46:42Z</time>
      </trkpt>
      <trkpt lat="46.20416" lon="4.59779">
        <ele>541.2</ele>
        <time>2025-09-07T11:46:43Z</time>
      </trkpt>
      <trkpt lat="46.20416" lon="4.59777">
        <ele>541.4</ele>
        <time>2025-09-07T11:46:44Z</time>
      </trkpt>
      <trkpt lat="46.20416" lon="4.59775">
        <ele>541.4</ele>
        <time>2025-09-07T11:46:45Z</time>
      </trkpt>
      <trkpt lat="46.20415" lon="4.59772">
        <ele>541.4</ele>
        <time>2025-09-07T11:46:46Z</time>
      </trkpt>
      <trkpt lat="46.20415" lon="4.5977">
        <ele>541.4</ele>
        <time>2025-09-07T11:46:47Z</time>
      </trkpt>
      <trkpt lat="46.20414" lon="4.59768">
        <ele>541.4</ele>
        <time>2025-09-07T11:46:48Z</time>
      </trkpt>
      <trkpt lat="46.20413" lon="4.59766">
        <ele>541.4</ele>
        <time>2025-09-07T11:46:49Z</time>
      </trkpt>
      <trkpt lat="46.20413" lon="4.59764">
        <ele>541.4</ele>
        <time>2025-09-07T11:46:50Z</time>
      </trkpt>
      <trkpt lat="46.20413" lon="4.59764">
        <ele>541.4</ele>
        <time>2025-09-07T11:46:51Z</time>
      </trkpt>
      <trkpt lat="46.20413" lon="4.59764">
        <ele>541.4</ele>
        <time>2025-09-07T11:46:52Z</time>
      </trkpt>
      <trkpt lat="46.20413" lon="4.59762">
        <ele>541.6</ele>
        <time>2025-09-07T11:46:55Z</time>
      </trkpt>
      <trkpt lat="46.20413" lon="4.59761">
        <ele>541.6</ele>
        <time>2025-09-07T11:46:56Z</time>
      </trkpt>
      <trkpt lat="46.20413" lon="4.59761">
        <ele>541.6</ele>
        <time>2025-09-07T11:46:57Z</time>
      </trkpt>
      <trkpt lat="46.20413" lon="4.59761">
        <ele>541.6</ele>
        <time>2025-09-07T11:46:58Z</time>
      </trkpt>
      <trkpt lat="46.20413" lon="4.5976">
        <ele>541.6</ele>
        <time>2025-09-07T11:46:59Z</time>
      </trkpt>
      <trkpt lat="46.20413" lon="4.59758">
        <ele>541.6</ele>
        <time>2025-09-07T11:47:00Z</time>
      </trkpt>
      <trkpt lat="46.20413" lon="4.59756">
        <ele>542</ele>
        <time>2025-09-07T11:47:01Z</time>
      </trkpt>
      <trkpt lat="46.20413" lon="4.59755">
        <ele>542.2</ele>
        <time>2025-09-07T11:47:02Z</time>
      </trkpt>
      <trkpt lat="46.20413" lon="4.59753">
        <ele>542.2</ele>
        <time>2025-09-07T11:47:03Z</time>
      </trkpt>
      <trkpt lat="46.20413" lon="4.59752">
        <ele>542</ele>
        <time>2025-09-07T11:47:04Z</time>
      </trkpt>
      <trkpt lat="46.20413" lon="4.59751">
        <ele>542</ele>
        <time>2025-09-07T11:47:05Z</time>
      </trkpt>
      <trkpt lat="46.20413" lon="4.59751">
        <ele>542.2</ele>
        <time>2025-09-07T11:47:06Z</time>
      </trkpt>
      <trkpt lat="46.20413" lon="4.5975">
        <ele>542.2</ele>
        <time>2025-09-07T11:47:07Z</time>
      </trkpt>
      <trkpt lat="46.20413" lon="4.59748">
        <ele>542.2</ele>
        <time>2025-09-07T11:47:08Z</time>
      </trkpt>
      <trkpt lat="46.20413" lon="4.59747">
        <ele>542.2</ele>
        <time>2025-09-07T11:47:09Z</time>
      </trkpt>
      <trkpt lat="46.20413" lon="4.59746">
        <ele>542.2</ele>
        <time>2025-09-07T11:47:10Z</time>
      </trkpt>
      <trkpt lat="46.20414" lon="4.59745">
        <ele>542.2</ele>
        <time>2025-09-07T11:47:11Z</time>
      </trkpt>
      <trkpt lat="46.20414" lon="4.59743">
        <ele>542.2</ele>
        <time>2025-09-07T11:47:12Z</time>
      </trkpt>
      <trkpt lat="46.20415" lon="4.59742">
        <ele>542.4</ele>
        <time>2025-09-07T11:47:13Z</time>
      </trkpt>
      <trkpt lat="46.20415" lon="4.5974">
        <ele>542.4</ele>
        <time>2025-09-07T11:47:14Z</time>
      </trkpt>
      <trkpt lat="46.20415" lon="4.59739">
        <ele>542.4</ele>
        <time>2025-09-07T11:47:15Z</time>
      </trkpt>
      <trkpt lat="46.20415" lon="4.59738">
        <ele>542.4</ele>
        <time>2025-09-07T11:47:16Z</time>
      </trkpt>
      <trkpt lat="46.20415" lon="4.59736">
        <ele>542.6</ele>
        <time>2025-09-07T11:47:17Z</time>
      </trkpt>
      <trkpt lat="46.20415" lon="4.59735">
        <ele>542.6</ele>
        <time>2025-09-07T11:47:18Z</time>
      </trkpt>
      <trkpt lat="46.20415" lon="4.59733">
        <ele>543</ele>
        <time>2025-09-07T11:47:19Z</time>
      </trkpt>
      <trkpt lat="46.20415" lon="4.59732">
        <ele>543</ele>
        <time>2025-09-07T11:47:20Z</time>
      </trkpt>
      <trkpt lat="46.20415" lon="4.5973">
        <ele>543.4</ele>
        <time>2025-09-07T11:47:21Z</time>
      </trkpt>
      <trkpt lat="46.20415" lon="4.59729">
        <ele>542.8</ele>
        <time>2025-09-07T11:47:22Z</time>
      </trkpt>
      <trkpt lat="46.20415" lon="4.59727">
        <ele>543</ele>
        <time>2025-09-07T11:47:23Z</time>
      </trkpt>
      <trkpt lat="46.20416" lon="4.59726">
        <ele>543</ele>
        <time>2025-09-07T11:47:24Z</time>
      </trkpt>
      <trkpt lat="46.20416" lon="4.59725">
        <ele>543</ele>
        <time>2025-09-07T11:47:25Z</time>
      </trkpt>
      <trkpt lat="46.20416" lon="4.59724">
        <ele>543</ele>
        <time>2025-09-07T11:47:26Z</time>
      </trkpt>
      <trkpt lat="46.20416" lon="4.59724">
        <ele>543</ele>
        <time>2025-09-07T11:47:27Z</time>
      </trkpt>
      <trkpt lat="46.20416" lon="4.59724">
        <ele>543.2</ele>
        <time>2025-09-07T11:47:28Z</time>
      </trkpt>
      <trkpt lat="46.20417" lon="4.59723">
        <ele>543.6</ele>
        <time>2025-09-07T11:47:44Z</time>
      </trkpt>
      <trkpt lat="46.20417" lon="4.59721">
        <ele>543.6</ele>
        <time>2025-09-07T11:47:45Z</time>
      </trkpt>
      <trkpt lat="46.20417" lon="4.5972">
        <ele>544</ele>
        <time>2025-09-07T11:47:46Z</time>
      </trkpt>
      <trkpt lat="46.20417" lon="4.59717">
        <ele>544.2</ele>
        <time>2025-09-07T11:47:47Z</time>
      </trkpt>
      <trkpt lat="46.20418" lon="4.59715">
        <ele>544.6</ele>
        <time>2025-09-07T11:47:48Z</time>
      </trkpt>
      <trkpt lat="46.20418" lon="4.59713">
        <ele>544.4</ele>
        <time>2025-09-07T11:47:49Z</time>
      </trkpt>
      <trkpt lat="46.20419" lon="4.59712">
        <ele>544</ele>
        <time>2025-09-07T11:47:50Z</time>
      </trkpt>
      <trkpt lat="46.20419" lon="4.5971">
        <ele>544.4</ele>
        <time>2025-09-07T11:47:51Z</time>
      </trkpt>
      <trkpt lat="46.2042" lon="4.59708">
        <ele>544.6</ele>
        <time>2025-09-07T11:47:52Z</time>
      </trkpt>
      <trkpt lat="46.2042" lon="4.59707">
        <ele>544.8</ele>
        <time>2025-09-07T11:47:53Z</time>
      </trkpt>
      <trkpt lat="46.2042" lon="4.59706">
        <ele>544.4</ele>
        <time>2025-09-07T11:47:54Z</time>
      </trkpt>
      <trkpt lat="46.20421" lon="4.59704">
        <ele>544.8</ele>
        <time>2025-09-07T11:47:55Z</time>
      </trkpt>
      <trkpt lat="46.20421" lon="4.59703">
        <ele>544.8</ele>
        <time>2025-09-07T11:47:56Z</time>
      </trkpt>
      <trkpt lat="46.20422" lon="4.59701">
        <ele>544.4</ele>
        <time>2025-09-07T11:47:57Z</time>
      </trkpt>
      <trkpt lat="46.20423" lon="4.597">
        <ele>545</ele>
        <time>2025-09-07T11:47:58Z</time>
      </trkpt>
      <trkpt lat="46.20423" lon="4.59699">
        <ele>545</ele>
        <time>2025-09-07T11:47:59Z</time>
      </trkpt>
      <trkpt lat="46.20423" lon="4.59698">
        <ele>545.4</ele>
        <time>2025-09-07T11:48:00Z</time>
      </trkpt>
      <trkpt lat="46.20423" lon="4.59698">
        <ele>545.4</ele>
        <time>2025-09-07T11:48:01Z</time>
      </trkpt>
      <trkpt lat="46.20424" lon="4.59696">
        <ele>545.4</ele>
        <time>2025-09-07T11:48:02Z</time>
      </trkpt>
      <trkpt lat="46.20424" lon="4.59696">
        <ele>545.6</ele>
        <time>2025-09-07T11:48:03Z</time>
      </trkpt>
      <trkpt lat="46.20425" lon="4.59696">
        <ele>545.6</ele>
        <time>2025-09-07T11:48:04Z</time>
      </trkpt>
      <trkpt lat="46.20425" lon="4.59695">
        <ele>546</ele>
        <time>2025-09-07T11:48:05Z</time>
      </trkpt>
      <trkpt lat="46.20427" lon="4.59693">
        <ele>546</ele>
        <time>2025-09-07T11:48:06Z</time>
      </trkpt>
      <trkpt lat="46.20428" lon="4.59691">
        <ele>546.2</ele>
        <time>2025-09-07T11:48:07Z</time>
      </trkpt>
      <trkpt lat="46.20429" lon="4.59691">
        <ele>546.2</ele>
        <time>2025-09-07T11:48:08Z</time>
      </trkpt>
      <trkpt lat="46.2043" lon="4.5969">
        <ele>546.4</ele>
        <time>2025-09-07T11:48:09Z</time>
      </trkpt>
      <trkpt lat="46.20427" lon="4.59692">
        <ele>545.8</ele>
        <time>2025-09-07T11:49:12Z</time>
      </trkpt>
      <trkpt lat="46.20426" lon="4.59693">
        <ele>545.8</ele>
        <time>2025-09-07T11:49:13Z</time>
      </trkpt>
      <trkpt lat="46.20425" lon="4.59694">
        <ele>545.4</ele>
        <time>2025-09-07T11:49:14Z</time>
      </trkpt>
      <trkpt lat="46.20424" lon="4.59695">
        <ele>545.4</ele>
        <time>2025-09-07T11:49:15Z</time>
      </trkpt>
      <trkpt lat="46.20424" lon="4.59697">
        <ele>545.4</ele>
        <time>2025-09-07T11:49:16Z</time>
      </trkpt>
      <trkpt lat="46.20425" lon="4.59698">
        <ele>545</ele>
        <time>2025-09-07T11:49:17Z</time>
      </trkpt>
      <trkpt lat="46.20425" lon="4.597">
        <ele>545</ele>
        <time>2025-09-07T11:49:18Z</time>
      </trkpt>
      <trkpt lat="46.20426" lon="4.59701">
        <ele>545</ele>
        <time>2025-09-07T11:49:19Z</time>
      </trkpt>
      <trkpt lat="46.20425" lon="4.59702">
        <ele>545</ele>
        <time>2025-09-07T11:49:20Z</time>
      </trkpt>
      <trkpt lat="46.20425" lon="4.59703">
        <ele>544.8</ele>
        <time>2025-09-07T11:49:21Z</time>
      </trkpt>
      <trkpt lat="46.20424" lon="4.59705">
        <ele>544.2</ele>
        <time>2025-09-07T11:49:22Z</time>
      </trkpt>
      <trkpt lat="46.20423" lon="4.59706">
        <ele>544.6</ele>
        <time>2025-09-07T11:49:23Z</time>
      </trkpt>
      <trkpt lat="46.20422" lon="4.59706">
        <ele>544.2</ele>
        <time>2025-09-07T11:49:24Z</time>
      </trkpt>
      <trkpt lat="46.20422" lon="4.59707">
        <ele>544.2</ele>
        <time>2025-09-07T11:49:25Z</time>
      </trkpt>
      <trkpt lat="46.20422" lon="4.59708">
        <ele>544.2</ele>
        <time>2025-09-07T11:49:26Z</time>
      </trkpt>
      <trkpt lat="46.20421" lon="4.5971">
        <ele>544.2</ele>
        <time>2025-09-07T11:49:27Z</time>
      </trkpt>
      <trkpt lat="46.20421" lon="4.59712">
        <ele>544</ele>
        <time>2025-09-07T11:49:28Z</time>
      </trkpt>
      <trkpt lat="46.20421" lon="4.59714">
        <ele>544</ele>
        <time>2025-09-07T11:49:29Z</time>
      </trkpt>
      <trkpt lat="46.2042" lon="4.59716">
        <ele>544</ele>
        <time>2025-09-07T11:49:30Z</time>
      </trkpt>
      <trkpt lat="46.2042" lon="4.59718">
        <ele>543.6</ele>
        <time>2025-09-07T11:49:31Z</time>
      </trkpt>
      <trkpt lat="46.20419" lon="4.5972">
        <ele>543.6</ele>
        <time>2025-09-07T11:49:32Z</time>
      </trkpt>
      <trkpt lat="46.20418" lon="4.59722">
        <ele>543.6</ele>
        <time>2025-09-07T11:49:33Z</time>
      </trkpt>
      <trkpt lat="46.20417" lon="4.59723">
        <ele>543.6</ele>
        <time>2025-09-07T11:49:34Z</time>
      </trkpt>
      <trkpt lat="46.20417" lon="4.59724">
        <ele>543.6</ele>
        <time>2025-09-07T11:49:35Z</time>
      </trkpt>
      <trkpt lat="46.20417" lon="4.59726">
        <ele>543.6</ele>
        <time>2025-09-07T11:49:36Z</time>
      </trkpt>
      <trkpt lat="46.20417" lon="4.59728">
        <ele>543.6</ele>
        <time>2025-09-07T11:49:37Z</time>
      </trkpt>
      <trkpt lat="46.20418" lon="4.5973">
        <ele>543.6</ele>
        <time>2025-09-07T11:49:38Z</time>
      </trkpt>
      <trkpt lat="46.20418" lon="4.59732">
        <ele>543.2</ele>
        <time>2025-09-07T11:49:39Z</time>
      </trkpt>
      <trkpt lat="46.20417" lon="4.59734">
        <ele>543.2</ele>
        <time>2025-09-07T11:49:40Z</time>
      </trkpt>
      <trkpt lat="46.20417" lon="4.59735">
        <ele>543.2</ele>
        <time>2025-09-07T11:49:41Z</time>
      </trkpt>
      <trkpt lat="46.20417" lon="4.59737">
        <ele>542.8</ele>
        <time>2025-09-07T11:49:42Z</time>
      </trkpt>
      <trkpt lat="46.20417" lon="4.59739">
        <ele>542.8</ele>
        <time>2025-09-07T11:49:43Z</time>
      </trkpt>
      <trkpt lat="46.20417" lon="4.5974">
        <ele>543</ele>
        <time>2025-09-07T11:49:44Z</time>
      </trkpt>
      <trkpt lat="46.20417" lon="4.59742">
        <ele>542.6</ele>
        <time>2025-09-07T11:49:45Z</time>
      </trkpt>
      <trkpt lat="46.20417" lon="4.59743">
        <ele>542.6</ele>
        <time>2025-09-07T11:49:46Z</time>
      </trkpt>
      <trkpt lat="46.20417" lon="4.59745">
        <ele>542.6</ele>
        <time>2025-09-07T11:49:47Z</time>
      </trkpt>
      <trkpt lat="46.20416" lon="4.59746">
        <ele>542.6</ele>
        <time>2025-09-07T11:49:48Z</time>
      </trkpt>
      <trkpt lat="46.20416" lon="4.59746">
        <ele>542.6</ele>
        <time>2025-09-07T11:49:49Z</time>
      </trkpt>
      <trkpt lat="46.20416" lon="4.59746">
        <ele>542.6</ele>
        <time>2025-09-07T11:49:50Z</time>
      </trkpt>
      <trkpt lat="46.20415" lon="4.59752">
        <ele>542.6</ele>
        <time>2025-09-07T11:49:52Z</time>
      </trkpt>
      <trkpt lat="46.20415" lon="4.59753">
        <ele>542.6</ele>
        <time>2025-09-07T11:49:53Z</time>
      </trkpt>
      <trkpt lat="46.20415" lon="4.59755">
        <ele>542.2</ele>
        <time>2025-09-07T11:49:54Z</time>
      </trkpt>
      <trkpt lat="46.20415" lon="4.59756">
        <ele>542.2</ele>
        <time>2025-09-07T11:49:55Z</time>
      </trkpt>
      <trkpt lat="46.20415" lon="4.59757">
        <ele>542.2</ele>
        <time>2025-09-07T11:49:56Z</time>
      </trkpt>
      <trkpt lat="46.20416" lon="4.59759">
        <ele>542.2</ele>
        <time>2025-09-07T11:49:57Z</time>
      </trkpt>
      <trkpt lat="46.20416" lon="4.5976">
        <ele>542.2</ele>
        <time>2025-09-07T11:49:58Z</time>
      </trkpt>
      <trkpt lat="46.20416" lon="4.59762">
        <ele>542.2</ele>
        <time>2025-09-07T11:49:59Z</time>
      </trkpt>
      <trkpt lat="46.20416" lon="4.59763">
        <ele>542.2</ele>
        <time>2025-09-07T11:50:00Z</time>
      </trkpt>
      <trkpt lat="46.20416" lon="4.59765">
        <ele>542.2</ele>
        <time>2025-09-07T11:50:01Z</time>
      </trkpt>
      <trkpt lat="46.20415" lon="4.59766">
        <ele>542.2</ele>
        <time>2025-09-07T11:50:02Z</time>
      </trkpt>
      <trkpt lat="46.20415" lon="4.59768">
        <ele>542</ele>
        <time>2025-09-07T11:50:03Z</time>
      </trkpt>
      <trkpt lat="46.20415" lon="4.59771">
        <ele>542</ele>
        <time>2025-09-07T11:50:04Z</time>
      </trkpt>
      <trkpt lat="46.20415" lon="4.59774">
        <ele>542.4</ele>
        <time>2025-09-07T11:50:05Z</time>
      </trkpt>
      <trkpt lat="46.20415" lon="4.59775">
        <ele>542.4</ele>
        <time>2025-09-07T11:50:06Z</time>
      </trkpt>
      <trkpt lat="46.20416" lon="4.59776">
        <ele>542.4</ele>
        <time>2025-09-07T11:50:07Z</time>
      </trkpt>
      <trkpt lat="46.20416" lon="4.59778">
        <ele>542.4</ele>
        <time>2025-09-07T11:50:08Z</time>
      </trkpt>
      <trkpt lat="46.20416" lon="4.5978">
        <ele>542.4</ele>
        <time>2025-09-07T11:50:09Z</time>
      </trkpt>
      <trkpt lat="46.20416" lon="4.59781">
        <ele>542.4</ele>
        <time>2025-09-07T11:50:10Z</time>
      </trkpt>
      <trkpt lat="46.20416" lon="4.59782">
        <ele>542</ele>
        <time>2025-09-07T11:50:11Z</time>
      </trkpt>
      <trkpt lat="46.20416" lon="4.59782">
        <ele>541.8</ele>
        <time>2025-09-07T11:50:12Z</time>
      </trkpt>
      <trkpt lat="46.20416" lon="4.59781">
        <ele>541.8</ele>
        <time>2025-09-07T11:50:13Z</time>
      </trkpt>
      <trkpt lat="46.20416" lon="4.59783">
        <ele>541.6</ele>
        <time>2025-09-07T11:50:19Z</time>
      </trkpt>
      <trkpt lat="46.20415" lon="4.59786">
        <ele>541.6</ele>
        <time>2025-09-07T11:50:20Z</time>
      </trkpt>
      <trkpt lat="46.20414" lon="4.59789">
        <ele>541.6</ele>
        <time>2025-09-07T11:50:21Z</time>
      </trkpt>
      <trkpt lat="46.20413" lon="4.59792">
        <ele>541.6</ele>
        <time>2025-09-07T11:50:22Z</time>
      </trkpt>
      <trkpt lat="46.20412" lon="4.59794">
        <ele>541.4</ele>
        <time>2025-09-07T11:50:23Z</time>
      </trkpt>
      <trkpt lat="46.20411" lon="4.59797">
        <ele>541.4</ele>
        <time>2025-09-07T11:50:24Z</time>
      </trkpt>
      <trkpt lat="46.20411" lon="4.598">
        <ele>541.6</ele>
        <time>2025-09-07T11:50:25Z</time>
      </trkpt>
      <trkpt lat="46.2041" lon="4.59804">
        <ele>541.6</ele>
        <time>2025-09-07T11:50:26Z</time>
      </trkpt>
      <trkpt lat="46.20409" lon="4.59807">
        <ele>541.6</ele>
        <time>2025-09-07T11:50:27Z</time>
      </trkpt>
      <trkpt lat="46.20408" lon="4.59811">
        <ele>541.6</ele>
        <time>2025-09-07T11:50:28Z</time>
      </trkpt>
      <trkpt lat="46.20407" lon="4.59814">
        <ele>541.8</ele>
        <time>2025-09-07T11:50:29Z</time>
      </trkpt>
      <trkpt lat="46.20406" lon="4.59818">
        <ele>541.8</ele>
        <time>2025-09-07T11:50:30Z</time>
      </trkpt>
      <trkpt lat="46.20405" lon="4.59821">
        <ele>541.4</ele>
        <time>2025-09-07T11:50:31Z</time>
      </trkpt>
      <trkpt lat="46.20403" lon="4.59825">
        <ele>541.4</ele>
        <time>2025-09-07T11:50:32Z</time>
      </trkpt>
      <trkpt lat="46.20402" lon="4.59828">
        <ele>541.4</ele>
        <time>2025-09-07T11:50:33Z</time>
      </trkpt>
      <trkpt lat="46.20401" lon="4.59831">
        <ele>541.2</ele>
        <time>2025-09-07T11:50:34Z</time>
      </trkpt>
      <trkpt lat="46.20401" lon="4.59835">
        <ele>541.6</ele>
        <time>2025-09-07T11:50:35Z</time>
      </trkpt>
      <trkpt lat="46.204" lon="4.59838">
        <ele>542</ele>
        <time>2025-09-07T11:50:36Z</time>
      </trkpt>
      <trkpt lat="46.20401" lon="4.59842">
        <ele>541.8</ele>
        <time>2025-09-07T11:50:37Z</time>
      </trkpt>
      <trkpt lat="46.20403" lon="4.59844">
        <ele>541.8</ele>
        <time>2025-09-07T11:50:38Z</time>
      </trkpt>
      <trkpt lat="46.20405" lon="4.59846">
        <ele>541.4</ele>
        <time>2025-09-07T11:50:39Z</time>
      </trkpt>
      <trkpt lat="46.20408" lon="4.59846">
        <ele>541.8</ele>
        <time>2025-09-07T11:50:40Z</time>
      </trkpt>
      <trkpt lat="46.20412" lon="4.59846">
        <ele>542.2</ele>
        <time>2025-09-07T11:50:41Z</time>
      </trkpt>
      <trkpt lat="46.20415" lon="4.59845">
        <ele>542.2</ele>
        <time>2025-09-07T11:50:42Z</time>
      </trkpt>
      <trkpt lat="46.20417" lon="4.59845">
        <ele>542.2</ele>
        <time>2025-09-07T11:50:43Z</time>
      </trkpt>
      <trkpt lat="46.2042" lon="4.59845">
        <ele>542.2</ele>
        <time>2025-09-07T11:50:44Z</time>
      </trkpt>
      <trkpt lat="46.20423" lon="4.59845">
        <ele>542.2</ele>
        <time>2025-09-07T11:50:45Z</time>
      </trkpt>
      <trkpt lat="46.20427" lon="4.59846">
        <ele>542.4</ele>
        <time>2025-09-07T11:50:46Z</time>
      </trkpt>
      <trkpt lat="46.20429" lon="4.59847">
        <ele>542.4</ele>
        <time>2025-09-07T11:50:47Z</time>
      </trkpt>
      <trkpt lat="46.20432" lon="4.59848">
        <ele>542.8</ele>
        <time>2025-09-07T11:50:48Z</time>
      </trkpt>
      <trkpt lat="46.20435" lon="4.5985">
        <ele>542.8</ele>
        <time>2025-09-07T11:50:49Z</time>
      </trkpt>
      <trkpt lat="46.20438" lon="4.59851">
        <ele>543</ele>
        <time>2025-09-07T11:50:50Z</time>
      </trkpt>
      <trkpt lat="46.2044" lon="4.59852">
        <ele>543</ele>
        <time>2025-09-07T11:50:51Z</time>
      </trkpt>
      <trkpt lat="46.20443" lon="4.59854">
        <ele>543</ele>
        <time>2025-09-07T11:50:52Z</time>
      </trkpt>
      <trkpt lat="46.20445" lon="4.59855">
        <ele>543.4</ele>
        <time>2025-09-07T11:50:53Z</time>
      </trkpt>
      <trkpt lat="46.20447" lon="4.59856">
        <ele>543.4</ele>
        <time>2025-09-07T11:50:54Z</time>
      </trkpt>
      <trkpt lat="46.20449" lon="4.59857">
        <ele>543.8</ele>
        <time>2025-09-07T11:50:55Z</time>
      </trkpt>
      <trkpt lat="46.20451" lon="4.59858">
        <ele>543.8</ele>
        <time>2025-09-07T11:50:56Z</time>
      </trkpt>
      <trkpt lat="46.20453" lon="4.5986">
        <ele>544.2</ele>
        <time>2025-09-07T11:50:57Z</time>
      </trkpt>
      <trkpt lat="46.20455" lon="4.59862">
        <ele>544.2</ele>
        <time>2025-09-07T11:50:58Z</time>
      </trkpt>
      <trkpt lat="46.20458" lon="4.59863">
        <ele>544.2</ele>
        <time>2025-09-07T11:50:59Z</time>
      </trkpt>
      <trkpt lat="46.20461" lon="4.59864">
        <ele>543.8</ele>
        <time>2025-09-07T11:51:00Z</time>
      </trkpt>
      <trkpt lat="46.20465" lon="4.59866">
        <ele>543.2</ele>
        <time>2025-09-07T11:51:01Z</time>
      </trkpt>
      <trkpt lat="46.20469" lon="4.59868">
        <ele>543.6</ele>
        <time>2025-09-07T11:51:02Z</time>
      </trkpt>
      <trkpt lat="46.20473" lon="4.59871">
        <ele>542.6</ele>
        <time>2025-09-07T11:51:03Z</time>
      </trkpt>
      <trkpt lat="46.20476" lon="4.59875">
        <ele>543</ele>
        <time>2025-09-07T11:51:04Z</time>
      </trkpt>
      <trkpt lat="46.20479" lon="4.59878">
        <ele>542.8</ele>
        <time>2025-09-07T11:51:05Z</time>
      </trkpt>
      <trkpt lat="46.20482" lon="4.59881">
        <ele>542.8</ele>
        <time>2025-09-07T11:51:06Z</time>
      </trkpt>
      <trkpt lat="46.20485" lon="4.59884">
        <ele>542.8</ele>
        <time>2025-09-07T11:51:07Z</time>
      </trkpt>
      <trkpt lat="46.20488" lon="4.59887">
        <ele>542.8</ele>
        <time>2025-09-07T11:51:08Z</time>
      </trkpt>
      <trkpt lat="46.2049" lon="4.5989">
        <ele>542</ele>
        <time>2025-09-07T11:51:09Z</time>
      </trkpt>
      <trkpt lat="46.20493" lon="4.59893">
        <ele>542.4</ele>
        <time>2025-09-07T11:51:10Z</time>
      </trkpt>
      <trkpt lat="46.20496" lon="4.59896">
        <ele>542.8</ele>
        <time>2025-09-07T11:51:11Z</time>
      </trkpt>
      <trkpt lat="46.20498" lon="4.59899">
        <ele>542.8</ele>
        <time>2025-09-07T11:51:12Z</time>
      </trkpt>
      <trkpt lat="46.205" lon="4.59902">
        <ele>542.8</ele>
        <time>2025-09-07T11:51:13Z</time>
      </trkpt>
      <trkpt lat="46.20502" lon="4.59905">
        <ele>542.8</ele>
        <time>2025-09-07T11:51:14Z</time>
      </trkpt>
      <trkpt lat="46.20504" lon="4.59906">
        <ele>542.8</ele>
        <time>2025-09-07T11:51:15Z</time>
      </trkpt>
      <trkpt lat="46.20505" lon="4.59908">
        <ele>542.8</ele>
        <time>2025-09-07T11:51:16Z</time>
      </trkpt>
      <trkpt lat="46.20507" lon="4.59909">
        <ele>542.8</ele>
        <time>2025-09-07T11:51:17Z</time>
      </trkpt>
      <trkpt lat="46.20508" lon="4.5991">
        <ele>543.2</ele>
        <time>2025-09-07T11:51:18Z</time>
      </trkpt>
      <trkpt lat="46.2051" lon="4.59911">
        <ele>543.6</ele>
        <time>2025-09-07T11:51:19Z</time>
      </trkpt>
      <trkpt lat="46.20511" lon="4.59912">
        <ele>544</ele>
        <time>2025-09-07T11:51:20Z</time>
      </trkpt>
      <trkpt lat="46.20513" lon="4.59914">
        <ele>544.4</ele>
        <time>2025-09-07T11:51:21Z</time>
      </trkpt>
      <trkpt lat="46.20514" lon="4.59915">
        <ele>544.4</ele>
        <time>2025-09-07T11:51:22Z</time>
      </trkpt>
      <trkpt lat="46.20515" lon="4.59917">
        <ele>544.8</ele>
        <time>2025-09-07T11:51:23Z</time>
      </trkpt>
      <trkpt lat="46.20515" lon="4.59918">
        <ele>545</ele>
        <time>2025-09-07T11:51:24Z</time>
      </trkpt>
      <trkpt lat="46.20517" lon="4.59919">
        <ele>545</ele>
        <time>2025-09-07T11:51:25Z</time>
      </trkpt>
      <trkpt lat="46.20518" lon="4.5992">
        <ele>545</ele>
        <time>2025-09-07T11:51:26Z</time>
      </trkpt>
      <trkpt lat="46.2052" lon="4.59921">
        <ele>545</ele>
        <time>2025-09-07T11:51:27Z</time>
      </trkpt>
      <trkpt lat="46.20521" lon="4.59923">
        <ele>545.4</ele>
        <time>2025-09-07T11:51:28Z</time>
      </trkpt>
      <trkpt lat="46.20522" lon="4.59924">
        <ele>545.4</ele>
        <time>2025-09-07T11:51:29Z</time>
      </trkpt>
      <trkpt lat="46.20524" lon="4.59925">
        <ele>545.8</ele>
        <time>2025-09-07T11:51:30Z</time>
      </trkpt>
      <trkpt lat="46.20525" lon="4.59926">
        <ele>546.4</ele>
        <time>2025-09-07T11:51:31Z</time>
      </trkpt>
      <trkpt lat="46.20526" lon="4.59927">
        <ele>546.4</ele>
        <time>2025-09-07T11:51:32Z</time>
      </trkpt>
      <trkpt lat="46.20528" lon="4.59927">
        <ele>546.8</ele>
        <time>2025-09-07T11:51:33Z</time>
      </trkpt>
      <trkpt lat="46.20529" lon="4.59928">
        <ele>547</ele>
        <time>2025-09-07T11:51:34Z</time>
      </trkpt>
      <trkpt lat="46.20531" lon="4.59929">
        <ele>547</ele>
        <time>2025-09-07T11:51:35Z</time>
      </trkpt>
      <trkpt lat="46.20532" lon="4.5993">
        <ele>547.2</ele>
        <time>2025-09-07T11:51:36Z</time>
      </trkpt>
      <trkpt lat="46.20533" lon="4.59931">
        <ele>547.2</ele>
        <time>2025-09-07T11:51:37Z</time>
      </trkpt>
      <trkpt lat="46.20534" lon="4.59932">
        <ele>547.8</ele>
        <time>2025-09-07T11:51:38Z</time>
      </trkpt>
      <trkpt lat="46.20536" lon="4.59933">
        <ele>547.8</ele>
        <time>2025-09-07T11:51:39Z</time>
      </trkpt>
      <trkpt lat="46.20537" lon="4.59934">
        <ele>548.2</ele>
        <time>2025-09-07T11:51:40Z</time>
      </trkpt>
      <trkpt lat="46.20538" lon="4.59935">
        <ele>548.2</ele>
        <time>2025-09-07T11:51:41Z</time>
      </trkpt>
      <trkpt lat="46.2054" lon="4.59936">
        <ele>548.2</ele>
        <time>2025-09-07T11:51:42Z</time>
      </trkpt>
      <trkpt lat="46.20541" lon="4.59937">
        <ele>548.2</ele>
        <time>2025-09-07T11:51:43Z</time>
      </trkpt>
      <trkpt lat="46.20542" lon="4.59938">
        <ele>548.6</ele>
        <time>2025-09-07T11:51:44Z</time>
      </trkpt>
      <trkpt lat="46.20544" lon="4.59939">
        <ele>549</ele>
        <time>2025-09-07T11:51:45Z</time>
      </trkpt>
      <trkpt lat="46.20545" lon="4.59939">
        <ele>549.4</ele>
        <time>2025-09-07T11:51:46Z</time>
      </trkpt>
      <trkpt lat="46.20546" lon="4.5994">
        <ele>549.4</ele>
        <time>2025-09-07T11:51:47Z</time>
      </trkpt>
      <trkpt lat="46.20548" lon="4.59941">
        <ele>549.6</ele>
        <time>2025-09-07T11:51:48Z</time>
      </trkpt>
      <trkpt lat="46.20549" lon="4.59942">
        <ele>549.6</ele>
        <time>2025-09-07T11:51:49Z</time>
      </trkpt>
      <trkpt lat="46.2055" lon="4.59942">
        <ele>549.6</ele>
        <time>2025-09-07T11:51:50Z</time>
      </trkpt>
      <trkpt lat="46.20552" lon="4.59943">
        <ele>549.6</ele>
        <time>2025-09-07T11:51:51Z</time>
      </trkpt>
      <trkpt lat="46.20553" lon="4.59943">
        <ele>549.6</ele>
        <time>2025-09-07T11:51:52Z</time>
      </trkpt>
      <trkpt lat="46.20554" lon="4.59943">
        <ele>550</ele>
        <time>2025-09-07T11:51:53Z</time>
      </trkpt>
      <trkpt lat="46.20555" lon="4.59944">
        <ele>550.2</ele>
        <time>2025-09-07T11:51:54Z</time>
      </trkpt>
      <trkpt lat="46.20556" lon="4.59945">
        <ele>550.2</ele>
        <time>2025-09-07T11:51:55Z</time>
      </trkpt>
      <trkpt lat="46.20557" lon="4.59947">
        <ele>550.2</ele>
        <time>2025-09-07T11:51:56Z</time>
      </trkpt>
      <trkpt lat="46.20557" lon="4.59948">
        <ele>550.6</ele>
        <time>2025-09-07T11:51:57Z</time>
      </trkpt>
      <trkpt lat="46.20559" lon="4.59949">
        <ele>550.8</ele>
        <time>2025-09-07T11:51:58Z</time>
      </trkpt>
      <trkpt lat="46.20561" lon="4.59951">
        <ele>550.8</ele>
        <time>2025-09-07T11:51:59Z</time>
      </trkpt>
      <trkpt lat="46.20563" lon="4.59951">
        <ele>550.8</ele>
        <time>2025-09-07T11:52:00Z</time>
      </trkpt>
      <trkpt lat="46.20564" lon="4.59952">
        <ele>550.8</ele>
        <time>2025-09-07T11:52:01Z</time>
      </trkpt>
      <trkpt lat="46.20566" lon="4.59953">
        <ele>550.2</ele>
        <time>2025-09-07T11:52:02Z</time>
      </trkpt>
      <trkpt lat="46.20567" lon="4.59954">
        <ele>550.2</ele>
        <time>2025-09-07T11:52:03Z</time>
      </trkpt>
      <trkpt lat="46.20569" lon="4.59955">
        <ele>551.2</ele>
        <time>2025-09-07T11:52:04Z</time>
      </trkpt>
      <trkpt lat="46.20571" lon="4.59956">
        <ele>551.2</ele>
        <time>2025-09-07T11:52:05Z</time>
      </trkpt>
      <trkpt lat="46.20572" lon="4.59957">
        <ele>551.2</ele>
        <time>2025-09-07T11:52:06Z</time>
      </trkpt>
      <trkpt lat="46.20574" lon="4.59957">
        <ele>550.2</ele>
        <time>2025-09-07T11:52:07Z</time>
      </trkpt>
      <trkpt lat="46.20576" lon="4.59958">
        <ele>550.8</ele>
        <time>2025-09-07T11:52:08Z</time>
      </trkpt>
      <trkpt lat="46.20577" lon="4.59959">
        <ele>550.8</ele>
        <time>2025-09-07T11:52:09Z</time>
      </trkpt>
      <trkpt lat="46.20579" lon="4.5996">
        <ele>550.8</ele>
        <time>2025-09-07T11:52:10Z</time>
      </trkpt>
      <trkpt lat="46.2058" lon="4.5996">
        <ele>550.8</ele>
        <time>2025-09-07T11:52:11Z</time>
      </trkpt>
      <trkpt lat="46.20582" lon="4.59962">
        <ele>550.8</ele>
        <time>2025-09-07T11:52:12Z</time>
      </trkpt>
      <trkpt lat="46.20584" lon="4.59963">
        <ele>550.8</ele>
        <time>2025-09-07T11:52:13Z</time>
      </trkpt>
      <trkpt lat="46.20586" lon="4.59964">
        <ele>550.8</ele>
        <time>2025-09-07T11:52:14Z</time>
      </trkpt>
      <trkpt lat="46.20589" lon="4.59965">
        <ele>550.6</ele>
        <time>2025-09-07T11:52:15Z</time>
      </trkpt>
      <trkpt lat="46.20591" lon="4.59965">
        <ele>550.6</ele>
        <time>2025-09-07T11:52:16Z</time>
      </trkpt>
      <trkpt lat="46.20594" lon="4.59966">
        <ele>550.6</ele>
        <time>2025-09-07T11:52:17Z</time>
      </trkpt>
      <trkpt lat="46.20597" lon="4.59968">
        <ele>550.6</ele>
        <time>2025-09-07T11:52:18Z</time>
      </trkpt>
      <trkpt lat="46.20601" lon="4.5997">
        <ele>550.4</ele>
        <time>2025-09-07T11:52:19Z</time>
      </trkpt>
      <trkpt lat="46.20605" lon="4.59971">
        <ele>550.2</ele>
        <time>2025-09-07T11:52:20Z</time>
      </trkpt>
      <trkpt lat="46.20608" lon="4.59973">
        <ele>549.8</ele>
        <time>2025-09-07T11:52:21Z</time>
      </trkpt>
      <trkpt lat="46.20612" lon="4.59976">
        <ele>549.6</ele>
        <time>2025-09-07T11:52:22Z</time>
      </trkpt>
      <trkpt lat="46.20616" lon="4.59978">
        <ele>549.6</ele>
        <time>2025-09-07T11:52:23Z</time>
      </trkpt>
      <trkpt lat="46.2062" lon="4.5998">
        <ele>549.6</ele>
        <time>2025-09-07T11:52:24Z</time>
      </trkpt>
      <trkpt lat="46.20624" lon="4.59982">
        <ele>549.6</ele>
        <time>2025-09-07T11:52:25Z</time>
      </trkpt>
      <trkpt lat="46.20628" lon="4.59984">
        <ele>549.6</ele>
        <time>2025-09-07T11:52:26Z</time>
      </trkpt>
      <trkpt lat="46.20631" lon="4.59986">
        <ele>549.4</ele>
        <time>2025-09-07T11:52:27Z</time>
      </trkpt>
      <trkpt lat="46.20635" lon="4.59988">
        <ele>549</ele>
        <time>2025-09-07T11:52:28Z</time>
      </trkpt>
      <trkpt lat="46.20639" lon="4.5999">
        <ele>549</ele>
        <time>2025-09-07T11:52:29Z</time>
      </trkpt>
      <trkpt lat="46.20643" lon="4.59992">
        <ele>549</ele>
        <time>2025-09-07T11:52:30Z</time>
      </trkpt>
      <trkpt lat="46.20647" lon="4.59993">
        <ele>549</ele>
        <time>2025-09-07T11:52:31Z</time>
      </trkpt>
      <trkpt lat="46.20651" lon="4.59995">
        <ele>549</ele>
        <time>2025-09-07T11:52:32Z</time>
      </trkpt>
      <trkpt lat="46.20655" lon="4.59997">
        <ele>549</ele>
        <time>2025-09-07T11:52:33Z</time>
      </trkpt>
      <trkpt lat="46.2066" lon="4.59999">
        <ele>549</ele>
        <time>2025-09-07T11:52:34Z</time>
      </trkpt>
      <trkpt lat="46.20665" lon="4.60001">
        <ele>549</ele>
        <time>2025-09-07T11:52:35Z</time>
      </trkpt>
      <trkpt lat="46.2067" lon="4.60002">
        <ele>548.6</ele>
        <time>2025-09-07T11:52:36Z</time>
      </trkpt>
      <trkpt lat="46.20675" lon="4.60003">
        <ele>548</ele>
        <time>2025-09-07T11:52:37Z</time>
      </trkpt>
      <trkpt lat="46.2068" lon="4.60005">
        <ele>547.6</ele>
        <time>2025-09-07T11:52:38Z</time>
      </trkpt>
      <trkpt lat="46.20686" lon="4.60008">
        <ele>547</ele>
        <time>2025-09-07T11:52:39Z</time>
      </trkpt>
      <trkpt lat="46.20692" lon="4.6001">
        <ele>546.4</ele>
        <time>2025-09-07T11:52:40Z</time>
      </trkpt>
      <trkpt lat="46.20699" lon="4.60012">
        <ele>545.4</ele>
        <time>2025-09-07T11:52:41Z</time>
      </trkpt>
      <trkpt lat="46.20706" lon="4.60014">
        <ele>545</ele>
        <time>2025-09-07T11:52:42Z</time>
      </trkpt>
      <trkpt lat="46.20714" lon="4.60016">
        <ele>544.4</ele>
        <time>2025-09-07T11:52:43Z</time>
      </trkpt>
      <trkpt lat="46.2072" lon="4.60019">
        <ele>543.4</ele>
        <time>2025-09-07T11:52:44Z</time>
      </trkpt>
      <trkpt lat="46.20725" lon="4.60021">
        <ele>543.4</ele>
        <time>2025-09-07T11:52:45Z</time>
      </trkpt>
      <trkpt lat="46.20736" lon="4.60025">
        <ele>543.8</ele>
        <time>2025-09-07T11:52:46Z</time>
      </trkpt>
      <trkpt lat="46.20741" lon="4.60026">
        <ele>543.6</ele>
        <time>2025-09-07T11:52:47Z</time>
      </trkpt>
      <trkpt lat="46.20746" lon="4.60028">
        <ele>542.8</ele>
        <time>2025-09-07T11:52:48Z</time>
      </trkpt>
      <trkpt lat="46.2075" lon="4.60029">
        <ele>542.6</ele>
        <time>2025-09-07T11:52:49Z</time>
      </trkpt>
      <trkpt lat="46.20755" lon="4.6003">
        <ele>542.2</ele>
        <time>2025-09-07T11:52:50Z</time>
      </trkpt>
      <trkpt lat="46.20759" lon="4.60031">
        <ele>542.2</ele>
        <time>2025-09-07T11:52:51Z</time>
      </trkpt>
      <trkpt lat="46.20764" lon="4.60031">
        <ele>541.8</ele>
        <time>2025-09-07T11:52:52Z</time>
      </trkpt>
      <trkpt lat="46.20768" lon="4.60032">
        <ele>540.8</ele>
        <time>2025-09-07T11:52:53Z</time>
      </trkpt>
      <trkpt lat="46.20774" lon="4.60032">
        <ele>540.2</ele>
        <time>2025-09-07T11:52:54Z</time>
      </trkpt>
      <trkpt lat="46.20779" lon="4.60032">
        <ele>539.6</ele>
        <time>2025-09-07T11:52:55Z</time>
      </trkpt>
      <trkpt lat="46.20783" lon="4.60034">
        <ele>538.6</ele>
        <time>2025-09-07T11:52:56Z</time>
      </trkpt>
      <trkpt lat="46.20788" lon="4.60035">
        <ele>537.2</ele>
        <time>2025-09-07T11:52:57Z</time>
      </trkpt>
      <trkpt lat="46.20792" lon="4.60037">
        <ele>536.6</ele>
        <time>2025-09-07T11:52:58Z</time>
      </trkpt>
      <trkpt lat="46.20797" lon="4.60037">
        <ele>536.4</ele>
        <time>2025-09-07T11:52:59Z</time>
      </trkpt>
      <trkpt lat="46.208" lon="4.60037">
        <ele>536</ele>
        <time>2025-09-07T11:53:00Z</time>
      </trkpt>
      <trkpt lat="46.20803" lon="4.60038">
        <ele>536.2</ele>
        <time>2025-09-07T11:53:01Z</time>
      </trkpt>
      <trkpt lat="46.20805" lon="4.60037">
        <ele>536</ele>
        <time>2025-09-07T11:53:02Z</time>
      </trkpt>
      <trkpt lat="46.20807" lon="4.60036">
        <ele>535.6</ele>
        <time>2025-09-07T11:53:03Z</time>
      </trkpt>
      <trkpt lat="46.20809" lon="4.60035">
        <ele>535.2</ele>
        <time>2025-09-07T11:53:04Z</time>
      </trkpt>
      <trkpt lat="46.2081" lon="4.60035">
        <ele>534.8</ele>
        <time>2025-09-07T11:53:05Z</time>
      </trkpt>
      <trkpt lat="46.20812" lon="4.60035">
        <ele>534.6</ele>
        <time>2025-09-07T11:53:06Z</time>
      </trkpt>
      <trkpt lat="46.20814" lon="4.60036">
        <ele>534</ele>
        <time>2025-09-07T11:53:07Z</time>
      </trkpt>
      <trkpt lat="46.20815" lon="4.60036">
        <ele>533.8</ele>
        <time>2025-09-07T11:53:08Z</time>
      </trkpt>
      <trkpt lat="46.20816" lon="4.60036">
        <ele>533.8</ele>
        <time>2025-09-07T11:53:09Z</time>
      </trkpt>
      <trkpt lat="46.20818" lon="4.60036">
        <ele>533.4</ele>
        <time>2025-09-07T11:53:10Z</time>
      </trkpt>
      <trkpt lat="46.20818" lon="4.60036">
        <ele>533.4</ele>
        <time>2025-09-07T11:53:11Z</time>
      </trkpt>
      <trkpt lat="46.20818" lon="4.60036">
        <ele>533.4</ele>
        <time>2025-09-07T11:53:12Z</time>
      </trkpt>
      <trkpt lat="46.20817" lon="4.60036">
        <ele>533</ele>
        <time>2025-09-07T11:53:13Z</time>
      </trkpt>
      <trkpt lat="46.20818" lon="4.60037">
        <ele>533.2</ele>
        <time>2025-09-07T11:53:52Z</time>
      </trkpt>
      <trkpt lat="46.2082" lon="4.60037">
        <ele>533</ele>
        <time>2025-09-07T11:53:53Z</time>
      </trkpt>
      <trkpt lat="46.20823" lon="4.60036">
        <ele>532.4</ele>
        <time>2025-09-07T11:53:54Z</time>
      </trkpt>
      <trkpt lat="46.20826" lon="4.60036">
        <ele>532.2</ele>
        <time>2025-09-07T11:53:55Z</time>
      </trkpt>
      <trkpt lat="46.2083" lon="4.60036">
        <ele>532.2</ele>
        <time>2025-09-07T11:53:56Z</time>
      </trkpt>
      <trkpt lat="46.20834" lon="4.60036">
        <ele>531.4</ele>
        <time>2025-09-07T11:53:57Z</time>
      </trkpt>
      <trkpt lat="46.20837" lon="4.60036">
        <ele>531.4</ele>
        <time>2025-09-07T11:53:58Z</time>
      </trkpt>
      <trkpt lat="46.20841" lon="4.60037">
        <ele>531.4</ele>
        <time>2025-09-07T11:53:59Z</time>
      </trkpt>
      <trkpt lat="46.20844" lon="4.60037">
        <ele>531</ele>
        <time>2025-09-07T11:54:00Z</time>
      </trkpt>
      <trkpt lat="46.20847" lon="4.60038">
        <ele>530.4</ele>
        <time>2025-09-07T11:54:01Z</time>
      </trkpt>
      <trkpt lat="46.20851" lon="4.60038">
        <ele>530</ele>
        <time>2025-09-07T11:54:02Z</time>
      </trkpt>
      <trkpt lat="46.20855" lon="4.60038">
        <ele>529.6</ele>
        <time>2025-09-07T11:54:03Z</time>
      </trkpt>
      <trkpt lat="46.20859" lon="4.60037">
        <ele>529.2</ele>
        <time>2025-09-07T11:54:04Z</time>
      </trkpt>
      <trkpt lat="46.20862" lon="4.60036">
        <ele>528.8</ele>
        <time>2025-09-07T11:54:05Z</time>
      </trkpt>
      <trkpt lat="46.20865" lon="4.60034">
        <ele>528.4</ele>
        <time>2025-09-07T11:54:06Z</time>
      </trkpt>
      <trkpt lat="46.20868" lon="4.60033">
        <ele>528</ele>
        <time>2025-09-07T11:54:07Z</time>
      </trkpt>
      <trkpt lat="46.20871" lon="4.60031">
        <ele>527.2</ele>
        <time>2025-09-07T11:54:08Z</time>
      </trkpt>
      <trkpt lat="46.20873" lon="4.60028">
        <ele>527.2</ele>
        <time>2025-09-07T11:54:09Z</time>
      </trkpt>
      <trkpt lat="46.20876" lon="4.60026">
        <ele>527.2</ele>
        <time>2025-09-07T11:54:10Z</time>
      </trkpt>
      <trkpt lat="46.20878" lon="4.60023">
        <ele>526.8</ele>
        <time>2025-09-07T11:54:11Z</time>
      </trkpt>
      <trkpt lat="46.2088" lon="4.60021">
        <ele>526.8</ele>
        <time>2025-09-07T11:54:12Z</time>
      </trkpt>
      <trkpt lat="46.20881" lon="4.60019">
        <ele>526.8</ele>
        <time>2025-09-07T11:54:13Z</time>
      </trkpt>
      <trkpt lat="46.20882" lon="4.60017">
        <ele>526.8</ele>
        <time>2025-09-07T11:54:14Z</time>
      </trkpt>
      <trkpt lat="46.20882" lon="4.60015">
        <ele>526.8</ele>
        <time>2025-09-07T11:54:15Z</time>
      </trkpt>
      <trkpt lat="46.20882" lon="4.60015">
        <ele>526.8</ele>
        <time>2025-09-07T11:54:16Z</time>
      </trkpt>
      <trkpt lat="46.20882" lon="4.60015">
        <ele>526.6</ele>
        <time>2025-09-07T11:54:17Z</time>
      </trkpt>
      <trkpt lat="46.20882" lon="4.60017">
        <ele>526.6</ele>
        <time>2025-09-07T11:54:21Z</time>
      </trkpt>
      <trkpt lat="46.20882" lon="4.60014">
        <ele>526.6</ele>
        <time>2025-09-07T11:54:22Z</time>
      </trkpt>
      <trkpt lat="46.20882" lon="4.60011">
        <ele>526.6</ele>
        <time>2025-09-07T11:54:23Z</time>
      </trkpt>
      <trkpt lat="46.20881" lon="4.60007">
        <ele>526.6</ele>
        <time>2025-09-07T11:54:24Z</time>
      </trkpt>
      <trkpt lat="46.20881" lon="4.60001">
        <ele>526.2</ele>
        <time>2025-09-07T11:54:25Z</time>
      </trkpt>
      <trkpt lat="46.2088" lon="4.59995">
        <ele>526</ele>
        <time>2025-09-07T11:54:26Z</time>
      </trkpt>
      <trkpt lat="46.20879" lon="4.59988">
        <ele>525.6</ele>
        <time>2025-09-07T11:54:27Z</time>
      </trkpt>
      <trkpt lat="46.20878" lon="4.59981">
        <ele>525.2</ele>
        <time>2025-09-07T11:54:28Z</time>
      </trkpt>
      <trkpt lat="46.20878" lon="4.59973">
        <ele>524.6</ele>
        <time>2025-09-07T11:54:29Z</time>
      </trkpt>
      <trkpt lat="46.20878" lon="4.59966">
        <ele>524.4</ele>
        <time>2025-09-07T11:54:30Z</time>
      </trkpt>
      <trkpt lat="46.20877" lon="4.59958">
        <ele>524.2</ele>
        <time>2025-09-07T11:54:31Z</time>
      </trkpt>
      <trkpt lat="46.20876" lon="4.59951">
        <ele>523.8</ele>
        <time>2025-09-07T11:54:32Z</time>
      </trkpt>
      <trkpt lat="46.20874" lon="4.59944">
        <ele>523.8</ele>
        <time>2025-09-07T11:54:33Z</time>
      </trkpt>
      <trkpt lat="46.20873" lon="4.59938">
        <ele>523.8</ele>
        <time>2025-09-07T11:54:34Z</time>
      </trkpt>
      <trkpt lat="46.20873" lon="4.59933">
        <ele>524.2</ele>
        <time>2025-09-07T11:54:35Z</time>
      </trkpt>
      <trkpt lat="46.20873" lon="4.59927">
        <ele>524.6</ele>
        <time>2025-09-07T11:54:36Z</time>
      </trkpt>
      <trkpt lat="46.20872" lon="4.59923">
        <ele>525</ele>
        <time>2025-09-07T11:54:37Z</time>
      </trkpt>
      <trkpt lat="46.20875" lon="4.59918">
        <ele>525.2</ele>
        <time>2025-09-07T11:54:38Z</time>
      </trkpt>
      <trkpt lat="46.20876" lon="4.59914">
        <ele>525.6</ele>
        <time>2025-09-07T11:54:39Z</time>
      </trkpt>
      <trkpt lat="46.20878" lon="4.5991">
        <ele>525.8</ele>
        <time>2025-09-07T11:54:40Z</time>
      </trkpt>
      <trkpt lat="46.2088" lon="4.59906">
        <ele>526.2</ele>
        <time>2025-09-07T11:54:41Z</time>
      </trkpt>
      <trkpt lat="46.20882" lon="4.59903">
        <ele>526.4</ele>
        <time>2025-09-07T11:54:42Z</time>
      </trkpt>
      <trkpt lat="46.20884" lon="4.59899">
        <ele>526.8</ele>
        <time>2025-09-07T11:54:43Z</time>
      </trkpt>
      <trkpt lat="46.20886" lon="4.59896">
        <ele>526.8</ele>
        <time>2025-09-07T11:54:44Z</time>
      </trkpt>
      <trkpt lat="46.20888" lon="4.59894">
        <ele>527.2</ele>
        <time>2025-09-07T11:54:45Z</time>
      </trkpt>
      <trkpt lat="46.2089" lon="4.59891">
        <ele>527.4</ele>
        <time>2025-09-07T11:54:46Z</time>
      </trkpt>
      <trkpt lat="46.20892" lon="4.59888">
        <ele>527.4</ele>
        <time>2025-09-07T11:54:47Z</time>
      </trkpt>
      <trkpt lat="46.20894" lon="4.59885">
        <ele>527.8</ele>
        <time>2025-09-07T11:54:48Z</time>
      </trkpt>
      <trkpt lat="46.20896" lon="4.59882">
        <ele>528</ele>
        <time>2025-09-07T11:54:49Z</time>
      </trkpt>
      <trkpt lat="46.20898" lon="4.59879">
        <ele>528</ele>
        <time>2025-09-07T11:54:50Z</time>
      </trkpt>
      <trkpt lat="46.209" lon="4.59876">
        <ele>528</ele>
        <time>2025-09-07T11:54:51Z</time>
      </trkpt>
      <trkpt lat="46.20903" lon="4.59873">
        <ele>528</ele>
        <time>2025-09-07T11:54:52Z</time>
      </trkpt>
      <trkpt lat="46.20905" lon="4.5987">
        <ele>528.4</ele>
        <time>2025-09-07T11:54:53Z</time>
      </trkpt>
      <trkpt lat="46.20907" lon="4.59868">
        <ele>528.4</ele>
        <time>2025-09-07T11:54:54Z</time>
      </trkpt>
      <trkpt lat="46.20909" lon="4.59865">
        <ele>528.6</ele>
        <time>2025-09-07T11:54:55Z</time>
      </trkpt>
      <trkpt lat="46.20911" lon="4.59863">
        <ele>528.6</ele>
        <time>2025-09-07T11:54:56Z</time>
      </trkpt>
      <trkpt lat="46.20913" lon="4.5986">
        <ele>528.6</ele>
        <time>2025-09-07T11:54:57Z</time>
      </trkpt>
      <trkpt lat="46.20915" lon="4.59857">
        <ele>528.8</ele>
        <time>2025-09-07T11:54:58Z</time>
      </trkpt>
      <trkpt lat="46.20917" lon="4.59855">
        <ele>528.8</ele>
        <time>2025-09-07T11:54:59Z</time>
      </trkpt>
      <trkpt lat="46.20919" lon="4.59853">
        <ele>529.2</ele>
        <time>2025-09-07T11:55:00Z</time>
      </trkpt>
      <trkpt lat="46.20921" lon="4.59851">
        <ele>529.2</ele>
        <time>2025-09-07T11:55:01Z</time>
      </trkpt>
      <trkpt lat="46.20923" lon="4.5985">
        <ele>529.6</ele>
        <time>2025-09-07T11:55:02Z</time>
      </trkpt>
      <trkpt lat="46.20926" lon="4.59848">
        <ele>529.6</ele>
        <time>2025-09-07T11:55:03Z</time>
      </trkpt>
      <trkpt lat="46.20928" lon="4.59847">
        <ele>529.8</ele>
        <time>2025-09-07T11:55:04Z</time>
      </trkpt>
      <trkpt lat="46.2093" lon="4.59846">
        <ele>529.8</ele>
        <time>2025-09-07T11:55:05Z</time>
      </trkpt>
      <trkpt lat="46.20932" lon="4.59844">
        <ele>530</ele>
        <time>2025-09-07T11:55:06Z</time>
      </trkpt>
      <trkpt lat="46.20934" lon="4.59842">
        <ele>530</ele>
        <time>2025-09-07T11:55:07Z</time>
      </trkpt>
      <trkpt lat="46.20936" lon="4.59841">
        <ele>530</ele>
        <time>2025-09-07T11:55:08Z</time>
      </trkpt>
      <trkpt lat="46.20939" lon="4.59839">
        <ele>530.2</ele>
        <time>2025-09-07T11:55:09Z</time>
      </trkpt>
      <trkpt lat="46.20941" lon="4.59838">
        <ele>530.2</ele>
        <time>2025-09-07T11:55:10Z</time>
      </trkpt>
      <trkpt lat="46.20943" lon="4.59836">
        <ele>530.4</ele>
        <time>2025-09-07T11:55:11Z</time>
      </trkpt>
      <trkpt lat="46.20945" lon="4.59835">
        <ele>530.4</ele>
        <time>2025-09-07T11:55:12Z</time>
      </trkpt>
      <trkpt lat="46.20947" lon="4.59833">
        <ele>530.4</ele>
        <time>2025-09-07T11:55:13Z</time>
      </trkpt>
      <trkpt lat="46.20949" lon="4.59832">
        <ele>530.8</ele>
        <time>2025-09-07T11:55:14Z</time>
      </trkpt>
      <trkpt lat="46.20951" lon="4.5983">
        <ele>530.8</ele>
        <time>2025-09-07T11:55:15Z</time>
      </trkpt>
      <trkpt lat="46.20954" lon="4.59828">
        <ele>530.8</ele>
        <time>2025-09-07T11:55:16Z</time>
      </trkpt>
      <trkpt lat="46.20955" lon="4.59826">
        <ele>531</ele>
        <time>2025-09-07T11:55:17Z</time>
      </trkpt>
      <trkpt lat="46.20957" lon="4.59824">
        <ele>531.2</ele>
        <time>2025-09-07T11:55:18Z</time>
      </trkpt>
      <trkpt lat="46.20959" lon="4.59822">
        <ele>531.6</ele>
        <time>2025-09-07T11:55:19Z</time>
      </trkpt>
      <trkpt lat="46.20961" lon="4.59821">
        <ele>531.6</ele>
        <time>2025-09-07T11:55:20Z</time>
      </trkpt>
      <trkpt lat="46.20964" lon="4.59819">
        <ele>531.8</ele>
        <time>2025-09-07T11:55:21Z</time>
      </trkpt>
      <trkpt lat="46.20966" lon="4.59818">
        <ele>532</ele>
        <time>2025-09-07T11:55:22Z</time>
      </trkpt>
      <trkpt lat="46.20968" lon="4.59816">
        <ele>532</ele>
        <time>2025-09-07T11:55:23Z</time>
      </trkpt>
      <trkpt lat="46.2097" lon="4.59814">
        <ele>532</ele>
        <time>2025-09-07T11:55:24Z</time>
      </trkpt>
      <trkpt lat="46.20972" lon="4.59812">
        <ele>532</ele>
        <time>2025-09-07T11:55:25Z</time>
      </trkpt>
      <trkpt lat="46.20974" lon="4.59809">
        <ele>532</ele>
        <time>2025-09-07T11:55:26Z</time>
      </trkpt>
      <trkpt lat="46.20975" lon="4.59806">
        <ele>532</ele>
        <time>2025-09-07T11:55:27Z</time>
      </trkpt>
      <trkpt lat="46.20976" lon="4.59803">
        <ele>532.4</ele>
        <time>2025-09-07T11:55:28Z</time>
      </trkpt>
      <trkpt lat="46.20977" lon="4.598">
        <ele>532.8</ele>
        <time>2025-09-07T11:55:29Z</time>
      </trkpt>
      <trkpt lat="46.20978" lon="4.59797">
        <ele>532.8</ele>
        <time>2025-09-07T11:55:30Z</time>
      </trkpt>
      <trkpt lat="46.20978" lon="4.59793">
        <ele>532.8</ele>
        <time>2025-09-07T11:55:31Z</time>
      </trkpt>
      <trkpt lat="46.20978" lon="4.5979">
        <ele>533</ele>
        <time>2025-09-07T11:55:32Z</time>
      </trkpt>
      <trkpt lat="46.20977" lon="4.59787">
        <ele>533</ele>
        <time>2025-09-07T11:55:33Z</time>
      </trkpt>
      <trkpt lat="46.20976" lon="4.59784">
        <ele>533.4</ele>
        <time>2025-09-07T11:55:34Z</time>
      </trkpt>
      <trkpt lat="46.20974" lon="4.59782">
        <ele>533.6</ele>
        <time>2025-09-07T11:55:35Z</time>
      </trkpt>
      <trkpt lat="46.20973" lon="4.59779">
        <ele>533.8</ele>
        <time>2025-09-07T11:55:36Z</time>
      </trkpt>
      <trkpt lat="46.20971" lon="4.59778">
        <ele>534.2</ele>
        <time>2025-09-07T11:55:37Z</time>
      </trkpt>
      <trkpt lat="46.20969" lon="4.59776">
        <ele>534.4</ele>
        <time>2025-09-07T11:55:38Z</time>
      </trkpt>
      <trkpt lat="46.20966" lon="4.59776">
        <ele>534.4</ele>
        <time>2025-09-07T11:55:39Z</time>
      </trkpt>
      <trkpt lat="46.20964" lon="4.59776">
        <ele>534.4</ele>
        <time>2025-09-07T11:55:40Z</time>
      </trkpt>
      <trkpt lat="46.20962" lon="4.59776">
        <ele>534.6</ele>
        <time>2025-09-07T11:55:41Z</time>
      </trkpt>
      <trkpt lat="46.2096" lon="4.59778">
        <ele>534.6</ele>
        <time>2025-09-07T11:55:42Z</time>
      </trkpt>
      <trkpt lat="46.20958" lon="4.59779">
        <ele>534.8</ele>
        <time>2025-09-07T11:55:43Z</time>
      </trkpt>
      <trkpt lat="46.20956" lon="4.59781">
        <ele>534.8</ele>
        <time>2025-09-07T11:55:44Z</time>
      </trkpt>
      <trkpt lat="46.20953" lon="4.59782">
        <ele>534.8</ele>
        <time>2025-09-07T11:55:45Z</time>
      </trkpt>
      <trkpt lat="46.20951" lon="4.59783">
        <ele>535.2</ele>
        <time>2025-09-07T11:55:46Z</time>
      </trkpt>
      <trkpt lat="46.20949" lon="4.59784">
        <ele>535.2</ele>
        <time>2025-09-07T11:55:47Z</time>
      </trkpt>
      <trkpt lat="46.20947" lon="4.59786">
        <ele>535.4</ele>
        <time>2025-09-07T11:55:48Z</time>
      </trkpt>
      <trkpt lat="46.20945" lon="4.59788">
        <ele>535.4</ele>
        <time>2025-09-07T11:55:49Z</time>
      </trkpt>
      <trkpt lat="46.20942" lon="4.59789">
        <ele>535.8</ele>
        <time>2025-09-07T11:55:50Z</time>
      </trkpt>
      <trkpt lat="46.2094" lon="4.5979">
        <ele>536</ele>
        <time>2025-09-07T11:55:51Z</time>
      </trkpt>
      <trkpt lat="46.20938" lon="4.5979">
        <ele>536</ele>
        <time>2025-09-07T11:55:52Z</time>
      </trkpt>
      <trkpt lat="46.20936" lon="4.59791">
        <ele>536</ele>
        <time>2025-09-07T11:55:53Z</time>
      </trkpt>
      <trkpt lat="46.20934" lon="4.59792">
        <ele>536</ele>
        <time>2025-09-07T11:55:54Z</time>
      </trkpt>
      <trkpt lat="46.20932" lon="4.59793">
        <ele>536.2</ele>
        <time>2025-09-07T11:55:55Z</time>
      </trkpt>
      <trkpt lat="46.2093" lon="4.59794">
        <ele>536.2</ele>
        <time>2025-09-07T11:55:56Z</time>
      </trkpt>
      <trkpt lat="46.20928" lon="4.59795">
        <ele>536.8</ele>
        <time>2025-09-07T11:55:57Z</time>
      </trkpt>
      <trkpt lat="46.20926" lon="4.59796">
        <ele>537</ele>
        <time>2025-09-07T11:55:58Z</time>
      </trkpt>
      <trkpt lat="46.20924" lon="4.59798">
        <ele>537.2</ele>
        <time>2025-09-07T11:55:59Z</time>
      </trkpt>
      <trkpt lat="46.20922" lon="4.598">
        <ele>537.6</ele>
        <time>2025-09-07T11:56:00Z</time>
      </trkpt>
      <trkpt lat="46.2092" lon="4.59801">
        <ele>537.6</ele>
        <time>2025-09-07T11:56:01Z</time>
      </trkpt>
      <trkpt lat="46.20919" lon="4.59802">
        <ele>537.8</ele>
        <time>2025-09-07T11:56:02Z</time>
      </trkpt>
      <trkpt lat="46.20917" lon="4.59803">
        <ele>538</ele>
        <time>2025-09-07T11:56:03Z</time>
      </trkpt>
      <trkpt lat="46.20916" lon="4.59803">
        <ele>538</ele>
        <time>2025-09-07T11:56:04Z</time>
      </trkpt>
      <trkpt lat="46.20914" lon="4.59804">
        <ele>538</ele>
        <time>2025-09-07T11:56:05Z</time>
      </trkpt>
      <trkpt lat="46.20913" lon="4.59804">
        <ele>538.2</ele>
        <time>2025-09-07T11:56:06Z</time>
      </trkpt>
      <trkpt lat="46.20911" lon="4.59804">
        <ele>538.4</ele>
        <time>2025-09-07T11:56:07Z</time>
      </trkpt>
      <trkpt lat="46.2091" lon="4.59804">
        <ele>538.4</ele>
        <time>2025-09-07T11:56:08Z</time>
      </trkpt>
      <trkpt lat="46.20908" lon="4.59805">
        <ele>538.8</ele>
        <time>2025-09-07T11:56:09Z</time>
      </trkpt>
      <trkpt lat="46.20906" lon="4.59805">
        <ele>538.8</ele>
        <time>2025-09-07T11:56:10Z</time>
      </trkpt>
      <trkpt lat="46.20903" lon="4.59805">
        <ele>539</ele>
        <time>2025-09-07T11:56:11Z</time>
      </trkpt>
      <trkpt lat="46.20901" lon="4.59806">
        <ele>539</ele>
        <time>2025-09-07T11:56:12Z</time>
      </trkpt>
      <trkpt lat="46.20899" lon="4.59806">
        <ele>539.4</ele>
        <time>2025-09-07T11:56:13Z</time>
      </trkpt>
      <trkpt lat="46.20897" lon="4.59806">
        <ele>539.4</ele>
        <time>2025-09-07T11:56:14Z</time>
      </trkpt>
      <trkpt lat="46.20895" lon="4.59807">
        <ele>539.4</ele>
        <time>2025-09-07T11:56:15Z</time>
      </trkpt>
      <trkpt lat="46.20893" lon="4.59807">
        <ele>539.8</ele>
        <time>2025-09-07T11:56:16Z</time>
      </trkpt>
      <trkpt lat="46.20892" lon="4.59807">
        <ele>539.8</ele>
        <time>2025-09-07T11:56:17Z</time>
      </trkpt>
      <trkpt lat="46.2089" lon="4.59808">
        <ele>540</ele>
        <time>2025-09-07T11:56:18Z</time>
      </trkpt>
      <trkpt lat="46.20888" lon="4.59808">
        <ele>540</ele>
        <time>2025-09-07T11:56:19Z</time>
      </trkpt>
      <trkpt lat="46.20886" lon="4.59809">
        <ele>540</ele>
        <time>2025-09-07T11:56:20Z</time>
      </trkpt>
      <trkpt lat="46.20884" lon="4.5981">
        <ele>540.2</ele>
        <time>2025-09-07T11:56:21Z</time>
      </trkpt>
      <trkpt lat="46.20882" lon="4.59811">
        <ele>540.2</ele>
        <time>2025-09-07T11:56:22Z</time>
      </trkpt>
      <trkpt lat="46.20881" lon="4.59811">
        <ele>540.2</ele>
        <time>2025-09-07T11:56:23Z</time>
      </trkpt>
      <trkpt lat="46.20879" lon="4.59812">
        <ele>540.6</ele>
        <time>2025-09-07T11:56:24Z</time>
      </trkpt>
      <trkpt lat="46.20877" lon="4.59813">
        <ele>540.6</ele>
        <time>2025-09-07T11:56:25Z</time>
      </trkpt>
      <trkpt lat="46.20875" lon="4.59814">
        <ele>540.6</ele>
        <time>2025-09-07T11:56:26Z</time>
      </trkpt>
      <trkpt lat="46.20871" lon="4.59815">
        <ele>540.8</ele>
        <time>2025-09-07T11:56:27Z</time>
      </trkpt>
      <trkpt lat="46.20869" lon="4.59815">
        <ele>540.8</ele>
        <time>2025-09-07T11:56:28Z</time>
      </trkpt>
      <trkpt lat="46.20867" lon="4.59814">
        <ele>540.8</ele>
        <time>2025-09-07T11:56:29Z</time>
      </trkpt>
      <trkpt lat="46.20866" lon="4.59814">
        <ele>540.8</ele>
        <time>2025-09-07T11:56:30Z</time>
      </trkpt>
      <trkpt lat="46.20864" lon="4.59813">
        <ele>541.2</ele>
        <time>2025-09-07T11:56:31Z</time>
      </trkpt>
      <trkpt lat="46.20862" lon="4.59813">
        <ele>541.2</ele>
        <time>2025-09-07T11:56:32Z</time>
      </trkpt>
      <trkpt lat="46.2086" lon="4.59814">
        <ele>541.2</ele>
        <time>2025-09-07T11:56:33Z</time>
      </trkpt>
      <trkpt lat="46.20858" lon="4.59815">
        <ele>541.2</ele>
        <time>2025-09-07T11:56:34Z</time>
      </trkpt>
      <trkpt lat="46.20856" lon="4.59816">
        <ele>541.4</ele>
        <time>2025-09-07T11:56:35Z</time>
      </trkpt>
      <trkpt lat="46.20855" lon="4.59817">
        <ele>542</ele>
        <time>2025-09-07T11:56:36Z</time>
      </trkpt>
      <trkpt lat="46.20853" lon="4.59817">
        <ele>542.2</ele>
        <time>2025-09-07T11:56:37Z</time>
      </trkpt>
      <trkpt lat="46.20851" lon="4.59817">
        <ele>542.8</ele>
        <time>2025-09-07T11:56:38Z</time>
      </trkpt>
      <trkpt lat="46.20849" lon="4.59817">
        <ele>542.8</ele>
        <time>2025-09-07T11:56:39Z</time>
      </trkpt>
      <trkpt lat="46.20847" lon="4.59817">
        <ele>542.8</ele>
        <time>2025-09-07T11:56:40Z</time>
      </trkpt>
      <trkpt lat="46.20846" lon="4.59817">
        <ele>542.8</ele>
        <time>2025-09-07T11:56:41Z</time>
      </trkpt>
      <trkpt lat="46.20844" lon="4.59818">
        <ele>542.8</ele>
        <time>2025-09-07T11:56:42Z</time>
      </trkpt>
      <trkpt lat="46.20842" lon="4.59818">
        <ele>543.2</ele>
        <time>2025-09-07T11:56:43Z</time>
      </trkpt>
      <trkpt lat="46.20841" lon="4.59819">
        <ele>543.2</ele>
        <time>2025-09-07T11:56:44Z</time>
      </trkpt>
      <trkpt lat="46.20839" lon="4.59819">
        <ele>542.2</ele>
        <time>2025-09-07T11:56:45Z</time>
      </trkpt>
      <trkpt lat="46.20837" lon="4.5982">
        <ele>542.6</ele>
        <time>2025-09-07T11:56:46Z</time>
      </trkpt>
      <trkpt lat="46.20835" lon="4.5982">
        <ele>542.8</ele>
        <time>2025-09-07T11:56:47Z</time>
      </trkpt>
      <trkpt lat="46.20834" lon="4.5982">
        <ele>542.8</ele>
        <time>2025-09-07T11:56:48Z</time>
      </trkpt>
      <trkpt lat="46.20832" lon="4.5982">
        <ele>543.2</ele>
        <time>2025-09-07T11:56:49Z</time>
      </trkpt>
      <trkpt lat="46.2083" lon="4.5982">
        <ele>543.4</ele>
        <time>2025-09-07T11:56:50Z</time>
      </trkpt>
      <trkpt lat="46.20829" lon="4.5982">
        <ele>543.4</ele>
        <time>2025-09-07T11:56:51Z</time>
      </trkpt>
      <trkpt lat="46.20827" lon="4.59821">
        <ele>543.4</ele>
        <time>2025-09-07T11:56:52Z</time>
      </trkpt>
      <trkpt lat="46.20826" lon="4.59821">
        <ele>543.8</ele>
        <time>2025-09-07T11:56:53Z</time>
      </trkpt>
      <trkpt lat="46.20824" lon="4.59821">
        <ele>544.2</ele>
        <time>2025-09-07T11:56:54Z</time>
      </trkpt>
      <trkpt lat="46.20822" lon="4.59822">
        <ele>544.4</ele>
        <time>2025-09-07T11:56:55Z</time>
      </trkpt>
      <trkpt lat="46.2082" lon="4.59823">
        <ele>544.6</ele>
        <time>2025-09-07T11:56:56Z</time>
      </trkpt>
      <trkpt lat="46.20819" lon="4.59823">
        <ele>544.6</ele>
        <time>2025-09-07T11:56:57Z</time>
      </trkpt>
      <trkpt lat="46.20817" lon="4.59823">
        <ele>544.8</ele>
        <time>2025-09-07T11:56:58Z</time>
      </trkpt>
      <trkpt lat="46.20815" lon="4.59823">
        <ele>544.8</ele>
        <time>2025-09-07T11:56:59Z</time>
      </trkpt>
      <trkpt lat="46.20813" lon="4.59823">
        <ele>545.2</ele>
        <time>2025-09-07T11:57:00Z</time>
      </trkpt>
      <trkpt lat="46.20812" lon="4.59822">
        <ele>545.2</ele>
        <time>2025-09-07T11:57:01Z</time>
      </trkpt>
      <trkpt lat="46.2081" lon="4.59822">
        <ele>545.4</ele>
        <time>2025-09-07T11:57:02Z</time>
      </trkpt>
      <trkpt lat="46.20808" lon="4.59822">
        <ele>545.4</ele>
        <time>2025-09-07T11:57:03Z</time>
      </trkpt>
      <trkpt lat="46.20806" lon="4.59822">
        <ele>545.8</ele>
        <time>2025-09-07T11:57:04Z</time>
      </trkpt>
      <trkpt lat="46.20805" lon="4.59822">
        <ele>545.8</ele>
        <time>2025-09-07T11:57:05Z</time>
      </trkpt>
      <trkpt lat="46.20803" lon="4.59822">
        <ele>546</ele>
        <time>2025-09-07T11:57:06Z</time>
      </trkpt>
      <trkpt lat="46.20801" lon="4.59822">
        <ele>546</ele>
        <time>2025-09-07T11:57:07Z</time>
      </trkpt>
      <trkpt lat="46.208" lon="4.59822">
        <ele>546</ele>
        <time>2025-09-07T11:57:08Z</time>
      </trkpt>
      <trkpt lat="46.20798" lon="4.59822">
        <ele>546</ele>
        <time>2025-09-07T11:57:09Z</time>
      </trkpt>
      <trkpt lat="46.20797" lon="4.59821">
        <ele>546</ele>
        <time>2025-09-07T11:57:10Z</time>
      </trkpt>
      <trkpt lat="46.20795" lon="4.5982">
        <ele>546.4</ele>
        <time>2025-09-07T11:57:11Z</time>
      </trkpt>
      <trkpt lat="46.20794" lon="4.59819">
        <ele>546.4</ele>
        <time>2025-09-07T11:57:12Z</time>
      </trkpt>
      <trkpt lat="46.20792" lon="4.59818">
        <ele>546.4</ele>
        <time>2025-09-07T11:57:13Z</time>
      </trkpt>
      <trkpt lat="46.20791" lon="4.59817">
        <ele>546.6</ele>
        <time>2025-09-07T11:57:14Z</time>
      </trkpt>
      <trkpt lat="46.20789" lon="4.59816">
        <ele>546.6</ele>
        <time>2025-09-07T11:57:15Z</time>
      </trkpt>
      <trkpt lat="46.20788" lon="4.59815">
        <ele>547</ele>
        <time>2025-09-07T11:57:16Z</time>
      </trkpt>
      <trkpt lat="46.20787" lon="4.59814">
        <ele>547</ele>
        <time>2025-09-07T11:57:17Z</time>
      </trkpt>
      <trkpt lat="46.20785" lon="4.59812">
        <ele>547.4</ele>
        <time>2025-09-07T11:57:18Z</time>
      </trkpt>
      <trkpt lat="46.20784" lon="4.5981">
        <ele>547.4</ele>
        <time>2025-09-07T11:57:19Z</time>
      </trkpt>
      <trkpt lat="46.20783" lon="4.59808">
        <ele>547.4</ele>
        <time>2025-09-07T11:57:20Z</time>
      </trkpt>
      <trkpt lat="46.20783" lon="4.59806">
        <ele>547.8</ele>
        <time>2025-09-07T11:57:21Z</time>
      </trkpt>
      <trkpt lat="46.20782" lon="4.59803">
        <ele>548</ele>
        <time>2025-09-07T11:57:22Z</time>
      </trkpt>
      <trkpt lat="46.20782" lon="4.598">
        <ele>548</ele>
        <time>2025-09-07T11:57:23Z</time>
      </trkpt>
      <trkpt lat="46.20782" lon="4.598">
        <ele>548.4</ele>
        <time>2025-09-07T11:57:24Z</time>
      </trkpt>
      <trkpt lat="46.20781" lon="4.59797">
        <ele>548.4</ele>
        <time>2025-09-07T11:57:25Z</time>
      </trkpt>
      <trkpt lat="46.20781" lon="4.59794">
        <ele>548.6</ele>
        <time>2025-09-07T11:57:26Z</time>
      </trkpt>
      <trkpt lat="46.2078" lon="4.59792">
        <ele>548.6</ele>
        <time>2025-09-07T11:57:27Z</time>
      </trkpt>
      <trkpt lat="46.20779" lon="4.59789">
        <ele>548.6</ele>
        <time>2025-09-07T11:57:28Z</time>
      </trkpt>
      <trkpt lat="46.20778" lon="4.59787">
        <ele>549</ele>
        <time>2025-09-07T11:57:29Z</time>
      </trkpt>
      <trkpt lat="46.20777" lon="4.59785">
        <ele>549.2</ele>
        <time>2025-09-07T11:57:30Z</time>
      </trkpt>
      <trkpt lat="46.20777" lon="4.59784">
        <ele>549.2</ele>
        <time>2025-09-07T11:57:31Z</time>
      </trkpt>
      <trkpt lat="46.20777" lon="4.59782">
        <ele>549.2</ele>
        <time>2025-09-07T11:57:32Z</time>
      </trkpt>
      <trkpt lat="46.20777" lon="4.59782">
        <ele>549.2</ele>
        <time>2025-09-07T11:57:33Z</time>
      </trkpt>
      <trkpt lat="46.20777" lon="4.59782">
        <ele>549.2</ele>
        <time>2025-09-07T11:57:34Z</time>
      </trkpt>
      <trkpt lat="46.20777" lon="4.5978">
        <ele>550.2</ele>
        <time>2025-09-07T12:02:19Z</time>
      </trkpt>
      <trkpt lat="46.20776" lon="4.59779">
        <ele>550.2</ele>
        <time>2025-09-07T12:02:20Z</time>
      </trkpt>
      <trkpt lat="46.20776" lon="4.59779">
        <ele>550.2</ele>
        <time>2025-09-07T12:02:21Z</time>
      </trkpt>
      <trkpt lat="46.20776" lon="4.59779">
        <ele>550.2</ele>
        <time>2025-09-07T12:02:22Z</time>
      </trkpt>
      <trkpt lat="46.20773" lon="4.5977">
        <ele>550.2</ele>
        <time>2025-09-07T12:02:24Z</time>
      </trkpt>
      <trkpt lat="46.20772" lon="4.59767">
        <ele>550.2</ele>
        <time>2025-09-07T12:02:25Z</time>
      </trkpt>
      <trkpt lat="46.20772" lon="4.59764">
        <ele>550.2</ele>
        <time>2025-09-07T12:02:26Z</time>
      </trkpt>
      <trkpt lat="46.20771" lon="4.59761">
        <ele>550.2</ele>
        <time>2025-09-07T12:02:27Z</time>
      </trkpt>
      <trkpt lat="46.20772" lon="4.59757">
        <ele>550.4</ele>
        <time>2025-09-07T12:02:28Z</time>
      </trkpt>
      <trkpt lat="46.20772" lon="4.59754">
        <ele>550.6</ele>
        <time>2025-09-07T12:02:29Z</time>
      </trkpt>
      <trkpt lat="46.20773" lon="4.59751">
        <ele>551</ele>
        <time>2025-09-07T12:02:30Z</time>
      </trkpt>
      <trkpt lat="46.20775" lon="4.59748">
        <ele>551.2</ele>
        <time>2025-09-07T12:02:31Z</time>
      </trkpt>
      <trkpt lat="46.20777" lon="4.59746">
        <ele>551.6</ele>
        <time>2025-09-07T12:02:32Z</time>
      </trkpt>
      <trkpt lat="46.20779" lon="4.59744">
        <ele>551.8</ele>
        <time>2025-09-07T12:02:33Z</time>
      </trkpt>
      <trkpt lat="46.20781" lon="4.59743">
        <ele>551.8</ele>
        <time>2025-09-07T12:02:34Z</time>
      </trkpt>
      <trkpt lat="46.20784" lon="4.59742">
        <ele>552.2</ele>
        <time>2025-09-07T12:02:35Z</time>
      </trkpt>
      <trkpt lat="46.20786" lon="4.59741">
        <ele>552.4</ele>
        <time>2025-09-07T12:02:36Z</time>
      </trkpt>
      <trkpt lat="46.20789" lon="4.5974">
        <ele>552.8</ele>
        <time>2025-09-07T12:02:37Z</time>
      </trkpt>
      <trkpt lat="46.20791" lon="4.5974">
        <ele>552.8</ele>
        <time>2025-09-07T12:02:38Z</time>
      </trkpt>
      <trkpt lat="46.20793" lon="4.59741">
        <ele>553.2</ele>
        <time>2025-09-07T12:02:39Z</time>
      </trkpt>
      <trkpt lat="46.20795" lon="4.59741">
        <ele>553.6</ele>
        <time>2025-09-07T12:02:40Z</time>
      </trkpt>
      <trkpt lat="46.20797" lon="4.59741">
        <ele>553.6</ele>
        <time>2025-09-07T12:02:41Z</time>
      </trkpt>
      <trkpt lat="46.20799" lon="4.59742">
        <ele>554</ele>
        <time>2025-09-07T12:02:42Z</time>
      </trkpt>
      <trkpt lat="46.20801" lon="4.59742">
        <ele>554</ele>
        <time>2025-09-07T12:02:43Z</time>
      </trkpt>
      <trkpt lat="46.20803" lon="4.59742">
        <ele>554.4</ele>
        <time>2025-09-07T12:02:44Z</time>
      </trkpt>
      <trkpt lat="46.20805" lon="4.59742">
        <ele>554.6</ele>
        <time>2025-09-07T12:02:45Z</time>
      </trkpt>
      <trkpt lat="46.20807" lon="4.59742">
        <ele>554.8</ele>
        <time>2025-09-07T12:02:46Z</time>
      </trkpt>
      <trkpt lat="46.20809" lon="4.59742">
        <ele>554.8</ele>
        <time>2025-09-07T12:02:47Z</time>
      </trkpt>
      <trkpt lat="46.20811" lon="4.59741">
        <ele>555.2</ele>
        <time>2025-09-07T12:02:48Z</time>
      </trkpt>
      <trkpt lat="46.20814" lon="4.59741">
        <ele>555.2</ele>
        <time>2025-09-07T12:02:49Z</time>
      </trkpt>
      <trkpt lat="46.20816" lon="4.5974">
        <ele>555.6</ele>
        <time>2025-09-07T12:02:50Z</time>
      </trkpt>
      <trkpt lat="46.20818" lon="4.59739">
        <ele>555.6</ele>
        <time>2025-09-07T12:02:51Z</time>
      </trkpt>
      <trkpt lat="46.20819" lon="4.59738">
        <ele>555.6</ele>
        <time>2025-09-07T12:02:52Z</time>
      </trkpt>
      <trkpt lat="46.20821" lon="4.59737">
        <ele>555.8</ele>
        <time>2025-09-07T12:02:53Z</time>
      </trkpt>
      <trkpt lat="46.20823" lon="4.59735">
        <ele>556</ele>
        <time>2025-09-07T12:02:54Z</time>
      </trkpt>
      <trkpt lat="46.20825" lon="4.59734">
        <ele>556</ele>
        <time>2025-09-07T12:02:55Z</time>
      </trkpt>
      <trkpt lat="46.20827" lon="4.59732">
        <ele>556</ele>
        <time>2025-09-07T12:02:56Z</time>
      </trkpt>
      <trkpt lat="46.20828" lon="4.59731">
        <ele>556</ele>
        <time>2025-09-07T12:02:57Z</time>
      </trkpt>
      <trkpt lat="46.2083" lon="4.5973">
        <ele>556</ele>
        <time>2025-09-07T12:02:58Z</time>
      </trkpt>
      <trkpt lat="46.20832" lon="4.59728">
        <ele>556.4</ele>
        <time>2025-09-07T12:02:59Z</time>
      </trkpt>
      <trkpt lat="46.20832" lon="4.59728">
        <ele>556.4</ele>
        <time>2025-09-07T12:03:00Z</time>
      </trkpt>
      <trkpt lat="46.20836" lon="4.59726">
        <ele>556.6</ele>
        <time>2025-09-07T12:03:01Z</time>
      </trkpt>
      <trkpt lat="46.20838" lon="4.59725">
        <ele>556.6</ele>
        <time>2025-09-07T12:03:02Z</time>
      </trkpt>
      <trkpt lat="46.20839" lon="4.59724">
        <ele>557</ele>
        <time>2025-09-07T12:03:03Z</time>
      </trkpt>
      <trkpt lat="46.20841" lon="4.59722">
        <ele>557</ele>
        <time>2025-09-07T12:03:04Z</time>
      </trkpt>
      <trkpt lat="46.20842" lon="4.5972">
        <ele>557.4</ele>
        <time>2025-09-07T12:03:05Z</time>
      </trkpt>
      <trkpt lat="46.20844" lon="4.59718">
        <ele>557.4</ele>
        <time>2025-09-07T12:03:06Z</time>
      </trkpt>
      <trkpt lat="46.20845" lon="4.59716">
        <ele>557.8</ele>
        <time>2025-09-07T12:03:07Z</time>
      </trkpt>
      <trkpt lat="46.20847" lon="4.59714">
        <ele>558</ele>
        <time>2025-09-07T12:03:08Z</time>
      </trkpt>
      <trkpt lat="46.20848" lon="4.59713">
        <ele>558.2</ele>
        <time>2025-09-07T12:03:09Z</time>
      </trkpt>
      <trkpt lat="46.2085" lon="4.59712">
        <ele>558.6</ele>
        <time>2025-09-07T12:03:10Z</time>
      </trkpt>
      <trkpt lat="46.20851" lon="4.5971">
        <ele>559</ele>
        <time>2025-09-07T12:03:11Z</time>
      </trkpt>
      <trkpt lat="46.20853" lon="4.59709">
        <ele>559</ele>
        <time>2025-09-07T12:03:12Z</time>
      </trkpt>
      <trkpt lat="46.20854" lon="4.59707">
        <ele>559.4</ele>
        <time>2025-09-07T12:03:13Z</time>
      </trkpt>
      <trkpt lat="46.20855" lon="4.59705">
        <ele>559.6</ele>
        <time>2025-09-07T12:03:14Z</time>
      </trkpt>
      <trkpt lat="46.20856" lon="4.59702">
        <ele>559.6</ele>
        <time>2025-09-07T12:03:15Z</time>
      </trkpt>
      <trkpt lat="46.20857" lon="4.597">
        <ele>559.6</ele>
        <time>2025-09-07T12:03:16Z</time>
      </trkpt>
      <trkpt lat="46.20858" lon="4.59698">
        <ele>559.8</ele>
        <time>2025-09-07T12:03:17Z</time>
      </trkpt>
      <trkpt lat="46.20859" lon="4.59696">
        <ele>559.8</ele>
        <time>2025-09-07T12:03:18Z</time>
      </trkpt>
      <trkpt lat="46.2086" lon="4.59694">
        <ele>559.8</ele>
        <time>2025-09-07T12:03:19Z</time>
      </trkpt>
      <trkpt lat="46.20861" lon="4.59693">
        <ele>560.2</ele>
        <time>2025-09-07T12:03:20Z</time>
      </trkpt>
      <trkpt lat="46.20862" lon="4.59691">
        <ele>560.2</ele>
        <time>2025-09-07T12:03:21Z</time>
      </trkpt>
      <trkpt lat="46.20863" lon="4.59689">
        <ele>560.8</ele>
        <time>2025-09-07T12:03:22Z</time>
      </trkpt>
      <trkpt lat="46.20864" lon="4.59687">
        <ele>560.8</ele>
        <time>2025-09-07T12:03:23Z</time>
      </trkpt>
      <trkpt lat="46.20865" lon="4.59686">
        <ele>561.2</ele>
        <time>2025-09-07T12:03:24Z</time>
      </trkpt>
      <trkpt lat="46.20866" lon="4.59684">
        <ele>561.4</ele>
        <time>2025-09-07T12:03:25Z</time>
      </trkpt>
      <trkpt lat="46.20867" lon="4.59682">
        <ele>561.8</ele>
        <time>2025-09-07T12:03:26Z</time>
      </trkpt>
      <trkpt lat="46.20868" lon="4.5968">
        <ele>561.8</ele>
        <time>2025-09-07T12:03:27Z</time>
      </trkpt>
      <trkpt lat="46.20869" lon="4.59677">
        <ele>561.8</ele>
        <time>2025-09-07T12:03:28Z</time>
      </trkpt>
      <trkpt lat="46.20869" lon="4.59675">
        <ele>562</ele>
        <time>2025-09-07T12:03:29Z</time>
      </trkpt>
      <trkpt lat="46.2087" lon="4.59672">
        <ele>562</ele>
        <time>2025-09-07T12:03:30Z</time>
      </trkpt>
      <trkpt lat="46.20871" lon="4.5967">
        <ele>562</ele>
        <time>2025-09-07T12:03:31Z</time>
      </trkpt>
      <trkpt lat="46.20872" lon="4.59668">
        <ele>562.4</ele>
        <time>2025-09-07T12:03:32Z</time>
      </trkpt>
      <trkpt lat="46.20872" lon="4.59666">
        <ele>562.6</ele>
        <time>2025-09-07T12:03:33Z</time>
      </trkpt>
      <trkpt lat="46.20873" lon="4.59663">
        <ele>562.6</ele>
        <time>2025-09-07T12:03:34Z</time>
      </trkpt>
      <trkpt lat="46.20874" lon="4.59662">
        <ele>562.6</ele>
        <time>2025-09-07T12:03:35Z</time>
      </trkpt>
      <trkpt lat="46.20875" lon="4.5966">
        <ele>562.8</ele>
        <time>2025-09-07T12:03:36Z</time>
      </trkpt>
      <trkpt lat="46.20875" lon="4.59657">
        <ele>562.8</ele>
        <time>2025-09-07T12:03:37Z</time>
      </trkpt>
      <trkpt lat="46.20876" lon="4.59655">
        <ele>562.8</ele>
        <time>2025-09-07T12:03:38Z</time>
      </trkpt>
      <trkpt lat="46.20876" lon="4.59654">
        <ele>562.8</ele>
        <time>2025-09-07T12:03:39Z</time>
      </trkpt>
      <trkpt lat="46.20877" lon="4.59652">
        <ele>562.8</ele>
        <time>2025-09-07T12:03:40Z</time>
      </trkpt>
      <trkpt lat="46.20877" lon="4.5965">
        <ele>563.2</ele>
        <time>2025-09-07T12:03:41Z</time>
      </trkpt>
      <trkpt lat="46.20877" lon="4.59647">
        <ele>563.4</ele>
        <time>2025-09-07T12:03:42Z</time>
      </trkpt>
      <trkpt lat="46.20877" lon="4.59644">
        <ele>563.8</ele>
        <time>2025-09-07T12:03:43Z</time>
      </trkpt>
      <trkpt lat="46.20878" lon="4.59642">
        <ele>563.8</ele>
        <time>2025-09-07T12:03:44Z</time>
      </trkpt>
      <trkpt lat="46.20879" lon="4.5964">
        <ele>564.2</ele>
        <time>2025-09-07T12:03:45Z</time>
      </trkpt>
      <trkpt lat="46.2088" lon="4.59638">
        <ele>564.2</ele>
        <time>2025-09-07T12:03:46Z</time>
      </trkpt>
      <trkpt lat="46.20881" lon="4.59636">
        <ele>564.2</ele>
        <time>2025-09-07T12:03:47Z</time>
      </trkpt>
      <trkpt lat="46.20882" lon="4.59634">
        <ele>564.2</ele>
        <time>2025-09-07T12:03:48Z</time>
      </trkpt>
      <trkpt lat="46.20882" lon="4.59631">
        <ele>564.4</ele>
        <time>2025-09-07T12:03:49Z</time>
      </trkpt>
      <trkpt lat="46.20883" lon="4.59629">
        <ele>564.4</ele>
        <time>2025-09-07T12:03:50Z</time>
      </trkpt>
      <trkpt lat="46.20884" lon="4.59627">
        <ele>564.6</ele>
        <time>2025-09-07T12:03:51Z</time>
      </trkpt>
      <trkpt lat="46.20884" lon="4.59625">
        <ele>564.6</ele>
        <time>2025-09-07T12:03:52Z</time>
      </trkpt>
      <trkpt lat="46.20885" lon="4.59623">
        <ele>565</ele>
        <time>2025-09-07T12:03:53Z</time>
      </trkpt>
      <trkpt lat="46.20885" lon="4.5962">
        <ele>565</ele>
        <time>2025-09-07T12:03:54Z</time>
      </trkpt>
      <trkpt lat="46.20886" lon="4.59618">
        <ele>565</ele>
        <time>2025-09-07T12:03:55Z</time>
      </trkpt>
      <trkpt lat="46.20887" lon="4.59616">
        <ele>565</ele>
        <time>2025-09-07T12:03:56Z</time>
      </trkpt>
      <trkpt lat="46.20887" lon="4.59614">
        <ele>565.2</ele>
        <time>2025-09-07T12:03:57Z</time>
      </trkpt>
      <trkpt lat="46.20888" lon="4.59611">
        <ele>565.2</ele>
        <time>2025-09-07T12:03:58Z</time>
      </trkpt>
      <trkpt lat="46.20888" lon="4.59609">
        <ele>565.4</ele>
        <time>2025-09-07T12:03:59Z</time>
      </trkpt>
      <trkpt lat="46.20889" lon="4.59607">
        <ele>565.4</ele>
        <time>2025-09-07T12:04:00Z</time>
      </trkpt>
      <trkpt lat="46.2089" lon="4.59605">
        <ele>565.8</ele>
        <time>2025-09-07T12:04:01Z</time>
      </trkpt>
      <trkpt lat="46.2089" lon="4.59602">
        <ele>565.8</ele>
        <time>2025-09-07T12:04:02Z</time>
      </trkpt>
      <trkpt lat="46.20891" lon="4.596">
        <ele>566</ele>
        <time>2025-09-07T12:04:03Z</time>
      </trkpt>
      <trkpt lat="46.20891" lon="4.59598">
        <ele>566</ele>
        <time>2025-09-07T12:04:04Z</time>
      </trkpt>
      <trkpt lat="46.20892" lon="4.59595">
        <ele>566.2</ele>
        <time>2025-09-07T12:04:05Z</time>
      </trkpt>
      <trkpt lat="46.20892" lon="4.5959">
        <ele>566.4</ele>
        <time>2025-09-07T12:04:06Z</time>
      </trkpt>
      <trkpt lat="46.20893" lon="4.59588">
        <ele>566.8</ele>
        <time>2025-09-07T12:04:07Z</time>
      </trkpt>
      <trkpt lat="46.20893" lon="4.59586">
        <ele>566.8</ele>
        <time>2025-09-07T12:04:08Z</time>
      </trkpt>
      <trkpt lat="46.20894" lon="4.59583">
        <ele>567</ele>
        <time>2025-09-07T12:04:09Z</time>
      </trkpt>
      <trkpt lat="46.20894" lon="4.59581">
        <ele>567</ele>
        <time>2025-09-07T12:04:10Z</time>
      </trkpt>
      <trkpt lat="46.20894" lon="4.59578">
        <ele>567.4</ele>
        <time>2025-09-07T12:04:11Z</time>
      </trkpt>
      <trkpt lat="46.20894" lon="4.59576">
        <ele>567.6</ele>
        <time>2025-09-07T12:04:12Z</time>
      </trkpt>
      <trkpt lat="46.20894" lon="4.59573">
        <ele>567.6</ele>
        <time>2025-09-07T12:04:13Z</time>
      </trkpt>
      <trkpt lat="46.20893" lon="4.59571">
        <ele>567.6</ele>
        <time>2025-09-07T12:04:14Z</time>
      </trkpt>
      <trkpt lat="46.20893" lon="4.59568">
        <ele>568</ele>
        <time>2025-09-07T12:04:15Z</time>
      </trkpt>
      <trkpt lat="46.20893" lon="4.59565">
        <ele>568</ele>
        <time>2025-09-07T12:04:16Z</time>
      </trkpt>
      <trkpt lat="46.20892" lon="4.59563">
        <ele>568.2</ele>
        <time>2025-09-07T12:04:17Z</time>
      </trkpt>
      <trkpt lat="46.20892" lon="4.59561">
        <ele>568.2</ele>
        <time>2025-09-07T12:04:18Z</time>
      </trkpt>
      <trkpt lat="46.20891" lon="4.59559">
        <ele>568.6</ele>
        <time>2025-09-07T12:04:19Z</time>
      </trkpt>
      <trkpt lat="46.2089" lon="4.59557">
        <ele>569</ele>
        <time>2025-09-07T12:04:20Z</time>
      </trkpt>
      <trkpt lat="46.20888" lon="4.59555">
        <ele>569</ele>
        <time>2025-09-07T12:04:21Z</time>
      </trkpt>
      <trkpt lat="46.20887" lon="4.59554">
        <ele>569</ele>
        <time>2025-09-07T12:04:22Z</time>
      </trkpt>
      <trkpt lat="46.20885" lon="4.59553">
        <ele>569</ele>
        <time>2025-09-07T12:04:23Z</time>
      </trkpt>
      <trkpt lat="46.20884" lon="4.59552">
        <ele>569.2</ele>
        <time>2025-09-07T12:04:24Z</time>
      </trkpt>
      <trkpt lat="46.20883" lon="4.59551">
        <ele>569.6</ele>
        <time>2025-09-07T12:04:25Z</time>
      </trkpt>
      <trkpt lat="46.20881" lon="4.5955">
        <ele>569.2</ele>
        <time>2025-09-07T12:04:26Z</time>
      </trkpt>
      <trkpt lat="46.2088" lon="4.5955">
        <ele>569.2</ele>
        <time>2025-09-07T12:04:27Z</time>
      </trkpt>
      <trkpt lat="46.20878" lon="4.5955">
        <ele>569.2</ele>
        <time>2025-09-07T12:04:28Z</time>
      </trkpt>
      <trkpt lat="46.20877" lon="4.5955">
        <ele>569.2</ele>
        <time>2025-09-07T12:04:29Z</time>
      </trkpt>
      <trkpt lat="46.20875" lon="4.5955">
        <ele>569.4</ele>
        <time>2025-09-07T12:04:30Z</time>
      </trkpt>
      <trkpt lat="46.20873" lon="4.59551">
        <ele>569.4</ele>
        <time>2025-09-07T12:04:31Z</time>
      </trkpt>
      <trkpt lat="46.20872" lon="4.5955">
        <ele>569.8</ele>
        <time>2025-09-07T12:04:32Z</time>
      </trkpt>
      <trkpt lat="46.2087" lon="4.5955">
        <ele>569.8</ele>
        <time>2025-09-07T12:04:33Z</time>
      </trkpt>
      <trkpt lat="46.20869" lon="4.5955">
        <ele>570</ele>
        <time>2025-09-07T12:04:34Z</time>
      </trkpt>
      <trkpt lat="46.20867" lon="4.5955">
        <ele>570.4</ele>
        <time>2025-09-07T12:04:35Z</time>
      </trkpt>
      <trkpt lat="46.20866" lon="4.59549">
        <ele>570.4</ele>
        <time>2025-09-07T12:04:36Z</time>
      </trkpt>
      <trkpt lat="46.20864" lon="4.59548">
        <ele>570.6</ele>
        <time>2025-09-07T12:04:37Z</time>
      </trkpt>
      <trkpt lat="46.20863" lon="4.59548">
        <ele>571.2</ele>
        <time>2025-09-07T12:04:38Z</time>
      </trkpt>
      <trkpt lat="46.20861" lon="4.59547">
        <ele>571.2</ele>
        <time>2025-09-07T12:04:39Z</time>
      </trkpt>
      <trkpt lat="46.2086" lon="4.59547">
        <ele>571.4</ele>
        <time>2025-09-07T12:04:40Z</time>
      </trkpt>
      <trkpt lat="46.20858" lon="4.59546">
        <ele>571.4</ele>
        <time>2025-09-07T12:04:41Z</time>
      </trkpt>
      <trkpt lat="46.20856" lon="4.59546">
        <ele>571.4</ele>
        <time>2025-09-07T12:04:42Z</time>
      </trkpt>
      <trkpt lat="46.20855" lon="4.59546">
        <ele>571.6</ele>
        <time>2025-09-07T12:04:43Z</time>
      </trkpt>
      <trkpt lat="46.20853" lon="4.59546">
        <ele>571.6</ele>
        <time>2025-09-07T12:04:44Z</time>
      </trkpt>
      <trkpt lat="46.20852" lon="4.59545">
        <ele>571.8</ele>
        <time>2025-09-07T12:04:45Z</time>
      </trkpt>
      <trkpt lat="46.2085" lon="4.59544">
        <ele>572.2</ele>
        <time>2025-09-07T12:04:46Z</time>
      </trkpt>
      <trkpt lat="46.20849" lon="4.59542">
        <ele>572.2</ele>
        <time>2025-09-07T12:04:47Z</time>
      </trkpt>
      <trkpt lat="46.20848" lon="4.59539">
        <ele>572.2</ele>
        <time>2025-09-07T12:04:48Z</time>
      </trkpt>
      <trkpt lat="46.20847" lon="4.59537">
        <ele>572.2</ele>
        <time>2025-09-07T12:04:49Z</time>
      </trkpt>
      <trkpt lat="46.20846" lon="4.59535">
        <ele>572.4</ele>
        <time>2025-09-07T12:04:50Z</time>
      </trkpt>
      <trkpt lat="46.20846" lon="4.59535">
        <ele>572.4</ele>
        <time>2025-09-07T12:04:51Z</time>
      </trkpt>
      <trkpt lat="46.20845" lon="4.59532">
        <ele>572</ele>
        <time>2025-09-07T12:04:52Z</time>
      </trkpt>
      <trkpt lat="46.20844" lon="4.5953">
        <ele>572.8</ele>
        <time>2025-09-07T12:04:53Z</time>
      </trkpt>
      <trkpt lat="46.20844" lon="4.59528">
        <ele>573.4</ele>
        <time>2025-09-07T12:04:54Z</time>
      </trkpt>
      <trkpt lat="46.20844" lon="4.59526">
        <ele>573.6</ele>
        <time>2025-09-07T12:04:55Z</time>
      </trkpt>
      <trkpt lat="46.20844" lon="4.59525">
        <ele>573.8</ele>
        <time>2025-09-07T12:04:56Z</time>
      </trkpt>
      <trkpt lat="46.20844" lon="4.59524">
        <ele>573.8</ele>
        <time>2025-09-07T12:04:57Z</time>
      </trkpt>
      <trkpt lat="46.20844" lon="4.59524">
        <ele>574.8</ele>
        <time>2025-09-07T12:05:04Z</time>
      </trkpt>
      <trkpt lat="46.20843" lon="4.59523">
        <ele>574.8</ele>
        <time>2025-09-07T12:05:05Z</time>
      </trkpt>
      <trkpt lat="46.20843" lon="4.59522">
        <ele>575.2</ele>
        <time>2025-09-07T12:05:06Z</time>
      </trkpt>
      <trkpt lat="46.20843" lon="4.59521">
        <ele>575.2</ele>
        <time>2025-09-07T12:05:07Z</time>
      </trkpt>
      <trkpt lat="46.20843" lon="4.5952">
        <ele>575.2</ele>
        <time>2025-09-07T12:05:08Z</time>
      </trkpt>
      <trkpt lat="46.20843" lon="4.59519">
        <ele>575.4</ele>
        <time>2025-09-07T12:05:09Z</time>
      </trkpt>
      <trkpt lat="46.20843" lon="4.59518">
        <ele>575.8</ele>
        <time>2025-09-07T12:05:10Z</time>
      </trkpt>
      <trkpt lat="46.20843" lon="4.59516">
        <ele>575.8</ele>
        <time>2025-09-07T12:05:11Z</time>
      </trkpt>
      <trkpt lat="46.20843" lon="4.59515">
        <ele>575.8</ele>
        <time>2025-09-07T12:05:12Z</time>
      </trkpt>
      <trkpt lat="46.20843" lon="4.59513">
        <ele>576</ele>
        <time>2025-09-07T12:05:13Z</time>
      </trkpt>
      <trkpt lat="46.20843" lon="4.59512">
        <ele>575.2</ele>
        <time>2025-09-07T12:05:14Z</time>
      </trkpt>
      <trkpt lat="46.20843" lon="4.59511">
        <ele>575.2</ele>
        <time>2025-09-07T12:05:15Z</time>
      </trkpt>
      <trkpt lat="46.20843" lon="4.5951">
        <ele>575.6</ele>
        <time>2025-09-07T12:05:16Z</time>
      </trkpt>
      <trkpt lat="46.20843" lon="4.59509">
        <ele>576</ele>
        <time>2025-09-07T12:05:17Z</time>
      </trkpt>
      <trkpt lat="46.20843" lon="4.59508">
        <ele>576</ele>
        <time>2025-09-07T12:05:18Z</time>
      </trkpt>
      <trkpt lat="46.20843" lon="4.59507">
        <ele>576.6</ele>
        <time>2025-09-07T12:05:19Z</time>
      </trkpt>
      <trkpt lat="46.20843" lon="4.59505">
        <ele>576.6</ele>
        <time>2025-09-07T12:05:20Z</time>
      </trkpt>
      <trkpt lat="46.20843" lon="4.59503">
        <ele>576.6</ele>
        <time>2025-09-07T12:05:21Z</time>
      </trkpt>
      <trkpt lat="46.20843" lon="4.59501">
        <ele>576.6</ele>
        <time>2025-09-07T12:05:22Z</time>
      </trkpt>
      <trkpt lat="46.20844" lon="4.595">
        <ele>576.6</ele>
        <time>2025-09-07T12:05:23Z</time>
      </trkpt>
      <trkpt lat="46.20844" lon="4.59499">
        <ele>576.6</ele>
        <time>2025-09-07T12:05:24Z</time>
      </trkpt>
      <trkpt lat="46.20844" lon="4.59498">
        <ele>577</ele>
        <time>2025-09-07T12:05:25Z</time>
      </trkpt>
      <trkpt lat="46.20844" lon="4.59499">
        <ele>577.2</ele>
        <time>2025-09-07T12:05:26Z</time>
      </trkpt>
      <trkpt lat="46.20844" lon="4.595">
        <ele>577.6</ele>
        <time>2025-09-07T12:05:27Z</time>
      </trkpt>
      <trkpt lat="46.20844" lon="4.59497">
        <ele>578.6</ele>
        <time>2025-09-07T12:05:35Z</time>
      </trkpt>
      <trkpt lat="46.20844" lon="4.59495">
        <ele>578.6</ele>
        <time>2025-09-07T12:05:36Z</time>
      </trkpt>
      <trkpt lat="46.20844" lon="4.59493">
        <ele>578.6</ele>
        <time>2025-09-07T12:05:37Z</time>
      </trkpt>
      <trkpt lat="46.20844" lon="4.59491">
        <ele>578.6</ele>
        <time>2025-09-07T12:05:38Z</time>
      </trkpt>
      <trkpt lat="46.20844" lon="4.59489">
        <ele>578.6</ele>
        <time>2025-09-07T12:05:39Z</time>
      </trkpt>
      <trkpt lat="46.20844" lon="4.59487">
        <ele>579.2</ele>
        <time>2025-09-07T12:05:40Z</time>
      </trkpt>
      <trkpt lat="46.20844" lon="4.59485">
        <ele>578.8</ele>
        <time>2025-09-07T12:05:41Z</time>
      </trkpt>
      <trkpt lat="46.20844" lon="4.59484">
        <ele>578.8</ele>
        <time>2025-09-07T12:05:42Z</time>
      </trkpt>
      <trkpt lat="46.20844" lon="4.59483">
        <ele>578.8</ele>
        <time>2025-09-07T12:05:43Z</time>
      </trkpt>
      <trkpt lat="46.20844" lon="4.59482">
        <ele>579.2</ele>
        <time>2025-09-07T12:05:44Z</time>
      </trkpt>
      <trkpt lat="46.20844" lon="4.5948">
        <ele>579.2</ele>
        <time>2025-09-07T12:05:45Z</time>
      </trkpt>
      <trkpt lat="46.20844" lon="4.59479">
        <ele>579.8</ele>
        <time>2025-09-07T12:05:46Z</time>
      </trkpt>
      <trkpt lat="46.20844" lon="4.59477">
        <ele>579.8</ele>
        <time>2025-09-07T12:05:47Z</time>
      </trkpt>
      <trkpt lat="46.20844" lon="4.59476">
        <ele>579.4</ele>
        <time>2025-09-07T12:05:48Z</time>
      </trkpt>
      <trkpt lat="46.20844" lon="4.59475">
        <ele>579.4</ele>
        <time>2025-09-07T12:05:49Z</time>
      </trkpt>
      <trkpt lat="46.20845" lon="4.59472">
        <ele>580</ele>
        <time>2025-09-07T12:05:50Z</time>
      </trkpt>
      <trkpt lat="46.20845" lon="4.59471">
        <ele>580.2</ele>
        <time>2025-09-07T12:05:51Z</time>
      </trkpt>
      <trkpt lat="46.20846" lon="4.59469">
        <ele>580.4</ele>
        <time>2025-09-07T12:05:52Z</time>
      </trkpt>
      <trkpt lat="46.20846" lon="4.59468">
        <ele>580.4</ele>
        <time>2025-09-07T12:05:53Z</time>
      </trkpt>
      <trkpt lat="46.20847" lon="4.59466">
        <ele>580.8</ele>
        <time>2025-09-07T12:05:54Z</time>
      </trkpt>
      <trkpt lat="46.20847" lon="4.59464">
        <ele>580.2</ele>
        <time>2025-09-07T12:05:55Z</time>
      </trkpt>
      <trkpt lat="46.20848" lon="4.59463">
        <ele>580.4</ele>
        <time>2025-09-07T12:05:56Z</time>
      </trkpt>
      <trkpt lat="46.20848" lon="4.59461">
        <ele>580.6</ele>
        <time>2025-09-07T12:05:57Z</time>
      </trkpt>
      <trkpt lat="46.20847" lon="4.5946">
        <ele>580.6</ele>
        <time>2025-09-07T12:05:58Z</time>
      </trkpt>
      <trkpt lat="46.20847" lon="4.59459">
        <ele>581.4</ele>
        <time>2025-09-07T12:05:59Z</time>
      </trkpt>
      <trkpt lat="46.20847" lon="4.59458">
        <ele>581.6</ele>
        <time>2025-09-07T12:06:00Z</time>
      </trkpt>
      <trkpt lat="46.20847" lon="4.59457">
        <ele>581.6</ele>
        <time>2025-09-07T12:06:01Z</time>
      </trkpt>
      <trkpt lat="46.20847" lon="4.59456">
        <ele>581.8</ele>
        <time>2025-09-07T12:06:02Z</time>
      </trkpt>
      <trkpt lat="46.20847" lon="4.59455">
        <ele>581.8</ele>
        <time>2025-09-07T12:06:03Z</time>
      </trkpt>
      <trkpt lat="46.20847" lon="4.59453">
        <ele>582</ele>
        <time>2025-09-07T12:06:04Z</time>
      </trkpt>
      <trkpt lat="46.20847" lon="4.59452">
        <ele>582.2</ele>
        <time>2025-09-07T12:06:05Z</time>
      </trkpt>
      <trkpt lat="46.20848" lon="4.59451">
        <ele>582.4</ele>
        <time>2025-09-07T12:06:06Z</time>
      </trkpt>
      <trkpt lat="46.20849" lon="4.5945">
        <ele>582.4</ele>
        <time>2025-09-07T12:06:07Z</time>
      </trkpt>
      <trkpt lat="46.20849" lon="4.59449">
        <ele>582.4</ele>
        <time>2025-09-07T12:06:08Z</time>
      </trkpt>
      <trkpt lat="46.2085" lon="4.59447">
        <ele>583</ele>
        <time>2025-09-07T12:06:09Z</time>
      </trkpt>
      <trkpt lat="46.2085" lon="4.59446">
        <ele>583</ele>
        <time>2025-09-07T12:06:10Z</time>
      </trkpt>
      <trkpt lat="46.20851" lon="4.59444">
        <ele>582.6</ele>
        <time>2025-09-07T12:06:11Z</time>
      </trkpt>
      <trkpt lat="46.20851" lon="4.59443">
        <ele>583.4</ele>
        <time>2025-09-07T12:06:12Z</time>
      </trkpt>
      <trkpt lat="46.20852" lon="4.59441">
        <ele>583.4</ele>
        <time>2025-09-07T12:06:13Z</time>
      </trkpt>
      <trkpt lat="46.20852" lon="4.5944">
        <ele>583.6</ele>
        <time>2025-09-07T12:06:14Z</time>
      </trkpt>
      <trkpt lat="46.20853" lon="4.59439">
        <ele>584</ele>
        <time>2025-09-07T12:06:15Z</time>
      </trkpt>
      <trkpt lat="46.20854" lon="4.59438">
        <ele>584</ele>
        <time>2025-09-07T12:06:16Z</time>
      </trkpt>
      <trkpt lat="46.20855" lon="4.59437">
        <ele>584.4</ele>
        <time>2025-09-07T12:06:17Z</time>
      </trkpt>
      <trkpt lat="46.20856" lon="4.59436">
        <ele>584.4</ele>
        <time>2025-09-07T12:06:18Z</time>
      </trkpt>
      <trkpt lat="46.20857" lon="4.59434">
        <ele>584.4</ele>
        <time>2025-09-07T12:06:19Z</time>
      </trkpt>
      <trkpt lat="46.20858" lon="4.59433">
        <ele>584.8</ele>
        <time>2025-09-07T12:06:20Z</time>
      </trkpt>
      <trkpt lat="46.20859" lon="4.59431">
        <ele>584.8</ele>
        <time>2025-09-07T12:06:21Z</time>
      </trkpt>
      <trkpt lat="46.20859" lon="4.59429">
        <ele>584.8</ele>
        <time>2025-09-07T12:06:22Z</time>
      </trkpt>
      <trkpt lat="46.2086" lon="4.59428">
        <ele>585</ele>
        <time>2025-09-07T12:06:23Z</time>
      </trkpt>
      <trkpt lat="46.2086" lon="4.59426">
        <ele>585.2</ele>
        <time>2025-09-07T12:06:24Z</time>
      </trkpt>
      <trkpt lat="46.20861" lon="4.59425">
        <ele>585.2</ele>
        <time>2025-09-07T12:06:25Z</time>
      </trkpt>
      <trkpt lat="46.20861" lon="4.59424">
        <ele>585.4</ele>
        <time>2025-09-07T12:06:26Z</time>
      </trkpt>
      <trkpt lat="46.20861" lon="4.59423">
        <ele>585.8</ele>
        <time>2025-09-07T12:06:27Z</time>
      </trkpt>
      <trkpt lat="46.20862" lon="4.59422">
        <ele>585.8</ele>
        <time>2025-09-07T12:06:28Z</time>
      </trkpt>
      <trkpt lat="46.20862" lon="4.59421">
        <ele>585.8</ele>
        <time>2025-09-07T12:06:29Z</time>
      </trkpt>
      <trkpt lat="46.20862" lon="4.59419">
        <ele>585.8</ele>
        <time>2025-09-07T12:06:30Z</time>
      </trkpt>
      <trkpt lat="46.20862" lon="4.59418">
        <ele>586</ele>
        <time>2025-09-07T12:06:31Z</time>
      </trkpt>
      <trkpt lat="46.20862" lon="4.59416">
        <ele>586</ele>
        <time>2025-09-07T12:06:32Z</time>
      </trkpt>
      <trkpt lat="46.20862" lon="4.59415">
        <ele>586.6</ele>
        <time>2025-09-07T12:06:33Z</time>
      </trkpt>
      <trkpt lat="46.20862" lon="4.59414">
        <ele>586.6</ele>
        <time>2025-09-07T12:06:34Z</time>
      </trkpt>
      <trkpt lat="46.20863" lon="4.59413">
        <ele>586.6</ele>
        <time>2025-09-07T12:06:35Z</time>
      </trkpt>
      <trkpt lat="46.20863" lon="4.59412">
        <ele>587</ele>
        <time>2025-09-07T12:06:36Z</time>
      </trkpt>
      <trkpt lat="46.20864" lon="4.5941">
        <ele>587</ele>
        <time>2025-09-07T12:06:37Z</time>
      </trkpt>
      <trkpt lat="46.20864" lon="4.59409">
        <ele>587</ele>
        <time>2025-09-07T12:06:38Z</time>
      </trkpt>
      <trkpt lat="46.20864" lon="4.59408">
        <ele>587.2</ele>
        <time>2025-09-07T12:06:39Z</time>
      </trkpt>
      <trkpt lat="46.20864" lon="4.59407">
        <ele>587.2</ele>
        <time>2025-09-07T12:06:40Z</time>
      </trkpt>
      <trkpt lat="46.20865" lon="4.59406">
        <ele>587.2</ele>
        <time>2025-09-07T12:06:41Z</time>
      </trkpt>
      <trkpt lat="46.20866" lon="4.59405">
        <ele>587.6</ele>
        <time>2025-09-07T12:06:42Z</time>
      </trkpt>
      <trkpt lat="46.20866" lon="4.59405">
        <ele>587.6</ele>
        <time>2025-09-07T12:06:43Z</time>
      </trkpt>
      <trkpt lat="46.20866" lon="4.59405">
        <ele>587.6</ele>
        <time>2025-09-07T12:06:44Z</time>
      </trkpt>
      <trkpt lat="46.20866" lon="4.59404">
        <ele>587.8</ele>
        <time>2025-09-07T12:06:45Z</time>
      </trkpt>
      <trkpt lat="46.20867" lon="4.59402">
        <ele>588.2</ele>
        <time>2025-09-07T12:06:46Z</time>
      </trkpt>
      <trkpt lat="46.20867" lon="4.59401">
        <ele>588.4</ele>
        <time>2025-09-07T12:06:47Z</time>
      </trkpt>
      <trkpt lat="46.20867" lon="4.59399">
        <ele>587.8</ele>
        <time>2025-09-07T12:06:48Z</time>
      </trkpt>
      <trkpt lat="46.20868" lon="4.59398">
        <ele>588.2</ele>
        <time>2025-09-07T12:06:49Z</time>
      </trkpt>
      <trkpt lat="46.20868" lon="4.59398">
        <ele>588.2</ele>
        <time>2025-09-07T12:06:50Z</time>
      </trkpt>
      <trkpt lat="46.20869" lon="4.59396">
        <ele>588.6</ele>
        <time>2025-09-07T12:06:51Z</time>
      </trkpt>
      <trkpt lat="46.20869" lon="4.59394">
        <ele>588.8</ele>
        <time>2025-09-07T12:06:52Z</time>
      </trkpt>
      <trkpt lat="46.20869" lon="4.59393">
        <ele>589.2</ele>
        <time>2025-09-07T12:06:53Z</time>
      </trkpt>
      <trkpt lat="46.20869" lon="4.59392">
        <ele>589.6</ele>
        <time>2025-09-07T12:06:54Z</time>
      </trkpt>
      <trkpt lat="46.2087" lon="4.59391">
        <ele>589.8</ele>
        <time>2025-09-07T12:06:55Z</time>
      </trkpt>
      <trkpt lat="46.20869" lon="4.5939">
        <ele>589.8</ele>
        <time>2025-09-07T12:06:56Z</time>
      </trkpt>
      <trkpt lat="46.2087" lon="4.59388">
        <ele>590.2</ele>
        <time>2025-09-07T12:06:57Z</time>
      </trkpt>
      <trkpt lat="46.2087" lon="4.59386">
        <ele>590.2</ele>
        <time>2025-09-07T12:06:58Z</time>
      </trkpt>
      <trkpt lat="46.20871" lon="4.59385">
        <ele>590.4</ele>
        <time>2025-09-07T12:06:59Z</time>
      </trkpt>
      <trkpt lat="46.20871" lon="4.59384">
        <ele>590.4</ele>
        <time>2025-09-07T12:07:00Z</time>
      </trkpt>
      <trkpt lat="46.20872" lon="4.59384">
        <ele>590.6</ele>
        <time>2025-09-07T12:07:01Z</time>
      </trkpt>
      <trkpt lat="46.20872" lon="4.59383">
        <ele>590.6</ele>
        <time>2025-09-07T12:07:02Z</time>
      </trkpt>
      <trkpt lat="46.20872" lon="4.59381">
        <ele>591.2</ele>
        <time>2025-09-07T12:07:03Z</time>
      </trkpt>
      <trkpt lat="46.20872" lon="4.5938">
        <ele>591.2</ele>
        <time>2025-09-07T12:07:04Z</time>
      </trkpt>
      <trkpt lat="46.20873" lon="4.59379">
        <ele>591.4</ele>
        <time>2025-09-07T12:07:05Z</time>
      </trkpt>
      <trkpt lat="46.20873" lon="4.59378">
        <ele>591.4</ele>
        <time>2025-09-07T12:07:06Z</time>
      </trkpt>
      <trkpt lat="46.20873" lon="4.59376">
        <ele>591.4</ele>
        <time>2025-09-07T12:07:07Z</time>
      </trkpt>
      <trkpt lat="46.20874" lon="4.59375">
        <ele>591.8</ele>
        <time>2025-09-07T12:07:08Z</time>
      </trkpt>
      <trkpt lat="46.20875" lon="4.59373">
        <ele>591.8</ele>
        <time>2025-09-07T12:07:09Z</time>
      </trkpt>
      <trkpt lat="46.20875" lon="4.59372">
        <ele>591.8</ele>
        <time>2025-09-07T12:07:10Z</time>
      </trkpt>
      <trkpt lat="46.20876" lon="4.59371">
        <ele>591.8</ele>
        <time>2025-09-07T12:07:11Z</time>
      </trkpt>
      <trkpt lat="46.20877" lon="4.5937">
        <ele>591.8</ele>
        <time>2025-09-07T12:07:12Z</time>
      </trkpt>
      <trkpt lat="46.20878" lon="4.59368">
        <ele>591.8</ele>
        <time>2025-09-07T12:07:13Z</time>
      </trkpt>
      <trkpt lat="46.20878" lon="4.59367">
        <ele>592</ele>
        <time>2025-09-07T12:07:14Z</time>
      </trkpt>
      <trkpt lat="46.20878" lon="4.59365">
        <ele>592.4</ele>
        <time>2025-09-07T12:07:15Z</time>
      </trkpt>
      <trkpt lat="46.20879" lon="4.59364">
        <ele>592.4</ele>
        <time>2025-09-07T12:07:16Z</time>
      </trkpt>
      <trkpt lat="46.20879" lon="4.59362">
        <ele>592.4</ele>
        <time>2025-09-07T12:07:17Z</time>
      </trkpt>
      <trkpt lat="46.20879" lon="4.59361">
        <ele>592.4</ele>
        <time>2025-09-07T12:07:18Z</time>
      </trkpt>
      <trkpt lat="46.20879" lon="4.5936">
        <ele>592.4</ele>
        <time>2025-09-07T12:07:19Z</time>
      </trkpt>
      <trkpt lat="46.20879" lon="4.59359">
        <ele>592.6</ele>
        <time>2025-09-07T12:07:20Z</time>
      </trkpt>
      <trkpt lat="46.2088" lon="4.59357">
        <ele>592.6</ele>
        <time>2025-09-07T12:07:21Z</time>
      </trkpt>
      <trkpt lat="46.2088" lon="4.59356">
        <ele>592.6</ele>
        <time>2025-09-07T12:07:22Z</time>
      </trkpt>
      <trkpt lat="46.2088" lon="4.59354">
        <ele>592.8</ele>
        <time>2025-09-07T12:07:23Z</time>
      </trkpt>
      <trkpt lat="46.20881" lon="4.59353">
        <ele>592.8</ele>
        <time>2025-09-07T12:07:24Z</time>
      </trkpt>
      <trkpt lat="46.20882" lon="4.59351">
        <ele>592.8</ele>
        <time>2025-09-07T12:07:25Z</time>
      </trkpt>
      <trkpt lat="46.20882" lon="4.5935">
        <ele>593.2</ele>
        <time>2025-09-07T12:07:26Z</time>
      </trkpt>
      <trkpt lat="46.20882" lon="4.59349">
        <ele>593.4</ele>
        <time>2025-09-07T12:07:27Z</time>
      </trkpt>
      <trkpt lat="46.20883" lon="4.59348">
        <ele>593.4</ele>
        <time>2025-09-07T12:07:28Z</time>
      </trkpt>
      <trkpt lat="46.20883" lon="4.59347">
        <ele>593.4</ele>
        <time>2025-09-07T12:07:29Z</time>
      </trkpt>
      <trkpt lat="46.20883" lon="4.59346">
        <ele>593.4</ele>
        <time>2025-09-07T12:07:30Z</time>
      </trkpt>
      <trkpt lat="46.20882" lon="4.59346">
        <ele>593.4</ele>
        <time>2025-09-07T12:07:31Z</time>
      </trkpt>
      <trkpt lat="46.20882" lon="4.59345">
        <ele>593.6</ele>
        <time>2025-09-07T12:07:32Z</time>
      </trkpt>
      <trkpt lat="46.20883" lon="4.59344">
        <ele>593.6</ele>
        <time>2025-09-07T12:07:33Z</time>
      </trkpt>
      <trkpt lat="46.20883" lon="4.59343">
        <ele>593.6</ele>
        <time>2025-09-07T12:07:34Z</time>
      </trkpt>
      <trkpt lat="46.20884" lon="4.59341">
        <ele>593.6</ele>
        <time>2025-09-07T12:07:35Z</time>
      </trkpt>
      <trkpt lat="46.20884" lon="4.59339">
        <ele>594</ele>
        <time>2025-09-07T12:07:36Z</time>
      </trkpt>
      <trkpt lat="46.20884" lon="4.59337">
        <ele>594</ele>
        <time>2025-09-07T12:07:37Z</time>
      </trkpt>
      <trkpt lat="46.20885" lon="4.59336">
        <ele>594.2</ele>
        <time>2025-09-07T12:07:38Z</time>
      </trkpt>
      <trkpt lat="46.20885" lon="4.59335">
        <ele>594.2</ele>
        <time>2025-09-07T12:07:39Z</time>
      </trkpt>
      <trkpt lat="46.20885" lon="4.59334">
        <ele>594.4</ele>
        <time>2025-09-07T12:07:40Z</time>
      </trkpt>
      <trkpt lat="46.20886" lon="4.59333">
        <ele>594.8</ele>
        <time>2025-09-07T12:07:41Z</time>
      </trkpt>
      <trkpt lat="46.20886" lon="4.59332">
        <ele>595</ele>
        <time>2025-09-07T12:07:42Z</time>
      </trkpt>
      <trkpt lat="46.20886" lon="4.59331">
        <ele>595</ele>
        <time>2025-09-07T12:07:43Z</time>
      </trkpt>
      <trkpt lat="46.20886" lon="4.5933">
        <ele>595</ele>
        <time>2025-09-07T12:07:44Z</time>
      </trkpt>
      <trkpt lat="46.20886" lon="4.59328">
        <ele>595.4</ele>
        <time>2025-09-07T12:07:45Z</time>
      </trkpt>
      <trkpt lat="46.20887" lon="4.59326">
        <ele>595.4</ele>
        <time>2025-09-07T12:07:46Z</time>
      </trkpt>
      <trkpt lat="46.20887" lon="4.59325">
        <ele>595.8</ele>
        <time>2025-09-07T12:07:47Z</time>
      </trkpt>
      <trkpt lat="46.20887" lon="4.59325">
        <ele>595.8</ele>
        <time>2025-09-07T12:07:48Z</time>
      </trkpt>
      <trkpt lat="46.20887" lon="4.59324">
        <ele>595.8</ele>
        <time>2025-09-07T12:07:49Z</time>
      </trkpt>
      <trkpt lat="46.20888" lon="4.59323">
        <ele>595.8</ele>
        <time>2025-09-07T12:07:50Z</time>
      </trkpt>
      <trkpt lat="46.20888" lon="4.59322">
        <ele>596</ele>
        <time>2025-09-07T12:07:51Z</time>
      </trkpt>
      <trkpt lat="46.20889" lon="4.59321">
        <ele>596</ele>
        <time>2025-09-07T12:07:52Z</time>
      </trkpt>
      <trkpt lat="46.20889" lon="4.5932">
        <ele>596</ele>
        <time>2025-09-07T12:07:53Z</time>
      </trkpt>
      <trkpt lat="46.2089" lon="4.59318">
        <ele>596</ele>
        <time>2025-09-07T12:07:54Z</time>
      </trkpt>
      <trkpt lat="46.2089" lon="4.59317">
        <ele>596.2</ele>
        <time>2025-09-07T12:07:55Z</time>
      </trkpt>
      <trkpt lat="46.2089" lon="4.59317">
        <ele>596.6</ele>
        <time>2025-09-07T12:07:56Z</time>
      </trkpt>
      <trkpt lat="46.20891" lon="4.59316">
        <ele>596.6</ele>
        <time>2025-09-07T12:07:57Z</time>
      </trkpt>
      <trkpt lat="46.20891" lon="4.59315">
        <ele>596.6</ele>
        <time>2025-09-07T12:07:58Z</time>
      </trkpt>
      <trkpt lat="46.20892" lon="4.59314">
        <ele>596.6</ele>
        <time>2025-09-07T12:07:59Z</time>
      </trkpt>
      <trkpt lat="46.20893" lon="4.59312">
        <ele>597</ele>
        <time>2025-09-07T12:08:00Z</time>
      </trkpt>
      <trkpt lat="46.20893" lon="4.59311">
        <ele>597.2</ele>
        <time>2025-09-07T12:08:01Z</time>
      </trkpt>
      <trkpt lat="46.20894" lon="4.5931">
        <ele>597.4</ele>
        <time>2025-09-07T12:08:02Z</time>
      </trkpt>
      <trkpt lat="46.20895" lon="4.59309">
        <ele>597.4</ele>
        <time>2025-09-07T12:08:03Z</time>
      </trkpt>
      <trkpt lat="46.20895" lon="4.59308">
        <ele>597.6</ele>
        <time>2025-09-07T12:08:04Z</time>
      </trkpt>
      <trkpt lat="46.20896" lon="4.59307">
        <ele>597.6</ele>
        <time>2025-09-07T12:08:05Z</time>
      </trkpt>
      <trkpt lat="46.20897" lon="4.59306">
        <ele>597.6</ele>
        <time>2025-09-07T12:08:06Z</time>
      </trkpt>
      <trkpt lat="46.20897" lon="4.59305">
        <ele>597.6</ele>
        <time>2025-09-07T12:08:07Z</time>
      </trkpt>
      <trkpt lat="46.20897" lon="4.59305">
        <ele>597.6</ele>
        <time>2025-09-07T12:08:08Z</time>
      </trkpt>
      <trkpt lat="46.20897" lon="4.59305">
        <ele>597.6</ele>
        <time>2025-09-07T12:08:09Z</time>
      </trkpt>
      <trkpt lat="46.20899" lon="4.59304">
        <ele>597.6</ele>
        <time>2025-09-07T12:08:27Z</time>
      </trkpt>
      <trkpt lat="46.209" lon="4.59302">
        <ele>597.6</ele>
        <time>2025-09-07T12:08:28Z</time>
      </trkpt>
      <trkpt lat="46.20901" lon="4.593">
        <ele>597.4</ele>
        <time>2025-09-07T12:08:29Z</time>
      </trkpt>
      <trkpt lat="46.20902" lon="4.59297">
        <ele>597.6</ele>
        <time>2025-09-07T12:08:30Z</time>
      </trkpt>
      <trkpt lat="46.20903" lon="4.59294">
        <ele>597.6</ele>
        <time>2025-09-07T12:08:31Z</time>
      </trkpt>
      <trkpt lat="46.20904" lon="4.59293">
        <ele>597.6</ele>
        <time>2025-09-07T12:08:32Z</time>
      </trkpt>
      <trkpt lat="46.20905" lon="4.59291">
        <ele>597.8</ele>
        <time>2025-09-07T12:08:33Z</time>
      </trkpt>
      <trkpt lat="46.20905" lon="4.5929">
        <ele>597.8</ele>
        <time>2025-09-07T12:08:34Z</time>
      </trkpt>
      <trkpt lat="46.20905" lon="4.59288">
        <ele>597.8</ele>
        <time>2025-09-07T12:08:35Z</time>
      </trkpt>
      <trkpt lat="46.20906" lon="4.59287">
        <ele>597.4</ele>
        <time>2025-09-07T12:08:36Z</time>
      </trkpt>
      <trkpt lat="46.20906" lon="4.59285">
        <ele>597.8</ele>
        <time>2025-09-07T12:08:37Z</time>
      </trkpt>
      <trkpt lat="46.20906" lon="4.59284">
        <ele>598.2</ele>
        <time>2025-09-07T12:08:38Z</time>
      </trkpt>
      <trkpt lat="46.20907" lon="4.59281">
        <ele>598.4</ele>
        <time>2025-09-07T12:08:39Z</time>
      </trkpt>
      <trkpt lat="46.20908" lon="4.59279">
        <ele>598.8</ele>
        <time>2025-09-07T12:08:40Z</time>
      </trkpt>
      <trkpt lat="46.20908" lon="4.59276">
        <ele>598.8</ele>
        <time>2025-09-07T12:08:41Z</time>
      </trkpt>
      <trkpt lat="46.20909" lon="4.59274">
        <ele>599.2</ele>
        <time>2025-09-07T12:08:42Z</time>
      </trkpt>
      <trkpt lat="46.2091" lon="4.59272">
        <ele>599.2</ele>
        <time>2025-09-07T12:08:43Z</time>
      </trkpt>
      <trkpt lat="46.20911" lon="4.59271">
        <ele>599.2</ele>
        <time>2025-09-07T12:08:44Z</time>
      </trkpt>
      <trkpt lat="46.20911" lon="4.59268">
        <ele>600</ele>
        <time>2025-09-07T12:08:45Z</time>
      </trkpt>
      <trkpt lat="46.20912" lon="4.59266">
        <ele>600</ele>
        <time>2025-09-07T12:08:46Z</time>
      </trkpt>
      <trkpt lat="46.20912" lon="4.59263">
        <ele>599.8</ele>
        <time>2025-09-07T12:08:47Z</time>
      </trkpt>
      <trkpt lat="46.20913" lon="4.59261">
        <ele>600.2</ele>
        <time>2025-09-07T12:08:48Z</time>
      </trkpt>
      <trkpt lat="46.20914" lon="4.59259">
        <ele>600.2</ele>
        <time>2025-09-07T12:08:49Z</time>
      </trkpt>
      <trkpt lat="46.20915" lon="4.59257">
        <ele>600.4</ele>
        <time>2025-09-07T12:08:50Z</time>
      </trkpt>
      <trkpt lat="46.20915" lon="4.59255">
        <ele>600.4</ele>
        <time>2025-09-07T12:08:51Z</time>
      </trkpt>
      <trkpt lat="46.20916" lon="4.59252">
        <ele>600.8</ele>
        <time>2025-09-07T12:08:52Z</time>
      </trkpt>
      <trkpt lat="46.20917" lon="4.5925">
        <ele>600.8</ele>
        <time>2025-09-07T12:08:53Z</time>
      </trkpt>
      <trkpt lat="46.20918" lon="4.59249">
        <ele>601.2</ele>
        <time>2025-09-07T12:08:54Z</time>
      </trkpt>
      <trkpt lat="46.20919" lon="4.59247">
        <ele>601.2</ele>
        <time>2025-09-07T12:08:55Z</time>
      </trkpt>
      <trkpt lat="46.20919" lon="4.59245">
        <ele>601.2</ele>
        <time>2025-09-07T12:08:56Z</time>
      </trkpt>
      <trkpt lat="46.2092" lon="4.59241">
        <ele>601</ele>
        <time>2025-09-07T12:08:57Z</time>
      </trkpt>
      <trkpt lat="46.2092" lon="4.59238">
        <ele>601</ele>
        <time>2025-09-07T12:08:58Z</time>
      </trkpt>
      <trkpt lat="46.20921" lon="4.59236">
        <ele>601.2</ele>
        <time>2025-09-07T12:08:59Z</time>
      </trkpt>
      <trkpt lat="46.20921" lon="4.59234">
        <ele>601.2</ele>
        <time>2025-09-07T12:09:00Z</time>
      </trkpt>
      <trkpt lat="46.20922" lon="4.59232">
        <ele>601.6</ele>
        <time>2025-09-07T12:09:01Z</time>
      </trkpt>
      <trkpt lat="46.20923" lon="4.5923">
        <ele>601.8</ele>
        <time>2025-09-07T12:09:02Z</time>
      </trkpt>
      <trkpt lat="46.20924" lon="4.59228">
        <ele>602.2</ele>
        <time>2025-09-07T12:09:03Z</time>
      </trkpt>
      <trkpt lat="46.20924" lon="4.59227">
        <ele>602.2</ele>
        <time>2025-09-07T12:09:04Z</time>
      </trkpt>
      <trkpt lat="46.20925" lon="4.59225">
        <ele>602.8</ele>
        <time>2025-09-07T12:09:05Z</time>
      </trkpt>
      <trkpt lat="46.20926" lon="4.59222">
        <ele>602.8</ele>
        <time>2025-09-07T12:09:06Z</time>
      </trkpt>
      <trkpt lat="46.20926" lon="4.5922">
        <ele>602.8</ele>
        <time>2025-09-07T12:09:07Z</time>
      </trkpt>
      <trkpt lat="46.20927" lon="4.59218">
        <ele>603</ele>
        <time>2025-09-07T12:09:08Z</time>
      </trkpt>
      <trkpt lat="46.20929" lon="4.59216">
        <ele>603</ele>
        <time>2025-09-07T12:09:09Z</time>
      </trkpt>
      <trkpt lat="46.2093" lon="4.59214">
        <ele>603.2</ele>
        <time>2025-09-07T12:09:10Z</time>
      </trkpt>
      <trkpt lat="46.20931" lon="4.59212">
        <ele>603.2</ele>
        <time>2025-09-07T12:09:11Z</time>
      </trkpt>
      <trkpt lat="46.20932" lon="4.59209">
        <ele>603.2</ele>
        <time>2025-09-07T12:09:12Z</time>
      </trkpt>
      <trkpt lat="46.20932" lon="4.59207">
        <ele>603.6</ele>
        <time>2025-09-07T12:09:13Z</time>
      </trkpt>
      <trkpt lat="46.20933" lon="4.59204">
        <ele>603.6</ele>
        <time>2025-09-07T12:09:14Z</time>
      </trkpt>
      <trkpt lat="46.20933" lon="4.59202">
        <ele>603.2</ele>
        <time>2025-09-07T12:09:15Z</time>
      </trkpt>
      <trkpt lat="46.20935" lon="4.592">
        <ele>603.6</ele>
        <time>2025-09-07T12:09:16Z</time>
      </trkpt>
      <trkpt lat="46.20936" lon="4.59198">
        <ele>604</ele>
        <time>2025-09-07T12:09:17Z</time>
      </trkpt>
      <trkpt lat="46.20936" lon="4.59196">
        <ele>604.4</ele>
        <time>2025-09-07T12:09:18Z</time>
      </trkpt>
      <trkpt lat="46.20937" lon="4.59194">
        <ele>604.4</ele>
        <time>2025-09-07T12:09:19Z</time>
      </trkpt>
      <trkpt lat="46.20938" lon="4.59192">
        <ele>604.4</ele>
        <time>2025-09-07T12:09:20Z</time>
      </trkpt>
      <trkpt lat="46.20939" lon="4.59191">
        <ele>604.6</ele>
        <time>2025-09-07T12:09:21Z</time>
      </trkpt>
      <trkpt lat="46.20939" lon="4.59189">
        <ele>605</ele>
        <time>2025-09-07T12:09:22Z</time>
      </trkpt>
      <trkpt lat="46.2094" lon="4.59187">
        <ele>605.2</ele>
        <time>2025-09-07T12:09:23Z</time>
      </trkpt>
      <trkpt lat="46.20941" lon="4.59186">
        <ele>605.2</ele>
        <time>2025-09-07T12:09:24Z</time>
      </trkpt>
      <trkpt lat="46.20941" lon="4.59184">
        <ele>605.6</ele>
        <time>2025-09-07T12:09:25Z</time>
      </trkpt>
      <trkpt lat="46.20942" lon="4.59182">
        <ele>605.6</ele>
        <time>2025-09-07T12:09:26Z</time>
      </trkpt>
      <trkpt lat="46.20942" lon="4.5918">
        <ele>605.6</ele>
        <time>2025-09-07T12:09:27Z</time>
      </trkpt>
      <trkpt lat="46.20943" lon="4.59179">
        <ele>606</ele>
        <time>2025-09-07T12:09:28Z</time>
      </trkpt>
      <trkpt lat="46.20944" lon="4.59177">
        <ele>606</ele>
        <time>2025-09-07T12:09:29Z</time>
      </trkpt>
      <trkpt lat="46.20944" lon="4.59175">
        <ele>606</ele>
        <time>2025-09-07T12:09:30Z</time>
      </trkpt>
      <trkpt lat="46.20945" lon="4.59173">
        <ele>606.2</ele>
        <time>2025-09-07T12:09:31Z</time>
      </trkpt>
      <trkpt lat="46.20945" lon="4.59172">
        <ele>606.6</ele>
        <time>2025-09-07T12:09:32Z</time>
      </trkpt>
      <trkpt lat="46.20946" lon="4.59171">
        <ele>606.6</ele>
        <time>2025-09-07T12:09:33Z</time>
      </trkpt>
      <trkpt lat="46.20946" lon="4.59169">
        <ele>606.6</ele>
        <time>2025-09-07T12:09:34Z</time>
      </trkpt>
      <trkpt lat="46.20948" lon="4.59166">
        <ele>606.8</ele>
        <time>2025-09-07T12:09:35Z</time>
      </trkpt>
      <trkpt lat="46.2095" lon="4.59163">
        <ele>606.8</ele>
        <time>2025-09-07T12:09:36Z</time>
      </trkpt>
      <trkpt lat="46.20951" lon="4.59161">
        <ele>606.8</ele>
        <time>2025-09-07T12:09:37Z</time>
      </trkpt>
      <trkpt lat="46.20952" lon="4.59159">
        <ele>606.8</ele>
        <time>2025-09-07T12:09:38Z</time>
      </trkpt>
      <trkpt lat="46.20952" lon="4.59158">
        <ele>607.2</ele>
        <time>2025-09-07T12:09:39Z</time>
      </trkpt>
      <trkpt lat="46.20952" lon="4.59157">
        <ele>607.2</ele>
        <time>2025-09-07T12:09:40Z</time>
      </trkpt>
      <trkpt lat="46.20952" lon="4.59155">
        <ele>607.2</ele>
        <time>2025-09-07T12:09:41Z</time>
      </trkpt>
      <trkpt lat="46.20953" lon="4.59153">
        <ele>607.2</ele>
        <time>2025-09-07T12:09:42Z</time>
      </trkpt>
      <trkpt lat="46.20953" lon="4.59152">
        <ele>607.6</ele>
        <time>2025-09-07T12:09:43Z</time>
      </trkpt>
      <trkpt lat="46.20954" lon="4.5915">
        <ele>607.6</ele>
        <time>2025-09-07T12:09:44Z</time>
      </trkpt>
      <trkpt lat="46.20954" lon="4.59149">
        <ele>607.8</ele>
        <time>2025-09-07T12:09:45Z</time>
      </trkpt>
      <trkpt lat="46.20955" lon="4.59148">
        <ele>607.8</ele>
        <time>2025-09-07T12:09:46Z</time>
      </trkpt>
      <trkpt lat="46.20955" lon="4.59146">
        <ele>608</ele>
        <time>2025-09-07T12:09:47Z</time>
      </trkpt>
      <trkpt lat="46.20955" lon="4.59144">
        <ele>608</ele>
        <time>2025-09-07T12:09:48Z</time>
      </trkpt>
      <trkpt lat="46.20956" lon="4.59142">
        <ele>608.4</ele>
        <time>2025-09-07T12:09:49Z</time>
      </trkpt>
      <trkpt lat="46.20956" lon="4.5914">
        <ele>608.4</ele>
        <time>2025-09-07T12:09:50Z</time>
      </trkpt>
      <trkpt lat="46.20956" lon="4.59138">
        <ele>608.8</ele>
        <time>2025-09-07T12:09:51Z</time>
      </trkpt>
      <trkpt lat="46.20957" lon="4.59137">
        <ele>608.8</ele>
        <time>2025-09-07T12:09:52Z</time>
      </trkpt>
      <trkpt lat="46.20957" lon="4.59136">
        <ele>608.8</ele>
        <time>2025-09-07T12:09:53Z</time>
      </trkpt>
      <trkpt lat="46.20958" lon="4.59134">
        <ele>608.8</ele>
        <time>2025-09-07T12:09:54Z</time>
      </trkpt>
      <trkpt lat="46.2096" lon="4.59132">
        <ele>608.8</ele>
        <time>2025-09-07T12:09:55Z</time>
      </trkpt>
      <trkpt lat="46.20961" lon="4.59129">
        <ele>608.8</ele>
        <time>2025-09-07T12:09:56Z</time>
      </trkpt>
      <trkpt lat="46.20961" lon="4.59127">
        <ele>608.8</ele>
        <time>2025-09-07T12:09:57Z</time>
      </trkpt>
      <trkpt lat="46.20962" lon="4.59125">
        <ele>608.8</ele>
        <time>2025-09-07T12:09:58Z</time>
      </trkpt>
      <trkpt lat="46.20963" lon="4.59123">
        <ele>608.8</ele>
        <time>2025-09-07T12:09:59Z</time>
      </trkpt>
      <trkpt lat="46.20964" lon="4.5912">
        <ele>608.8</ele>
        <time>2025-09-07T12:10:00Z</time>
      </trkpt>
      <trkpt lat="46.20964" lon="4.59118">
        <ele>608.8</ele>
        <time>2025-09-07T12:10:01Z</time>
      </trkpt>
      <trkpt lat="46.20965" lon="4.59114">
        <ele>608.8</ele>
        <time>2025-09-07T12:10:02Z</time>
      </trkpt>
      <trkpt lat="46.20964" lon="4.59112">
        <ele>608.8</ele>
        <time>2025-09-07T12:10:03Z</time>
      </trkpt>
      <trkpt lat="46.20964" lon="4.5911">
        <ele>609</ele>
        <time>2025-09-07T12:10:04Z</time>
      </trkpt>
      <trkpt lat="46.20964" lon="4.59107">
        <ele>609</ele>
        <time>2025-09-07T12:10:05Z</time>
      </trkpt>
      <trkpt lat="46.20964" lon="4.59105">
        <ele>609.2</ele>
        <time>2025-09-07T12:10:06Z</time>
      </trkpt>
      <trkpt lat="46.20964" lon="4.59103">
        <ele>609.4</ele>
        <time>2025-09-07T12:10:07Z</time>
      </trkpt>
      <trkpt lat="46.20964" lon="4.59101">
        <ele>609.4</ele>
        <time>2025-09-07T12:10:08Z</time>
      </trkpt>
      <trkpt lat="46.20964" lon="4.59099">
        <ele>609.4</ele>
        <time>2025-09-07T12:10:09Z</time>
      </trkpt>
      <trkpt lat="46.20964" lon="4.59098">
        <ele>609.4</ele>
        <time>2025-09-07T12:10:10Z</time>
      </trkpt>
      <trkpt lat="46.20964" lon="4.59098">
        <ele>609.4</ele>
        <time>2025-09-07T12:10:11Z</time>
      </trkpt>
      <trkpt lat="46.20964" lon="4.59093">
        <ele>609.2</ele>
        <time>2025-09-07T12:10:22Z</time>
      </trkpt>
      <trkpt lat="46.20965" lon="4.59089">
        <ele>608.8</ele>
        <time>2025-09-07T12:10:23Z</time>
      </trkpt>
      <trkpt lat="46.20966" lon="4.59085">
        <ele>608.6</ele>
        <time>2025-09-07T12:10:24Z</time>
      </trkpt>
      <trkpt lat="46.20967" lon="4.59081">
        <ele>608.4</ele>
        <time>2025-09-07T12:10:25Z</time>
      </trkpt>
      <trkpt lat="46.20968" lon="4.59078">
        <ele>608.4</ele>
        <time>2025-09-07T12:10:26Z</time>
      </trkpt>
      <trkpt lat="46.20969" lon="4.59074">
        <ele>607.4</ele>
        <time>2025-09-07T12:10:27Z</time>
      </trkpt>
      <trkpt lat="46.20969" lon="4.59071">
        <ele>607.4</ele>
        <time>2025-09-07T12:10:28Z</time>
      </trkpt>
      <trkpt lat="46.20969" lon="4.59069">
        <ele>607.4</ele>
        <time>2025-09-07T12:10:29Z</time>
      </trkpt>
      <trkpt lat="46.20969" lon="4.59068">
        <ele>607.2</ele>
        <time>2025-09-07T12:10:30Z</time>
      </trkpt>
      <trkpt lat="46.20969" lon="4.59068">
        <ele>607.2</ele>
        <time>2025-09-07T12:10:31Z</time>
      </trkpt>
      <trkpt lat="46.20969" lon="4.59067">
        <ele>607.2</ele>
        <time>2025-09-07T12:10:32Z</time>
      </trkpt>
      <trkpt lat="46.20969" lon="4.59067">
        <ele>607</ele>
        <time>2025-09-07T12:10:33Z</time>
      </trkpt>
      <trkpt lat="46.20969" lon="4.59063">
        <ele>606.8</ele>
        <time>2025-09-07T12:10:44Z</time>
      </trkpt>
      <trkpt lat="46.20969" lon="4.59061">
        <ele>606.8</ele>
        <time>2025-09-07T12:10:45Z</time>
      </trkpt>
      <trkpt lat="46.20968" lon="4.59059">
        <ele>606.8</ele>
        <time>2025-09-07T12:10:46Z</time>
      </trkpt>
      <trkpt lat="46.20968" lon="4.59056">
        <ele>606.6</ele>
        <time>2025-09-07T12:10:47Z</time>
      </trkpt>
      <trkpt lat="46.20969" lon="4.59053">
        <ele>606.4</ele>
        <time>2025-09-07T12:10:48Z</time>
      </trkpt>
      <trkpt lat="46.20969" lon="4.5905">
        <ele>606.2</ele>
        <time>2025-09-07T12:10:49Z</time>
      </trkpt>
      <trkpt lat="46.20969" lon="4.59045">
        <ele>606.2</ele>
        <time>2025-09-07T12:10:50Z</time>
      </trkpt>
      <trkpt lat="46.2097" lon="4.59041">
        <ele>606.2</ele>
        <time>2025-09-07T12:10:51Z</time>
      </trkpt>
      <trkpt lat="46.2097" lon="4.59036">
        <ele>606.4</ele>
        <time>2025-09-07T12:10:52Z</time>
      </trkpt>
      <trkpt lat="46.20971" lon="4.59032">
        <ele>606.4</ele>
        <time>2025-09-07T12:10:53Z</time>
      </trkpt>
      <trkpt lat="46.20972" lon="4.59029">
        <ele>606.4</ele>
        <time>2025-09-07T12:10:54Z</time>
      </trkpt>
      <trkpt lat="46.20973" lon="4.59027">
        <ele>606.2</ele>
        <time>2025-09-07T12:10:55Z</time>
      </trkpt>
      <trkpt lat="46.20974" lon="4.59022">
        <ele>607</ele>
        <time>2025-09-07T12:10:56Z</time>
      </trkpt>
      <trkpt lat="46.20974" lon="4.59019">
        <ele>606.8</ele>
        <time>2025-09-07T12:10:57Z</time>
      </trkpt>
      <trkpt lat="46.20975" lon="4.59015">
        <ele>606.8</ele>
        <time>2025-09-07T12:10:58Z</time>
      </trkpt>
      <trkpt lat="46.20976" lon="4.59013">
        <ele>606.6</ele>
        <time>2025-09-07T12:10:59Z</time>
      </trkpt>
      <trkpt lat="46.20977" lon="4.59011">
        <ele>606.8</ele>
        <time>2025-09-07T12:11:00Z</time>
      </trkpt>
      <trkpt lat="46.20979" lon="4.59011">
        <ele>606.8</ele>
        <time>2025-09-07T12:11:01Z</time>
      </trkpt>
      <trkpt lat="46.2098" lon="4.5901">
        <ele>606.6</ele>
        <time>2025-09-07T12:11:02Z</time>
      </trkpt>
      <trkpt lat="46.20982" lon="4.59007">
        <ele>607</ele>
        <time>2025-09-07T12:11:03Z</time>
      </trkpt>
      <trkpt lat="46.20984" lon="4.59004">
        <ele>608</ele>
        <time>2025-09-07T12:11:04Z</time>
      </trkpt>
      <trkpt lat="46.20985" lon="4.59003">
        <ele>608</ele>
        <time>2025-09-07T12:11:05Z</time>
      </trkpt>
      <trkpt lat="46.20986" lon="4.59002">
        <ele>607.6</ele>
        <time>2025-09-07T12:11:06Z</time>
      </trkpt>
      <trkpt lat="46.20987" lon="4.59001">
        <ele>607.6</ele>
        <time>2025-09-07T12:11:07Z</time>
      </trkpt>
      <trkpt lat="46.20988" lon="4.59001">
        <ele>608.6</ele>
        <time>2025-09-07T12:11:08Z</time>
      </trkpt>
      <trkpt lat="46.2099" lon="4.59">
        <ele>608.6</ele>
        <time>2025-09-07T12:11:09Z</time>
      </trkpt>
      <trkpt lat="46.20992" lon="4.58999">
        <ele>609.2</ele>
        <time>2025-09-07T12:11:10Z</time>
      </trkpt>
      <trkpt lat="46.20994" lon="4.58997">
        <ele>608.6</ele>
        <time>2025-09-07T12:11:11Z</time>
      </trkpt>
      <trkpt lat="46.20996" lon="4.58994">
        <ele>608.6</ele>
        <time>2025-09-07T12:11:12Z</time>
      </trkpt>
      <trkpt lat="46.20997" lon="4.58993">
        <ele>608.6</ele>
        <time>2025-09-07T12:11:13Z</time>
      </trkpt>
      <trkpt lat="46.20998" lon="4.58992">
        <ele>609</ele>
        <time>2025-09-07T12:11:14Z</time>
      </trkpt>
      <trkpt lat="46.20999" lon="4.58992">
        <ele>609.4</ele>
        <time>2025-09-07T12:11:15Z</time>
      </trkpt>
      <trkpt lat="46.21001" lon="4.58992">
        <ele>609.4</ele>
        <time>2025-09-07T12:11:16Z</time>
      </trkpt>
      <trkpt lat="46.21003" lon="4.58991">
        <ele>609.4</ele>
        <time>2025-09-07T12:11:17Z</time>
      </trkpt>
      <trkpt lat="46.21003" lon="4.58991">
        <ele>609.4</ele>
        <time>2025-09-07T12:11:18Z</time>
      </trkpt>
      <trkpt lat="46.21005" lon="4.5899">
        <ele>609.8</ele>
        <time>2025-09-07T12:11:19Z</time>
      </trkpt>
      <trkpt lat="46.21007" lon="4.58989">
        <ele>609.8</ele>
        <time>2025-09-07T12:11:20Z</time>
      </trkpt>
      <trkpt lat="46.21009" lon="4.58988">
        <ele>609.8</ele>
        <time>2025-09-07T12:11:21Z</time>
      </trkpt>
      <trkpt lat="46.2101" lon="4.58987">
        <ele>610</ele>
        <time>2025-09-07T12:11:22Z</time>
      </trkpt>
      <trkpt lat="46.2101" lon="4.58987">
        <ele>610</ele>
        <time>2025-09-07T12:11:23Z</time>
      </trkpt>
      <trkpt lat="46.21011" lon="4.58987">
        <ele>610.6</ele>
        <time>2025-09-07T12:11:24Z</time>
      </trkpt>
      <trkpt lat="46.21011" lon="4.58986">
        <ele>610.6</ele>
        <time>2025-09-07T12:11:25Z</time>
      </trkpt>
      <trkpt lat="46.21012" lon="4.58985">
        <ele>611</ele>
        <time>2025-09-07T12:11:26Z</time>
      </trkpt>
      <trkpt lat="46.21012" lon="4.58984">
        <ele>611</ele>
        <time>2025-09-07T12:11:27Z</time>
      </trkpt>
      <trkpt lat="46.21013" lon="4.58984">
        <ele>611.4</ele>
        <time>2025-09-07T12:11:28Z</time>
      </trkpt>
      <trkpt lat="46.21013" lon="4.58984">
        <ele>611.4</ele>
        <time>2025-09-07T12:11:29Z</time>
      </trkpt>
      <trkpt lat="46.21014" lon="4.5898">
        <ele>613.2</ele>
        <time>2025-09-07T12:11:43Z</time>
      </trkpt>
      <trkpt lat="46.21015" lon="4.58979">
        <ele>613.2</ele>
        <time>2025-09-07T12:11:44Z</time>
      </trkpt>
      <trkpt lat="46.21016" lon="4.58978">
        <ele>613.4</ele>
        <time>2025-09-07T12:11:45Z</time>
      </trkpt>
      <trkpt lat="46.21017" lon="4.58977">
        <ele>613.6</ele>
        <time>2025-09-07T12:11:46Z</time>
      </trkpt>
      <trkpt lat="46.21018" lon="4.58976">
        <ele>613.6</ele>
        <time>2025-09-07T12:11:47Z</time>
      </trkpt>
      <trkpt lat="46.21019" lon="4.58975">
        <ele>613.6</ele>
        <time>2025-09-07T12:11:48Z</time>
      </trkpt>
      <trkpt lat="46.2102" lon="4.58974">
        <ele>614</ele>
        <time>2025-09-07T12:11:49Z</time>
      </trkpt>
      <trkpt lat="46.21021" lon="4.58973">
        <ele>614.2</ele>
        <time>2025-09-07T12:11:50Z</time>
      </trkpt>
      <trkpt lat="46.21022" lon="4.58972">
        <ele>614.2</ele>
        <time>2025-09-07T12:11:51Z</time>
      </trkpt>
      <trkpt lat="46.21023" lon="4.58971">
        <ele>614.2</ele>
        <time>2025-09-07T12:11:52Z</time>
      </trkpt>
      <trkpt lat="46.21024" lon="4.5897">
        <ele>614.2</ele>
        <time>2025-09-07T12:11:53Z</time>
      </trkpt>
      <trkpt lat="46.21024" lon="4.5897">
        <ele>614.2</ele>
        <time>2025-09-07T12:11:54Z</time>
      </trkpt>
      <trkpt lat="46.21026" lon="4.58969">
        <ele>614.2</ele>
        <time>2025-09-07T12:11:55Z</time>
      </trkpt>
      <trkpt lat="46.21029" lon="4.58968">
        <ele>614.8</ele>
        <time>2025-09-07T12:12:04Z</time>
      </trkpt>
      <trkpt lat="46.21031" lon="4.58968">
        <ele>614.4</ele>
        <time>2025-09-07T12:12:05Z</time>
      </trkpt>
      <trkpt lat="46.21032" lon="4.58968">
        <ele>614.4</ele>
        <time>2025-09-07T12:12:06Z</time>
      </trkpt>
      <trkpt lat="46.21033" lon="4.58969">
        <ele>614</ele>
        <time>2025-09-07T12:12:07Z</time>
      </trkpt>
      <trkpt lat="46.21034" lon="4.5897">
        <ele>614</ele>
        <time>2025-09-07T12:12:08Z</time>
      </trkpt>
      <trkpt lat="46.21035" lon="4.58972">
        <ele>614</ele>
        <time>2025-09-07T12:12:09Z</time>
      </trkpt>
      <trkpt lat="46.21037" lon="4.58973">
        <ele>614</ele>
        <time>2025-09-07T12:12:10Z</time>
      </trkpt>
      <trkpt lat="46.21039" lon="4.58974">
        <ele>613.4</ele>
        <time>2025-09-07T12:12:11Z</time>
      </trkpt>
      <trkpt lat="46.21041" lon="4.58976">
        <ele>613.4</ele>
        <time>2025-09-07T12:12:12Z</time>
      </trkpt>
      <trkpt lat="46.21043" lon="4.58977">
        <ele>613.4</ele>
        <time>2025-09-07T12:12:13Z</time>
      </trkpt>
      <trkpt lat="46.21045" lon="4.58979">
        <ele>613.4</ele>
        <time>2025-09-07T12:12:14Z</time>
      </trkpt>
      <trkpt lat="46.21048" lon="4.58982">
        <ele>614.2</ele>
        <time>2025-09-07T12:12:15Z</time>
      </trkpt>
      <trkpt lat="46.21051" lon="4.58984">
        <ele>614</ele>
        <time>2025-09-07T12:12:16Z</time>
      </trkpt>
      <trkpt lat="46.21053" lon="4.58986">
        <ele>613.6</ele>
        <time>2025-09-07T12:12:17Z</time>
      </trkpt>
      <trkpt lat="46.21056" lon="4.58989">
        <ele>613.2</ele>
        <time>2025-09-07T12:12:18Z</time>
      </trkpt>
      <trkpt lat="46.21058" lon="4.58992">
        <ele>612.6</ele>
        <time>2025-09-07T12:12:19Z</time>
      </trkpt>
      <trkpt lat="46.2106" lon="4.58995">
        <ele>612.4</ele>
        <time>2025-09-07T12:12:20Z</time>
      </trkpt>
      <trkpt lat="46.21062" lon="4.58997">
        <ele>612.4</ele>
        <time>2025-09-07T12:12:21Z</time>
      </trkpt>
      <trkpt lat="46.21063" lon="4.58998">
        <ele>612.4</ele>
        <time>2025-09-07T12:12:22Z</time>
      </trkpt>
      <trkpt lat="46.21064" lon="4.58999">
        <ele>612.4</ele>
        <time>2025-09-07T12:12:23Z</time>
      </trkpt>
      <trkpt lat="46.21065" lon="4.59001">
        <ele>612.4</ele>
        <time>2025-09-07T12:12:24Z</time>
      </trkpt>
      <trkpt lat="46.21066" lon="4.59003">
        <ele>612.4</ele>
        <time>2025-09-07T12:12:25Z</time>
      </trkpt>
      <trkpt lat="46.21068" lon="4.59005">
        <ele>612.4</ele>
        <time>2025-09-07T12:12:26Z</time>
      </trkpt>
      <trkpt lat="46.2107" lon="4.59007">
        <ele>612.4</ele>
        <time>2025-09-07T12:12:27Z</time>
      </trkpt>
      <trkpt lat="46.21072" lon="4.59008">
        <ele>612.4</ele>
        <time>2025-09-07T12:12:28Z</time>
      </trkpt>
      <trkpt lat="46.21073" lon="4.59009">
        <ele>612.6</ele>
        <time>2025-09-07T12:12:29Z</time>
      </trkpt>
      <trkpt lat="46.21075" lon="4.5901">
        <ele>612.8</ele>
        <time>2025-09-07T12:12:30Z</time>
      </trkpt>
      <trkpt lat="46.21077" lon="4.59012">
        <ele>612.8</ele>
        <time>2025-09-07T12:12:31Z</time>
      </trkpt>
      <trkpt lat="46.21079" lon="4.59014">
        <ele>613.2</ele>
        <time>2025-09-07T12:12:32Z</time>
      </trkpt>
      <trkpt lat="46.2108" lon="4.59015">
        <ele>613.2</ele>
        <time>2025-09-07T12:12:33Z</time>
      </trkpt>
      <trkpt lat="46.21081" lon="4.59015">
        <ele>613.2</ele>
        <time>2025-09-07T12:12:34Z</time>
      </trkpt>
      <trkpt lat="46.21082" lon="4.59016">
        <ele>613.2</ele>
        <time>2025-09-07T12:12:35Z</time>
      </trkpt>
      <trkpt lat="46.21084" lon="4.59018">
        <ele>613.6</ele>
        <time>2025-09-07T12:12:36Z</time>
      </trkpt>
      <trkpt lat="46.21086" lon="4.59021">
        <ele>613.6</ele>
        <time>2025-09-07T12:12:37Z</time>
      </trkpt>
      <trkpt lat="46.21088" lon="4.59022">
        <ele>613.6</ele>
        <time>2025-09-07T12:12:38Z</time>
      </trkpt>
      <trkpt lat="46.21089" lon="4.59024">
        <ele>613.8</ele>
        <time>2025-09-07T12:12:39Z</time>
      </trkpt>
      <trkpt lat="46.21091" lon="4.59026">
        <ele>613.8</ele>
        <time>2025-09-07T12:12:40Z</time>
      </trkpt>
      <trkpt lat="46.21092" lon="4.59029">
        <ele>613.8</ele>
        <time>2025-09-07T12:12:41Z</time>
      </trkpt>
      <trkpt lat="46.21093" lon="4.59031">
        <ele>613.8</ele>
        <time>2025-09-07T12:12:42Z</time>
      </trkpt>
      <trkpt lat="46.21094" lon="4.59033">
        <ele>613.8</ele>
        <time>2025-09-07T12:12:43Z</time>
      </trkpt>
      <trkpt lat="46.21095" lon="4.59035">
        <ele>614.2</ele>
        <time>2025-09-07T12:12:44Z</time>
      </trkpt>
      <trkpt lat="46.21096" lon="4.59037">
        <ele>614.2</ele>
        <time>2025-09-07T12:12:45Z</time>
      </trkpt>
      <trkpt lat="46.21097" lon="4.59039">
        <ele>614.2</ele>
        <time>2025-09-07T12:12:46Z</time>
      </trkpt>
      <trkpt lat="46.21098" lon="4.59041">
        <ele>614.6</ele>
        <time>2025-09-07T12:12:47Z</time>
      </trkpt>
      <trkpt lat="46.211" lon="4.59042">
        <ele>614.6</ele>
        <time>2025-09-07T12:12:48Z</time>
      </trkpt>
      <trkpt lat="46.21101" lon="4.59044">
        <ele>615</ele>
        <time>2025-09-07T12:12:49Z</time>
      </trkpt>
      <trkpt lat="46.21102" lon="4.59046">
        <ele>615.2</ele>
        <time>2025-09-07T12:12:50Z</time>
      </trkpt>
      <trkpt lat="46.21104" lon="4.59048">
        <ele>615.2</ele>
        <time>2025-09-07T12:12:51Z</time>
      </trkpt>
      <trkpt lat="46.21105" lon="4.5905">
        <ele>615.6</ele>
        <time>2025-09-07T12:12:52Z</time>
      </trkpt>
      <trkpt lat="46.21106" lon="4.59051">
        <ele>615.8</ele>
        <time>2025-09-07T12:12:53Z</time>
      </trkpt>
      <trkpt lat="46.21107" lon="4.59053">
        <ele>616</ele>
        <time>2025-09-07T12:12:54Z</time>
      </trkpt>
      <trkpt lat="46.21108" lon="4.59054">
        <ele>616</ele>
        <time>2025-09-07T12:12:55Z</time>
      </trkpt>
      <trkpt lat="46.21109" lon="4.59056">
        <ele>616.4</ele>
        <time>2025-09-07T12:12:56Z</time>
      </trkpt>
      <trkpt lat="46.2111" lon="4.59057">
        <ele>616.6</ele>
        <time>2025-09-07T12:12:57Z</time>
      </trkpt>
      <trkpt lat="46.21111" lon="4.59058">
        <ele>616.8</ele>
        <time>2025-09-07T12:12:58Z</time>
      </trkpt>
      <trkpt lat="46.21111" lon="4.5906">
        <ele>617</ele>
        <time>2025-09-07T12:12:59Z</time>
      </trkpt>
      <trkpt lat="46.21113" lon="4.59062">
        <ele>617</ele>
        <time>2025-09-07T12:13:00Z</time>
      </trkpt>
      <trkpt lat="46.21114" lon="4.59064">
        <ele>617</ele>
        <time>2025-09-07T12:13:01Z</time>
      </trkpt>
      <trkpt lat="46.21114" lon="4.59065">
        <ele>617</ele>
        <time>2025-09-07T12:13:02Z</time>
      </trkpt>
      <trkpt lat="46.21113" lon="4.59065">
        <ele>617</ele>
        <time>2025-09-07T12:13:03Z</time>
      </trkpt>
      <trkpt lat="46.21115" lon="4.59069">
        <ele>617.2</ele>
        <time>2025-09-07T12:13:21Z</time>
      </trkpt>
      <trkpt lat="46.21115" lon="4.5907">
        <ele>617.2</ele>
        <time>2025-09-07T12:13:22Z</time>
      </trkpt>
      <trkpt lat="46.21115" lon="4.59071">
        <ele>617</ele>
        <time>2025-09-07T12:13:23Z</time>
      </trkpt>
      <trkpt lat="46.21116" lon="4.59071">
        <ele>617</ele>
        <time>2025-09-07T12:13:24Z</time>
      </trkpt>
      <trkpt lat="46.21117" lon="4.59071">
        <ele>617</ele>
        <time>2025-09-07T12:13:25Z</time>
      </trkpt>
      <trkpt lat="46.21118" lon="4.59072">
        <ele>617</ele>
        <time>2025-09-07T12:13:26Z</time>
      </trkpt>
      <trkpt lat="46.21119" lon="4.59073">
        <ele>617</ele>
        <time>2025-09-07T12:13:27Z</time>
      </trkpt>
      <trkpt lat="46.2112" lon="4.59074">
        <ele>617.2</ele>
        <time>2025-09-07T12:13:28Z</time>
      </trkpt>
      <trkpt lat="46.21121" lon="4.59074">
        <ele>617.2</ele>
        <time>2025-09-07T12:13:29Z</time>
      </trkpt>
      <trkpt lat="46.21122" lon="4.59075">
        <ele>617.6</ele>
        <time>2025-09-07T12:13:30Z</time>
      </trkpt>
      <trkpt lat="46.21122" lon="4.59076">
        <ele>617.6</ele>
        <time>2025-09-07T12:13:31Z</time>
      </trkpt>
      <trkpt lat="46.21123" lon="4.59077">
        <ele>617.6</ele>
        <time>2025-09-07T12:13:32Z</time>
      </trkpt>
      <trkpt lat="46.21124" lon="4.59079">
        <ele>617.8</ele>
        <time>2025-09-07T12:13:33Z</time>
      </trkpt>
      <trkpt lat="46.21125" lon="4.5908">
        <ele>617.8</ele>
        <time>2025-09-07T12:13:34Z</time>
      </trkpt>
      <trkpt lat="46.21126" lon="4.59081">
        <ele>617.8</ele>
        <time>2025-09-07T12:13:35Z</time>
      </trkpt>
      <trkpt lat="46.21127" lon="4.59083">
        <ele>618</ele>
        <time>2025-09-07T12:13:36Z</time>
      </trkpt>
      <trkpt lat="46.21128" lon="4.59084">
        <ele>618</ele>
        <time>2025-09-07T12:13:37Z</time>
      </trkpt>
      <trkpt lat="46.21128" lon="4.59085">
        <ele>618</ele>
        <time>2025-09-07T12:13:38Z</time>
      </trkpt>
      <trkpt lat="46.21129" lon="4.59086">
        <ele>618.2</ele>
        <time>2025-09-07T12:13:39Z</time>
      </trkpt>
      <trkpt lat="46.2113" lon="4.59087">
        <ele>618.2</ele>
        <time>2025-09-07T12:13:40Z</time>
      </trkpt>
      <trkpt lat="46.21131" lon="4.59088">
        <ele>618.2</ele>
        <time>2025-09-07T12:13:41Z</time>
      </trkpt>
      <trkpt lat="46.21132" lon="4.59089">
        <ele>618.6</ele>
        <time>2025-09-07T12:13:42Z</time>
      </trkpt>
      <trkpt lat="46.21133" lon="4.59091">
        <ele>619</ele>
        <time>2025-09-07T12:13:43Z</time>
      </trkpt>
      <trkpt lat="46.21134" lon="4.59091">
        <ele>619.2</ele>
        <time>2025-09-07T12:13:44Z</time>
      </trkpt>
      <trkpt lat="46.21135" lon="4.59092">
        <ele>619</ele>
        <time>2025-09-07T12:13:45Z</time>
      </trkpt>
      <trkpt lat="46.21136" lon="4.59093">
        <ele>619</ele>
        <time>2025-09-07T12:13:46Z</time>
      </trkpt>
      <trkpt lat="46.21137" lon="4.59093">
        <ele>619.6</ele>
        <time>2025-09-07T12:13:47Z</time>
      </trkpt>
      <trkpt lat="46.21139" lon="4.59094">
        <ele>619.6</ele>
        <time>2025-09-07T12:13:48Z</time>
      </trkpt>
      <trkpt lat="46.2114" lon="4.59095">
        <ele>619.6</ele>
        <time>2025-09-07T12:13:49Z</time>
      </trkpt>
      <trkpt lat="46.21142" lon="4.59096">
        <ele>619.8</ele>
        <time>2025-09-07T12:13:50Z</time>
      </trkpt>
      <trkpt lat="46.21142" lon="4.59098">
        <ele>619.8</ele>
        <time>2025-09-07T12:13:51Z</time>
      </trkpt>
      <trkpt lat="46.21143" lon="4.59099">
        <ele>620</ele>
        <time>2025-09-07T12:13:52Z</time>
      </trkpt>
      <trkpt lat="46.21144" lon="4.591">
        <ele>620.2</ele>
        <time>2025-09-07T12:13:53Z</time>
      </trkpt>
      <trkpt lat="46.21145" lon="4.591">
        <ele>620.2</ele>
        <time>2025-09-07T12:13:54Z</time>
      </trkpt>
      <trkpt lat="46.21146" lon="4.59101">
        <ele>620.6</ele>
        <time>2025-09-07T12:13:55Z</time>
      </trkpt>
      <trkpt lat="46.21147" lon="4.59101">
        <ele>620.6</ele>
        <time>2025-09-07T12:13:56Z</time>
      </trkpt>
      <trkpt lat="46.21148" lon="4.59101">
        <ele>621</ele>
        <time>2025-09-07T12:13:57Z</time>
      </trkpt>
      <trkpt lat="46.21148" lon="4.59101">
        <ele>621</ele>
        <time>2025-09-07T12:13:58Z</time>
      </trkpt>
      <trkpt lat="46.21149" lon="4.59101">
        <ele>621.2</ele>
        <time>2025-09-07T12:13:59Z</time>
      </trkpt>
      <trkpt lat="46.21151" lon="4.59101">
        <ele>621.2</ele>
        <time>2025-09-07T12:14:00Z</time>
      </trkpt>
      <trkpt lat="46.21152" lon="4.59101">
        <ele>621.4</ele>
        <time>2025-09-07T12:14:01Z</time>
      </trkpt>
      <trkpt lat="46.21153" lon="4.59101">
        <ele>621.4</ele>
        <time>2025-09-07T12:14:02Z</time>
      </trkpt>
      <trkpt lat="46.21153" lon="4.59101">
        <ele>622</ele>
        <time>2025-09-07T12:14:03Z</time>
      </trkpt>
      <trkpt lat="46.21154" lon="4.591">
        <ele>622</ele>
        <time>2025-09-07T12:14:04Z</time>
      </trkpt>
      <trkpt lat="46.21155" lon="4.591">
        <ele>622</ele>
        <time>2025-09-07T12:14:05Z</time>
      </trkpt>
      <trkpt lat="46.21156" lon="4.59099">
        <ele>622.2</ele>
        <time>2025-09-07T12:14:06Z</time>
      </trkpt>
      <trkpt lat="46.21157" lon="4.59099">
        <ele>622.2</ele>
        <time>2025-09-07T12:14:07Z</time>
      </trkpt>
      <trkpt lat="46.21158" lon="4.59099">
        <ele>622.6</ele>
        <time>2025-09-07T12:14:08Z</time>
      </trkpt>
      <trkpt lat="46.21158" lon="4.59099">
        <ele>622.6</ele>
        <time>2025-09-07T12:14:09Z</time>
      </trkpt>
      <trkpt lat="46.2116" lon="4.591">
        <ele>622.6</ele>
        <time>2025-09-07T12:14:10Z</time>
      </trkpt>
      <trkpt lat="46.21161" lon="4.591">
        <ele>622.6</ele>
        <time>2025-09-07T12:14:11Z</time>
      </trkpt>
      <trkpt lat="46.21163" lon="4.591">
        <ele>622.8</ele>
        <time>2025-09-07T12:14:12Z</time>
      </trkpt>
      <trkpt lat="46.21164" lon="4.59101">
        <ele>622.8</ele>
        <time>2025-09-07T12:14:13Z</time>
      </trkpt>
      <trkpt lat="46.21165" lon="4.59101">
        <ele>623.2</ele>
        <time>2025-09-07T12:14:14Z</time>
      </trkpt>
      <trkpt lat="46.21165" lon="4.59101">
        <ele>623.4</ele>
        <time>2025-09-07T12:14:15Z</time>
      </trkpt>
      <trkpt lat="46.21165" lon="4.59101">
        <ele>623.4</ele>
        <time>2025-09-07T12:14:16Z</time>
      </trkpt>
      <trkpt lat="46.21165" lon="4.59101">
        <ele>623.6</ele>
        <time>2025-09-07T12:14:17Z</time>
      </trkpt>
      <trkpt lat="46.21169" lon="4.59102">
        <ele>623.8</ele>
        <time>2025-09-07T12:14:19Z</time>
      </trkpt>
      <trkpt lat="46.21171" lon="4.59102">
        <ele>623.8</ele>
        <time>2025-09-07T12:14:20Z</time>
      </trkpt>
      <trkpt lat="46.21172" lon="4.59102">
        <ele>624</ele>
        <time>2025-09-07T12:14:21Z</time>
      </trkpt>
      <trkpt lat="46.21173" lon="4.59102">
        <ele>624</ele>
        <time>2025-09-07T12:14:22Z</time>
      </trkpt>
      <trkpt lat="46.21174" lon="4.59102">
        <ele>624.4</ele>
        <time>2025-09-07T12:14:23Z</time>
      </trkpt>
      <trkpt lat="46.21175" lon="4.59102">
        <ele>624.6</ele>
        <time>2025-09-07T12:14:24Z</time>
      </trkpt>
      <trkpt lat="46.21176" lon="4.59102">
        <ele>624.6</ele>
        <time>2025-09-07T12:14:25Z</time>
      </trkpt>
      <trkpt lat="46.21177" lon="4.59101">
        <ele>624.6</ele>
        <time>2025-09-07T12:14:26Z</time>
      </trkpt>
      <trkpt lat="46.21178" lon="4.59101">
        <ele>625</ele>
        <time>2025-09-07T12:14:27Z</time>
      </trkpt>
      <trkpt lat="46.21179" lon="4.59101">
        <ele>625.2</ele>
        <time>2025-09-07T12:14:28Z</time>
      </trkpt>
      <trkpt lat="46.2118" lon="4.59101">
        <ele>625.2</ele>
        <time>2025-09-07T12:14:29Z</time>
      </trkpt>
      <trkpt lat="46.21181" lon="4.591">
        <ele>625.6</ele>
        <time>2025-09-07T12:14:30Z</time>
      </trkpt>
      <trkpt lat="46.21182" lon="4.59099">
        <ele>626</ele>
        <time>2025-09-07T12:14:31Z</time>
      </trkpt>
      <trkpt lat="46.21182" lon="4.59099">
        <ele>626</ele>
        <time>2025-09-07T12:14:32Z</time>
      </trkpt>
      <trkpt lat="46.21182" lon="4.59098">
        <ele>626</ele>
        <time>2025-09-07T12:14:33Z</time>
      </trkpt>
      <trkpt lat="46.21182" lon="4.59097">
        <ele>626</ele>
        <time>2025-09-07T12:14:34Z</time>
      </trkpt>
      <trkpt lat="46.21182" lon="4.59098">
        <ele>626</ele>
        <time>2025-09-07T12:14:35Z</time>
      </trkpt>
      <trkpt lat="46.21181" lon="4.59098">
        <ele>626</ele>
        <time>2025-09-07T12:14:36Z</time>
      </trkpt>
      <trkpt lat="46.21181" lon="4.59096">
        <ele>625.8</ele>
        <time>2025-09-07T12:15:10Z</time>
      </trkpt>
      <trkpt lat="46.21181" lon="4.59096">
        <ele>625.8</ele>
        <time>2025-09-07T12:15:11Z</time>
      </trkpt>
      <trkpt lat="46.21181" lon="4.59096">
        <ele>625.4</ele>
        <time>2025-09-07T12:15:12Z</time>
      </trkpt>
      <trkpt lat="46.21187" lon="4.59096">
        <ele>626.6</ele>
        <time>2025-09-07T12:17:14Z</time>
      </trkpt>
      <trkpt lat="46.21187" lon="4.59096">
        <ele>625.4</ele>
        <time>2025-09-07T12:17:15Z</time>
      </trkpt>
      <trkpt lat="46.21186" lon="4.59094">
        <ele>626.2</ele>
        <time>2025-09-07T12:17:34Z</time>
      </trkpt>
      <trkpt lat="46.21187" lon="4.59092">
        <ele>626.2</ele>
        <time>2025-09-07T12:17:35Z</time>
      </trkpt>
      <trkpt lat="46.21187" lon="4.5909">
        <ele>626</ele>
        <time>2025-09-07T12:17:36Z</time>
      </trkpt>
      <trkpt lat="46.21187" lon="4.59088">
        <ele>626</ele>
        <time>2025-09-07T12:17:37Z</time>
      </trkpt>
      <trkpt lat="46.21188" lon="4.59087">
        <ele>626.4</ele>
        <time>2025-09-07T12:17:38Z</time>
      </trkpt>
      <trkpt lat="46.21188" lon="4.59085">
        <ele>626.4</ele>
        <time>2025-09-07T12:17:39Z</time>
      </trkpt>
      <trkpt lat="46.21188" lon="4.59084">
        <ele>626.4</ele>
        <time>2025-09-07T12:17:40Z</time>
      </trkpt>
      <trkpt lat="46.21188" lon="4.59084">
        <ele>626.4</ele>
        <time>2025-09-07T12:17:41Z</time>
      </trkpt>
      <trkpt lat="46.21188" lon="4.59085">
        <ele>626.2</ele>
        <time>2025-09-07T12:17:45Z</time>
      </trkpt>
      <trkpt lat="46.21189" lon="4.59085">
        <ele>626.2</ele>
        <time>2025-09-07T12:17:46Z</time>
      </trkpt>
      <trkpt lat="46.21189" lon="4.59085">
        <ele>626.2</ele>
        <time>2025-09-07T12:17:47Z</time>
      </trkpt>
      <trkpt lat="46.2119" lon="4.59085">
        <ele>626.6</ele>
        <time>2025-09-07T12:17:48Z</time>
      </trkpt>
      <trkpt lat="46.2119" lon="4.59086">
        <ele>626.6</ele>
        <time>2025-09-07T12:17:49Z</time>
      </trkpt>
      <trkpt lat="46.21192" lon="4.59086">
        <ele>627.2</ele>
        <time>2025-09-07T12:17:50Z</time>
      </trkpt>
      <trkpt lat="46.21193" lon="4.59086">
        <ele>627.8</ele>
        <time>2025-09-07T12:17:51Z</time>
      </trkpt>
      <trkpt lat="46.21194" lon="4.59086">
        <ele>627.8</ele>
        <time>2025-09-07T12:17:52Z</time>
      </trkpt>
      <trkpt lat="46.21195" lon="4.59087">
        <ele>628</ele>
        <time>2025-09-07T12:17:53Z</time>
      </trkpt>
      <trkpt lat="46.21196" lon="4.59087">
        <ele>628.4</ele>
        <time>2025-09-07T12:17:54Z</time>
      </trkpt>
      <trkpt lat="46.21196" lon="4.59087">
        <ele>628.4</ele>
        <time>2025-09-07T12:17:55Z</time>
      </trkpt>
      <trkpt lat="46.21197" lon="4.59086">
        <ele>628.6</ele>
        <time>2025-09-07T12:17:56Z</time>
      </trkpt>
      <trkpt lat="46.21197" lon="4.59085">
        <ele>628.6</ele>
        <time>2025-09-07T12:17:57Z</time>
      </trkpt>
      <trkpt lat="46.21198" lon="4.59085">
        <ele>629</ele>
        <time>2025-09-07T12:17:58Z</time>
      </trkpt>
      <trkpt lat="46.21198" lon="4.59085">
        <ele>629</ele>
        <time>2025-09-07T12:17:59Z</time>
      </trkpt>
      <trkpt lat="46.21196" lon="4.59087">
        <ele>629.2</ele>
        <time>2025-09-07T12:18:04Z</time>
      </trkpt>
      <trkpt lat="46.21196" lon="4.59087">
        <ele>629.2</ele>
        <time>2025-09-07T12:18:05Z</time>
      </trkpt>
      <trkpt lat="46.21195" lon="4.59088">
        <ele>629</ele>
        <time>2025-09-07T12:18:06Z</time>
      </trkpt>
      <trkpt lat="46.21194" lon="4.59089">
        <ele>629</ele>
        <time>2025-09-07T12:18:07Z</time>
      </trkpt>
      <trkpt lat="46.21193" lon="4.59091">
        <ele>629</ele>
        <time>2025-09-07T12:18:08Z</time>
      </trkpt>
      <trkpt lat="46.21193" lon="4.59092">
        <ele>628.6</ele>
        <time>2025-09-07T12:18:09Z</time>
      </trkpt>
      <trkpt lat="46.21192" lon="4.59092">
        <ele>628.2</ele>
        <time>2025-09-07T12:18:10Z</time>
      </trkpt>
      <trkpt lat="46.21191" lon="4.59092">
        <ele>628.2</ele>
        <time>2025-09-07T12:18:11Z</time>
      </trkpt>
      <trkpt lat="46.2119" lon="4.59092">
        <ele>627.8</ele>
        <time>2025-09-07T12:18:12Z</time>
      </trkpt>
      <trkpt lat="46.21189" lon="4.59091">
        <ele>627.8</ele>
        <time>2025-09-07T12:18:13Z</time>
      </trkpt>
      <trkpt lat="46.21188" lon="4.5909">
        <ele>627.6</ele>
        <time>2025-09-07T12:18:14Z</time>
      </trkpt>
      <trkpt lat="46.21187" lon="4.59089">
        <ele>627.4</ele>
        <time>2025-09-07T12:18:15Z</time>
      </trkpt>
      <trkpt lat="46.21187" lon="4.59087">
        <ele>627.4</ele>
        <time>2025-09-07T12:18:16Z</time>
      </trkpt>
      <trkpt lat="46.21186" lon="4.59084">
        <ele>626.8</ele>
        <time>2025-09-07T12:18:17Z</time>
      </trkpt>
      <trkpt lat="46.21186" lon="4.59082">
        <ele>626.8</ele>
        <time>2025-09-07T12:18:18Z</time>
      </trkpt>
      <trkpt lat="46.21186" lon="4.59081">
        <ele>626.8</ele>
        <time>2025-09-07T12:18:19Z</time>
      </trkpt>
      <trkpt lat="46.21185" lon="4.59079">
        <ele>627.4</ele>
        <time>2025-09-07T12:18:20Z</time>
      </trkpt>
      <trkpt lat="46.21185" lon="4.59078">
        <ele>627.6</ele>
        <time>2025-09-07T12:18:21Z</time>
      </trkpt>
      <trkpt lat="46.21184" lon="4.59076">
        <ele>627.6</ele>
        <time>2025-09-07T12:18:22Z</time>
      </trkpt>
      <trkpt lat="46.21184" lon="4.59075">
        <ele>627.8</ele>
        <time>2025-09-07T12:18:23Z</time>
      </trkpt>
      <trkpt lat="46.21183" lon="4.59074">
        <ele>628</ele>
        <time>2025-09-07T12:18:24Z</time>
      </trkpt>
      <trkpt lat="46.21183" lon="4.59072">
        <ele>628.2</ele>
        <time>2025-09-07T12:18:25Z</time>
      </trkpt>
      <trkpt lat="46.21183" lon="4.59071">
        <ele>628.6</ele>
        <time>2025-09-07T12:18:26Z</time>
      </trkpt>
      <trkpt lat="46.21183" lon="4.59071">
        <ele>628.8</ele>
        <time>2025-09-07T12:18:27Z</time>
      </trkpt>
      <trkpt lat="46.21183" lon="4.59069">
        <ele>629.2</ele>
        <time>2025-09-07T12:18:28Z</time>
      </trkpt>
      <trkpt lat="46.21183" lon="4.59068">
        <ele>629.4</ele>
        <time>2025-09-07T12:18:29Z</time>
      </trkpt>
      <trkpt lat="46.21182" lon="4.59066">
        <ele>629.4</ele>
        <time>2025-09-07T12:18:30Z</time>
      </trkpt>
      <trkpt lat="46.21182" lon="4.59065">
        <ele>629.4</ele>
        <time>2025-09-07T12:18:31Z</time>
      </trkpt>
      <trkpt lat="46.21181" lon="4.59064">
        <ele>629.4</ele>
        <time>2025-09-07T12:18:32Z</time>
      </trkpt>
      <trkpt lat="46.21181" lon="4.59063">
        <ele>629.4</ele>
        <time>2025-09-07T12:18:33Z</time>
      </trkpt>
      <trkpt lat="46.2118" lon="4.59062">
        <ele>629.4</ele>
        <time>2025-09-07T12:18:34Z</time>
      </trkpt>
      <trkpt lat="46.21179" lon="4.59061">
        <ele>629.4</ele>
        <time>2025-09-07T12:18:35Z</time>
      </trkpt>
      <trkpt lat="46.21179" lon="4.5906">
        <ele>629.4</ele>
        <time>2025-09-07T12:18:36Z</time>
      </trkpt>
      <trkpt lat="46.21179" lon="4.59059">
        <ele>629.4</ele>
        <time>2025-09-07T12:18:37Z</time>
      </trkpt>
      <trkpt lat="46.21179" lon="4.59059">
        <ele>629.6</ele>
        <time>2025-09-07T12:18:38Z</time>
      </trkpt>
      <trkpt lat="46.21178" lon="4.59058">
        <ele>629.6</ele>
        <time>2025-09-07T12:18:39Z</time>
      </trkpt>
      <trkpt lat="46.21177" lon="4.59057">
        <ele>629.6</ele>
        <time>2025-09-07T12:18:40Z</time>
      </trkpt>
      <trkpt lat="46.21177" lon="4.59056">
        <ele>630</ele>
        <time>2025-09-07T12:18:41Z</time>
      </trkpt>
      <trkpt lat="46.21176" lon="4.59055">
        <ele>630.4</ele>
        <time>2025-09-07T12:18:42Z</time>
      </trkpt>
      <trkpt lat="46.21175" lon="4.59054">
        <ele>630.4</ele>
        <time>2025-09-07T12:18:43Z</time>
      </trkpt>
      <trkpt lat="46.21175" lon="4.59053">
        <ele>630.4</ele>
        <time>2025-09-07T12:18:44Z</time>
      </trkpt>
      <trkpt lat="46.21175" lon="4.59052">
        <ele>630.8</ele>
        <time>2025-09-07T12:18:45Z</time>
      </trkpt>
      <trkpt lat="46.21174" lon="4.59051">
        <ele>630.8</ele>
        <time>2025-09-07T12:18:46Z</time>
      </trkpt>
      <trkpt lat="46.21173" lon="4.5905">
        <ele>630.8</ele>
        <time>2025-09-07T12:18:47Z</time>
      </trkpt>
      <trkpt lat="46.21173" lon="4.59049">
        <ele>631</ele>
        <time>2025-09-07T12:18:48Z</time>
      </trkpt>
      <trkpt lat="46.21173" lon="4.59047">
        <ele>631.4</ele>
        <time>2025-09-07T12:18:49Z</time>
      </trkpt>
      <trkpt lat="46.21173" lon="4.59046">
        <ele>631.8</ele>
        <time>2025-09-07T12:18:50Z</time>
      </trkpt>
      <trkpt lat="46.21172" lon="4.59044">
        <ele>631.8</ele>
        <time>2025-09-07T12:18:51Z</time>
      </trkpt>
      <trkpt lat="46.21172" lon="4.59043">
        <ele>632</ele>
        <time>2025-09-07T12:18:52Z</time>
      </trkpt>
      <trkpt lat="46.21172" lon="4.59042">
        <ele>632</ele>
        <time>2025-09-07T12:18:53Z</time>
      </trkpt>
      <trkpt lat="46.21172" lon="4.59041">
        <ele>632.6</ele>
        <time>2025-09-07T12:18:54Z</time>
      </trkpt>
      <trkpt lat="46.21172" lon="4.5904">
        <ele>632.6</ele>
        <time>2025-09-07T12:18:55Z</time>
      </trkpt>
      <trkpt lat="46.21172" lon="4.59039">
        <ele>632.8</ele>
        <time>2025-09-07T12:18:56Z</time>
      </trkpt>
      <trkpt lat="46.21171" lon="4.59038">
        <ele>633</ele>
        <time>2025-09-07T12:18:57Z</time>
      </trkpt>
      <trkpt lat="46.21171" lon="4.59038">
        <ele>633</ele>
        <time>2025-09-07T12:18:58Z</time>
      </trkpt>
      <trkpt lat="46.21171" lon="4.59036">
        <ele>633.4</ele>
        <time>2025-09-07T12:18:59Z</time>
      </trkpt>
      <trkpt lat="46.21171" lon="4.59035">
        <ele>633.8</ele>
        <time>2025-09-07T12:19:00Z</time>
      </trkpt>
      <trkpt lat="46.21171" lon="4.59035">
        <ele>633.8</ele>
        <time>2025-09-07T12:19:01Z</time>
      </trkpt>
      <trkpt lat="46.2117" lon="4.59034">
        <ele>633.8</ele>
        <time>2025-09-07T12:19:02Z</time>
      </trkpt>
      <trkpt lat="46.2117" lon="4.59033">
        <ele>633.8</ele>
        <time>2025-09-07T12:19:03Z</time>
      </trkpt>
      <trkpt lat="46.2117" lon="4.59032">
        <ele>633.8</ele>
        <time>2025-09-07T12:19:04Z</time>
      </trkpt>
      <trkpt lat="46.21169" lon="4.59031">
        <ele>634</ele>
        <time>2025-09-07T12:19:05Z</time>
      </trkpt>
      <trkpt lat="46.21168" lon="4.5903">
        <ele>634</ele>
        <time>2025-09-07T12:19:06Z</time>
      </trkpt>
      <trkpt lat="46.21168" lon="4.59029">
        <ele>634.2</ele>
        <time>2025-09-07T12:19:07Z</time>
      </trkpt>
      <trkpt lat="46.21168" lon="4.59028">
        <ele>634.2</ele>
        <time>2025-09-07T12:19:08Z</time>
      </trkpt>
      <trkpt lat="46.21167" lon="4.59027">
        <ele>634.2</ele>
        <time>2025-09-07T12:19:09Z</time>
      </trkpt>
      <trkpt lat="46.21167" lon="4.59026">
        <ele>634.2</ele>
        <time>2025-09-07T12:19:10Z</time>
      </trkpt>
      <trkpt lat="46.21166" lon="4.59024">
        <ele>634.4</ele>
        <time>2025-09-07T12:19:11Z</time>
      </trkpt>
      <trkpt lat="46.21166" lon="4.59023">
        <ele>634.4</ele>
        <time>2025-09-07T12:19:12Z</time>
      </trkpt>
      <trkpt lat="46.21165" lon="4.59022">
        <ele>634.8</ele>
        <time>2025-09-07T12:19:13Z</time>
      </trkpt>
      <trkpt lat="46.21165" lon="4.59021">
        <ele>634.8</ele>
        <time>2025-09-07T12:19:14Z</time>
      </trkpt>
      <trkpt lat="46.21164" lon="4.59021">
        <ele>635.2</ele>
        <time>2025-09-07T12:19:15Z</time>
      </trkpt>
      <trkpt lat="46.21164" lon="4.5902">
        <ele>635.4</ele>
        <time>2025-09-07T12:19:16Z</time>
      </trkpt>
      <trkpt lat="46.21164" lon="4.59019">
        <ele>635.4</ele>
        <time>2025-09-07T12:19:17Z</time>
      </trkpt>
      <trkpt lat="46.21163" lon="4.59018">
        <ele>635.4</ele>
        <time>2025-09-07T12:19:18Z</time>
      </trkpt>
      <trkpt lat="46.21163" lon="4.59017">
        <ele>635.6</ele>
        <time>2025-09-07T12:19:19Z</time>
      </trkpt>
      <trkpt lat="46.21163" lon="4.59016">
        <ele>635.6</ele>
        <time>2025-09-07T12:19:20Z</time>
      </trkpt>
      <trkpt lat="46.21163" lon="4.59015">
        <ele>635.6</ele>
        <time>2025-09-07T12:19:21Z</time>
      </trkpt>
      <trkpt lat="46.21163" lon="4.59014">
        <ele>636</ele>
        <time>2025-09-07T12:19:22Z</time>
      </trkpt>
      <trkpt lat="46.21163" lon="4.59013">
        <ele>636</ele>
        <time>2025-09-07T12:19:23Z</time>
      </trkpt>
      <trkpt lat="46.21162" lon="4.59012">
        <ele>636.2</ele>
        <time>2025-09-07T12:19:24Z</time>
      </trkpt>
      <trkpt lat="46.21162" lon="4.59012">
        <ele>636.6</ele>
        <time>2025-09-07T12:19:25Z</time>
      </trkpt>
      <trkpt lat="46.21162" lon="4.59011">
        <ele>636.6</ele>
        <time>2025-09-07T12:19:26Z</time>
      </trkpt>
      <trkpt lat="46.21161" lon="4.5901">
        <ele>637</ele>
        <time>2025-09-07T12:19:27Z</time>
      </trkpt>
      <trkpt lat="46.21161" lon="4.59008">
        <ele>637</ele>
        <time>2025-09-07T12:19:28Z</time>
      </trkpt>
      <trkpt lat="46.21161" lon="4.59008">
        <ele>637</ele>
        <time>2025-09-07T12:19:29Z</time>
      </trkpt>
      <trkpt lat="46.21161" lon="4.59007">
        <ele>637.2</ele>
        <time>2025-09-07T12:19:30Z</time>
      </trkpt>
      <trkpt lat="46.2116" lon="4.59006">
        <ele>637.2</ele>
        <time>2025-09-07T12:19:31Z</time>
      </trkpt>
      <trkpt lat="46.2116" lon="4.59005">
        <ele>637.2</ele>
        <time>2025-09-07T12:19:32Z</time>
      </trkpt>
      <trkpt lat="46.2116" lon="4.59004">
        <ele>637.2</ele>
        <time>2025-09-07T12:19:33Z</time>
      </trkpt>
      <trkpt lat="46.21159" lon="4.59004">
        <ele>637.4</ele>
        <time>2025-09-07T12:19:34Z</time>
      </trkpt>
      <trkpt lat="46.21159" lon="4.59003">
        <ele>637.6</ele>
        <time>2025-09-07T12:19:35Z</time>
      </trkpt>
      <trkpt lat="46.21159" lon="4.59002">
        <ele>637.6</ele>
        <time>2025-09-07T12:19:36Z</time>
      </trkpt>
      <trkpt lat="46.21159" lon="4.59001">
        <ele>637.6</ele>
        <time>2025-09-07T12:19:37Z</time>
      </trkpt>
      <trkpt lat="46.21158" lon="4.59">
        <ele>637.6</ele>
        <time>2025-09-07T12:19:38Z</time>
      </trkpt>
      <trkpt lat="46.21158" lon="4.58999">
        <ele>638</ele>
        <time>2025-09-07T12:19:39Z</time>
      </trkpt>
      <trkpt lat="46.21158" lon="4.58999">
        <ele>638</ele>
        <time>2025-09-07T12:19:40Z</time>
      </trkpt>
      <trkpt lat="46.21158" lon="4.58998">
        <ele>638</ele>
        <time>2025-09-07T12:19:41Z</time>
      </trkpt>
      <trkpt lat="46.21158" lon="4.58997">
        <ele>638</ele>
        <time>2025-09-07T12:19:42Z</time>
      </trkpt>
      <trkpt lat="46.21158" lon="4.58997">
        <ele>638.2</ele>
        <time>2025-09-07T12:19:43Z</time>
      </trkpt>
      <trkpt lat="46.21157" lon="4.58996">
        <ele>638.4</ele>
        <time>2025-09-07T12:19:55Z</time>
      </trkpt>
      <trkpt lat="46.21156" lon="4.58995">
        <ele>638.4</ele>
        <time>2025-09-07T12:19:56Z</time>
      </trkpt>
      <trkpt lat="46.21156" lon="4.58994">
        <ele>638.4</ele>
        <time>2025-09-07T12:19:57Z</time>
      </trkpt>
      <trkpt lat="46.21155" lon="4.58993">
        <ele>638.4</ele>
        <time>2025-09-07T12:19:58Z</time>
      </trkpt>
      <trkpt lat="46.21155" lon="4.58992">
        <ele>638.4</ele>
        <time>2025-09-07T12:19:59Z</time>
      </trkpt>
      <trkpt lat="46.21154" lon="4.5899">
        <ele>639</ele>
        <time>2025-09-07T12:20:00Z</time>
      </trkpt>
      <trkpt lat="46.21153" lon="4.58989">
        <ele>639.2</ele>
        <time>2025-09-07T12:20:01Z</time>
      </trkpt>
      <trkpt lat="46.21153" lon="4.58988">
        <ele>639.2</ele>
        <time>2025-09-07T12:20:02Z</time>
      </trkpt>
      <trkpt lat="46.21153" lon="4.58987">
        <ele>639.2</ele>
        <time>2025-09-07T12:20:03Z</time>
      </trkpt>
      <trkpt lat="46.21153" lon="4.58986">
        <ele>639.2</ele>
        <time>2025-09-07T12:20:04Z</time>
      </trkpt>
      <trkpt lat="46.21152" lon="4.58985">
        <ele>639.6</ele>
        <time>2025-09-07T12:20:05Z</time>
      </trkpt>
      <trkpt lat="46.21152" lon="4.58984">
        <ele>639.6</ele>
        <time>2025-09-07T12:20:06Z</time>
      </trkpt>
      <trkpt lat="46.21152" lon="4.58983">
        <ele>639.6</ele>
        <time>2025-09-07T12:20:07Z</time>
      </trkpt>
      <trkpt lat="46.21151" lon="4.58982">
        <ele>640</ele>
        <time>2025-09-07T12:20:08Z</time>
      </trkpt>
      <trkpt lat="46.21151" lon="4.58982">
        <ele>640</ele>
        <time>2025-09-07T12:20:09Z</time>
      </trkpt>
      <trkpt lat="46.21151" lon="4.58981">
        <ele>640</ele>
        <time>2025-09-07T12:20:10Z</time>
      </trkpt>
      <trkpt lat="46.2115" lon="4.5898">
        <ele>640.6</ele>
        <time>2025-09-07T12:20:11Z</time>
      </trkpt>
      <trkpt lat="46.2115" lon="4.58979">
        <ele>640.6</ele>
        <time>2025-09-07T12:20:12Z</time>
      </trkpt>
      <trkpt lat="46.2115" lon="4.58978">
        <ele>640.6</ele>
        <time>2025-09-07T12:20:13Z</time>
      </trkpt>
      <trkpt lat="46.2115" lon="4.58976">
        <ele>641</ele>
        <time>2025-09-07T12:20:14Z</time>
      </trkpt>
      <trkpt lat="46.2115" lon="4.58975">
        <ele>641.2</ele>
        <time>2025-09-07T12:20:15Z</time>
      </trkpt>
      <trkpt lat="46.21149" lon="4.58974">
        <ele>641.4</ele>
        <time>2025-09-07T12:20:16Z</time>
      </trkpt>
      <trkpt lat="46.21149" lon="4.58973">
        <ele>641.4</ele>
        <time>2025-09-07T12:20:17Z</time>
      </trkpt>
      <trkpt lat="46.21149" lon="4.58972">
        <ele>641.4</ele>
        <time>2025-09-07T12:20:18Z</time>
      </trkpt>
      <trkpt lat="46.21149" lon="4.58971">
        <ele>641.4</ele>
        <time>2025-09-07T12:20:19Z</time>
      </trkpt>
      <trkpt lat="46.21149" lon="4.5897">
        <ele>641.4</ele>
        <time>2025-09-07T12:20:20Z</time>
      </trkpt>
      <trkpt lat="46.21149" lon="4.58969">
        <ele>641.8</ele>
        <time>2025-09-07T12:20:21Z</time>
      </trkpt>
      <trkpt lat="46.21148" lon="4.58968">
        <ele>642.2</ele>
        <time>2025-09-07T12:20:22Z</time>
      </trkpt>
      <trkpt lat="46.21148" lon="4.58967">
        <ele>642.6</ele>
        <time>2025-09-07T12:20:23Z</time>
      </trkpt>
      <trkpt lat="46.21148" lon="4.58966">
        <ele>642.6</ele>
        <time>2025-09-07T12:20:24Z</time>
      </trkpt>
      <trkpt lat="46.21148" lon="4.58965">
        <ele>642.6</ele>
        <time>2025-09-07T12:20:25Z</time>
      </trkpt>
      <trkpt lat="46.21148" lon="4.58965">
        <ele>642.6</ele>
        <time>2025-09-07T12:20:26Z</time>
      </trkpt>
      <trkpt lat="46.21148" lon="4.58964">
        <ele>642.6</ele>
        <time>2025-09-07T12:20:27Z</time>
      </trkpt>
      <trkpt lat="46.21147" lon="4.58963">
        <ele>642.6</ele>
        <time>2025-09-07T12:20:28Z</time>
      </trkpt>
      <trkpt lat="46.21147" lon="4.58961">
        <ele>642.8</ele>
        <time>2025-09-07T12:20:29Z</time>
      </trkpt>
      <trkpt lat="46.21147" lon="4.58961">
        <ele>643</ele>
        <time>2025-09-07T12:20:30Z</time>
      </trkpt>
      <trkpt lat="46.21147" lon="4.5896">
        <ele>643</ele>
        <time>2025-09-07T12:20:31Z</time>
      </trkpt>
      <trkpt lat="46.21147" lon="4.58958">
        <ele>643</ele>
        <time>2025-09-07T12:20:32Z</time>
      </trkpt>
      <trkpt lat="46.21147" lon="4.58957">
        <ele>643.4</ele>
        <time>2025-09-07T12:20:33Z</time>
      </trkpt>
      <trkpt lat="46.21147" lon="4.58957">
        <ele>643.6</ele>
        <time>2025-09-07T12:20:34Z</time>
      </trkpt>
      <trkpt lat="46.21147" lon="4.58956">
        <ele>643.6</ele>
        <time>2025-09-07T12:20:35Z</time>
      </trkpt>
      <trkpt lat="46.21147" lon="4.58954">
        <ele>643.8</ele>
        <time>2025-09-07T12:20:36Z</time>
      </trkpt>
      <trkpt lat="46.21147" lon="4.58953">
        <ele>643.8</ele>
        <time>2025-09-07T12:20:37Z</time>
      </trkpt>
      <trkpt lat="46.21147" lon="4.58953">
        <ele>644.2</ele>
        <time>2025-09-07T12:20:38Z</time>
      </trkpt>
      <trkpt lat="46.21147" lon="4.58952">
        <ele>644.4</ele>
        <time>2025-09-07T12:20:39Z</time>
      </trkpt>
      <trkpt lat="46.21147" lon="4.5895">
        <ele>644.4</ele>
        <time>2025-09-07T12:20:40Z</time>
      </trkpt>
      <trkpt lat="46.21147" lon="4.58949">
        <ele>645</ele>
        <time>2025-09-07T12:20:41Z</time>
      </trkpt>
      <trkpt lat="46.21147" lon="4.58948">
        <ele>645</ele>
        <time>2025-09-07T12:20:42Z</time>
      </trkpt>
      <trkpt lat="46.21146" lon="4.58948">
        <ele>645.2</ele>
        <time>2025-09-07T12:20:43Z</time>
      </trkpt>
      <trkpt lat="46.21146" lon="4.58947">
        <ele>645.4</ele>
        <time>2025-09-07T12:20:44Z</time>
      </trkpt>
      <trkpt lat="46.21146" lon="4.58945">
        <ele>645.4</ele>
        <time>2025-09-07T12:20:45Z</time>
      </trkpt>
      <trkpt lat="46.21146" lon="4.58944">
        <ele>646</ele>
        <time>2025-09-07T12:20:46Z</time>
      </trkpt>
      <trkpt lat="46.21145" lon="4.58943">
        <ele>646</ele>
        <time>2025-09-07T12:20:47Z</time>
      </trkpt>
      <trkpt lat="46.21145" lon="4.58943">
        <ele>646.2</ele>
        <time>2025-09-07T12:20:48Z</time>
      </trkpt>
      <trkpt lat="46.21144" lon="4.58942">
        <ele>645.8</ele>
        <time>2025-09-07T12:20:58Z</time>
      </trkpt>
      <trkpt lat="46.21144" lon="4.58941">
        <ele>645.8</ele>
        <time>2025-09-07T12:20:59Z</time>
      </trkpt>
      <trkpt lat="46.21144" lon="4.5894">
        <ele>645.8</ele>
        <time>2025-09-07T12:21:00Z</time>
      </trkpt>
      <trkpt lat="46.21144" lon="4.58939">
        <ele>646.2</ele>
        <time>2025-09-07T12:21:01Z</time>
      </trkpt>
      <trkpt lat="46.21144" lon="4.58938">
        <ele>646.2</ele>
        <time>2025-09-07T12:21:02Z</time>
      </trkpt>
      <trkpt lat="46.21144" lon="4.58937">
        <ele>646.4</ele>
        <time>2025-09-07T12:21:03Z</time>
      </trkpt>
      <trkpt lat="46.21145" lon="4.58935">
        <ele>646.4</ele>
        <time>2025-09-07T12:21:04Z</time>
      </trkpt>
      <trkpt lat="46.21145" lon="4.58934">
        <ele>646.4</ele>
        <time>2025-09-07T12:21:05Z</time>
      </trkpt>
      <trkpt lat="46.21145" lon="4.58933">
        <ele>646.8</ele>
        <time>2025-09-07T12:21:06Z</time>
      </trkpt>
      <trkpt lat="46.21145" lon="4.58932">
        <ele>647.2</ele>
        <time>2025-09-07T12:21:07Z</time>
      </trkpt>
      <trkpt lat="46.21145" lon="4.58931">
        <ele>647.4</ele>
        <time>2025-09-07T12:21:08Z</time>
      </trkpt>
      <trkpt lat="46.21146" lon="4.58931">
        <ele>647.4</ele>
        <time>2025-09-07T12:21:09Z</time>
      </trkpt>
      <trkpt lat="46.21146" lon="4.58931">
        <ele>647.8</ele>
        <time>2025-09-07T12:21:10Z</time>
      </trkpt>
      <trkpt lat="46.21146" lon="4.5893">
        <ele>647.8</ele>
        <time>2025-09-07T12:21:11Z</time>
      </trkpt>
      <trkpt lat="46.21146" lon="4.58928">
        <ele>648</ele>
        <time>2025-09-07T12:21:12Z</time>
      </trkpt>
      <trkpt lat="46.21146" lon="4.58927">
        <ele>648</ele>
        <time>2025-09-07T12:21:13Z</time>
      </trkpt>
      <trkpt lat="46.21146" lon="4.58926">
        <ele>648.4</ele>
        <time>2025-09-07T12:21:14Z</time>
      </trkpt>
      <trkpt lat="46.21146" lon="4.58925">
        <ele>648.4</ele>
        <time>2025-09-07T12:21:15Z</time>
      </trkpt>
      <trkpt lat="46.21146" lon="4.58924">
        <ele>648.8</ele>
        <time>2025-09-07T12:21:16Z</time>
      </trkpt>
      <trkpt lat="46.21146" lon="4.58924">
        <ele>648.8</ele>
        <time>2025-09-07T12:21:17Z</time>
      </trkpt>
      <trkpt lat="46.21146" lon="4.58923">
        <ele>649</ele>
        <time>2025-09-07T12:21:18Z</time>
      </trkpt>
      <trkpt lat="46.21146" lon="4.58921">
        <ele>649.2</ele>
        <time>2025-09-07T12:21:19Z</time>
      </trkpt>
      <trkpt lat="46.21146" lon="4.5892">
        <ele>649.2</ele>
        <time>2025-09-07T12:21:20Z</time>
      </trkpt>
      <trkpt lat="46.21146" lon="4.58919">
        <ele>649.2</ele>
        <time>2025-09-07T12:21:21Z</time>
      </trkpt>
      <trkpt lat="46.21145" lon="4.58917">
        <ele>649.4</ele>
        <time>2025-09-07T12:21:22Z</time>
      </trkpt>
      <trkpt lat="46.21145" lon="4.58916">
        <ele>649.4</ele>
        <time>2025-09-07T12:21:23Z</time>
      </trkpt>
      <trkpt lat="46.21145" lon="4.58915">
        <ele>649.8</ele>
        <time>2025-09-07T12:21:24Z</time>
      </trkpt>
      <trkpt lat="46.21145" lon="4.58915">
        <ele>649.8</ele>
        <time>2025-09-07T12:21:25Z</time>
      </trkpt>
      <trkpt lat="46.21145" lon="4.58914">
        <ele>650.2</ele>
        <time>2025-09-07T12:21:26Z</time>
      </trkpt>
      <trkpt lat="46.21145" lon="4.58913">
        <ele>650.2</ele>
        <time>2025-09-07T12:21:27Z</time>
      </trkpt>
      <trkpt lat="46.21145" lon="4.58912">
        <ele>650.2</ele>
        <time>2025-09-07T12:21:28Z</time>
      </trkpt>
      <trkpt lat="46.21144" lon="4.58911">
        <ele>650.4</ele>
        <time>2025-09-07T12:21:29Z</time>
      </trkpt>
      <trkpt lat="46.21144" lon="4.5891">
        <ele>651</ele>
        <time>2025-09-07T12:21:30Z</time>
      </trkpt>
      <trkpt lat="46.21144" lon="4.58909">
        <ele>651</ele>
        <time>2025-09-07T12:21:31Z</time>
      </trkpt>
      <trkpt lat="46.21144" lon="4.58908">
        <ele>651.4</ele>
        <time>2025-09-07T12:21:32Z</time>
      </trkpt>
      <trkpt lat="46.21144" lon="4.58907">
        <ele>651.4</ele>
        <time>2025-09-07T12:21:33Z</time>
      </trkpt>
      <trkpt lat="46.21145" lon="4.58906">
        <ele>651.4</ele>
        <time>2025-09-07T12:21:34Z</time>
      </trkpt>
      <trkpt lat="46.21145" lon="4.58906">
        <ele>651.8</ele>
        <time>2025-09-07T12:21:35Z</time>
      </trkpt>
      <trkpt lat="46.21144" lon="4.58904">
        <ele>651.8</ele>
        <time>2025-09-07T12:21:39Z</time>
      </trkpt>
      <trkpt lat="46.21144" lon="4.58903">
        <ele>651.8</ele>
        <time>2025-09-07T12:21:40Z</time>
      </trkpt>
      <trkpt lat="46.21144" lon="4.58901">
        <ele>651.8</ele>
        <time>2025-09-07T12:21:41Z</time>
      </trkpt>
      <trkpt lat="46.21143" lon="4.589">
        <ele>651.8</ele>
        <time>2025-09-07T12:21:42Z</time>
      </trkpt>
      <trkpt lat="46.21143" lon="4.58898">
        <ele>652</ele>
        <time>2025-09-07T12:21:43Z</time>
      </trkpt>
      <trkpt lat="46.21143" lon="4.58897">
        <ele>652</ele>
        <time>2025-09-07T12:21:44Z</time>
      </trkpt>
      <trkpt lat="46.21142" lon="4.58896">
        <ele>652.4</ele>
        <time>2025-09-07T12:21:45Z</time>
      </trkpt>
      <trkpt lat="46.21142" lon="4.58894">
        <ele>652.4</ele>
        <time>2025-09-07T12:21:46Z</time>
      </trkpt>
      <trkpt lat="46.21142" lon="4.58893">
        <ele>652.8</ele>
        <time>2025-09-07T12:21:47Z</time>
      </trkpt>
      <trkpt lat="46.21142" lon="4.58891">
        <ele>652.8</ele>
        <time>2025-09-07T12:21:48Z</time>
      </trkpt>
      <trkpt lat="46.21141" lon="4.5889">
        <ele>652.8</ele>
        <time>2025-09-07T12:21:49Z</time>
      </trkpt>
      <trkpt lat="46.21141" lon="4.58888">
        <ele>652.8</ele>
        <time>2025-09-07T12:21:50Z</time>
      </trkpt>
      <trkpt lat="46.2114" lon="4.58887">
        <ele>652.8</ele>
        <time>2025-09-07T12:21:51Z</time>
      </trkpt>
      <trkpt lat="46.2114" lon="4.58885">
        <ele>652.8</ele>
        <time>2025-09-07T12:21:52Z</time>
      </trkpt>
      <trkpt lat="46.21139" lon="4.58884">
        <ele>652.8</ele>
        <time>2025-09-07T12:21:53Z</time>
      </trkpt>
      <trkpt lat="46.21139" lon="4.58882">
        <ele>653</ele>
        <time>2025-09-07T12:21:54Z</time>
      </trkpt>
      <trkpt lat="46.21139" lon="4.58881">
        <ele>653</ele>
        <time>2025-09-07T12:21:55Z</time>
      </trkpt>
      <trkpt lat="46.21138" lon="4.58879">
        <ele>653</ele>
        <time>2025-09-07T12:21:56Z</time>
      </trkpt>
      <trkpt lat="46.21137" lon="4.58878">
        <ele>653</ele>
        <time>2025-09-07T12:21:57Z</time>
      </trkpt>
      <trkpt lat="46.21137" lon="4.58877">
        <ele>653.4</ele>
        <time>2025-09-07T12:21:58Z</time>
      </trkpt>
      <trkpt lat="46.21136" lon="4.58876">
        <ele>653.8</ele>
        <time>2025-09-07T12:21:59Z</time>
      </trkpt>
      <trkpt lat="46.21136" lon="4.58875">
        <ele>653.8</ele>
        <time>2025-09-07T12:22:00Z</time>
      </trkpt>
      <trkpt lat="46.21136" lon="4.58874">
        <ele>654</ele>
        <time>2025-09-07T12:22:01Z</time>
      </trkpt>
      <trkpt lat="46.21135" lon="4.58873">
        <ele>654.4</ele>
        <time>2025-09-07T12:22:02Z</time>
      </trkpt>
      <trkpt lat="46.21135" lon="4.58871">
        <ele>654.4</ele>
        <time>2025-09-07T12:22:03Z</time>
      </trkpt>
      <trkpt lat="46.21134" lon="4.5887">
        <ele>654.4</ele>
        <time>2025-09-07T12:22:04Z</time>
      </trkpt>
      <trkpt lat="46.21134" lon="4.58869">
        <ele>654.4</ele>
        <time>2025-09-07T12:22:05Z</time>
      </trkpt>
      <trkpt lat="46.21133" lon="4.58868">
        <ele>654.4</ele>
        <time>2025-09-07T12:22:06Z</time>
      </trkpt>
      <trkpt lat="46.21133" lon="4.58868">
        <ele>654.4</ele>
        <time>2025-09-07T12:22:07Z</time>
      </trkpt>
      <trkpt lat="46.21133" lon="4.58867">
        <ele>654.4</ele>
        <time>2025-09-07T12:22:08Z</time>
      </trkpt>
      <trkpt lat="46.21132" lon="4.58866">
        <ele>654.6</ele>
        <time>2025-09-07T12:22:09Z</time>
      </trkpt>
      <trkpt lat="46.21132" lon="4.58864">
        <ele>654.6</ele>
        <time>2025-09-07T12:22:10Z</time>
      </trkpt>
      <trkpt lat="46.21131" lon="4.58863">
        <ele>654.6</ele>
        <time>2025-09-07T12:22:11Z</time>
      </trkpt>
      <trkpt lat="46.2113" lon="4.58862">
        <ele>655</ele>
        <time>2025-09-07T12:22:12Z</time>
      </trkpt>
      <trkpt lat="46.2113" lon="4.58861">
        <ele>655.2</ele>
        <time>2025-09-07T12:22:13Z</time>
      </trkpt>
      <trkpt lat="46.21129" lon="4.5886">
        <ele>655.2</ele>
        <time>2025-09-07T12:22:14Z</time>
      </trkpt>
      <trkpt lat="46.21128" lon="4.58859">
        <ele>655.4</ele>
        <time>2025-09-07T12:22:15Z</time>
      </trkpt>
      <trkpt lat="46.21128" lon="4.58858">
        <ele>655.4</ele>
        <time>2025-09-07T12:22:16Z</time>
      </trkpt>
      <trkpt lat="46.21127" lon="4.58857">
        <ele>655.4</ele>
        <time>2025-09-07T12:22:17Z</time>
      </trkpt>
      <trkpt lat="46.21126" lon="4.58856">
        <ele>655.6</ele>
        <time>2025-09-07T12:22:18Z</time>
      </trkpt>
      <trkpt lat="46.21126" lon="4.58855">
        <ele>655.6</ele>
        <time>2025-09-07T12:22:19Z</time>
      </trkpt>
      <trkpt lat="46.21125" lon="4.58854">
        <ele>655.8</ele>
        <time>2025-09-07T12:22:20Z</time>
      </trkpt>
      <trkpt lat="46.21125" lon="4.58853">
        <ele>655.8</ele>
        <time>2025-09-07T12:22:21Z</time>
      </trkpt>
      <trkpt lat="46.21124" lon="4.58853">
        <ele>656.4</ele>
        <time>2025-09-07T12:22:22Z</time>
      </trkpt>
      <trkpt lat="46.21124" lon="4.58853">
        <ele>656.6</ele>
        <time>2025-09-07T12:22:23Z</time>
      </trkpt>
      <trkpt lat="46.21123" lon="4.58852">
        <ele>657</ele>
        <time>2025-09-07T12:22:24Z</time>
      </trkpt>
      <trkpt lat="46.21123" lon="4.58851">
        <ele>657</ele>
        <time>2025-09-07T12:22:25Z</time>
      </trkpt>
      <trkpt lat="46.21122" lon="4.5885">
        <ele>657.4</ele>
        <time>2025-09-07T12:22:26Z</time>
      </trkpt>
      <trkpt lat="46.21122" lon="4.58849">
        <ele>657.4</ele>
        <time>2025-09-07T12:22:27Z</time>
      </trkpt>
      <trkpt lat="46.21121" lon="4.58848">
        <ele>657.8</ele>
        <time>2025-09-07T12:22:28Z</time>
      </trkpt>
      <trkpt lat="46.2112" lon="4.58847">
        <ele>657.8</ele>
        <time>2025-09-07T12:22:29Z</time>
      </trkpt>
      <trkpt lat="46.2112" lon="4.58846">
        <ele>658</ele>
        <time>2025-09-07T12:22:30Z</time>
      </trkpt>
      <trkpt lat="46.2112" lon="4.58845">
        <ele>658</ele>
        <time>2025-09-07T12:22:31Z</time>
      </trkpt>
      <trkpt lat="46.21119" lon="4.58844">
        <ele>658</ele>
        <time>2025-09-07T12:22:32Z</time>
      </trkpt>
      <trkpt lat="46.21118" lon="4.58843">
        <ele>658.6</ele>
        <time>2025-09-07T12:22:33Z</time>
      </trkpt>
      <trkpt lat="46.21118" lon="4.58842">
        <ele>658.6</ele>
        <time>2025-09-07T12:22:34Z</time>
      </trkpt>
      <trkpt lat="46.21118" lon="4.58842">
        <ele>658.6</ele>
        <time>2025-09-07T12:22:35Z</time>
      </trkpt>
      <trkpt lat="46.21118" lon="4.58841">
        <ele>659</ele>
        <time>2025-09-07T12:22:36Z</time>
      </trkpt>
      <trkpt lat="46.21117" lon="4.5884">
        <ele>659</ele>
        <time>2025-09-07T12:22:37Z</time>
      </trkpt>
      <trkpt lat="46.21117" lon="4.58839">
        <ele>659.2</ele>
        <time>2025-09-07T12:22:38Z</time>
      </trkpt>
      <trkpt lat="46.21116" lon="4.58838">
        <ele>659.4</ele>
        <time>2025-09-07T12:22:39Z</time>
      </trkpt>
      <trkpt lat="46.21116" lon="4.58837">
        <ele>659.4</ele>
        <time>2025-09-07T12:22:40Z</time>
      </trkpt>
      <trkpt lat="46.21115" lon="4.58836">
        <ele>659.4</ele>
        <time>2025-09-07T12:22:41Z</time>
      </trkpt>
      <trkpt lat="46.21115" lon="4.58835">
        <ele>660</ele>
        <time>2025-09-07T12:22:42Z</time>
      </trkpt>
      <trkpt lat="46.21114" lon="4.58834">
        <ele>660</ele>
        <time>2025-09-07T12:22:43Z</time>
      </trkpt>
      <trkpt lat="46.21114" lon="4.58833">
        <ele>660</ele>
        <time>2025-09-07T12:22:44Z</time>
      </trkpt>
      <trkpt lat="46.21113" lon="4.58833">
        <ele>660</ele>
        <time>2025-09-07T12:22:45Z</time>
      </trkpt>
      <trkpt lat="46.21113" lon="4.58832">
        <ele>660</ele>
        <time>2025-09-07T12:22:46Z</time>
      </trkpt>
      <trkpt lat="46.21113" lon="4.58831">
        <ele>660</ele>
        <time>2025-09-07T12:22:47Z</time>
      </trkpt>
      <trkpt lat="46.21112" lon="4.5883">
        <ele>660.4</ele>
        <time>2025-09-07T12:22:48Z</time>
      </trkpt>
      <trkpt lat="46.21112" lon="4.58829">
        <ele>660.4</ele>
        <time>2025-09-07T12:22:49Z</time>
      </trkpt>
      <trkpt lat="46.21111" lon="4.58828">
        <ele>660.6</ele>
        <time>2025-09-07T12:22:50Z</time>
      </trkpt>
      <trkpt lat="46.21111" lon="4.58827">
        <ele>660.6</ele>
        <time>2025-09-07T12:22:51Z</time>
      </trkpt>
      <trkpt lat="46.21111" lon="4.58826">
        <ele>660.8</ele>
        <time>2025-09-07T12:22:52Z</time>
      </trkpt>
      <trkpt lat="46.21111" lon="4.58825">
        <ele>661</ele>
        <time>2025-09-07T12:22:53Z</time>
      </trkpt>
      <trkpt lat="46.2111" lon="4.58824">
        <ele>661.4</ele>
        <time>2025-09-07T12:22:54Z</time>
      </trkpt>
      <trkpt lat="46.2111" lon="4.58823">
        <ele>661.6</ele>
        <time>2025-09-07T12:22:55Z</time>
      </trkpt>
      <trkpt lat="46.2111" lon="4.58822">
        <ele>661.8</ele>
        <time>2025-09-07T12:22:56Z</time>
      </trkpt>
      <trkpt lat="46.2111" lon="4.58822">
        <ele>662.2</ele>
        <time>2025-09-07T12:22:57Z</time>
      </trkpt>
      <trkpt lat="46.21108" lon="4.58823">
        <ele>662.4</ele>
        <time>2025-09-07T12:23:03Z</time>
      </trkpt>
      <trkpt lat="46.21107" lon="4.58822">
        <ele>662.4</ele>
        <time>2025-09-07T12:23:04Z</time>
      </trkpt>
      <trkpt lat="46.21107" lon="4.58821">
        <ele>662.2</ele>
        <time>2025-09-07T12:23:05Z</time>
      </trkpt>
      <trkpt lat="46.21107" lon="4.58819">
        <ele>662.2</ele>
        <time>2025-09-07T12:23:06Z</time>
      </trkpt>
      <trkpt lat="46.21106" lon="4.58818">
        <ele>662.4</ele>
        <time>2025-09-07T12:23:07Z</time>
      </trkpt>
      <trkpt lat="46.21106" lon="4.58817">
        <ele>662.6</ele>
        <time>2025-09-07T12:23:08Z</time>
      </trkpt>
      <trkpt lat="46.21105" lon="4.58816">
        <ele>662.6</ele>
        <time>2025-09-07T12:23:09Z</time>
      </trkpt>
      <trkpt lat="46.21105" lon="4.58815">
        <ele>662.8</ele>
        <time>2025-09-07T12:23:10Z</time>
      </trkpt>
      <trkpt lat="46.21105" lon="4.58815">
        <ele>662.8</ele>
        <time>2025-09-07T12:23:11Z</time>
      </trkpt>
      <trkpt lat="46.21103" lon="4.58814">
        <ele>663</ele>
        <time>2025-09-07T12:23:21Z</time>
      </trkpt>
      <trkpt lat="46.21103" lon="4.58812">
        <ele>663</ele>
        <time>2025-09-07T12:23:22Z</time>
      </trkpt>
      <trkpt lat="46.21103" lon="4.58811">
        <ele>663.4</ele>
        <time>2025-09-07T12:23:23Z</time>
      </trkpt>
      <trkpt lat="46.21103" lon="4.5881">
        <ele>663.6</ele>
        <time>2025-09-07T12:23:24Z</time>
      </trkpt>
      <trkpt lat="46.21103" lon="4.58809">
        <ele>663.6</ele>
        <time>2025-09-07T12:23:25Z</time>
      </trkpt>
      <trkpt lat="46.21103" lon="4.58808">
        <ele>663.6</ele>
        <time>2025-09-07T12:23:26Z</time>
      </trkpt>
      <trkpt lat="46.21103" lon="4.58807">
        <ele>663.6</ele>
        <time>2025-09-07T12:23:27Z</time>
      </trkpt>
      <trkpt lat="46.21103" lon="4.58805">
        <ele>664</ele>
        <time>2025-09-07T12:23:28Z</time>
      </trkpt>
      <trkpt lat="46.21103" lon="4.58804">
        <ele>664.4</ele>
        <time>2025-09-07T12:23:29Z</time>
      </trkpt>
      <trkpt lat="46.21103" lon="4.58803">
        <ele>664.4</ele>
        <time>2025-09-07T12:23:30Z</time>
      </trkpt>
      <trkpt lat="46.21104" lon="4.58801">
        <ele>664.8</ele>
        <time>2025-09-07T12:23:31Z</time>
      </trkpt>
      <trkpt lat="46.21103" lon="4.588">
        <ele>664.8</ele>
        <time>2025-09-07T12:23:32Z</time>
      </trkpt>
      <trkpt lat="46.21103" lon="4.58799">
        <ele>664.8</ele>
        <time>2025-09-07T12:23:33Z</time>
      </trkpt>
      <trkpt lat="46.21103" lon="4.58798">
        <ele>664.8</ele>
        <time>2025-09-07T12:23:34Z</time>
      </trkpt>
      <trkpt lat="46.21103" lon="4.58797">
        <ele>664.8</ele>
        <time>2025-09-07T12:23:35Z</time>
      </trkpt>
      <trkpt lat="46.21103" lon="4.58796">
        <ele>665.2</ele>
        <time>2025-09-07T12:23:36Z</time>
      </trkpt>
      <trkpt lat="46.21103" lon="4.58796">
        <ele>665.2</ele>
        <time>2025-09-07T12:23:37Z</time>
      </trkpt>
      <trkpt lat="46.21103" lon="4.58795">
        <ele>665.6</ele>
        <time>2025-09-07T12:23:38Z</time>
      </trkpt>
      <trkpt lat="46.21103" lon="4.58795">
        <ele>665.6</ele>
        <time>2025-09-07T12:23:39Z</time>
      </trkpt>
      <trkpt lat="46.21103" lon="4.58794">
        <ele>665.6</ele>
        <time>2025-09-07T12:23:40Z</time>
      </trkpt>
      <trkpt lat="46.21104" lon="4.58794">
        <ele>665.8</ele>
        <time>2025-09-07T12:23:41Z</time>
      </trkpt>
      <trkpt lat="46.21104" lon="4.58793">
        <ele>665.8</ele>
        <time>2025-09-07T12:23:42Z</time>
      </trkpt>
      <trkpt lat="46.21104" lon="4.58791">
        <ele>665.8</ele>
        <time>2025-09-07T12:23:43Z</time>
      </trkpt>
      <trkpt lat="46.21104" lon="4.58791">
        <ele>665.8</ele>
        <time>2025-09-07T12:23:44Z</time>
      </trkpt>
      <trkpt lat="46.21104" lon="4.58789">
        <ele>665.8</ele>
        <time>2025-09-07T12:23:45Z</time>
      </trkpt>
      <trkpt lat="46.21104" lon="4.58788">
        <ele>666.4</ele>
        <time>2025-09-07T12:23:46Z</time>
      </trkpt>
      <trkpt lat="46.21104" lon="4.58787">
        <ele>666.8</ele>
        <time>2025-09-07T12:23:47Z</time>
      </trkpt>
      <trkpt lat="46.21104" lon="4.58786">
        <ele>667</ele>
        <time>2025-09-07T12:23:48Z</time>
      </trkpt>
      <trkpt lat="46.21104" lon="4.58785">
        <ele>667.2</ele>
        <time>2025-09-07T12:23:49Z</time>
      </trkpt>
      <trkpt lat="46.21104" lon="4.58784">
        <ele>667.2</ele>
        <time>2025-09-07T12:23:50Z</time>
      </trkpt>
      <trkpt lat="46.21105" lon="4.58783">
        <ele>667.6</ele>
        <time>2025-09-07T12:23:51Z</time>
      </trkpt>
      <trkpt lat="46.21105" lon="4.58782">
        <ele>667.6</ele>
        <time>2025-09-07T12:23:52Z</time>
      </trkpt>
      <trkpt lat="46.21105" lon="4.58781">
        <ele>667.8</ele>
        <time>2025-09-07T12:23:53Z</time>
      </trkpt>
      <trkpt lat="46.21105" lon="4.5878">
        <ele>668.2</ele>
        <time>2025-09-07T12:23:54Z</time>
      </trkpt>
      <trkpt lat="46.21105" lon="4.58779">
        <ele>668.2</ele>
        <time>2025-09-07T12:23:55Z</time>
      </trkpt>
      <trkpt lat="46.21106" lon="4.58777">
        <ele>668.4</ele>
        <time>2025-09-07T12:23:56Z</time>
      </trkpt>
      <trkpt lat="46.21106" lon="4.58776">
        <ele>668.4</ele>
        <time>2025-09-07T12:23:57Z</time>
      </trkpt>
      <trkpt lat="46.21106" lon="4.58775">
        <ele>668.8</ele>
        <time>2025-09-07T12:23:58Z</time>
      </trkpt>
      <trkpt lat="46.21106" lon="4.58774">
        <ele>669.2</ele>
        <time>2025-09-07T12:23:59Z</time>
      </trkpt>
      <trkpt lat="46.21107" lon="4.58773">
        <ele>669.6</ele>
        <time>2025-09-07T12:24:00Z</time>
      </trkpt>
      <trkpt lat="46.21107" lon="4.58772">
        <ele>669.6</ele>
        <time>2025-09-07T12:24:01Z</time>
      </trkpt>
      <trkpt lat="46.21108" lon="4.5877">
        <ele>669.8</ele>
        <time>2025-09-07T12:24:02Z</time>
      </trkpt>
      <trkpt lat="46.21108" lon="4.58769">
        <ele>669.8</ele>
        <time>2025-09-07T12:24:03Z</time>
      </trkpt>
      <trkpt lat="46.21109" lon="4.58768">
        <ele>669.8</ele>
        <time>2025-09-07T12:24:04Z</time>
      </trkpt>
      <trkpt lat="46.2111" lon="4.58767">
        <ele>669.8</ele>
        <time>2025-09-07T12:24:05Z</time>
      </trkpt>
      <trkpt lat="46.2111" lon="4.58767">
        <ele>669.8</ele>
        <time>2025-09-07T12:24:06Z</time>
      </trkpt>
      <trkpt lat="46.21111" lon="4.58766">
        <ele>670.2</ele>
        <time>2025-09-07T12:24:07Z</time>
      </trkpt>
      <trkpt lat="46.21109" lon="4.5877">
        <ele>669.8</ele>
        <time>2025-09-07T12:25:16Z</time>
      </trkpt>
      <trkpt lat="46.21109" lon="4.5877">
        <ele>669.8</ele>
        <time>2025-09-07T12:25:17Z</time>
      </trkpt>
      <trkpt lat="46.21109" lon="4.5877">
        <ele>669.4</ele>
        <time>2025-09-07T12:25:18Z</time>
      </trkpt>
      <trkpt lat="46.21107" lon="4.58769">
        <ele>669.4</ele>
        <time>2025-09-07T12:25:19Z</time>
      </trkpt>
      <trkpt lat="46.21106" lon="4.58769">
        <ele>669.4</ele>
        <time>2025-09-07T12:25:20Z</time>
      </trkpt>
      <trkpt lat="46.21105" lon="4.58769">
        <ele>669.8</ele>
        <time>2025-09-07T12:25:21Z</time>
      </trkpt>
      <trkpt lat="46.21104" lon="4.58769">
        <ele>669.8</ele>
        <time>2025-09-07T12:25:22Z</time>
      </trkpt>
      <trkpt lat="46.21103" lon="4.58769">
        <ele>669.2</ele>
        <time>2025-09-07T12:25:23Z</time>
      </trkpt>
      <trkpt lat="46.21102" lon="4.58769">
        <ele>669.2</ele>
        <time>2025-09-07T12:25:24Z</time>
      </trkpt>
      <trkpt lat="46.21102" lon="4.58769">
        <ele>669</ele>
        <time>2025-09-07T12:25:25Z</time>
      </trkpt>
      <trkpt lat="46.21102" lon="4.5877">
        <ele>669.4</ele>
        <time>2025-09-07T12:25:26Z</time>
      </trkpt>
      <trkpt lat="46.21102" lon="4.58771">
        <ele>669.4</ele>
        <time>2025-09-07T12:25:27Z</time>
      </trkpt>
      <trkpt lat="46.21102" lon="4.58771">
        <ele>669.4</ele>
        <time>2025-09-07T12:25:28Z</time>
      </trkpt>
      <trkpt lat="46.21106" lon="4.5877">
        <ele>669.6</ele>
        <time>2025-09-07T12:27:43Z</time>
      </trkpt>
      <trkpt lat="46.21107" lon="4.5877">
        <ele>670</ele>
        <time>2025-09-07T12:27:44Z</time>
      </trkpt>
      <trkpt lat="46.21108" lon="4.58769">
        <ele>670.4</ele>
        <time>2025-09-07T12:27:45Z</time>
      </trkpt>
      <trkpt lat="46.21109" lon="4.58768">
        <ele>670.4</ele>
        <time>2025-09-07T12:27:46Z</time>
      </trkpt>
      <trkpt lat="46.21109" lon="4.58768">
        <ele>670</ele>
        <time>2025-09-07T12:27:47Z</time>
      </trkpt>
      <trkpt lat="46.2111" lon="4.58767">
        <ele>670</ele>
        <time>2025-09-07T12:27:48Z</time>
      </trkpt>
      <trkpt lat="46.2111" lon="4.58767">
        <ele>670</ele>
        <time>2025-09-07T12:27:49Z</time>
      </trkpt>
      <trkpt lat="46.21111" lon="4.58766">
        <ele>670.2</ele>
        <time>2025-09-07T12:27:50Z</time>
      </trkpt>
      <trkpt lat="46.21112" lon="4.58764">
        <ele>670.2</ele>
        <time>2025-09-07T12:27:51Z</time>
      </trkpt>
      <trkpt lat="46.21112" lon="4.58763">
        <ele>670</ele>
        <time>2025-09-07T12:27:52Z</time>
      </trkpt>
      <trkpt lat="46.21112" lon="4.58762">
        <ele>670</ele>
        <time>2025-09-07T12:27:53Z</time>
      </trkpt>
      <trkpt lat="46.21113" lon="4.58761">
        <ele>670.4</ele>
        <time>2025-09-07T12:27:54Z</time>
      </trkpt>
      <trkpt lat="46.21113" lon="4.5876">
        <ele>670.6</ele>
        <time>2025-09-07T12:27:55Z</time>
      </trkpt>
      <trkpt lat="46.21113" lon="4.58759">
        <ele>670.8</ele>
        <time>2025-09-07T12:27:56Z</time>
      </trkpt>
      <trkpt lat="46.21114" lon="4.58758">
        <ele>670.8</ele>
        <time>2025-09-07T12:27:57Z</time>
      </trkpt>
      <trkpt lat="46.21114" lon="4.58757">
        <ele>670.8</ele>
        <time>2025-09-07T12:27:58Z</time>
      </trkpt>
      <trkpt lat="46.21114" lon="4.58756">
        <ele>671.2</ele>
        <time>2025-09-07T12:27:59Z</time>
      </trkpt>
      <trkpt lat="46.21115" lon="4.58755">
        <ele>671.2</ele>
        <time>2025-09-07T12:28:00Z</time>
      </trkpt>
      <trkpt lat="46.21115" lon="4.58754">
        <ele>671.2</ele>
        <time>2025-09-07T12:28:01Z</time>
      </trkpt>
      <trkpt lat="46.21115" lon="4.58753">
        <ele>671.2</ele>
        <time>2025-09-07T12:28:02Z</time>
      </trkpt>
      <trkpt lat="46.21116" lon="4.58751">
        <ele>671.6</ele>
        <time>2025-09-07T12:28:03Z</time>
      </trkpt>
      <trkpt lat="46.21116" lon="4.5875">
        <ele>671.6</ele>
        <time>2025-09-07T12:28:04Z</time>
      </trkpt>
      <trkpt lat="46.21117" lon="4.58749">
        <ele>671.6</ele>
        <time>2025-09-07T12:28:05Z</time>
      </trkpt>
      <trkpt lat="46.21118" lon="4.58748">
        <ele>671.6</ele>
        <time>2025-09-07T12:28:06Z</time>
      </trkpt>
      <trkpt lat="46.21118" lon="4.58748">
        <ele>671.6</ele>
        <time>2025-09-07T12:28:07Z</time>
      </trkpt>
      <trkpt lat="46.21118" lon="4.58747">
        <ele>671.8</ele>
        <time>2025-09-07T12:28:08Z</time>
      </trkpt>
      <trkpt lat="46.21118" lon="4.58746">
        <ele>671.8</ele>
        <time>2025-09-07T12:28:09Z</time>
      </trkpt>
      <trkpt lat="46.21119" lon="4.58745">
        <ele>671.8</ele>
        <time>2025-09-07T12:28:10Z</time>
      </trkpt>
      <trkpt lat="46.21119" lon="4.58744">
        <ele>672.2</ele>
        <time>2025-09-07T12:28:11Z</time>
      </trkpt>
      <trkpt lat="46.2112" lon="4.58744">
        <ele>672.2</ele>
        <time>2025-09-07T12:28:12Z</time>
      </trkpt>
      <trkpt lat="46.2112" lon="4.58743">
        <ele>672.6</ele>
        <time>2025-09-07T12:28:13Z</time>
      </trkpt>
      <trkpt lat="46.21121" lon="4.58741">
        <ele>672.6</ele>
        <time>2025-09-07T12:28:14Z</time>
      </trkpt>
      <trkpt lat="46.21121" lon="4.58741">
        <ele>673</ele>
        <time>2025-09-07T12:28:15Z</time>
      </trkpt>
      <trkpt lat="46.21122" lon="4.5874">
        <ele>673</ele>
        <time>2025-09-07T12:28:16Z</time>
      </trkpt>
      <trkpt lat="46.21122" lon="4.58739">
        <ele>672.8</ele>
        <time>2025-09-07T12:28:17Z</time>
      </trkpt>
      <trkpt lat="46.21122" lon="4.58738">
        <ele>673.2</ele>
        <time>2025-09-07T12:28:18Z</time>
      </trkpt>
      <trkpt lat="46.21123" lon="4.58737">
        <ele>673.2</ele>
        <time>2025-09-07T12:28:19Z</time>
      </trkpt>
      <trkpt lat="46.21123" lon="4.58736">
        <ele>673.4</ele>
        <time>2025-09-07T12:28:20Z</time>
      </trkpt>
      <trkpt lat="46.21124" lon="4.58735">
        <ele>673.4</ele>
        <time>2025-09-07T12:28:21Z</time>
      </trkpt>
      <trkpt lat="46.21124" lon="4.58734">
        <ele>673.4</ele>
        <time>2025-09-07T12:28:22Z</time>
      </trkpt>
      <trkpt lat="46.21124" lon="4.58734">
        <ele>673.8</ele>
        <time>2025-09-07T12:28:23Z</time>
      </trkpt>
      <trkpt lat="46.21124" lon="4.58733">
        <ele>674</ele>
        <time>2025-09-07T12:28:24Z</time>
      </trkpt>
      <trkpt lat="46.21125" lon="4.58732">
        <ele>674</ele>
        <time>2025-09-07T12:28:25Z</time>
      </trkpt>
      <trkpt lat="46.21125" lon="4.58732">
        <ele>674.4</ele>
        <time>2025-09-07T12:28:26Z</time>
      </trkpt>
      <trkpt lat="46.21125" lon="4.58731">
        <ele>674.4</ele>
        <time>2025-09-07T12:28:27Z</time>
      </trkpt>
      <trkpt lat="46.21125" lon="4.5873">
        <ele>674.8</ele>
        <time>2025-09-07T12:28:28Z</time>
      </trkpt>
      <trkpt lat="46.21125" lon="4.5873">
        <ele>675</ele>
        <time>2025-09-07T12:28:29Z</time>
      </trkpt>
      <trkpt lat="46.21126" lon="4.58729">
        <ele>675.4</ele>
        <time>2025-09-07T12:28:30Z</time>
      </trkpt>
      <trkpt lat="46.21126" lon="4.58728">
        <ele>675.4</ele>
        <time>2025-09-07T12:28:31Z</time>
      </trkpt>
      <trkpt lat="46.21126" lon="4.58727">
        <ele>675.4</ele>
        <time>2025-09-07T12:28:32Z</time>
      </trkpt>
      <trkpt lat="46.21126" lon="4.58725">
        <ele>675.4</ele>
        <time>2025-09-07T12:28:33Z</time>
      </trkpt>
      <trkpt lat="46.21127" lon="4.58724">
        <ele>675.6</ele>
        <time>2025-09-07T12:28:34Z</time>
      </trkpt>
      <trkpt lat="46.21127" lon="4.58723">
        <ele>676</ele>
        <time>2025-09-07T12:28:35Z</time>
      </trkpt>
      <trkpt lat="46.21127" lon="4.58722">
        <ele>676</ele>
        <time>2025-09-07T12:28:36Z</time>
      </trkpt>
      <trkpt lat="46.21128" lon="4.5872">
        <ele>676</ele>
        <time>2025-09-07T12:28:37Z</time>
      </trkpt>
      <trkpt lat="46.21128" lon="4.58719">
        <ele>676.2</ele>
        <time>2025-09-07T12:28:38Z</time>
      </trkpt>
      <trkpt lat="46.21128" lon="4.58717">
        <ele>676.2</ele>
        <time>2025-09-07T12:28:39Z</time>
      </trkpt>
      <trkpt lat="46.21128" lon="4.58716">
        <ele>676.4</ele>
        <time>2025-09-07T12:28:40Z</time>
      </trkpt>
      <trkpt lat="46.21128" lon="4.58715">
        <ele>676.4</ele>
        <time>2025-09-07T12:28:41Z</time>
      </trkpt>
      <trkpt lat="46.21127" lon="4.58714">
        <ele>676.4</ele>
        <time>2025-09-07T12:28:42Z</time>
      </trkpt>
      <trkpt lat="46.21127" lon="4.58713">
        <ele>676.8</ele>
        <time>2025-09-07T12:28:43Z</time>
      </trkpt>
      <trkpt lat="46.21127" lon="4.58712">
        <ele>676.8</ele>
        <time>2025-09-07T12:28:44Z</time>
      </trkpt>
      <trkpt lat="46.21127" lon="4.58711">
        <ele>677.6</ele>
        <time>2025-09-07T12:28:45Z</time>
      </trkpt>
      <trkpt lat="46.21127" lon="4.5871">
        <ele>677.6</ele>
        <time>2025-09-07T12:28:46Z</time>
      </trkpt>
      <trkpt lat="46.21127" lon="4.58709">
        <ele>677.6</ele>
        <time>2025-09-07T12:28:47Z</time>
      </trkpt>
      <trkpt lat="46.21126" lon="4.58708">
        <ele>677.6</ele>
        <time>2025-09-07T12:28:48Z</time>
      </trkpt>
      <trkpt lat="46.21126" lon="4.58706">
        <ele>677.6</ele>
        <time>2025-09-07T12:28:49Z</time>
      </trkpt>
      <trkpt lat="46.21127" lon="4.58705">
        <ele>677.4</ele>
        <time>2025-09-07T12:28:50Z</time>
      </trkpt>
      <trkpt lat="46.21126" lon="4.58704">
        <ele>677.6</ele>
        <time>2025-09-07T12:28:51Z</time>
      </trkpt>
      <trkpt lat="46.21126" lon="4.58703">
        <ele>678</ele>
        <time>2025-09-07T12:28:52Z</time>
      </trkpt>
      <trkpt lat="46.21126" lon="4.58701">
        <ele>678.2</ele>
        <time>2025-09-07T12:28:53Z</time>
      </trkpt>
      <trkpt lat="46.21126" lon="4.587">
        <ele>678.2</ele>
        <time>2025-09-07T12:28:54Z</time>
      </trkpt>
      <trkpt lat="46.21126" lon="4.58699">
        <ele>678.6</ele>
        <time>2025-09-07T12:28:55Z</time>
      </trkpt>
      <trkpt lat="46.21127" lon="4.58698">
        <ele>678.6</ele>
        <time>2025-09-07T12:28:56Z</time>
      </trkpt>
      <trkpt lat="46.21127" lon="4.58697">
        <ele>679</ele>
        <time>2025-09-07T12:28:57Z</time>
      </trkpt>
      <trkpt lat="46.21127" lon="4.58695">
        <ele>679</ele>
        <time>2025-09-07T12:28:58Z</time>
      </trkpt>
      <trkpt lat="46.21127" lon="4.58694">
        <ele>679</ele>
        <time>2025-09-07T12:28:59Z</time>
      </trkpt>
      <trkpt lat="46.21127" lon="4.58693">
        <ele>679.2</ele>
        <time>2025-09-07T12:29:00Z</time>
      </trkpt>
      <trkpt lat="46.21127" lon="4.58691">
        <ele>679.4</ele>
        <time>2025-09-07T12:29:01Z</time>
      </trkpt>
      <trkpt lat="46.21127" lon="4.5869">
        <ele>679.4</ele>
        <time>2025-09-07T12:29:02Z</time>
      </trkpt>
      <trkpt lat="46.21127" lon="4.58689">
        <ele>679.6</ele>
        <time>2025-09-07T12:29:03Z</time>
      </trkpt>
      <trkpt lat="46.21127" lon="4.58688">
        <ele>679.6</ele>
        <time>2025-09-07T12:29:04Z</time>
      </trkpt>
      <trkpt lat="46.21127" lon="4.58687">
        <ele>679.6</ele>
        <time>2025-09-07T12:29:05Z</time>
      </trkpt>
      <trkpt lat="46.21127" lon="4.58688">
        <ele>679.8</ele>
        <time>2025-09-07T12:29:06Z</time>
      </trkpt>
      <trkpt lat="46.21125" lon="4.58688">
        <ele>679.6</ele>
        <time>2025-09-07T12:29:18Z</time>
      </trkpt>
      <trkpt lat="46.21125" lon="4.58687">
        <ele>679.6</ele>
        <time>2025-09-07T12:29:19Z</time>
      </trkpt>
      <trkpt lat="46.21125" lon="4.58687">
        <ele>679.6</ele>
        <time>2025-09-07T12:29:20Z</time>
      </trkpt>
      <trkpt lat="46.21124" lon="4.58687">
        <ele>679.6</ele>
        <time>2025-09-07T12:29:21Z</time>
      </trkpt>
      <trkpt lat="46.21124" lon="4.58686">
        <ele>679.6</ele>
        <time>2025-09-07T12:29:26Z</time>
      </trkpt>
      <trkpt lat="46.21125" lon="4.58683">
        <ele>679.6</ele>
        <time>2025-09-07T12:29:27Z</time>
      </trkpt>
      <trkpt lat="46.21125" lon="4.58681">
        <ele>679.6</ele>
        <time>2025-09-07T12:29:28Z</time>
      </trkpt>
      <trkpt lat="46.21125" lon="4.58679">
        <ele>680</ele>
        <time>2025-09-07T12:29:29Z</time>
      </trkpt>
      <trkpt lat="46.21124" lon="4.58677">
        <ele>680</ele>
        <time>2025-09-07T12:29:30Z</time>
      </trkpt>
      <trkpt lat="46.21124" lon="4.58675">
        <ele>680</ele>
        <time>2025-09-07T12:29:31Z</time>
      </trkpt>
      <trkpt lat="46.21124" lon="4.58672">
        <ele>680</ele>
        <time>2025-09-07T12:29:32Z</time>
      </trkpt>
      <trkpt lat="46.21124" lon="4.58669">
        <ele>680</ele>
        <time>2025-09-07T12:29:33Z</time>
      </trkpt>
      <trkpt lat="46.21124" lon="4.58666">
        <ele>680</ele>
        <time>2025-09-07T12:29:34Z</time>
      </trkpt>
      <trkpt lat="46.21124" lon="4.58663">
        <ele>680</ele>
        <time>2025-09-07T12:29:35Z</time>
      </trkpt>
      <trkpt lat="46.21124" lon="4.5866">
        <ele>680</ele>
        <time>2025-09-07T12:29:36Z</time>
      </trkpt>
      <trkpt lat="46.21125" lon="4.58657">
        <ele>680.2</ele>
        <time>2025-09-07T12:29:37Z</time>
      </trkpt>
      <trkpt lat="46.21124" lon="4.58654">
        <ele>680.2</ele>
        <time>2025-09-07T12:29:38Z</time>
      </trkpt>
      <trkpt lat="46.21124" lon="4.58652">
        <ele>680.2</ele>
        <time>2025-09-07T12:29:39Z</time>
      </trkpt>
      <trkpt lat="46.21123" lon="4.58649">
        <ele>680</ele>
        <time>2025-09-07T12:29:40Z</time>
      </trkpt>
      <trkpt lat="46.21122" lon="4.58646">
        <ele>680</ele>
        <time>2025-09-07T12:29:41Z</time>
      </trkpt>
      <trkpt lat="46.21121" lon="4.58644">
        <ele>680.6</ele>
        <time>2025-09-07T12:29:42Z</time>
      </trkpt>
      <trkpt lat="46.2112" lon="4.58642">
        <ele>680.8</ele>
        <time>2025-09-07T12:29:43Z</time>
      </trkpt>
      <trkpt lat="46.21119" lon="4.5864">
        <ele>681</ele>
        <time>2025-09-07T12:29:44Z</time>
      </trkpt>
      <trkpt lat="46.21119" lon="4.58637">
        <ele>681.4</ele>
        <time>2025-09-07T12:29:45Z</time>
      </trkpt>
      <trkpt lat="46.21119" lon="4.58634">
        <ele>681.4</ele>
        <time>2025-09-07T12:29:46Z</time>
      </trkpt>
      <trkpt lat="46.21118" lon="4.58632">
        <ele>681.8</ele>
        <time>2025-09-07T12:29:47Z</time>
      </trkpt>
      <trkpt lat="46.21118" lon="4.5863">
        <ele>682</ele>
        <time>2025-09-07T12:29:48Z</time>
      </trkpt>
      <trkpt lat="46.21117" lon="4.58627">
        <ele>682</ele>
        <time>2025-09-07T12:29:49Z</time>
      </trkpt>
      <trkpt lat="46.21117" lon="4.58625">
        <ele>682</ele>
        <time>2025-09-07T12:29:50Z</time>
      </trkpt>
      <trkpt lat="46.21118" lon="4.58622">
        <ele>682</ele>
        <time>2025-09-07T12:29:51Z</time>
      </trkpt>
      <trkpt lat="46.21118" lon="4.5862">
        <ele>682</ele>
        <time>2025-09-07T12:29:52Z</time>
      </trkpt>
      <trkpt lat="46.21118" lon="4.58618">
        <ele>682</ele>
        <time>2025-09-07T12:29:53Z</time>
      </trkpt>
      <trkpt lat="46.21119" lon="4.58615">
        <ele>682.2</ele>
        <time>2025-09-07T12:29:54Z</time>
      </trkpt>
      <trkpt lat="46.21118" lon="4.58614">
        <ele>682.2</ele>
        <time>2025-09-07T12:29:55Z</time>
      </trkpt>
      <trkpt lat="46.21118" lon="4.58612">
        <ele>682.2</ele>
        <time>2025-09-07T12:29:56Z</time>
      </trkpt>
      <trkpt lat="46.21118" lon="4.58609">
        <ele>682.2</ele>
        <time>2025-09-07T12:29:57Z</time>
      </trkpt>
      <trkpt lat="46.21118" lon="4.58606">
        <ele>682.2</ele>
        <time>2025-09-07T12:29:58Z</time>
      </trkpt>
      <trkpt lat="46.21117" lon="4.58604">
        <ele>682.2</ele>
        <time>2025-09-07T12:29:59Z</time>
      </trkpt>
      <trkpt lat="46.21115" lon="4.58602">
        <ele>682.2</ele>
        <time>2025-09-07T12:30:00Z</time>
      </trkpt>
      <trkpt lat="46.21113" lon="4.586">
        <ele>682.2</ele>
        <time>2025-09-07T12:30:01Z</time>
      </trkpt>
      <trkpt lat="46.21113" lon="4.58598">
        <ele>682.6</ele>
        <time>2025-09-07T12:30:02Z</time>
      </trkpt>
      <trkpt lat="46.21112" lon="4.58594">
        <ele>682.6</ele>
        <time>2025-09-07T12:30:03Z</time>
      </trkpt>
      <trkpt lat="46.21112" lon="4.58591">
        <ele>682.6</ele>
        <time>2025-09-07T12:30:04Z</time>
      </trkpt>
      <trkpt lat="46.21112" lon="4.58589">
        <ele>682.8</ele>
        <time>2025-09-07T12:30:05Z</time>
      </trkpt>
      <trkpt lat="46.21112" lon="4.58586">
        <ele>682.8</ele>
        <time>2025-09-07T12:30:06Z</time>
      </trkpt>
      <trkpt lat="46.21112" lon="4.58582">
        <ele>682.8</ele>
        <time>2025-09-07T12:30:07Z</time>
      </trkpt>
      <trkpt lat="46.21112" lon="4.58577">
        <ele>682.8</ele>
        <time>2025-09-07T12:30:08Z</time>
      </trkpt>
      <trkpt lat="46.21111" lon="4.58573">
        <ele>683</ele>
        <time>2025-09-07T12:30:09Z</time>
      </trkpt>
      <trkpt lat="46.21111" lon="4.58569">
        <ele>683.6</ele>
        <time>2025-09-07T12:30:10Z</time>
      </trkpt>
      <trkpt lat="46.21111" lon="4.58566">
        <ele>683.6</ele>
        <time>2025-09-07T12:30:11Z</time>
      </trkpt>
      <trkpt lat="46.21111" lon="4.58564">
        <ele>683.6</ele>
        <time>2025-09-07T12:30:12Z</time>
      </trkpt>
      <trkpt lat="46.21112" lon="4.58561">
        <ele>683.6</ele>
        <time>2025-09-07T12:30:13Z</time>
      </trkpt>
      <trkpt lat="46.21112" lon="4.58558">
        <ele>683.6</ele>
        <time>2025-09-07T12:30:14Z</time>
      </trkpt>
      <trkpt lat="46.21113" lon="4.58554">
        <ele>683.8</ele>
        <time>2025-09-07T12:30:15Z</time>
      </trkpt>
      <trkpt lat="46.21113" lon="4.58549">
        <ele>683.8</ele>
        <time>2025-09-07T12:30:16Z</time>
      </trkpt>
      <trkpt lat="46.21113" lon="4.58546">
        <ele>683.8</ele>
        <time>2025-09-07T12:30:17Z</time>
      </trkpt>
      <trkpt lat="46.21112" lon="4.58543">
        <ele>683.8</ele>
        <time>2025-09-07T12:30:18Z</time>
      </trkpt>
      <trkpt lat="46.21111" lon="4.5854">
        <ele>683.8</ele>
        <time>2025-09-07T12:30:19Z</time>
      </trkpt>
      <trkpt lat="46.21111" lon="4.58537">
        <ele>683.8</ele>
        <time>2025-09-07T12:30:20Z</time>
      </trkpt>
      <trkpt lat="46.2111" lon="4.58534">
        <ele>683.8</ele>
        <time>2025-09-07T12:30:21Z</time>
      </trkpt>
      <trkpt lat="46.21109" lon="4.58531">
        <ele>683.8</ele>
        <time>2025-09-07T12:30:22Z</time>
      </trkpt>
      <trkpt lat="46.21108" lon="4.58527">
        <ele>683.8</ele>
        <time>2025-09-07T12:30:23Z</time>
      </trkpt>
      <trkpt lat="46.21107" lon="4.58522">
        <ele>683.8</ele>
        <time>2025-09-07T12:30:24Z</time>
      </trkpt>
      <trkpt lat="46.21105" lon="4.58516">
        <ele>684</ele>
        <time>2025-09-07T12:30:25Z</time>
      </trkpt>
      <trkpt lat="46.21104" lon="4.58511">
        <ele>684</ele>
        <time>2025-09-07T12:30:26Z</time>
      </trkpt>
      <trkpt lat="46.21103" lon="4.58507">
        <ele>684</ele>
        <time>2025-09-07T12:30:27Z</time>
      </trkpt>
      <trkpt lat="46.21102" lon="4.58502">
        <ele>684.4</ele>
        <time>2025-09-07T12:30:28Z</time>
      </trkpt>
      <trkpt lat="46.21101" lon="4.58497">
        <ele>684.4</ele>
        <time>2025-09-07T12:30:29Z</time>
      </trkpt>
      <trkpt lat="46.21101" lon="4.58492">
        <ele>684</ele>
        <time>2025-09-07T12:30:30Z</time>
      </trkpt>
      <trkpt lat="46.21101" lon="4.58487">
        <ele>684</ele>
        <time>2025-09-07T12:30:31Z</time>
      </trkpt>
      <trkpt lat="46.21101" lon="4.58482">
        <ele>684.4</ele>
        <time>2025-09-07T12:30:32Z</time>
      </trkpt>
      <trkpt lat="46.21101" lon="4.58475">
        <ele>684.4</ele>
        <time>2025-09-07T12:30:33Z</time>
      </trkpt>
      <trkpt lat="46.21101" lon="4.58471">
        <ele>684.4</ele>
        <time>2025-09-07T12:30:34Z</time>
      </trkpt>
      <trkpt lat="46.211" lon="4.58467">
        <ele>684.4</ele>
        <time>2025-09-07T12:30:35Z</time>
      </trkpt>
      <trkpt lat="46.211" lon="4.58462">
        <ele>684</ele>
        <time>2025-09-07T12:30:36Z</time>
      </trkpt>
      <trkpt lat="46.21101" lon="4.58458">
        <ele>684</ele>
        <time>2025-09-07T12:30:37Z</time>
      </trkpt>
      <trkpt lat="46.21101" lon="4.58454">
        <ele>684</ele>
        <time>2025-09-07T12:30:38Z</time>
      </trkpt>
      <trkpt lat="46.21102" lon="4.5845">
        <ele>684</ele>
        <time>2025-09-07T12:30:39Z</time>
      </trkpt>
      <trkpt lat="46.21102" lon="4.58445">
        <ele>683.6</ele>
        <time>2025-09-07T12:30:40Z</time>
      </trkpt>
      <trkpt lat="46.21102" lon="4.5844">
        <ele>683.8</ele>
        <time>2025-09-07T12:30:41Z</time>
      </trkpt>
      <trkpt lat="46.21103" lon="4.58435">
        <ele>685</ele>
        <time>2025-09-07T12:30:42Z</time>
      </trkpt>
      <trkpt lat="46.21102" lon="4.58429">
        <ele>684.6</ele>
        <time>2025-09-07T12:30:43Z</time>
      </trkpt>
      <trkpt lat="46.21102" lon="4.58423">
        <ele>684.4</ele>
        <time>2025-09-07T12:30:44Z</time>
      </trkpt>
      <trkpt lat="46.21102" lon="4.58418">
        <ele>684.2</ele>
        <time>2025-09-07T12:30:45Z</time>
      </trkpt>
      <trkpt lat="46.21101" lon="4.58402">
        <ele>685.4</ele>
        <time>2025-09-07T12:30:46Z</time>
      </trkpt>
      <trkpt lat="46.21102" lon="4.58397">
        <ele>684.8</ele>
        <time>2025-09-07T12:30:47Z</time>
      </trkpt>
      <trkpt lat="46.21103" lon="4.58392">
        <ele>684.6</ele>
        <time>2025-09-07T12:30:48Z</time>
      </trkpt>
      <trkpt lat="46.21103" lon="4.58387">
        <ele>684.4</ele>
        <time>2025-09-07T12:30:49Z</time>
      </trkpt>
      <trkpt lat="46.21103" lon="4.58383">
        <ele>684.4</ele>
        <time>2025-09-07T12:30:50Z</time>
      </trkpt>
      <trkpt lat="46.21102" lon="4.58376">
        <ele>684.4</ele>
        <time>2025-09-07T12:30:51Z</time>
      </trkpt>
      <trkpt lat="46.21102" lon="4.58371">
        <ele>684.2</ele>
        <time>2025-09-07T12:30:52Z</time>
      </trkpt>
      <trkpt lat="46.21102" lon="4.58365">
        <ele>684.2</ele>
        <time>2025-09-07T12:30:53Z</time>
      </trkpt>
      <trkpt lat="46.21101" lon="4.58361">
        <ele>684.2</ele>
        <time>2025-09-07T12:30:54Z</time>
      </trkpt>
      <trkpt lat="46.21101" lon="4.58355">
        <ele>684.2</ele>
        <time>2025-09-07T12:30:55Z</time>
      </trkpt>
      <trkpt lat="46.21102" lon="4.58351">
        <ele>684.4</ele>
        <time>2025-09-07T12:30:56Z</time>
      </trkpt>
      <trkpt lat="46.21102" lon="4.58349">
        <ele>684.8</ele>
        <time>2025-09-07T12:30:57Z</time>
      </trkpt>
      <trkpt lat="46.21103" lon="4.58344">
        <ele>684.8</ele>
        <time>2025-09-07T12:30:58Z</time>
      </trkpt>
      <trkpt lat="46.21103" lon="4.5834">
        <ele>684.4</ele>
        <time>2025-09-07T12:30:59Z</time>
      </trkpt>
      <trkpt lat="46.21104" lon="4.58337">
        <ele>685.2</ele>
        <time>2025-09-07T12:31:00Z</time>
      </trkpt>
      <trkpt lat="46.21104" lon="4.58333">
        <ele>685.2</ele>
        <time>2025-09-07T12:31:01Z</time>
      </trkpt>
      <trkpt lat="46.21105" lon="4.58329">
        <ele>685.2</ele>
        <time>2025-09-07T12:31:02Z</time>
      </trkpt>
      <trkpt lat="46.21105" lon="4.58326">
        <ele>685.4</ele>
        <time>2025-09-07T12:31:03Z</time>
      </trkpt>
      <trkpt lat="46.21105" lon="4.58322">
        <ele>685.4</ele>
        <time>2025-09-07T12:31:04Z</time>
      </trkpt>
      <trkpt lat="46.21106" lon="4.58319">
        <ele>685.4</ele>
        <time>2025-09-07T12:31:05Z</time>
      </trkpt>
      <trkpt lat="46.21107" lon="4.58315">
        <ele>685.4</ele>
        <time>2025-09-07T12:31:06Z</time>
      </trkpt>
      <trkpt lat="46.21107" lon="4.58313">
        <ele>685.4</ele>
        <time>2025-09-07T12:31:07Z</time>
      </trkpt>
      <trkpt lat="46.21106" lon="4.5831">
        <ele>685.4</ele>
        <time>2025-09-07T12:31:08Z</time>
      </trkpt>
      <trkpt lat="46.21105" lon="4.58307">
        <ele>685.2</ele>
        <time>2025-09-07T12:31:09Z</time>
      </trkpt>
      <trkpt lat="46.21105" lon="4.58303">
        <ele>685.2</ele>
        <time>2025-09-07T12:31:10Z</time>
      </trkpt>
      <trkpt lat="46.21104" lon="4.583">
        <ele>685.2</ele>
        <time>2025-09-07T12:31:11Z</time>
      </trkpt>
      <trkpt lat="46.21104" lon="4.58298">
        <ele>685.2</ele>
        <time>2025-09-07T12:31:12Z</time>
      </trkpt>
      <trkpt lat="46.21104" lon="4.58297">
        <ele>685.6</ele>
        <time>2025-09-07T12:31:13Z</time>
      </trkpt>
      <trkpt lat="46.21103" lon="4.58296">
        <ele>685.6</ele>
        <time>2025-09-07T12:31:14Z</time>
      </trkpt>
      <trkpt lat="46.21103" lon="4.58295">
        <ele>686</ele>
        <time>2025-09-07T12:31:15Z</time>
      </trkpt>
      <trkpt lat="46.211" lon="4.58289">
        <ele>685</ele>
        <time>2025-09-07T12:31:52Z</time>
      </trkpt>
      <trkpt lat="46.21099" lon="4.58288">
        <ele>685</ele>
        <time>2025-09-07T12:31:53Z</time>
      </trkpt>
      <trkpt lat="46.21099" lon="4.58286">
        <ele>685</ele>
        <time>2025-09-07T12:31:54Z</time>
      </trkpt>
      <trkpt lat="46.21099" lon="4.58285">
        <ele>685</ele>
        <time>2025-09-07T12:31:55Z</time>
      </trkpt>
      <trkpt lat="46.211" lon="4.58284">
        <ele>685.2</ele>
        <time>2025-09-07T12:31:56Z</time>
      </trkpt>
      <trkpt lat="46.211" lon="4.58282">
        <ele>685.2</ele>
        <time>2025-09-07T12:31:57Z</time>
      </trkpt>
      <trkpt lat="46.211" lon="4.58279">
        <ele>685.6</ele>
        <time>2025-09-07T12:31:58Z</time>
      </trkpt>
      <trkpt lat="46.211" lon="4.58277">
        <ele>685.8</ele>
        <time>2025-09-07T12:31:59Z</time>
      </trkpt>
      <trkpt lat="46.211" lon="4.58275">
        <ele>685.8</ele>
        <time>2025-09-07T12:32:00Z</time>
      </trkpt>
      <trkpt lat="46.211" lon="4.58272">
        <ele>685.8</ele>
        <time>2025-09-07T12:32:01Z</time>
      </trkpt>
      <trkpt lat="46.211" lon="4.58269">
        <ele>685.8</ele>
        <time>2025-09-07T12:32:02Z</time>
      </trkpt>
      <trkpt lat="46.211" lon="4.58267">
        <ele>686</ele>
        <time>2025-09-07T12:32:03Z</time>
      </trkpt>
      <trkpt lat="46.211" lon="4.58264">
        <ele>686.4</ele>
        <time>2025-09-07T12:32:04Z</time>
      </trkpt>
      <trkpt lat="46.21098" lon="4.58262">
        <ele>686.4</ele>
        <time>2025-09-07T12:32:05Z</time>
      </trkpt>
      <trkpt lat="46.21097" lon="4.58258">
        <ele>686.4</ele>
        <time>2025-09-07T12:32:06Z</time>
      </trkpt>
      <trkpt lat="46.21096" lon="4.58255">
        <ele>686.6</ele>
        <time>2025-09-07T12:32:07Z</time>
      </trkpt>
      <trkpt lat="46.21096" lon="4.58253">
        <ele>686.6</ele>
        <time>2025-09-07T12:32:08Z</time>
      </trkpt>
      <trkpt lat="46.21096" lon="4.58252">
        <ele>687</ele>
        <time>2025-09-07T12:32:09Z</time>
      </trkpt>
      <trkpt lat="46.21096" lon="4.58251">
        <ele>687</ele>
        <time>2025-09-07T12:32:10Z</time>
      </trkpt>
      <trkpt lat="46.21096" lon="4.5825">
        <ele>687.2</ele>
        <time>2025-09-07T12:32:11Z</time>
      </trkpt>
      <trkpt lat="46.2109" lon="4.58247">
        <ele>687.4</ele>
        <time>2025-09-07T12:32:31Z</time>
      </trkpt>
      <trkpt lat="46.21089" lon="4.58245">
        <ele>687.2</ele>
        <time>2025-09-07T12:32:32Z</time>
      </trkpt>
      <trkpt lat="46.2109" lon="4.58244">
        <ele>686.8</ele>
        <time>2025-09-07T12:32:33Z</time>
      </trkpt>
      <trkpt lat="46.21089" lon="4.58241">
        <ele>686.4</ele>
        <time>2025-09-07T12:32:34Z</time>
      </trkpt>
      <trkpt lat="46.21089" lon="4.58237">
        <ele>686.4</ele>
        <time>2025-09-07T12:32:35Z</time>
      </trkpt>
      <trkpt lat="46.21088" lon="4.58234">
        <ele>687</ele>
        <time>2025-09-07T12:32:36Z</time>
      </trkpt>
      <trkpt lat="46.21088" lon="4.58231">
        <ele>687</ele>
        <time>2025-09-07T12:32:37Z</time>
      </trkpt>
      <trkpt lat="46.21088" lon="4.58229">
        <ele>687.6</ele>
        <time>2025-09-07T12:32:38Z</time>
      </trkpt>
      <trkpt lat="46.21088" lon="4.58226">
        <ele>687.6</ele>
        <time>2025-09-07T12:32:39Z</time>
      </trkpt>
      <trkpt lat="46.21088" lon="4.58223">
        <ele>687.6</ele>
        <time>2025-09-07T12:32:40Z</time>
      </trkpt>
      <trkpt lat="46.21087" lon="4.5822">
        <ele>687.8</ele>
        <time>2025-09-07T12:32:41Z</time>
      </trkpt>
      <trkpt lat="46.21086" lon="4.58217">
        <ele>687.8</ele>
        <time>2025-09-07T12:32:42Z</time>
      </trkpt>
      <trkpt lat="46.21086" lon="4.58213">
        <ele>687.8</ele>
        <time>2025-09-07T12:32:43Z</time>
      </trkpt>
      <trkpt lat="46.21085" lon="4.5821">
        <ele>687.2</ele>
        <time>2025-09-07T12:32:44Z</time>
      </trkpt>
      <trkpt lat="46.21084" lon="4.58206">
        <ele>687.2</ele>
        <time>2025-09-07T12:32:45Z</time>
      </trkpt>
      <trkpt lat="46.21083" lon="4.58203">
        <ele>687.4</ele>
        <time>2025-09-07T12:32:46Z</time>
      </trkpt>
      <trkpt lat="46.21081" lon="4.58201">
        <ele>688</ele>
        <time>2025-09-07T12:32:47Z</time>
      </trkpt>
      <trkpt lat="46.21081" lon="4.58199">
        <ele>688</ele>
        <time>2025-09-07T12:32:48Z</time>
      </trkpt>
      <trkpt lat="46.2108" lon="4.58196">
        <ele>688.6</ele>
        <time>2025-09-07T12:32:49Z</time>
      </trkpt>
      <trkpt lat="46.2108" lon="4.58194">
        <ele>688.6</ele>
        <time>2025-09-07T12:32:50Z</time>
      </trkpt>
      <trkpt lat="46.2108" lon="4.58191">
        <ele>688.6</ele>
        <time>2025-09-07T12:32:51Z</time>
      </trkpt>
      <trkpt lat="46.2108" lon="4.58188">
        <ele>688.6</ele>
        <time>2025-09-07T12:32:52Z</time>
      </trkpt>
      <trkpt lat="46.2108" lon="4.58185">
        <ele>688.6</ele>
        <time>2025-09-07T12:32:53Z</time>
      </trkpt>
      <trkpt lat="46.21079" lon="4.5818">
        <ele>688.6</ele>
        <time>2025-09-07T12:32:54Z</time>
      </trkpt>
      <trkpt lat="46.21078" lon="4.58177">
        <ele>688.6</ele>
        <time>2025-09-07T12:32:55Z</time>
      </trkpt>
      <trkpt lat="46.21076" lon="4.58174">
        <ele>688.6</ele>
        <time>2025-09-07T12:32:56Z</time>
      </trkpt>
      <trkpt lat="46.21075" lon="4.58172">
        <ele>689</ele>
        <time>2025-09-07T12:32:57Z</time>
      </trkpt>
      <trkpt lat="46.21074" lon="4.5817">
        <ele>689.2</ele>
        <time>2025-09-07T12:32:58Z</time>
      </trkpt>
      <trkpt lat="46.21074" lon="4.58168">
        <ele>689.6</ele>
        <time>2025-09-07T12:32:59Z</time>
      </trkpt>
      <trkpt lat="46.21074" lon="4.58165">
        <ele>689.6</ele>
        <time>2025-09-07T12:33:00Z</time>
      </trkpt>
      <trkpt lat="46.21074" lon="4.58162">
        <ele>689.8</ele>
        <time>2025-09-07T12:33:01Z</time>
      </trkpt>
      <trkpt lat="46.21074" lon="4.58159">
        <ele>689.8</ele>
        <time>2025-09-07T12:33:02Z</time>
      </trkpt>
      <trkpt lat="46.21073" lon="4.58156">
        <ele>690.2</ele>
        <time>2025-09-07T12:33:03Z</time>
      </trkpt>
      <trkpt lat="46.21073" lon="4.58154">
        <ele>690.4</ele>
        <time>2025-09-07T12:33:04Z</time>
      </trkpt>
      <trkpt lat="46.21073" lon="4.58153">
        <ele>690.4</ele>
        <time>2025-09-07T12:33:05Z</time>
      </trkpt>
      <trkpt lat="46.21073" lon="4.5815">
        <ele>690.4</ele>
        <time>2025-09-07T12:33:06Z</time>
      </trkpt>
      <trkpt lat="46.21072" lon="4.58148">
        <ele>690.4</ele>
        <time>2025-09-07T12:33:07Z</time>
      </trkpt>
      <trkpt lat="46.21071" lon="4.58144">
        <ele>690.4</ele>
        <time>2025-09-07T12:33:08Z</time>
      </trkpt>
      <trkpt lat="46.2107" lon="4.5814">
        <ele>690.4</ele>
        <time>2025-09-07T12:33:09Z</time>
      </trkpt>
      <trkpt lat="46.21069" lon="4.58138">
        <ele>690.4</ele>
        <time>2025-09-07T12:33:10Z</time>
      </trkpt>
      <trkpt lat="46.21068" lon="4.58135">
        <ele>690.4</ele>
        <time>2025-09-07T12:33:11Z</time>
      </trkpt>
      <trkpt lat="46.21067" lon="4.58133">
        <ele>690.8</ele>
        <time>2025-09-07T12:33:12Z</time>
      </trkpt>
      <trkpt lat="46.21065" lon="4.58131">
        <ele>690.8</ele>
        <time>2025-09-07T12:33:13Z</time>
      </trkpt>
      <trkpt lat="46.21064" lon="4.5813">
        <ele>691</ele>
        <time>2025-09-07T12:33:14Z</time>
      </trkpt>
      <trkpt lat="46.21063" lon="4.58128">
        <ele>691</ele>
        <time>2025-09-07T12:33:15Z</time>
      </trkpt>
      <trkpt lat="46.21062" lon="4.58125">
        <ele>691</ele>
        <time>2025-09-07T12:33:16Z</time>
      </trkpt>
      <trkpt lat="46.21062" lon="4.58123">
        <ele>691</ele>
        <time>2025-09-07T12:33:17Z</time>
      </trkpt>
      <trkpt lat="46.21062" lon="4.5812">
        <ele>691.2</ele>
        <time>2025-09-07T12:33:18Z</time>
      </trkpt>
      <trkpt lat="46.21061" lon="4.58118">
        <ele>691.6</ele>
        <time>2025-09-07T12:33:19Z</time>
      </trkpt>
      <trkpt lat="46.21061" lon="4.58116">
        <ele>691.6</ele>
        <time>2025-09-07T12:33:20Z</time>
      </trkpt>
      <trkpt lat="46.21061" lon="4.58113">
        <ele>691.6</ele>
        <time>2025-09-07T12:33:21Z</time>
      </trkpt>
      <trkpt lat="46.2106" lon="4.58111">
        <ele>691.6</ele>
        <time>2025-09-07T12:33:22Z</time>
      </trkpt>
      <trkpt lat="46.21059" lon="4.58109">
        <ele>691.6</ele>
        <time>2025-09-07T12:33:23Z</time>
      </trkpt>
      <trkpt lat="46.21058" lon="4.58107">
        <ele>691.6</ele>
        <time>2025-09-07T12:33:24Z</time>
      </trkpt>
      <trkpt lat="46.21058" lon="4.58105">
        <ele>691.8</ele>
        <time>2025-09-07T12:33:25Z</time>
      </trkpt>
      <trkpt lat="46.21057" lon="4.58104">
        <ele>692</ele>
        <time>2025-09-07T12:33:26Z</time>
      </trkpt>
      <trkpt lat="46.21056" lon="4.58102">
        <ele>692</ele>
        <time>2025-09-07T12:33:27Z</time>
      </trkpt>
      <trkpt lat="46.21055" lon="4.581">
        <ele>692.4</ele>
        <time>2025-09-07T12:33:28Z</time>
      </trkpt>
      <trkpt lat="46.21054" lon="4.58099">
        <ele>693</ele>
        <time>2025-09-07T12:33:29Z</time>
      </trkpt>
      <trkpt lat="46.21053" lon="4.58098">
        <ele>693</ele>
        <time>2025-09-07T12:33:30Z</time>
      </trkpt>
      <trkpt lat="46.21052" lon="4.58097">
        <ele>693</ele>
        <time>2025-09-07T12:33:31Z</time>
      </trkpt>
      <trkpt lat="46.21051" lon="4.58096">
        <ele>693.4</ele>
        <time>2025-09-07T12:33:32Z</time>
      </trkpt>
      <trkpt lat="46.2105" lon="4.58095">
        <ele>693.4</ele>
        <time>2025-09-07T12:33:33Z</time>
      </trkpt>
      <trkpt lat="46.21049" lon="4.58094">
        <ele>693.6</ele>
        <time>2025-09-07T12:33:34Z</time>
      </trkpt>
      <trkpt lat="46.21048" lon="4.58092">
        <ele>693.4</ele>
        <time>2025-09-07T12:33:35Z</time>
      </trkpt>
      <trkpt lat="46.21048" lon="4.5809">
        <ele>693.4</ele>
        <time>2025-09-07T12:33:36Z</time>
      </trkpt>
      <trkpt lat="46.21047" lon="4.58088">
        <ele>693</ele>
        <time>2025-09-07T12:33:37Z</time>
      </trkpt>
      <trkpt lat="46.21046" lon="4.58086">
        <ele>693</ele>
        <time>2025-09-07T12:33:38Z</time>
      </trkpt>
      <trkpt lat="46.21046" lon="4.58084">
        <ele>693</ele>
        <time>2025-09-07T12:33:39Z</time>
      </trkpt>
      <trkpt lat="46.21045" lon="4.58082">
        <ele>693.4</ele>
        <time>2025-09-07T12:33:40Z</time>
      </trkpt>
      <trkpt lat="46.21045" lon="4.5808">
        <ele>693.4</ele>
        <time>2025-09-07T12:33:41Z</time>
      </trkpt>
      <trkpt lat="46.21046" lon="4.58077">
        <ele>693.6</ele>
        <time>2025-09-07T12:33:42Z</time>
      </trkpt>
      <trkpt lat="46.21046" lon="4.58075">
        <ele>693.6</ele>
        <time>2025-09-07T12:33:43Z</time>
      </trkpt>
      <trkpt lat="46.21046" lon="4.58072">
        <ele>693.8</ele>
        <time>2025-09-07T12:33:44Z</time>
      </trkpt>
      <trkpt lat="46.21045" lon="4.5807">
        <ele>693.8</ele>
        <time>2025-09-07T12:33:45Z</time>
      </trkpt>
      <trkpt lat="46.21045" lon="4.58067">
        <ele>693.8</ele>
        <time>2025-09-07T12:33:46Z</time>
      </trkpt>
      <trkpt lat="46.21044" lon="4.58064">
        <ele>693.8</ele>
        <time>2025-09-07T12:33:47Z</time>
      </trkpt>
      <trkpt lat="46.21044" lon="4.58061">
        <ele>694.2</ele>
        <time>2025-09-07T12:33:48Z</time>
      </trkpt>
      <trkpt lat="46.21043" lon="4.58059">
        <ele>694.2</ele>
        <time>2025-09-07T12:33:49Z</time>
      </trkpt>
      <trkpt lat="46.21042" lon="4.58057">
        <ele>694.4</ele>
        <time>2025-09-07T12:33:50Z</time>
      </trkpt>
      <trkpt lat="46.21041" lon="4.58055">
        <ele>694.4</ele>
        <time>2025-09-07T12:33:51Z</time>
      </trkpt>
      <trkpt lat="46.21041" lon="4.58052">
        <ele>694.8</ele>
        <time>2025-09-07T12:33:52Z</time>
      </trkpt>
      <trkpt lat="46.21041" lon="4.5805">
        <ele>694.8</ele>
        <time>2025-09-07T12:33:53Z</time>
      </trkpt>
      <trkpt lat="46.2104" lon="4.58047">
        <ele>695</ele>
        <time>2025-09-07T12:33:54Z</time>
      </trkpt>
      <trkpt lat="46.2104" lon="4.58045">
        <ele>695.4</ele>
        <time>2025-09-07T12:33:55Z</time>
      </trkpt>
      <trkpt lat="46.21039" lon="4.58044">
        <ele>695.4</ele>
        <time>2025-09-07T12:33:56Z</time>
      </trkpt>
      <trkpt lat="46.21039" lon="4.58043">
        <ele>695.4</ele>
        <time>2025-09-07T12:33:57Z</time>
      </trkpt>
      <trkpt lat="46.21038" lon="4.58041">
        <ele>695.4</ele>
        <time>2025-09-07T12:33:58Z</time>
      </trkpt>
      <trkpt lat="46.21037" lon="4.5804">
        <ele>695.8</ele>
        <time>2025-09-07T12:33:59Z</time>
      </trkpt>
      <trkpt lat="46.21036" lon="4.58038">
        <ele>695.8</ele>
        <time>2025-09-07T12:34:00Z</time>
      </trkpt>
      <trkpt lat="46.21036" lon="4.58036">
        <ele>696.2</ele>
        <time>2025-09-07T12:34:01Z</time>
      </trkpt>
      <trkpt lat="46.21035" lon="4.58034">
        <ele>696.4</ele>
        <time>2025-09-07T12:34:02Z</time>
      </trkpt>
      <trkpt lat="46.21035" lon="4.58032">
        <ele>696.4</ele>
        <time>2025-09-07T12:34:03Z</time>
      </trkpt>
      <trkpt lat="46.21034" lon="4.5803">
        <ele>696.4</ele>
        <time>2025-09-07T12:34:04Z</time>
      </trkpt>
      <trkpt lat="46.21033" lon="4.58028">
        <ele>696.4</ele>
        <time>2025-09-07T12:34:05Z</time>
      </trkpt>
      <trkpt lat="46.21032" lon="4.58026">
        <ele>696.4</ele>
        <time>2025-09-07T12:34:06Z</time>
      </trkpt>
      <trkpt lat="46.21032" lon="4.58024">
        <ele>696.6</ele>
        <time>2025-09-07T12:34:07Z</time>
      </trkpt>
      <trkpt lat="46.21031" lon="4.58022">
        <ele>697</ele>
        <time>2025-09-07T12:34:08Z</time>
      </trkpt>
      <trkpt lat="46.2103" lon="4.58021">
        <ele>697</ele>
        <time>2025-09-07T12:34:09Z</time>
      </trkpt>
      <trkpt lat="46.21029" lon="4.58018">
        <ele>697</ele>
        <time>2025-09-07T12:34:10Z</time>
      </trkpt>
      <trkpt lat="46.21029" lon="4.58016">
        <ele>697.2</ele>
        <time>2025-09-07T12:34:11Z</time>
      </trkpt>
      <trkpt lat="46.21027" lon="4.58014">
        <ele>697.2</ele>
        <time>2025-09-07T12:34:12Z</time>
      </trkpt>
      <trkpt lat="46.21026" lon="4.58012">
        <ele>697.2</ele>
        <time>2025-09-07T12:34:13Z</time>
      </trkpt>
      <trkpt lat="46.21026" lon="4.58011">
        <ele>697.4</ele>
        <time>2025-09-07T12:34:14Z</time>
      </trkpt>
      <trkpt lat="46.21026" lon="4.5801">
        <ele>697.6</ele>
        <time>2025-09-07T12:34:15Z</time>
      </trkpt>
      <trkpt lat="46.21026" lon="4.58009">
        <ele>697.6</ele>
        <time>2025-09-07T12:34:16Z</time>
      </trkpt>
      <trkpt lat="46.21025" lon="4.58008">
        <ele>697.6</ele>
        <time>2025-09-07T12:34:17Z</time>
      </trkpt>
      <trkpt lat="46.21025" lon="4.58007">
        <ele>698</ele>
        <time>2025-09-07T12:34:18Z</time>
      </trkpt>
      <trkpt lat="46.21025" lon="4.58006">
        <ele>698</ele>
        <time>2025-09-07T12:34:19Z</time>
      </trkpt>
      <trkpt lat="46.21024" lon="4.58004">
        <ele>698</ele>
        <time>2025-09-07T12:34:20Z</time>
      </trkpt>
      <trkpt lat="46.21024" lon="4.58002">
        <ele>698.4</ele>
        <time>2025-09-07T12:34:21Z</time>
      </trkpt>
      <trkpt lat="46.21023" lon="4.58001">
        <ele>698.4</ele>
        <time>2025-09-07T12:34:22Z</time>
      </trkpt>
      <trkpt lat="46.21022" lon="4.57999">
        <ele>698.8</ele>
        <time>2025-09-07T12:34:23Z</time>
      </trkpt>
      <trkpt lat="46.21022" lon="4.57997">
        <ele>698.8</ele>
        <time>2025-09-07T12:34:24Z</time>
      </trkpt>
      <trkpt lat="46.21021" lon="4.57994">
        <ele>698.8</ele>
        <time>2025-09-07T12:34:25Z</time>
      </trkpt>
      <trkpt lat="46.2102" lon="4.57992">
        <ele>699.2</ele>
        <time>2025-09-07T12:34:26Z</time>
      </trkpt>
      <trkpt lat="46.21019" lon="4.57991">
        <ele>699.4</ele>
        <time>2025-09-07T12:34:27Z</time>
      </trkpt>
      <trkpt lat="46.21019" lon="4.57989">
        <ele>699.6</ele>
        <time>2025-09-07T12:34:28Z</time>
      </trkpt>
      <trkpt lat="46.21018" lon="4.57987">
        <ele>699.8</ele>
        <time>2025-09-07T12:34:29Z</time>
      </trkpt>
      <trkpt lat="46.21018" lon="4.57985">
        <ele>699.8</ele>
        <time>2025-09-07T12:34:30Z</time>
      </trkpt>
      <trkpt lat="46.21018" lon="4.57984">
        <ele>700</ele>
        <time>2025-09-07T12:34:31Z</time>
      </trkpt>
      <trkpt lat="46.21018" lon="4.57982">
        <ele>700</ele>
        <time>2025-09-07T12:34:32Z</time>
      </trkpt>
      <trkpt lat="46.21017" lon="4.57979">
        <ele>700</ele>
        <time>2025-09-07T12:34:33Z</time>
      </trkpt>
      <trkpt lat="46.21015" lon="4.57977">
        <ele>700</ele>
        <time>2025-09-07T12:34:34Z</time>
      </trkpt>
      <trkpt lat="46.21014" lon="4.57976">
        <ele>700</ele>
        <time>2025-09-07T12:34:35Z</time>
      </trkpt>
      <trkpt lat="46.21013" lon="4.57975">
        <ele>700.2</ele>
        <time>2025-09-07T12:34:36Z</time>
      </trkpt>
      <trkpt lat="46.21013" lon="4.57973">
        <ele>700.2</ele>
        <time>2025-09-07T12:34:37Z</time>
      </trkpt>
      <trkpt lat="46.21013" lon="4.5797">
        <ele>700.2</ele>
        <time>2025-09-07T12:34:38Z</time>
      </trkpt>
      <trkpt lat="46.21014" lon="4.57969">
        <ele>700.6</ele>
        <time>2025-09-07T12:34:39Z</time>
      </trkpt>
      <trkpt lat="46.21014" lon="4.57966">
        <ele>700.6</ele>
        <time>2025-09-07T12:34:40Z</time>
      </trkpt>
      <trkpt lat="46.21014" lon="4.57964">
        <ele>700.6</ele>
        <time>2025-09-07T12:34:41Z</time>
      </trkpt>
      <trkpt lat="46.21013" lon="4.57961">
        <ele>701</ele>
        <time>2025-09-07T12:34:42Z</time>
      </trkpt>
      <trkpt lat="46.21013" lon="4.57958">
        <ele>701</ele>
        <time>2025-09-07T12:34:43Z</time>
      </trkpt>
      <trkpt lat="46.21012" lon="4.57955">
        <ele>700.6</ele>
        <time>2025-09-07T12:34:44Z</time>
      </trkpt>
      <trkpt lat="46.21011" lon="4.57953">
        <ele>700.8</ele>
        <time>2025-09-07T12:34:45Z</time>
      </trkpt>
      <trkpt lat="46.21011" lon="4.57951">
        <ele>700.6</ele>
        <time>2025-09-07T12:34:46Z</time>
      </trkpt>
      <trkpt lat="46.2101" lon="4.57948">
        <ele>700.6</ele>
        <time>2025-09-07T12:34:47Z</time>
      </trkpt>
      <trkpt lat="46.21009" lon="4.57946">
        <ele>700.8</ele>
        <time>2025-09-07T12:34:48Z</time>
      </trkpt>
      <trkpt lat="46.21009" lon="4.57943">
        <ele>700.8</ele>
        <time>2025-09-07T12:34:49Z</time>
      </trkpt>
      <trkpt lat="46.21008" lon="4.5794">
        <ele>700.8</ele>
        <time>2025-09-07T12:34:50Z</time>
      </trkpt>
      <trkpt lat="46.21009" lon="4.57938">
        <ele>700.8</ele>
        <time>2025-09-07T12:34:51Z</time>
      </trkpt>
      <trkpt lat="46.21008" lon="4.57934">
        <ele>700.8</ele>
        <time>2025-09-07T12:34:52Z</time>
      </trkpt>
      <trkpt lat="46.21008" lon="4.57931">
        <ele>700.6</ele>
        <time>2025-09-07T12:34:53Z</time>
      </trkpt>
      <trkpt lat="46.21008" lon="4.57929">
        <ele>700.6</ele>
        <time>2025-09-07T12:34:54Z</time>
      </trkpt>
      <trkpt lat="46.21007" lon="4.57926">
        <ele>700.6</ele>
        <time>2025-09-07T12:34:55Z</time>
      </trkpt>
      <trkpt lat="46.21007" lon="4.57923">
        <ele>700.6</ele>
        <time>2025-09-07T12:34:56Z</time>
      </trkpt>
      <trkpt lat="46.21006" lon="4.57919">
        <ele>700.6</ele>
        <time>2025-09-07T12:34:57Z</time>
      </trkpt>
      <trkpt lat="46.21006" lon="4.57915">
        <ele>700.4</ele>
        <time>2025-09-07T12:34:58Z</time>
      </trkpt>
      <trkpt lat="46.21005" lon="4.57911">
        <ele>700.4</ele>
        <time>2025-09-07T12:34:59Z</time>
      </trkpt>
      <trkpt lat="46.21004" lon="4.57907">
        <ele>700</ele>
        <time>2025-09-07T12:35:00Z</time>
      </trkpt>
      <trkpt lat="46.21003" lon="4.57903">
        <ele>700</ele>
        <time>2025-09-07T12:35:01Z</time>
      </trkpt>
      <trkpt lat="46.21002" lon="4.57898">
        <ele>700</ele>
        <time>2025-09-07T12:35:02Z</time>
      </trkpt>
      <trkpt lat="46.21001" lon="4.57894">
        <ele>700</ele>
        <time>2025-09-07T12:35:03Z</time>
      </trkpt>
      <trkpt lat="46.21" lon="4.5789">
        <ele>700</ele>
        <time>2025-09-07T12:35:04Z</time>
      </trkpt>
      <trkpt lat="46.20999" lon="4.57887">
        <ele>700.6</ele>
        <time>2025-09-07T12:35:05Z</time>
      </trkpt>
      <trkpt lat="46.20999" lon="4.57884">
        <ele>700.6</ele>
        <time>2025-09-07T12:35:06Z</time>
      </trkpt>
      <trkpt lat="46.20998" lon="4.57882">
        <ele>700.6</ele>
        <time>2025-09-07T12:35:07Z</time>
      </trkpt>
      <trkpt lat="46.20997" lon="4.57879">
        <ele>700.6</ele>
        <time>2025-09-07T12:35:08Z</time>
      </trkpt>
      <trkpt lat="46.20996" lon="4.57877">
        <ele>700.6</ele>
        <time>2025-09-07T12:35:09Z</time>
      </trkpt>
      <trkpt lat="46.20995" lon="4.57875">
        <ele>700.6</ele>
        <time>2025-09-07T12:35:10Z</time>
      </trkpt>
      <trkpt lat="46.20994" lon="4.57872">
        <ele>701.2</ele>
        <time>2025-09-07T12:35:11Z</time>
      </trkpt>
      <trkpt lat="46.20994" lon="4.57872">
        <ele>701.4</ele>
        <time>2025-09-07T12:35:12Z</time>
      </trkpt>
      <trkpt lat="46.20993" lon="4.57869">
        <ele>701.4</ele>
        <time>2025-09-07T12:35:13Z</time>
      </trkpt>
      <trkpt lat="46.20992" lon="4.57866">
        <ele>701.4</ele>
        <time>2025-09-07T12:35:14Z</time>
      </trkpt>
      <trkpt lat="46.20992" lon="4.57864">
        <ele>701.4</ele>
        <time>2025-09-07T12:35:15Z</time>
      </trkpt>
      <trkpt lat="46.20992" lon="4.57862">
        <ele>701.8</ele>
        <time>2025-09-07T12:35:16Z</time>
      </trkpt>
      <trkpt lat="46.20992" lon="4.5786">
        <ele>701.8</ele>
        <time>2025-09-07T12:35:17Z</time>
      </trkpt>
      <trkpt lat="46.20992" lon="4.57857">
        <ele>702.2</ele>
        <time>2025-09-07T12:35:18Z</time>
      </trkpt>
      <trkpt lat="46.20991" lon="4.57855">
        <ele>702.2</ele>
        <time>2025-09-07T12:35:19Z</time>
      </trkpt>
      <trkpt lat="46.2099" lon="4.57852">
        <ele>702.6</ele>
        <time>2025-09-07T12:35:20Z</time>
      </trkpt>
      <trkpt lat="46.2099" lon="4.5785">
        <ele>702.6</ele>
        <time>2025-09-07T12:35:21Z</time>
      </trkpt>
      <trkpt lat="46.20989" lon="4.57847">
        <ele>702.8</ele>
        <time>2025-09-07T12:35:22Z</time>
      </trkpt>
      <trkpt lat="46.20988" lon="4.57844">
        <ele>702.8</ele>
        <time>2025-09-07T12:35:23Z</time>
      </trkpt>
      <trkpt lat="46.20988" lon="4.57842">
        <ele>702.8</ele>
        <time>2025-09-07T12:35:24Z</time>
      </trkpt>
      <trkpt lat="46.20988" lon="4.5784">
        <ele>703.2</ele>
        <time>2025-09-07T12:35:25Z</time>
      </trkpt>
      <trkpt lat="46.20988" lon="4.57838">
        <ele>702.8</ele>
        <time>2025-09-07T12:35:26Z</time>
      </trkpt>
      <trkpt lat="46.20988" lon="4.57836">
        <ele>702.8</ele>
        <time>2025-09-07T12:35:27Z</time>
      </trkpt>
      <trkpt lat="46.20988" lon="4.57833">
        <ele>702.8</ele>
        <time>2025-09-07T12:35:28Z</time>
      </trkpt>
      <trkpt lat="46.20987" lon="4.57831">
        <ele>703.4</ele>
        <time>2025-09-07T12:35:29Z</time>
      </trkpt>
      <trkpt lat="46.20987" lon="4.5783">
        <ele>703.8</ele>
        <time>2025-09-07T12:35:30Z</time>
      </trkpt>
      <trkpt lat="46.20987" lon="4.57828">
        <ele>703.8</ele>
        <time>2025-09-07T12:35:31Z</time>
      </trkpt>
      <trkpt lat="46.20987" lon="4.57826">
        <ele>703.8</ele>
        <time>2025-09-07T12:35:32Z</time>
      </trkpt>
      <trkpt lat="46.20987" lon="4.57826">
        <ele>704.2</ele>
        <time>2025-09-07T12:35:33Z</time>
      </trkpt>
      <trkpt lat="46.20986" lon="4.57825">
        <ele>704.2</ele>
        <time>2025-09-07T12:35:43Z</time>
      </trkpt>
      <trkpt lat="46.20986" lon="4.57824">
        <ele>704.6</ele>
        <time>2025-09-07T12:35:44Z</time>
      </trkpt>
      <trkpt lat="46.20986" lon="4.57823">
        <ele>704.6</ele>
        <time>2025-09-07T12:35:45Z</time>
      </trkpt>
      <trkpt lat="46.20985" lon="4.57821">
        <ele>704.8</ele>
        <time>2025-09-07T12:35:46Z</time>
      </trkpt>
      <trkpt lat="46.20985" lon="4.5782">
        <ele>704.8</ele>
        <time>2025-09-07T12:35:47Z</time>
      </trkpt>
      <trkpt lat="46.20985" lon="4.57819">
        <ele>704.8</ele>
        <time>2025-09-07T12:35:48Z</time>
      </trkpt>
      <trkpt lat="46.20985" lon="4.57818">
        <ele>705</ele>
        <time>2025-09-07T12:35:49Z</time>
      </trkpt>
      <trkpt lat="46.20985" lon="4.57817">
        <ele>705.2</ele>
        <time>2025-09-07T12:35:50Z</time>
      </trkpt>
      <trkpt lat="46.20985" lon="4.57816">
        <ele>705.2</ele>
        <time>2025-09-07T12:35:51Z</time>
      </trkpt>
      <trkpt lat="46.20985" lon="4.57816">
        <ele>705.6</ele>
        <time>2025-09-07T12:35:52Z</time>
      </trkpt>
      <trkpt lat="46.20983" lon="4.57815">
        <ele>706</ele>
        <time>2025-09-07T12:36:01Z</time>
      </trkpt>
      <trkpt lat="46.20982" lon="4.57814">
        <ele>706.4</ele>
        <time>2025-09-07T12:36:02Z</time>
      </trkpt>
      <trkpt lat="46.20982" lon="4.57813">
        <ele>706.4</ele>
        <time>2025-09-07T12:36:03Z</time>
      </trkpt>
      <trkpt lat="46.20982" lon="4.57812">
        <ele>706.6</ele>
        <time>2025-09-07T12:36:04Z</time>
      </trkpt>
      <trkpt lat="46.20982" lon="4.57811">
        <ele>706.6</ele>
        <time>2025-09-07T12:36:05Z</time>
      </trkpt>
      <trkpt lat="46.20982" lon="4.5781">
        <ele>706.6</ele>
        <time>2025-09-07T12:36:06Z</time>
      </trkpt>
      <trkpt lat="46.20982" lon="4.57809">
        <ele>706.6</ele>
        <time>2025-09-07T12:36:07Z</time>
      </trkpt>
      <trkpt lat="46.20981" lon="4.57808">
        <ele>706.8</ele>
        <time>2025-09-07T12:36:08Z</time>
      </trkpt>
      <trkpt lat="46.20981" lon="4.57807">
        <ele>706.4</ele>
        <time>2025-09-07T12:36:09Z</time>
      </trkpt>
      <trkpt lat="46.20981" lon="4.57806">
        <ele>706.8</ele>
        <time>2025-09-07T12:36:10Z</time>
      </trkpt>
      <trkpt lat="46.20981" lon="4.57806">
        <ele>707</ele>
        <time>2025-09-07T12:36:11Z</time>
      </trkpt>
      <trkpt lat="46.2098" lon="4.57805">
        <ele>707.2</ele>
        <time>2025-09-07T12:36:12Z</time>
      </trkpt>
      <trkpt lat="46.2098" lon="4.57804">
        <ele>708</ele>
        <time>2025-09-07T12:36:13Z</time>
      </trkpt>
      <trkpt lat="46.20979" lon="4.57803">
        <ele>708.2</ele>
        <time>2025-09-07T12:36:14Z</time>
      </trkpt>
      <trkpt lat="46.20979" lon="4.57802">
        <ele>708.2</ele>
        <time>2025-09-07T12:36:15Z</time>
      </trkpt>
      <trkpt lat="46.20978" lon="4.57801">
        <ele>708.2</ele>
        <time>2025-09-07T12:36:16Z</time>
      </trkpt>
      <trkpt lat="46.20978" lon="4.578">
        <ele>708.2</ele>
        <time>2025-09-07T12:36:17Z</time>
      </trkpt>
      <trkpt lat="46.20977" lon="4.57799">
        <ele>708.2</ele>
        <time>2025-09-07T12:36:18Z</time>
      </trkpt>
      <trkpt lat="46.20976" lon="4.57798">
        <ele>708.6</ele>
        <time>2025-09-07T12:36:19Z</time>
      </trkpt>
      <trkpt lat="46.20975" lon="4.57797">
        <ele>708.6</ele>
        <time>2025-09-07T12:36:20Z</time>
      </trkpt>
      <trkpt lat="46.20975" lon="4.57796">
        <ele>708.6</ele>
        <time>2025-09-07T12:36:21Z</time>
      </trkpt>
      <trkpt lat="46.20973" lon="4.57794">
        <ele>708.6</ele>
        <time>2025-09-07T12:36:22Z</time>
      </trkpt>
      <trkpt lat="46.20973" lon="4.57793">
        <ele>708.6</ele>
        <time>2025-09-07T12:36:23Z</time>
      </trkpt>
      <trkpt lat="46.20972" lon="4.57792">
        <ele>708.6</ele>
        <time>2025-09-07T12:36:24Z</time>
      </trkpt>
      <trkpt lat="46.20972" lon="4.57791">
        <ele>709</ele>
        <time>2025-09-07T12:36:25Z</time>
      </trkpt>
      <trkpt lat="46.20971" lon="4.57789">
        <ele>709</ele>
        <time>2025-09-07T12:36:26Z</time>
      </trkpt>
      <trkpt lat="46.20971" lon="4.57788">
        <ele>709</ele>
        <time>2025-09-07T12:36:27Z</time>
      </trkpt>
      <trkpt lat="46.2097" lon="4.57786">
        <ele>709</ele>
        <time>2025-09-07T12:36:28Z</time>
      </trkpt>
      <trkpt lat="46.20969" lon="4.57784">
        <ele>709.2</ele>
        <time>2025-09-07T12:36:29Z</time>
      </trkpt>
      <trkpt lat="46.20969" lon="4.57783">
        <ele>709.2</ele>
        <time>2025-09-07T12:36:30Z</time>
      </trkpt>
      <trkpt lat="46.20969" lon="4.57782">
        <ele>709.4</ele>
        <time>2025-09-07T12:36:31Z</time>
      </trkpt>
      <trkpt lat="46.20969" lon="4.5778">
        <ele>709.4</ele>
        <time>2025-09-07T12:36:32Z</time>
      </trkpt>
      <trkpt lat="46.20968" lon="4.57778">
        <ele>709.8</ele>
        <time>2025-09-07T12:36:33Z</time>
      </trkpt>
      <trkpt lat="46.20968" lon="4.57775">
        <ele>709.8</ele>
        <time>2025-09-07T12:36:34Z</time>
      </trkpt>
      <trkpt lat="46.20968" lon="4.57774">
        <ele>710.4</ele>
        <time>2025-09-07T12:36:35Z</time>
      </trkpt>
      <trkpt lat="46.20968" lon="4.57773">
        <ele>710.4</ele>
        <time>2025-09-07T12:36:36Z</time>
      </trkpt>
      <trkpt lat="46.20968" lon="4.57773">
        <ele>710.4</ele>
        <time>2025-09-07T12:36:37Z</time>
      </trkpt>
      <trkpt lat="46.20968" lon="4.57772">
        <ele>710.8</ele>
        <time>2025-09-07T12:36:38Z</time>
      </trkpt>
      <trkpt lat="46.20968" lon="4.5777">
        <ele>710.8</ele>
        <time>2025-09-07T12:36:39Z</time>
      </trkpt>
      <trkpt lat="46.20968" lon="4.57769">
        <ele>710.8</ele>
        <time>2025-09-07T12:36:40Z</time>
      </trkpt>
      <trkpt lat="46.20968" lon="4.57767">
        <ele>711</ele>
        <time>2025-09-07T12:36:41Z</time>
      </trkpt>
      <trkpt lat="46.20968" lon="4.57766">
        <ele>711</ele>
        <time>2025-09-07T12:36:42Z</time>
      </trkpt>
      <trkpt lat="46.20967" lon="4.57764">
        <ele>711</ele>
        <time>2025-09-07T12:36:43Z</time>
      </trkpt>
      <trkpt lat="46.20967" lon="4.57762">
        <ele>711</ele>
        <time>2025-09-07T12:36:44Z</time>
      </trkpt>
      <trkpt lat="46.20966" lon="4.57761">
        <ele>711.4</ele>
        <time>2025-09-07T12:36:45Z</time>
      </trkpt>
      <trkpt lat="46.20965" lon="4.5776">
        <ele>711.4</ele>
        <time>2025-09-07T12:36:46Z</time>
      </trkpt>
      <trkpt lat="46.20965" lon="4.57759">
        <ele>711.6</ele>
        <time>2025-09-07T12:36:47Z</time>
      </trkpt>
      <trkpt lat="46.20964" lon="4.57757">
        <ele>711.6</ele>
        <time>2025-09-07T12:36:48Z</time>
      </trkpt>
      <trkpt lat="46.20963" lon="4.57756">
        <ele>711.8</ele>
        <time>2025-09-07T12:36:49Z</time>
      </trkpt>
      <trkpt lat="46.20963" lon="4.57754">
        <ele>711.8</ele>
        <time>2025-09-07T12:36:50Z</time>
      </trkpt>
      <trkpt lat="46.20962" lon="4.57753">
        <ele>712</ele>
        <time>2025-09-07T12:36:51Z</time>
      </trkpt>
      <trkpt lat="46.20962" lon="4.57752">
        <ele>712</ele>
        <time>2025-09-07T12:36:52Z</time>
      </trkpt>
      <trkpt lat="46.20961" lon="4.5775">
        <ele>712</ele>
        <time>2025-09-07T12:36:53Z</time>
      </trkpt>
      <trkpt lat="46.2096" lon="4.57749">
        <ele>712</ele>
        <time>2025-09-07T12:36:54Z</time>
      </trkpt>
      <trkpt lat="46.20959" lon="4.57747">
        <ele>712.4</ele>
        <time>2025-09-07T12:36:55Z</time>
      </trkpt>
      <trkpt lat="46.20959" lon="4.57746">
        <ele>712.4</ele>
        <time>2025-09-07T12:36:56Z</time>
      </trkpt>
      <trkpt lat="46.20959" lon="4.57744">
        <ele>712.6</ele>
        <time>2025-09-07T12:36:57Z</time>
      </trkpt>
      <trkpt lat="46.20958" lon="4.57743">
        <ele>712.6</ele>
        <time>2025-09-07T12:36:58Z</time>
      </trkpt>
      <trkpt lat="46.20957" lon="4.57741">
        <ele>712.6</ele>
        <time>2025-09-07T12:36:59Z</time>
      </trkpt>
      <trkpt lat="46.20957" lon="4.5774">
        <ele>712.8</ele>
        <time>2025-09-07T12:37:00Z</time>
      </trkpt>
      <trkpt lat="46.20956" lon="4.57739">
        <ele>712.8</ele>
        <time>2025-09-07T12:37:01Z</time>
      </trkpt>
      <trkpt lat="46.20956" lon="4.57737">
        <ele>712.8</ele>
        <time>2025-09-07T12:37:02Z</time>
      </trkpt>
      <trkpt lat="46.20956" lon="4.57736">
        <ele>712.8</ele>
        <time>2025-09-07T12:37:03Z</time>
      </trkpt>
      <trkpt lat="46.20955" lon="4.57734">
        <ele>712.8</ele>
        <time>2025-09-07T12:37:04Z</time>
      </trkpt>
      <trkpt lat="46.20955" lon="4.57733">
        <ele>712.6</ele>
        <time>2025-09-07T12:37:05Z</time>
      </trkpt>
      <trkpt lat="46.20954" lon="4.57731">
        <ele>712.6</ele>
        <time>2025-09-07T12:37:06Z</time>
      </trkpt>
      <trkpt lat="46.20953" lon="4.5773">
        <ele>712.6</ele>
        <time>2025-09-07T12:37:07Z</time>
      </trkpt>
      <trkpt lat="46.20953" lon="4.57728">
        <ele>712.8</ele>
        <time>2025-09-07T12:37:08Z</time>
      </trkpt>
      <trkpt lat="46.20953" lon="4.57727">
        <ele>712.8</ele>
        <time>2025-09-07T12:37:09Z</time>
      </trkpt>
      <trkpt lat="46.20953" lon="4.57727">
        <ele>712.8</ele>
        <time>2025-09-07T12:37:10Z</time>
      </trkpt>
      <trkpt lat="46.20955" lon="4.57724">
        <ele>712.8</ele>
        <time>2025-09-07T12:37:19Z</time>
      </trkpt>
      <trkpt lat="46.20954" lon="4.57721">
        <ele>712.8</ele>
        <time>2025-09-07T12:37:20Z</time>
      </trkpt>
      <trkpt lat="46.20952" lon="4.57718">
        <ele>712.8</ele>
        <time>2025-09-07T12:37:21Z</time>
      </trkpt>
      <trkpt lat="46.20951" lon="4.57716">
        <ele>712.4</ele>
        <time>2025-09-07T12:37:22Z</time>
      </trkpt>
      <trkpt lat="46.20949" lon="4.57714">
        <ele>712.2</ele>
        <time>2025-09-07T12:37:23Z</time>
      </trkpt>
      <trkpt lat="46.20948" lon="4.57711">
        <ele>712.2</ele>
        <time>2025-09-07T12:37:24Z</time>
      </trkpt>
      <trkpt lat="46.20947" lon="4.57707">
        <ele>711.8</ele>
        <time>2025-09-07T12:37:25Z</time>
      </trkpt>
      <trkpt lat="46.20946" lon="4.57702">
        <ele>711.6</ele>
        <time>2025-09-07T12:37:26Z</time>
      </trkpt>
      <trkpt lat="46.20945" lon="4.57698">
        <ele>711.6</ele>
        <time>2025-09-07T12:37:27Z</time>
      </trkpt>
      <trkpt lat="46.20944" lon="4.57694">
        <ele>711.4</ele>
        <time>2025-09-07T12:37:28Z</time>
      </trkpt>
      <trkpt lat="46.20944" lon="4.57691">
        <ele>711.4</ele>
        <time>2025-09-07T12:37:29Z</time>
      </trkpt>
      <trkpt lat="46.20944" lon="4.57687">
        <ele>711</ele>
        <time>2025-09-07T12:37:30Z</time>
      </trkpt>
      <trkpt lat="46.20944" lon="4.57683">
        <ele>711</ele>
        <time>2025-09-07T12:37:31Z</time>
      </trkpt>
      <trkpt lat="46.20943" lon="4.5768">
        <ele>711</ele>
        <time>2025-09-07T12:37:32Z</time>
      </trkpt>
      <trkpt lat="46.20942" lon="4.57677">
        <ele>711</ele>
        <time>2025-09-07T12:37:33Z</time>
      </trkpt>
      <trkpt lat="46.20942" lon="4.57674">
        <ele>711</ele>
        <time>2025-09-07T12:37:34Z</time>
      </trkpt>
      <trkpt lat="46.20941" lon="4.5767">
        <ele>711</ele>
        <time>2025-09-07T12:37:35Z</time>
      </trkpt>
      <trkpt lat="46.2094" lon="4.57667">
        <ele>711.4</ele>
        <time>2025-09-07T12:37:36Z</time>
      </trkpt>
      <trkpt lat="46.20939" lon="4.57664">
        <ele>711.6</ele>
        <time>2025-09-07T12:37:37Z</time>
      </trkpt>
      <trkpt lat="46.20938" lon="4.5766">
        <ele>711.6</ele>
        <time>2025-09-07T12:37:38Z</time>
      </trkpt>
      <trkpt lat="46.20938" lon="4.57656">
        <ele>711.6</ele>
        <time>2025-09-07T12:37:39Z</time>
      </trkpt>
      <trkpt lat="46.20936" lon="4.57653">
        <ele>711.6</ele>
        <time>2025-09-07T12:37:40Z</time>
      </trkpt>
      <trkpt lat="46.20935" lon="4.5765">
        <ele>711.6</ele>
        <time>2025-09-07T12:37:41Z</time>
      </trkpt>
      <trkpt lat="46.20933" lon="4.57647">
        <ele>711.6</ele>
        <time>2025-09-07T12:37:42Z</time>
      </trkpt>
      <trkpt lat="46.20932" lon="4.57644">
        <ele>711.6</ele>
        <time>2025-09-07T12:37:43Z</time>
      </trkpt>
      <trkpt lat="46.20931" lon="4.5764">
        <ele>711.6</ele>
        <time>2025-09-07T12:37:44Z</time>
      </trkpt>
      <trkpt lat="46.20929" lon="4.57637">
        <ele>712.2</ele>
        <time>2025-09-07T12:37:45Z</time>
      </trkpt>
      <trkpt lat="46.20928" lon="4.57634">
        <ele>712.6</ele>
        <time>2025-09-07T12:37:46Z</time>
      </trkpt>
      <trkpt lat="46.20926" lon="4.57631">
        <ele>712.6</ele>
        <time>2025-09-07T12:37:47Z</time>
      </trkpt>
      <trkpt lat="46.20925" lon="4.57628">
        <ele>712.8</ele>
        <time>2025-09-07T12:37:48Z</time>
      </trkpt>
      <trkpt lat="46.20923" lon="4.57627">
        <ele>712.8</ele>
        <time>2025-09-07T12:37:49Z</time>
      </trkpt>
      <trkpt lat="46.20922" lon="4.57625">
        <ele>712.8</ele>
        <time>2025-09-07T12:37:50Z</time>
      </trkpt>
      <trkpt lat="46.2092" lon="4.57623">
        <ele>713.4</ele>
        <time>2025-09-07T12:37:51Z</time>
      </trkpt>
      <trkpt lat="46.20918" lon="4.5762">
        <ele>713.4</ele>
        <time>2025-09-07T12:37:52Z</time>
      </trkpt>
      <trkpt lat="46.20917" lon="4.57618">
        <ele>713.4</ele>
        <time>2025-09-07T12:37:53Z</time>
      </trkpt>
      <trkpt lat="46.20915" lon="4.57617">
        <ele>713.6</ele>
        <time>2025-09-07T12:37:54Z</time>
      </trkpt>
      <trkpt lat="46.20914" lon="4.57615">
        <ele>713.6</ele>
        <time>2025-09-07T12:37:55Z</time>
      </trkpt>
      <trkpt lat="46.20912" lon="4.57614">
        <ele>713.6</ele>
        <time>2025-09-07T12:37:56Z</time>
      </trkpt>
      <trkpt lat="46.20911" lon="4.57612">
        <ele>714</ele>
        <time>2025-09-07T12:37:57Z</time>
      </trkpt>
      <trkpt lat="46.20909" lon="4.5761">
        <ele>714.2</ele>
        <time>2025-09-07T12:37:58Z</time>
      </trkpt>
      <trkpt lat="46.20908" lon="4.57609">
        <ele>714.6</ele>
        <time>2025-09-07T12:37:59Z</time>
      </trkpt>
      <trkpt lat="46.20907" lon="4.57608">
        <ele>715</ele>
        <time>2025-09-07T12:38:00Z</time>
      </trkpt>
      <trkpt lat="46.20905" lon="4.57607">
        <ele>715</ele>
        <time>2025-09-07T12:38:01Z</time>
      </trkpt>
      <trkpt lat="46.20903" lon="4.57606">
        <ele>715.4</ele>
        <time>2025-09-07T12:38:02Z</time>
      </trkpt>
      <trkpt lat="46.20902" lon="4.57604">
        <ele>715.8</ele>
        <time>2025-09-07T12:38:03Z</time>
      </trkpt>
      <trkpt lat="46.20901" lon="4.57604">
        <ele>716</ele>
        <time>2025-09-07T12:38:04Z</time>
      </trkpt>
      <trkpt lat="46.20899" lon="4.57603">
        <ele>716</ele>
        <time>2025-09-07T12:38:05Z</time>
      </trkpt>
      <trkpt lat="46.20898" lon="4.57601">
        <ele>716</ele>
        <time>2025-09-07T12:38:06Z</time>
      </trkpt>
      <trkpt lat="46.20897" lon="4.576">
        <ele>716.4</ele>
        <time>2025-09-07T12:38:07Z</time>
      </trkpt>
      <trkpt lat="46.20895" lon="4.57599">
        <ele>716.8</ele>
        <time>2025-09-07T12:38:08Z</time>
      </trkpt>
      <trkpt lat="46.20894" lon="4.57597">
        <ele>717</ele>
        <time>2025-09-07T12:38:09Z</time>
      </trkpt>
      <trkpt lat="46.20892" lon="4.57596">
        <ele>717</ele>
        <time>2025-09-07T12:38:10Z</time>
      </trkpt>
      <trkpt lat="46.20891" lon="4.57595">
        <ele>717.2</ele>
        <time>2025-09-07T12:38:11Z</time>
      </trkpt>
      <trkpt lat="46.20889" lon="4.57595">
        <ele>717.2</ele>
        <time>2025-09-07T12:38:12Z</time>
      </trkpt>
      <trkpt lat="46.20888" lon="4.57593">
        <ele>717.6</ele>
        <time>2025-09-07T12:38:13Z</time>
      </trkpt>
      <trkpt lat="46.20887" lon="4.57592">
        <ele>717.6</ele>
        <time>2025-09-07T12:38:14Z</time>
      </trkpt>
      <trkpt lat="46.20886" lon="4.57591">
        <ele>717.8</ele>
        <time>2025-09-07T12:38:15Z</time>
      </trkpt>
      <trkpt lat="46.20885" lon="4.57589">
        <ele>717.8</ele>
        <time>2025-09-07T12:38:16Z</time>
      </trkpt>
      <trkpt lat="46.20884" lon="4.57587">
        <ele>717.8</ele>
        <time>2025-09-07T12:38:17Z</time>
      </trkpt>
      <trkpt lat="46.20883" lon="4.57585">
        <ele>717.8</ele>
        <time>2025-09-07T12:38:18Z</time>
      </trkpt>
      <trkpt lat="46.20882" lon="4.57582">
        <ele>717.6</ele>
        <time>2025-09-07T12:38:19Z</time>
      </trkpt>
      <trkpt lat="46.20881" lon="4.57579">
        <ele>717.2</ele>
        <time>2025-09-07T12:38:20Z</time>
      </trkpt>
      <trkpt lat="46.20879" lon="4.57576">
        <ele>717.2</ele>
        <time>2025-09-07T12:38:21Z</time>
      </trkpt>
      <trkpt lat="46.20878" lon="4.57573">
        <ele>717.2</ele>
        <time>2025-09-07T12:38:22Z</time>
      </trkpt>
      <trkpt lat="46.20877" lon="4.57569">
        <ele>717.2</ele>
        <time>2025-09-07T12:38:23Z</time>
      </trkpt>
      <trkpt lat="46.20876" lon="4.57567">
        <ele>717.2</ele>
        <time>2025-09-07T12:38:24Z</time>
      </trkpt>
      <trkpt lat="46.20874" lon="4.57565">
        <ele>717</ele>
        <time>2025-09-07T12:38:25Z</time>
      </trkpt>
      <trkpt lat="46.20873" lon="4.57565">
        <ele>717</ele>
        <time>2025-09-07T12:38:26Z</time>
      </trkpt>
      <trkpt lat="46.20873" lon="4.57564">
        <ele>717</ele>
        <time>2025-09-07T12:38:27Z</time>
      </trkpt>
      <trkpt lat="46.20872" lon="4.57564">
        <ele>717</ele>
        <time>2025-09-07T12:38:28Z</time>
      </trkpt>
      <trkpt lat="46.20872" lon="4.57564">
        <ele>717</ele>
        <time>2025-09-07T12:38:29Z</time>
      </trkpt>
      <trkpt lat="46.20872" lon="4.57564">
        <ele>716.8</ele>
        <time>2025-09-07T12:39:33Z</time>
      </trkpt>
      <trkpt lat="46.20873" lon="4.57564">
        <ele>716.8</ele>
        <time>2025-09-07T12:39:34Z</time>
      </trkpt>
      <trkpt lat="46.20873" lon="4.57562">
        <ele>716.8</ele>
        <time>2025-09-07T12:39:35Z</time>
      </trkpt>
      <trkpt lat="46.20872" lon="4.57558">
        <ele>716.8</ele>
        <time>2025-09-07T12:39:36Z</time>
      </trkpt>
      <trkpt lat="46.20871" lon="4.57557">
        <ele>715.8</ele>
        <time>2025-09-07T12:39:37Z</time>
      </trkpt>
      <trkpt lat="46.20869" lon="4.57554">
        <ele>715.4</ele>
        <time>2025-09-07T12:39:38Z</time>
      </trkpt>
      <trkpt lat="46.20867" lon="4.5755">
        <ele>715.4</ele>
        <time>2025-09-07T12:39:39Z</time>
      </trkpt>
      <trkpt lat="46.20865" lon="4.57547">
        <ele>715</ele>
        <time>2025-09-07T12:39:40Z</time>
      </trkpt>
      <trkpt lat="46.20864" lon="4.57544">
        <ele>714.8</ele>
        <time>2025-09-07T12:39:41Z</time>
      </trkpt>
      <trkpt lat="46.20863" lon="4.57542">
        <ele>714.4</ele>
        <time>2025-09-07T12:39:42Z</time>
      </trkpt>
      <trkpt lat="46.20862" lon="4.57539">
        <ele>714</ele>
        <time>2025-09-07T12:39:43Z</time>
      </trkpt>
      <trkpt lat="46.20861" lon="4.57537">
        <ele>713.8</ele>
        <time>2025-09-07T12:39:44Z</time>
      </trkpt>
      <trkpt lat="46.20861" lon="4.57535">
        <ele>713.8</ele>
        <time>2025-09-07T12:39:45Z</time>
      </trkpt>
      <trkpt lat="46.2086" lon="4.57533">
        <ele>713.4</ele>
        <time>2025-09-07T12:39:46Z</time>
      </trkpt>
      <trkpt lat="46.20858" lon="4.57531">
        <ele>713.4</ele>
        <time>2025-09-07T12:39:47Z</time>
      </trkpt>
      <trkpt lat="46.20857" lon="4.57529">
        <ele>713.4</ele>
        <time>2025-09-07T12:39:48Z</time>
      </trkpt>
      <trkpt lat="46.20856" lon="4.57525">
        <ele>713.2</ele>
        <time>2025-09-07T12:39:49Z</time>
      </trkpt>
      <trkpt lat="46.20853" lon="4.57521">
        <ele>713.2</ele>
        <time>2025-09-07T12:39:50Z</time>
      </trkpt>
      <trkpt lat="46.20851" lon="4.57517">
        <ele>713</ele>
        <time>2025-09-07T12:39:51Z</time>
      </trkpt>
      <trkpt lat="46.20849" lon="4.57514">
        <ele>713</ele>
        <time>2025-09-07T12:39:52Z</time>
      </trkpt>
      <trkpt lat="46.20846" lon="4.57509">
        <ele>712.6</ele>
        <time>2025-09-07T12:39:53Z</time>
      </trkpt>
      <trkpt lat="46.20844" lon="4.57506">
        <ele>712.6</ele>
        <time>2025-09-07T12:39:54Z</time>
      </trkpt>
      <trkpt lat="46.20843" lon="4.57503">
        <ele>712.6</ele>
        <time>2025-09-07T12:39:55Z</time>
      </trkpt>
      <trkpt lat="46.20842" lon="4.57501">
        <ele>712.6</ele>
        <time>2025-09-07T12:39:56Z</time>
      </trkpt>
      <trkpt lat="46.20841" lon="4.57498">
        <ele>712.8</ele>
        <time>2025-09-07T12:39:57Z</time>
      </trkpt>
      <trkpt lat="46.2084" lon="4.57496">
        <ele>712.8</ele>
        <time>2025-09-07T12:39:58Z</time>
      </trkpt>
      <trkpt lat="46.20838" lon="4.57493">
        <ele>712.8</ele>
        <time>2025-09-07T12:39:59Z</time>
      </trkpt>
      <trkpt lat="46.20836" lon="4.5749">
        <ele>712.8</ele>
        <time>2025-09-07T12:40:00Z</time>
      </trkpt>
      <trkpt lat="46.20834" lon="4.57487">
        <ele>712.6</ele>
        <time>2025-09-07T12:40:01Z</time>
      </trkpt>
      <trkpt lat="46.20833" lon="4.57485">
        <ele>712.6</ele>
        <time>2025-09-07T12:40:02Z</time>
      </trkpt>
      <trkpt lat="46.20832" lon="4.57483">
        <ele>712.6</ele>
        <time>2025-09-07T12:40:03Z</time>
      </trkpt>
      <trkpt lat="46.20832" lon="4.57481">
        <ele>712.4</ele>
        <time>2025-09-07T12:40:04Z</time>
      </trkpt>
      <trkpt lat="46.20831" lon="4.57479">
        <ele>712.4</ele>
        <time>2025-09-07T12:40:05Z</time>
      </trkpt>
      <trkpt lat="46.2083" lon="4.57477">
        <ele>712.4</ele>
        <time>2025-09-07T12:40:06Z</time>
      </trkpt>
      <trkpt lat="46.20829" lon="4.57476">
        <ele>712</ele>
        <time>2025-09-07T12:40:07Z</time>
      </trkpt>
      <trkpt lat="46.20828" lon="4.57474">
        <ele>712.4</ele>
        <time>2025-09-07T12:40:08Z</time>
      </trkpt>
      <trkpt lat="46.20826" lon="4.57471">
        <ele>712.4</ele>
        <time>2025-09-07T12:40:09Z</time>
      </trkpt>
      <trkpt lat="46.20825" lon="4.57468">
        <ele>711.8</ele>
        <time>2025-09-07T12:40:10Z</time>
      </trkpt>
      <trkpt lat="46.20824" lon="4.57465">
        <ele>711.8</ele>
        <time>2025-09-07T12:40:11Z</time>
      </trkpt>
      <trkpt lat="46.20823" lon="4.57462">
        <ele>711.4</ele>
        <time>2025-09-07T12:40:12Z</time>
      </trkpt>
      <trkpt lat="46.20822" lon="4.57459">
        <ele>711.4</ele>
        <time>2025-09-07T12:40:13Z</time>
      </trkpt>
      <trkpt lat="46.20822" lon="4.57456">
        <ele>711.2</ele>
        <time>2025-09-07T12:40:14Z</time>
      </trkpt>
      <trkpt lat="46.20821" lon="4.57453">
        <ele>711.2</ele>
        <time>2025-09-07T12:40:15Z</time>
      </trkpt>
      <trkpt lat="46.2082" lon="4.5745">
        <ele>711.2</ele>
        <time>2025-09-07T12:40:16Z</time>
      </trkpt>
      <trkpt lat="46.20819" lon="4.57448">
        <ele>711.2</ele>
        <time>2025-09-07T12:40:17Z</time>
      </trkpt>
      <trkpt lat="46.20817" lon="4.57445">
        <ele>711.2</ele>
        <time>2025-09-07T12:40:18Z</time>
      </trkpt>
      <trkpt lat="46.20816" lon="4.57442">
        <ele>711.2</ele>
        <time>2025-09-07T12:40:19Z</time>
      </trkpt>
      <trkpt lat="46.20815" lon="4.5744">
        <ele>711.2</ele>
        <time>2025-09-07T12:40:20Z</time>
      </trkpt>
      <trkpt lat="46.20815" lon="4.57437">
        <ele>710.6</ele>
        <time>2025-09-07T12:40:21Z</time>
      </trkpt>
      <trkpt lat="46.20814" lon="4.57434">
        <ele>710.6</ele>
        <time>2025-09-07T12:40:22Z</time>
      </trkpt>
      <trkpt lat="46.20813" lon="4.57431">
        <ele>710.6</ele>
        <time>2025-09-07T12:40:23Z</time>
      </trkpt>
      <trkpt lat="46.20812" lon="4.57428">
        <ele>710.2</ele>
        <time>2025-09-07T12:40:24Z</time>
      </trkpt>
      <trkpt lat="46.20811" lon="4.57425">
        <ele>709</ele>
        <time>2025-09-07T12:40:25Z</time>
      </trkpt>
      <trkpt lat="46.2081" lon="4.57422">
        <ele>709</ele>
        <time>2025-09-07T12:40:26Z</time>
      </trkpt>
      <trkpt lat="46.20809" lon="4.57419">
        <ele>709</ele>
        <time>2025-09-07T12:40:27Z</time>
      </trkpt>
      <trkpt lat="46.20808" lon="4.57415">
        <ele>709.2</ele>
        <time>2025-09-07T12:40:28Z</time>
      </trkpt>
      <trkpt lat="46.20808" lon="4.57412">
        <ele>709.2</ele>
        <time>2025-09-07T12:40:29Z</time>
      </trkpt>
      <trkpt lat="46.20807" lon="4.5741">
        <ele>709.2</ele>
        <time>2025-09-07T12:40:30Z</time>
      </trkpt>
      <trkpt lat="46.20806" lon="4.57407">
        <ele>709.2</ele>
        <time>2025-09-07T12:40:31Z</time>
      </trkpt>
      <trkpt lat="46.20805" lon="4.57404">
        <ele>709.2</ele>
        <time>2025-09-07T12:40:32Z</time>
      </trkpt>
      <trkpt lat="46.20804" lon="4.57402">
        <ele>709.6</ele>
        <time>2025-09-07T12:40:33Z</time>
      </trkpt>
      <trkpt lat="46.20802" lon="4.574">
        <ele>709.2</ele>
        <time>2025-09-07T12:40:34Z</time>
      </trkpt>
      <trkpt lat="46.20799" lon="4.57398">
        <ele>708.8</ele>
        <time>2025-09-07T12:40:35Z</time>
      </trkpt>
      <trkpt lat="46.20797" lon="4.57397">
        <ele>709</ele>
        <time>2025-09-07T12:40:36Z</time>
      </trkpt>
      <trkpt lat="46.20796" lon="4.57395">
        <ele>709.4</ele>
        <time>2025-09-07T12:40:37Z</time>
      </trkpt>
      <trkpt lat="46.20794" lon="4.57392">
        <ele>709.4</ele>
        <time>2025-09-07T12:40:38Z</time>
      </trkpt>
      <trkpt lat="46.20792" lon="4.5739">
        <ele>709.2</ele>
        <time>2025-09-07T12:40:39Z</time>
      </trkpt>
      <trkpt lat="46.20791" lon="4.57389">
        <ele>709.6</ele>
        <time>2025-09-07T12:40:40Z</time>
      </trkpt>
      <trkpt lat="46.2079" lon="4.57388">
        <ele>710</ele>
        <time>2025-09-07T12:40:41Z</time>
      </trkpt>
      <trkpt lat="46.20789" lon="4.57387">
        <ele>710.2</ele>
        <time>2025-09-07T12:40:42Z</time>
      </trkpt>
      <trkpt lat="46.20787" lon="4.57385">
        <ele>710.4</ele>
        <time>2025-09-07T12:40:43Z</time>
      </trkpt>
      <trkpt lat="46.20784" lon="4.57383">
        <ele>710.4</ele>
        <time>2025-09-07T12:40:44Z</time>
      </trkpt>
      <trkpt lat="46.20783" lon="4.57382">
        <ele>710.4</ele>
        <time>2025-09-07T12:40:45Z</time>
      </trkpt>
      <trkpt lat="46.20781" lon="4.57382">
        <ele>710.8</ele>
        <time>2025-09-07T12:40:46Z</time>
      </trkpt>
      <trkpt lat="46.20779" lon="4.5738">
        <ele>710.8</ele>
        <time>2025-09-07T12:40:47Z</time>
      </trkpt>
      <trkpt lat="46.20778" lon="4.57379">
        <ele>711.2</ele>
        <time>2025-09-07T12:40:48Z</time>
      </trkpt>
      <trkpt lat="46.20776" lon="4.57377">
        <ele>711.4</ele>
        <time>2025-09-07T12:40:49Z</time>
      </trkpt>
      <trkpt lat="46.20775" lon="4.57376">
        <ele>711.4</ele>
        <time>2025-09-07T12:40:50Z</time>
      </trkpt>
      <trkpt lat="46.20773" lon="4.57374">
        <ele>711.6</ele>
        <time>2025-09-07T12:40:51Z</time>
      </trkpt>
      <trkpt lat="46.20771" lon="4.57372">
        <ele>711.6</ele>
        <time>2025-09-07T12:40:52Z</time>
      </trkpt>
      <trkpt lat="46.2077" lon="4.5737">
        <ele>711.4</ele>
        <time>2025-09-07T12:40:53Z</time>
      </trkpt>
      <trkpt lat="46.20768" lon="4.57367">
        <ele>711.4</ele>
        <time>2025-09-07T12:40:54Z</time>
      </trkpt>
      <trkpt lat="46.20766" lon="4.57366">
        <ele>711.4</ele>
        <time>2025-09-07T12:40:55Z</time>
      </trkpt>
      <trkpt lat="46.20765" lon="4.57365">
        <ele>711.4</ele>
        <time>2025-09-07T12:40:56Z</time>
      </trkpt>
      <trkpt lat="46.20763" lon="4.57364">
        <ele>711.4</ele>
        <time>2025-09-07T12:40:57Z</time>
      </trkpt>
      <trkpt lat="46.20762" lon="4.57362">
        <ele>711.4</ele>
        <time>2025-09-07T12:40:58Z</time>
      </trkpt>
      <trkpt lat="46.2076" lon="4.57361">
        <ele>711.4</ele>
        <time>2025-09-07T12:40:59Z</time>
      </trkpt>
      <trkpt lat="46.20759" lon="4.5736">
        <ele>711.4</ele>
        <time>2025-09-07T12:41:00Z</time>
      </trkpt>
      <trkpt lat="46.20757" lon="4.57359">
        <ele>711.4</ele>
        <time>2025-09-07T12:41:01Z</time>
      </trkpt>
      <trkpt lat="46.20756" lon="4.57358">
        <ele>711.4</ele>
        <time>2025-09-07T12:41:02Z</time>
      </trkpt>
      <trkpt lat="46.20756" lon="4.57356">
        <ele>711.6</ele>
        <time>2025-09-07T12:41:03Z</time>
      </trkpt>
      <trkpt lat="46.20755" lon="4.57353">
        <ele>712</ele>
        <time>2025-09-07T12:41:04Z</time>
      </trkpt>
      <trkpt lat="46.20755" lon="4.57352">
        <ele>712</ele>
        <time>2025-09-07T12:41:05Z</time>
      </trkpt>
      <trkpt lat="46.20754" lon="4.57351">
        <ele>712</ele>
        <time>2025-09-07T12:41:06Z</time>
      </trkpt>
      <trkpt lat="46.20754" lon="4.5735">
        <ele>712</ele>
        <time>2025-09-07T12:41:07Z</time>
      </trkpt>
      <trkpt lat="46.20753" lon="4.57348">
        <ele>711.6</ele>
        <time>2025-09-07T12:41:11Z</time>
      </trkpt>
      <trkpt lat="46.20752" lon="4.57347">
        <ele>712</ele>
        <time>2025-09-07T12:41:12Z</time>
      </trkpt>
      <trkpt lat="46.20751" lon="4.57346">
        <ele>712</ele>
        <time>2025-09-07T12:41:13Z</time>
      </trkpt>
      <trkpt lat="46.2075" lon="4.57344">
        <ele>712</ele>
        <time>2025-09-07T12:41:14Z</time>
      </trkpt>
      <trkpt lat="46.20749" lon="4.57342">
        <ele>712.2</ele>
        <time>2025-09-07T12:41:15Z</time>
      </trkpt>
      <trkpt lat="46.20748" lon="4.5734">
        <ele>712.2</ele>
        <time>2025-09-07T12:41:16Z</time>
      </trkpt>
      <trkpt lat="46.20747" lon="4.57339">
        <ele>712.2</ele>
        <time>2025-09-07T12:41:17Z</time>
      </trkpt>
      <trkpt lat="46.20745" lon="4.57337">
        <ele>712.2</ele>
        <time>2025-09-07T12:41:18Z</time>
      </trkpt>
      <trkpt lat="46.20743" lon="4.57334">
        <ele>712.2</ele>
        <time>2025-09-07T12:41:19Z</time>
      </trkpt>
      <trkpt lat="46.20742" lon="4.57332">
        <ele>712.8</ele>
        <time>2025-09-07T12:41:20Z</time>
      </trkpt>
      <trkpt lat="46.2074" lon="4.57331">
        <ele>712.8</ele>
        <time>2025-09-07T12:41:21Z</time>
      </trkpt>
      <trkpt lat="46.20739" lon="4.57329">
        <ele>712.8</ele>
        <time>2025-09-07T12:41:22Z</time>
      </trkpt>
      <trkpt lat="46.20738" lon="4.57326">
        <ele>712.8</ele>
        <time>2025-09-07T12:41:23Z</time>
      </trkpt>
      <trkpt lat="46.20737" lon="4.57324">
        <ele>713.2</ele>
        <time>2025-09-07T12:41:24Z</time>
      </trkpt>
      <trkpt lat="46.20736" lon="4.57322">
        <ele>713.6</ele>
        <time>2025-09-07T12:41:25Z</time>
      </trkpt>
      <trkpt lat="46.20736" lon="4.5732">
        <ele>713.6</ele>
        <time>2025-09-07T12:41:26Z</time>
      </trkpt>
      <trkpt lat="46.20735" lon="4.57318">
        <ele>713.2</ele>
        <time>2025-09-07T12:41:27Z</time>
      </trkpt>
      <trkpt lat="46.20734" lon="4.57317">
        <ele>713.2</ele>
        <time>2025-09-07T12:41:28Z</time>
      </trkpt>
      <trkpt lat="46.20734" lon="4.57315">
        <ele>713</ele>
        <time>2025-09-07T12:41:29Z</time>
      </trkpt>
      <trkpt lat="46.20733" lon="4.57314">
        <ele>713</ele>
        <time>2025-09-07T12:41:30Z</time>
      </trkpt>
      <trkpt lat="46.20732" lon="4.57314">
        <ele>712.8</ele>
        <time>2025-09-07T12:41:31Z</time>
      </trkpt>
      <trkpt lat="46.20732" lon="4.57312">
        <ele>712.8</ele>
        <time>2025-09-07T12:41:32Z</time>
      </trkpt>
      <trkpt lat="46.20732" lon="4.57311">
        <ele>712.8</ele>
        <time>2025-09-07T12:41:33Z</time>
      </trkpt>
      <trkpt lat="46.20732" lon="4.5731">
        <ele>712.8</ele>
        <time>2025-09-07T12:41:34Z</time>
      </trkpt>
      <trkpt lat="46.20731" lon="4.57309">
        <ele>712.4</ele>
        <time>2025-09-07T12:41:35Z</time>
      </trkpt>
      <trkpt lat="46.2073" lon="4.57307">
        <ele>712.4</ele>
        <time>2025-09-07T12:41:36Z</time>
      </trkpt>
      <trkpt lat="46.20729" lon="4.57305">
        <ele>712.4</ele>
        <time>2025-09-07T12:41:37Z</time>
      </trkpt>
      <trkpt lat="46.20728" lon="4.57303">
        <ele>712.4</ele>
        <time>2025-09-07T12:41:38Z</time>
      </trkpt>
      <trkpt lat="46.20728" lon="4.573">
        <ele>712.4</ele>
        <time>2025-09-07T12:41:39Z</time>
      </trkpt>
      <trkpt lat="46.20726" lon="4.57298">
        <ele>712.4</ele>
        <time>2025-09-07T12:41:40Z</time>
      </trkpt>
      <trkpt lat="46.20725" lon="4.57295">
        <ele>712.2</ele>
        <time>2025-09-07T12:41:41Z</time>
      </trkpt>
      <trkpt lat="46.20724" lon="4.57293">
        <ele>712.2</ele>
        <time>2025-09-07T12:41:42Z</time>
      </trkpt>
      <trkpt lat="46.20723" lon="4.5729">
        <ele>712.2</ele>
        <time>2025-09-07T12:41:43Z</time>
      </trkpt>
      <trkpt lat="46.20722" lon="4.57287">
        <ele>712.2</ele>
        <time>2025-09-07T12:41:44Z</time>
      </trkpt>
      <trkpt lat="46.20721" lon="4.57284">
        <ele>712.2</ele>
        <time>2025-09-07T12:41:45Z</time>
      </trkpt>
      <trkpt lat="46.2072" lon="4.57283">
        <ele>712.2</ele>
        <time>2025-09-07T12:41:46Z</time>
      </trkpt>
      <trkpt lat="46.20719" lon="4.57281">
        <ele>712.2</ele>
        <time>2025-09-07T12:41:47Z</time>
      </trkpt>
      <trkpt lat="46.20718" lon="4.57279">
        <ele>712.2</ele>
        <time>2025-09-07T12:41:48Z</time>
      </trkpt>
      <trkpt lat="46.20718" lon="4.57278">
        <ele>712.2</ele>
        <time>2025-09-07T12:41:49Z</time>
      </trkpt>
      <trkpt lat="46.20718" lon="4.57278">
        <ele>712.2</ele>
        <time>2025-09-07T12:41:50Z</time>
      </trkpt>
      <trkpt lat="46.20716" lon="4.57276">
        <ele>712.2</ele>
        <time>2025-09-07T12:41:57Z</time>
      </trkpt>
      <trkpt lat="46.20715" lon="4.57273">
        <ele>712.2</ele>
        <time>2025-09-07T12:41:58Z</time>
      </trkpt>
      <trkpt lat="46.20715" lon="4.57272">
        <ele>712.2</ele>
        <time>2025-09-07T12:41:59Z</time>
      </trkpt>
      <trkpt lat="46.20714" lon="4.5727">
        <ele>712.4</ele>
        <time>2025-09-07T12:42:00Z</time>
      </trkpt>
      <trkpt lat="46.20713" lon="4.57268">
        <ele>712.4</ele>
        <time>2025-09-07T12:42:01Z</time>
      </trkpt>
      <trkpt lat="46.20711" lon="4.57266">
        <ele>712.4</ele>
        <time>2025-09-07T12:42:02Z</time>
      </trkpt>
      <trkpt lat="46.2071" lon="4.57264">
        <ele>712</ele>
        <time>2025-09-07T12:42:03Z</time>
      </trkpt>
      <trkpt lat="46.20708" lon="4.57261">
        <ele>712</ele>
        <time>2025-09-07T12:42:04Z</time>
      </trkpt>
      <trkpt lat="46.20707" lon="4.57259">
        <ele>712</ele>
        <time>2025-09-07T12:42:05Z</time>
      </trkpt>
      <trkpt lat="46.20705" lon="4.57256">
        <ele>712</ele>
        <time>2025-09-07T12:42:06Z</time>
      </trkpt>
      <trkpt lat="46.20703" lon="4.57254">
        <ele>712</ele>
        <time>2025-09-07T12:42:07Z</time>
      </trkpt>
      <trkpt lat="46.207" lon="4.5725">
        <ele>712</ele>
        <time>2025-09-07T12:42:08Z</time>
      </trkpt>
      <trkpt lat="46.20699" lon="4.57248">
        <ele>711.6</ele>
        <time>2025-09-07T12:42:09Z</time>
      </trkpt>
      <trkpt lat="46.20697" lon="4.57247">
        <ele>711.6</ele>
        <time>2025-09-07T12:42:10Z</time>
      </trkpt>
      <trkpt lat="46.20697" lon="4.57245">
        <ele>711.8</ele>
        <time>2025-09-07T12:42:11Z</time>
      </trkpt>
      <trkpt lat="46.20697" lon="4.57242">
        <ele>711.8</ele>
        <time>2025-09-07T12:42:12Z</time>
      </trkpt>
      <trkpt lat="46.20696" lon="4.5724">
        <ele>711.8</ele>
        <time>2025-09-07T12:42:13Z</time>
      </trkpt>
      <trkpt lat="46.20695" lon="4.5724">
        <ele>711.6</ele>
        <time>2025-09-07T12:42:14Z</time>
      </trkpt>
      <trkpt lat="46.20693" lon="4.57237">
        <ele>711.6</ele>
        <time>2025-09-07T12:42:15Z</time>
      </trkpt>
      <trkpt lat="46.20691" lon="4.57234">
        <ele>711.6</ele>
        <time>2025-09-07T12:42:16Z</time>
      </trkpt>
      <trkpt lat="46.2069" lon="4.57231">
        <ele>711.6</ele>
        <time>2025-09-07T12:42:17Z</time>
      </trkpt>
      <trkpt lat="46.20689" lon="4.57227">
        <ele>711.6</ele>
        <time>2025-09-07T12:42:18Z</time>
      </trkpt>
      <trkpt lat="46.20686" lon="4.57223">
        <ele>711.6</ele>
        <time>2025-09-07T12:42:19Z</time>
      </trkpt>
      <trkpt lat="46.20684" lon="4.57221">
        <ele>711.6</ele>
        <time>2025-09-07T12:42:20Z</time>
      </trkpt>
      <trkpt lat="46.20681" lon="4.57219">
        <ele>711.6</ele>
        <time>2025-09-07T12:42:21Z</time>
      </trkpt>
      <trkpt lat="46.20679" lon="4.57217">
        <ele>711.6</ele>
        <time>2025-09-07T12:42:22Z</time>
      </trkpt>
      <trkpt lat="46.20678" lon="4.57213">
        <ele>711.6</ele>
        <time>2025-09-07T12:42:23Z</time>
      </trkpt>
      <trkpt lat="46.20677" lon="4.57209">
        <ele>711.8</ele>
        <time>2025-09-07T12:42:24Z</time>
      </trkpt>
      <trkpt lat="46.20677" lon="4.57205">
        <ele>712</ele>
        <time>2025-09-07T12:42:25Z</time>
      </trkpt>
      <trkpt lat="46.20676" lon="4.57201">
        <ele>712.4</ele>
        <time>2025-09-07T12:42:26Z</time>
      </trkpt>
      <trkpt lat="46.20676" lon="4.57197">
        <ele>712.8</ele>
        <time>2025-09-07T12:42:27Z</time>
      </trkpt>
      <trkpt lat="46.20675" lon="4.57193">
        <ele>712.8</ele>
        <time>2025-09-07T12:42:28Z</time>
      </trkpt>
      <trkpt lat="46.20675" lon="4.57188">
        <ele>712.8</ele>
        <time>2025-09-07T12:42:29Z</time>
      </trkpt>
      <trkpt lat="46.20675" lon="4.57185">
        <ele>712.6</ele>
        <time>2025-09-07T12:42:30Z</time>
      </trkpt>
      <trkpt lat="46.20675" lon="4.57182">
        <ele>712.6</ele>
        <time>2025-09-07T12:42:31Z</time>
      </trkpt>
      <trkpt lat="46.20674" lon="4.57179">
        <ele>713.6</ele>
        <time>2025-09-07T12:42:32Z</time>
      </trkpt>
      <trkpt lat="46.20674" lon="4.57176">
        <ele>713.6</ele>
        <time>2025-09-07T12:42:33Z</time>
      </trkpt>
      <trkpt lat="46.20674" lon="4.57173">
        <ele>712.6</ele>
        <time>2025-09-07T12:42:34Z</time>
      </trkpt>
      <trkpt lat="46.20674" lon="4.5717">
        <ele>712.6</ele>
        <time>2025-09-07T12:42:35Z</time>
      </trkpt>
      <trkpt lat="46.20674" lon="4.57167">
        <ele>712.6</ele>
        <time>2025-09-07T12:42:36Z</time>
      </trkpt>
      <trkpt lat="46.20674" lon="4.57164">
        <ele>712.8</ele>
        <time>2025-09-07T12:42:37Z</time>
      </trkpt>
      <trkpt lat="46.20674" lon="4.5716">
        <ele>712.8</ele>
        <time>2025-09-07T12:42:38Z</time>
      </trkpt>
      <trkpt lat="46.20674" lon="4.57156">
        <ele>712.8</ele>
        <time>2025-09-07T12:42:39Z</time>
      </trkpt>
      <trkpt lat="46.20673" lon="4.57153">
        <ele>713</ele>
        <time>2025-09-07T12:42:40Z</time>
      </trkpt>
      <trkpt lat="46.20673" lon="4.5715">
        <ele>713</ele>
        <time>2025-09-07T12:42:41Z</time>
      </trkpt>
      <trkpt lat="46.20673" lon="4.57147">
        <ele>713</ele>
        <time>2025-09-07T12:42:42Z</time>
      </trkpt>
      <trkpt lat="46.20672" lon="4.57142">
        <ele>713</ele>
        <time>2025-09-07T12:42:43Z</time>
      </trkpt>
      <trkpt lat="46.20672" lon="4.57138">
        <ele>713</ele>
        <time>2025-09-07T12:42:44Z</time>
      </trkpt>
      <trkpt lat="46.20674" lon="4.57129">
        <ele>713</ele>
        <time>2025-09-07T12:42:45Z</time>
      </trkpt>
      <trkpt lat="46.20675" lon="4.57125">
        <ele>713</ele>
        <time>2025-09-07T12:42:46Z</time>
      </trkpt>
      <trkpt lat="46.20673" lon="4.5712">
        <ele>712.8</ele>
        <time>2025-09-07T12:42:47Z</time>
      </trkpt>
      <trkpt lat="46.20673" lon="4.57113">
        <ele>712.8</ele>
        <time>2025-09-07T12:42:48Z</time>
      </trkpt>
      <trkpt lat="46.20672" lon="4.57107">
        <ele>712.8</ele>
        <time>2025-09-07T12:42:49Z</time>
      </trkpt>
      <trkpt lat="46.20674" lon="4.57102">
        <ele>712.8</ele>
        <time>2025-09-07T12:42:50Z</time>
      </trkpt>
      <trkpt lat="46.20672" lon="4.57097">
        <ele>712.4</ele>
        <time>2025-09-07T12:42:51Z</time>
      </trkpt>
      <trkpt lat="46.20672" lon="4.5709">
        <ele>712.4</ele>
        <time>2025-09-07T12:42:52Z</time>
      </trkpt>
      <trkpt lat="46.20672" lon="4.57085">
        <ele>712</ele>
        <time>2025-09-07T12:42:53Z</time>
      </trkpt>
      <trkpt lat="46.20672" lon="4.57077">
        <ele>711.6</ele>
        <time>2025-09-07T12:42:54Z</time>
      </trkpt>
      <trkpt lat="46.20671" lon="4.57071">
        <ele>711.6</ele>
        <time>2025-09-07T12:42:55Z</time>
      </trkpt>
      <trkpt lat="46.20671" lon="4.57071">
        <ele>711.4</ele>
        <time>2025-09-07T12:42:56Z</time>
      </trkpt>
      <trkpt lat="46.2067" lon="4.57065">
        <ele>711.8</ele>
        <time>2025-09-07T12:42:57Z</time>
      </trkpt>
      <trkpt lat="46.2067" lon="4.57059">
        <ele>711.2</ele>
        <time>2025-09-07T12:42:58Z</time>
      </trkpt>
      <trkpt lat="46.20669" lon="4.57053">
        <ele>710.6</ele>
        <time>2025-09-07T12:42:59Z</time>
      </trkpt>
      <trkpt lat="46.20669" lon="4.57048">
        <ele>710.6</ele>
        <time>2025-09-07T12:43:00Z</time>
      </trkpt>
      <trkpt lat="46.20668" lon="4.57043">
        <ele>710.6</ele>
        <time>2025-09-07T12:43:01Z</time>
      </trkpt>
      <trkpt lat="46.20668" lon="4.57038">
        <ele>710.6</ele>
        <time>2025-09-07T12:43:02Z</time>
      </trkpt>
      <trkpt lat="46.20667" lon="4.57034">
        <ele>710.6</ele>
        <time>2025-09-07T12:43:03Z</time>
      </trkpt>
      <trkpt lat="46.20667" lon="4.57032">
        <ele>710.8</ele>
        <time>2025-09-07T12:43:04Z</time>
      </trkpt>
      <trkpt lat="46.20667" lon="4.5703">
        <ele>711</ele>
        <time>2025-09-07T12:43:05Z</time>
      </trkpt>
      <trkpt lat="46.20667" lon="4.57027">
        <ele>710.6</ele>
        <time>2025-09-07T12:43:06Z</time>
      </trkpt>
      <trkpt lat="46.20666" lon="4.57024">
        <ele>710.2</ele>
        <time>2025-09-07T12:43:07Z</time>
      </trkpt>
      <trkpt lat="46.20665" lon="4.5702">
        <ele>710.4</ele>
        <time>2025-09-07T12:43:08Z</time>
      </trkpt>
      <trkpt lat="46.20664" lon="4.57018">
        <ele>710.8</ele>
        <time>2025-09-07T12:43:09Z</time>
      </trkpt>
      <trkpt lat="46.20662" lon="4.57015">
        <ele>710.8</ele>
        <time>2025-09-07T12:43:10Z</time>
      </trkpt>
      <trkpt lat="46.20661" lon="4.57012">
        <ele>711.2</ele>
        <time>2025-09-07T12:43:11Z</time>
      </trkpt>
      <trkpt lat="46.20659" lon="4.5701">
        <ele>711.4</ele>
        <time>2025-09-07T12:43:12Z</time>
      </trkpt>
      <trkpt lat="46.20657" lon="4.57008">
        <ele>711.6</ele>
        <time>2025-09-07T12:43:13Z</time>
      </trkpt>
      <trkpt lat="46.20655" lon="4.57007">
        <ele>711.8</ele>
        <time>2025-09-07T12:43:14Z</time>
      </trkpt>
      <trkpt lat="46.20654" lon="4.57005">
        <ele>711.8</ele>
        <time>2025-09-07T12:43:15Z</time>
      </trkpt>
      <trkpt lat="46.20652" lon="4.57003">
        <ele>712.4</ele>
        <time>2025-09-07T12:43:16Z</time>
      </trkpt>
      <trkpt lat="46.20651" lon="4.57002">
        <ele>712.6</ele>
        <time>2025-09-07T12:43:17Z</time>
      </trkpt>
      <trkpt lat="46.2065" lon="4.57">
        <ele>712.6</ele>
        <time>2025-09-07T12:43:18Z</time>
      </trkpt>
      <trkpt lat="46.2065" lon="4.56999">
        <ele>712.6</ele>
        <time>2025-09-07T12:43:19Z</time>
      </trkpt>
      <trkpt lat="46.20649" lon="4.56997">
        <ele>712.6</ele>
        <time>2025-09-07T12:43:20Z</time>
      </trkpt>
      <trkpt lat="46.20648" lon="4.56994">
        <ele>713</ele>
        <time>2025-09-07T12:43:21Z</time>
      </trkpt>
      <trkpt lat="46.20647" lon="4.5699">
        <ele>713</ele>
        <time>2025-09-07T12:43:22Z</time>
      </trkpt>
      <trkpt lat="46.20646" lon="4.56986">
        <ele>713</ele>
        <time>2025-09-07T12:43:23Z</time>
      </trkpt>
      <trkpt lat="46.20645" lon="4.56982">
        <ele>713</ele>
        <time>2025-09-07T12:43:24Z</time>
      </trkpt>
      <trkpt lat="46.20645" lon="4.56979">
        <ele>712.8</ele>
        <time>2025-09-07T12:43:25Z</time>
      </trkpt>
      <trkpt lat="46.20644" lon="4.56975">
        <ele>712.4</ele>
        <time>2025-09-07T12:43:26Z</time>
      </trkpt>
      <trkpt lat="46.20644" lon="4.56971">
        <ele>712.4</ele>
        <time>2025-09-07T12:43:27Z</time>
      </trkpt>
      <trkpt lat="46.20643" lon="4.56967">
        <ele>712.2</ele>
        <time>2025-09-07T12:43:28Z</time>
      </trkpt>
      <trkpt lat="46.20643" lon="4.56963">
        <ele>712</ele>
        <time>2025-09-07T12:43:29Z</time>
      </trkpt>
      <trkpt lat="46.20643" lon="4.5696">
        <ele>712.2</ele>
        <time>2025-09-07T12:43:30Z</time>
      </trkpt>
      <trkpt lat="46.20643" lon="4.56957">
        <ele>712.2</ele>
        <time>2025-09-07T12:43:31Z</time>
      </trkpt>
      <trkpt lat="46.20642" lon="4.56954">
        <ele>712.4</ele>
        <time>2025-09-07T12:43:32Z</time>
      </trkpt>
      <trkpt lat="46.20641" lon="4.56951">
        <ele>712.4</ele>
        <time>2025-09-07T12:43:33Z</time>
      </trkpt>
      <trkpt lat="46.2064" lon="4.56948">
        <ele>712.8</ele>
        <time>2025-09-07T12:43:34Z</time>
      </trkpt>
      <trkpt lat="46.2064" lon="4.56943">
        <ele>712.8</ele>
        <time>2025-09-07T12:43:35Z</time>
      </trkpt>
      <trkpt lat="46.20639" lon="4.5694">
        <ele>712.8</ele>
        <time>2025-09-07T12:43:36Z</time>
      </trkpt>
      <trkpt lat="46.20638" lon="4.56937">
        <ele>713.2</ele>
        <time>2025-09-07T12:43:37Z</time>
      </trkpt>
      <trkpt lat="46.20637" lon="4.56933">
        <ele>712.8</ele>
        <time>2025-09-07T12:43:38Z</time>
      </trkpt>
      <trkpt lat="46.20637" lon="4.5693">
        <ele>712.8</ele>
        <time>2025-09-07T12:43:39Z</time>
      </trkpt>
      <trkpt lat="46.20636" lon="4.56927">
        <ele>712.8</ele>
        <time>2025-09-07T12:43:40Z</time>
      </trkpt>
      <trkpt lat="46.20636" lon="4.56924">
        <ele>712.6</ele>
        <time>2025-09-07T12:43:41Z</time>
      </trkpt>
      <trkpt lat="46.20635" lon="4.56921">
        <ele>712.6</ele>
        <time>2025-09-07T12:43:42Z</time>
      </trkpt>
      <trkpt lat="46.20635" lon="4.56918">
        <ele>712.6</ele>
        <time>2025-09-07T12:43:43Z</time>
      </trkpt>
      <trkpt lat="46.20634" lon="4.56915">
        <ele>712.6</ele>
        <time>2025-09-07T12:43:44Z</time>
      </trkpt>
      <trkpt lat="46.20634" lon="4.56911">
        <ele>712.6</ele>
        <time>2025-09-07T12:43:45Z</time>
      </trkpt>
      <trkpt lat="46.20633" lon="4.56907">
        <ele>712.6</ele>
        <time>2025-09-07T12:43:46Z</time>
      </trkpt>
      <trkpt lat="46.20633" lon="4.56903">
        <ele>712.6</ele>
        <time>2025-09-07T12:43:47Z</time>
      </trkpt>
      <trkpt lat="46.20634" lon="4.569">
        <ele>712.4</ele>
        <time>2025-09-07T12:43:48Z</time>
      </trkpt>
      <trkpt lat="46.20634" lon="4.56897">
        <ele>712.4</ele>
        <time>2025-09-07T12:43:49Z</time>
      </trkpt>
      <trkpt lat="46.20635" lon="4.56893">
        <ele>712</ele>
        <time>2025-09-07T12:43:50Z</time>
      </trkpt>
      <trkpt lat="46.20637" lon="4.5689">
        <ele>712</ele>
        <time>2025-09-07T12:43:51Z</time>
      </trkpt>
      <trkpt lat="46.20638" lon="4.56887">
        <ele>712</ele>
        <time>2025-09-07T12:43:52Z</time>
      </trkpt>
      <trkpt lat="46.20639" lon="4.56884">
        <ele>712</ele>
        <time>2025-09-07T12:43:53Z</time>
      </trkpt>
      <trkpt lat="46.2064" lon="4.56882">
        <ele>711.4</ele>
        <time>2025-09-07T12:43:54Z</time>
      </trkpt>
      <trkpt lat="46.20641" lon="4.56879">
        <ele>711</ele>
        <time>2025-09-07T12:43:55Z</time>
      </trkpt>
      <trkpt lat="46.20642" lon="4.56876">
        <ele>710.6</ele>
        <time>2025-09-07T12:43:56Z</time>
      </trkpt>
      <trkpt lat="46.20643" lon="4.56873">
        <ele>710.4</ele>
        <time>2025-09-07T12:43:57Z</time>
      </trkpt>
      <trkpt lat="46.20644" lon="4.56871">
        <ele>710.4</ele>
        <time>2025-09-07T12:43:58Z</time>
      </trkpt>
      <trkpt lat="46.20644" lon="4.5687">
        <ele>710</ele>
        <time>2025-09-07T12:43:59Z</time>
      </trkpt>
      <trkpt lat="46.20645" lon="4.56869">
        <ele>710</ele>
        <time>2025-09-07T12:44:00Z</time>
      </trkpt>
      <trkpt lat="46.20646" lon="4.56869">
        <ele>710</ele>
        <time>2025-09-07T12:44:01Z</time>
      </trkpt>
      <trkpt lat="46.20646" lon="4.56869">
        <ele>709.8</ele>
        <time>2025-09-07T12:44:02Z</time>
      </trkpt>
      <trkpt lat="46.20648" lon="4.5687">
        <ele>709.2</ele>
        <time>2025-09-07T12:44:36Z</time>
      </trkpt>
      <trkpt lat="46.2065" lon="4.56871">
        <ele>709.2</ele>
        <time>2025-09-07T12:44:37Z</time>
      </trkpt>
      <trkpt lat="46.20651" lon="4.56873">
        <ele>709.2</ele>
        <time>2025-09-07T12:44:38Z</time>
      </trkpt>
      <trkpt lat="46.20652" lon="4.56875">
        <ele>709.2</ele>
        <time>2025-09-07T12:44:39Z</time>
      </trkpt>
      <trkpt lat="46.20652" lon="4.56876">
        <ele>709.2</ele>
        <time>2025-09-07T12:44:40Z</time>
      </trkpt>
      <trkpt lat="46.20652" lon="4.56876">
        <ele>709.2</ele>
        <time>2025-09-07T12:44:41Z</time>
      </trkpt>
      <trkpt lat="46.20652" lon="4.56876">
        <ele>709.2</ele>
        <time>2025-09-07T12:44:42Z</time>
      </trkpt>
      <trkpt lat="46.20651" lon="4.56881">
        <ele>710.2</ele>
        <time>2025-09-07T12:46:10Z</time>
      </trkpt>
      <trkpt lat="46.20651" lon="4.56881">
        <ele>710.2</ele>
        <time>2025-09-07T12:46:11Z</time>
      </trkpt>
      <trkpt lat="46.20651" lon="4.56881">
        <ele>710.2</ele>
        <time>2025-09-07T12:46:12Z</time>
      </trkpt>
      <trkpt lat="46.20651" lon="4.56881">
        <ele>710.2</ele>
        <time>2025-09-07T12:46:13Z</time>
      </trkpt>
      <trkpt lat="46.20652" lon="4.56889">
        <ele>709.6</ele>
        <time>2025-09-07T12:46:15Z</time>
      </trkpt>
      <trkpt lat="46.20653" lon="4.5689">
        <ele>709.6</ele>
        <time>2025-09-07T12:46:16Z</time>
      </trkpt>
      <trkpt lat="46.20654" lon="4.56892">
        <ele>709.6</ele>
        <time>2025-09-07T12:46:17Z</time>
      </trkpt>
      <trkpt lat="46.20655" lon="4.56893">
        <ele>709.6</ele>
        <time>2025-09-07T12:46:18Z</time>
      </trkpt>
      <trkpt lat="46.20655" lon="4.56893">
        <ele>709.6</ele>
        <time>2025-09-07T12:46:19Z</time>
      </trkpt>
      <trkpt lat="46.20656" lon="4.56893">
        <ele>709.4</ele>
        <time>2025-09-07T12:46:20Z</time>
      </trkpt>
      <trkpt lat="46.20657" lon="4.56891">
        <ele>709</ele>
        <time>2025-09-07T12:46:21Z</time>
      </trkpt>
      <trkpt lat="46.20657" lon="4.56889">
        <ele>709</ele>
        <time>2025-09-07T12:46:22Z</time>
      </trkpt>
      <trkpt lat="46.20657" lon="4.56886">
        <ele>709.4</ele>
        <time>2025-09-07T12:46:23Z</time>
      </trkpt>
      <trkpt lat="46.20656" lon="4.56885">
        <ele>709.4</ele>
        <time>2025-09-07T12:46:24Z</time>
      </trkpt>
      <trkpt lat="46.20655" lon="4.56882">
        <ele>709.4</ele>
        <time>2025-09-07T12:46:25Z</time>
      </trkpt>
      <trkpt lat="46.20653" lon="4.56879">
        <ele>709.4</ele>
        <time>2025-09-07T12:46:26Z</time>
      </trkpt>
      <trkpt lat="46.20652" lon="4.56876">
        <ele>709.4</ele>
        <time>2025-09-07T12:46:27Z</time>
      </trkpt>
      <trkpt lat="46.20651" lon="4.56873">
        <ele>709.4</ele>
        <time>2025-09-07T12:46:28Z</time>
      </trkpt>
      <trkpt lat="46.2065" lon="4.56869">
        <ele>709.2</ele>
        <time>2025-09-07T12:46:29Z</time>
      </trkpt>
      <trkpt lat="46.2065" lon="4.56864">
        <ele>709.2</ele>
        <time>2025-09-07T12:46:30Z</time>
      </trkpt>
      <trkpt lat="46.2065" lon="4.5686">
        <ele>708.8</ele>
        <time>2025-09-07T12:46:31Z</time>
      </trkpt>
      <trkpt lat="46.2065" lon="4.5685">
        <ele>708.8</ele>
        <time>2025-09-07T12:46:32Z</time>
      </trkpt>
      <trkpt lat="46.20651" lon="4.56844">
        <ele>708.6</ele>
        <time>2025-09-07T12:46:33Z</time>
      </trkpt>
      <trkpt lat="46.20651" lon="4.56839">
        <ele>708.6</ele>
        <time>2025-09-07T12:46:34Z</time>
      </trkpt>
      <trkpt lat="46.20652" lon="4.5683">
        <ele>708.6</ele>
        <time>2025-09-07T12:46:35Z</time>
      </trkpt>
      <trkpt lat="46.20653" lon="4.56825">
        <ele>708.6</ele>
        <time>2025-09-07T12:46:36Z</time>
      </trkpt>
      <trkpt lat="46.20656" lon="4.5682">
        <ele>708.6</ele>
        <time>2025-09-07T12:46:37Z</time>
      </trkpt>
      <trkpt lat="46.20657" lon="4.56812">
        <ele>708.2</ele>
        <time>2025-09-07T12:46:38Z</time>
      </trkpt>
      <trkpt lat="46.20658" lon="4.56808">
        <ele>707.8</ele>
        <time>2025-09-07T12:46:39Z</time>
      </trkpt>
      <trkpt lat="46.20658" lon="4.56806">
        <ele>707.8</ele>
        <time>2025-09-07T12:46:40Z</time>
      </trkpt>
      <trkpt lat="46.20659" lon="4.56803">
        <ele>707.4</ele>
        <time>2025-09-07T12:46:41Z</time>
      </trkpt>
      <trkpt lat="46.20659" lon="4.56801">
        <ele>707.4</ele>
        <time>2025-09-07T12:46:42Z</time>
      </trkpt>
      <trkpt lat="46.2066" lon="4.568">
        <ele>707.4</ele>
        <time>2025-09-07T12:46:43Z</time>
      </trkpt>
      <trkpt lat="46.2066" lon="4.56799">
        <ele>707.2</ele>
        <time>2025-09-07T12:46:44Z</time>
      </trkpt>
      <trkpt lat="46.2066" lon="4.56797">
        <ele>707.2</ele>
        <time>2025-09-07T12:46:45Z</time>
      </trkpt>
      <trkpt lat="46.20662" lon="4.56794">
        <ele>707</ele>
        <time>2025-09-07T12:46:46Z</time>
      </trkpt>
      <trkpt lat="46.20664" lon="4.56792">
        <ele>707</ele>
        <time>2025-09-07T12:46:47Z</time>
      </trkpt>
      <trkpt lat="46.20664" lon="4.56789">
        <ele>707</ele>
        <time>2025-09-07T12:46:48Z</time>
      </trkpt>
      <trkpt lat="46.20665" lon="4.56786">
        <ele>706.6</ele>
        <time>2025-09-07T12:46:49Z</time>
      </trkpt>
      <trkpt lat="46.20666" lon="4.56782">
        <ele>706.2</ele>
        <time>2025-09-07T12:46:50Z</time>
      </trkpt>
      <trkpt lat="46.20666" lon="4.56782">
        <ele>706.2</ele>
        <time>2025-09-07T12:46:51Z</time>
      </trkpt>
      <trkpt lat="46.20668" lon="4.56778">
        <ele>705.8</ele>
        <time>2025-09-07T12:46:52Z</time>
      </trkpt>
      <trkpt lat="46.2067" lon="4.56773">
        <ele>705.8</ele>
        <time>2025-09-07T12:46:53Z</time>
      </trkpt>
      <trkpt lat="46.20672" lon="4.56769">
        <ele>705.8</ele>
        <time>2025-09-07T12:46:54Z</time>
      </trkpt>
      <trkpt lat="46.20673" lon="4.56764">
        <ele>705.8</ele>
        <time>2025-09-07T12:46:55Z</time>
      </trkpt>
      <trkpt lat="46.20675" lon="4.56759">
        <ele>705.2</ele>
        <time>2025-09-07T12:46:56Z</time>
      </trkpt>
      <trkpt lat="46.20676" lon="4.56753">
        <ele>704.8</ele>
        <time>2025-09-07T12:46:57Z</time>
      </trkpt>
      <trkpt lat="46.20678" lon="4.56743">
        <ele>704.8</ele>
        <time>2025-09-07T12:46:58Z</time>
      </trkpt>
      <trkpt lat="46.20681" lon="4.56734">
        <ele>704.6</ele>
        <time>2025-09-07T12:46:59Z</time>
      </trkpt>
      <trkpt lat="46.20683" lon="4.56726">
        <ele>704.4</ele>
        <time>2025-09-07T12:47:00Z</time>
      </trkpt>
      <trkpt lat="46.20684" lon="4.56719">
        <ele>704</ele>
        <time>2025-09-07T12:47:01Z</time>
      </trkpt>
      <trkpt lat="46.20686" lon="4.56709">
        <ele>703.6</ele>
        <time>2025-09-07T12:47:02Z</time>
      </trkpt>
      <trkpt lat="46.20686" lon="4.56699">
        <ele>703.6</ele>
        <time>2025-09-07T12:47:03Z</time>
      </trkpt>
      <trkpt lat="46.20686" lon="4.5669">
        <ele>703.4</ele>
        <time>2025-09-07T12:47:04Z</time>
      </trkpt>
      <trkpt lat="46.20687" lon="4.56677">
        <ele>703.4</ele>
        <time>2025-09-07T12:47:05Z</time>
      </trkpt>
      <trkpt lat="46.20687" lon="4.56667">
        <ele>703</ele>
        <time>2025-09-07T12:47:06Z</time>
      </trkpt>
      <trkpt lat="46.20689" lon="4.5666">
        <ele>703</ele>
        <time>2025-09-07T12:47:07Z</time>
      </trkpt>
      <trkpt lat="46.20689" lon="4.56652">
        <ele>702.6</ele>
        <time>2025-09-07T12:47:08Z</time>
      </trkpt>
      <trkpt lat="46.20688" lon="4.56645">
        <ele>702.4</ele>
        <time>2025-09-07T12:47:09Z</time>
      </trkpt>
      <trkpt lat="46.2069" lon="4.56634">
        <ele>702.4</ele>
        <time>2025-09-07T12:47:10Z</time>
      </trkpt>
      <trkpt lat="46.20689" lon="4.56623">
        <ele>702</ele>
        <time>2025-09-07T12:47:11Z</time>
      </trkpt>
      <trkpt lat="46.20689" lon="4.56612">
        <ele>701.8</ele>
        <time>2025-09-07T12:47:12Z</time>
      </trkpt>
      <trkpt lat="46.20692" lon="4.56598">
        <ele>701.6</ele>
        <time>2025-09-07T12:47:13Z</time>
      </trkpt>
      <trkpt lat="46.20695" lon="4.56588">
        <ele>701.2</ele>
        <time>2025-09-07T12:47:14Z</time>
      </trkpt>
      <trkpt lat="46.20698" lon="4.56578">
        <ele>701</ele>
        <time>2025-09-07T12:47:15Z</time>
      </trkpt>
      <trkpt lat="46.20702" lon="4.56571">
        <ele>700.6</ele>
        <time>2025-09-07T12:47:16Z</time>
      </trkpt>
      <trkpt lat="46.20704" lon="4.56564">
        <ele>700.6</ele>
        <time>2025-09-07T12:47:17Z</time>
      </trkpt>
      <trkpt lat="46.20709" lon="4.56557">
        <ele>700.2</ele>
        <time>2025-09-07T12:47:18Z</time>
      </trkpt>
      <trkpt lat="46.20717" lon="4.56545">
        <ele>700.2</ele>
        <time>2025-09-07T12:47:19Z</time>
      </trkpt>
      <trkpt lat="46.20719" lon="4.56539">
        <ele>700.2</ele>
        <time>2025-09-07T12:47:20Z</time>
      </trkpt>
      <trkpt lat="46.20724" lon="4.56538">
        <ele>700.6</ele>
        <time>2025-09-07T12:47:21Z</time>
      </trkpt>
      <trkpt lat="46.20726" lon="4.56536">
        <ele>701.2</ele>
        <time>2025-09-07T12:47:22Z</time>
      </trkpt>
      <trkpt lat="46.20728" lon="4.56534">
        <ele>701.8</ele>
        <time>2025-09-07T12:47:23Z</time>
      </trkpt>
      <trkpt lat="46.2073" lon="4.56535">
        <ele>702</ele>
        <time>2025-09-07T12:47:24Z</time>
      </trkpt>
      <trkpt lat="46.20732" lon="4.56536">
        <ele>702.6</ele>
        <time>2025-09-07T12:47:25Z</time>
      </trkpt>
      <trkpt lat="46.20734" lon="4.56537">
        <ele>703</ele>
        <time>2025-09-07T12:47:26Z</time>
      </trkpt>
      <trkpt lat="46.20737" lon="4.56537">
        <ele>703.6</ele>
        <time>2025-09-07T12:47:27Z</time>
      </trkpt>
      <trkpt lat="46.20739" lon="4.56535">
        <ele>703.8</ele>
        <time>2025-09-07T12:47:28Z</time>
      </trkpt>
      <trkpt lat="46.20741" lon="4.56535">
        <ele>704</ele>
        <time>2025-09-07T12:47:29Z</time>
      </trkpt>
      <trkpt lat="46.20743" lon="4.56535">
        <ele>704.2</ele>
        <time>2025-09-07T12:47:30Z</time>
      </trkpt>
      <trkpt lat="46.20745" lon="4.56535">
        <ele>704.4</ele>
        <time>2025-09-07T12:47:31Z</time>
      </trkpt>
      <trkpt lat="46.20746" lon="4.56535">
        <ele>704.4</ele>
        <time>2025-09-07T12:47:32Z</time>
      </trkpt>
      <trkpt lat="46.20748" lon="4.56535">
        <ele>704.4</ele>
        <time>2025-09-07T12:47:33Z</time>
      </trkpt>
      <trkpt lat="46.20749" lon="4.56536">
        <ele>704.4</ele>
        <time>2025-09-07T12:47:34Z</time>
      </trkpt>
      <trkpt lat="46.20751" lon="4.56536">
        <ele>704.8</ele>
        <time>2025-09-07T12:47:35Z</time>
      </trkpt>
      <trkpt lat="46.20753" lon="4.56535">
        <ele>704.8</ele>
        <time>2025-09-07T12:47:36Z</time>
      </trkpt>
      <trkpt lat="46.20754" lon="4.56533">
        <ele>705</ele>
        <time>2025-09-07T12:47:37Z</time>
      </trkpt>
      <trkpt lat="46.20755" lon="4.56532">
        <ele>705</ele>
        <time>2025-09-07T12:47:38Z</time>
      </trkpt>
      <trkpt lat="46.20755" lon="4.56529">
        <ele>704.8</ele>
        <time>2025-09-07T12:47:39Z</time>
      </trkpt>
      <trkpt lat="46.20755" lon="4.56526">
        <ele>704.8</ele>
        <time>2025-09-07T12:47:40Z</time>
      </trkpt>
      <trkpt lat="46.20753" lon="4.56522">
        <ele>704.6</ele>
        <time>2025-09-07T12:47:41Z</time>
      </trkpt>
      <trkpt lat="46.20751" lon="4.56519">
        <ele>704.4</ele>
        <time>2025-09-07T12:47:42Z</time>
      </trkpt>
      <trkpt lat="46.20748" lon="4.56517">
        <ele>704.4</ele>
        <time>2025-09-07T12:47:43Z</time>
      </trkpt>
      <trkpt lat="46.20745" lon="4.56515">
        <ele>704.6</ele>
        <time>2025-09-07T12:47:44Z</time>
      </trkpt>
      <trkpt lat="46.20743" lon="4.56514">
        <ele>704.6</ele>
        <time>2025-09-07T12:47:45Z</time>
      </trkpt>
      <trkpt lat="46.20741" lon="4.56512">
        <ele>704.6</ele>
        <time>2025-09-07T12:47:46Z</time>
      </trkpt>
      <trkpt lat="46.20739" lon="4.5651">
        <ele>704.6</ele>
        <time>2025-09-07T12:47:47Z</time>
      </trkpt>
      <trkpt lat="46.20737" lon="4.56508">
        <ele>704.2</ele>
        <time>2025-09-07T12:47:48Z</time>
      </trkpt>
      <trkpt lat="46.20735" lon="4.56506">
        <ele>705.4</ele>
        <time>2025-09-07T12:47:49Z</time>
      </trkpt>
      <trkpt lat="46.20733" lon="4.56503">
        <ele>705.4</ele>
        <time>2025-09-07T12:47:50Z</time>
      </trkpt>
      <trkpt lat="46.20731" lon="4.565">
        <ele>705.4</ele>
        <time>2025-09-07T12:47:51Z</time>
      </trkpt>
      <trkpt lat="46.20729" lon="4.56498">
        <ele>705.4</ele>
        <time>2025-09-07T12:47:52Z</time>
      </trkpt>
      <trkpt lat="46.20728" lon="4.56495">
        <ele>705.4</ele>
        <time>2025-09-07T12:47:53Z</time>
      </trkpt>
      <trkpt lat="46.20727" lon="4.56492">
        <ele>705.4</ele>
        <time>2025-09-07T12:47:54Z</time>
      </trkpt>
      <trkpt lat="46.20726" lon="4.5649">
        <ele>705.6</ele>
        <time>2025-09-07T12:47:55Z</time>
      </trkpt>
      <trkpt lat="46.20724" lon="4.56487">
        <ele>705.6</ele>
        <time>2025-09-07T12:47:56Z</time>
      </trkpt>
      <trkpt lat="46.20722" lon="4.56483">
        <ele>705.8</ele>
        <time>2025-09-07T12:47:57Z</time>
      </trkpt>
      <trkpt lat="46.20721" lon="4.5648">
        <ele>705.8</ele>
        <time>2025-09-07T12:47:58Z</time>
      </trkpt>
      <trkpt lat="46.20719" lon="4.56477">
        <ele>705.8</ele>
        <time>2025-09-07T12:47:59Z</time>
      </trkpt>
      <trkpt lat="46.20718" lon="4.56474">
        <ele>706.2</ele>
        <time>2025-09-07T12:48:00Z</time>
      </trkpt>
      <trkpt lat="46.20716" lon="4.56471">
        <ele>706.2</ele>
        <time>2025-09-07T12:48:01Z</time>
      </trkpt>
      <trkpt lat="46.20714" lon="4.56468">
        <ele>706.2</ele>
        <time>2025-09-07T12:48:02Z</time>
      </trkpt>
      <trkpt lat="46.20713" lon="4.56465">
        <ele>706.2</ele>
        <time>2025-09-07T12:48:03Z</time>
      </trkpt>
      <trkpt lat="46.20711" lon="4.56462">
        <ele>706.4</ele>
        <time>2025-09-07T12:48:04Z</time>
      </trkpt>
      <trkpt lat="46.2071" lon="4.56459">
        <ele>706.4</ele>
        <time>2025-09-07T12:48:05Z</time>
      </trkpt>
      <trkpt lat="46.20708" lon="4.56456">
        <ele>706.6</ele>
        <time>2025-09-07T12:48:06Z</time>
      </trkpt>
      <trkpt lat="46.20706" lon="4.56453">
        <ele>706.6</ele>
        <time>2025-09-07T12:48:07Z</time>
      </trkpt>
      <trkpt lat="46.20705" lon="4.56449">
        <ele>706.6</ele>
        <time>2025-09-07T12:48:08Z</time>
      </trkpt>
      <trkpt lat="46.20703" lon="4.56446">
        <ele>706.6</ele>
        <time>2025-09-07T12:48:09Z</time>
      </trkpt>
      <trkpt lat="46.20702" lon="4.56443">
        <ele>706.6</ele>
        <time>2025-09-07T12:48:10Z</time>
      </trkpt>
      <trkpt lat="46.207" lon="4.5644">
        <ele>706.6</ele>
        <time>2025-09-07T12:48:11Z</time>
      </trkpt>
      <trkpt lat="46.20698" lon="4.56436">
        <ele>706.6</ele>
        <time>2025-09-07T12:48:12Z</time>
      </trkpt>
      <trkpt lat="46.20698" lon="4.56436">
        <ele>706.6</ele>
        <time>2025-09-07T12:48:13Z</time>
      </trkpt>
      <trkpt lat="46.20697" lon="4.56433">
        <ele>706.6</ele>
        <time>2025-09-07T12:48:14Z</time>
      </trkpt>
      <trkpt lat="46.20695" lon="4.56429">
        <ele>706.6</ele>
        <time>2025-09-07T12:48:15Z</time>
      </trkpt>
      <trkpt lat="46.20694" lon="4.56425">
        <ele>706.6</ele>
        <time>2025-09-07T12:48:16Z</time>
      </trkpt>
      <trkpt lat="46.20692" lon="4.5642">
        <ele>706.6</ele>
        <time>2025-09-07T12:48:17Z</time>
      </trkpt>
      <trkpt lat="46.20691" lon="4.56416">
        <ele>707</ele>
        <time>2025-09-07T12:48:18Z</time>
      </trkpt>
      <trkpt lat="46.20689" lon="4.56412">
        <ele>707</ele>
        <time>2025-09-07T12:48:19Z</time>
      </trkpt>
      <trkpt lat="46.20687" lon="4.56408">
        <ele>707</ele>
        <time>2025-09-07T12:48:20Z</time>
      </trkpt>
      <trkpt lat="46.20685" lon="4.56404">
        <ele>707</ele>
        <time>2025-09-07T12:48:21Z</time>
      </trkpt>
      <trkpt lat="46.20683" lon="4.564">
        <ele>707</ele>
        <time>2025-09-07T12:48:22Z</time>
      </trkpt>
      <trkpt lat="46.20681" lon="4.56396">
        <ele>707</ele>
        <time>2025-09-07T12:48:23Z</time>
      </trkpt>
      <trkpt lat="46.20679" lon="4.56391">
        <ele>707</ele>
        <time>2025-09-07T12:48:24Z</time>
      </trkpt>
      <trkpt lat="46.20677" lon="4.56387">
        <ele>707</ele>
        <time>2025-09-07T12:48:25Z</time>
      </trkpt>
      <trkpt lat="46.20675" lon="4.56383">
        <ele>707</ele>
        <time>2025-09-07T12:48:26Z</time>
      </trkpt>
      <trkpt lat="46.20673" lon="4.56378">
        <ele>707</ele>
        <time>2025-09-07T12:48:27Z</time>
      </trkpt>
      <trkpt lat="46.20671" lon="4.56374">
        <ele>707</ele>
        <time>2025-09-07T12:48:28Z</time>
      </trkpt>
      <trkpt lat="46.20669" lon="4.5637">
        <ele>707</ele>
        <time>2025-09-07T12:48:29Z</time>
      </trkpt>
      <trkpt lat="46.20668" lon="4.56366">
        <ele>706.6</ele>
        <time>2025-09-07T12:48:30Z</time>
      </trkpt>
      <trkpt lat="46.20667" lon="4.56361">
        <ele>706.6</ele>
        <time>2025-09-07T12:48:31Z</time>
      </trkpt>
      <trkpt lat="46.20666" lon="4.56357">
        <ele>706.6</ele>
        <time>2025-09-07T12:48:32Z</time>
      </trkpt>
      <trkpt lat="46.20666" lon="4.56355">
        <ele>706.8</ele>
        <time>2025-09-07T12:48:33Z</time>
      </trkpt>
      <trkpt lat="46.20667" lon="4.56353">
        <ele>707.4</ele>
        <time>2025-09-07T12:48:34Z</time>
      </trkpt>
      <trkpt lat="46.20667" lon="4.56352">
        <ele>707.6</ele>
        <time>2025-09-07T12:48:35Z</time>
      </trkpt>
      <trkpt lat="46.20668" lon="4.56352">
        <ele>708</ele>
        <time>2025-09-07T12:48:36Z</time>
      </trkpt>
      <trkpt lat="46.20668" lon="4.56352">
        <ele>708</ele>
        <time>2025-09-07T12:48:37Z</time>
      </trkpt>
      <trkpt lat="46.20669" lon="4.56352">
        <ele>707.8</ele>
        <time>2025-09-07T12:48:42Z</time>
      </trkpt>
      <trkpt lat="46.2067" lon="4.56351">
        <ele>707.8</ele>
        <time>2025-09-07T12:48:43Z</time>
      </trkpt>
      <trkpt lat="46.20672" lon="4.5635">
        <ele>708.2</ele>
        <time>2025-09-07T12:48:44Z</time>
      </trkpt>
      <trkpt lat="46.20673" lon="4.56348">
        <ele>708.2</ele>
        <time>2025-09-07T12:48:45Z</time>
      </trkpt>
      <trkpt lat="46.20675" lon="4.56347">
        <ele>708.2</ele>
        <time>2025-09-07T12:48:46Z</time>
      </trkpt>
      <trkpt lat="46.20678" lon="4.56347">
        <ele>708.6</ele>
        <time>2025-09-07T12:48:47Z</time>
      </trkpt>
      <trkpt lat="46.2068" lon="4.56348">
        <ele>708.6</ele>
        <time>2025-09-07T12:48:48Z</time>
      </trkpt>
      <trkpt lat="46.20682" lon="4.56349">
        <ele>708.6</ele>
        <time>2025-09-07T12:48:49Z</time>
      </trkpt>
      <trkpt lat="46.20684" lon="4.56349">
        <ele>708.6</ele>
        <time>2025-09-07T12:48:50Z</time>
      </trkpt>
      <trkpt lat="46.20687" lon="4.5635">
        <ele>708.6</ele>
        <time>2025-09-07T12:48:51Z</time>
      </trkpt>
      <trkpt lat="46.20689" lon="4.56351">
        <ele>708.6</ele>
        <time>2025-09-07T12:48:52Z</time>
      </trkpt>
      <trkpt lat="46.20691" lon="4.56352">
        <ele>708.8</ele>
        <time>2025-09-07T12:48:53Z</time>
      </trkpt>
      <trkpt lat="46.20694" lon="4.56353">
        <ele>708.8</ele>
        <time>2025-09-07T12:48:54Z</time>
      </trkpt>
      <trkpt lat="46.20696" lon="4.56353">
        <ele>708.8</ele>
        <time>2025-09-07T12:48:55Z</time>
      </trkpt>
      <trkpt lat="46.20698" lon="4.56353">
        <ele>709</ele>
        <time>2025-09-07T12:48:56Z</time>
      </trkpt>
      <trkpt lat="46.20701" lon="4.56354">
        <ele>709</ele>
        <time>2025-09-07T12:48:57Z</time>
      </trkpt>
      <trkpt lat="46.20703" lon="4.56354">
        <ele>709.2</ele>
        <time>2025-09-07T12:48:58Z</time>
      </trkpt>
      <trkpt lat="46.20706" lon="4.56355">
        <ele>709.2</ele>
        <time>2025-09-07T12:48:59Z</time>
      </trkpt>
      <trkpt lat="46.20708" lon="4.56356">
        <ele>709.4</ele>
        <time>2025-09-07T12:49:00Z</time>
      </trkpt>
      <trkpt lat="46.2071" lon="4.56356">
        <ele>709.4</ele>
        <time>2025-09-07T12:49:01Z</time>
      </trkpt>
      <trkpt lat="46.20712" lon="4.56357">
        <ele>709.4</ele>
        <time>2025-09-07T12:49:02Z</time>
      </trkpt>
      <trkpt lat="46.20714" lon="4.56357">
        <ele>709.8</ele>
        <time>2025-09-07T12:49:03Z</time>
      </trkpt>
      <trkpt lat="46.20716" lon="4.56358">
        <ele>710.2</ele>
        <time>2025-09-07T12:49:04Z</time>
      </trkpt>
      <trkpt lat="46.20718" lon="4.56359">
        <ele>710.2</ele>
        <time>2025-09-07T12:49:05Z</time>
      </trkpt>
      <trkpt lat="46.2072" lon="4.56359">
        <ele>710.2</ele>
        <time>2025-09-07T12:49:06Z</time>
      </trkpt>
      <trkpt lat="46.20722" lon="4.5636">
        <ele>710.4</ele>
        <time>2025-09-07T12:49:07Z</time>
      </trkpt>
      <trkpt lat="46.20723" lon="4.5636">
        <ele>710.4</ele>
        <time>2025-09-07T12:49:08Z</time>
      </trkpt>
      <trkpt lat="46.20725" lon="4.56361">
        <ele>710.8</ele>
        <time>2025-09-07T12:49:09Z</time>
      </trkpt>
      <trkpt lat="46.20727" lon="4.56361">
        <ele>710.8</ele>
        <time>2025-09-07T12:49:10Z</time>
      </trkpt>
      <trkpt lat="46.20728" lon="4.56362">
        <ele>711</ele>
        <time>2025-09-07T12:49:11Z</time>
      </trkpt>
      <trkpt lat="46.2073" lon="4.56362">
        <ele>711</ele>
        <time>2025-09-07T12:49:12Z</time>
      </trkpt>
      <trkpt lat="46.20731" lon="4.56362">
        <ele>711.2</ele>
        <time>2025-09-07T12:49:13Z</time>
      </trkpt>
      <trkpt lat="46.20733" lon="4.56361">
        <ele>711.2</ele>
        <time>2025-09-07T12:49:14Z</time>
      </trkpt>
      <trkpt lat="46.20734" lon="4.56361">
        <ele>711.6</ele>
        <time>2025-09-07T12:49:15Z</time>
      </trkpt>
      <trkpt lat="46.20736" lon="4.5636">
        <ele>711.8</ele>
        <time>2025-09-07T12:49:16Z</time>
      </trkpt>
      <trkpt lat="46.20738" lon="4.56359">
        <ele>711.8</ele>
        <time>2025-09-07T12:49:17Z</time>
      </trkpt>
      <trkpt lat="46.20739" lon="4.56358">
        <ele>711.8</ele>
        <time>2025-09-07T12:49:18Z</time>
      </trkpt>
      <trkpt lat="46.2074" lon="4.56357">
        <ele>712.2</ele>
        <time>2025-09-07T12:49:19Z</time>
      </trkpt>
      <trkpt lat="46.20741" lon="4.56355">
        <ele>712.4</ele>
        <time>2025-09-07T12:49:20Z</time>
      </trkpt>
      <trkpt lat="46.20742" lon="4.56353">
        <ele>712.6</ele>
        <time>2025-09-07T12:49:21Z</time>
      </trkpt>
      <trkpt lat="46.20743" lon="4.56351">
        <ele>712.6</ele>
        <time>2025-09-07T12:49:22Z</time>
      </trkpt>
      <trkpt lat="46.20744" lon="4.56348">
        <ele>713</ele>
        <time>2025-09-07T12:49:23Z</time>
      </trkpt>
      <trkpt lat="46.20745" lon="4.56346">
        <ele>713</ele>
        <time>2025-09-07T12:49:24Z</time>
      </trkpt>
      <trkpt lat="46.20746" lon="4.56344">
        <ele>713</ele>
        <time>2025-09-07T12:49:25Z</time>
      </trkpt>
      <trkpt lat="46.20747" lon="4.56342">
        <ele>713</ele>
        <time>2025-09-07T12:49:26Z</time>
      </trkpt>
      <trkpt lat="46.20748" lon="4.5634">
        <ele>713</ele>
        <time>2025-09-07T12:49:27Z</time>
      </trkpt>
      <trkpt lat="46.20749" lon="4.56338">
        <ele>713.2</ele>
        <time>2025-09-07T12:49:28Z</time>
      </trkpt>
      <trkpt lat="46.2075" lon="4.56335">
        <ele>713.2</ele>
        <time>2025-09-07T12:49:29Z</time>
      </trkpt>
      <trkpt lat="46.20751" lon="4.56333">
        <ele>713.6</ele>
        <time>2025-09-07T12:49:30Z</time>
      </trkpt>
      <trkpt lat="46.20752" lon="4.56331">
        <ele>713.8</ele>
        <time>2025-09-07T12:49:31Z</time>
      </trkpt>
      <trkpt lat="46.20753" lon="4.56329">
        <ele>714.2</ele>
        <time>2025-09-07T12:49:32Z</time>
      </trkpt>
      <trkpt lat="46.20754" lon="4.56326">
        <ele>714.4</ele>
        <time>2025-09-07T12:49:33Z</time>
      </trkpt>
      <trkpt lat="46.20755" lon="4.56324">
        <ele>714.4</ele>
        <time>2025-09-07T12:49:34Z</time>
      </trkpt>
      <trkpt lat="46.20756" lon="4.56322">
        <ele>714.4</ele>
        <time>2025-09-07T12:49:35Z</time>
      </trkpt>
      <trkpt lat="46.20757" lon="4.5632">
        <ele>714.8</ele>
        <time>2025-09-07T12:49:36Z</time>
      </trkpt>
      <trkpt lat="46.20757" lon="4.56318">
        <ele>714.8</ele>
        <time>2025-09-07T12:49:37Z</time>
      </trkpt>
      <trkpt lat="46.20758" lon="4.56316">
        <ele>715</ele>
        <time>2025-09-07T12:49:38Z</time>
      </trkpt>
      <trkpt lat="46.20759" lon="4.56314">
        <ele>715.2</ele>
        <time>2025-09-07T12:49:39Z</time>
      </trkpt>
      <trkpt lat="46.2076" lon="4.56312">
        <ele>715.2</ele>
        <time>2025-09-07T12:49:40Z</time>
      </trkpt>
      <trkpt lat="46.20761" lon="4.5631">
        <ele>715.2</ele>
        <time>2025-09-07T12:49:41Z</time>
      </trkpt>
      <trkpt lat="46.20761" lon="4.56308">
        <ele>715.4</ele>
        <time>2025-09-07T12:49:42Z</time>
      </trkpt>
      <trkpt lat="46.20762" lon="4.56306">
        <ele>715.4</ele>
        <time>2025-09-07T12:49:43Z</time>
      </trkpt>
      <trkpt lat="46.20763" lon="4.56304">
        <ele>715.6</ele>
        <time>2025-09-07T12:49:44Z</time>
      </trkpt>
      <trkpt lat="46.20764" lon="4.56302">
        <ele>715.6</ele>
        <time>2025-09-07T12:49:45Z</time>
      </trkpt>
      <trkpt lat="46.20765" lon="4.56301">
        <ele>715.8</ele>
        <time>2025-09-07T12:49:46Z</time>
      </trkpt>
      <trkpt lat="46.20766" lon="4.56299">
        <ele>715.6</ele>
        <time>2025-09-07T12:49:47Z</time>
      </trkpt>
      <trkpt lat="46.20766" lon="4.56297">
        <ele>715.6</ele>
        <time>2025-09-07T12:49:48Z</time>
      </trkpt>
      <trkpt lat="46.20767" lon="4.56295">
        <ele>715.6</ele>
        <time>2025-09-07T12:49:49Z</time>
      </trkpt>
      <trkpt lat="46.20767" lon="4.56293">
        <ele>715.6</ele>
        <time>2025-09-07T12:49:50Z</time>
      </trkpt>
      <trkpt lat="46.20768" lon="4.56291">
        <ele>714.8</ele>
        <time>2025-09-07T12:49:51Z</time>
      </trkpt>
      <trkpt lat="46.20768" lon="4.56289">
        <ele>715.4</ele>
        <time>2025-09-07T12:49:52Z</time>
      </trkpt>
      <trkpt lat="46.20768" lon="4.56287">
        <ele>715.6</ele>
        <time>2025-09-07T12:49:53Z</time>
      </trkpt>
      <trkpt lat="46.20769" lon="4.56285">
        <ele>715.8</ele>
        <time>2025-09-07T12:49:54Z</time>
      </trkpt>
      <trkpt lat="46.2077" lon="4.56283">
        <ele>716.2</ele>
        <time>2025-09-07T12:49:55Z</time>
      </trkpt>
      <trkpt lat="46.20771" lon="4.56281">
        <ele>716.4</ele>
        <time>2025-09-07T12:49:56Z</time>
      </trkpt>
      <trkpt lat="46.20772" lon="4.56279">
        <ele>716.4</ele>
        <time>2025-09-07T12:49:57Z</time>
      </trkpt>
      <trkpt lat="46.20773" lon="4.56277">
        <ele>716.8</ele>
        <time>2025-09-07T12:49:58Z</time>
      </trkpt>
      <trkpt lat="46.20773" lon="4.56276">
        <ele>716.8</ele>
        <time>2025-09-07T12:49:59Z</time>
      </trkpt>
      <trkpt lat="46.20774" lon="4.56275">
        <ele>716.8</ele>
        <time>2025-09-07T12:50:00Z</time>
      </trkpt>
      <trkpt lat="46.20774" lon="4.56273">
        <ele>716.8</ele>
        <time>2025-09-07T12:50:01Z</time>
      </trkpt>
      <trkpt lat="46.20774" lon="4.56272">
        <ele>717.2</ele>
        <time>2025-09-07T12:50:02Z</time>
      </trkpt>
      <trkpt lat="46.20774" lon="4.5627">
        <ele>717.2</ele>
        <time>2025-09-07T12:50:03Z</time>
      </trkpt>
      <trkpt lat="46.20775" lon="4.56268">
        <ele>717.2</ele>
        <time>2025-09-07T12:50:04Z</time>
      </trkpt>
      <trkpt lat="46.20775" lon="4.56267">
        <ele>717.6</ele>
        <time>2025-09-07T12:50:05Z</time>
      </trkpt>
      <trkpt lat="46.20776" lon="4.56265">
        <ele>717.8</ele>
        <time>2025-09-07T12:50:06Z</time>
      </trkpt>
      <trkpt lat="46.20777" lon="4.56263">
        <ele>717.8</ele>
        <time>2025-09-07T12:50:07Z</time>
      </trkpt>
      <trkpt lat="46.20777" lon="4.56261">
        <ele>718.2</ele>
        <time>2025-09-07T12:50:08Z</time>
      </trkpt>
      <trkpt lat="46.20777" lon="4.56259">
        <ele>718.2</ele>
        <time>2025-09-07T12:50:09Z</time>
      </trkpt>
      <trkpt lat="46.20778" lon="4.56257">
        <ele>718.6</ele>
        <time>2025-09-07T12:50:10Z</time>
      </trkpt>
      <trkpt lat="46.20778" lon="4.56256">
        <ele>718.6</ele>
        <time>2025-09-07T12:50:11Z</time>
      </trkpt>
      <trkpt lat="46.20778" lon="4.56254">
        <ele>718.8</ele>
        <time>2025-09-07T12:50:12Z</time>
      </trkpt>
      <trkpt lat="46.20779" lon="4.56252">
        <ele>718.8</ele>
        <time>2025-09-07T12:50:13Z</time>
      </trkpt>
      <trkpt lat="46.20779" lon="4.5625">
        <ele>719.2</ele>
        <time>2025-09-07T12:50:14Z</time>
      </trkpt>
      <trkpt lat="46.2078" lon="4.56248">
        <ele>719.4</ele>
        <time>2025-09-07T12:50:15Z</time>
      </trkpt>
      <trkpt lat="46.2078" lon="4.56247">
        <ele>719.8</ele>
        <time>2025-09-07T12:50:16Z</time>
      </trkpt>
      <trkpt lat="46.2078" lon="4.56245">
        <ele>720</ele>
        <time>2025-09-07T12:50:17Z</time>
      </trkpt>
      <trkpt lat="46.20781" lon="4.56244">
        <ele>720.2</ele>
        <time>2025-09-07T12:50:18Z</time>
      </trkpt>
      <trkpt lat="46.20781" lon="4.56243">
        <ele>720.2</ele>
        <time>2025-09-07T12:50:19Z</time>
      </trkpt>
      <trkpt lat="46.20781" lon="4.56241">
        <ele>720.4</ele>
        <time>2025-09-07T12:50:20Z</time>
      </trkpt>
      <trkpt lat="46.20781" lon="4.56239">
        <ele>720.4</ele>
        <time>2025-09-07T12:50:21Z</time>
      </trkpt>
      <trkpt lat="46.20781" lon="4.56237">
        <ele>720.8</ele>
        <time>2025-09-07T12:50:22Z</time>
      </trkpt>
      <trkpt lat="46.2078" lon="4.56235">
        <ele>720.8</ele>
        <time>2025-09-07T12:50:23Z</time>
      </trkpt>
      <trkpt lat="46.20778" lon="4.56233">
        <ele>720.8</ele>
        <time>2025-09-07T12:50:24Z</time>
      </trkpt>
      <trkpt lat="46.20777" lon="4.56232">
        <ele>721</ele>
        <time>2025-09-07T12:50:25Z</time>
      </trkpt>
      <trkpt lat="46.20775" lon="4.56231">
        <ele>721</ele>
        <time>2025-09-07T12:50:26Z</time>
      </trkpt>
      <trkpt lat="46.20774" lon="4.56229">
        <ele>721.2</ele>
        <time>2025-09-07T12:50:27Z</time>
      </trkpt>
      <trkpt lat="46.20773" lon="4.56229">
        <ele>721.8</ele>
        <time>2025-09-07T12:50:28Z</time>
      </trkpt>
      <trkpt lat="46.20772" lon="4.56227">
        <ele>722</ele>
        <time>2025-09-07T12:50:29Z</time>
      </trkpt>
      <trkpt lat="46.20771" lon="4.56226">
        <ele>722</ele>
        <time>2025-09-07T12:50:30Z</time>
      </trkpt>
      <trkpt lat="46.20771" lon="4.56226">
        <ele>722</ele>
        <time>2025-09-07T12:50:31Z</time>
      </trkpt>
      <trkpt lat="46.20771" lon="4.56226">
        <ele>722</ele>
        <time>2025-09-07T12:50:32Z</time>
      </trkpt>
      <trkpt lat="46.20766" lon="4.56226">
        <ele>722</ele>
        <time>2025-09-07T12:51:14Z</time>
      </trkpt>
      <trkpt lat="46.20766" lon="4.56224">
        <ele>722</ele>
        <time>2025-09-07T12:51:15Z</time>
      </trkpt>
      <trkpt lat="46.20765" lon="4.56223">
        <ele>722</ele>
        <time>2025-09-07T12:51:16Z</time>
      </trkpt>
      <trkpt lat="46.20766" lon="4.56221">
        <ele>721.8</ele>
        <time>2025-09-07T12:51:17Z</time>
      </trkpt>
      <trkpt lat="46.20766" lon="4.56219">
        <ele>722</ele>
        <time>2025-09-07T12:51:18Z</time>
      </trkpt>
      <trkpt lat="46.20766" lon="4.56218">
        <ele>722.4</ele>
        <time>2025-09-07T12:51:19Z</time>
      </trkpt>
      <trkpt lat="46.20767" lon="4.56217">
        <ele>722.4</ele>
        <time>2025-09-07T12:51:20Z</time>
      </trkpt>
      <trkpt lat="46.20767" lon="4.56214">
        <ele>722.6</ele>
        <time>2025-09-07T12:51:21Z</time>
      </trkpt>
      <trkpt lat="46.20768" lon="4.56212">
        <ele>722.6</ele>
        <time>2025-09-07T12:51:22Z</time>
      </trkpt>
      <trkpt lat="46.20768" lon="4.56211">
        <ele>722.8</ele>
        <time>2025-09-07T12:51:23Z</time>
      </trkpt>
      <trkpt lat="46.20768" lon="4.56209">
        <ele>722.8</ele>
        <time>2025-09-07T12:51:24Z</time>
      </trkpt>
      <trkpt lat="46.20769" lon="4.56207">
        <ele>722.8</ele>
        <time>2025-09-07T12:51:25Z</time>
      </trkpt>
      <trkpt lat="46.20769" lon="4.56204">
        <ele>723</ele>
        <time>2025-09-07T12:51:26Z</time>
      </trkpt>
      <trkpt lat="46.20769" lon="4.56203">
        <ele>723</ele>
        <time>2025-09-07T12:51:27Z</time>
      </trkpt>
      <trkpt lat="46.20769" lon="4.56201">
        <ele>723.2</ele>
        <time>2025-09-07T12:51:28Z</time>
      </trkpt>
      <trkpt lat="46.20769" lon="4.56199">
        <ele>724</ele>
        <time>2025-09-07T12:51:29Z</time>
      </trkpt>
      <trkpt lat="46.20769" lon="4.56197">
        <ele>724.2</ele>
        <time>2025-09-07T12:51:30Z</time>
      </trkpt>
      <trkpt lat="46.20769" lon="4.56195">
        <ele>724.2</ele>
        <time>2025-09-07T12:51:31Z</time>
      </trkpt>
      <trkpt lat="46.20769" lon="4.56194">
        <ele>724.6</ele>
        <time>2025-09-07T12:51:32Z</time>
      </trkpt>
      <trkpt lat="46.20769" lon="4.56192">
        <ele>724.6</ele>
        <time>2025-09-07T12:51:33Z</time>
      </trkpt>
      <trkpt lat="46.20769" lon="4.56191">
        <ele>725</ele>
        <time>2025-09-07T12:51:34Z</time>
      </trkpt>
      <trkpt lat="46.20768" lon="4.56191">
        <ele>725.4</ele>
        <time>2025-09-07T12:51:35Z</time>
      </trkpt>
      <trkpt lat="46.20768" lon="4.56189">
        <ele>725.4</ele>
        <time>2025-09-07T12:51:36Z</time>
      </trkpt>
      <trkpt lat="46.20768" lon="4.56188">
        <ele>725.6</ele>
        <time>2025-09-07T12:51:37Z</time>
      </trkpt>
      <trkpt lat="46.20768" lon="4.56186">
        <ele>725.6</ele>
        <time>2025-09-07T12:51:38Z</time>
      </trkpt>
      <trkpt lat="46.20768" lon="4.56186">
        <ele>725.6</ele>
        <time>2025-09-07T12:51:39Z</time>
      </trkpt>
      <trkpt lat="46.20768" lon="4.56185">
        <ele>725.8</ele>
        <time>2025-09-07T12:51:40Z</time>
      </trkpt>
      <trkpt lat="46.20767" lon="4.56184">
        <ele>725.8</ele>
        <time>2025-09-07T12:51:41Z</time>
      </trkpt>
      <trkpt lat="46.20767" lon="4.56183">
        <ele>726.2</ele>
        <time>2025-09-07T12:51:42Z</time>
      </trkpt>
      <trkpt lat="46.20767" lon="4.56182">
        <ele>726.2</ele>
        <time>2025-09-07T12:51:43Z</time>
      </trkpt>
      <trkpt lat="46.20767" lon="4.5618">
        <ele>726.2</ele>
        <time>2025-09-07T12:51:44Z</time>
      </trkpt>
      <trkpt lat="46.20767" lon="4.56178">
        <ele>726.4</ele>
        <time>2025-09-07T12:51:45Z</time>
      </trkpt>
      <trkpt lat="46.20768" lon="4.56177">
        <ele>726.4</ele>
        <time>2025-09-07T12:51:46Z</time>
      </trkpt>
      <trkpt lat="46.20768" lon="4.56176">
        <ele>726.8</ele>
        <time>2025-09-07T12:51:47Z</time>
      </trkpt>
      <trkpt lat="46.20768" lon="4.56176">
        <ele>726.8</ele>
        <time>2025-09-07T12:51:48Z</time>
      </trkpt>
      <trkpt lat="46.20768" lon="4.56175">
        <ele>727</ele>
        <time>2025-09-07T12:51:49Z</time>
      </trkpt>
      <trkpt lat="46.20768" lon="4.56174">
        <ele>727</ele>
        <time>2025-09-07T12:51:50Z</time>
      </trkpt>
      <trkpt lat="46.20768" lon="4.56173">
        <ele>727.4</ele>
        <time>2025-09-07T12:51:51Z</time>
      </trkpt>
      <trkpt lat="46.20767" lon="4.56172">
        <ele>727.8</ele>
        <time>2025-09-07T12:51:52Z</time>
      </trkpt>
      <trkpt lat="46.20767" lon="4.56171">
        <ele>727.8</ele>
        <time>2025-09-07T12:51:53Z</time>
      </trkpt>
      <trkpt lat="46.20767" lon="4.5617">
        <ele>727.8</ele>
        <time>2025-09-07T12:51:54Z</time>
      </trkpt>
      <trkpt lat="46.20767" lon="4.56169">
        <ele>728</ele>
        <time>2025-09-07T12:51:55Z</time>
      </trkpt>
      <trkpt lat="46.20767" lon="4.56168">
        <ele>728.4</ele>
        <time>2025-09-07T12:51:56Z</time>
      </trkpt>
      <trkpt lat="46.20767" lon="4.56167">
        <ele>728.4</ele>
        <time>2025-09-07T12:51:57Z</time>
      </trkpt>
      <trkpt lat="46.20767" lon="4.56165">
        <ele>728.4</ele>
        <time>2025-09-07T12:51:58Z</time>
      </trkpt>
      <trkpt lat="46.20768" lon="4.56164">
        <ele>728.4</ele>
        <time>2025-09-07T12:51:59Z</time>
      </trkpt>
      <trkpt lat="46.20768" lon="4.56162">
        <ele>728.6</ele>
        <time>2025-09-07T12:52:00Z</time>
      </trkpt>
      <trkpt lat="46.20768" lon="4.56161">
        <ele>728.6</ele>
        <time>2025-09-07T12:52:01Z</time>
      </trkpt>
      <trkpt lat="46.20768" lon="4.5616">
        <ele>729</ele>
        <time>2025-09-07T12:52:02Z</time>
      </trkpt>
      <trkpt lat="46.20768" lon="4.5616">
        <ele>729.2</ele>
        <time>2025-09-07T12:52:03Z</time>
      </trkpt>
      <trkpt lat="46.20767" lon="4.56159">
        <ele>729</ele>
        <time>2025-09-07T12:52:14Z</time>
      </trkpt>
      <trkpt lat="46.20768" lon="4.56157">
        <ele>729.2</ele>
        <time>2025-09-07T12:52:15Z</time>
      </trkpt>
      <trkpt lat="46.20768" lon="4.56155">
        <ele>729.4</ele>
        <time>2025-09-07T12:52:16Z</time>
      </trkpt>
      <trkpt lat="46.20768" lon="4.56154">
        <ele>730</ele>
        <time>2025-09-07T12:52:17Z</time>
      </trkpt>
      <trkpt lat="46.20768" lon="4.56152">
        <ele>730</ele>
        <time>2025-09-07T12:52:18Z</time>
      </trkpt>
      <trkpt lat="46.20769" lon="4.56151">
        <ele>730</ele>
        <time>2025-09-07T12:52:19Z</time>
      </trkpt>
      <trkpt lat="46.2077" lon="4.5615">
        <ele>730</ele>
        <time>2025-09-07T12:52:20Z</time>
      </trkpt>
      <trkpt lat="46.2077" lon="4.56149">
        <ele>730</ele>
        <time>2025-09-07T12:52:21Z</time>
      </trkpt>
      <trkpt lat="46.2077" lon="4.56148">
        <ele>730.2</ele>
        <time>2025-09-07T12:52:22Z</time>
      </trkpt>
      <trkpt lat="46.20771" lon="4.56147">
        <ele>730.2</ele>
        <time>2025-09-07T12:52:23Z</time>
      </trkpt>
      <trkpt lat="46.20771" lon="4.56146">
        <ele>730.6</ele>
        <time>2025-09-07T12:52:24Z</time>
      </trkpt>
      <trkpt lat="46.20771" lon="4.56146">
        <ele>730.6</ele>
        <time>2025-09-07T12:52:25Z</time>
      </trkpt>
      <trkpt lat="46.20772" lon="4.56144">
        <ele>730.6</ele>
        <time>2025-09-07T12:52:26Z</time>
      </trkpt>
      <trkpt lat="46.20772" lon="4.56143">
        <ele>731</ele>
        <time>2025-09-07T12:52:27Z</time>
      </trkpt>
      <trkpt lat="46.20773" lon="4.56141">
        <ele>731</ele>
        <time>2025-09-07T12:52:28Z</time>
      </trkpt>
      <trkpt lat="46.20773" lon="4.5614">
        <ele>731.2</ele>
        <time>2025-09-07T12:52:29Z</time>
      </trkpt>
      <trkpt lat="46.20774" lon="4.56139">
        <ele>731.2</ele>
        <time>2025-09-07T12:52:30Z</time>
      </trkpt>
      <trkpt lat="46.20775" lon="4.56138">
        <ele>731.2</ele>
        <time>2025-09-07T12:52:31Z</time>
      </trkpt>
      <trkpt lat="46.20776" lon="4.56137">
        <ele>731.6</ele>
        <time>2025-09-07T12:52:32Z</time>
      </trkpt>
      <trkpt lat="46.20776" lon="4.56136">
        <ele>731.6</ele>
        <time>2025-09-07T12:52:33Z</time>
      </trkpt>
      <trkpt lat="46.20777" lon="4.56135">
        <ele>731.6</ele>
        <time>2025-09-07T12:52:34Z</time>
      </trkpt>
      <trkpt lat="46.20777" lon="4.56134">
        <ele>731.8</ele>
        <time>2025-09-07T12:52:35Z</time>
      </trkpt>
      <trkpt lat="46.20778" lon="4.56133">
        <ele>731.8</ele>
        <time>2025-09-07T12:52:36Z</time>
      </trkpt>
      <trkpt lat="46.20778" lon="4.56132">
        <ele>731.8</ele>
        <time>2025-09-07T12:52:37Z</time>
      </trkpt>
      <trkpt lat="46.2078" lon="4.5613">
        <ele>731.8</ele>
        <time>2025-09-07T12:52:38Z</time>
      </trkpt>
      <trkpt lat="46.20781" lon="4.56129">
        <ele>731.8</ele>
        <time>2025-09-07T12:52:39Z</time>
      </trkpt>
      <trkpt lat="46.20782" lon="4.56129">
        <ele>731.8</ele>
        <time>2025-09-07T12:52:40Z</time>
      </trkpt>
      <trkpt lat="46.20782" lon="4.56127">
        <ele>732.2</ele>
        <time>2025-09-07T12:52:41Z</time>
      </trkpt>
      <trkpt lat="46.20783" lon="4.56126">
        <ele>732.6</ele>
        <time>2025-09-07T12:52:42Z</time>
      </trkpt>
      <trkpt lat="46.20784" lon="4.56125">
        <ele>732.6</ele>
        <time>2025-09-07T12:52:43Z</time>
      </trkpt>
      <trkpt lat="46.20785" lon="4.56124">
        <ele>732.6</ele>
        <time>2025-09-07T12:52:44Z</time>
      </trkpt>
      <trkpt lat="46.20785" lon="4.56123">
        <ele>732.6</ele>
        <time>2025-09-07T12:52:45Z</time>
      </trkpt>
      <trkpt lat="46.20786" lon="4.56122">
        <ele>732.8</ele>
        <time>2025-09-07T12:52:46Z</time>
      </trkpt>
      <trkpt lat="46.20786" lon="4.56121">
        <ele>732.8</ele>
        <time>2025-09-07T12:52:47Z</time>
      </trkpt>
      <trkpt lat="46.20786" lon="4.56119">
        <ele>732.8</ele>
        <time>2025-09-07T12:52:48Z</time>
      </trkpt>
      <trkpt lat="46.20787" lon="4.56118">
        <ele>732.8</ele>
        <time>2025-09-07T12:52:49Z</time>
      </trkpt>
      <trkpt lat="46.20788" lon="4.56117">
        <ele>732.8</ele>
        <time>2025-09-07T12:52:50Z</time>
      </trkpt>
      <trkpt lat="46.20788" lon="4.56117">
        <ele>733</ele>
        <time>2025-09-07T12:52:51Z</time>
      </trkpt>
      <trkpt lat="46.20788" lon="4.56116">
        <ele>733.2</ele>
        <time>2025-09-07T12:52:52Z</time>
      </trkpt>
      <trkpt lat="46.20789" lon="4.56115">
        <ele>733.6</ele>
        <time>2025-09-07T12:52:53Z</time>
      </trkpt>
      <trkpt lat="46.20789" lon="4.56114">
        <ele>733.6</ele>
        <time>2025-09-07T12:52:54Z</time>
      </trkpt>
      <trkpt lat="46.20789" lon="4.56113">
        <ele>734</ele>
        <time>2025-09-07T12:52:55Z</time>
      </trkpt>
      <trkpt lat="46.2079" lon="4.56113">
        <ele>734</ele>
        <time>2025-09-07T12:52:56Z</time>
      </trkpt>
      <trkpt lat="46.20791" lon="4.56113">
        <ele>734.2</ele>
        <time>2025-09-07T12:52:57Z</time>
      </trkpt>
      <trkpt lat="46.20789" lon="4.5611">
        <ele>734.2</ele>
        <time>2025-09-07T12:53:14Z</time>
      </trkpt>
      <trkpt lat="46.2079" lon="4.56108">
        <ele>734.2</ele>
        <time>2025-09-07T12:53:15Z</time>
      </trkpt>
      <trkpt lat="46.20791" lon="4.56106">
        <ele>734.2</ele>
        <time>2025-09-07T12:53:16Z</time>
      </trkpt>
      <trkpt lat="46.20792" lon="4.56103">
        <ele>733.8</ele>
        <time>2025-09-07T12:53:17Z</time>
      </trkpt>
      <trkpt lat="46.20793" lon="4.56101">
        <ele>733.8</ele>
        <time>2025-09-07T12:53:18Z</time>
      </trkpt>
      <trkpt lat="46.20793" lon="4.56099">
        <ele>733.8</ele>
        <time>2025-09-07T12:53:19Z</time>
      </trkpt>
      <trkpt lat="46.20794" lon="4.56097">
        <ele>733.8</ele>
        <time>2025-09-07T12:53:20Z</time>
      </trkpt>
      <trkpt lat="46.20795" lon="4.56094">
        <ele>733.8</ele>
        <time>2025-09-07T12:53:21Z</time>
      </trkpt>
      <trkpt lat="46.20796" lon="4.56092">
        <ele>733.8</ele>
        <time>2025-09-07T12:53:22Z</time>
      </trkpt>
      <trkpt lat="46.20796" lon="4.56091">
        <ele>734</ele>
        <time>2025-09-07T12:53:23Z</time>
      </trkpt>
      <trkpt lat="46.20797" lon="4.56089">
        <ele>734</ele>
        <time>2025-09-07T12:53:24Z</time>
      </trkpt>
      <trkpt lat="46.20798" lon="4.56087">
        <ele>734.6</ele>
        <time>2025-09-07T12:53:25Z</time>
      </trkpt>
      <trkpt lat="46.20799" lon="4.56085">
        <ele>734.8</ele>
        <time>2025-09-07T12:53:26Z</time>
      </trkpt>
      <trkpt lat="46.208" lon="4.56083">
        <ele>734.8</ele>
        <time>2025-09-07T12:53:27Z</time>
      </trkpt>
      <trkpt lat="46.208" lon="4.56081">
        <ele>734.8</ele>
        <time>2025-09-07T12:53:28Z</time>
      </trkpt>
      <trkpt lat="46.20801" lon="4.56079">
        <ele>735.2</ele>
        <time>2025-09-07T12:53:29Z</time>
      </trkpt>
      <trkpt lat="46.20802" lon="4.56077">
        <ele>735.2</ele>
        <time>2025-09-07T12:53:30Z</time>
      </trkpt>
      <trkpt lat="46.20803" lon="4.56075">
        <ele>735.4</ele>
        <time>2025-09-07T12:53:31Z</time>
      </trkpt>
      <trkpt lat="46.20804" lon="4.56074">
        <ele>735.4</ele>
        <time>2025-09-07T12:53:32Z</time>
      </trkpt>
      <trkpt lat="46.20806" lon="4.56072">
        <ele>735.4</ele>
        <time>2025-09-07T12:53:33Z</time>
      </trkpt>
      <trkpt lat="46.20807" lon="4.5607">
        <ele>735.4</ele>
        <time>2025-09-07T12:53:34Z</time>
      </trkpt>
      <trkpt lat="46.20808" lon="4.56068">
        <ele>735.4</ele>
        <time>2025-09-07T12:53:35Z</time>
      </trkpt>
      <trkpt lat="46.20809" lon="4.56065">
        <ele>735.4</ele>
        <time>2025-09-07T12:53:36Z</time>
      </trkpt>
      <trkpt lat="46.20811" lon="4.56062">
        <ele>735.4</ele>
        <time>2025-09-07T12:53:37Z</time>
      </trkpt>
      <trkpt lat="46.20812" lon="4.56059">
        <ele>735.4</ele>
        <time>2025-09-07T12:53:38Z</time>
      </trkpt>
      <trkpt lat="46.20813" lon="4.56058">
        <ele>735.2</ele>
        <time>2025-09-07T12:53:39Z</time>
      </trkpt>
      <trkpt lat="46.20814" lon="4.56056">
        <ele>735.4</ele>
        <time>2025-09-07T12:53:40Z</time>
      </trkpt>
      <trkpt lat="46.20817" lon="4.56054">
        <ele>735.2</ele>
        <time>2025-09-07T12:53:41Z</time>
      </trkpt>
      <trkpt lat="46.20818" lon="4.56051">
        <ele>735.4</ele>
        <time>2025-09-07T12:53:42Z</time>
      </trkpt>
      <trkpt lat="46.2082" lon="4.56049">
        <ele>735.4</ele>
        <time>2025-09-07T12:53:43Z</time>
      </trkpt>
      <trkpt lat="46.20821" lon="4.56046">
        <ele>735.8</ele>
        <time>2025-09-07T12:53:44Z</time>
      </trkpt>
      <trkpt lat="46.20823" lon="4.56043">
        <ele>736</ele>
        <time>2025-09-07T12:53:45Z</time>
      </trkpt>
      <trkpt lat="46.20824" lon="4.56041">
        <ele>735.8</ele>
        <time>2025-09-07T12:53:46Z</time>
      </trkpt>
      <trkpt lat="46.20826" lon="4.56038">
        <ele>735.8</ele>
        <time>2025-09-07T12:53:47Z</time>
      </trkpt>
      <trkpt lat="46.20828" lon="4.56035">
        <ele>735.8</ele>
        <time>2025-09-07T12:53:48Z</time>
      </trkpt>
      <trkpt lat="46.2083" lon="4.56033">
        <ele>736</ele>
        <time>2025-09-07T12:53:49Z</time>
      </trkpt>
      <trkpt lat="46.20831" lon="4.56031">
        <ele>736.2</ele>
        <time>2025-09-07T12:53:50Z</time>
      </trkpt>
      <trkpt lat="46.20833" lon="4.56029">
        <ele>736.2</ele>
        <time>2025-09-07T12:53:51Z</time>
      </trkpt>
      <trkpt lat="46.20834" lon="4.56026">
        <ele>736.2</ele>
        <time>2025-09-07T12:53:52Z</time>
      </trkpt>
      <trkpt lat="46.20836" lon="4.56024">
        <ele>736.6</ele>
        <time>2025-09-07T12:53:53Z</time>
      </trkpt>
      <trkpt lat="46.20837" lon="4.56022">
        <ele>736.6</ele>
        <time>2025-09-07T12:53:54Z</time>
      </trkpt>
      <trkpt lat="46.20838" lon="4.5602">
        <ele>736.6</ele>
        <time>2025-09-07T12:53:55Z</time>
      </trkpt>
      <trkpt lat="46.2084" lon="4.56018">
        <ele>737</ele>
        <time>2025-09-07T12:53:56Z</time>
      </trkpt>
      <trkpt lat="46.20841" lon="4.56016">
        <ele>737</ele>
        <time>2025-09-07T12:53:57Z</time>
      </trkpt>
      <trkpt lat="46.20842" lon="4.56014">
        <ele>737</ele>
        <time>2025-09-07T12:53:58Z</time>
      </trkpt>
      <trkpt lat="46.20844" lon="4.56013">
        <ele>736.6</ele>
        <time>2025-09-07T12:53:59Z</time>
      </trkpt>
      <trkpt lat="46.20845" lon="4.56012">
        <ele>736.6</ele>
        <time>2025-09-07T12:54:00Z</time>
      </trkpt>
      <trkpt lat="46.20847" lon="4.56011">
        <ele>737.2</ele>
        <time>2025-09-07T12:54:01Z</time>
      </trkpt>
      <trkpt lat="46.20848" lon="4.56009">
        <ele>737.2</ele>
        <time>2025-09-07T12:54:02Z</time>
      </trkpt>
      <trkpt lat="46.20849" lon="4.56007">
        <ele>737.2</ele>
        <time>2025-09-07T12:54:03Z</time>
      </trkpt>
      <trkpt lat="46.20849" lon="4.56006">
        <ele>738</ele>
        <time>2025-09-07T12:54:04Z</time>
      </trkpt>
      <trkpt lat="46.20851" lon="4.56004">
        <ele>738</ele>
        <time>2025-09-07T12:54:05Z</time>
      </trkpt>
      <trkpt lat="46.20852" lon="4.56002">
        <ele>738</ele>
        <time>2025-09-07T12:54:06Z</time>
      </trkpt>
      <trkpt lat="46.20854" lon="4.56">
        <ele>738</ele>
        <time>2025-09-07T12:54:07Z</time>
      </trkpt>
      <trkpt lat="46.20855" lon="4.55998">
        <ele>737.6</ele>
        <time>2025-09-07T12:54:08Z</time>
      </trkpt>
      <trkpt lat="46.20856" lon="4.55996">
        <ele>737.6</ele>
        <time>2025-09-07T12:54:09Z</time>
      </trkpt>
      <trkpt lat="46.20858" lon="4.55995">
        <ele>737.6</ele>
        <time>2025-09-07T12:54:10Z</time>
      </trkpt>
      <trkpt lat="46.20859" lon="4.55992">
        <ele>737.8</ele>
        <time>2025-09-07T12:54:11Z</time>
      </trkpt>
      <trkpt lat="46.2086" lon="4.5599">
        <ele>737.8</ele>
        <time>2025-09-07T12:54:12Z</time>
      </trkpt>
      <trkpt lat="46.20862" lon="4.55988">
        <ele>737.8</ele>
        <time>2025-09-07T12:54:13Z</time>
      </trkpt>
      <trkpt lat="46.20863" lon="4.55985">
        <ele>737.8</ele>
        <time>2025-09-07T12:54:14Z</time>
      </trkpt>
      <trkpt lat="46.20864" lon="4.55983">
        <ele>738.2</ele>
        <time>2025-09-07T12:54:15Z</time>
      </trkpt>
      <trkpt lat="46.20865" lon="4.55981">
        <ele>738.2</ele>
        <time>2025-09-07T12:54:16Z</time>
      </trkpt>
      <trkpt lat="46.20868" lon="4.55976">
        <ele>738.2</ele>
        <time>2025-09-07T12:54:17Z</time>
      </trkpt>
      <trkpt lat="46.20869" lon="4.55974">
        <ele>738.6</ele>
        <time>2025-09-07T12:54:18Z</time>
      </trkpt>
      <trkpt lat="46.20869" lon="4.55972">
        <ele>738.6</ele>
        <time>2025-09-07T12:54:19Z</time>
      </trkpt>
      <trkpt lat="46.2087" lon="4.5597">
        <ele>738.6</ele>
        <time>2025-09-07T12:54:20Z</time>
      </trkpt>
      <trkpt lat="46.20871" lon="4.55968">
        <ele>738.6</ele>
        <time>2025-09-07T12:54:21Z</time>
      </trkpt>
      <trkpt lat="46.20871" lon="4.55966">
        <ele>739</ele>
        <time>2025-09-07T12:54:22Z</time>
      </trkpt>
      <trkpt lat="46.20872" lon="4.55963">
        <ele>739</ele>
        <time>2025-09-07T12:54:23Z</time>
      </trkpt>
      <trkpt lat="46.20873" lon="4.5596">
        <ele>739.4</ele>
        <time>2025-09-07T12:54:24Z</time>
      </trkpt>
      <trkpt lat="46.20873" lon="4.55958">
        <ele>739.4</ele>
        <time>2025-09-07T12:54:25Z</time>
      </trkpt>
      <trkpt lat="46.20874" lon="4.55955">
        <ele>739.4</ele>
        <time>2025-09-07T12:54:26Z</time>
      </trkpt>
      <trkpt lat="46.20875" lon="4.55953">
        <ele>739.4</ele>
        <time>2025-09-07T12:54:27Z</time>
      </trkpt>
      <trkpt lat="46.20875" lon="4.55951">
        <ele>739.4</ele>
        <time>2025-09-07T12:54:28Z</time>
      </trkpt>
      <trkpt lat="46.20876" lon="4.55948">
        <ele>739.6</ele>
        <time>2025-09-07T12:54:29Z</time>
      </trkpt>
      <trkpt lat="46.20877" lon="4.55945">
        <ele>740</ele>
        <time>2025-09-07T12:54:30Z</time>
      </trkpt>
      <trkpt lat="46.20878" lon="4.55942">
        <ele>740</ele>
        <time>2025-09-07T12:54:31Z</time>
      </trkpt>
      <trkpt lat="46.20878" lon="4.55941">
        <ele>740</ele>
        <time>2025-09-07T12:54:32Z</time>
      </trkpt>
      <trkpt lat="46.20879" lon="4.55938">
        <ele>740.2</ele>
        <time>2025-09-07T12:54:33Z</time>
      </trkpt>
      <trkpt lat="46.2088" lon="4.55936">
        <ele>740.2</ele>
        <time>2025-09-07T12:54:34Z</time>
      </trkpt>
      <trkpt lat="46.20881" lon="4.55934">
        <ele>740.2</ele>
        <time>2025-09-07T12:54:35Z</time>
      </trkpt>
      <trkpt lat="46.20882" lon="4.55932">
        <ele>740.2</ele>
        <time>2025-09-07T12:54:36Z</time>
      </trkpt>
      <trkpt lat="46.20883" lon="4.5593">
        <ele>740.2</ele>
        <time>2025-09-07T12:54:37Z</time>
      </trkpt>
      <trkpt lat="46.20884" lon="4.55928">
        <ele>740.2</ele>
        <time>2025-09-07T12:54:38Z</time>
      </trkpt>
      <trkpt lat="46.20885" lon="4.55926">
        <ele>740.6</ele>
        <time>2025-09-07T12:54:39Z</time>
      </trkpt>
      <trkpt lat="46.20886" lon="4.55923">
        <ele>740.8</ele>
        <time>2025-09-07T12:54:40Z</time>
      </trkpt>
      <trkpt lat="46.20887" lon="4.55921">
        <ele>740.6</ele>
        <time>2025-09-07T12:54:41Z</time>
      </trkpt>
      <trkpt lat="46.20887" lon="4.55919">
        <ele>740.6</ele>
        <time>2025-09-07T12:54:42Z</time>
      </trkpt>
      <trkpt lat="46.20888" lon="4.55917">
        <ele>740.6</ele>
        <time>2025-09-07T12:54:43Z</time>
      </trkpt>
      <trkpt lat="46.20889" lon="4.55915">
        <ele>740.6</ele>
        <time>2025-09-07T12:54:44Z</time>
      </trkpt>
      <trkpt lat="46.20889" lon="4.55913">
        <ele>741</ele>
        <time>2025-09-07T12:54:45Z</time>
      </trkpt>
      <trkpt lat="46.2089" lon="4.55912">
        <ele>741.2</ele>
        <time>2025-09-07T12:54:46Z</time>
      </trkpt>
      <trkpt lat="46.20891" lon="4.5591">
        <ele>740.2</ele>
        <time>2025-09-07T12:54:47Z</time>
      </trkpt>
      <trkpt lat="46.20892" lon="4.55908">
        <ele>740.6</ele>
        <time>2025-09-07T12:54:48Z</time>
      </trkpt>
      <trkpt lat="46.20893" lon="4.55906">
        <ele>740.8</ele>
        <time>2025-09-07T12:54:49Z</time>
      </trkpt>
      <trkpt lat="46.20894" lon="4.55905">
        <ele>741.4</ele>
        <time>2025-09-07T12:54:50Z</time>
      </trkpt>
      <trkpt lat="46.20895" lon="4.55903">
        <ele>741.4</ele>
        <time>2025-09-07T12:54:51Z</time>
      </trkpt>
      <trkpt lat="46.20896" lon="4.55902">
        <ele>741.8</ele>
        <time>2025-09-07T12:54:52Z</time>
      </trkpt>
      <trkpt lat="46.20896" lon="4.559">
        <ele>741.8</ele>
        <time>2025-09-07T12:54:53Z</time>
      </trkpt>
      <trkpt lat="46.20897" lon="4.55898">
        <ele>742.4</ele>
        <time>2025-09-07T12:54:54Z</time>
      </trkpt>
      <trkpt lat="46.20897" lon="4.55896">
        <ele>742.4</ele>
        <time>2025-09-07T12:54:55Z</time>
      </trkpt>
      <trkpt lat="46.20898" lon="4.55895">
        <ele>742.6</ele>
        <time>2025-09-07T12:54:56Z</time>
      </trkpt>
      <trkpt lat="46.20898" lon="4.55893">
        <ele>742.6</ele>
        <time>2025-09-07T12:54:57Z</time>
      </trkpt>
      <trkpt lat="46.20899" lon="4.55891">
        <ele>743</ele>
        <time>2025-09-07T12:54:58Z</time>
      </trkpt>
      <trkpt lat="46.209" lon="4.55889">
        <ele>743</ele>
        <time>2025-09-07T12:54:59Z</time>
      </trkpt>
      <trkpt lat="46.209" lon="4.55888">
        <ele>743.2</ele>
        <time>2025-09-07T12:55:00Z</time>
      </trkpt>
      <trkpt lat="46.20901" lon="4.55885">
        <ele>743.2</ele>
        <time>2025-09-07T12:55:01Z</time>
      </trkpt>
      <trkpt lat="46.20901" lon="4.55885">
        <ele>743.6</ele>
        <time>2025-09-07T12:55:02Z</time>
      </trkpt>
      <trkpt lat="46.20902" lon="4.55883">
        <ele>743.6</ele>
        <time>2025-09-07T12:55:03Z</time>
      </trkpt>
      <trkpt lat="46.20903" lon="4.55881">
        <ele>743.6</ele>
        <time>2025-09-07T12:55:04Z</time>
      </trkpt>
      <trkpt lat="46.20903" lon="4.55879">
        <ele>743.6</ele>
        <time>2025-09-07T12:55:05Z</time>
      </trkpt>
      <trkpt lat="46.20904" lon="4.55878">
        <ele>743.6</ele>
        <time>2025-09-07T12:55:06Z</time>
      </trkpt>
      <trkpt lat="46.20905" lon="4.55876">
        <ele>743.6</ele>
        <time>2025-09-07T12:55:07Z</time>
      </trkpt>
      <trkpt lat="46.20906" lon="4.55875">
        <ele>744</ele>
        <time>2025-09-07T12:55:08Z</time>
      </trkpt>
      <trkpt lat="46.20906" lon="4.55873">
        <ele>744</ele>
        <time>2025-09-07T12:55:09Z</time>
      </trkpt>
      <trkpt lat="46.20907" lon="4.55871">
        <ele>744.2</ele>
        <time>2025-09-07T12:55:10Z</time>
      </trkpt>
      <trkpt lat="46.20907" lon="4.55869">
        <ele>744.2</ele>
        <time>2025-09-07T12:55:11Z</time>
      </trkpt>
      <trkpt lat="46.20908" lon="4.55867">
        <ele>744.2</ele>
        <time>2025-09-07T12:55:12Z</time>
      </trkpt>
      <trkpt lat="46.20908" lon="4.55866">
        <ele>744.6</ele>
        <time>2025-09-07T12:55:13Z</time>
      </trkpt>
      <trkpt lat="46.20908" lon="4.55865">
        <ele>744.6</ele>
        <time>2025-09-07T12:55:14Z</time>
      </trkpt>
      <trkpt lat="46.20909" lon="4.55863">
        <ele>744.6</ele>
        <time>2025-09-07T12:55:15Z</time>
      </trkpt>
      <trkpt lat="46.2091" lon="4.55862">
        <ele>745</ele>
        <time>2025-09-07T12:55:16Z</time>
      </trkpt>
      <trkpt lat="46.2091" lon="4.55861">
        <ele>745.2</ele>
        <time>2025-09-07T12:55:17Z</time>
      </trkpt>
      <trkpt lat="46.20911" lon="4.55859">
        <ele>745.6</ele>
        <time>2025-09-07T12:55:18Z</time>
      </trkpt>
      <trkpt lat="46.20912" lon="4.55857">
        <ele>745.6</ele>
        <time>2025-09-07T12:55:19Z</time>
      </trkpt>
      <trkpt lat="46.20913" lon="4.55855">
        <ele>745.6</ele>
        <time>2025-09-07T12:55:20Z</time>
      </trkpt>
      <trkpt lat="46.20913" lon="4.55854">
        <ele>745.4</ele>
        <time>2025-09-07T12:55:21Z</time>
      </trkpt>
      <trkpt lat="46.20913" lon="4.55852">
        <ele>745.6</ele>
        <time>2025-09-07T12:55:22Z</time>
      </trkpt>
      <trkpt lat="46.20914" lon="4.5585">
        <ele>745.6</ele>
        <time>2025-09-07T12:55:23Z</time>
      </trkpt>
      <trkpt lat="46.20915" lon="4.55848">
        <ele>745.6</ele>
        <time>2025-09-07T12:55:24Z</time>
      </trkpt>
      <trkpt lat="46.20916" lon="4.55846">
        <ele>745.6</ele>
        <time>2025-09-07T12:55:25Z</time>
      </trkpt>
      <trkpt lat="46.20917" lon="4.55844">
        <ele>746</ele>
        <time>2025-09-07T12:55:26Z</time>
      </trkpt>
      <trkpt lat="46.20918" lon="4.55842">
        <ele>746.4</ele>
        <time>2025-09-07T12:55:27Z</time>
      </trkpt>
      <trkpt lat="46.20919" lon="4.5584">
        <ele>746.4</ele>
        <time>2025-09-07T12:55:28Z</time>
      </trkpt>
      <trkpt lat="46.20919" lon="4.55838">
        <ele>746.4</ele>
        <time>2025-09-07T12:55:29Z</time>
      </trkpt>
      <trkpt lat="46.2092" lon="4.55837">
        <ele>746.4</ele>
        <time>2025-09-07T12:55:30Z</time>
      </trkpt>
      <trkpt lat="46.20921" lon="4.55835">
        <ele>746.4</ele>
        <time>2025-09-07T12:55:31Z</time>
      </trkpt>
      <trkpt lat="46.20922" lon="4.55834">
        <ele>746.4</ele>
        <time>2025-09-07T12:55:32Z</time>
      </trkpt>
      <trkpt lat="46.20923" lon="4.55832">
        <ele>746.4</ele>
        <time>2025-09-07T12:55:33Z</time>
      </trkpt>
      <trkpt lat="46.20924" lon="4.5583">
        <ele>746.4</ele>
        <time>2025-09-07T12:55:34Z</time>
      </trkpt>
      <trkpt lat="46.20925" lon="4.55828">
        <ele>746.4</ele>
        <time>2025-09-07T12:55:35Z</time>
      </trkpt>
      <trkpt lat="46.20926" lon="4.55826">
        <ele>746.4</ele>
        <time>2025-09-07T12:55:36Z</time>
      </trkpt>
      <trkpt lat="46.20926" lon="4.55824">
        <ele>746.4</ele>
        <time>2025-09-07T12:55:37Z</time>
      </trkpt>
      <trkpt lat="46.20927" lon="4.55822">
        <ele>746.6</ele>
        <time>2025-09-07T12:55:38Z</time>
      </trkpt>
      <trkpt lat="46.20927" lon="4.5582">
        <ele>746.6</ele>
        <time>2025-09-07T12:55:39Z</time>
      </trkpt>
      <trkpt lat="46.20928" lon="4.55818">
        <ele>746.6</ele>
        <time>2025-09-07T12:55:40Z</time>
      </trkpt>
      <trkpt lat="46.20929" lon="4.55817">
        <ele>746.8</ele>
        <time>2025-09-07T12:55:41Z</time>
      </trkpt>
      <trkpt lat="46.20929" lon="4.55815">
        <ele>746.8</ele>
        <time>2025-09-07T12:55:42Z</time>
      </trkpt>
      <trkpt lat="46.2093" lon="4.55813">
        <ele>747.2</ele>
        <time>2025-09-07T12:55:43Z</time>
      </trkpt>
      <trkpt lat="46.2093" lon="4.55812">
        <ele>747.6</ele>
        <time>2025-09-07T12:55:44Z</time>
      </trkpt>
      <trkpt lat="46.20931" lon="4.5581">
        <ele>747.6</ele>
        <time>2025-09-07T12:55:45Z</time>
      </trkpt>
      <trkpt lat="46.20932" lon="4.55808">
        <ele>747.6</ele>
        <time>2025-09-07T12:55:46Z</time>
      </trkpt>
      <trkpt lat="46.20933" lon="4.55807">
        <ele>747.8</ele>
        <time>2025-09-07T12:55:47Z</time>
      </trkpt>
      <trkpt lat="46.20934" lon="4.55805">
        <ele>747.8</ele>
        <time>2025-09-07T12:55:48Z</time>
      </trkpt>
      <trkpt lat="46.20934" lon="4.55804">
        <ele>747.8</ele>
        <time>2025-09-07T12:55:49Z</time>
      </trkpt>
      <trkpt lat="46.20935" lon="4.55802">
        <ele>748.2</ele>
        <time>2025-09-07T12:55:50Z</time>
      </trkpt>
      <trkpt lat="46.20936" lon="4.558">
        <ele>748.2</ele>
        <time>2025-09-07T12:55:51Z</time>
      </trkpt>
      <trkpt lat="46.20936" lon="4.55798">
        <ele>748.2</ele>
        <time>2025-09-07T12:55:52Z</time>
      </trkpt>
      <trkpt lat="46.20937" lon="4.55797">
        <ele>748.2</ele>
        <time>2025-09-07T12:55:53Z</time>
      </trkpt>
      <trkpt lat="46.20938" lon="4.55795">
        <ele>748.2</ele>
        <time>2025-09-07T12:55:54Z</time>
      </trkpt>
      <trkpt lat="46.20938" lon="4.55793">
        <ele>748.2</ele>
        <time>2025-09-07T12:55:55Z</time>
      </trkpt>
      <trkpt lat="46.20939" lon="4.55792">
        <ele>748.2</ele>
        <time>2025-09-07T12:55:56Z</time>
      </trkpt>
      <trkpt lat="46.2094" lon="4.5579">
        <ele>748.6</ele>
        <time>2025-09-07T12:55:57Z</time>
      </trkpt>
      <trkpt lat="46.2094" lon="4.55789">
        <ele>748.6</ele>
        <time>2025-09-07T12:55:58Z</time>
      </trkpt>
      <trkpt lat="46.20941" lon="4.55788">
        <ele>748.6</ele>
        <time>2025-09-07T12:55:59Z</time>
      </trkpt>
      <trkpt lat="46.20941" lon="4.55786">
        <ele>748.6</ele>
        <time>2025-09-07T12:56:00Z</time>
      </trkpt>
      <trkpt lat="46.20942" lon="4.55785">
        <ele>748.6</ele>
        <time>2025-09-07T12:56:01Z</time>
      </trkpt>
      <trkpt lat="46.20943" lon="4.55783">
        <ele>748.8</ele>
        <time>2025-09-07T12:56:02Z</time>
      </trkpt>
      <trkpt lat="46.20944" lon="4.55782">
        <ele>748.8</ele>
        <time>2025-09-07T12:56:03Z</time>
      </trkpt>
      <trkpt lat="46.20944" lon="4.5578">
        <ele>749</ele>
        <time>2025-09-07T12:56:04Z</time>
      </trkpt>
      <trkpt lat="46.20945" lon="4.55778">
        <ele>749</ele>
        <time>2025-09-07T12:56:05Z</time>
      </trkpt>
      <trkpt lat="46.20946" lon="4.55776">
        <ele>749.4</ele>
        <time>2025-09-07T12:56:06Z</time>
      </trkpt>
      <trkpt lat="46.20946" lon="4.55774">
        <ele>749.4</ele>
        <time>2025-09-07T12:56:07Z</time>
      </trkpt>
      <trkpt lat="46.20946" lon="4.55773">
        <ele>749.4</ele>
        <time>2025-09-07T12:56:08Z</time>
      </trkpt>
      <trkpt lat="46.20947" lon="4.55771">
        <ele>749.4</ele>
        <time>2025-09-07T12:56:09Z</time>
      </trkpt>
      <trkpt lat="46.20948" lon="4.55769">
        <ele>749.4</ele>
        <time>2025-09-07T12:56:10Z</time>
      </trkpt>
      <trkpt lat="46.20949" lon="4.55767">
        <ele>749.4</ele>
        <time>2025-09-07T12:56:11Z</time>
      </trkpt>
      <trkpt lat="46.2095" lon="4.55765">
        <ele>749.2</ele>
        <time>2025-09-07T12:56:12Z</time>
      </trkpt>
      <trkpt lat="46.2095" lon="4.55763">
        <ele>749.2</ele>
        <time>2025-09-07T12:56:13Z</time>
      </trkpt>
      <trkpt lat="46.20951" lon="4.5576">
        <ele>749.6</ele>
        <time>2025-09-07T12:56:14Z</time>
      </trkpt>
      <trkpt lat="46.20951" lon="4.55758">
        <ele>749.6</ele>
        <time>2025-09-07T12:56:15Z</time>
      </trkpt>
      <trkpt lat="46.20952" lon="4.55756">
        <ele>750</ele>
        <time>2025-09-07T12:56:16Z</time>
      </trkpt>
      <trkpt lat="46.20953" lon="4.55754">
        <ele>749.8</ele>
        <time>2025-09-07T12:56:17Z</time>
      </trkpt>
      <trkpt lat="46.20954" lon="4.55751">
        <ele>749.8</ele>
        <time>2025-09-07T12:56:18Z</time>
      </trkpt>
      <trkpt lat="46.20955" lon="4.55749">
        <ele>750.4</ele>
        <time>2025-09-07T12:56:19Z</time>
      </trkpt>
      <trkpt lat="46.20957" lon="4.55746">
        <ele>750.4</ele>
        <time>2025-09-07T12:56:20Z</time>
      </trkpt>
      <trkpt lat="46.20959" lon="4.55742">
        <ele>750</ele>
        <time>2025-09-07T12:56:21Z</time>
      </trkpt>
      <trkpt lat="46.2096" lon="4.55739">
        <ele>750</ele>
        <time>2025-09-07T12:56:22Z</time>
      </trkpt>
      <trkpt lat="46.2096" lon="4.55739">
        <ele>749.4</ele>
        <time>2025-09-07T12:56:23Z</time>
      </trkpt>
      <trkpt lat="46.2096" lon="4.55739">
        <ele>749.2</ele>
        <time>2025-09-07T12:56:24Z</time>
      </trkpt>
      <trkpt lat="46.20966" lon="4.55722">
        <ele>749.4</ele>
        <time>2025-09-07T12:56:26Z</time>
      </trkpt>
      <trkpt lat="46.20969" lon="4.55719">
        <ele>749.8</ele>
        <time>2025-09-07T12:56:27Z</time>
      </trkpt>
      <trkpt lat="46.20971" lon="4.55715">
        <ele>750.2</ele>
        <time>2025-09-07T12:56:28Z</time>
      </trkpt>
      <trkpt lat="46.20973" lon="4.55712">
        <ele>750</ele>
        <time>2025-09-07T12:56:29Z</time>
      </trkpt>
      <trkpt lat="46.20975" lon="4.55709">
        <ele>750</ele>
        <time>2025-09-07T12:56:30Z</time>
      </trkpt>
      <trkpt lat="46.20977" lon="4.55706">
        <ele>750</ele>
        <time>2025-09-07T12:56:31Z</time>
      </trkpt>
      <trkpt lat="46.20978" lon="4.55703">
        <ele>750.2</ele>
        <time>2025-09-07T12:56:32Z</time>
      </trkpt>
      <trkpt lat="46.2098" lon="4.557">
        <ele>750.2</ele>
        <time>2025-09-07T12:56:33Z</time>
      </trkpt>
      <trkpt lat="46.20982" lon="4.55697">
        <ele>751</ele>
        <time>2025-09-07T12:56:34Z</time>
      </trkpt>
      <trkpt lat="46.20984" lon="4.55694">
        <ele>751.2</ele>
        <time>2025-09-07T12:56:35Z</time>
      </trkpt>
      <trkpt lat="46.20986" lon="4.5569">
        <ele>750.6</ele>
        <time>2025-09-07T12:56:36Z</time>
      </trkpt>
      <trkpt lat="46.20988" lon="4.55685">
        <ele>750</ele>
        <time>2025-09-07T12:56:37Z</time>
      </trkpt>
      <trkpt lat="46.2099" lon="4.55681">
        <ele>749.8</ele>
        <time>2025-09-07T12:56:38Z</time>
      </trkpt>
      <trkpt lat="46.20992" lon="4.55676">
        <ele>750.8</ele>
        <time>2025-09-07T12:56:39Z</time>
      </trkpt>
      <trkpt lat="46.20993" lon="4.55672">
        <ele>750.4</ele>
        <time>2025-09-07T12:56:40Z</time>
      </trkpt>
      <trkpt lat="46.20995" lon="4.55668">
        <ele>750.2</ele>
        <time>2025-09-07T12:56:41Z</time>
      </trkpt>
      <trkpt lat="46.20996" lon="4.55664">
        <ele>749.8</ele>
        <time>2025-09-07T12:56:42Z</time>
      </trkpt>
      <trkpt lat="46.20997" lon="4.5566">
        <ele>749.8</ele>
        <time>2025-09-07T12:56:43Z</time>
      </trkpt>
      <trkpt lat="46.20998" lon="4.55655">
        <ele>749.2</ele>
        <time>2025-09-07T12:56:44Z</time>
      </trkpt>
      <trkpt lat="46.21" lon="4.5565">
        <ele>748.4</ele>
        <time>2025-09-07T12:56:45Z</time>
      </trkpt>
      <trkpt lat="46.21001" lon="4.55647">
        <ele>747.2</ele>
        <time>2025-09-07T12:56:46Z</time>
      </trkpt>
      <trkpt lat="46.21002" lon="4.55644">
        <ele>747.2</ele>
        <time>2025-09-07T12:56:47Z</time>
      </trkpt>
      <trkpt lat="46.21003" lon="4.5564">
        <ele>746.4</ele>
        <time>2025-09-07T12:56:48Z</time>
      </trkpt>
      <trkpt lat="46.21005" lon="4.55636">
        <ele>746</ele>
        <time>2025-09-07T12:56:49Z</time>
      </trkpt>
      <trkpt lat="46.21006" lon="4.55632">
        <ele>745.6</ele>
        <time>2025-09-07T12:56:50Z</time>
      </trkpt>
      <trkpt lat="46.21008" lon="4.55628">
        <ele>745</ele>
        <time>2025-09-07T12:56:51Z</time>
      </trkpt>
      <trkpt lat="46.2101" lon="4.55625">
        <ele>745</ele>
        <time>2025-09-07T12:56:52Z</time>
      </trkpt>
      <trkpt lat="46.21012" lon="4.55623">
        <ele>744.4</ele>
        <time>2025-09-07T12:56:53Z</time>
      </trkpt>
      <trkpt lat="46.21014" lon="4.5562">
        <ele>743.6</ele>
        <time>2025-09-07T12:56:54Z</time>
      </trkpt>
      <trkpt lat="46.21016" lon="4.55616">
        <ele>744</ele>
        <time>2025-09-07T12:56:55Z</time>
      </trkpt>
      <trkpt lat="46.21017" lon="4.55613">
        <ele>744</ele>
        <time>2025-09-07T12:56:56Z</time>
      </trkpt>
      <trkpt lat="46.21018" lon="4.5561">
        <ele>744</ele>
        <time>2025-09-07T12:56:57Z</time>
      </trkpt>
      <trkpt lat="46.2102" lon="4.55607">
        <ele>743.4</ele>
        <time>2025-09-07T12:56:58Z</time>
      </trkpt>
      <trkpt lat="46.21022" lon="4.55604">
        <ele>743.4</ele>
        <time>2025-09-07T12:56:59Z</time>
      </trkpt>
      <trkpt lat="46.21022" lon="4.55604">
        <ele>743</ele>
        <time>2025-09-07T12:57:00Z</time>
      </trkpt>
      <trkpt lat="46.21026" lon="4.55593">
        <ele>742.4</ele>
        <time>2025-09-07T12:57:01Z</time>
      </trkpt>
      <trkpt lat="46.21027" lon="4.55588">
        <ele>742.2</ele>
        <time>2025-09-07T12:57:02Z</time>
      </trkpt>
      <trkpt lat="46.21028" lon="4.55584">
        <ele>741.8</ele>
        <time>2025-09-07T12:57:03Z</time>
      </trkpt>
      <trkpt lat="46.21029" lon="4.55579">
        <ele>741.4</ele>
        <time>2025-09-07T12:57:04Z</time>
      </trkpt>
      <trkpt lat="46.2103" lon="4.55574">
        <ele>741</ele>
        <time>2025-09-07T12:57:05Z</time>
      </trkpt>
      <trkpt lat="46.2103" lon="4.5557">
        <ele>741</ele>
        <time>2025-09-07T12:57:06Z</time>
      </trkpt>
      <trkpt lat="46.21031" lon="4.55566">
        <ele>740.8</ele>
        <time>2025-09-07T12:57:07Z</time>
      </trkpt>
      <trkpt lat="46.21031" lon="4.55562">
        <ele>740.4</ele>
        <time>2025-09-07T12:57:08Z</time>
      </trkpt>
      <trkpt lat="46.21032" lon="4.55559">
        <ele>740</ele>
        <time>2025-09-07T12:57:09Z</time>
      </trkpt>
      <trkpt lat="46.21033" lon="4.55555">
        <ele>739.6</ele>
        <time>2025-09-07T12:57:10Z</time>
      </trkpt>
      <trkpt lat="46.21034" lon="4.55552">
        <ele>739</ele>
        <time>2025-09-07T12:57:11Z</time>
      </trkpt>
      <trkpt lat="46.21035" lon="4.55547">
        <ele>738.6</ele>
        <time>2025-09-07T12:57:12Z</time>
      </trkpt>
      <trkpt lat="46.21036" lon="4.55543">
        <ele>738.4</ele>
        <time>2025-09-07T12:57:13Z</time>
      </trkpt>
      <trkpt lat="46.21038" lon="4.55539">
        <ele>737.2</ele>
        <time>2025-09-07T12:57:14Z</time>
      </trkpt>
      <trkpt lat="46.21039" lon="4.55535">
        <ele>737.4</ele>
        <time>2025-09-07T12:57:15Z</time>
      </trkpt>
      <trkpt lat="46.21041" lon="4.5553">
        <ele>737.6</ele>
        <time>2025-09-07T12:57:16Z</time>
      </trkpt>
      <trkpt lat="46.21044" lon="4.55524">
        <ele>737.6</ele>
        <time>2025-09-07T12:57:17Z</time>
      </trkpt>
      <trkpt lat="46.21046" lon="4.55517">
        <ele>737.2</ele>
        <time>2025-09-07T12:57:18Z</time>
      </trkpt>
      <trkpt lat="46.21049" lon="4.55511">
        <ele>736.8</ele>
        <time>2025-09-07T12:57:19Z</time>
      </trkpt>
      <trkpt lat="46.21051" lon="4.55504">
        <ele>735.8</ele>
        <time>2025-09-07T12:57:20Z</time>
      </trkpt>
      <trkpt lat="46.21054" lon="4.55497">
        <ele>734.8</ele>
        <time>2025-09-07T12:57:21Z</time>
      </trkpt>
      <trkpt lat="46.21056" lon="4.5549">
        <ele>734.4</ele>
        <time>2025-09-07T12:57:22Z</time>
      </trkpt>
      <trkpt lat="46.21059" lon="4.55483">
        <ele>734.4</ele>
        <time>2025-09-07T12:57:23Z</time>
      </trkpt>
      <trkpt lat="46.21062" lon="4.55476">
        <ele>733.2</ele>
        <time>2025-09-07T12:57:24Z</time>
      </trkpt>
      <trkpt lat="46.21064" lon="4.55469">
        <ele>733.2</ele>
        <time>2025-09-07T12:57:25Z</time>
      </trkpt>
      <trkpt lat="46.21067" lon="4.55462">
        <ele>732.8</ele>
        <time>2025-09-07T12:57:26Z</time>
      </trkpt>
      <trkpt lat="46.2107" lon="4.55455">
        <ele>732.6</ele>
        <time>2025-09-07T12:57:27Z</time>
      </trkpt>
      <trkpt lat="46.21072" lon="4.55449">
        <ele>732.2</ele>
        <time>2025-09-07T12:57:28Z</time>
      </trkpt>
      <trkpt lat="46.21074" lon="4.55444">
        <ele>732.2</ele>
        <time>2025-09-07T12:57:29Z</time>
      </trkpt>
      <trkpt lat="46.21076" lon="4.5544">
        <ele>731.6</ele>
        <time>2025-09-07T12:57:30Z</time>
      </trkpt>
      <trkpt lat="46.21078" lon="4.55434">
        <ele>731.2</ele>
        <time>2025-09-07T12:57:31Z</time>
      </trkpt>
      <trkpt lat="46.2108" lon="4.5543">
        <ele>731.2</ele>
        <time>2025-09-07T12:57:32Z</time>
      </trkpt>
      <trkpt lat="46.21081" lon="4.55426">
        <ele>731.2</ele>
        <time>2025-09-07T12:57:33Z</time>
      </trkpt>
      <trkpt lat="46.21083" lon="4.55422">
        <ele>731</ele>
        <time>2025-09-07T12:57:34Z</time>
      </trkpt>
      <trkpt lat="46.21085" lon="4.55418">
        <ele>731</ele>
        <time>2025-09-07T12:57:35Z</time>
      </trkpt>
      <trkpt lat="46.21087" lon="4.55413">
        <ele>731</ele>
        <time>2025-09-07T12:57:36Z</time>
      </trkpt>
      <trkpt lat="46.21089" lon="4.55409">
        <ele>730.6</ele>
        <time>2025-09-07T12:57:37Z</time>
      </trkpt>
      <trkpt lat="46.21091" lon="4.55405">
        <ele>730.6</ele>
        <time>2025-09-07T12:57:38Z</time>
      </trkpt>
      <trkpt lat="46.21093" lon="4.55401">
        <ele>730.6</ele>
        <time>2025-09-07T12:57:39Z</time>
      </trkpt>
      <trkpt lat="46.21095" lon="4.55397">
        <ele>730.6</ele>
        <time>2025-09-07T12:57:40Z</time>
      </trkpt>
      <trkpt lat="46.21097" lon="4.55393">
        <ele>730.6</ele>
        <time>2025-09-07T12:57:41Z</time>
      </trkpt>
      <trkpt lat="46.21099" lon="4.5539">
        <ele>730.4</ele>
        <time>2025-09-07T12:57:42Z</time>
      </trkpt>
      <trkpt lat="46.21101" lon="4.55386">
        <ele>730.4</ele>
        <time>2025-09-07T12:57:43Z</time>
      </trkpt>
      <trkpt lat="46.21103" lon="4.55382">
        <ele>730.4</ele>
        <time>2025-09-07T12:57:44Z</time>
      </trkpt>
      <trkpt lat="46.21105" lon="4.55378">
        <ele>730</ele>
        <time>2025-09-07T12:57:45Z</time>
      </trkpt>
      <trkpt lat="46.21108" lon="4.55375">
        <ele>730</ele>
        <time>2025-09-07T12:57:46Z</time>
      </trkpt>
      <trkpt lat="46.2111" lon="4.55372">
        <ele>729.8</ele>
        <time>2025-09-07T12:57:47Z</time>
      </trkpt>
      <trkpt lat="46.21113" lon="4.55369">
        <ele>729</ele>
        <time>2025-09-07T12:57:48Z</time>
      </trkpt>
      <trkpt lat="46.21116" lon="4.55367">
        <ele>729</ele>
        <time>2025-09-07T12:57:49Z</time>
      </trkpt>
      <trkpt lat="46.21118" lon="4.55364">
        <ele>729</ele>
        <time>2025-09-07T12:57:50Z</time>
      </trkpt>
      <trkpt lat="46.21119" lon="4.55361">
        <ele>729</ele>
        <time>2025-09-07T12:57:51Z</time>
      </trkpt>
      <trkpt lat="46.21121" lon="4.55358">
        <ele>729.4</ele>
        <time>2025-09-07T12:57:52Z</time>
      </trkpt>
      <trkpt lat="46.21123" lon="4.55354">
        <ele>729.6</ele>
        <time>2025-09-07T12:57:53Z</time>
      </trkpt>
      <trkpt lat="46.21126" lon="4.5535">
        <ele>729.6</ele>
        <time>2025-09-07T12:57:54Z</time>
      </trkpt>
      <trkpt lat="46.21128" lon="4.55346">
        <ele>728.8</ele>
        <time>2025-09-07T12:57:55Z</time>
      </trkpt>
      <trkpt lat="46.2113" lon="4.55342">
        <ele>728.8</ele>
        <time>2025-09-07T12:57:56Z</time>
      </trkpt>
      <trkpt lat="46.21131" lon="4.55337">
        <ele>728.8</ele>
        <time>2025-09-07T12:57:57Z</time>
      </trkpt>
      <trkpt lat="46.21131" lon="4.55332">
        <ele>728.8</ele>
        <time>2025-09-07T12:57:58Z</time>
      </trkpt>
      <trkpt lat="46.2113" lon="4.55328">
        <ele>728.8</ele>
        <time>2025-09-07T12:57:59Z</time>
      </trkpt>
      <trkpt lat="46.2113" lon="4.55325">
        <ele>728.8</ele>
        <time>2025-09-07T12:58:00Z</time>
      </trkpt>
      <trkpt lat="46.2113" lon="4.55321">
        <ele>729</ele>
        <time>2025-09-07T12:58:01Z</time>
      </trkpt>
      <trkpt lat="46.2113" lon="4.55318">
        <ele>729</ele>
        <time>2025-09-07T12:58:02Z</time>
      </trkpt>
      <trkpt lat="46.2113" lon="4.55316">
        <ele>729</ele>
        <time>2025-09-07T12:58:03Z</time>
      </trkpt>
      <trkpt lat="46.2113" lon="4.55314">
        <ele>729.2</ele>
        <time>2025-09-07T12:58:04Z</time>
      </trkpt>
      <trkpt lat="46.21131" lon="4.55311">
        <ele>729.2</ele>
        <time>2025-09-07T12:58:05Z</time>
      </trkpt>
      <trkpt lat="46.21132" lon="4.55309">
        <ele>729.2</ele>
        <time>2025-09-07T12:58:06Z</time>
      </trkpt>
      <trkpt lat="46.21133" lon="4.55307">
        <ele>729.2</ele>
        <time>2025-09-07T12:58:07Z</time>
      </trkpt>
      <trkpt lat="46.21133" lon="4.55306">
        <ele>729.2</ele>
        <time>2025-09-07T12:58:08Z</time>
      </trkpt>
      <trkpt lat="46.21133" lon="4.55305">
        <ele>729.2</ele>
        <time>2025-09-07T12:58:09Z</time>
      </trkpt>
      <trkpt lat="46.21133" lon="4.55303">
        <ele>729.4</ele>
        <time>2025-09-07T12:58:10Z</time>
      </trkpt>
      <trkpt lat="46.21133" lon="4.553">
        <ele>729.4</ele>
        <time>2025-09-07T12:58:11Z</time>
      </trkpt>
      <trkpt lat="46.21132" lon="4.55294">
        <ele>729.4</ele>
        <time>2025-09-07T12:58:12Z</time>
      </trkpt>
      <trkpt lat="46.21133" lon="4.5529">
        <ele>729.4</ele>
        <time>2025-09-07T12:58:13Z</time>
      </trkpt>
      <trkpt lat="46.21133" lon="4.55286">
        <ele>729.2</ele>
        <time>2025-09-07T12:58:14Z</time>
      </trkpt>
      <trkpt lat="46.21135" lon="4.55281">
        <ele>728.6</ele>
        <time>2025-09-07T12:58:15Z</time>
      </trkpt>
      <trkpt lat="46.21136" lon="4.55276">
        <ele>728.6</ele>
        <time>2025-09-07T12:58:16Z</time>
      </trkpt>
      <trkpt lat="46.21138" lon="4.55269">
        <ele>728.2</ele>
        <time>2025-09-07T12:58:17Z</time>
      </trkpt>
      <trkpt lat="46.21139" lon="4.55263">
        <ele>728</ele>
        <time>2025-09-07T12:58:18Z</time>
      </trkpt>
      <trkpt lat="46.21141" lon="4.55254">
        <ele>728</ele>
        <time>2025-09-07T12:58:19Z</time>
      </trkpt>
      <trkpt lat="46.21142" lon="4.55246">
        <ele>727.6</ele>
        <time>2025-09-07T12:58:20Z</time>
      </trkpt>
      <trkpt lat="46.21142" lon="4.55237">
        <ele>727.2</ele>
        <time>2025-09-07T12:58:21Z</time>
      </trkpt>
      <trkpt lat="46.21143" lon="4.55229">
        <ele>726.6</ele>
        <time>2025-09-07T12:58:22Z</time>
      </trkpt>
      <trkpt lat="46.21143" lon="4.5522">
        <ele>726.2</ele>
        <time>2025-09-07T12:58:23Z</time>
      </trkpt>
      <trkpt lat="46.21144" lon="4.5521">
        <ele>725.4</ele>
        <time>2025-09-07T12:58:24Z</time>
      </trkpt>
      <trkpt lat="46.21143" lon="4.552">
        <ele>724.4</ele>
        <time>2025-09-07T12:58:25Z</time>
      </trkpt>
      <trkpt lat="46.21142" lon="4.5519">
        <ele>724</ele>
        <time>2025-09-07T12:58:26Z</time>
      </trkpt>
      <trkpt lat="46.21141" lon="4.55181">
        <ele>723.6</ele>
        <time>2025-09-07T12:58:27Z</time>
      </trkpt>
      <trkpt lat="46.21139" lon="4.55171">
        <ele>723.2</ele>
        <time>2025-09-07T12:58:28Z</time>
      </trkpt>
      <trkpt lat="46.21137" lon="4.55161">
        <ele>722.8</ele>
        <time>2025-09-07T12:58:29Z</time>
      </trkpt>
      <trkpt lat="46.21134" lon="4.55152">
        <ele>722.2</ele>
        <time>2025-09-07T12:58:30Z</time>
      </trkpt>
      <trkpt lat="46.21132" lon="4.55143">
        <ele>722.2</ele>
        <time>2025-09-07T12:58:31Z</time>
      </trkpt>
      <trkpt lat="46.21129" lon="4.55136">
        <ele>722.2</ele>
        <time>2025-09-07T12:58:32Z</time>
      </trkpt>
      <trkpt lat="46.21127" lon="4.55128">
        <ele>722.2</ele>
        <time>2025-09-07T12:58:33Z</time>
      </trkpt>
      <trkpt lat="46.21124" lon="4.5512">
        <ele>722.4</ele>
        <time>2025-09-07T12:58:34Z</time>
      </trkpt>
      <trkpt lat="46.21123" lon="4.55114">
        <ele>723</ele>
        <time>2025-09-07T12:58:35Z</time>
      </trkpt>
      <trkpt lat="46.21122" lon="4.55108">
        <ele>723.4</ele>
        <time>2025-09-07T12:58:36Z</time>
      </trkpt>
      <trkpt lat="46.2112" lon="4.55103">
        <ele>723.6</ele>
        <time>2025-09-07T12:58:37Z</time>
      </trkpt>
      <trkpt lat="46.21119" lon="4.55099">
        <ele>723.8</ele>
        <time>2025-09-07T12:58:38Z</time>
      </trkpt>
      <trkpt lat="46.21119" lon="4.55095">
        <ele>724.4</ele>
        <time>2025-09-07T12:58:39Z</time>
      </trkpt>
      <trkpt lat="46.21118" lon="4.5509">
        <ele>722.8</ele>
        <time>2025-09-07T12:58:40Z</time>
      </trkpt>
      <trkpt lat="46.21117" lon="4.55086">
        <ele>722.8</ele>
        <time>2025-09-07T12:58:41Z</time>
      </trkpt>
      <trkpt lat="46.21116" lon="4.55081">
        <ele>723.2</ele>
        <time>2025-09-07T12:58:42Z</time>
      </trkpt>
      <trkpt lat="46.21114" lon="4.55076">
        <ele>723.2</ele>
        <time>2025-09-07T12:58:43Z</time>
      </trkpt>
      <trkpt lat="46.21113" lon="4.55071">
        <ele>723</ele>
        <time>2025-09-07T12:58:44Z</time>
      </trkpt>
      <trkpt lat="46.2111" lon="4.55066">
        <ele>723</ele>
        <time>2025-09-07T12:58:45Z</time>
      </trkpt>
      <trkpt lat="46.21109" lon="4.55062">
        <ele>722.4</ele>
        <time>2025-09-07T12:58:46Z</time>
      </trkpt>
      <trkpt lat="46.21109" lon="4.55058">
        <ele>721.8</ele>
        <time>2025-09-07T12:58:47Z</time>
      </trkpt>
      <trkpt lat="46.21107" lon="4.55055">
        <ele>721.4</ele>
        <time>2025-09-07T12:58:48Z</time>
      </trkpt>
      <trkpt lat="46.21105" lon="4.55049">
        <ele>721.8</ele>
        <time>2025-09-07T12:58:49Z</time>
      </trkpt>
      <trkpt lat="46.21105" lon="4.55045">
        <ele>721.8</ele>
        <time>2025-09-07T12:58:50Z</time>
      </trkpt>
      <trkpt lat="46.21104" lon="4.55044">
        <ele>721.2</ele>
        <time>2025-09-07T12:58:51Z</time>
      </trkpt>
      <trkpt lat="46.21103" lon="4.55042">
        <ele>720.6</ele>
        <time>2025-09-07T12:58:52Z</time>
      </trkpt>
      <trkpt lat="46.21104" lon="4.55041">
        <ele>720.4</ele>
        <time>2025-09-07T12:58:53Z</time>
      </trkpt>
      <trkpt lat="46.21104" lon="4.55041">
        <ele>720.4</ele>
        <time>2025-09-07T12:58:54Z</time>
      </trkpt>
      <trkpt lat="46.21104" lon="4.55042">
        <ele>720</ele>
        <time>2025-09-07T12:58:55Z</time>
      </trkpt>
      <trkpt lat="46.21105" lon="4.55039">
        <ele>718.4</ele>
        <time>2025-09-07T12:59:01Z</time>
      </trkpt>
      <trkpt lat="46.21104" lon="4.55037">
        <ele>717.8</ele>
        <time>2025-09-07T12:59:02Z</time>
      </trkpt>
      <trkpt lat="46.21103" lon="4.55037">
        <ele>717.2</ele>
        <time>2025-09-07T12:59:03Z</time>
      </trkpt>
      <trkpt lat="46.21105" lon="4.55029">
        <ele>717.2</ele>
        <time>2025-09-07T12:59:04Z</time>
      </trkpt>
      <trkpt lat="46.21106" lon="4.55025">
        <ele>716.6</ele>
        <time>2025-09-07T12:59:05Z</time>
      </trkpt>
      <trkpt lat="46.21106" lon="4.5502">
        <ele>717.6</ele>
        <time>2025-09-07T12:59:06Z</time>
      </trkpt>
      <trkpt lat="46.21105" lon="4.55016">
        <ele>717.4</ele>
        <time>2025-09-07T12:59:07Z</time>
      </trkpt>
      <trkpt lat="46.21105" lon="4.55012">
        <ele>716.6</ele>
        <time>2025-09-07T12:59:08Z</time>
      </trkpt>
      <trkpt lat="46.21104" lon="4.55007">
        <ele>716.4</ele>
        <time>2025-09-07T12:59:09Z</time>
      </trkpt>
      <trkpt lat="46.21104" lon="4.55001">
        <ele>715.2</ele>
        <time>2025-09-07T12:59:10Z</time>
      </trkpt>
      <trkpt lat="46.21102" lon="4.54997">
        <ele>714.8</ele>
        <time>2025-09-07T12:59:11Z</time>
      </trkpt>
      <trkpt lat="46.21102" lon="4.54993">
        <ele>714</ele>
        <time>2025-09-07T12:59:12Z</time>
      </trkpt>
      <trkpt lat="46.21101" lon="4.54989">
        <ele>713.8</ele>
        <time>2025-09-07T12:59:13Z</time>
      </trkpt>
      <trkpt lat="46.21101" lon="4.54987">
        <ele>713.6</ele>
        <time>2025-09-07T12:59:14Z</time>
      </trkpt>
      <trkpt lat="46.211" lon="4.54986">
        <ele>713.6</ele>
        <time>2025-09-07T12:59:15Z</time>
      </trkpt>
      <trkpt lat="46.21099" lon="4.54984">
        <ele>713.2</ele>
        <time>2025-09-07T12:59:16Z</time>
      </trkpt>
      <trkpt lat="46.21098" lon="4.54981">
        <ele>713</ele>
        <time>2025-09-07T12:59:17Z</time>
      </trkpt>
      <trkpt lat="46.21096" lon="4.54975">
        <ele>713</ele>
        <time>2025-09-07T12:59:18Z</time>
      </trkpt>
      <trkpt lat="46.21094" lon="4.5497">
        <ele>712</ele>
        <time>2025-09-07T12:59:19Z</time>
      </trkpt>
      <trkpt lat="46.21092" lon="4.54965">
        <ele>711.2</ele>
        <time>2025-09-07T12:59:20Z</time>
      </trkpt>
      <trkpt lat="46.2109" lon="4.54958">
        <ele>710.6</ele>
        <time>2025-09-07T12:59:21Z</time>
      </trkpt>
      <trkpt lat="46.21088" lon="4.54952">
        <ele>710.2</ele>
        <time>2025-09-07T12:59:22Z</time>
      </trkpt>
      <trkpt lat="46.21086" lon="4.54946">
        <ele>709</ele>
        <time>2025-09-07T12:59:23Z</time>
      </trkpt>
      <trkpt lat="46.21084" lon="4.54939">
        <ele>708</ele>
        <time>2025-09-07T12:59:24Z</time>
      </trkpt>
      <trkpt lat="46.21083" lon="4.54933">
        <ele>707</ele>
        <time>2025-09-07T12:59:25Z</time>
      </trkpt>
      <trkpt lat="46.21081" lon="4.54929">
        <ele>706.6</ele>
        <time>2025-09-07T12:59:26Z</time>
      </trkpt>
      <trkpt lat="46.2108" lon="4.54924">
        <ele>705.2</ele>
        <time>2025-09-07T12:59:27Z</time>
      </trkpt>
      <trkpt lat="46.2108" lon="4.54921">
        <ele>705.2</ele>
        <time>2025-09-07T12:59:28Z</time>
      </trkpt>
      <trkpt lat="46.21077" lon="4.54917">
        <ele>704.6</ele>
        <time>2025-09-07T12:59:29Z</time>
      </trkpt>
      <trkpt lat="46.21075" lon="4.54914">
        <ele>704.6</ele>
        <time>2025-09-07T12:59:30Z</time>
      </trkpt>
      <trkpt lat="46.21073" lon="4.54909">
        <ele>704.6</ele>
        <time>2025-09-07T12:59:31Z</time>
      </trkpt>
      <trkpt lat="46.2107" lon="4.54904">
        <ele>703.6</ele>
        <time>2025-09-07T12:59:32Z</time>
      </trkpt>
      <trkpt lat="46.21069" lon="4.54899">
        <ele>702.8</ele>
        <time>2025-09-07T12:59:33Z</time>
      </trkpt>
      <trkpt lat="46.21066" lon="4.54894">
        <ele>702.4</ele>
        <time>2025-09-07T12:59:34Z</time>
      </trkpt>
      <trkpt lat="46.21064" lon="4.54889">
        <ele>702</ele>
        <time>2025-09-07T12:59:35Z</time>
      </trkpt>
      <trkpt lat="46.21061" lon="4.5488">
        <ele>701.4</ele>
        <time>2025-09-07T12:59:36Z</time>
      </trkpt>
      <trkpt lat="46.21058" lon="4.54874">
        <ele>701.4</ele>
        <time>2025-09-07T12:59:37Z</time>
      </trkpt>
      <trkpt lat="46.21056" lon="4.54868">
        <ele>700.6</ele>
        <time>2025-09-07T12:59:38Z</time>
      </trkpt>
      <trkpt lat="46.21054" lon="4.54862">
        <ele>700.6</ele>
        <time>2025-09-07T12:59:39Z</time>
      </trkpt>
      <trkpt lat="46.21052" lon="4.54857">
        <ele>700</ele>
        <time>2025-09-07T12:59:40Z</time>
      </trkpt>
      <trkpt lat="46.2105" lon="4.54851">
        <ele>699.4</ele>
        <time>2025-09-07T12:59:41Z</time>
      </trkpt>
      <trkpt lat="46.21049" lon="4.54846">
        <ele>699.4</ele>
        <time>2025-09-07T12:59:42Z</time>
      </trkpt>
      <trkpt lat="46.21047" lon="4.54841">
        <ele>699.2</ele>
        <time>2025-09-07T12:59:43Z</time>
      </trkpt>
      <trkpt lat="46.21044" lon="4.54834">
        <ele>698.4</ele>
        <time>2025-09-07T12:59:44Z</time>
      </trkpt>
      <trkpt lat="46.21043" lon="4.54827">
        <ele>697.8</ele>
        <time>2025-09-07T12:59:45Z</time>
      </trkpt>
      <trkpt lat="46.2104" lon="4.54821">
        <ele>697.6</ele>
        <time>2025-09-07T12:59:46Z</time>
      </trkpt>
      <trkpt lat="46.21038" lon="4.54813">
        <ele>697.2</ele>
        <time>2025-09-07T12:59:47Z</time>
      </trkpt>
      <trkpt lat="46.21035" lon="4.54805">
        <ele>696.2</ele>
        <time>2025-09-07T12:59:48Z</time>
      </trkpt>
      <trkpt lat="46.21032" lon="4.54798">
        <ele>695.6</ele>
        <time>2025-09-07T12:59:49Z</time>
      </trkpt>
      <trkpt lat="46.2103" lon="4.54791">
        <ele>695.6</ele>
        <time>2025-09-07T12:59:50Z</time>
      </trkpt>
      <trkpt lat="46.21028" lon="4.54785">
        <ele>695</ele>
        <time>2025-09-07T12:59:51Z</time>
      </trkpt>
      <trkpt lat="46.21025" lon="4.54779">
        <ele>695</ele>
        <time>2025-09-07T12:59:52Z</time>
      </trkpt>
      <trkpt lat="46.21023" lon="4.54773">
        <ele>693.8</ele>
        <time>2025-09-07T12:59:53Z</time>
      </trkpt>
      <trkpt lat="46.21021" lon="4.54766">
        <ele>693.8</ele>
        <time>2025-09-07T12:59:54Z</time>
      </trkpt>
      <trkpt lat="46.21019" lon="4.54757">
        <ele>693.4</ele>
        <time>2025-09-07T12:59:55Z</time>
      </trkpt>
      <trkpt lat="46.21017" lon="4.54749">
        <ele>693</ele>
        <time>2025-09-07T12:59:56Z</time>
      </trkpt>
      <trkpt lat="46.21016" lon="4.54741">
        <ele>692.6</ele>
        <time>2025-09-07T12:59:57Z</time>
      </trkpt>
      <trkpt lat="46.21014" lon="4.54734">
        <ele>692.4</ele>
        <time>2025-09-07T12:59:58Z</time>
      </trkpt>
      <trkpt lat="46.21014" lon="4.54727">
        <ele>692.4</ele>
        <time>2025-09-07T12:59:59Z</time>
      </trkpt>
      <trkpt lat="46.21013" lon="4.54723">
        <ele>692.2</ele>
        <time>2025-09-07T13:00:00Z</time>
      </trkpt>
      <trkpt lat="46.21012" lon="4.54719">
        <ele>692</ele>
        <time>2025-09-07T13:00:01Z</time>
      </trkpt>
      <trkpt lat="46.21011" lon="4.54716">
        <ele>691.6</ele>
        <time>2025-09-07T13:00:02Z</time>
      </trkpt>
      <trkpt lat="46.21011" lon="4.54712">
        <ele>691.4</ele>
        <time>2025-09-07T13:00:03Z</time>
      </trkpt>
      <trkpt lat="46.2101" lon="4.54708">
        <ele>691</ele>
        <time>2025-09-07T13:00:04Z</time>
      </trkpt>
      <trkpt lat="46.21009" lon="4.54705">
        <ele>691</ele>
        <time>2025-09-07T13:00:05Z</time>
      </trkpt>
      <trkpt lat="46.21009" lon="4.54701">
        <ele>690.6</ele>
        <time>2025-09-07T13:00:06Z</time>
      </trkpt>
      <trkpt lat="46.21008" lon="4.54697">
        <ele>691</ele>
        <time>2025-09-07T13:00:07Z</time>
      </trkpt>
      <trkpt lat="46.21007" lon="4.54694">
        <ele>691</ele>
        <time>2025-09-07T13:00:08Z</time>
      </trkpt>
      <trkpt lat="46.21006" lon="4.5469">
        <ele>690.6</ele>
        <time>2025-09-07T13:00:09Z</time>
      </trkpt>
      <trkpt lat="46.21004" lon="4.54686">
        <ele>690.2</ele>
        <time>2025-09-07T13:00:10Z</time>
      </trkpt>
      <trkpt lat="46.21003" lon="4.54683">
        <ele>690.2</ele>
        <time>2025-09-07T13:00:11Z</time>
      </trkpt>
      <trkpt lat="46.21001" lon="4.54679">
        <ele>689.8</ele>
        <time>2025-09-07T13:00:12Z</time>
      </trkpt>
      <trkpt lat="46.20999" lon="4.54676">
        <ele>689.2</ele>
        <time>2025-09-07T13:00:13Z</time>
      </trkpt>
      <trkpt lat="46.20996" lon="4.54672">
        <ele>689</ele>
        <time>2025-09-07T13:00:14Z</time>
      </trkpt>
      <trkpt lat="46.20994" lon="4.54668">
        <ele>688.6</ele>
        <time>2025-09-07T13:00:15Z</time>
      </trkpt>
      <trkpt lat="46.20992" lon="4.54665">
        <ele>688.2</ele>
        <time>2025-09-07T13:00:16Z</time>
      </trkpt>
      <trkpt lat="46.20991" lon="4.54663">
        <ele>687.6</ele>
        <time>2025-09-07T13:00:17Z</time>
      </trkpt>
      <trkpt lat="46.20989" lon="4.54661">
        <ele>687.6</ele>
        <time>2025-09-07T13:00:18Z</time>
      </trkpt>
      <trkpt lat="46.20988" lon="4.5466">
        <ele>687.2</ele>
        <time>2025-09-07T13:00:19Z</time>
      </trkpt>
      <trkpt lat="46.20986" lon="4.54657">
        <ele>687</ele>
        <time>2025-09-07T13:00:20Z</time>
      </trkpt>
      <trkpt lat="46.20984" lon="4.54654">
        <ele>685.8</ele>
        <time>2025-09-07T13:00:21Z</time>
      </trkpt>
      <trkpt lat="46.20983" lon="4.54651">
        <ele>685.8</ele>
        <time>2025-09-07T13:00:22Z</time>
      </trkpt>
      <trkpt lat="46.20981" lon="4.54648">
        <ele>685.6</ele>
        <time>2025-09-07T13:00:23Z</time>
      </trkpt>
      <trkpt lat="46.2098" lon="4.54645">
        <ele>685</ele>
        <time>2025-09-07T13:00:24Z</time>
      </trkpt>
      <trkpt lat="46.20979" lon="4.54641">
        <ele>684.8</ele>
        <time>2025-09-07T13:00:25Z</time>
      </trkpt>
      <trkpt lat="46.20977" lon="4.54638">
        <ele>684.4</ele>
        <time>2025-09-07T13:00:26Z</time>
      </trkpt>
      <trkpt lat="46.20976" lon="4.54634">
        <ele>685.2</ele>
        <time>2025-09-07T13:00:27Z</time>
      </trkpt>
      <trkpt lat="46.20974" lon="4.5463">
        <ele>684</ele>
        <time>2025-09-07T13:00:28Z</time>
      </trkpt>
      <trkpt lat="46.20973" lon="4.54626">
        <ele>683.4</ele>
        <time>2025-09-07T13:00:29Z</time>
      </trkpt>
      <trkpt lat="46.20972" lon="4.54621">
        <ele>683</ele>
        <time>2025-09-07T13:00:30Z</time>
      </trkpt>
      <trkpt lat="46.20972" lon="4.54614">
        <ele>682.4</ele>
        <time>2025-09-07T13:00:31Z</time>
      </trkpt>
      <trkpt lat="46.2097" lon="4.54608">
        <ele>681.8</ele>
        <time>2025-09-07T13:00:32Z</time>
      </trkpt>
      <trkpt lat="46.20968" lon="4.54602">
        <ele>680.8</ele>
        <time>2025-09-07T13:00:33Z</time>
      </trkpt>
      <trkpt lat="46.20967" lon="4.54595">
        <ele>680.2</ele>
        <time>2025-09-07T13:00:34Z</time>
      </trkpt>
      <trkpt lat="46.20966" lon="4.54589">
        <ele>679.2</ele>
        <time>2025-09-07T13:00:35Z</time>
      </trkpt>
      <trkpt lat="46.20965" lon="4.54582">
        <ele>678.2</ele>
        <time>2025-09-07T13:00:36Z</time>
      </trkpt>
      <trkpt lat="46.20963" lon="4.54575">
        <ele>678</ele>
        <time>2025-09-07T13:00:37Z</time>
      </trkpt>
      <trkpt lat="46.20962" lon="4.54568">
        <ele>677.4</ele>
        <time>2025-09-07T13:00:38Z</time>
      </trkpt>
      <trkpt lat="46.20961" lon="4.54562">
        <ele>677.4</ele>
        <time>2025-09-07T13:00:39Z</time>
      </trkpt>
      <trkpt lat="46.2096" lon="4.54555">
        <ele>677.8</ele>
        <time>2025-09-07T13:00:40Z</time>
      </trkpt>
      <trkpt lat="46.20959" lon="4.54549">
        <ele>676.6</ele>
        <time>2025-09-07T13:00:41Z</time>
      </trkpt>
      <trkpt lat="46.20959" lon="4.54545">
        <ele>676.2</ele>
        <time>2025-09-07T13:00:42Z</time>
      </trkpt>
      <trkpt lat="46.20958" lon="4.5454">
        <ele>676.2</ele>
        <time>2025-09-07T13:00:43Z</time>
      </trkpt>
      <trkpt lat="46.20957" lon="4.54537">
        <ele>675.4</ele>
        <time>2025-09-07T13:00:44Z</time>
      </trkpt>
      <trkpt lat="46.20955" lon="4.54532">
        <ele>675</ele>
        <time>2025-09-07T13:00:45Z</time>
      </trkpt>
      <trkpt lat="46.20954" lon="4.54527">
        <ele>675</ele>
        <time>2025-09-07T13:00:46Z</time>
      </trkpt>
      <trkpt lat="46.20951" lon="4.54522">
        <ele>674.2</ele>
        <time>2025-09-07T13:00:47Z</time>
      </trkpt>
      <trkpt lat="46.20949" lon="4.54517">
        <ele>674</ele>
        <time>2025-09-07T13:00:48Z</time>
      </trkpt>
      <trkpt lat="46.20948" lon="4.54512">
        <ele>673.8</ele>
        <time>2025-09-07T13:00:49Z</time>
      </trkpt>
      <trkpt lat="46.20946" lon="4.54508">
        <ele>673.4</ele>
        <time>2025-09-07T13:00:50Z</time>
      </trkpt>
      <trkpt lat="46.20944" lon="4.54504">
        <ele>673.2</ele>
        <time>2025-09-07T13:00:51Z</time>
      </trkpt>
      <trkpt lat="46.20943" lon="4.54501">
        <ele>673.2</ele>
        <time>2025-09-07T13:00:52Z</time>
      </trkpt>
      <trkpt lat="46.20942" lon="4.54498">
        <ele>672.8</ele>
        <time>2025-09-07T13:00:53Z</time>
      </trkpt>
      <trkpt lat="46.20941" lon="4.54493">
        <ele>672.8</ele>
        <time>2025-09-07T13:00:54Z</time>
      </trkpt>
      <trkpt lat="46.2094" lon="4.54492">
        <ele>672.6</ele>
        <time>2025-09-07T13:00:55Z</time>
      </trkpt>
      <trkpt lat="46.2094" lon="4.54489">
        <ele>672.8</ele>
        <time>2025-09-07T13:00:56Z</time>
      </trkpt>
      <trkpt lat="46.20939" lon="4.54487">
        <ele>672.6</ele>
        <time>2025-09-07T13:00:57Z</time>
      </trkpt>
      <trkpt lat="46.20938" lon="4.54486">
        <ele>672.6</ele>
        <time>2025-09-07T13:00:58Z</time>
      </trkpt>
      <trkpt lat="46.20937" lon="4.54484">
        <ele>672.4</ele>
        <time>2025-09-07T13:00:59Z</time>
      </trkpt>
      <trkpt lat="46.20937" lon="4.54483">
        <ele>672.4</ele>
        <time>2025-09-07T13:01:00Z</time>
      </trkpt>
      <trkpt lat="46.20937" lon="4.54484">
        <ele>672.4</ele>
        <time>2025-09-07T13:01:01Z</time>
      </trkpt>
      <trkpt lat="46.20935" lon="4.54482">
        <ele>671</ele>
        <time>2025-09-07T13:01:42Z</time>
      </trkpt>
      <trkpt lat="46.20935" lon="4.54478">
        <ele>671</ele>
        <time>2025-09-07T13:01:43Z</time>
      </trkpt>
      <trkpt lat="46.20933" lon="4.54474">
        <ele>670.8</ele>
        <time>2025-09-07T13:01:44Z</time>
      </trkpt>
      <trkpt lat="46.20932" lon="4.54469">
        <ele>670.4</ele>
        <time>2025-09-07T13:01:45Z</time>
      </trkpt>
      <trkpt lat="46.20929" lon="4.54464">
        <ele>670</ele>
        <time>2025-09-07T13:01:46Z</time>
      </trkpt>
      <trkpt lat="46.20927" lon="4.54458">
        <ele>669.6</ele>
        <time>2025-09-07T13:01:47Z</time>
      </trkpt>
      <trkpt lat="46.20924" lon="4.54451">
        <ele>669.6</ele>
        <time>2025-09-07T13:01:48Z</time>
      </trkpt>
      <trkpt lat="46.20922" lon="4.54444">
        <ele>669.6</ele>
        <time>2025-09-07T13:01:49Z</time>
      </trkpt>
      <trkpt lat="46.2092" lon="4.54435">
        <ele>668.8</ele>
        <time>2025-09-07T13:01:50Z</time>
      </trkpt>
      <trkpt lat="46.20919" lon="4.54427">
        <ele>668.2</ele>
        <time>2025-09-07T13:01:51Z</time>
      </trkpt>
      <trkpt lat="46.20917" lon="4.54419">
        <ele>667</ele>
        <time>2025-09-07T13:01:52Z</time>
      </trkpt>
      <trkpt lat="46.20915" lon="4.54412">
        <ele>667</ele>
        <time>2025-09-07T13:01:53Z</time>
      </trkpt>
      <trkpt lat="46.20913" lon="4.54404">
        <ele>667</ele>
        <time>2025-09-07T13:01:54Z</time>
      </trkpt>
      <trkpt lat="46.20911" lon="4.54396">
        <ele>667</ele>
        <time>2025-09-07T13:01:55Z</time>
      </trkpt>
      <trkpt lat="46.20909" lon="4.54388">
        <ele>667</ele>
        <time>2025-09-07T13:01:56Z</time>
      </trkpt>
      <trkpt lat="46.20908" lon="4.54379">
        <ele>666</ele>
        <time>2025-09-07T13:01:57Z</time>
      </trkpt>
      <trkpt lat="46.20907" lon="4.54371">
        <ele>666</ele>
        <time>2025-09-07T13:01:58Z</time>
      </trkpt>
      <trkpt lat="46.20906" lon="4.54364">
        <ele>665.6</ele>
        <time>2025-09-07T13:01:59Z</time>
      </trkpt>
      <trkpt lat="46.20903" lon="4.54357">
        <ele>665.6</ele>
        <time>2025-09-07T13:02:00Z</time>
      </trkpt>
      <trkpt lat="46.20902" lon="4.54349">
        <ele>664.6</ele>
        <time>2025-09-07T13:02:01Z</time>
      </trkpt>
      <trkpt lat="46.20901" lon="4.54343">
        <ele>664.2</ele>
        <time>2025-09-07T13:02:02Z</time>
      </trkpt>
      <trkpt lat="46.20899" lon="4.54337">
        <ele>663.4</ele>
        <time>2025-09-07T13:02:03Z</time>
      </trkpt>
      <trkpt lat="46.20896" lon="4.54332">
        <ele>663.4</ele>
        <time>2025-09-07T13:02:04Z</time>
      </trkpt>
      <trkpt lat="46.20895" lon="4.54326">
        <ele>662.2</ele>
        <time>2025-09-07T13:02:05Z</time>
      </trkpt>
      <trkpt lat="46.20893" lon="4.5432">
        <ele>662.2</ele>
        <time>2025-09-07T13:02:06Z</time>
      </trkpt>
      <trkpt lat="46.2089" lon="4.54315">
        <ele>663.2</ele>
        <time>2025-09-07T13:02:07Z</time>
      </trkpt>
      <trkpt lat="46.20887" lon="4.5431">
        <ele>663.4</ele>
        <time>2025-09-07T13:02:08Z</time>
      </trkpt>
      <trkpt lat="46.20884" lon="4.54305">
        <ele>663</ele>
        <time>2025-09-07T13:02:09Z</time>
      </trkpt>
      <trkpt lat="46.20882" lon="4.54301">
        <ele>663</ele>
        <time>2025-09-07T13:02:10Z</time>
      </trkpt>
      <trkpt lat="46.20882" lon="4.54297">
        <ele>662.8</ele>
        <time>2025-09-07T13:02:11Z</time>
      </trkpt>
      <trkpt lat="46.2088" lon="4.54293">
        <ele>662.2</ele>
        <time>2025-09-07T13:02:12Z</time>
      </trkpt>
      <trkpt lat="46.2088" lon="4.54293">
        <ele>661.8</ele>
        <time>2025-09-07T13:02:13Z</time>
      </trkpt>
      <trkpt lat="46.20878" lon="4.54289">
        <ele>661.4</ele>
        <time>2025-09-07T13:02:14Z</time>
      </trkpt>
      <trkpt lat="46.20875" lon="4.54285">
        <ele>661.4</ele>
        <time>2025-09-07T13:02:15Z</time>
      </trkpt>
      <trkpt lat="46.20873" lon="4.54282">
        <ele>661.4</ele>
        <time>2025-09-07T13:02:16Z</time>
      </trkpt>
      <trkpt lat="46.20871" lon="4.54279">
        <ele>660.8</ele>
        <time>2025-09-07T13:02:17Z</time>
      </trkpt>
      <trkpt lat="46.2087" lon="4.54275">
        <ele>660.6</ele>
        <time>2025-09-07T13:02:18Z</time>
      </trkpt>
      <trkpt lat="46.20868" lon="4.5427">
        <ele>660</ele>
        <time>2025-09-07T13:02:19Z</time>
      </trkpt>
      <trkpt lat="46.20866" lon="4.54265">
        <ele>660</ele>
        <time>2025-09-07T13:02:20Z</time>
      </trkpt>
      <trkpt lat="46.20866" lon="4.54259">
        <ele>659.8</ele>
        <time>2025-09-07T13:02:21Z</time>
      </trkpt>
      <trkpt lat="46.20865" lon="4.54254">
        <ele>659.8</ele>
        <time>2025-09-07T13:02:22Z</time>
      </trkpt>
      <trkpt lat="46.20865" lon="4.5425">
        <ele>659.4</ele>
        <time>2025-09-07T13:02:23Z</time>
      </trkpt>
      <trkpt lat="46.20865" lon="4.54247">
        <ele>659.4</ele>
        <time>2025-09-07T13:02:24Z</time>
      </trkpt>
      <trkpt lat="46.20866" lon="4.54244">
        <ele>659</ele>
        <time>2025-09-07T13:02:25Z</time>
      </trkpt>
      <trkpt lat="46.20866" lon="4.54239">
        <ele>659.4</ele>
        <time>2025-09-07T13:02:26Z</time>
      </trkpt>
      <trkpt lat="46.20867" lon="4.54233">
        <ele>659</ele>
        <time>2025-09-07T13:02:27Z</time>
      </trkpt>
      <trkpt lat="46.20867" lon="4.54228">
        <ele>658.6</ele>
        <time>2025-09-07T13:02:28Z</time>
      </trkpt>
      <trkpt lat="46.20867" lon="4.54222">
        <ele>658</ele>
        <time>2025-09-07T13:02:29Z</time>
      </trkpt>
      <trkpt lat="46.20866" lon="4.54214">
        <ele>657.6</ele>
        <time>2025-09-07T13:02:30Z</time>
      </trkpt>
      <trkpt lat="46.20866" lon="4.54208">
        <ele>656.8</ele>
        <time>2025-09-07T13:02:31Z</time>
      </trkpt>
      <trkpt lat="46.20865" lon="4.54201">
        <ele>656.2</ele>
        <time>2025-09-07T13:02:32Z</time>
      </trkpt>
      <trkpt lat="46.20864" lon="4.54195">
        <ele>655.6</ele>
        <time>2025-09-07T13:02:33Z</time>
      </trkpt>
      <trkpt lat="46.20862" lon="4.54189">
        <ele>655.6</ele>
        <time>2025-09-07T13:02:34Z</time>
      </trkpt>
      <trkpt lat="46.20861" lon="4.54183">
        <ele>654.8</ele>
        <time>2025-09-07T13:02:35Z</time>
      </trkpt>
      <trkpt lat="46.20859" lon="4.54177">
        <ele>654.4</ele>
        <time>2025-09-07T13:02:36Z</time>
      </trkpt>
      <trkpt lat="46.20856" lon="4.54171">
        <ele>653.6</ele>
        <time>2025-09-07T13:02:37Z</time>
      </trkpt>
      <trkpt lat="46.20853" lon="4.54166">
        <ele>652.4</ele>
        <time>2025-09-07T13:02:38Z</time>
      </trkpt>
      <trkpt lat="46.2085" lon="4.54158">
        <ele>651.8</ele>
        <time>2025-09-07T13:02:39Z</time>
      </trkpt>
      <trkpt lat="46.20849" lon="4.54151">
        <ele>651</ele>
        <time>2025-09-07T13:02:40Z</time>
      </trkpt>
      <trkpt lat="46.20849" lon="4.54143">
        <ele>650</ele>
        <time>2025-09-07T13:02:41Z</time>
      </trkpt>
      <trkpt lat="46.20847" lon="4.54136">
        <ele>649.2</ele>
        <time>2025-09-07T13:02:42Z</time>
      </trkpt>
      <trkpt lat="46.20844" lon="4.5413">
        <ele>648.4</ele>
        <time>2025-09-07T13:02:43Z</time>
      </trkpt>
      <trkpt lat="46.20842" lon="4.54122">
        <ele>647.4</ele>
        <time>2025-09-07T13:02:44Z</time>
      </trkpt>
      <trkpt lat="46.2084" lon="4.54119">
        <ele>646.4</ele>
        <time>2025-09-07T13:02:45Z</time>
      </trkpt>
      <trkpt lat="46.20836" lon="4.54115">
        <ele>645.4</ele>
        <time>2025-09-07T13:02:46Z</time>
      </trkpt>
      <trkpt lat="46.20831" lon="4.54112">
        <ele>644.8</ele>
        <time>2025-09-07T13:02:47Z</time>
      </trkpt>
      <trkpt lat="46.20828" lon="4.54109">
        <ele>644.2</ele>
        <time>2025-09-07T13:02:48Z</time>
      </trkpt>
      <trkpt lat="46.20824" lon="4.54106">
        <ele>643.4</ele>
        <time>2025-09-07T13:02:49Z</time>
      </trkpt>
      <trkpt lat="46.20819" lon="4.54104">
        <ele>643</ele>
        <time>2025-09-07T13:02:50Z</time>
      </trkpt>
      <trkpt lat="46.20816" lon="4.54103">
        <ele>642.4</ele>
        <time>2025-09-07T13:02:51Z</time>
      </trkpt>
      <trkpt lat="46.20813" lon="4.54103">
        <ele>642.4</ele>
        <time>2025-09-07T13:02:52Z</time>
      </trkpt>
      <trkpt lat="46.2081" lon="4.54103">
        <ele>642.2</ele>
        <time>2025-09-07T13:02:53Z</time>
      </trkpt>
      <trkpt lat="46.20807" lon="4.54102">
        <ele>641.6</ele>
        <time>2025-09-07T13:02:54Z</time>
      </trkpt>
      <trkpt lat="46.20803" lon="4.54101">
        <ele>641.6</ele>
        <time>2025-09-07T13:02:55Z</time>
      </trkpt>
      <trkpt lat="46.208" lon="4.541">
        <ele>641</ele>
        <time>2025-09-07T13:02:56Z</time>
      </trkpt>
      <trkpt lat="46.20797" lon="4.54099">
        <ele>640.2</ele>
        <time>2025-09-07T13:02:57Z</time>
      </trkpt>
      <trkpt lat="46.20793" lon="4.54097">
        <ele>640</ele>
        <time>2025-09-07T13:02:58Z</time>
      </trkpt>
      <trkpt lat="46.2079" lon="4.54093">
        <ele>639.8</ele>
        <time>2025-09-07T13:02:59Z</time>
      </trkpt>
      <trkpt lat="46.20787" lon="4.54087">
        <ele>639</ele>
        <time>2025-09-07T13:03:00Z</time>
      </trkpt>
      <trkpt lat="46.20784" lon="4.54083">
        <ele>639</ele>
        <time>2025-09-07T13:03:01Z</time>
      </trkpt>
      <trkpt lat="46.20781" lon="4.54078">
        <ele>638.6</ele>
        <time>2025-09-07T13:03:02Z</time>
      </trkpt>
      <trkpt lat="46.20778" lon="4.54075">
        <ele>638.2</ele>
        <time>2025-09-07T13:03:03Z</time>
      </trkpt>
      <trkpt lat="46.20776" lon="4.54072">
        <ele>637.8</ele>
        <time>2025-09-07T13:03:04Z</time>
      </trkpt>
      <trkpt lat="46.20774" lon="4.54069">
        <ele>637.6</ele>
        <time>2025-09-07T13:03:05Z</time>
      </trkpt>
      <trkpt lat="46.20773" lon="4.54065">
        <ele>637.2</ele>
        <time>2025-09-07T13:03:06Z</time>
      </trkpt>
      <trkpt lat="46.20771" lon="4.54061">
        <ele>637.2</ele>
        <time>2025-09-07T13:03:07Z</time>
      </trkpt>
      <trkpt lat="46.2077" lon="4.54057">
        <ele>636.8</ele>
        <time>2025-09-07T13:03:08Z</time>
      </trkpt>
      <trkpt lat="46.20769" lon="4.54053">
        <ele>636.8</ele>
        <time>2025-09-07T13:03:09Z</time>
      </trkpt>
      <trkpt lat="46.20768" lon="4.54049">
        <ele>636.2</ele>
        <time>2025-09-07T13:03:10Z</time>
      </trkpt>
      <trkpt lat="46.20767" lon="4.54045">
        <ele>636</ele>
        <time>2025-09-07T13:03:11Z</time>
      </trkpt>
      <trkpt lat="46.20767" lon="4.54043">
        <ele>636</ele>
        <time>2025-09-07T13:03:12Z</time>
      </trkpt>
      <trkpt lat="46.20766" lon="4.5404">
        <ele>635.6</ele>
        <time>2025-09-07T13:03:13Z</time>
      </trkpt>
      <trkpt lat="46.20766" lon="4.54037">
        <ele>635.6</ele>
        <time>2025-09-07T13:03:14Z</time>
      </trkpt>
      <trkpt lat="46.20765" lon="4.54033">
        <ele>635.6</ele>
        <time>2025-09-07T13:03:15Z</time>
      </trkpt>
      <trkpt lat="46.20764" lon="4.54029">
        <ele>635.6</ele>
        <time>2025-09-07T13:03:16Z</time>
      </trkpt>
      <trkpt lat="46.20762" lon="4.54025">
        <ele>635.6</ele>
        <time>2025-09-07T13:03:17Z</time>
      </trkpt>
      <trkpt lat="46.2076" lon="4.54022">
        <ele>635.2</ele>
        <time>2025-09-07T13:03:18Z</time>
      </trkpt>
      <trkpt lat="46.20758" lon="4.54018">
        <ele>635</ele>
        <time>2025-09-07T13:03:19Z</time>
      </trkpt>
      <trkpt lat="46.20756" lon="4.54013">
        <ele>635</ele>
        <time>2025-09-07T13:03:20Z</time>
      </trkpt>
      <trkpt lat="46.20754" lon="4.54008">
        <ele>635</ele>
        <time>2025-09-07T13:03:21Z</time>
      </trkpt>
      <trkpt lat="46.20755" lon="4.54001">
        <ele>634.6</ele>
        <time>2025-09-07T13:03:22Z</time>
      </trkpt>
      <trkpt lat="46.20756" lon="4.53994">
        <ele>634.2</ele>
        <time>2025-09-07T13:03:23Z</time>
      </trkpt>
      <trkpt lat="46.20756" lon="4.53988">
        <ele>634.2</ele>
        <time>2025-09-07T13:03:24Z</time>
      </trkpt>
      <trkpt lat="46.20754" lon="4.53981">
        <ele>634</ele>
        <time>2025-09-07T13:03:25Z</time>
      </trkpt>
      <trkpt lat="46.20752" lon="4.53975">
        <ele>633.6</ele>
        <time>2025-09-07T13:03:26Z</time>
      </trkpt>
      <trkpt lat="46.2075" lon="4.5397">
        <ele>633.4</ele>
        <time>2025-09-07T13:03:27Z</time>
      </trkpt>
      <trkpt lat="46.20747" lon="4.53963">
        <ele>633</ele>
        <time>2025-09-07T13:03:28Z</time>
      </trkpt>
      <trkpt lat="46.20744" lon="4.53957">
        <ele>632.6</ele>
        <time>2025-09-07T13:03:29Z</time>
      </trkpt>
      <trkpt lat="46.2074" lon="4.53952">
        <ele>632.6</ele>
        <time>2025-09-07T13:03:30Z</time>
      </trkpt>
      <trkpt lat="46.20737" lon="4.53946">
        <ele>632.2</ele>
        <time>2025-09-07T13:03:31Z</time>
      </trkpt>
      <trkpt lat="46.20734" lon="4.53939">
        <ele>632.2</ele>
        <time>2025-09-07T13:03:32Z</time>
      </trkpt>
      <trkpt lat="46.20731" lon="4.53933">
        <ele>632</ele>
        <time>2025-09-07T13:03:33Z</time>
      </trkpt>
      <trkpt lat="46.20727" lon="4.53927">
        <ele>632</ele>
        <time>2025-09-07T13:03:34Z</time>
      </trkpt>
      <trkpt lat="46.20724" lon="4.5392">
        <ele>632</ele>
        <time>2025-09-07T13:03:35Z</time>
      </trkpt>
      <trkpt lat="46.20722" lon="4.53913">
        <ele>632</ele>
        <time>2025-09-07T13:03:36Z</time>
      </trkpt>
      <trkpt lat="46.20719" lon="4.53906">
        <ele>632</ele>
        <time>2025-09-07T13:03:37Z</time>
      </trkpt>
      <trkpt lat="46.20716" lon="4.53899">
        <ele>632</ele>
        <time>2025-09-07T13:03:38Z</time>
      </trkpt>
      <trkpt lat="46.20715" lon="4.53891">
        <ele>632</ele>
        <time>2025-09-07T13:03:39Z</time>
      </trkpt>
      <trkpt lat="46.20713" lon="4.53884">
        <ele>631.6</ele>
        <time>2025-09-07T13:03:40Z</time>
      </trkpt>
      <trkpt lat="46.20711" lon="4.53875">
        <ele>631.6</ele>
        <time>2025-09-07T13:03:41Z</time>
      </trkpt>
      <trkpt lat="46.20709" lon="4.53866">
        <ele>631.6</ele>
        <time>2025-09-07T13:03:42Z</time>
      </trkpt>
      <trkpt lat="46.20709" lon="4.53856">
        <ele>631.6</ele>
        <time>2025-09-07T13:03:43Z</time>
      </trkpt>
      <trkpt lat="46.20708" lon="4.53847">
        <ele>631.6</ele>
        <time>2025-09-07T13:03:44Z</time>
      </trkpt>
      <trkpt lat="46.20708" lon="4.53837">
        <ele>631.6</ele>
        <time>2025-09-07T13:03:45Z</time>
      </trkpt>
      <trkpt lat="46.20708" lon="4.53827">
        <ele>631.4</ele>
        <time>2025-09-07T13:03:46Z</time>
      </trkpt>
      <trkpt lat="46.2071" lon="4.53818">
        <ele>631.4</ele>
        <time>2025-09-07T13:03:47Z</time>
      </trkpt>
      <trkpt lat="46.20711" lon="4.53809">
        <ele>631.4</ele>
        <time>2025-09-07T13:03:48Z</time>
      </trkpt>
      <trkpt lat="46.20713" lon="4.53799">
        <ele>631.4</ele>
        <time>2025-09-07T13:03:49Z</time>
      </trkpt>
      <trkpt lat="46.20715" lon="4.53789">
        <ele>631.2</ele>
        <time>2025-09-07T13:03:50Z</time>
      </trkpt>
      <trkpt lat="46.20716" lon="4.5378">
        <ele>631.2</ele>
        <time>2025-09-07T13:03:51Z</time>
      </trkpt>
      <trkpt lat="46.20716" lon="4.53771">
        <ele>631.2</ele>
        <time>2025-09-07T13:03:52Z</time>
      </trkpt>
      <trkpt lat="46.20714" lon="4.53762">
        <ele>631.2</ele>
        <time>2025-09-07T13:03:53Z</time>
      </trkpt>
      <trkpt lat="46.20711" lon="4.53754">
        <ele>630.8</ele>
        <time>2025-09-07T13:03:54Z</time>
      </trkpt>
      <trkpt lat="46.20707" lon="4.53746">
        <ele>630.8</ele>
        <time>2025-09-07T13:03:55Z</time>
      </trkpt>
      <trkpt lat="46.20702" lon="4.5374">
        <ele>630.4</ele>
        <time>2025-09-07T13:03:56Z</time>
      </trkpt>
      <trkpt lat="46.20698" lon="4.53734">
        <ele>630.4</ele>
        <time>2025-09-07T13:03:57Z</time>
      </trkpt>
      <trkpt lat="46.20693" lon="4.53728">
        <ele>630.4</ele>
        <time>2025-09-07T13:03:58Z</time>
      </trkpt>
      <trkpt lat="46.2069" lon="4.5372">
        <ele>630.4</ele>
        <time>2025-09-07T13:03:59Z</time>
      </trkpt>
      <trkpt lat="46.20688" lon="4.53713">
        <ele>630.4</ele>
        <time>2025-09-07T13:04:00Z</time>
      </trkpt>
      <trkpt lat="46.20688" lon="4.53705">
        <ele>630.4</ele>
        <time>2025-09-07T13:04:01Z</time>
      </trkpt>
      <trkpt lat="46.20687" lon="4.53697">
        <ele>630.8</ele>
        <time>2025-09-07T13:04:02Z</time>
      </trkpt>
      <trkpt lat="46.20689" lon="4.53689">
        <ele>630.8</ele>
        <time>2025-09-07T13:04:03Z</time>
      </trkpt>
      <trkpt lat="46.2069" lon="4.53682">
        <ele>630.8</ele>
        <time>2025-09-07T13:04:04Z</time>
      </trkpt>
      <trkpt lat="46.20694" lon="4.53675">
        <ele>631</ele>
        <time>2025-09-07T13:04:05Z</time>
      </trkpt>
      <trkpt lat="46.20697" lon="4.53666">
        <ele>631</ele>
        <time>2025-09-07T13:04:06Z</time>
      </trkpt>
      <trkpt lat="46.207" lon="4.5366">
        <ele>631</ele>
        <time>2025-09-07T13:04:07Z</time>
      </trkpt>
      <trkpt lat="46.20703" lon="4.53654">
        <ele>631.2</ele>
        <time>2025-09-07T13:04:08Z</time>
      </trkpt>
      <trkpt lat="46.20706" lon="4.53648">
        <ele>631.2</ele>
        <time>2025-09-07T13:04:09Z</time>
      </trkpt>
      <trkpt lat="46.20709" lon="4.53641">
        <ele>631.2</ele>
        <time>2025-09-07T13:04:10Z</time>
      </trkpt>
      <trkpt lat="46.20711" lon="4.53636">
        <ele>631.2</ele>
        <time>2025-09-07T13:04:11Z</time>
      </trkpt>
      <trkpt lat="46.20714" lon="4.5363">
        <ele>631.2</ele>
        <time>2025-09-07T13:04:12Z</time>
      </trkpt>
      <trkpt lat="46.20717" lon="4.53624">
        <ele>631.2</ele>
        <time>2025-09-07T13:04:13Z</time>
      </trkpt>
      <trkpt lat="46.2072" lon="4.53618">
        <ele>631.2</ele>
        <time>2025-09-07T13:04:14Z</time>
      </trkpt>
      <trkpt lat="46.20722" lon="4.53613">
        <ele>631.4</ele>
        <time>2025-09-07T13:04:15Z</time>
      </trkpt>
      <trkpt lat="46.20723" lon="4.53605">
        <ele>631.4</ele>
        <time>2025-09-07T13:04:16Z</time>
      </trkpt>
      <trkpt lat="46.20726" lon="4.53598">
        <ele>631.4</ele>
        <time>2025-09-07T13:04:17Z</time>
      </trkpt>
      <trkpt lat="46.20729" lon="4.53593">
        <ele>631.2</ele>
        <time>2025-09-07T13:04:18Z</time>
      </trkpt>
      <trkpt lat="46.20732" lon="4.53588">
        <ele>631.2</ele>
        <time>2025-09-07T13:04:19Z</time>
      </trkpt>
      <trkpt lat="46.20734" lon="4.53582">
        <ele>630.8</ele>
        <time>2025-09-07T13:04:20Z</time>
      </trkpt>
      <trkpt lat="46.20734" lon="4.53576">
        <ele>630.6</ele>
        <time>2025-09-07T13:04:21Z</time>
      </trkpt>
      <trkpt lat="46.20733" lon="4.53569">
        <ele>630.4</ele>
        <time>2025-09-07T13:04:22Z</time>
      </trkpt>
      <trkpt lat="46.2073" lon="4.53565">
        <ele>630.4</ele>
        <time>2025-09-07T13:04:23Z</time>
      </trkpt>
      <trkpt lat="46.20727" lon="4.53563">
        <ele>630.4</ele>
        <time>2025-09-07T13:04:24Z</time>
      </trkpt>
      <trkpt lat="46.20724" lon="4.53561">
        <ele>630.4</ele>
        <time>2025-09-07T13:04:25Z</time>
      </trkpt>
      <trkpt lat="46.20721" lon="4.5356">
        <ele>630.4</ele>
        <time>2025-09-07T13:04:26Z</time>
      </trkpt>
      <trkpt lat="46.20719" lon="4.53558">
        <ele>630.4</ele>
        <time>2025-09-07T13:04:27Z</time>
      </trkpt>
      <trkpt lat="46.20717" lon="4.53558">
        <ele>630.6</ele>
        <time>2025-09-07T13:04:28Z</time>
      </trkpt>
      <trkpt lat="46.20715" lon="4.53558">
        <ele>630.6</ele>
        <time>2025-09-07T13:04:29Z</time>
      </trkpt>
      <trkpt lat="46.20713" lon="4.53558">
        <ele>631</ele>
        <time>2025-09-07T13:04:30Z</time>
      </trkpt>
      <trkpt lat="46.20711" lon="4.53559">
        <ele>631</ele>
        <time>2025-09-07T13:04:31Z</time>
      </trkpt>
      <trkpt lat="46.2071" lon="4.53559">
        <ele>631</ele>
        <time>2025-09-07T13:04:32Z</time>
      </trkpt>
      <trkpt lat="46.20708" lon="4.53559">
        <ele>631</ele>
        <time>2025-09-07T13:04:33Z</time>
      </trkpt>
      <trkpt lat="46.20707" lon="4.53558">
        <ele>631</ele>
        <time>2025-09-07T13:04:34Z</time>
      </trkpt>
      <trkpt lat="46.20706" lon="4.53557">
        <ele>631</ele>
        <time>2025-09-07T13:04:35Z</time>
      </trkpt>
      <trkpt lat="46.20705" lon="4.53555">
        <ele>631.2</ele>
        <time>2025-09-07T13:04:36Z</time>
      </trkpt>
      <trkpt lat="46.20705" lon="4.53554">
        <ele>631.2</ele>
        <time>2025-09-07T13:04:37Z</time>
      </trkpt>
      <trkpt lat="46.20706" lon="4.53554">
        <ele>631.2</ele>
        <time>2025-09-07T13:04:38Z</time>
      </trkpt>
      <trkpt lat="46.20707" lon="4.53554">
        <ele>631.2</ele>
        <time>2025-09-07T13:04:46Z</time>
      </trkpt>
      <trkpt lat="46.20707" lon="4.53555">
        <ele>631.4</ele>
        <time>2025-09-07T13:04:47Z</time>
      </trkpt>
      <trkpt lat="46.20707" lon="4.53556">
        <ele>631.4</ele>
        <time>2025-09-07T13:04:48Z</time>
      </trkpt>
      <trkpt lat="46.20708" lon="4.53557">
        <ele>631.4</ele>
        <time>2025-09-07T13:04:49Z</time>
      </trkpt>
      <trkpt lat="46.20708" lon="4.53557">
        <ele>631.6</ele>
        <time>2025-09-07T13:04:50Z</time>
      </trkpt>
      <trkpt lat="46.2071" lon="4.53557">
        <ele>631.2</ele>
        <time>2025-09-07T13:04:51Z</time>
      </trkpt>
      <trkpt lat="46.20711" lon="4.53558">
        <ele>631.2</ele>
        <time>2025-09-07T13:04:52Z</time>
      </trkpt>
      <trkpt lat="46.20712" lon="4.53558">
        <ele>631.2</ele>
        <time>2025-09-07T13:04:53Z</time>
      </trkpt>
      <trkpt lat="46.20713" lon="4.53557">
        <ele>631.2</ele>
        <time>2025-09-07T13:04:54Z</time>
      </trkpt>
      <trkpt lat="46.20714" lon="4.53556">
        <ele>631.2</ele>
        <time>2025-09-07T13:04:55Z</time>
      </trkpt>
      <trkpt lat="46.20715" lon="4.53555">
        <ele>631.2</ele>
        <time>2025-09-07T13:04:56Z</time>
      </trkpt>
      <trkpt lat="46.20715" lon="4.53553">
        <ele>631.2</ele>
        <time>2025-09-07T13:04:57Z</time>
      </trkpt>
      <trkpt lat="46.20715" lon="4.53552">
        <ele>631.2</ele>
        <time>2025-09-07T13:04:58Z</time>
      </trkpt>
      <trkpt lat="46.20714" lon="4.53551">
        <ele>631.2</ele>
        <time>2025-09-07T13:04:59Z</time>
      </trkpt>
      <trkpt lat="46.20714" lon="4.53551">
        <ele>631.4</ele>
        <time>2025-09-07T13:05:00Z</time>
      </trkpt>
      <trkpt lat="46.20714" lon="4.53551">
        <ele>631.4</ele>
        <time>2025-09-07T13:05:01Z</time>
      </trkpt>
      <trkpt lat="46.20712" lon="4.53557">
        <ele>633.6</ele>
        <time>2025-09-07T13:41:59Z</time>
      </trkpt>
      <trkpt lat="46.20712" lon="4.53558">
        <ele>633.4</ele>
        <time>2025-09-07T13:42:00Z</time>
      </trkpt>
      <trkpt lat="46.20712" lon="4.53559">
        <ele>633</ele>
        <time>2025-09-07T13:42:01Z</time>
      </trkpt>
      <trkpt lat="46.20712" lon="4.53558">
        <ele>632.8</ele>
        <time>2025-09-07T13:42:02Z</time>
      </trkpt>
      <trkpt lat="46.20712" lon="4.53558">
        <ele>632.6</ele>
        <time>2025-09-07T13:42:03Z</time>
      </trkpt>
      <trkpt lat="46.20714" lon="4.53555">
        <ele>632.8</ele>
        <time>2025-09-07T13:42:29Z</time>
      </trkpt>
      <trkpt lat="46.20715" lon="4.53556">
        <ele>632.8</ele>
        <time>2025-09-07T13:42:30Z</time>
      </trkpt>
      <trkpt lat="46.20715" lon="4.53556">
        <ele>632.8</ele>
        <time>2025-09-07T13:42:31Z</time>
      </trkpt>
      <trkpt lat="46.20715" lon="4.53556">
        <ele>632.4</ele>
        <time>2025-09-07T13:42:32Z</time>
      </trkpt>
      <trkpt lat="46.20714" lon="4.53556">
        <ele>632.4</ele>
        <time>2025-09-07T13:42:36Z</time>
      </trkpt>
      <trkpt lat="46.20714" lon="4.53556">
        <ele>632.4</ele>
        <time>2025-09-07T13:42:37Z</time>
      </trkpt>
      <trkpt lat="46.20713" lon="4.53555">
        <ele>632.4</ele>
        <time>2025-09-07T13:42:38Z</time>
      </trkpt>
      <trkpt lat="46.20712" lon="4.53554">
        <ele>632.4</ele>
        <time>2025-09-07T13:42:39Z</time>
      </trkpt>
      <trkpt lat="46.20712" lon="4.53553">
        <ele>632.4</ele>
        <time>2025-09-07T13:42:40Z</time>
      </trkpt>
      <trkpt lat="46.20712" lon="4.53552">
        <ele>632.4</ele>
        <time>2025-09-07T13:42:41Z</time>
      </trkpt>
      <trkpt lat="46.20711" lon="4.53553">
        <ele>633.6</ele>
        <time>2025-09-07T13:44:22Z</time>
      </trkpt>
      <trkpt lat="46.2071" lon="4.53555">
        <ele>633.6</ele>
        <time>2025-09-07T13:44:23Z</time>
      </trkpt>
      <trkpt lat="46.20709" lon="4.53556">
        <ele>633.4</ele>
        <time>2025-09-07T13:44:24Z</time>
      </trkpt>
      <trkpt lat="46.20708" lon="4.53557">
        <ele>633.2</ele>
        <time>2025-09-07T13:44:25Z</time>
      </trkpt>
      <trkpt lat="46.20707" lon="4.53558">
        <ele>633.2</ele>
        <time>2025-09-07T13:44:26Z</time>
      </trkpt>
      <trkpt lat="46.20706" lon="4.53559">
        <ele>633.2</ele>
        <time>2025-09-07T13:44:27Z</time>
      </trkpt>
      <trkpt lat="46.20704" lon="4.53559">
        <ele>633.2</ele>
        <time>2025-09-07T13:44:28Z</time>
      </trkpt>
      <trkpt lat="46.20703" lon="4.5356">
        <ele>633.2</ele>
        <time>2025-09-07T13:44:29Z</time>
      </trkpt>
      <trkpt lat="46.20702" lon="4.53561">
        <ele>633.2</ele>
        <time>2025-09-07T13:44:30Z</time>
      </trkpt>
      <trkpt lat="46.207" lon="4.53561">
        <ele>633.2</ele>
        <time>2025-09-07T13:44:31Z</time>
      </trkpt>
      <trkpt lat="46.20699" lon="4.53562">
        <ele>633.2</ele>
        <time>2025-09-07T13:44:32Z</time>
      </trkpt>
      <trkpt lat="46.20696" lon="4.53563">
        <ele>633.2</ele>
        <time>2025-09-07T13:44:33Z</time>
      </trkpt>
      <trkpt lat="46.20695" lon="4.53563">
        <ele>633.2</ele>
        <time>2025-09-07T13:44:34Z</time>
      </trkpt>
      <trkpt lat="46.20694" lon="4.53564">
        <ele>633.2</ele>
        <time>2025-09-07T13:44:35Z</time>
      </trkpt>
      <trkpt lat="46.20694" lon="4.53563">
        <ele>633.2</ele>
        <time>2025-09-07T13:44:36Z</time>
      </trkpt>
      <trkpt lat="46.20693" lon="4.53565">
        <ele>633.2</ele>
        <time>2025-09-07T13:44:37Z</time>
      </trkpt>
      <trkpt lat="46.20693" lon="4.53566">
        <ele>633.2</ele>
        <time>2025-09-07T13:44:38Z</time>
      </trkpt>
      <trkpt lat="46.20693" lon="4.53566">
        <ele>633.2</ele>
        <time>2025-09-07T13:44:39Z</time>
      </trkpt>
      <trkpt lat="46.20693" lon="4.53566">
        <ele>633.2</ele>
        <time>2025-09-07T13:44:40Z</time>
      </trkpt>
      <trkpt lat="46.20694" lon="4.53566">
        <ele>633.4</ele>
        <time>2025-09-07T13:44:41Z</time>
      </trkpt>
      <trkpt lat="46.20697" lon="4.53565">
        <ele>633.8</ele>
        <time>2025-09-07T13:46:04Z</time>
      </trkpt>
      <trkpt lat="46.20698" lon="4.53565">
        <ele>633.8</ele>
        <time>2025-09-07T13:46:05Z</time>
      </trkpt>
      <trkpt lat="46.20699" lon="4.53565">
        <ele>633.8</ele>
        <time>2025-09-07T13:46:06Z</time>
      </trkpt>
      <trkpt lat="46.207" lon="4.53565">
        <ele>633.4</ele>
        <time>2025-09-07T13:46:07Z</time>
      </trkpt>
      <trkpt lat="46.20701" lon="4.53564">
        <ele>633.4</ele>
        <time>2025-09-07T13:46:08Z</time>
      </trkpt>
      <trkpt lat="46.20702" lon="4.53564">
        <ele>633.4</ele>
        <time>2025-09-07T13:46:09Z</time>
      </trkpt>
      <trkpt lat="46.20703" lon="4.53564">
        <ele>633.2</ele>
        <time>2025-09-07T13:46:10Z</time>
      </trkpt>
      <trkpt lat="46.20703" lon="4.53564">
        <ele>633.2</ele>
        <time>2025-09-07T13:46:11Z</time>
      </trkpt>
      <trkpt lat="46.20704" lon="4.53564">
        <ele>633.2</ele>
        <time>2025-09-07T13:46:15Z</time>
      </trkpt>
      <trkpt lat="46.20706" lon="4.53565">
        <ele>633.2</ele>
        <time>2025-09-07T13:46:16Z</time>
      </trkpt>
      <trkpt lat="46.20707" lon="4.53566">
        <ele>633.2</ele>
        <time>2025-09-07T13:46:17Z</time>
      </trkpt>
      <trkpt lat="46.20708" lon="4.53567">
        <ele>633.2</ele>
        <time>2025-09-07T13:46:18Z</time>
      </trkpt>
      <trkpt lat="46.20709" lon="4.53568">
        <ele>633.2</ele>
        <time>2025-09-07T13:46:19Z</time>
      </trkpt>
      <trkpt lat="46.20711" lon="4.53569">
        <ele>633</ele>
        <time>2025-09-07T13:46:20Z</time>
      </trkpt>
      <trkpt lat="46.20713" lon="4.5357">
        <ele>633</ele>
        <time>2025-09-07T13:46:21Z</time>
      </trkpt>
      <trkpt lat="46.20715" lon="4.53571">
        <ele>632.8</ele>
        <time>2025-09-07T13:46:22Z</time>
      </trkpt>
      <trkpt lat="46.20716" lon="4.53573">
        <ele>632.8</ele>
        <time>2025-09-07T13:46:23Z</time>
      </trkpt>
      <trkpt lat="46.20716" lon="4.53576">
        <ele>632.8</ele>
        <time>2025-09-07T13:46:24Z</time>
      </trkpt>
      <trkpt lat="46.20716" lon="4.53579">
        <ele>632.4</ele>
        <time>2025-09-07T13:46:25Z</time>
      </trkpt>
      <trkpt lat="46.20716" lon="4.53582">
        <ele>632.4</ele>
        <time>2025-09-07T13:46:26Z</time>
      </trkpt>
      <trkpt lat="46.20715" lon="4.53584">
        <ele>632.4</ele>
        <time>2025-09-07T13:46:27Z</time>
      </trkpt>
      <trkpt lat="46.20714" lon="4.53586">
        <ele>632.4</ele>
        <time>2025-09-07T13:46:28Z</time>
      </trkpt>
      <trkpt lat="46.20713" lon="4.53588">
        <ele>632.8</ele>
        <time>2025-09-07T13:46:29Z</time>
      </trkpt>
      <trkpt lat="46.20711" lon="4.53589">
        <ele>632.8</ele>
        <time>2025-09-07T13:46:30Z</time>
      </trkpt>
      <trkpt lat="46.20709" lon="4.53589">
        <ele>632.8</ele>
        <time>2025-09-07T13:46:31Z</time>
      </trkpt>
      <trkpt lat="46.20708" lon="4.5359">
        <ele>633.2</ele>
        <time>2025-09-07T13:46:32Z</time>
      </trkpt>
      <trkpt lat="46.20706" lon="4.53592">
        <ele>633.2</ele>
        <time>2025-09-07T13:46:33Z</time>
      </trkpt>
      <trkpt lat="46.20706" lon="4.53593">
        <ele>632.4</ele>
        <time>2025-09-07T13:46:34Z</time>
      </trkpt>
      <trkpt lat="46.20705" lon="4.53595">
        <ele>633.2</ele>
        <time>2025-09-07T13:46:35Z</time>
      </trkpt>
      <trkpt lat="46.20704" lon="4.53596">
        <ele>633.2</ele>
        <time>2025-09-07T13:46:36Z</time>
      </trkpt>
      <trkpt lat="46.20703" lon="4.53598">
        <ele>633.2</ele>
        <time>2025-09-07T13:46:37Z</time>
      </trkpt>
      <trkpt lat="46.20702" lon="4.53599">
        <ele>633.2</ele>
        <time>2025-09-07T13:46:38Z</time>
      </trkpt>
      <trkpt lat="46.207" lon="4.53601">
        <ele>633.2</ele>
        <time>2025-09-07T13:46:39Z</time>
      </trkpt>
      <trkpt lat="46.20699" lon="4.53603">
        <ele>633.2</ele>
        <time>2025-09-07T13:46:40Z</time>
      </trkpt>
      <trkpt lat="46.20697" lon="4.53605">
        <ele>633.2</ele>
        <time>2025-09-07T13:46:41Z</time>
      </trkpt>
      <trkpt lat="46.20696" lon="4.53606">
        <ele>633.2</ele>
        <time>2025-09-07T13:46:42Z</time>
      </trkpt>
      <trkpt lat="46.20695" lon="4.53608">
        <ele>633.2</ele>
        <time>2025-09-07T13:46:43Z</time>
      </trkpt>
      <trkpt lat="46.20694" lon="4.5361">
        <ele>633.2</ele>
        <time>2025-09-07T13:46:44Z</time>
      </trkpt>
      <trkpt lat="46.20695" lon="4.53613">
        <ele>633.2</ele>
        <time>2025-09-07T13:46:45Z</time>
      </trkpt>
      <trkpt lat="46.20696" lon="4.53617">
        <ele>633</ele>
        <time>2025-09-07T13:46:46Z</time>
      </trkpt>
      <trkpt lat="46.20697" lon="4.53621">
        <ele>633</ele>
        <time>2025-09-07T13:46:47Z</time>
      </trkpt>
      <trkpt lat="46.20698" lon="4.53624">
        <ele>632.6</ele>
        <time>2025-09-07T13:46:48Z</time>
      </trkpt>
      <trkpt lat="46.20698" lon="4.53628">
        <ele>632.8</ele>
        <time>2025-09-07T13:46:49Z</time>
      </trkpt>
      <trkpt lat="46.20698" lon="4.53631">
        <ele>632.8</ele>
        <time>2025-09-07T13:46:50Z</time>
      </trkpt>
      <trkpt lat="46.20697" lon="4.53634">
        <ele>633.2</ele>
        <time>2025-09-07T13:46:51Z</time>
      </trkpt>
      <trkpt lat="46.20695" lon="4.53636">
        <ele>633</ele>
        <time>2025-09-07T13:46:52Z</time>
      </trkpt>
      <trkpt lat="46.20694" lon="4.53638">
        <ele>633</ele>
        <time>2025-09-07T13:46:53Z</time>
      </trkpt>
      <trkpt lat="46.20692" lon="4.53639">
        <ele>633</ele>
        <time>2025-09-07T13:46:54Z</time>
      </trkpt>
      <trkpt lat="46.20689" lon="4.53641">
        <ele>633</ele>
        <time>2025-09-07T13:46:55Z</time>
      </trkpt>
      <trkpt lat="46.20687" lon="4.53642">
        <ele>633</ele>
        <time>2025-09-07T13:46:56Z</time>
      </trkpt>
      <trkpt lat="46.20684" lon="4.53643">
        <ele>633</ele>
        <time>2025-09-07T13:46:57Z</time>
      </trkpt>
      <trkpt lat="46.20682" lon="4.53644">
        <ele>632.8</ele>
        <time>2025-09-07T13:46:58Z</time>
      </trkpt>
      <trkpt lat="46.2068" lon="4.53646">
        <ele>632.8</ele>
        <time>2025-09-07T13:46:59Z</time>
      </trkpt>
      <trkpt lat="46.20677" lon="4.53648">
        <ele>632.8</ele>
        <time>2025-09-07T13:47:00Z</time>
      </trkpt>
      <trkpt lat="46.20675" lon="4.53651">
        <ele>633</ele>
        <time>2025-09-07T13:47:01Z</time>
      </trkpt>
      <trkpt lat="46.20673" lon="4.53654">
        <ele>633</ele>
        <time>2025-09-07T13:47:02Z</time>
      </trkpt>
      <trkpt lat="46.20671" lon="4.53656">
        <ele>633</ele>
        <time>2025-09-07T13:47:03Z</time>
      </trkpt>
      <trkpt lat="46.20669" lon="4.53658">
        <ele>633</ele>
        <time>2025-09-07T13:47:04Z</time>
      </trkpt>
      <trkpt lat="46.20666" lon="4.53661">
        <ele>633.4</ele>
        <time>2025-09-07T13:47:05Z</time>
      </trkpt>
      <trkpt lat="46.20664" lon="4.53663">
        <ele>633</ele>
        <time>2025-09-07T13:47:06Z</time>
      </trkpt>
      <trkpt lat="46.20662" lon="4.53665">
        <ele>633</ele>
        <time>2025-09-07T13:47:07Z</time>
      </trkpt>
      <trkpt lat="46.20659" lon="4.53669">
        <ele>633</ele>
        <time>2025-09-07T13:47:08Z</time>
      </trkpt>
      <trkpt lat="46.20657" lon="4.53671">
        <ele>633</ele>
        <time>2025-09-07T13:47:09Z</time>
      </trkpt>
      <trkpt lat="46.20655" lon="4.53674">
        <ele>633</ele>
        <time>2025-09-07T13:47:10Z</time>
      </trkpt>
      <trkpt lat="46.20652" lon="4.53676">
        <ele>633</ele>
        <time>2025-09-07T13:47:11Z</time>
      </trkpt>
      <trkpt lat="46.2065" lon="4.53677">
        <ele>632.6</ele>
        <time>2025-09-07T13:47:12Z</time>
      </trkpt>
      <trkpt lat="46.20647" lon="4.53679">
        <ele>632.6</ele>
        <time>2025-09-07T13:47:13Z</time>
      </trkpt>
      <trkpt lat="46.20644" lon="4.53681">
        <ele>632.6</ele>
        <time>2025-09-07T13:47:14Z</time>
      </trkpt>
      <trkpt lat="46.20641" lon="4.53683">
        <ele>632.2</ele>
        <time>2025-09-07T13:47:15Z</time>
      </trkpt>
      <trkpt lat="46.20638" lon="4.53684">
        <ele>632.6</ele>
        <time>2025-09-07T13:47:16Z</time>
      </trkpt>
      <trkpt lat="46.20636" lon="4.53685">
        <ele>632.8</ele>
        <time>2025-09-07T13:47:17Z</time>
      </trkpt>
      <trkpt lat="46.20633" lon="4.53685">
        <ele>633.2</ele>
        <time>2025-09-07T13:47:18Z</time>
      </trkpt>
      <trkpt lat="46.20631" lon="4.53683">
        <ele>633.2</ele>
        <time>2025-09-07T13:47:19Z</time>
      </trkpt>
      <trkpt lat="46.20629" lon="4.5368">
        <ele>633.4</ele>
        <time>2025-09-07T13:47:20Z</time>
      </trkpt>
      <trkpt lat="46.20627" lon="4.53676">
        <ele>633.6</ele>
        <time>2025-09-07T13:47:21Z</time>
      </trkpt>
      <trkpt lat="46.20627" lon="4.53672">
        <ele>633.6</ele>
        <time>2025-09-07T13:47:22Z</time>
      </trkpt>
      <trkpt lat="46.20626" lon="4.53668">
        <ele>634</ele>
        <time>2025-09-07T13:47:23Z</time>
      </trkpt>
      <trkpt lat="46.20626" lon="4.53665">
        <ele>634</ele>
        <time>2025-09-07T13:47:24Z</time>
      </trkpt>
      <trkpt lat="46.20626" lon="4.53661">
        <ele>634.4</ele>
        <time>2025-09-07T13:47:25Z</time>
      </trkpt>
      <trkpt lat="46.20626" lon="4.53657">
        <ele>634.6</ele>
        <time>2025-09-07T13:47:26Z</time>
      </trkpt>
      <trkpt lat="46.20627" lon="4.53654">
        <ele>635</ele>
        <time>2025-09-07T13:47:27Z</time>
      </trkpt>
      <trkpt lat="46.20627" lon="4.53651">
        <ele>635</ele>
        <time>2025-09-07T13:47:28Z</time>
      </trkpt>
      <trkpt lat="46.20627" lon="4.53648">
        <ele>635.2</ele>
        <time>2025-09-07T13:47:29Z</time>
      </trkpt>
      <trkpt lat="46.20627" lon="4.53645">
        <ele>635.4</ele>
        <time>2025-09-07T13:47:30Z</time>
      </trkpt>
      <trkpt lat="46.20626" lon="4.53642">
        <ele>635.4</ele>
        <time>2025-09-07T13:47:31Z</time>
      </trkpt>
      <trkpt lat="46.20626" lon="4.53639">
        <ele>635.4</ele>
        <time>2025-09-07T13:47:32Z</time>
      </trkpt>
      <trkpt lat="46.20626" lon="4.53636">
        <ele>635.8</ele>
        <time>2025-09-07T13:47:33Z</time>
      </trkpt>
      <trkpt lat="46.20626" lon="4.53633">
        <ele>635.8</ele>
        <time>2025-09-07T13:47:34Z</time>
      </trkpt>
      <trkpt lat="46.20626" lon="4.5363">
        <ele>636</ele>
        <time>2025-09-07T13:47:35Z</time>
      </trkpt>
      <trkpt lat="46.20626" lon="4.53628">
        <ele>636</ele>
        <time>2025-09-07T13:47:36Z</time>
      </trkpt>
      <trkpt lat="46.20625" lon="4.53625">
        <ele>636.4</ele>
        <time>2025-09-07T13:47:37Z</time>
      </trkpt>
      <trkpt lat="46.20625" lon="4.53622">
        <ele>636.4</ele>
        <time>2025-09-07T13:47:38Z</time>
      </trkpt>
      <trkpt lat="46.20625" lon="4.53619">
        <ele>636.4</ele>
        <time>2025-09-07T13:47:39Z</time>
      </trkpt>
      <trkpt lat="46.20624" lon="4.53617">
        <ele>636.4</ele>
        <time>2025-09-07T13:47:40Z</time>
      </trkpt>
      <trkpt lat="46.20625" lon="4.53615">
        <ele>636.6</ele>
        <time>2025-09-07T13:47:41Z</time>
      </trkpt>
      <trkpt lat="46.20625" lon="4.53612">
        <ele>636.6</ele>
        <time>2025-09-07T13:47:42Z</time>
      </trkpt>
      <trkpt lat="46.20625" lon="4.53611">
        <ele>637</ele>
        <time>2025-09-07T13:47:43Z</time>
      </trkpt>
      <trkpt lat="46.20626" lon="4.53609">
        <ele>637</ele>
        <time>2025-09-07T13:47:44Z</time>
      </trkpt>
      <trkpt lat="46.20626" lon="4.53606">
        <ele>637.2</ele>
        <time>2025-09-07T13:47:45Z</time>
      </trkpt>
      <trkpt lat="46.20626" lon="4.53603">
        <ele>637.2</ele>
        <time>2025-09-07T13:47:46Z</time>
      </trkpt>
      <trkpt lat="46.20626" lon="4.536">
        <ele>637.2</ele>
        <time>2025-09-07T13:47:47Z</time>
      </trkpt>
      <trkpt lat="46.20625" lon="4.53597">
        <ele>637.6</ele>
        <time>2025-09-07T13:47:48Z</time>
      </trkpt>
      <trkpt lat="46.20624" lon="4.53594">
        <ele>638</ele>
        <time>2025-09-07T13:47:49Z</time>
      </trkpt>
      <trkpt lat="46.20623" lon="4.53592">
        <ele>638</ele>
        <time>2025-09-07T13:47:50Z</time>
      </trkpt>
      <trkpt lat="46.20623" lon="4.53589">
        <ele>638.2</ele>
        <time>2025-09-07T13:47:51Z</time>
      </trkpt>
      <trkpt lat="46.20622" lon="4.53587">
        <ele>638.2</ele>
        <time>2025-09-07T13:47:52Z</time>
      </trkpt>
      <trkpt lat="46.20622" lon="4.53584">
        <ele>638.2</ele>
        <time>2025-09-07T13:47:53Z</time>
      </trkpt>
      <trkpt lat="46.20622" lon="4.53581">
        <ele>638.6</ele>
        <time>2025-09-07T13:47:54Z</time>
      </trkpt>
      <trkpt lat="46.20622" lon="4.53579">
        <ele>638.6</ele>
        <time>2025-09-07T13:47:55Z</time>
      </trkpt>
      <trkpt lat="46.20622" lon="4.53577">
        <ele>638.6</ele>
        <time>2025-09-07T13:47:56Z</time>
      </trkpt>
      <trkpt lat="46.20621" lon="4.53574">
        <ele>638.6</ele>
        <time>2025-09-07T13:47:57Z</time>
      </trkpt>
      <trkpt lat="46.20621" lon="4.53572">
        <ele>638.6</ele>
        <time>2025-09-07T13:47:58Z</time>
      </trkpt>
      <trkpt lat="46.20621" lon="4.53569">
        <ele>638.8</ele>
        <time>2025-09-07T13:47:59Z</time>
      </trkpt>
      <trkpt lat="46.20621" lon="4.53567">
        <ele>638.8</ele>
        <time>2025-09-07T13:48:00Z</time>
      </trkpt>
      <trkpt lat="46.20621" lon="4.53564">
        <ele>639</ele>
        <time>2025-09-07T13:48:01Z</time>
      </trkpt>
      <trkpt lat="46.20621" lon="4.53562">
        <ele>639</ele>
        <time>2025-09-07T13:48:02Z</time>
      </trkpt>
      <trkpt lat="46.2062" lon="4.5356">
        <ele>639</ele>
        <time>2025-09-07T13:48:03Z</time>
      </trkpt>
      <trkpt lat="46.2062" lon="4.53557">
        <ele>639</ele>
        <time>2025-09-07T13:48:04Z</time>
      </trkpt>
      <trkpt lat="46.2062" lon="4.53555">
        <ele>639</ele>
        <time>2025-09-07T13:48:05Z</time>
      </trkpt>
      <trkpt lat="46.2062" lon="4.53553">
        <ele>639</ele>
        <time>2025-09-07T13:48:06Z</time>
      </trkpt>
      <trkpt lat="46.20619" lon="4.53551">
        <ele>639</ele>
        <time>2025-09-07T13:48:07Z</time>
      </trkpt>
      <trkpt lat="46.20619" lon="4.53548">
        <ele>639.4</ele>
        <time>2025-09-07T13:48:08Z</time>
      </trkpt>
      <trkpt lat="46.20617" lon="4.53544">
        <ele>639.4</ele>
        <time>2025-09-07T13:48:09Z</time>
      </trkpt>
      <trkpt lat="46.20616" lon="4.53542">
        <ele>639.8</ele>
        <time>2025-09-07T13:48:10Z</time>
      </trkpt>
      <trkpt lat="46.20615" lon="4.5354">
        <ele>639.8</ele>
        <time>2025-09-07T13:48:11Z</time>
      </trkpt>
      <trkpt lat="46.20615" lon="4.53538">
        <ele>639.8</ele>
        <time>2025-09-07T13:48:12Z</time>
      </trkpt>
      <trkpt lat="46.20615" lon="4.53536">
        <ele>640</ele>
        <time>2025-09-07T13:48:13Z</time>
      </trkpt>
      <trkpt lat="46.20615" lon="4.53535">
        <ele>640</ele>
        <time>2025-09-07T13:48:14Z</time>
      </trkpt>
      <trkpt lat="46.20615" lon="4.53533">
        <ele>640.4</ele>
        <time>2025-09-07T13:48:15Z</time>
      </trkpt>
      <trkpt lat="46.20615" lon="4.5353">
        <ele>640.4</ele>
        <time>2025-09-07T13:48:16Z</time>
      </trkpt>
      <trkpt lat="46.20614" lon="4.53528">
        <ele>640.6</ele>
        <time>2025-09-07T13:48:17Z</time>
      </trkpt>
      <trkpt lat="46.20614" lon="4.53526">
        <ele>640.6</ele>
        <time>2025-09-07T13:48:18Z</time>
      </trkpt>
      <trkpt lat="46.20614" lon="4.53524">
        <ele>640.6</ele>
        <time>2025-09-07T13:48:19Z</time>
      </trkpt>
      <trkpt lat="46.20613" lon="4.53523">
        <ele>640.8</ele>
        <time>2025-09-07T13:48:20Z</time>
      </trkpt>
      <trkpt lat="46.20612" lon="4.53522">
        <ele>641</ele>
        <time>2025-09-07T13:48:21Z</time>
      </trkpt>
      <trkpt lat="46.20612" lon="4.5352">
        <ele>641</ele>
        <time>2025-09-07T13:48:22Z</time>
      </trkpt>
      <trkpt lat="46.20611" lon="4.53518">
        <ele>641.4</ele>
        <time>2025-09-07T13:48:23Z</time>
      </trkpt>
      <trkpt lat="46.20611" lon="4.53516">
        <ele>641.4</ele>
        <time>2025-09-07T13:48:24Z</time>
      </trkpt>
      <trkpt lat="46.20611" lon="4.53514">
        <ele>641.4</ele>
        <time>2025-09-07T13:48:25Z</time>
      </trkpt>
      <trkpt lat="46.20611" lon="4.53512">
        <ele>641.8</ele>
        <time>2025-09-07T13:48:26Z</time>
      </trkpt>
      <trkpt lat="46.20611" lon="4.5351">
        <ele>642</ele>
        <time>2025-09-07T13:48:27Z</time>
      </trkpt>
      <trkpt lat="46.20611" lon="4.53508">
        <ele>642</ele>
        <time>2025-09-07T13:48:28Z</time>
      </trkpt>
      <trkpt lat="46.20611" lon="4.53506">
        <ele>642.4</ele>
        <time>2025-09-07T13:48:29Z</time>
      </trkpt>
      <trkpt lat="46.20612" lon="4.53504">
        <ele>642.4</ele>
        <time>2025-09-07T13:48:30Z</time>
      </trkpt>
      <trkpt lat="46.20612" lon="4.53502">
        <ele>642.6</ele>
        <time>2025-09-07T13:48:31Z</time>
      </trkpt>
      <trkpt lat="46.20612" lon="4.535">
        <ele>642.6</ele>
        <time>2025-09-07T13:48:32Z</time>
      </trkpt>
      <trkpt lat="46.20611" lon="4.53498">
        <ele>643</ele>
        <time>2025-09-07T13:48:33Z</time>
      </trkpt>
      <trkpt lat="46.20611" lon="4.53496">
        <ele>643.2</ele>
        <time>2025-09-07T13:48:34Z</time>
      </trkpt>
      <trkpt lat="46.20611" lon="4.53494">
        <ele>643.2</ele>
        <time>2025-09-07T13:48:35Z</time>
      </trkpt>
      <trkpt lat="46.20611" lon="4.53493">
        <ele>643.2</ele>
        <time>2025-09-07T13:48:36Z</time>
      </trkpt>
      <trkpt lat="46.20611" lon="4.53491">
        <ele>643.6</ele>
        <time>2025-09-07T13:48:37Z</time>
      </trkpt>
      <trkpt lat="46.2061" lon="4.53489">
        <ele>643.6</ele>
        <time>2025-09-07T13:48:38Z</time>
      </trkpt>
      <trkpt lat="46.2061" lon="4.53487">
        <ele>643.8</ele>
        <time>2025-09-07T13:48:39Z</time>
      </trkpt>
      <trkpt lat="46.20609" lon="4.53486">
        <ele>643.8</ele>
        <time>2025-09-07T13:48:40Z</time>
      </trkpt>
      <trkpt lat="46.20608" lon="4.53484">
        <ele>643.8</ele>
        <time>2025-09-07T13:48:41Z</time>
      </trkpt>
      <trkpt lat="46.20608" lon="4.53482">
        <ele>644</ele>
        <time>2025-09-07T13:48:42Z</time>
      </trkpt>
      <trkpt lat="46.20608" lon="4.5348">
        <ele>644</ele>
        <time>2025-09-07T13:48:43Z</time>
      </trkpt>
      <trkpt lat="46.20608" lon="4.53478">
        <ele>644</ele>
        <time>2025-09-07T13:48:44Z</time>
      </trkpt>
      <trkpt lat="46.20608" lon="4.53476">
        <ele>644</ele>
        <time>2025-09-07T13:48:45Z</time>
      </trkpt>
      <trkpt lat="46.20607" lon="4.53474">
        <ele>644</ele>
        <time>2025-09-07T13:48:46Z</time>
      </trkpt>
      <trkpt lat="46.20607" lon="4.53472">
        <ele>644.4</ele>
        <time>2025-09-07T13:48:47Z</time>
      </trkpt>
      <trkpt lat="46.20607" lon="4.53471">
        <ele>644.4</ele>
        <time>2025-09-07T13:48:48Z</time>
      </trkpt>
      <trkpt lat="46.20607" lon="4.53471">
        <ele>644.4</ele>
        <time>2025-09-07T13:48:49Z</time>
      </trkpt>
      <trkpt lat="46.20606" lon="4.53469">
        <ele>644.6</ele>
        <time>2025-09-07T13:48:50Z</time>
      </trkpt>
      <trkpt lat="46.20605" lon="4.53466">
        <ele>645</ele>
        <time>2025-09-07T13:48:51Z</time>
      </trkpt>
      <trkpt lat="46.20605" lon="4.53465">
        <ele>645.2</ele>
        <time>2025-09-07T13:48:52Z</time>
      </trkpt>
      <trkpt lat="46.20605" lon="4.53463">
        <ele>645.2</ele>
        <time>2025-09-07T13:48:53Z</time>
      </trkpt>
      <trkpt lat="46.20605" lon="4.53461">
        <ele>645.4</ele>
        <time>2025-09-07T13:48:54Z</time>
      </trkpt>
      <trkpt lat="46.20604" lon="4.53459">
        <ele>645.4</ele>
        <time>2025-09-07T13:48:55Z</time>
      </trkpt>
      <trkpt lat="46.20604" lon="4.53456">
        <ele>645.4</ele>
        <time>2025-09-07T13:48:56Z</time>
      </trkpt>
      <trkpt lat="46.20604" lon="4.53454">
        <ele>645.6</ele>
        <time>2025-09-07T13:48:57Z</time>
      </trkpt>
      <trkpt lat="46.20604" lon="4.53452">
        <ele>645.6</ele>
        <time>2025-09-07T13:48:58Z</time>
      </trkpt>
      <trkpt lat="46.20604" lon="4.53451">
        <ele>645.6</ele>
        <time>2025-09-07T13:48:59Z</time>
      </trkpt>
      <trkpt lat="46.20603" lon="4.53449">
        <ele>646</ele>
        <time>2025-09-07T13:49:00Z</time>
      </trkpt>
      <trkpt lat="46.20603" lon="4.53447">
        <ele>646</ele>
        <time>2025-09-07T13:49:01Z</time>
      </trkpt>
      <trkpt lat="46.20603" lon="4.53444">
        <ele>646.2</ele>
        <time>2025-09-07T13:49:02Z</time>
      </trkpt>
      <trkpt lat="46.20603" lon="4.53442">
        <ele>646.4</ele>
        <time>2025-09-07T13:49:03Z</time>
      </trkpt>
      <trkpt lat="46.20603" lon="4.5344">
        <ele>646.4</ele>
        <time>2025-09-07T13:49:04Z</time>
      </trkpt>
      <trkpt lat="46.20603" lon="4.53438">
        <ele>646.6</ele>
        <time>2025-09-07T13:49:05Z</time>
      </trkpt>
      <trkpt lat="46.20603" lon="4.53436">
        <ele>646.6</ele>
        <time>2025-09-07T13:49:06Z</time>
      </trkpt>
      <trkpt lat="46.20603" lon="4.53435">
        <ele>646.6</ele>
        <time>2025-09-07T13:49:07Z</time>
      </trkpt>
      <trkpt lat="46.20603" lon="4.53433">
        <ele>646.6</ele>
        <time>2025-09-07T13:49:08Z</time>
      </trkpt>
      <trkpt lat="46.20603" lon="4.53431">
        <ele>646.8</ele>
        <time>2025-09-07T13:49:09Z</time>
      </trkpt>
      <trkpt lat="46.20603" lon="4.53429">
        <ele>646.8</ele>
        <time>2025-09-07T13:49:10Z</time>
      </trkpt>
      <trkpt lat="46.20603" lon="4.53427">
        <ele>646.8</ele>
        <time>2025-09-07T13:49:11Z</time>
      </trkpt>
      <trkpt lat="46.20603" lon="4.53425">
        <ele>646.8</ele>
        <time>2025-09-07T13:49:12Z</time>
      </trkpt>
      <trkpt lat="46.20602" lon="4.53423">
        <ele>647.2</ele>
        <time>2025-09-07T13:49:13Z</time>
      </trkpt>
      <trkpt lat="46.20602" lon="4.53421">
        <ele>647.2</ele>
        <time>2025-09-07T13:49:14Z</time>
      </trkpt>
      <trkpt lat="46.20602" lon="4.53419">
        <ele>647.4</ele>
        <time>2025-09-07T13:49:15Z</time>
      </trkpt>
      <trkpt lat="46.20602" lon="4.53417">
        <ele>647.4</ele>
        <time>2025-09-07T13:49:16Z</time>
      </trkpt>
      <trkpt lat="46.20602" lon="4.53416">
        <ele>647.6</ele>
        <time>2025-09-07T13:49:17Z</time>
      </trkpt>
      <trkpt lat="46.20602" lon="4.53414">
        <ele>647.8</ele>
        <time>2025-09-07T13:49:18Z</time>
      </trkpt>
      <trkpt lat="46.20602" lon="4.53412">
        <ele>647.8</ele>
        <time>2025-09-07T13:49:19Z</time>
      </trkpt>
      <trkpt lat="46.20602" lon="4.5341">
        <ele>648.2</ele>
        <time>2025-09-07T13:49:20Z</time>
      </trkpt>
      <trkpt lat="46.20602" lon="4.53408">
        <ele>648.4</ele>
        <time>2025-09-07T13:49:21Z</time>
      </trkpt>
      <trkpt lat="46.20602" lon="4.53406">
        <ele>648.4</ele>
        <time>2025-09-07T13:49:22Z</time>
      </trkpt>
      <trkpt lat="46.20601" lon="4.53405">
        <ele>648.6</ele>
        <time>2025-09-07T13:49:23Z</time>
      </trkpt>
      <trkpt lat="46.20601" lon="4.53403">
        <ele>648.6</ele>
        <time>2025-09-07T13:49:24Z</time>
      </trkpt>
      <trkpt lat="46.206" lon="4.53401">
        <ele>648.6</ele>
        <time>2025-09-07T13:49:25Z</time>
      </trkpt>
      <trkpt lat="46.206" lon="4.53399">
        <ele>648.8</ele>
        <time>2025-09-07T13:49:26Z</time>
      </trkpt>
      <trkpt lat="46.206" lon="4.53397">
        <ele>648.8</ele>
        <time>2025-09-07T13:49:27Z</time>
      </trkpt>
      <trkpt lat="46.206" lon="4.53395">
        <ele>648.8</ele>
        <time>2025-09-07T13:49:28Z</time>
      </trkpt>
      <trkpt lat="46.20599" lon="4.53394">
        <ele>648.8</ele>
        <time>2025-09-07T13:49:29Z</time>
      </trkpt>
      <trkpt lat="46.20599" lon="4.53392">
        <ele>649.2</ele>
        <time>2025-09-07T13:49:30Z</time>
      </trkpt>
      <trkpt lat="46.20599" lon="4.5339">
        <ele>649.2</ele>
        <time>2025-09-07T13:49:31Z</time>
      </trkpt>
      <trkpt lat="46.20598" lon="4.53388">
        <ele>649.4</ele>
        <time>2025-09-07T13:49:32Z</time>
      </trkpt>
      <trkpt lat="46.20598" lon="4.53387">
        <ele>649.4</ele>
        <time>2025-09-07T13:49:33Z</time>
      </trkpt>
      <trkpt lat="46.20598" lon="4.53385">
        <ele>649.8</ele>
        <time>2025-09-07T13:49:34Z</time>
      </trkpt>
      <trkpt lat="46.20598" lon="4.53383">
        <ele>649.8</ele>
        <time>2025-09-07T13:49:35Z</time>
      </trkpt>
      <trkpt lat="46.20598" lon="4.53381">
        <ele>650</ele>
        <time>2025-09-07T13:49:36Z</time>
      </trkpt>
      <trkpt lat="46.20598" lon="4.53379">
        <ele>650</ele>
        <time>2025-09-07T13:49:37Z</time>
      </trkpt>
      <trkpt lat="46.20597" lon="4.53377">
        <ele>650.2</ele>
        <time>2025-09-07T13:49:38Z</time>
      </trkpt>
      <trkpt lat="46.20597" lon="4.53375">
        <ele>650.2</ele>
        <time>2025-09-07T13:49:39Z</time>
      </trkpt>
      <trkpt lat="46.20597" lon="4.53373">
        <ele>650.2</ele>
        <time>2025-09-07T13:49:40Z</time>
      </trkpt>
      <trkpt lat="46.20597" lon="4.53371">
        <ele>650.6</ele>
        <time>2025-09-07T13:49:41Z</time>
      </trkpt>
      <trkpt lat="46.20598" lon="4.5337">
        <ele>650.6</ele>
        <time>2025-09-07T13:49:42Z</time>
      </trkpt>
      <trkpt lat="46.20598" lon="4.53368">
        <ele>650.8</ele>
        <time>2025-09-07T13:49:43Z</time>
      </trkpt>
      <trkpt lat="46.20598" lon="4.53366">
        <ele>650.8</ele>
        <time>2025-09-07T13:49:44Z</time>
      </trkpt>
      <trkpt lat="46.20597" lon="4.53364">
        <ele>650.8</ele>
        <time>2025-09-07T13:49:45Z</time>
      </trkpt>
      <trkpt lat="46.20597" lon="4.53362">
        <ele>650.8</ele>
        <time>2025-09-07T13:49:46Z</time>
      </trkpt>
      <trkpt lat="46.20597" lon="4.5336">
        <ele>650.8</ele>
        <time>2025-09-07T13:49:47Z</time>
      </trkpt>
      <trkpt lat="46.20597" lon="4.53358">
        <ele>651</ele>
        <time>2025-09-07T13:49:48Z</time>
      </trkpt>
      <trkpt lat="46.20597" lon="4.53356">
        <ele>651</ele>
        <time>2025-09-07T13:49:49Z</time>
      </trkpt>
      <trkpt lat="46.20597" lon="4.53356">
        <ele>651.6</ele>
        <time>2025-09-07T13:49:50Z</time>
      </trkpt>
      <trkpt lat="46.20597" lon="4.53356">
        <ele>651.8</ele>
        <time>2025-09-07T13:49:51Z</time>
      </trkpt>
      <trkpt lat="46.20599" lon="4.53351">
        <ele>651.8</ele>
        <time>2025-09-07T13:49:52Z</time>
      </trkpt>
      <trkpt lat="46.20601" lon="4.53346">
        <ele>651.4</ele>
        <time>2025-09-07T13:49:53Z</time>
      </trkpt>
      <trkpt lat="46.20602" lon="4.53344">
        <ele>651.4</ele>
        <time>2025-09-07T13:49:54Z</time>
      </trkpt>
      <trkpt lat="46.20602" lon="4.53341">
        <ele>651.4</ele>
        <time>2025-09-07T13:49:55Z</time>
      </trkpt>
      <trkpt lat="46.20603" lon="4.53339">
        <ele>651.4</ele>
        <time>2025-09-07T13:49:56Z</time>
      </trkpt>
      <trkpt lat="46.20603" lon="4.53337">
        <ele>651.4</ele>
        <time>2025-09-07T13:49:57Z</time>
      </trkpt>
      <trkpt lat="46.20604" lon="4.53336">
        <ele>651.4</ele>
        <time>2025-09-07T13:49:58Z</time>
      </trkpt>
      <trkpt lat="46.20605" lon="4.53334">
        <ele>651.8</ele>
        <time>2025-09-07T13:49:59Z</time>
      </trkpt>
      <trkpt lat="46.20605" lon="4.53332">
        <ele>651.8</ele>
        <time>2025-09-07T13:50:00Z</time>
      </trkpt>
      <trkpt lat="46.20606" lon="4.5333">
        <ele>652</ele>
        <time>2025-09-07T13:50:01Z</time>
      </trkpt>
      <trkpt lat="46.20606" lon="4.53329">
        <ele>652</ele>
        <time>2025-09-07T13:50:02Z</time>
      </trkpt>
      <trkpt lat="46.20607" lon="4.53327">
        <ele>652.4</ele>
        <time>2025-09-07T13:50:03Z</time>
      </trkpt>
      <trkpt lat="46.20608" lon="4.53324">
        <ele>652.4</ele>
        <time>2025-09-07T13:50:04Z</time>
      </trkpt>
      <trkpt lat="46.20608" lon="4.53322">
        <ele>652.4</ele>
        <time>2025-09-07T13:50:05Z</time>
      </trkpt>
      <trkpt lat="46.20609" lon="4.5332">
        <ele>652.8</ele>
        <time>2025-09-07T13:50:06Z</time>
      </trkpt>
      <trkpt lat="46.2061" lon="4.53317">
        <ele>652.8</ele>
        <time>2025-09-07T13:50:07Z</time>
      </trkpt>
      <trkpt lat="46.2061" lon="4.53316">
        <ele>652.8</ele>
        <time>2025-09-07T13:50:08Z</time>
      </trkpt>
      <trkpt lat="46.20611" lon="4.53314">
        <ele>653</ele>
        <time>2025-09-07T13:50:09Z</time>
      </trkpt>
      <trkpt lat="46.20611" lon="4.53312">
        <ele>653</ele>
        <time>2025-09-07T13:50:10Z</time>
      </trkpt>
      <trkpt lat="46.20612" lon="4.5331">
        <ele>653.4</ele>
        <time>2025-09-07T13:50:11Z</time>
      </trkpt>
      <trkpt lat="46.20612" lon="4.53308">
        <ele>653.4</ele>
        <time>2025-09-07T13:50:12Z</time>
      </trkpt>
      <trkpt lat="46.20612" lon="4.53306">
        <ele>653.8</ele>
        <time>2025-09-07T13:50:13Z</time>
      </trkpt>
      <trkpt lat="46.20613" lon="4.53303">
        <ele>653.8</ele>
        <time>2025-09-07T13:50:14Z</time>
      </trkpt>
      <trkpt lat="46.20613" lon="4.53301">
        <ele>653.8</ele>
        <time>2025-09-07T13:50:15Z</time>
      </trkpt>
      <trkpt lat="46.20614" lon="4.533">
        <ele>653.8</ele>
        <time>2025-09-07T13:50:16Z</time>
      </trkpt>
      <trkpt lat="46.20614" lon="4.53298">
        <ele>653.8</ele>
        <time>2025-09-07T13:50:17Z</time>
      </trkpt>
      <trkpt lat="46.20615" lon="4.53297">
        <ele>653.8</ele>
        <time>2025-09-07T13:50:18Z</time>
      </trkpt>
      <trkpt lat="46.20616" lon="4.53296">
        <ele>654.2</ele>
        <time>2025-09-07T13:50:19Z</time>
      </trkpt>
      <trkpt lat="46.20617" lon="4.53294">
        <ele>654.2</ele>
        <time>2025-09-07T13:50:20Z</time>
      </trkpt>
      <trkpt lat="46.20617" lon="4.53293">
        <ele>654.6</ele>
        <time>2025-09-07T13:50:21Z</time>
      </trkpt>
      <trkpt lat="46.20618" lon="4.53292">
        <ele>654.6</ele>
        <time>2025-09-07T13:50:22Z</time>
      </trkpt>
      <trkpt lat="46.20618" lon="4.5329">
        <ele>655</ele>
        <time>2025-09-07T13:50:23Z</time>
      </trkpt>
      <trkpt lat="46.20618" lon="4.53288">
        <ele>655</ele>
        <time>2025-09-07T13:50:24Z</time>
      </trkpt>
      <trkpt lat="46.20618" lon="4.53286">
        <ele>655</ele>
        <time>2025-09-07T13:50:25Z</time>
      </trkpt>
      <trkpt lat="46.20618" lon="4.53285">
        <ele>655.2</ele>
        <time>2025-09-07T13:50:26Z</time>
      </trkpt>
      <trkpt lat="46.20619" lon="4.53283">
        <ele>655.2</ele>
        <time>2025-09-07T13:50:27Z</time>
      </trkpt>
      <trkpt lat="46.2062" lon="4.53282">
        <ele>655.4</ele>
        <time>2025-09-07T13:50:28Z</time>
      </trkpt>
      <trkpt lat="46.2062" lon="4.53281">
        <ele>655.6</ele>
        <time>2025-09-07T13:50:29Z</time>
      </trkpt>
      <trkpt lat="46.20621" lon="4.53279">
        <ele>656</ele>
        <time>2025-09-07T13:50:30Z</time>
      </trkpt>
      <trkpt lat="46.20621" lon="4.53277">
        <ele>656</ele>
        <time>2025-09-07T13:50:31Z</time>
      </trkpt>
      <trkpt lat="46.20622" lon="4.53276">
        <ele>656</ele>
        <time>2025-09-07T13:50:32Z</time>
      </trkpt>
      <trkpt lat="46.20622" lon="4.53276">
        <ele>656.4</ele>
        <time>2025-09-07T13:50:33Z</time>
      </trkpt>
      <trkpt lat="46.20622" lon="4.53276">
        <ele>656.8</ele>
        <time>2025-09-07T13:50:34Z</time>
      </trkpt>
      <trkpt lat="46.20623" lon="4.53272">
        <ele>657</ele>
        <time>2025-09-07T13:50:35Z</time>
      </trkpt>
      <trkpt lat="46.20623" lon="4.5327">
        <ele>657.2</ele>
        <time>2025-09-07T13:50:36Z</time>
      </trkpt>
      <trkpt lat="46.20624" lon="4.53269">
        <ele>657.4</ele>
        <time>2025-09-07T13:50:37Z</time>
      </trkpt>
      <trkpt lat="46.20624" lon="4.53268">
        <ele>657.4</ele>
        <time>2025-09-07T13:50:38Z</time>
      </trkpt>
      <trkpt lat="46.20624" lon="4.53266">
        <ele>657.8</ele>
        <time>2025-09-07T13:50:39Z</time>
      </trkpt>
      <trkpt lat="46.20625" lon="4.53264">
        <ele>657.8</ele>
        <time>2025-09-07T13:50:40Z</time>
      </trkpt>
      <trkpt lat="46.20625" lon="4.53262">
        <ele>658.2</ele>
        <time>2025-09-07T13:50:41Z</time>
      </trkpt>
      <trkpt lat="46.20626" lon="4.5326">
        <ele>658.2</ele>
        <time>2025-09-07T13:50:42Z</time>
      </trkpt>
      <trkpt lat="46.20626" lon="4.53258">
        <ele>658.4</ele>
        <time>2025-09-07T13:50:43Z</time>
      </trkpt>
      <trkpt lat="46.20627" lon="4.53256">
        <ele>658.4</ele>
        <time>2025-09-07T13:50:44Z</time>
      </trkpt>
      <trkpt lat="46.20627" lon="4.53254">
        <ele>658.4</ele>
        <time>2025-09-07T13:50:45Z</time>
      </trkpt>
      <trkpt lat="46.20628" lon="4.53252">
        <ele>658.6</ele>
        <time>2025-09-07T13:50:46Z</time>
      </trkpt>
      <trkpt lat="46.20628" lon="4.53251">
        <ele>658.6</ele>
        <time>2025-09-07T13:50:47Z</time>
      </trkpt>
      <trkpt lat="46.20628" lon="4.53249">
        <ele>658.6</ele>
        <time>2025-09-07T13:50:48Z</time>
      </trkpt>
      <trkpt lat="46.20629" lon="4.53247">
        <ele>659</ele>
        <time>2025-09-07T13:50:49Z</time>
      </trkpt>
      <trkpt lat="46.2063" lon="4.53245">
        <ele>659</ele>
        <time>2025-09-07T13:50:50Z</time>
      </trkpt>
      <trkpt lat="46.2063" lon="4.53244">
        <ele>659</ele>
        <time>2025-09-07T13:50:51Z</time>
      </trkpt>
      <trkpt lat="46.20631" lon="4.53242">
        <ele>659.2</ele>
        <time>2025-09-07T13:50:52Z</time>
      </trkpt>
      <trkpt lat="46.20631" lon="4.5324">
        <ele>659.4</ele>
        <time>2025-09-07T13:50:53Z</time>
      </trkpt>
      <trkpt lat="46.20631" lon="4.53238">
        <ele>659.4</ele>
        <time>2025-09-07T13:50:54Z</time>
      </trkpt>
      <trkpt lat="46.20631" lon="4.53236">
        <ele>659.4</ele>
        <time>2025-09-07T13:50:55Z</time>
      </trkpt>
      <trkpt lat="46.20631" lon="4.53234">
        <ele>659.4</ele>
        <time>2025-09-07T13:50:56Z</time>
      </trkpt>
      <trkpt lat="46.20631" lon="4.53232">
        <ele>659.8</ele>
        <time>2025-09-07T13:50:57Z</time>
      </trkpt>
      <trkpt lat="46.20632" lon="4.53229">
        <ele>659.8</ele>
        <time>2025-09-07T13:50:58Z</time>
      </trkpt>
      <trkpt lat="46.20632" lon="4.53227">
        <ele>659.8</ele>
        <time>2025-09-07T13:50:59Z</time>
      </trkpt>
      <trkpt lat="46.20631" lon="4.53225">
        <ele>659.8</ele>
        <time>2025-09-07T13:51:00Z</time>
      </trkpt>
      <trkpt lat="46.20631" lon="4.53223">
        <ele>659.8</ele>
        <time>2025-09-07T13:51:01Z</time>
      </trkpt>
      <trkpt lat="46.20631" lon="4.53221">
        <ele>660</ele>
        <time>2025-09-07T13:51:02Z</time>
      </trkpt>
      <trkpt lat="46.20631" lon="4.53219">
        <ele>660.2</ele>
        <time>2025-09-07T13:51:03Z</time>
      </trkpt>
      <trkpt lat="46.20631" lon="4.53217">
        <ele>660.2</ele>
        <time>2025-09-07T13:51:04Z</time>
      </trkpt>
      <trkpt lat="46.20631" lon="4.53214">
        <ele>660.2</ele>
        <time>2025-09-07T13:51:05Z</time>
      </trkpt>
      <trkpt lat="46.20631" lon="4.53212">
        <ele>660.2</ele>
        <time>2025-09-07T13:51:06Z</time>
      </trkpt>
      <trkpt lat="46.20631" lon="4.5321">
        <ele>660.4</ele>
        <time>2025-09-07T13:51:07Z</time>
      </trkpt>
      <trkpt lat="46.20631" lon="4.53208">
        <ele>660.4</ele>
        <time>2025-09-07T13:51:08Z</time>
      </trkpt>
      <trkpt lat="46.20631" lon="4.53207">
        <ele>660.4</ele>
        <time>2025-09-07T13:51:09Z</time>
      </trkpt>
      <trkpt lat="46.20631" lon="4.53205">
        <ele>660.4</ele>
        <time>2025-09-07T13:51:10Z</time>
      </trkpt>
      <trkpt lat="46.20632" lon="4.53203">
        <ele>660.8</ele>
        <time>2025-09-07T13:51:11Z</time>
      </trkpt>
      <trkpt lat="46.20634" lon="4.532">
        <ele>660.8</ele>
        <time>2025-09-07T13:51:12Z</time>
      </trkpt>
      <trkpt lat="46.20635" lon="4.53199">
        <ele>661</ele>
        <time>2025-09-07T13:51:13Z</time>
      </trkpt>
      <trkpt lat="46.20636" lon="4.53196">
        <ele>661</ele>
        <time>2025-09-07T13:51:14Z</time>
      </trkpt>
      <trkpt lat="46.20637" lon="4.53194">
        <ele>661.2</ele>
        <time>2025-09-07T13:51:15Z</time>
      </trkpt>
      <trkpt lat="46.20638" lon="4.53192">
        <ele>661.2</ele>
        <time>2025-09-07T13:51:16Z</time>
      </trkpt>
      <trkpt lat="46.20639" lon="4.53191">
        <ele>661.2</ele>
        <time>2025-09-07T13:51:17Z</time>
      </trkpt>
      <trkpt lat="46.2064" lon="4.53189">
        <ele>661.2</ele>
        <time>2025-09-07T13:51:18Z</time>
      </trkpt>
      <trkpt lat="46.2064" lon="4.53188">
        <ele>661.2</ele>
        <time>2025-09-07T13:51:19Z</time>
      </trkpt>
      <trkpt lat="46.2064" lon="4.53188">
        <ele>661.4</ele>
        <time>2025-09-07T13:51:20Z</time>
      </trkpt>
      <trkpt lat="46.20641" lon="4.53188">
        <ele>661.4</ele>
        <time>2025-09-07T13:51:21Z</time>
      </trkpt>
      <trkpt lat="46.20646" lon="4.53187">
        <ele>661.2</ele>
        <time>2025-09-07T13:55:09Z</time>
      </trkpt>
      <trkpt lat="46.20648" lon="4.53184">
        <ele>661.2</ele>
        <time>2025-09-07T13:55:10Z</time>
      </trkpt>
      <trkpt lat="46.2065" lon="4.5318">
        <ele>661.2</ele>
        <time>2025-09-07T13:55:11Z</time>
      </trkpt>
      <trkpt lat="46.20652" lon="4.53177">
        <ele>661</ele>
        <time>2025-09-07T13:55:12Z</time>
      </trkpt>
      <trkpt lat="46.20653" lon="4.53174">
        <ele>661</ele>
        <time>2025-09-07T13:55:13Z</time>
      </trkpt>
      <trkpt lat="46.20654" lon="4.5317">
        <ele>661</ele>
        <time>2025-09-07T13:55:14Z</time>
      </trkpt>
      <trkpt lat="46.20656" lon="4.53167">
        <ele>661</ele>
        <time>2025-09-07T13:55:15Z</time>
      </trkpt>
      <trkpt lat="46.20657" lon="4.53163">
        <ele>661</ele>
        <time>2025-09-07T13:55:16Z</time>
      </trkpt>
      <trkpt lat="46.20657" lon="4.5316">
        <ele>660.8</ele>
        <time>2025-09-07T13:55:17Z</time>
      </trkpt>
      <trkpt lat="46.20658" lon="4.53157">
        <ele>660.8</ele>
        <time>2025-09-07T13:55:18Z</time>
      </trkpt>
      <trkpt lat="46.2066" lon="4.53153">
        <ele>660.8</ele>
        <time>2025-09-07T13:55:19Z</time>
      </trkpt>
      <trkpt lat="46.20662" lon="4.5315">
        <ele>660.8</ele>
        <time>2025-09-07T13:55:20Z</time>
      </trkpt>
      <trkpt lat="46.20664" lon="4.53147">
        <ele>660.8</ele>
        <time>2025-09-07T13:55:21Z</time>
      </trkpt>
      <trkpt lat="46.20666" lon="4.53144">
        <ele>661</ele>
        <time>2025-09-07T13:55:22Z</time>
      </trkpt>
      <trkpt lat="46.20668" lon="4.53142">
        <ele>661</ele>
        <time>2025-09-07T13:55:23Z</time>
      </trkpt>
      <trkpt lat="46.2067" lon="4.53139">
        <ele>661.4</ele>
        <time>2025-09-07T13:55:24Z</time>
      </trkpt>
      <trkpt lat="46.20671" lon="4.53136">
        <ele>661.4</ele>
        <time>2025-09-07T13:55:25Z</time>
      </trkpt>
      <trkpt lat="46.20672" lon="4.53132">
        <ele>661.4</ele>
        <time>2025-09-07T13:55:26Z</time>
      </trkpt>
      <trkpt lat="46.20673" lon="4.53129">
        <ele>661.6</ele>
        <time>2025-09-07T13:55:27Z</time>
      </trkpt>
      <trkpt lat="46.20674" lon="4.53125">
        <ele>661.6</ele>
        <time>2025-09-07T13:55:28Z</time>
      </trkpt>
      <trkpt lat="46.20675" lon="4.53123">
        <ele>661.6</ele>
        <time>2025-09-07T13:55:29Z</time>
      </trkpt>
      <trkpt lat="46.20677" lon="4.5312">
        <ele>662</ele>
        <time>2025-09-07T13:55:30Z</time>
      </trkpt>
      <trkpt lat="46.20678" lon="4.53117">
        <ele>662</ele>
        <time>2025-09-07T13:55:31Z</time>
      </trkpt>
      <trkpt lat="46.2068" lon="4.53114">
        <ele>662</ele>
        <time>2025-09-07T13:55:32Z</time>
      </trkpt>
      <trkpt lat="46.20681" lon="4.53112">
        <ele>662.4</ele>
        <time>2025-09-07T13:55:33Z</time>
      </trkpt>
      <trkpt lat="46.20682" lon="4.5311">
        <ele>662.6</ele>
        <time>2025-09-07T13:55:34Z</time>
      </trkpt>
      <trkpt lat="46.20683" lon="4.53108">
        <ele>662.6</ele>
        <time>2025-09-07T13:55:35Z</time>
      </trkpt>
      <trkpt lat="46.20684" lon="4.53106">
        <ele>662.8</ele>
        <time>2025-09-07T13:55:36Z</time>
      </trkpt>
      <trkpt lat="46.20685" lon="4.53105">
        <ele>662.8</ele>
        <time>2025-09-07T13:55:37Z</time>
      </trkpt>
      <trkpt lat="46.20686" lon="4.53103">
        <ele>663.2</ele>
        <time>2025-09-07T13:55:38Z</time>
      </trkpt>
      <trkpt lat="46.20687" lon="4.53101">
        <ele>663.2</ele>
        <time>2025-09-07T13:55:39Z</time>
      </trkpt>
      <trkpt lat="46.20689" lon="4.53099">
        <ele>663.4</ele>
        <time>2025-09-07T13:55:40Z</time>
      </trkpt>
      <trkpt lat="46.20691" lon="4.53097">
        <ele>663.4</ele>
        <time>2025-09-07T13:55:41Z</time>
      </trkpt>
      <trkpt lat="46.20692" lon="4.53095">
        <ele>663.4</ele>
        <time>2025-09-07T13:55:42Z</time>
      </trkpt>
      <trkpt lat="46.20693" lon="4.53093">
        <ele>663.8</ele>
        <time>2025-09-07T13:55:43Z</time>
      </trkpt>
      <trkpt lat="46.20695" lon="4.53091">
        <ele>663.8</ele>
        <time>2025-09-07T13:55:44Z</time>
      </trkpt>
      <trkpt lat="46.20696" lon="4.53089">
        <ele>663.8</ele>
        <time>2025-09-07T13:55:45Z</time>
      </trkpt>
      <trkpt lat="46.20697" lon="4.53087">
        <ele>664</ele>
        <time>2025-09-07T13:55:46Z</time>
      </trkpt>
      <trkpt lat="46.20698" lon="4.53085">
        <ele>664.4</ele>
        <time>2025-09-07T13:55:47Z</time>
      </trkpt>
      <trkpt lat="46.20699" lon="4.53084">
        <ele>664.4</ele>
        <time>2025-09-07T13:55:48Z</time>
      </trkpt>
      <trkpt lat="46.207" lon="4.53082">
        <ele>664.6</ele>
        <time>2025-09-07T13:55:49Z</time>
      </trkpt>
      <trkpt lat="46.20701" lon="4.5308">
        <ele>664.6</ele>
        <time>2025-09-07T13:55:50Z</time>
      </trkpt>
      <trkpt lat="46.20702" lon="4.53079">
        <ele>664.6</ele>
        <time>2025-09-07T13:55:51Z</time>
      </trkpt>
      <trkpt lat="46.20703" lon="4.53077">
        <ele>665</ele>
        <time>2025-09-07T13:55:52Z</time>
      </trkpt>
      <trkpt lat="46.20704" lon="4.53076">
        <ele>665</ele>
        <time>2025-09-07T13:55:53Z</time>
      </trkpt>
      <trkpt lat="46.20705" lon="4.53075">
        <ele>665.4</ele>
        <time>2025-09-07T13:55:54Z</time>
      </trkpt>
      <trkpt lat="46.20706" lon="4.53073">
        <ele>665.4</ele>
        <time>2025-09-07T13:55:55Z</time>
      </trkpt>
      <trkpt lat="46.20707" lon="4.53072">
        <ele>665.8</ele>
        <time>2025-09-07T13:55:56Z</time>
      </trkpt>
      <trkpt lat="46.20708" lon="4.53071">
        <ele>665.8</ele>
        <time>2025-09-07T13:55:57Z</time>
      </trkpt>
      <trkpt lat="46.20708" lon="4.53071">
        <ele>666.2</ele>
        <time>2025-09-07T13:55:58Z</time>
      </trkpt>
      <trkpt lat="46.20709" lon="4.5307">
        <ele>666.4</ele>
        <time>2025-09-07T13:55:59Z</time>
      </trkpt>
      <trkpt lat="46.2071" lon="4.53069">
        <ele>666.4</ele>
        <time>2025-09-07T13:56:00Z</time>
      </trkpt>
      <trkpt lat="46.2071" lon="4.53068">
        <ele>666.6</ele>
        <time>2025-09-07T13:56:01Z</time>
      </trkpt>
      <trkpt lat="46.20711" lon="4.53066">
        <ele>666.6</ele>
        <time>2025-09-07T13:56:02Z</time>
      </trkpt>
      <trkpt lat="46.20711" lon="4.53065">
        <ele>666.8</ele>
        <time>2025-09-07T13:56:03Z</time>
      </trkpt>
      <trkpt lat="46.20712" lon="4.53064">
        <ele>666.8</ele>
        <time>2025-09-07T13:56:04Z</time>
      </trkpt>
      <trkpt lat="46.20713" lon="4.53062">
        <ele>666.8</ele>
        <time>2025-09-07T13:56:05Z</time>
      </trkpt>
      <trkpt lat="46.20713" lon="4.53061">
        <ele>667.2</ele>
        <time>2025-09-07T13:56:06Z</time>
      </trkpt>
      <trkpt lat="46.20714" lon="4.53059">
        <ele>667.2</ele>
        <time>2025-09-07T13:56:07Z</time>
      </trkpt>
      <trkpt lat="46.20715" lon="4.53057">
        <ele>667.6</ele>
        <time>2025-09-07T13:56:08Z</time>
      </trkpt>
      <trkpt lat="46.20716" lon="4.53056">
        <ele>667.6</ele>
        <time>2025-09-07T13:56:09Z</time>
      </trkpt>
      <trkpt lat="46.20717" lon="4.53055">
        <ele>667.6</ele>
        <time>2025-09-07T13:56:10Z</time>
      </trkpt>
      <trkpt lat="46.20718" lon="4.53053">
        <ele>667.8</ele>
        <time>2025-09-07T13:56:11Z</time>
      </trkpt>
      <trkpt lat="46.20719" lon="4.53051">
        <ele>667.8</ele>
        <time>2025-09-07T13:56:12Z</time>
      </trkpt>
      <trkpt lat="46.2072" lon="4.53049">
        <ele>667.8</ele>
        <time>2025-09-07T13:56:13Z</time>
      </trkpt>
      <trkpt lat="46.20721" lon="4.53047">
        <ele>668</ele>
        <time>2025-09-07T13:56:14Z</time>
      </trkpt>
      <trkpt lat="46.20721" lon="4.53045">
        <ele>668</ele>
        <time>2025-09-07T13:56:15Z</time>
      </trkpt>
      <trkpt lat="46.20722" lon="4.53043">
        <ele>668</ele>
        <time>2025-09-07T13:56:16Z</time>
      </trkpt>
      <trkpt lat="46.20723" lon="4.53041">
        <ele>668.4</ele>
        <time>2025-09-07T13:56:17Z</time>
      </trkpt>
      <trkpt lat="46.20724" lon="4.53039">
        <ele>668.4</ele>
        <time>2025-09-07T13:56:18Z</time>
      </trkpt>
      <trkpt lat="46.20726" lon="4.53038">
        <ele>668.4</ele>
        <time>2025-09-07T13:56:19Z</time>
      </trkpt>
      <trkpt lat="46.20727" lon="4.53037">
        <ele>668.6</ele>
        <time>2025-09-07T13:56:20Z</time>
      </trkpt>
      <trkpt lat="46.20729" lon="4.53036">
        <ele>668.6</ele>
        <time>2025-09-07T13:56:21Z</time>
      </trkpt>
      <trkpt lat="46.20731" lon="4.53035">
        <ele>668.6</ele>
        <time>2025-09-07T13:56:22Z</time>
      </trkpt>
      <trkpt lat="46.20732" lon="4.53034">
        <ele>669</ele>
        <time>2025-09-07T13:56:23Z</time>
      </trkpt>
      <trkpt lat="46.20734" lon="4.53033">
        <ele>669</ele>
        <time>2025-09-07T13:56:24Z</time>
      </trkpt>
      <trkpt lat="46.20735" lon="4.53031">
        <ele>669.2</ele>
        <time>2025-09-07T13:56:25Z</time>
      </trkpt>
      <trkpt lat="46.20736" lon="4.5303">
        <ele>669.2</ele>
        <time>2025-09-07T13:56:26Z</time>
      </trkpt>
      <trkpt lat="46.20736" lon="4.53028">
        <ele>669.4</ele>
        <time>2025-09-07T13:56:27Z</time>
      </trkpt>
      <trkpt lat="46.20737" lon="4.53025">
        <ele>669.4</ele>
        <time>2025-09-07T13:56:28Z</time>
      </trkpt>
      <trkpt lat="46.20738" lon="4.53023">
        <ele>669.4</ele>
        <time>2025-09-07T13:56:29Z</time>
      </trkpt>
      <trkpt lat="46.2074" lon="4.53021">
        <ele>669.4</ele>
        <time>2025-09-07T13:56:30Z</time>
      </trkpt>
      <trkpt lat="46.20741" lon="4.5302">
        <ele>669.6</ele>
        <time>2025-09-07T13:56:31Z</time>
      </trkpt>
      <trkpt lat="46.20743" lon="4.53018">
        <ele>669.6</ele>
        <time>2025-09-07T13:56:32Z</time>
      </trkpt>
      <trkpt lat="46.20744" lon="4.53017">
        <ele>669.8</ele>
        <time>2025-09-07T13:56:33Z</time>
      </trkpt>
      <trkpt lat="46.20743" lon="4.53016">
        <ele>669.8</ele>
        <time>2025-09-07T13:56:34Z</time>
      </trkpt>
      <trkpt lat="46.20744" lon="4.53013">
        <ele>669.8</ele>
        <time>2025-09-07T13:56:35Z</time>
      </trkpt>
      <trkpt lat="46.20745" lon="4.53011">
        <ele>670.2</ele>
        <time>2025-09-07T13:56:36Z</time>
      </trkpt>
      <trkpt lat="46.20746" lon="4.53009">
        <ele>670.4</ele>
        <time>2025-09-07T13:56:37Z</time>
      </trkpt>
      <trkpt lat="46.20748" lon="4.53007">
        <ele>670.8</ele>
        <time>2025-09-07T13:56:38Z</time>
      </trkpt>
      <trkpt lat="46.20749" lon="4.53005">
        <ele>670.8</ele>
        <time>2025-09-07T13:56:39Z</time>
      </trkpt>
      <trkpt lat="46.20751" lon="4.53004">
        <ele>670.8</ele>
        <time>2025-09-07T13:56:40Z</time>
      </trkpt>
      <trkpt lat="46.20753" lon="4.53002">
        <ele>670.8</ele>
        <time>2025-09-07T13:56:41Z</time>
      </trkpt>
      <trkpt lat="46.20755" lon="4.53001">
        <ele>670.8</ele>
        <time>2025-09-07T13:56:42Z</time>
      </trkpt>
      <trkpt lat="46.20756" lon="4.53">
        <ele>671</ele>
        <time>2025-09-07T13:56:43Z</time>
      </trkpt>
      <trkpt lat="46.20758" lon="4.52998">
        <ele>671</ele>
        <time>2025-09-07T13:56:44Z</time>
      </trkpt>
      <trkpt lat="46.20759" lon="4.52996">
        <ele>671.2</ele>
        <time>2025-09-07T13:56:45Z</time>
      </trkpt>
      <trkpt lat="46.20761" lon="4.52994">
        <ele>671.2</ele>
        <time>2025-09-07T13:56:46Z</time>
      </trkpt>
      <trkpt lat="46.20762" lon="4.52992">
        <ele>671.2</ele>
        <time>2025-09-07T13:56:47Z</time>
      </trkpt>
      <trkpt lat="46.20763" lon="4.52991">
        <ele>671.6</ele>
        <time>2025-09-07T13:56:48Z</time>
      </trkpt>
      <trkpt lat="46.20764" lon="4.5299">
        <ele>671.6</ele>
        <time>2025-09-07T13:56:49Z</time>
      </trkpt>
      <trkpt lat="46.20766" lon="4.52989">
        <ele>671.6</ele>
        <time>2025-09-07T13:56:50Z</time>
      </trkpt>
      <trkpt lat="46.20768" lon="4.52988">
        <ele>671.8</ele>
        <time>2025-09-07T13:56:51Z</time>
      </trkpt>
      <trkpt lat="46.20769" lon="4.52986">
        <ele>671.8</ele>
        <time>2025-09-07T13:56:52Z</time>
      </trkpt>
      <trkpt lat="46.20771" lon="4.52985">
        <ele>672.2</ele>
        <time>2025-09-07T13:56:53Z</time>
      </trkpt>
      <trkpt lat="46.20772" lon="4.52983">
        <ele>672.2</ele>
        <time>2025-09-07T13:56:54Z</time>
      </trkpt>
      <trkpt lat="46.20774" lon="4.52982">
        <ele>672.6</ele>
        <time>2025-09-07T13:56:55Z</time>
      </trkpt>
      <trkpt lat="46.20775" lon="4.52981">
        <ele>673</ele>
        <time>2025-09-07T13:56:56Z</time>
      </trkpt>
      <trkpt lat="46.20777" lon="4.5298">
        <ele>673</ele>
        <time>2025-09-07T13:56:57Z</time>
      </trkpt>
      <trkpt lat="46.20778" lon="4.5298">
        <ele>673</ele>
        <time>2025-09-07T13:56:58Z</time>
      </trkpt>
      <trkpt lat="46.2078" lon="4.5298">
        <ele>673.2</ele>
        <time>2025-09-07T13:56:59Z</time>
      </trkpt>
      <trkpt lat="46.20782" lon="4.5298">
        <ele>673.2</ele>
        <time>2025-09-07T13:57:00Z</time>
      </trkpt>
      <trkpt lat="46.20784" lon="4.52979">
        <ele>673.2</ele>
        <time>2025-09-07T13:57:01Z</time>
      </trkpt>
      <trkpt lat="46.20786" lon="4.52979">
        <ele>673.2</ele>
        <time>2025-09-07T13:57:02Z</time>
      </trkpt>
      <trkpt lat="46.20788" lon="4.52978">
        <ele>673.6</ele>
        <time>2025-09-07T13:57:03Z</time>
      </trkpt>
      <trkpt lat="46.20789" lon="4.52977">
        <ele>673.6</ele>
        <time>2025-09-07T13:57:04Z</time>
      </trkpt>
      <trkpt lat="46.20791" lon="4.52977">
        <ele>673.8</ele>
        <time>2025-09-07T13:57:05Z</time>
      </trkpt>
      <trkpt lat="46.20792" lon="4.52976">
        <ele>674.2</ele>
        <time>2025-09-07T13:57:06Z</time>
      </trkpt>
      <trkpt lat="46.20794" lon="4.52975">
        <ele>674.2</ele>
        <time>2025-09-07T13:57:07Z</time>
      </trkpt>
      <trkpt lat="46.20795" lon="4.52973">
        <ele>674.2</ele>
        <time>2025-09-07T13:57:08Z</time>
      </trkpt>
      <trkpt lat="46.20796" lon="4.52972">
        <ele>674.6</ele>
        <time>2025-09-07T13:57:09Z</time>
      </trkpt>
      <trkpt lat="46.20797" lon="4.52971">
        <ele>674.8</ele>
        <time>2025-09-07T13:57:10Z</time>
      </trkpt>
      <trkpt lat="46.20798" lon="4.5297">
        <ele>674.8</ele>
        <time>2025-09-07T13:57:11Z</time>
      </trkpt>
      <trkpt lat="46.20799" lon="4.52968">
        <ele>675.2</ele>
        <time>2025-09-07T13:57:12Z</time>
      </trkpt>
      <trkpt lat="46.208" lon="4.52968">
        <ele>675.2</ele>
        <time>2025-09-07T13:57:13Z</time>
      </trkpt>
      <trkpt lat="46.208" lon="4.52967">
        <ele>675.4</ele>
        <time>2025-09-07T13:57:14Z</time>
      </trkpt>
      <trkpt lat="46.20801" lon="4.52965">
        <ele>675.4</ele>
        <time>2025-09-07T13:57:15Z</time>
      </trkpt>
      <trkpt lat="46.20802" lon="4.52964">
        <ele>675.4</ele>
        <time>2025-09-07T13:57:16Z</time>
      </trkpt>
      <trkpt lat="46.20803" lon="4.52963">
        <ele>675.8</ele>
        <time>2025-09-07T13:57:17Z</time>
      </trkpt>
      <trkpt lat="46.20804" lon="4.52962">
        <ele>676.2</ele>
        <time>2025-09-07T13:57:18Z</time>
      </trkpt>
      <trkpt lat="46.20805" lon="4.52961">
        <ele>676.2</ele>
        <time>2025-09-07T13:57:19Z</time>
      </trkpt>
      <trkpt lat="46.20806" lon="4.52959">
        <ele>676.6</ele>
        <time>2025-09-07T13:57:20Z</time>
      </trkpt>
      <trkpt lat="46.20807" lon="4.52958">
        <ele>676.6</ele>
        <time>2025-09-07T13:57:21Z</time>
      </trkpt>
      <trkpt lat="46.20809" lon="4.52957">
        <ele>676.8</ele>
        <time>2025-09-07T13:57:22Z</time>
      </trkpt>
      <trkpt lat="46.2081" lon="4.52957">
        <ele>676.8</ele>
        <time>2025-09-07T13:57:23Z</time>
      </trkpt>
      <trkpt lat="46.20811" lon="4.52956">
        <ele>677</ele>
        <time>2025-09-07T13:57:24Z</time>
      </trkpt>
      <trkpt lat="46.20812" lon="4.52955">
        <ele>677</ele>
        <time>2025-09-07T13:57:25Z</time>
      </trkpt>
      <trkpt lat="46.20813" lon="4.52953">
        <ele>677</ele>
        <time>2025-09-07T13:57:26Z</time>
      </trkpt>
      <trkpt lat="46.20814" lon="4.52952">
        <ele>677.2</ele>
        <time>2025-09-07T13:57:27Z</time>
      </trkpt>
      <trkpt lat="46.20815" lon="4.5295">
        <ele>677.2</ele>
        <time>2025-09-07T13:57:28Z</time>
      </trkpt>
      <trkpt lat="46.20817" lon="4.52948">
        <ele>677.2</ele>
        <time>2025-09-07T13:57:29Z</time>
      </trkpt>
      <trkpt lat="46.20818" lon="4.52946">
        <ele>677.2</ele>
        <time>2025-09-07T13:57:30Z</time>
      </trkpt>
      <trkpt lat="46.20818" lon="4.52944">
        <ele>677.4</ele>
        <time>2025-09-07T13:57:31Z</time>
      </trkpt>
      <trkpt lat="46.20819" lon="4.52943">
        <ele>677.4</ele>
        <time>2025-09-07T13:57:32Z</time>
      </trkpt>
      <trkpt lat="46.20819" lon="4.52942">
        <ele>677.4</ele>
        <time>2025-09-07T13:57:33Z</time>
      </trkpt>
      <trkpt lat="46.2082" lon="4.5294">
        <ele>677.4</ele>
        <time>2025-09-07T13:57:34Z</time>
      </trkpt>
      <trkpt lat="46.20821" lon="4.52939">
        <ele>677.4</ele>
        <time>2025-09-07T13:57:35Z</time>
      </trkpt>
      <trkpt lat="46.20822" lon="4.52937">
        <ele>677.8</ele>
        <time>2025-09-07T13:57:36Z</time>
      </trkpt>
      <trkpt lat="46.20823" lon="4.52936">
        <ele>678.2</ele>
        <time>2025-09-07T13:57:37Z</time>
      </trkpt>
      <trkpt lat="46.20824" lon="4.52935">
        <ele>678.2</ele>
        <time>2025-09-07T13:57:38Z</time>
      </trkpt>
      <trkpt lat="46.20825" lon="4.52933">
        <ele>678.2</ele>
        <time>2025-09-07T13:57:39Z</time>
      </trkpt>
      <trkpt lat="46.20826" lon="4.52932">
        <ele>678.2</ele>
        <time>2025-09-07T13:57:40Z</time>
      </trkpt>
      <trkpt lat="46.20828" lon="4.52931">
        <ele>678.2</ele>
        <time>2025-09-07T13:57:41Z</time>
      </trkpt>
      <trkpt lat="46.20829" lon="4.5293">
        <ele>678.4</ele>
        <time>2025-09-07T13:57:42Z</time>
      </trkpt>
      <trkpt lat="46.20831" lon="4.52929">
        <ele>678.6</ele>
        <time>2025-09-07T13:57:43Z</time>
      </trkpt>
      <trkpt lat="46.20832" lon="4.52928">
        <ele>678.6</ele>
        <time>2025-09-07T13:57:44Z</time>
      </trkpt>
      <trkpt lat="46.20834" lon="4.52926">
        <ele>678.6</ele>
        <time>2025-09-07T13:57:45Z</time>
      </trkpt>
      <trkpt lat="46.20835" lon="4.52924">
        <ele>678.6</ele>
        <time>2025-09-07T13:57:46Z</time>
      </trkpt>
      <trkpt lat="46.20836" lon="4.52922">
        <ele>678.6</ele>
        <time>2025-09-07T13:57:47Z</time>
      </trkpt>
      <trkpt lat="46.20836" lon="4.52921">
        <ele>678.8</ele>
        <time>2025-09-07T13:57:48Z</time>
      </trkpt>
      <trkpt lat="46.20837" lon="4.52919">
        <ele>678.8</ele>
        <time>2025-09-07T13:57:49Z</time>
      </trkpt>
      <trkpt lat="46.20838" lon="4.52917">
        <ele>678.8</ele>
        <time>2025-09-07T13:57:50Z</time>
      </trkpt>
      <trkpt lat="46.20839" lon="4.52916">
        <ele>678.8</ele>
        <time>2025-09-07T13:57:51Z</time>
      </trkpt>
      <trkpt lat="46.2084" lon="4.52915">
        <ele>679.2</ele>
        <time>2025-09-07T13:57:52Z</time>
      </trkpt>
      <trkpt lat="46.2084" lon="4.52913">
        <ele>679.4</ele>
        <time>2025-09-07T13:57:53Z</time>
      </trkpt>
      <trkpt lat="46.20841" lon="4.52912">
        <ele>679.6</ele>
        <time>2025-09-07T13:57:54Z</time>
      </trkpt>
      <trkpt lat="46.20842" lon="4.5291">
        <ele>679.6</ele>
        <time>2025-09-07T13:57:55Z</time>
      </trkpt>
      <trkpt lat="46.20843" lon="4.52909">
        <ele>679.6</ele>
        <time>2025-09-07T13:57:56Z</time>
      </trkpt>
      <trkpt lat="46.20844" lon="4.52908">
        <ele>679.8</ele>
        <time>2025-09-07T13:57:57Z</time>
      </trkpt>
      <trkpt lat="46.20845" lon="4.52906">
        <ele>679.8</ele>
        <time>2025-09-07T13:57:58Z</time>
      </trkpt>
      <trkpt lat="46.20846" lon="4.52905">
        <ele>679.8</ele>
        <time>2025-09-07T13:57:59Z</time>
      </trkpt>
      <trkpt lat="46.20847" lon="4.52903">
        <ele>680.2</ele>
        <time>2025-09-07T13:58:00Z</time>
      </trkpt>
      <trkpt lat="46.20847" lon="4.52901">
        <ele>680.2</ele>
        <time>2025-09-07T13:58:01Z</time>
      </trkpt>
      <trkpt lat="46.20848" lon="4.529">
        <ele>680.2</ele>
        <time>2025-09-07T13:58:02Z</time>
      </trkpt>
      <trkpt lat="46.20849" lon="4.52898">
        <ele>680.4</ele>
        <time>2025-09-07T13:58:03Z</time>
      </trkpt>
      <trkpt lat="46.2085" lon="4.52895">
        <ele>680.4</ele>
        <time>2025-09-07T13:58:04Z</time>
      </trkpt>
      <trkpt lat="46.2085" lon="4.52893">
        <ele>680.6</ele>
        <time>2025-09-07T13:58:05Z</time>
      </trkpt>
      <trkpt lat="46.20851" lon="4.52892">
        <ele>680.6</ele>
        <time>2025-09-07T13:58:06Z</time>
      </trkpt>
      <trkpt lat="46.20852" lon="4.5289">
        <ele>681</ele>
        <time>2025-09-07T13:58:07Z</time>
      </trkpt>
      <trkpt lat="46.20853" lon="4.52888">
        <ele>681</ele>
        <time>2025-09-07T13:58:08Z</time>
      </trkpt>
      <trkpt lat="46.20853" lon="4.52886">
        <ele>681.2</ele>
        <time>2025-09-07T13:58:09Z</time>
      </trkpt>
      <trkpt lat="46.20853" lon="4.52884">
        <ele>681.2</ele>
        <time>2025-09-07T13:58:10Z</time>
      </trkpt>
      <trkpt lat="46.20854" lon="4.52883">
        <ele>681.4</ele>
        <time>2025-09-07T13:58:11Z</time>
      </trkpt>
      <trkpt lat="46.20854" lon="4.52881">
        <ele>681.4</ele>
        <time>2025-09-07T13:58:12Z</time>
      </trkpt>
      <trkpt lat="46.20855" lon="4.5288">
        <ele>681.4</ele>
        <time>2025-09-07T13:58:13Z</time>
      </trkpt>
      <trkpt lat="46.20855" lon="4.52878">
        <ele>681.6</ele>
        <time>2025-09-07T13:58:14Z</time>
      </trkpt>
      <trkpt lat="46.20856" lon="4.52877">
        <ele>681.6</ele>
        <time>2025-09-07T13:58:15Z</time>
      </trkpt>
      <trkpt lat="46.20856" lon="4.52875">
        <ele>681.6</ele>
        <time>2025-09-07T13:58:16Z</time>
      </trkpt>
      <trkpt lat="46.20856" lon="4.52873">
        <ele>682</ele>
        <time>2025-09-07T13:58:17Z</time>
      </trkpt>
      <trkpt lat="46.20857" lon="4.52871">
        <ele>682.2</ele>
        <time>2025-09-07T13:58:18Z</time>
      </trkpt>
      <trkpt lat="46.20857" lon="4.52869">
        <ele>682.2</ele>
        <time>2025-09-07T13:58:19Z</time>
      </trkpt>
      <trkpt lat="46.20858" lon="4.52867">
        <ele>682.6</ele>
        <time>2025-09-07T13:58:20Z</time>
      </trkpt>
      <trkpt lat="46.20858" lon="4.52866">
        <ele>682.8</ele>
        <time>2025-09-07T13:58:21Z</time>
      </trkpt>
      <trkpt lat="46.20859" lon="4.52864">
        <ele>683</ele>
        <time>2025-09-07T13:58:22Z</time>
      </trkpt>
      <trkpt lat="46.20859" lon="4.52862">
        <ele>683</ele>
        <time>2025-09-07T13:58:23Z</time>
      </trkpt>
      <trkpt lat="46.20861" lon="4.52859">
        <ele>683.2</ele>
        <time>2025-09-07T13:58:24Z</time>
      </trkpt>
      <trkpt lat="46.20861" lon="4.52858">
        <ele>683.2</ele>
        <time>2025-09-07T13:58:25Z</time>
      </trkpt>
      <trkpt lat="46.20862" lon="4.52856">
        <ele>683.6</ele>
        <time>2025-09-07T13:58:26Z</time>
      </trkpt>
      <trkpt lat="46.20863" lon="4.52854">
        <ele>683.6</ele>
        <time>2025-09-07T13:58:27Z</time>
      </trkpt>
      <trkpt lat="46.20863" lon="4.52852">
        <ele>683.8</ele>
        <time>2025-09-07T13:58:28Z</time>
      </trkpt>
      <trkpt lat="46.20864" lon="4.5285">
        <ele>683.8</ele>
        <time>2025-09-07T13:58:29Z</time>
      </trkpt>
      <trkpt lat="46.20864" lon="4.52848">
        <ele>683.8</ele>
        <time>2025-09-07T13:58:30Z</time>
      </trkpt>
      <trkpt lat="46.20864" lon="4.52847">
        <ele>683.8</ele>
        <time>2025-09-07T13:58:31Z</time>
      </trkpt>
      <trkpt lat="46.20865" lon="4.52845">
        <ele>683.8</ele>
        <time>2025-09-07T13:58:32Z</time>
      </trkpt>
      <trkpt lat="46.20865" lon="4.52843">
        <ele>684</ele>
        <time>2025-09-07T13:58:33Z</time>
      </trkpt>
      <trkpt lat="46.20866" lon="4.52841">
        <ele>684</ele>
        <time>2025-09-07T13:58:34Z</time>
      </trkpt>
      <trkpt lat="46.20866" lon="4.52839">
        <ele>684</ele>
        <time>2025-09-07T13:58:35Z</time>
      </trkpt>
      <trkpt lat="46.20866" lon="4.52836">
        <ele>684</ele>
        <time>2025-09-07T13:58:36Z</time>
      </trkpt>
      <trkpt lat="46.20866" lon="4.52834">
        <ele>684.4</ele>
        <time>2025-09-07T13:58:37Z</time>
      </trkpt>
      <trkpt lat="46.20866" lon="4.52833">
        <ele>684.4</ele>
        <time>2025-09-07T13:58:38Z</time>
      </trkpt>
      <trkpt lat="46.20866" lon="4.52831">
        <ele>684.4</ele>
        <time>2025-09-07T13:58:39Z</time>
      </trkpt>
      <trkpt lat="46.20867" lon="4.52829">
        <ele>684.4</ele>
        <time>2025-09-07T13:58:40Z</time>
      </trkpt>
      <trkpt lat="46.20867" lon="4.52827">
        <ele>684.6</ele>
        <time>2025-09-07T13:58:41Z</time>
      </trkpt>
      <trkpt lat="46.20868" lon="4.52825">
        <ele>684.6</ele>
        <time>2025-09-07T13:58:42Z</time>
      </trkpt>
      <trkpt lat="46.20868" lon="4.52824">
        <ele>684.6</ele>
        <time>2025-09-07T13:58:43Z</time>
      </trkpt>
      <trkpt lat="46.20869" lon="4.52822">
        <ele>684.6</ele>
        <time>2025-09-07T13:58:44Z</time>
      </trkpt>
      <trkpt lat="46.20869" lon="4.5282">
        <ele>684.6</ele>
        <time>2025-09-07T13:58:45Z</time>
      </trkpt>
      <trkpt lat="46.20869" lon="4.52818">
        <ele>684.8</ele>
        <time>2025-09-07T13:58:46Z</time>
      </trkpt>
      <trkpt lat="46.20868" lon="4.52816">
        <ele>684.8</ele>
        <time>2025-09-07T13:58:47Z</time>
      </trkpt>
      <trkpt lat="46.20869" lon="4.52814">
        <ele>684.8</ele>
        <time>2025-09-07T13:58:48Z</time>
      </trkpt>
      <trkpt lat="46.20869" lon="4.52812">
        <ele>684.8</ele>
        <time>2025-09-07T13:58:49Z</time>
      </trkpt>
      <trkpt lat="46.2087" lon="4.5281">
        <ele>684.8</ele>
        <time>2025-09-07T13:58:50Z</time>
      </trkpt>
      <trkpt lat="46.20871" lon="4.52808">
        <ele>685.2</ele>
        <time>2025-09-07T13:58:51Z</time>
      </trkpt>
      <trkpt lat="46.20871" lon="4.52806">
        <ele>685.2</ele>
        <time>2025-09-07T13:58:52Z</time>
      </trkpt>
      <trkpt lat="46.20872" lon="4.52804">
        <ele>685.4</ele>
        <time>2025-09-07T13:58:53Z</time>
      </trkpt>
      <trkpt lat="46.20872" lon="4.52801">
        <ele>685.4</ele>
        <time>2025-09-07T13:58:54Z</time>
      </trkpt>
      <trkpt lat="46.20872" lon="4.52799">
        <ele>685.6</ele>
        <time>2025-09-07T13:58:55Z</time>
      </trkpt>
      <trkpt lat="46.20872" lon="4.52797">
        <ele>685.6</ele>
        <time>2025-09-07T13:58:56Z</time>
      </trkpt>
      <trkpt lat="46.20873" lon="4.52795">
        <ele>685.6</ele>
        <time>2025-09-07T13:58:57Z</time>
      </trkpt>
      <trkpt lat="46.20873" lon="4.52793">
        <ele>685.6</ele>
        <time>2025-09-07T13:58:58Z</time>
      </trkpt>
      <trkpt lat="46.20874" lon="4.52791">
        <ele>686</ele>
        <time>2025-09-07T13:58:59Z</time>
      </trkpt>
      <trkpt lat="46.20874" lon="4.52789">
        <ele>686</ele>
        <time>2025-09-07T13:59:00Z</time>
      </trkpt>
      <trkpt lat="46.20874" lon="4.52788">
        <ele>686</ele>
        <time>2025-09-07T13:59:01Z</time>
      </trkpt>
      <trkpt lat="46.20875" lon="4.52786">
        <ele>686.4</ele>
        <time>2025-09-07T13:59:02Z</time>
      </trkpt>
      <trkpt lat="46.20876" lon="4.52784">
        <ele>686.4</ele>
        <time>2025-09-07T13:59:03Z</time>
      </trkpt>
      <trkpt lat="46.20876" lon="4.52783">
        <ele>686.4</ele>
        <time>2025-09-07T13:59:04Z</time>
      </trkpt>
      <trkpt lat="46.20876" lon="4.52782">
        <ele>686.6</ele>
        <time>2025-09-07T13:59:05Z</time>
      </trkpt>
      <trkpt lat="46.20876" lon="4.52779">
        <ele>686.6</ele>
        <time>2025-09-07T13:59:06Z</time>
      </trkpt>
      <trkpt lat="46.20876" lon="4.52779">
        <ele>686.6</ele>
        <time>2025-09-07T13:59:07Z</time>
      </trkpt>
      <trkpt lat="46.20876" lon="4.52777">
        <ele>687</ele>
        <time>2025-09-07T13:59:08Z</time>
      </trkpt>
      <trkpt lat="46.20876" lon="4.52776">
        <ele>687</ele>
        <time>2025-09-07T13:59:09Z</time>
      </trkpt>
      <trkpt lat="46.20876" lon="4.52773">
        <ele>687.2</ele>
        <time>2025-09-07T13:59:10Z</time>
      </trkpt>
      <trkpt lat="46.20876" lon="4.52771">
        <ele>687.2</ele>
        <time>2025-09-07T13:59:11Z</time>
      </trkpt>
      <trkpt lat="46.20877" lon="4.52768">
        <ele>687.4</ele>
        <time>2025-09-07T13:59:12Z</time>
      </trkpt>
      <trkpt lat="46.20877" lon="4.52766">
        <ele>687.4</ele>
        <time>2025-09-07T13:59:13Z</time>
      </trkpt>
      <trkpt lat="46.20878" lon="4.52764">
        <ele>687.8</ele>
        <time>2025-09-07T13:59:14Z</time>
      </trkpt>
      <trkpt lat="46.20878" lon="4.52762">
        <ele>687.8</ele>
        <time>2025-09-07T13:59:15Z</time>
      </trkpt>
      <trkpt lat="46.20879" lon="4.52759">
        <ele>687.8</ele>
        <time>2025-09-07T13:59:16Z</time>
      </trkpt>
      <trkpt lat="46.20879" lon="4.52757">
        <ele>688</ele>
        <time>2025-09-07T13:59:17Z</time>
      </trkpt>
      <trkpt lat="46.20879" lon="4.52755">
        <ele>688.4</ele>
        <time>2025-09-07T13:59:18Z</time>
      </trkpt>
      <trkpt lat="46.2088" lon="4.52753">
        <ele>688.4</ele>
        <time>2025-09-07T13:59:19Z</time>
      </trkpt>
      <trkpt lat="46.2088" lon="4.52751">
        <ele>688.6</ele>
        <time>2025-09-07T13:59:20Z</time>
      </trkpt>
      <trkpt lat="46.2088" lon="4.52749">
        <ele>688.6</ele>
        <time>2025-09-07T13:59:21Z</time>
      </trkpt>
      <trkpt lat="46.20879" lon="4.52746">
        <ele>688.6</ele>
        <time>2025-09-07T13:59:22Z</time>
      </trkpt>
      <trkpt lat="46.20879" lon="4.52743">
        <ele>688.6</ele>
        <time>2025-09-07T13:59:23Z</time>
      </trkpt>
      <trkpt lat="46.20879" lon="4.52741">
        <ele>688.8</ele>
        <time>2025-09-07T13:59:24Z</time>
      </trkpt>
      <trkpt lat="46.2088" lon="4.52738">
        <ele>688.8</ele>
        <time>2025-09-07T13:59:25Z</time>
      </trkpt>
      <trkpt lat="46.2088" lon="4.52736">
        <ele>688.8</ele>
        <time>2025-09-07T13:59:26Z</time>
      </trkpt>
      <trkpt lat="46.2088" lon="4.52734">
        <ele>689</ele>
        <time>2025-09-07T13:59:27Z</time>
      </trkpt>
      <trkpt lat="46.20879" lon="4.52732">
        <ele>689</ele>
        <time>2025-09-07T13:59:28Z</time>
      </trkpt>
      <trkpt lat="46.20879" lon="4.5273">
        <ele>689.2</ele>
        <time>2025-09-07T13:59:29Z</time>
      </trkpt>
      <trkpt lat="46.20879" lon="4.52728">
        <ele>689.2</ele>
        <time>2025-09-07T13:59:30Z</time>
      </trkpt>
      <trkpt lat="46.20879" lon="4.52726">
        <ele>689.4</ele>
        <time>2025-09-07T13:59:31Z</time>
      </trkpt>
      <trkpt lat="46.20878" lon="4.52726">
        <ele>689.4</ele>
        <time>2025-09-07T13:59:32Z</time>
      </trkpt>
      <trkpt lat="46.20879" lon="4.52724">
        <ele>689.8</ele>
        <time>2025-09-07T13:59:33Z</time>
      </trkpt>
      <trkpt lat="46.20879" lon="4.52722">
        <ele>689.8</ele>
        <time>2025-09-07T13:59:34Z</time>
      </trkpt>
      <trkpt lat="46.20878" lon="4.5272">
        <ele>689.8</ele>
        <time>2025-09-07T13:59:35Z</time>
      </trkpt>
      <trkpt lat="46.20878" lon="4.52718">
        <ele>690</ele>
        <time>2025-09-07T13:59:36Z</time>
      </trkpt>
      <trkpt lat="46.20877" lon="4.52716">
        <ele>690</ele>
        <time>2025-09-07T13:59:37Z</time>
      </trkpt>
      <trkpt lat="46.20876" lon="4.52714">
        <ele>690</ele>
        <time>2025-09-07T13:59:38Z</time>
      </trkpt>
      <trkpt lat="46.20875" lon="4.52711">
        <ele>690.2</ele>
        <time>2025-09-07T13:59:39Z</time>
      </trkpt>
      <trkpt lat="46.20874" lon="4.52708">
        <ele>690.2</ele>
        <time>2025-09-07T13:59:40Z</time>
      </trkpt>
      <trkpt lat="46.20873" lon="4.52706">
        <ele>690.6</ele>
        <time>2025-09-07T13:59:41Z</time>
      </trkpt>
      <trkpt lat="46.20873" lon="4.52704">
        <ele>690.6</ele>
        <time>2025-09-07T13:59:42Z</time>
      </trkpt>
      <trkpt lat="46.20872" lon="4.52702">
        <ele>690.8</ele>
        <time>2025-09-07T13:59:43Z</time>
      </trkpt>
      <trkpt lat="46.20872" lon="4.527">
        <ele>690.8</ele>
        <time>2025-09-07T13:59:44Z</time>
      </trkpt>
      <trkpt lat="46.20873" lon="4.52697">
        <ele>691.2</ele>
        <time>2025-09-07T13:59:45Z</time>
      </trkpt>
      <trkpt lat="46.20873" lon="4.52695">
        <ele>691.2</ele>
        <time>2025-09-07T13:59:46Z</time>
      </trkpt>
      <trkpt lat="46.20873" lon="4.52692">
        <ele>691.6</ele>
        <time>2025-09-07T13:59:47Z</time>
      </trkpt>
      <trkpt lat="46.20873" lon="4.5269">
        <ele>691.6</ele>
        <time>2025-09-07T13:59:48Z</time>
      </trkpt>
      <trkpt lat="46.20873" lon="4.52688">
        <ele>691.6</ele>
        <time>2025-09-07T13:59:49Z</time>
      </trkpt>
      <trkpt lat="46.20873" lon="4.52686">
        <ele>691.6</ele>
        <time>2025-09-07T13:59:50Z</time>
      </trkpt>
      <trkpt lat="46.20874" lon="4.52684">
        <ele>691.6</ele>
        <time>2025-09-07T13:59:51Z</time>
      </trkpt>
      <trkpt lat="46.20874" lon="4.52682">
        <ele>691.8</ele>
        <time>2025-09-07T13:59:52Z</time>
      </trkpt>
      <trkpt lat="46.20873" lon="4.52679">
        <ele>691.8</ele>
        <time>2025-09-07T13:59:53Z</time>
      </trkpt>
      <trkpt lat="46.20873" lon="4.52677">
        <ele>691.8</ele>
        <time>2025-09-07T13:59:54Z</time>
      </trkpt>
      <trkpt lat="46.20873" lon="4.52676">
        <ele>691.8</ele>
        <time>2025-09-07T13:59:55Z</time>
      </trkpt>
      <trkpt lat="46.20873" lon="4.52673">
        <ele>691.8</ele>
        <time>2025-09-07T13:59:56Z</time>
      </trkpt>
      <trkpt lat="46.20872" lon="4.52671">
        <ele>692.4</ele>
        <time>2025-09-07T13:59:57Z</time>
      </trkpt>
      <trkpt lat="46.20872" lon="4.52671">
        <ele>692.6</ele>
        <time>2025-09-07T13:59:58Z</time>
      </trkpt>
      <trkpt lat="46.20872" lon="4.52671">
        <ele>692.6</ele>
        <time>2025-09-07T13:59:59Z</time>
      </trkpt>
      <trkpt lat="46.20871" lon="4.52664">
        <ele>692.8</ele>
        <time>2025-09-07T14:00:01Z</time>
      </trkpt>
      <trkpt lat="46.20871" lon="4.52662">
        <ele>693.2</ele>
        <time>2025-09-07T14:00:02Z</time>
      </trkpt>
      <trkpt lat="46.20871" lon="4.5266">
        <ele>693.2</ele>
        <time>2025-09-07T14:00:03Z</time>
      </trkpt>
      <trkpt lat="46.2087" lon="4.52658">
        <ele>693.6</ele>
        <time>2025-09-07T14:00:04Z</time>
      </trkpt>
      <trkpt lat="46.2087" lon="4.52657">
        <ele>693.8</ele>
        <time>2025-09-07T14:00:05Z</time>
      </trkpt>
      <trkpt lat="46.2087" lon="4.52654">
        <ele>694</ele>
        <time>2025-09-07T14:00:06Z</time>
      </trkpt>
      <trkpt lat="46.20869" lon="4.52652">
        <ele>694</ele>
        <time>2025-09-07T14:00:07Z</time>
      </trkpt>
      <trkpt lat="46.20869" lon="4.52651">
        <ele>694.4</ele>
        <time>2025-09-07T14:00:08Z</time>
      </trkpt>
      <trkpt lat="46.20869" lon="4.52649">
        <ele>694.4</ele>
        <time>2025-09-07T14:00:09Z</time>
      </trkpt>
      <trkpt lat="46.20869" lon="4.52647">
        <ele>694.6</ele>
        <time>2025-09-07T14:00:10Z</time>
      </trkpt>
      <trkpt lat="46.20869" lon="4.52645">
        <ele>694.8</ele>
        <time>2025-09-07T14:00:11Z</time>
      </trkpt>
      <trkpt lat="46.20869" lon="4.52643">
        <ele>694.8</ele>
        <time>2025-09-07T14:00:12Z</time>
      </trkpt>
      <trkpt lat="46.20868" lon="4.52642">
        <ele>695</ele>
        <time>2025-09-07T14:00:13Z</time>
      </trkpt>
      <trkpt lat="46.20868" lon="4.5264">
        <ele>695</ele>
        <time>2025-09-07T14:00:14Z</time>
      </trkpt>
      <trkpt lat="46.20868" lon="4.52639">
        <ele>695</ele>
        <time>2025-09-07T14:00:15Z</time>
      </trkpt>
      <trkpt lat="46.20868" lon="4.52637">
        <ele>695.2</ele>
        <time>2025-09-07T14:00:16Z</time>
      </trkpt>
      <trkpt lat="46.20868" lon="4.52635">
        <ele>695.2</ele>
        <time>2025-09-07T14:00:17Z</time>
      </trkpt>
      <trkpt lat="46.20868" lon="4.52633">
        <ele>695.2</ele>
        <time>2025-09-07T14:00:18Z</time>
      </trkpt>
      <trkpt lat="46.20868" lon="4.52632">
        <ele>695.2</ele>
        <time>2025-09-07T14:00:19Z</time>
      </trkpt>
      <trkpt lat="46.20868" lon="4.5263">
        <ele>695.2</ele>
        <time>2025-09-07T14:00:20Z</time>
      </trkpt>
      <trkpt lat="46.20868" lon="4.52628">
        <ele>695.2</ele>
        <time>2025-09-07T14:00:21Z</time>
      </trkpt>
      <trkpt lat="46.20868" lon="4.52626">
        <ele>695.4</ele>
        <time>2025-09-07T14:00:22Z</time>
      </trkpt>
      <trkpt lat="46.20869" lon="4.52624">
        <ele>695.4</ele>
        <time>2025-09-07T14:00:23Z</time>
      </trkpt>
      <trkpt lat="46.20869" lon="4.52622">
        <ele>695.6</ele>
        <time>2025-09-07T14:00:24Z</time>
      </trkpt>
      <trkpt lat="46.20869" lon="4.5262">
        <ele>695.6</ele>
        <time>2025-09-07T14:00:25Z</time>
      </trkpt>
      <trkpt lat="46.20869" lon="4.52618">
        <ele>695.6</ele>
        <time>2025-09-07T14:00:26Z</time>
      </trkpt>
      <trkpt lat="46.20868" lon="4.52617">
        <ele>696</ele>
        <time>2025-09-07T14:00:27Z</time>
      </trkpt>
      <trkpt lat="46.20868" lon="4.52615">
        <ele>696</ele>
        <time>2025-09-07T14:00:28Z</time>
      </trkpt>
      <trkpt lat="46.20867" lon="4.52612">
        <ele>696</ele>
        <time>2025-09-07T14:00:29Z</time>
      </trkpt>
      <trkpt lat="46.20867" lon="4.5261">
        <ele>696</ele>
        <time>2025-09-07T14:00:30Z</time>
      </trkpt>
      <trkpt lat="46.20867" lon="4.52608">
        <ele>696.2</ele>
        <time>2025-09-07T14:00:31Z</time>
      </trkpt>
      <trkpt lat="46.20868" lon="4.52606">
        <ele>696.2</ele>
        <time>2025-09-07T14:00:32Z</time>
      </trkpt>
      <trkpt lat="46.20868" lon="4.52604">
        <ele>696.2</ele>
        <time>2025-09-07T14:00:33Z</time>
      </trkpt>
      <trkpt lat="46.20868" lon="4.52602">
        <ele>696.2</ele>
        <time>2025-09-07T14:00:34Z</time>
      </trkpt>
      <trkpt lat="46.20868" lon="4.52599">
        <ele>696.4</ele>
        <time>2025-09-07T14:00:35Z</time>
      </trkpt>
      <trkpt lat="46.20869" lon="4.52597">
        <ele>696.4</ele>
        <time>2025-09-07T14:00:36Z</time>
      </trkpt>
      <trkpt lat="46.20869" lon="4.52595">
        <ele>696.4</ele>
        <time>2025-09-07T14:00:37Z</time>
      </trkpt>
      <trkpt lat="46.2087" lon="4.52593">
        <ele>696.8</ele>
        <time>2025-09-07T14:00:38Z</time>
      </trkpt>
      <trkpt lat="46.2087" lon="4.52591">
        <ele>697</ele>
        <time>2025-09-07T14:00:39Z</time>
      </trkpt>
      <trkpt lat="46.2087" lon="4.52588">
        <ele>697</ele>
        <time>2025-09-07T14:00:40Z</time>
      </trkpt>
      <trkpt lat="46.2087" lon="4.52586">
        <ele>697</ele>
        <time>2025-09-07T14:00:41Z</time>
      </trkpt>
      <trkpt lat="46.2087" lon="4.52584">
        <ele>697</ele>
        <time>2025-09-07T14:00:42Z</time>
      </trkpt>
      <trkpt lat="46.2087" lon="4.52582">
        <ele>697.2</ele>
        <time>2025-09-07T14:00:43Z</time>
      </trkpt>
      <trkpt lat="46.2087" lon="4.5258">
        <ele>697.2</ele>
        <time>2025-09-07T14:00:44Z</time>
      </trkpt>
      <trkpt lat="46.2087" lon="4.52578">
        <ele>697.4</ele>
        <time>2025-09-07T14:00:45Z</time>
      </trkpt>
      <trkpt lat="46.2087" lon="4.52576">
        <ele>697.4</ele>
        <time>2025-09-07T14:00:46Z</time>
      </trkpt>
      <trkpt lat="46.2087" lon="4.52575">
        <ele>697.4</ele>
        <time>2025-09-07T14:00:47Z</time>
      </trkpt>
      <trkpt lat="46.2087" lon="4.52573">
        <ele>697.8</ele>
        <time>2025-09-07T14:00:48Z</time>
      </trkpt>
      <trkpt lat="46.2087" lon="4.52571">
        <ele>697.8</ele>
        <time>2025-09-07T14:00:49Z</time>
      </trkpt>
      <trkpt lat="46.2087" lon="4.52569">
        <ele>697.8</ele>
        <time>2025-09-07T14:00:50Z</time>
      </trkpt>
      <trkpt lat="46.2087" lon="4.52567">
        <ele>698</ele>
        <time>2025-09-07T14:00:51Z</time>
      </trkpt>
      <trkpt lat="46.20871" lon="4.52564">
        <ele>698</ele>
        <time>2025-09-07T14:00:52Z</time>
      </trkpt>
      <trkpt lat="46.2087" lon="4.52562">
        <ele>698</ele>
        <time>2025-09-07T14:00:53Z</time>
      </trkpt>
      <trkpt lat="46.2087" lon="4.52559">
        <ele>698.2</ele>
        <time>2025-09-07T14:00:54Z</time>
      </trkpt>
      <trkpt lat="46.2087" lon="4.52557">
        <ele>698.2</ele>
        <time>2025-09-07T14:00:55Z</time>
      </trkpt>
      <trkpt lat="46.20871" lon="4.52555">
        <ele>698.2</ele>
        <time>2025-09-07T14:00:56Z</time>
      </trkpt>
      <trkpt lat="46.20871" lon="4.52553">
        <ele>698.2</ele>
        <time>2025-09-07T14:00:57Z</time>
      </trkpt>
      <trkpt lat="46.20872" lon="4.52551">
        <ele>698.6</ele>
        <time>2025-09-07T14:00:58Z</time>
      </trkpt>
      <trkpt lat="46.20872" lon="4.52549">
        <ele>698.6</ele>
        <time>2025-09-07T14:00:59Z</time>
      </trkpt>
      <trkpt lat="46.20872" lon="4.52547">
        <ele>698.6</ele>
        <time>2025-09-07T14:01:00Z</time>
      </trkpt>
      <trkpt lat="46.20872" lon="4.52544">
        <ele>699</ele>
        <time>2025-09-07T14:01:01Z</time>
      </trkpt>
      <trkpt lat="46.20872" lon="4.52542">
        <ele>699</ele>
        <time>2025-09-07T14:01:02Z</time>
      </trkpt>
      <trkpt lat="46.20872" lon="4.5254">
        <ele>699.2</ele>
        <time>2025-09-07T14:01:03Z</time>
      </trkpt>
      <trkpt lat="46.20871" lon="4.52537">
        <ele>699.2</ele>
        <time>2025-09-07T14:01:04Z</time>
      </trkpt>
      <trkpt lat="46.20871" lon="4.52535">
        <ele>699.6</ele>
        <time>2025-09-07T14:01:05Z</time>
      </trkpt>
      <trkpt lat="46.20871" lon="4.52532">
        <ele>699.6</ele>
        <time>2025-09-07T14:01:06Z</time>
      </trkpt>
      <trkpt lat="46.20871" lon="4.5253">
        <ele>699.6</ele>
        <time>2025-09-07T14:01:07Z</time>
      </trkpt>
      <trkpt lat="46.20872" lon="4.52528">
        <ele>699.6</ele>
        <time>2025-09-07T14:01:08Z</time>
      </trkpt>
      <trkpt lat="46.20872" lon="4.52526">
        <ele>699.8</ele>
        <time>2025-09-07T14:01:09Z</time>
      </trkpt>
      <trkpt lat="46.20871" lon="4.52524">
        <ele>699.8</ele>
        <time>2025-09-07T14:01:10Z</time>
      </trkpt>
      <trkpt lat="46.20872" lon="4.52522">
        <ele>699.8</ele>
        <time>2025-09-07T14:01:11Z</time>
      </trkpt>
      <trkpt lat="46.20872" lon="4.5252">
        <ele>699.8</ele>
        <time>2025-09-07T14:01:12Z</time>
      </trkpt>
      <trkpt lat="46.20872" lon="4.52517">
        <ele>700</ele>
        <time>2025-09-07T14:01:13Z</time>
      </trkpt>
      <trkpt lat="46.20873" lon="4.52515">
        <ele>700</ele>
        <time>2025-09-07T14:01:14Z</time>
      </trkpt>
      <trkpt lat="46.20873" lon="4.52513">
        <ele>700.4</ele>
        <time>2025-09-07T14:01:15Z</time>
      </trkpt>
      <trkpt lat="46.20873" lon="4.52511">
        <ele>700.4</ele>
        <time>2025-09-07T14:01:16Z</time>
      </trkpt>
      <trkpt lat="46.20874" lon="4.5251">
        <ele>700.6</ele>
        <time>2025-09-07T14:01:17Z</time>
      </trkpt>
      <trkpt lat="46.20874" lon="4.52508">
        <ele>700.8</ele>
        <time>2025-09-07T14:01:18Z</time>
      </trkpt>
      <trkpt lat="46.20873" lon="4.52507">
        <ele>700.8</ele>
        <time>2025-09-07T14:01:19Z</time>
      </trkpt>
      <trkpt lat="46.20873" lon="4.52505">
        <ele>700.8</ele>
        <time>2025-09-07T14:01:20Z</time>
      </trkpt>
      <trkpt lat="46.20872" lon="4.52503">
        <ele>700.8</ele>
        <time>2025-09-07T14:01:21Z</time>
      </trkpt>
      <trkpt lat="46.20872" lon="4.52499">
        <ele>701.2</ele>
        <time>2025-09-07T14:01:22Z</time>
      </trkpt>
      <trkpt lat="46.20872" lon="4.52496">
        <ele>701.2</ele>
        <time>2025-09-07T14:01:23Z</time>
      </trkpt>
      <trkpt lat="46.20873" lon="4.52494">
        <ele>701.4</ele>
        <time>2025-09-07T14:01:24Z</time>
      </trkpt>
      <trkpt lat="46.20873" lon="4.52493">
        <ele>701.4</ele>
        <time>2025-09-07T14:01:25Z</time>
      </trkpt>
      <trkpt lat="46.20873" lon="4.52491">
        <ele>701.8</ele>
        <time>2025-09-07T14:01:26Z</time>
      </trkpt>
      <trkpt lat="46.20873" lon="4.52488">
        <ele>701.8</ele>
        <time>2025-09-07T14:01:27Z</time>
      </trkpt>
      <trkpt lat="46.20873" lon="4.52486">
        <ele>702</ele>
        <time>2025-09-07T14:01:28Z</time>
      </trkpt>
      <trkpt lat="46.20872" lon="4.52485">
        <ele>702</ele>
        <time>2025-09-07T14:01:29Z</time>
      </trkpt>
      <trkpt lat="46.20872" lon="4.52483">
        <ele>702</ele>
        <time>2025-09-07T14:01:30Z</time>
      </trkpt>
      <trkpt lat="46.20871" lon="4.52481">
        <ele>702.2</ele>
        <time>2025-09-07T14:01:31Z</time>
      </trkpt>
      <trkpt lat="46.20871" lon="4.52479">
        <ele>702.2</ele>
        <time>2025-09-07T14:01:32Z</time>
      </trkpt>
      <trkpt lat="46.20871" lon="4.52478">
        <ele>702.6</ele>
        <time>2025-09-07T14:01:33Z</time>
      </trkpt>
      <trkpt lat="46.2087" lon="4.52476">
        <ele>702.6</ele>
        <time>2025-09-07T14:01:34Z</time>
      </trkpt>
      <trkpt lat="46.2087" lon="4.52475">
        <ele>702.8</ele>
        <time>2025-09-07T14:01:35Z</time>
      </trkpt>
      <trkpt lat="46.2087" lon="4.52473">
        <ele>702.8</ele>
        <time>2025-09-07T14:01:36Z</time>
      </trkpt>
      <trkpt lat="46.2087" lon="4.52471">
        <ele>702.8</ele>
        <time>2025-09-07T14:01:37Z</time>
      </trkpt>
      <trkpt lat="46.2087" lon="4.52469">
        <ele>703</ele>
        <time>2025-09-07T14:01:38Z</time>
      </trkpt>
      <trkpt lat="46.2087" lon="4.52467">
        <ele>703.4</ele>
        <time>2025-09-07T14:01:39Z</time>
      </trkpt>
      <trkpt lat="46.2087" lon="4.52465">
        <ele>703.4</ele>
        <time>2025-09-07T14:01:40Z</time>
      </trkpt>
      <trkpt lat="46.20869" lon="4.52463">
        <ele>703.6</ele>
        <time>2025-09-07T14:01:41Z</time>
      </trkpt>
      <trkpt lat="46.20869" lon="4.52461">
        <ele>703.6</ele>
        <time>2025-09-07T14:01:42Z</time>
      </trkpt>
      <trkpt lat="46.20868" lon="4.52458">
        <ele>703.6</ele>
        <time>2025-09-07T14:01:43Z</time>
      </trkpt>
      <trkpt lat="46.20868" lon="4.52456">
        <ele>703.8</ele>
        <time>2025-09-07T14:01:44Z</time>
      </trkpt>
      <trkpt lat="46.20868" lon="4.52454">
        <ele>703.8</ele>
        <time>2025-09-07T14:01:45Z</time>
      </trkpt>
      <trkpt lat="46.20867" lon="4.52453">
        <ele>703.8</ele>
        <time>2025-09-07T14:01:46Z</time>
      </trkpt>
      <trkpt lat="46.20867" lon="4.52452">
        <ele>703.8</ele>
        <time>2025-09-07T14:01:47Z</time>
      </trkpt>
      <trkpt lat="46.20867" lon="4.52449">
        <ele>704.2</ele>
        <time>2025-09-07T14:01:48Z</time>
      </trkpt>
      <trkpt lat="46.20867" lon="4.52447">
        <ele>704.2</ele>
        <time>2025-09-07T14:01:49Z</time>
      </trkpt>
      <trkpt lat="46.20867" lon="4.52445">
        <ele>704.4</ele>
        <time>2025-09-07T14:01:50Z</time>
      </trkpt>
      <trkpt lat="46.20867" lon="4.52443">
        <ele>704.4</ele>
        <time>2025-09-07T14:01:51Z</time>
      </trkpt>
      <trkpt lat="46.20867" lon="4.52441">
        <ele>704.4</ele>
        <time>2025-09-07T14:01:52Z</time>
      </trkpt>
      <trkpt lat="46.20867" lon="4.52438">
        <ele>704.4</ele>
        <time>2025-09-07T14:01:53Z</time>
      </trkpt>
      <trkpt lat="46.20867" lon="4.52436">
        <ele>704.6</ele>
        <time>2025-09-07T14:01:54Z</time>
      </trkpt>
      <trkpt lat="46.20868" lon="4.52434">
        <ele>704.6</ele>
        <time>2025-09-07T14:01:55Z</time>
      </trkpt>
      <trkpt lat="46.20868" lon="4.52433">
        <ele>704.6</ele>
        <time>2025-09-07T14:01:56Z</time>
      </trkpt>
      <trkpt lat="46.20868" lon="4.52431">
        <ele>704.8</ele>
        <time>2025-09-07T14:01:57Z</time>
      </trkpt>
      <trkpt lat="46.20869" lon="4.52429">
        <ele>704.8</ele>
        <time>2025-09-07T14:01:58Z</time>
      </trkpt>
      <trkpt lat="46.20869" lon="4.52427">
        <ele>705.2</ele>
        <time>2025-09-07T14:01:59Z</time>
      </trkpt>
      <trkpt lat="46.20869" lon="4.52425">
        <ele>705.2</ele>
        <time>2025-09-07T14:02:00Z</time>
      </trkpt>
      <trkpt lat="46.20869" lon="4.52421">
        <ele>705.2</ele>
        <time>2025-09-07T14:02:01Z</time>
      </trkpt>
      <trkpt lat="46.20869" lon="4.52419">
        <ele>705.4</ele>
        <time>2025-09-07T14:02:02Z</time>
      </trkpt>
      <trkpt lat="46.20869" lon="4.52416">
        <ele>705.4</ele>
        <time>2025-09-07T14:02:03Z</time>
      </trkpt>
      <trkpt lat="46.20868" lon="4.52414">
        <ele>705.4</ele>
        <time>2025-09-07T14:02:04Z</time>
      </trkpt>
      <trkpt lat="46.20868" lon="4.52411">
        <ele>705.6</ele>
        <time>2025-09-07T14:02:05Z</time>
      </trkpt>
      <trkpt lat="46.20868" lon="4.52408">
        <ele>705.6</ele>
        <time>2025-09-07T14:02:06Z</time>
      </trkpt>
      <trkpt lat="46.20868" lon="4.52408">
        <ele>705.6</ele>
        <time>2025-09-07T14:02:07Z</time>
      </trkpt>
      <trkpt lat="46.20867" lon="4.52405">
        <ele>705.6</ele>
        <time>2025-09-07T14:02:08Z</time>
      </trkpt>
      <trkpt lat="46.20867" lon="4.52403">
        <ele>705.6</ele>
        <time>2025-09-07T14:02:09Z</time>
      </trkpt>
      <trkpt lat="46.20867" lon="4.52401">
        <ele>705.6</ele>
        <time>2025-09-07T14:02:10Z</time>
      </trkpt>
      <trkpt lat="46.20867" lon="4.52398">
        <ele>705.6</ele>
        <time>2025-09-07T14:02:11Z</time>
      </trkpt>
      <trkpt lat="46.20866" lon="4.52396">
        <ele>705.6</ele>
        <time>2025-09-07T14:02:12Z</time>
      </trkpt>
      <trkpt lat="46.20866" lon="4.52394">
        <ele>705.6</ele>
        <time>2025-09-07T14:02:13Z</time>
      </trkpt>
      <trkpt lat="46.20866" lon="4.52391">
        <ele>705.6</ele>
        <time>2025-09-07T14:02:14Z</time>
      </trkpt>
      <trkpt lat="46.20866" lon="4.52389">
        <ele>705.6</ele>
        <time>2025-09-07T14:02:15Z</time>
      </trkpt>
      <trkpt lat="46.20865" lon="4.52386">
        <ele>705.8</ele>
        <time>2025-09-07T14:02:16Z</time>
      </trkpt>
      <trkpt lat="46.20865" lon="4.52384">
        <ele>705.8</ele>
        <time>2025-09-07T14:02:17Z</time>
      </trkpt>
      <trkpt lat="46.20864" lon="4.52382">
        <ele>705.8</ele>
        <time>2025-09-07T14:02:18Z</time>
      </trkpt>
      <trkpt lat="46.20864" lon="4.5238">
        <ele>706.2</ele>
        <time>2025-09-07T14:02:19Z</time>
      </trkpt>
      <trkpt lat="46.20864" lon="4.52378">
        <ele>706.2</ele>
        <time>2025-09-07T14:02:20Z</time>
      </trkpt>
      <trkpt lat="46.20864" lon="4.52375">
        <ele>706.2</ele>
        <time>2025-09-07T14:02:21Z</time>
      </trkpt>
      <trkpt lat="46.20864" lon="4.52372">
        <ele>706.2</ele>
        <time>2025-09-07T14:02:22Z</time>
      </trkpt>
      <trkpt lat="46.20864" lon="4.52369">
        <ele>706.4</ele>
        <time>2025-09-07T14:02:23Z</time>
      </trkpt>
      <trkpt lat="46.20864" lon="4.52365">
        <ele>706.4</ele>
        <time>2025-09-07T14:02:24Z</time>
      </trkpt>
      <trkpt lat="46.20864" lon="4.52362">
        <ele>706.6</ele>
        <time>2025-09-07T14:02:25Z</time>
      </trkpt>
      <trkpt lat="46.20863" lon="4.52358">
        <ele>706.6</ele>
        <time>2025-09-07T14:02:26Z</time>
      </trkpt>
      <trkpt lat="46.20863" lon="4.52355">
        <ele>706.6</ele>
        <time>2025-09-07T14:02:27Z</time>
      </trkpt>
      <trkpt lat="46.20863" lon="4.52352">
        <ele>706.6</ele>
        <time>2025-09-07T14:02:28Z</time>
      </trkpt>
      <trkpt lat="46.20862" lon="4.52349">
        <ele>706.6</ele>
        <time>2025-09-07T14:02:29Z</time>
      </trkpt>
      <trkpt lat="46.20862" lon="4.52345">
        <ele>706.6</ele>
        <time>2025-09-07T14:02:30Z</time>
      </trkpt>
      <trkpt lat="46.20862" lon="4.52342">
        <ele>706.6</ele>
        <time>2025-09-07T14:02:31Z</time>
      </trkpt>
      <trkpt lat="46.20861" lon="4.52339">
        <ele>706.8</ele>
        <time>2025-09-07T14:02:32Z</time>
      </trkpt>
      <trkpt lat="46.20861" lon="4.52336">
        <ele>706.8</ele>
        <time>2025-09-07T14:02:33Z</time>
      </trkpt>
      <trkpt lat="46.20861" lon="4.52332">
        <ele>707.2</ele>
        <time>2025-09-07T14:02:34Z</time>
      </trkpt>
      <trkpt lat="46.2086" lon="4.52329">
        <ele>707.2</ele>
        <time>2025-09-07T14:02:35Z</time>
      </trkpt>
      <trkpt lat="46.2086" lon="4.52326">
        <ele>707.2</ele>
        <time>2025-09-07T14:02:36Z</time>
      </trkpt>
      <trkpt lat="46.20859" lon="4.52322">
        <ele>707.2</ele>
        <time>2025-09-07T14:02:37Z</time>
      </trkpt>
      <trkpt lat="46.20859" lon="4.52319">
        <ele>707.2</ele>
        <time>2025-09-07T14:02:38Z</time>
      </trkpt>
      <trkpt lat="46.20858" lon="4.52315">
        <ele>707.2</ele>
        <time>2025-09-07T14:02:39Z</time>
      </trkpt>
      <trkpt lat="46.20858" lon="4.52312">
        <ele>707.4</ele>
        <time>2025-09-07T14:02:40Z</time>
      </trkpt>
      <trkpt lat="46.20857" lon="4.52308">
        <ele>707.4</ele>
        <time>2025-09-07T14:02:41Z</time>
      </trkpt>
      <trkpt lat="46.20857" lon="4.52305">
        <ele>707.4</ele>
        <time>2025-09-07T14:02:42Z</time>
      </trkpt>
      <trkpt lat="46.20856" lon="4.52301">
        <ele>707.4</ele>
        <time>2025-09-07T14:02:43Z</time>
      </trkpt>
      <trkpt lat="46.20856" lon="4.52297">
        <ele>707.8</ele>
        <time>2025-09-07T14:02:44Z</time>
      </trkpt>
      <trkpt lat="46.20855" lon="4.52293">
        <ele>708.2</ele>
        <time>2025-09-07T14:02:45Z</time>
      </trkpt>
      <trkpt lat="46.20854" lon="4.52289">
        <ele>708.4</ele>
        <time>2025-09-07T14:02:46Z</time>
      </trkpt>
      <trkpt lat="46.20852" lon="4.52285">
        <ele>708.6</ele>
        <time>2025-09-07T14:02:47Z</time>
      </trkpt>
      <trkpt lat="46.20851" lon="4.5228">
        <ele>708.6</ele>
        <time>2025-09-07T14:02:48Z</time>
      </trkpt>
      <trkpt lat="46.2085" lon="4.52276">
        <ele>708.6</ele>
        <time>2025-09-07T14:02:49Z</time>
      </trkpt>
      <trkpt lat="46.20848" lon="4.52271">
        <ele>708.2</ele>
        <time>2025-09-07T14:02:50Z</time>
      </trkpt>
      <trkpt lat="46.20847" lon="4.52266">
        <ele>708.2</ele>
        <time>2025-09-07T14:02:51Z</time>
      </trkpt>
      <trkpt lat="46.20845" lon="4.52261">
        <ele>708.2</ele>
        <time>2025-09-07T14:02:52Z</time>
      </trkpt>
      <trkpt lat="46.20844" lon="4.52256">
        <ele>708.2</ele>
        <time>2025-09-07T14:02:53Z</time>
      </trkpt>
      <trkpt lat="46.20843" lon="4.52251">
        <ele>708.6</ele>
        <time>2025-09-07T14:02:54Z</time>
      </trkpt>
      <trkpt lat="46.20841" lon="4.52246">
        <ele>708.6</ele>
        <time>2025-09-07T14:02:55Z</time>
      </trkpt>
      <trkpt lat="46.20839" lon="4.52241">
        <ele>708.6</ele>
        <time>2025-09-07T14:02:56Z</time>
      </trkpt>
      <trkpt lat="46.20837" lon="4.52236">
        <ele>708.4</ele>
        <time>2025-09-07T14:02:57Z</time>
      </trkpt>
      <trkpt lat="46.20834" lon="4.52231">
        <ele>708.4</ele>
        <time>2025-09-07T14:02:58Z</time>
      </trkpt>
      <trkpt lat="46.20832" lon="4.52226">
        <ele>708.4</ele>
        <time>2025-09-07T14:02:59Z</time>
      </trkpt>
      <trkpt lat="46.20832" lon="4.52226">
        <ele>708.4</ele>
        <time>2025-09-07T14:03:00Z</time>
      </trkpt>
      <trkpt lat="46.20824" lon="4.52211">
        <ele>708.4</ele>
        <time>2025-09-07T14:03:01Z</time>
      </trkpt>
      <trkpt lat="46.20821" lon="4.52205">
        <ele>708.4</ele>
        <time>2025-09-07T14:03:02Z</time>
      </trkpt>
      <trkpt lat="46.20817" lon="4.52201">
        <ele>708.4</ele>
        <time>2025-09-07T14:03:03Z</time>
      </trkpt>
      <trkpt lat="46.20813" lon="4.52195">
        <ele>708.2</ele>
        <time>2025-09-07T14:03:04Z</time>
      </trkpt>
      <trkpt lat="46.20813" lon="4.52195">
        <ele>708.2</ele>
        <time>2025-09-07T14:03:05Z</time>
      </trkpt>
      <trkpt lat="46.20809" lon="4.52188">
        <ele>708.4</ele>
        <time>2025-09-07T14:03:06Z</time>
      </trkpt>
      <trkpt lat="46.20807" lon="4.52183">
        <ele>708.4</ele>
        <time>2025-09-07T14:03:07Z</time>
      </trkpt>
      <trkpt lat="46.20804" lon="4.52175">
        <ele>707.8</ele>
        <time>2025-09-07T14:03:08Z</time>
      </trkpt>
      <trkpt lat="46.20801" lon="4.52169">
        <ele>708.2</ele>
        <time>2025-09-07T14:03:09Z</time>
      </trkpt>
      <trkpt lat="46.20799" lon="4.52163">
        <ele>708.2</ele>
        <time>2025-09-07T14:03:10Z</time>
      </trkpt>
      <trkpt lat="46.20797" lon="4.52157">
        <ele>708.2</ele>
        <time>2025-09-07T14:03:11Z</time>
      </trkpt>
      <trkpt lat="46.20795" lon="4.5215">
        <ele>708.2</ele>
        <time>2025-09-07T14:03:12Z</time>
      </trkpt>
      <trkpt lat="46.20792" lon="4.52144">
        <ele>708.2</ele>
        <time>2025-09-07T14:03:13Z</time>
      </trkpt>
      <trkpt lat="46.20789" lon="4.52138">
        <ele>708.2</ele>
        <time>2025-09-07T14:03:14Z</time>
      </trkpt>
      <trkpt lat="46.20785" lon="4.52131">
        <ele>708.2</ele>
        <time>2025-09-07T14:03:15Z</time>
      </trkpt>
      <trkpt lat="46.20783" lon="4.52124">
        <ele>708.2</ele>
        <time>2025-09-07T14:03:16Z</time>
      </trkpt>
      <trkpt lat="46.2078" lon="4.52117">
        <ele>707.8</ele>
        <time>2025-09-07T14:03:17Z</time>
      </trkpt>
      <trkpt lat="46.20777" lon="4.5211">
        <ele>707.8</ele>
        <time>2025-09-07T14:03:18Z</time>
      </trkpt>
      <trkpt lat="46.20775" lon="4.52104">
        <ele>707.8</ele>
        <time>2025-09-07T14:03:19Z</time>
      </trkpt>
      <trkpt lat="46.20773" lon="4.52099">
        <ele>708.2</ele>
        <time>2025-09-07T14:03:20Z</time>
      </trkpt>
      <trkpt lat="46.2077" lon="4.52093">
        <ele>708.2</ele>
        <time>2025-09-07T14:03:21Z</time>
      </trkpt>
      <trkpt lat="46.20767" lon="4.52087">
        <ele>708.2</ele>
        <time>2025-09-07T14:03:22Z</time>
      </trkpt>
      <trkpt lat="46.20766" lon="4.5208">
        <ele>708.2</ele>
        <time>2025-09-07T14:03:23Z</time>
      </trkpt>
      <trkpt lat="46.20763" lon="4.52074">
        <ele>708.6</ele>
        <time>2025-09-07T14:03:24Z</time>
      </trkpt>
      <trkpt lat="46.2076" lon="4.52067">
        <ele>709.2</ele>
        <time>2025-09-07T14:03:25Z</time>
      </trkpt>
      <trkpt lat="46.20757" lon="4.52062">
        <ele>709.2</ele>
        <time>2025-09-07T14:03:26Z</time>
      </trkpt>
      <trkpt lat="46.20754" lon="4.52056">
        <ele>709.2</ele>
        <time>2025-09-07T14:03:27Z</time>
      </trkpt>
      <trkpt lat="46.20751" lon="4.5205">
        <ele>709.2</ele>
        <time>2025-09-07T14:03:28Z</time>
      </trkpt>
      <trkpt lat="46.20748" lon="4.52046">
        <ele>709.2</ele>
        <time>2025-09-07T14:03:29Z</time>
      </trkpt>
      <trkpt lat="46.20742" lon="4.52042">
        <ele>709.4</ele>
        <time>2025-09-07T14:03:30Z</time>
      </trkpt>
      <trkpt lat="46.20738" lon="4.52036">
        <ele>709.2</ele>
        <time>2025-09-07T14:03:31Z</time>
      </trkpt>
      <trkpt lat="46.20734" lon="4.52032">
        <ele>709.2</ele>
        <time>2025-09-07T14:03:32Z</time>
      </trkpt>
      <trkpt lat="46.20728" lon="4.52025">
        <ele>709.2</ele>
        <time>2025-09-07T14:03:33Z</time>
      </trkpt>
      <trkpt lat="46.20723" lon="4.5202">
        <ele>708.8</ele>
        <time>2025-09-07T14:03:34Z</time>
      </trkpt>
      <trkpt lat="46.20717" lon="4.52014">
        <ele>708.8</ele>
        <time>2025-09-07T14:03:35Z</time>
      </trkpt>
      <trkpt lat="46.20712" lon="4.52009">
        <ele>708.8</ele>
        <time>2025-09-07T14:03:36Z</time>
      </trkpt>
      <trkpt lat="46.20706" lon="4.52002">
        <ele>708.8</ele>
        <time>2025-09-07T14:03:37Z</time>
      </trkpt>
      <trkpt lat="46.207" lon="4.51997">
        <ele>708.6</ele>
        <time>2025-09-07T14:03:38Z</time>
      </trkpt>
      <trkpt lat="46.20695" lon="4.5199">
        <ele>708.4</ele>
        <time>2025-09-07T14:03:39Z</time>
      </trkpt>
      <trkpt lat="46.20691" lon="4.51983">
        <ele>708</ele>
        <time>2025-09-07T14:03:40Z</time>
      </trkpt>
      <trkpt lat="46.20686" lon="4.51976">
        <ele>707.6</ele>
        <time>2025-09-07T14:03:41Z</time>
      </trkpt>
      <trkpt lat="46.20681" lon="4.51968">
        <ele>707.6</ele>
        <time>2025-09-07T14:03:42Z</time>
      </trkpt>
      <trkpt lat="46.20676" lon="4.51963">
        <ele>707.2</ele>
        <time>2025-09-07T14:03:43Z</time>
      </trkpt>
      <trkpt lat="46.20671" lon="4.51956">
        <ele>707.2</ele>
        <time>2025-09-07T14:03:44Z</time>
      </trkpt>
      <trkpt lat="46.20666" lon="4.5195">
        <ele>707.2</ele>
        <time>2025-09-07T14:03:45Z</time>
      </trkpt>
      <trkpt lat="46.20661" lon="4.51945">
        <ele>707.2</ele>
        <time>2025-09-07T14:03:46Z</time>
      </trkpt>
      <trkpt lat="46.20656" lon="4.51938">
        <ele>707</ele>
        <time>2025-09-07T14:03:47Z</time>
      </trkpt>
      <trkpt lat="46.20651" lon="4.51931">
        <ele>707</ele>
        <time>2025-09-07T14:03:48Z</time>
      </trkpt>
      <trkpt lat="46.20645" lon="4.51925">
        <ele>707</ele>
        <time>2025-09-07T14:03:49Z</time>
      </trkpt>
      <trkpt lat="46.2064" lon="4.51919">
        <ele>707</ele>
        <time>2025-09-07T14:03:50Z</time>
      </trkpt>
      <trkpt lat="46.20634" lon="4.51913">
        <ele>707</ele>
        <time>2025-09-07T14:03:51Z</time>
      </trkpt>
      <trkpt lat="46.20629" lon="4.51907">
        <ele>707</ele>
        <time>2025-09-07T14:03:52Z</time>
      </trkpt>
      <trkpt lat="46.20624" lon="4.51901">
        <ele>707</ele>
        <time>2025-09-07T14:03:53Z</time>
      </trkpt>
      <trkpt lat="46.20619" lon="4.51895">
        <ele>707</ele>
        <time>2025-09-07T14:03:54Z</time>
      </trkpt>
      <trkpt lat="46.20614" lon="4.51889">
        <ele>706.6</ele>
        <time>2025-09-07T14:03:55Z</time>
      </trkpt>
      <trkpt lat="46.20609" lon="4.51883">
        <ele>706.6</ele>
        <time>2025-09-07T14:03:56Z</time>
      </trkpt>
      <trkpt lat="46.20604" lon="4.51877">
        <ele>707</ele>
        <time>2025-09-07T14:03:57Z</time>
      </trkpt>
      <trkpt lat="46.20598" lon="4.51872">
        <ele>707</ele>
        <time>2025-09-07T14:03:58Z</time>
      </trkpt>
      <trkpt lat="46.20593" lon="4.51866">
        <ele>707</ele>
        <time>2025-09-07T14:03:59Z</time>
      </trkpt>
      <trkpt lat="46.20588" lon="4.5186">
        <ele>706.6</ele>
        <time>2025-09-07T14:04:00Z</time>
      </trkpt>
      <trkpt lat="46.20582" lon="4.51855">
        <ele>706.6</ele>
        <time>2025-09-07T14:04:01Z</time>
      </trkpt>
      <trkpt lat="46.20577" lon="4.51849">
        <ele>706.6</ele>
        <time>2025-09-07T14:04:02Z</time>
      </trkpt>
      <trkpt lat="46.20573" lon="4.51843">
        <ele>706.6</ele>
        <time>2025-09-07T14:04:03Z</time>
      </trkpt>
      <trkpt lat="46.20568" lon="4.51837">
        <ele>706.6</ele>
        <time>2025-09-07T14:04:04Z</time>
      </trkpt>
      <trkpt lat="46.20564" lon="4.5183">
        <ele>706.4</ele>
        <time>2025-09-07T14:04:05Z</time>
      </trkpt>
      <trkpt lat="46.20559" lon="4.51823">
        <ele>706.4</ele>
        <time>2025-09-07T14:04:06Z</time>
      </trkpt>
      <trkpt lat="46.20555" lon="4.51815">
        <ele>706.4</ele>
        <time>2025-09-07T14:04:07Z</time>
      </trkpt>
      <trkpt lat="46.2055" lon="4.51808">
        <ele>706.4</ele>
        <time>2025-09-07T14:04:08Z</time>
      </trkpt>
      <trkpt lat="46.20548" lon="4.518">
        <ele>706.4</ele>
        <time>2025-09-07T14:04:09Z</time>
      </trkpt>
      <trkpt lat="46.20545" lon="4.51793">
        <ele>706</ele>
        <time>2025-09-07T14:04:10Z</time>
      </trkpt>
      <trkpt lat="46.20542" lon="4.51786">
        <ele>706</ele>
        <time>2025-09-07T14:04:11Z</time>
      </trkpt>
      <trkpt lat="46.20539" lon="4.51778">
        <ele>706</ele>
        <time>2025-09-07T14:04:12Z</time>
      </trkpt>
      <trkpt lat="46.20534" lon="4.51771">
        <ele>706</ele>
        <time>2025-09-07T14:04:13Z</time>
      </trkpt>
      <trkpt lat="46.2053" lon="4.51763">
        <ele>706</ele>
        <time>2025-09-07T14:04:14Z</time>
      </trkpt>
      <trkpt lat="46.20526" lon="4.51755">
        <ele>706</ele>
        <time>2025-09-07T14:04:15Z</time>
      </trkpt>
      <trkpt lat="46.20522" lon="4.51749">
        <ele>706</ele>
        <time>2025-09-07T14:04:16Z</time>
      </trkpt>
      <trkpt lat="46.20519" lon="4.51742">
        <ele>706</ele>
        <time>2025-09-07T14:04:17Z</time>
      </trkpt>
      <trkpt lat="46.20515" lon="4.51733">
        <ele>706</ele>
        <time>2025-09-07T14:04:18Z</time>
      </trkpt>
      <trkpt lat="46.20511" lon="4.51728">
        <ele>706</ele>
        <time>2025-09-07T14:04:19Z</time>
      </trkpt>
      <trkpt lat="46.20506" lon="4.51722">
        <ele>706</ele>
        <time>2025-09-07T14:04:20Z</time>
      </trkpt>
      <trkpt lat="46.20503" lon="4.51716">
        <ele>706</ele>
        <time>2025-09-07T14:04:21Z</time>
      </trkpt>
      <trkpt lat="46.20499" lon="4.51711">
        <ele>706</ele>
        <time>2025-09-07T14:04:22Z</time>
      </trkpt>
      <trkpt lat="46.20493" lon="4.51705">
        <ele>706</ele>
        <time>2025-09-07T14:04:23Z</time>
      </trkpt>
      <trkpt lat="46.20489" lon="4.517">
        <ele>706</ele>
        <time>2025-09-07T14:04:24Z</time>
      </trkpt>
      <trkpt lat="46.20485" lon="4.51693">
        <ele>706</ele>
        <time>2025-09-07T14:04:25Z</time>
      </trkpt>
      <trkpt lat="46.20478" lon="4.5169">
        <ele>705.2</ele>
        <time>2025-09-07T14:04:26Z</time>
      </trkpt>
      <trkpt lat="46.20475" lon="4.51686">
        <ele>705.2</ele>
        <time>2025-09-07T14:04:27Z</time>
      </trkpt>
      <trkpt lat="46.2047" lon="4.51681">
        <ele>705</ele>
        <time>2025-09-07T14:04:28Z</time>
      </trkpt>
      <trkpt lat="46.20465" lon="4.51678">
        <ele>704.8</ele>
        <time>2025-09-07T14:04:29Z</time>
      </trkpt>
      <trkpt lat="46.20461" lon="4.51674">
        <ele>704.6</ele>
        <time>2025-09-07T14:04:30Z</time>
      </trkpt>
      <trkpt lat="46.20455" lon="4.51668">
        <ele>704.8</ele>
        <time>2025-09-07T14:04:31Z</time>
      </trkpt>
      <trkpt lat="46.2045" lon="4.51661">
        <ele>704.6</ele>
        <time>2025-09-07T14:04:32Z</time>
      </trkpt>
      <trkpt lat="46.20444" lon="4.51656">
        <ele>704.6</ele>
        <time>2025-09-07T14:04:33Z</time>
      </trkpt>
      <trkpt lat="46.20439" lon="4.5165">
        <ele>704.2</ele>
        <time>2025-09-07T14:04:34Z</time>
      </trkpt>
      <trkpt lat="46.20435" lon="4.51642">
        <ele>704.2</ele>
        <time>2025-09-07T14:04:35Z</time>
      </trkpt>
      <trkpt lat="46.20429" lon="4.51634">
        <ele>704.6</ele>
        <time>2025-09-07T14:04:36Z</time>
      </trkpt>
      <trkpt lat="46.20427" lon="4.51629">
        <ele>704.6</ele>
        <time>2025-09-07T14:04:37Z</time>
      </trkpt>
      <trkpt lat="46.20423" lon="4.51622">
        <ele>704.6</ele>
        <time>2025-09-07T14:04:38Z</time>
      </trkpt>
      <trkpt lat="46.2042" lon="4.51618">
        <ele>705</ele>
        <time>2025-09-07T14:04:39Z</time>
      </trkpt>
      <trkpt lat="46.2042" lon="4.51622">
        <ele>705.2</ele>
        <time>2025-09-07T14:04:40Z</time>
      </trkpt>
      <trkpt lat="46.2042" lon="4.51623">
        <ele>705.4</ele>
        <time>2025-09-07T14:04:41Z</time>
      </trkpt>
      <trkpt lat="46.20418" lon="4.51621">
        <ele>705.4</ele>
        <time>2025-09-07T14:04:42Z</time>
      </trkpt>
      <trkpt lat="46.20418" lon="4.51622">
        <ele>705.4</ele>
        <time>2025-09-07T14:04:43Z</time>
      </trkpt>
      <trkpt lat="46.20417" lon="4.51622">
        <ele>705.4</ele>
        <time>2025-09-07T14:04:44Z</time>
      </trkpt>
      <trkpt lat="46.20417" lon="4.51622">
        <ele>705.4</ele>
        <time>2025-09-07T14:04:45Z</time>
      </trkpt>
      <trkpt lat="46.20418" lon="4.51625">
        <ele>705.6</ele>
        <time>2025-09-07T14:04:55Z</time>
      </trkpt>
      <trkpt lat="46.20417" lon="4.51626">
        <ele>705.6</ele>
        <time>2025-09-07T14:04:56Z</time>
      </trkpt>
      <trkpt lat="46.20417" lon="4.51625">
        <ele>705.6</ele>
        <time>2025-09-07T14:04:57Z</time>
      </trkpt>
      <trkpt lat="46.20416" lon="4.51624">
        <ele>705.4</ele>
        <time>2025-09-07T14:05:28Z</time>
      </trkpt>
      <trkpt lat="46.20416" lon="4.51623">
        <ele>705.4</ele>
        <time>2025-09-07T14:05:29Z</time>
      </trkpt>
      <trkpt lat="46.20417" lon="4.51623">
        <ele>705.4</ele>
        <time>2025-09-07T14:05:30Z</time>
      </trkpt>
      <trkpt lat="46.20418" lon="4.51623">
        <ele>705.4</ele>
        <time>2025-09-07T14:05:31Z</time>
      </trkpt>
      <trkpt lat="46.20418" lon="4.51622">
        <ele>705.4</ele>
        <time>2025-09-07T14:05:32Z</time>
      </trkpt>
      <trkpt lat="46.20418" lon="4.51622">
        <ele>705.6</ele>
        <time>2025-09-07T14:05:33Z</time>
      </trkpt>
      <trkpt lat="46.20418" lon="4.51622">
        <ele>705.6</ele>
        <time>2025-09-07T14:05:34Z</time>
      </trkpt>
      <trkpt lat="46.20417" lon="4.51615">
        <ele>705.6</ele>
        <time>2025-09-07T14:05:56Z</time>
      </trkpt>
      <trkpt lat="46.20416" lon="4.51614">
        <ele>705.6</ele>
        <time>2025-09-07T14:05:57Z</time>
      </trkpt>
      <trkpt lat="46.20415" lon="4.51612">
        <ele>705.6</ele>
        <time>2025-09-07T14:05:58Z</time>
      </trkpt>
      <trkpt lat="46.20414" lon="4.5161">
        <ele>705.6</ele>
        <time>2025-09-07T14:05:59Z</time>
      </trkpt>
      <trkpt lat="46.20413" lon="4.51607">
        <ele>705.6</ele>
        <time>2025-09-07T14:06:00Z</time>
      </trkpt>
      <trkpt lat="46.20412" lon="4.51604">
        <ele>706</ele>
        <time>2025-09-07T14:06:01Z</time>
      </trkpt>
      <trkpt lat="46.2041" lon="4.51602">
        <ele>706</ele>
        <time>2025-09-07T14:06:02Z</time>
      </trkpt>
      <trkpt lat="46.2041" lon="4.51601">
        <ele>706.2</ele>
        <time>2025-09-07T14:06:03Z</time>
      </trkpt>
      <trkpt lat="46.20409" lon="4.516">
        <ele>706.2</ele>
        <time>2025-09-07T14:06:04Z</time>
      </trkpt>
      <trkpt lat="46.20409" lon="4.51598">
        <ele>706.6</ele>
        <time>2025-09-07T14:06:05Z</time>
      </trkpt>
      <trkpt lat="46.20408" lon="4.51597">
        <ele>707</ele>
        <time>2025-09-07T14:06:06Z</time>
      </trkpt>
      <trkpt lat="46.20408" lon="4.51595">
        <ele>707</ele>
        <time>2025-09-07T14:06:07Z</time>
      </trkpt>
      <trkpt lat="46.20408" lon="4.51593">
        <ele>707</ele>
        <time>2025-09-07T14:06:08Z</time>
      </trkpt>
      <trkpt lat="46.20408" lon="4.51591">
        <ele>706.6</ele>
        <time>2025-09-07T14:06:09Z</time>
      </trkpt>
      <trkpt lat="46.20408" lon="4.51589">
        <ele>707</ele>
        <time>2025-09-07T14:06:10Z</time>
      </trkpt>
      <trkpt lat="46.20408" lon="4.51587">
        <ele>707.2</ele>
        <time>2025-09-07T14:06:11Z</time>
      </trkpt>
      <trkpt lat="46.20407" lon="4.51585">
        <ele>707.2</ele>
        <time>2025-09-07T14:06:12Z</time>
      </trkpt>
      <trkpt lat="46.20407" lon="4.51584">
        <ele>707.6</ele>
        <time>2025-09-07T14:06:13Z</time>
      </trkpt>
      <trkpt lat="46.20407" lon="4.51582">
        <ele>707.6</ele>
        <time>2025-09-07T14:06:14Z</time>
      </trkpt>
      <trkpt lat="46.20406" lon="4.51581">
        <ele>707.8</ele>
        <time>2025-09-07T14:06:15Z</time>
      </trkpt>
      <trkpt lat="46.20406" lon="4.5158">
        <ele>707.8</ele>
        <time>2025-09-07T14:06:16Z</time>
      </trkpt>
      <trkpt lat="46.20406" lon="4.51578">
        <ele>708.4</ele>
        <time>2025-09-07T14:06:17Z</time>
      </trkpt>
      <trkpt lat="46.20406" lon="4.51577">
        <ele>708.6</ele>
        <time>2025-09-07T14:06:18Z</time>
      </trkpt>
      <trkpt lat="46.20406" lon="4.51575">
        <ele>709</ele>
        <time>2025-09-07T14:06:19Z</time>
      </trkpt>
      <trkpt lat="46.20405" lon="4.51573">
        <ele>709.2</ele>
        <time>2025-09-07T14:06:20Z</time>
      </trkpt>
      <trkpt lat="46.20405" lon="4.51573">
        <ele>709.2</ele>
        <time>2025-09-07T14:06:21Z</time>
      </trkpt>
      <trkpt lat="46.20405" lon="4.51572">
        <ele>709.4</ele>
        <time>2025-09-07T14:06:22Z</time>
      </trkpt>
      <trkpt lat="46.20404" lon="4.51571">
        <ele>709.4</ele>
        <time>2025-09-07T14:06:23Z</time>
      </trkpt>
      <trkpt lat="46.20404" lon="4.5157">
        <ele>709.8</ele>
        <time>2025-09-07T14:06:24Z</time>
      </trkpt>
      <trkpt lat="46.20403" lon="4.51568">
        <ele>710.2</ele>
        <time>2025-09-07T14:06:25Z</time>
      </trkpt>
      <trkpt lat="46.20402" lon="4.51567">
        <ele>710.4</ele>
        <time>2025-09-07T14:06:26Z</time>
      </trkpt>
      <trkpt lat="46.20401" lon="4.51565">
        <ele>710.6</ele>
        <time>2025-09-07T14:06:27Z</time>
      </trkpt>
      <trkpt lat="46.204" lon="4.51564">
        <ele>710.6</ele>
        <time>2025-09-07T14:06:28Z</time>
      </trkpt>
      <trkpt lat="46.204" lon="4.51562">
        <ele>711</ele>
        <time>2025-09-07T14:06:29Z</time>
      </trkpt>
      <trkpt lat="46.204" lon="4.5156">
        <ele>711</ele>
        <time>2025-09-07T14:06:30Z</time>
      </trkpt>
      <trkpt lat="46.204" lon="4.51558">
        <ele>711.2</ele>
        <time>2025-09-07T14:06:31Z</time>
      </trkpt>
      <trkpt lat="46.20399" lon="4.51556">
        <ele>711.2</ele>
        <time>2025-09-07T14:06:32Z</time>
      </trkpt>
      <trkpt lat="46.20398" lon="4.51554">
        <ele>711.6</ele>
        <time>2025-09-07T14:06:33Z</time>
      </trkpt>
      <trkpt lat="46.20398" lon="4.51552">
        <ele>711.6</ele>
        <time>2025-09-07T14:06:34Z</time>
      </trkpt>
      <trkpt lat="46.20398" lon="4.51551">
        <ele>711.8</ele>
        <time>2025-09-07T14:06:35Z</time>
      </trkpt>
      <trkpt lat="46.20397" lon="4.51549">
        <ele>711.8</ele>
        <time>2025-09-07T14:06:36Z</time>
      </trkpt>
      <trkpt lat="46.20396" lon="4.51548">
        <ele>712.2</ele>
        <time>2025-09-07T14:06:37Z</time>
      </trkpt>
      <trkpt lat="46.20395" lon="4.51547">
        <ele>712.2</ele>
        <time>2025-09-07T14:06:38Z</time>
      </trkpt>
      <trkpt lat="46.20395" lon="4.51546">
        <ele>712.2</ele>
        <time>2025-09-07T14:06:39Z</time>
      </trkpt>
      <trkpt lat="46.20395" lon="4.51544">
        <ele>712.6</ele>
        <time>2025-09-07T14:06:40Z</time>
      </trkpt>
      <trkpt lat="46.20394" lon="4.51543">
        <ele>713</ele>
        <time>2025-09-07T14:06:41Z</time>
      </trkpt>
      <trkpt lat="46.20394" lon="4.51542">
        <ele>713.2</ele>
        <time>2025-09-07T14:06:42Z</time>
      </trkpt>
      <trkpt lat="46.20394" lon="4.51541">
        <ele>713.2</ele>
        <time>2025-09-07T14:06:43Z</time>
      </trkpt>
      <trkpt lat="46.20393" lon="4.5154">
        <ele>713.6</ele>
        <time>2025-09-07T14:06:44Z</time>
      </trkpt>
      <trkpt lat="46.20393" lon="4.51539">
        <ele>714</ele>
        <time>2025-09-07T14:06:45Z</time>
      </trkpt>
      <trkpt lat="46.20393" lon="4.51538">
        <ele>714</ele>
        <time>2025-09-07T14:06:46Z</time>
      </trkpt>
      <trkpt lat="46.20393" lon="4.51536">
        <ele>714.2</ele>
        <time>2025-09-07T14:06:47Z</time>
      </trkpt>
      <trkpt lat="46.20392" lon="4.51535">
        <ele>714.2</ele>
        <time>2025-09-07T14:06:48Z</time>
      </trkpt>
      <trkpt lat="46.20391" lon="4.51534">
        <ele>714.2</ele>
        <time>2025-09-07T14:06:49Z</time>
      </trkpt>
      <trkpt lat="46.2039" lon="4.51534">
        <ele>714.4</ele>
        <time>2025-09-07T14:06:50Z</time>
      </trkpt>
      <trkpt lat="46.20389" lon="4.51533">
        <ele>714.4</ele>
        <time>2025-09-07T14:06:51Z</time>
      </trkpt>
      <trkpt lat="46.20388" lon="4.51531">
        <ele>714.8</ele>
        <time>2025-09-07T14:06:52Z</time>
      </trkpt>
      <trkpt lat="46.20388" lon="4.5153">
        <ele>714.8</ele>
        <time>2025-09-07T14:06:53Z</time>
      </trkpt>
      <trkpt lat="46.20388" lon="4.51528">
        <ele>714.8</ele>
        <time>2025-09-07T14:06:54Z</time>
      </trkpt>
      <trkpt lat="46.20387" lon="4.51527">
        <ele>714.8</ele>
        <time>2025-09-07T14:06:55Z</time>
      </trkpt>
      <trkpt lat="46.20386" lon="4.51526">
        <ele>714.8</ele>
        <time>2025-09-07T14:06:56Z</time>
      </trkpt>
      <trkpt lat="46.20385" lon="4.51524">
        <ele>715.2</ele>
        <time>2025-09-07T14:06:57Z</time>
      </trkpt>
      <trkpt lat="46.20385" lon="4.51523">
        <ele>715.2</ele>
        <time>2025-09-07T14:06:58Z</time>
      </trkpt>
      <trkpt lat="46.20385" lon="4.51522">
        <ele>715.4</ele>
        <time>2025-09-07T14:06:59Z</time>
      </trkpt>
      <trkpt lat="46.20386" lon="4.51521">
        <ele>715.4</ele>
        <time>2025-09-07T14:07:00Z</time>
      </trkpt>
      <trkpt lat="46.20386" lon="4.5152">
        <ele>715.6</ele>
        <time>2025-09-07T14:07:01Z</time>
      </trkpt>
      <trkpt lat="46.20386" lon="4.51519">
        <ele>715.6</ele>
        <time>2025-09-07T14:07:02Z</time>
      </trkpt>
      <trkpt lat="46.20386" lon="4.51518">
        <ele>716</ele>
        <time>2025-09-07T14:07:03Z</time>
      </trkpt>
      <trkpt lat="46.20385" lon="4.51516">
        <ele>716.2</ele>
        <time>2025-09-07T14:07:04Z</time>
      </trkpt>
      <trkpt lat="46.20385" lon="4.51515">
        <ele>716.2</ele>
        <time>2025-09-07T14:07:05Z</time>
      </trkpt>
      <trkpt lat="46.20384" lon="4.51514">
        <ele>716.6</ele>
        <time>2025-09-07T14:07:06Z</time>
      </trkpt>
      <trkpt lat="46.20384" lon="4.51512">
        <ele>716.6</ele>
        <time>2025-09-07T14:07:07Z</time>
      </trkpt>
      <trkpt lat="46.20383" lon="4.5151">
        <ele>716.6</ele>
        <time>2025-09-07T14:07:08Z</time>
      </trkpt>
      <trkpt lat="46.20382" lon="4.5151">
        <ele>716.6</ele>
        <time>2025-09-07T14:07:09Z</time>
      </trkpt>
      <trkpt lat="46.20381" lon="4.51509">
        <ele>716.6</ele>
        <time>2025-09-07T14:07:10Z</time>
      </trkpt>
      <trkpt lat="46.2038" lon="4.51509">
        <ele>717</ele>
        <time>2025-09-07T14:07:11Z</time>
      </trkpt>
      <trkpt lat="46.20379" lon="4.51509">
        <ele>717</ele>
        <time>2025-09-07T14:07:12Z</time>
      </trkpt>
      <trkpt lat="46.20378" lon="4.51509">
        <ele>717.2</ele>
        <time>2025-09-07T14:07:13Z</time>
      </trkpt>
      <trkpt lat="46.20378" lon="4.51509">
        <ele>717.2</ele>
        <time>2025-09-07T14:07:14Z</time>
      </trkpt>
      <trkpt lat="46.20377" lon="4.51509">
        <ele>717.2</ele>
        <time>2025-09-07T14:07:15Z</time>
      </trkpt>
      <trkpt lat="46.20377" lon="4.51508">
        <ele>717.4</ele>
        <time>2025-09-07T14:07:16Z</time>
      </trkpt>
      <trkpt lat="46.20377" lon="4.51507">
        <ele>717.4</ele>
        <time>2025-09-07T14:07:17Z</time>
      </trkpt>
      <trkpt lat="46.20377" lon="4.51506">
        <ele>717.6</ele>
        <time>2025-09-07T14:07:18Z</time>
      </trkpt>
      <trkpt lat="46.20376" lon="4.51504">
        <ele>717.6</ele>
        <time>2025-09-07T14:07:19Z</time>
      </trkpt>
      <trkpt lat="46.20376" lon="4.51503">
        <ele>718</ele>
        <time>2025-09-07T14:07:20Z</time>
      </trkpt>
      <trkpt lat="46.20375" lon="4.51502">
        <ele>718</ele>
        <time>2025-09-07T14:07:21Z</time>
      </trkpt>
      <trkpt lat="46.20374" lon="4.51501">
        <ele>718.2</ele>
        <time>2025-09-07T14:07:22Z</time>
      </trkpt>
      <trkpt lat="46.20374" lon="4.515">
        <ele>718.2</ele>
        <time>2025-09-07T14:07:23Z</time>
      </trkpt>
      <trkpt lat="46.20374" lon="4.51499">
        <ele>718.6</ele>
        <time>2025-09-07T14:07:24Z</time>
      </trkpt>
      <trkpt lat="46.20374" lon="4.51499">
        <ele>718.8</ele>
        <time>2025-09-07T14:07:25Z</time>
      </trkpt>
      <trkpt lat="46.20374" lon="4.51499">
        <ele>718.8</ele>
        <time>2025-09-07T14:07:26Z</time>
      </trkpt>
      <trkpt lat="46.20373" lon="4.51499">
        <ele>718.8</ele>
        <time>2025-09-07T14:07:27Z</time>
      </trkpt>
      <trkpt lat="46.20373" lon="4.51499">
        <ele>718.8</ele>
        <time>2025-09-07T14:07:28Z</time>
      </trkpt>
      <trkpt lat="46.20372" lon="4.51498">
        <ele>718.8</ele>
        <time>2025-09-07T14:07:29Z</time>
      </trkpt>
      <trkpt lat="46.20371" lon="4.51497">
        <ele>718.8</ele>
        <time>2025-09-07T14:07:30Z</time>
      </trkpt>
      <trkpt lat="46.2037" lon="4.51497">
        <ele>718.8</ele>
        <time>2025-09-07T14:07:31Z</time>
      </trkpt>
      <trkpt lat="46.20369" lon="4.51497">
        <ele>719.2</ele>
        <time>2025-09-07T14:07:32Z</time>
      </trkpt>
      <trkpt lat="46.20369" lon="4.51496">
        <ele>719.2</ele>
        <time>2025-09-07T14:07:33Z</time>
      </trkpt>
      <trkpt lat="46.20368" lon="4.51496">
        <ele>719.2</ele>
        <time>2025-09-07T14:07:34Z</time>
      </trkpt>
      <trkpt lat="46.20368" lon="4.51495">
        <ele>719.6</ele>
        <time>2025-09-07T14:07:35Z</time>
      </trkpt>
      <trkpt lat="46.20368" lon="4.51494">
        <ele>719.6</ele>
        <time>2025-09-07T14:07:36Z</time>
      </trkpt>
      <trkpt lat="46.20368" lon="4.51492">
        <ele>719.8</ele>
        <time>2025-09-07T14:07:37Z</time>
      </trkpt>
      <trkpt lat="46.20367" lon="4.51491">
        <ele>719.8</ele>
        <time>2025-09-07T14:07:38Z</time>
      </trkpt>
      <trkpt lat="46.20366" lon="4.51489">
        <ele>720</ele>
        <time>2025-09-07T14:07:39Z</time>
      </trkpt>
      <trkpt lat="46.20365" lon="4.51487">
        <ele>720</ele>
        <time>2025-09-07T14:07:40Z</time>
      </trkpt>
      <trkpt lat="46.20364" lon="4.51486">
        <ele>720.4</ele>
        <time>2025-09-07T14:07:41Z</time>
      </trkpt>
      <trkpt lat="46.20364" lon="4.51484">
        <ele>720.4</ele>
        <time>2025-09-07T14:07:42Z</time>
      </trkpt>
      <trkpt lat="46.20363" lon="4.51483">
        <ele>720.6</ele>
        <time>2025-09-07T14:07:43Z</time>
      </trkpt>
      <trkpt lat="46.20362" lon="4.51481">
        <ele>720.6</ele>
        <time>2025-09-07T14:07:44Z</time>
      </trkpt>
      <trkpt lat="46.20361" lon="4.5148">
        <ele>720.6</ele>
        <time>2025-09-07T14:07:45Z</time>
      </trkpt>
      <trkpt lat="46.2036" lon="4.51479">
        <ele>720.8</ele>
        <time>2025-09-07T14:07:46Z</time>
      </trkpt>
      <trkpt lat="46.2036" lon="4.51478">
        <ele>720.8</ele>
        <time>2025-09-07T14:07:47Z</time>
      </trkpt>
      <trkpt lat="46.20359" lon="4.51476">
        <ele>720.8</ele>
        <time>2025-09-07T14:07:48Z</time>
      </trkpt>
      <trkpt lat="46.20358" lon="4.51476">
        <ele>720.8</ele>
        <time>2025-09-07T14:07:49Z</time>
      </trkpt>
      <trkpt lat="46.20358" lon="4.51475">
        <ele>721.2</ele>
        <time>2025-09-07T14:07:50Z</time>
      </trkpt>
      <trkpt lat="46.20357" lon="4.51475">
        <ele>721.2</ele>
        <time>2025-09-07T14:07:51Z</time>
      </trkpt>
      <trkpt lat="46.20356" lon="4.51475">
        <ele>721.2</ele>
        <time>2025-09-07T14:07:52Z</time>
      </trkpt>
      <trkpt lat="46.20356" lon="4.51474">
        <ele>721.4</ele>
        <time>2025-09-07T14:07:53Z</time>
      </trkpt>
      <trkpt lat="46.20355" lon="4.51473">
        <ele>721.4</ele>
        <time>2025-09-07T14:07:54Z</time>
      </trkpt>
      <trkpt lat="46.20355" lon="4.51471">
        <ele>721.8</ele>
        <time>2025-09-07T14:07:55Z</time>
      </trkpt>
      <trkpt lat="46.20355" lon="4.5147">
        <ele>721.8</ele>
        <time>2025-09-07T14:07:56Z</time>
      </trkpt>
      <trkpt lat="46.20355" lon="4.51468">
        <ele>721.8</ele>
        <time>2025-09-07T14:07:57Z</time>
      </trkpt>
      <trkpt lat="46.20354" lon="4.51467">
        <ele>722</ele>
        <time>2025-09-07T14:07:58Z</time>
      </trkpt>
      <trkpt lat="46.20354" lon="4.51465">
        <ele>722.4</ele>
        <time>2025-09-07T14:07:59Z</time>
      </trkpt>
      <trkpt lat="46.20353" lon="4.51463">
        <ele>722.4</ele>
        <time>2025-09-07T14:08:00Z</time>
      </trkpt>
      <trkpt lat="46.20352" lon="4.51462">
        <ele>722.6</ele>
        <time>2025-09-07T14:08:01Z</time>
      </trkpt>
      <trkpt lat="46.20352" lon="4.5146">
        <ele>722.6</ele>
        <time>2025-09-07T14:08:02Z</time>
      </trkpt>
      <trkpt lat="46.20351" lon="4.51458">
        <ele>722.8</ele>
        <time>2025-09-07T14:08:03Z</time>
      </trkpt>
      <trkpt lat="46.20351" lon="4.51456">
        <ele>722.8</ele>
        <time>2025-09-07T14:08:04Z</time>
      </trkpt>
      <trkpt lat="46.2035" lon="4.51454">
        <ele>723.4</ele>
        <time>2025-09-07T14:08:05Z</time>
      </trkpt>
      <trkpt lat="46.20349" lon="4.51453">
        <ele>723.4</ele>
        <time>2025-09-07T14:08:06Z</time>
      </trkpt>
      <trkpt lat="46.20349" lon="4.51451">
        <ele>723.4</ele>
        <time>2025-09-07T14:08:07Z</time>
      </trkpt>
      <trkpt lat="46.20348" lon="4.51449">
        <ele>723.4</ele>
        <time>2025-09-07T14:08:08Z</time>
      </trkpt>
      <trkpt lat="46.20348" lon="4.51447">
        <ele>723.6</ele>
        <time>2025-09-07T14:08:09Z</time>
      </trkpt>
      <trkpt lat="46.20348" lon="4.51446">
        <ele>723.6</ele>
        <time>2025-09-07T14:08:10Z</time>
      </trkpt>
      <trkpt lat="46.20347" lon="4.51444">
        <ele>723.6</ele>
        <time>2025-09-07T14:08:11Z</time>
      </trkpt>
      <trkpt lat="46.20347" lon="4.51443">
        <ele>723.6</ele>
        <time>2025-09-07T14:08:12Z</time>
      </trkpt>
      <trkpt lat="46.20346" lon="4.51441">
        <ele>723.8</ele>
        <time>2025-09-07T14:08:13Z</time>
      </trkpt>
      <trkpt lat="46.20345" lon="4.5144">
        <ele>723.8</ele>
        <time>2025-09-07T14:08:14Z</time>
      </trkpt>
      <trkpt lat="46.20344" lon="4.51439">
        <ele>724.2</ele>
        <time>2025-09-07T14:08:15Z</time>
      </trkpt>
      <trkpt lat="46.20343" lon="4.51437">
        <ele>724.6</ele>
        <time>2025-09-07T14:08:16Z</time>
      </trkpt>
      <trkpt lat="46.20343" lon="4.51435">
        <ele>724.6</ele>
        <time>2025-09-07T14:08:17Z</time>
      </trkpt>
      <trkpt lat="46.20343" lon="4.51434">
        <ele>724.8</ele>
        <time>2025-09-07T14:08:18Z</time>
      </trkpt>
      <trkpt lat="46.20342" lon="4.51432">
        <ele>724.8</ele>
        <time>2025-09-07T14:08:19Z</time>
      </trkpt>
      <trkpt lat="46.20342" lon="4.5143">
        <ele>725.2</ele>
        <time>2025-09-07T14:08:20Z</time>
      </trkpt>
      <trkpt lat="46.20342" lon="4.51429">
        <ele>725.2</ele>
        <time>2025-09-07T14:08:21Z</time>
      </trkpt>
      <trkpt lat="46.20341" lon="4.51427">
        <ele>725.6</ele>
        <time>2025-09-07T14:08:22Z</time>
      </trkpt>
      <trkpt lat="46.20341" lon="4.51426">
        <ele>725.8</ele>
        <time>2025-09-07T14:08:23Z</time>
      </trkpt>
      <trkpt lat="46.2034" lon="4.51425">
        <ele>725.8</ele>
        <time>2025-09-07T14:08:24Z</time>
      </trkpt>
      <trkpt lat="46.2034" lon="4.51424">
        <ele>725.8</ele>
        <time>2025-09-07T14:08:25Z</time>
      </trkpt>
      <trkpt lat="46.20339" lon="4.51422">
        <ele>726</ele>
        <time>2025-09-07T14:08:26Z</time>
      </trkpt>
      <trkpt lat="46.20339" lon="4.51421">
        <ele>726</ele>
        <time>2025-09-07T14:08:27Z</time>
      </trkpt>
      <trkpt lat="46.20339" lon="4.5142">
        <ele>726.4</ele>
        <time>2025-09-07T14:08:28Z</time>
      </trkpt>
      <trkpt lat="46.20338" lon="4.51419">
        <ele>726.4</ele>
        <time>2025-09-07T14:08:29Z</time>
      </trkpt>
      <trkpt lat="46.20337" lon="4.51418">
        <ele>726.6</ele>
        <time>2025-09-07T14:08:30Z</time>
      </trkpt>
      <trkpt lat="46.20336" lon="4.51417">
        <ele>726.6</ele>
        <time>2025-09-07T14:08:31Z</time>
      </trkpt>
      <trkpt lat="46.20335" lon="4.51416">
        <ele>726.8</ele>
        <time>2025-09-07T14:08:32Z</time>
      </trkpt>
      <trkpt lat="46.20334" lon="4.51415">
        <ele>726.8</ele>
        <time>2025-09-07T14:08:33Z</time>
      </trkpt>
      <trkpt lat="46.20334" lon="4.51413">
        <ele>726.8</ele>
        <time>2025-09-07T14:08:34Z</time>
      </trkpt>
      <trkpt lat="46.20333" lon="4.51412">
        <ele>727</ele>
        <time>2025-09-07T14:08:35Z</time>
      </trkpt>
      <trkpt lat="46.20332" lon="4.51411">
        <ele>727</ele>
        <time>2025-09-07T14:08:36Z</time>
      </trkpt>
      <trkpt lat="46.20332" lon="4.51409">
        <ele>727</ele>
        <time>2025-09-07T14:08:37Z</time>
      </trkpt>
      <trkpt lat="46.20331" lon="4.51409">
        <ele>727</ele>
        <time>2025-09-07T14:08:38Z</time>
      </trkpt>
      <trkpt lat="46.20331" lon="4.51408">
        <ele>727.4</ele>
        <time>2025-09-07T14:08:39Z</time>
      </trkpt>
      <trkpt lat="46.2033" lon="4.51407">
        <ele>727.4</ele>
        <time>2025-09-07T14:08:40Z</time>
      </trkpt>
      <trkpt lat="46.2033" lon="4.51406">
        <ele>727.8</ele>
        <time>2025-09-07T14:08:41Z</time>
      </trkpt>
      <trkpt lat="46.20328" lon="4.51403">
        <ele>727.8</ele>
        <time>2025-09-07T14:08:42Z</time>
      </trkpt>
      <trkpt lat="46.20328" lon="4.51402">
        <ele>727.8</ele>
        <time>2025-09-07T14:08:43Z</time>
      </trkpt>
      <trkpt lat="46.20328" lon="4.51402">
        <ele>728</ele>
        <time>2025-09-07T14:08:44Z</time>
      </trkpt>
      <trkpt lat="46.20327" lon="4.51401">
        <ele>728</ele>
        <time>2025-09-07T14:08:45Z</time>
      </trkpt>
      <trkpt lat="46.20327" lon="4.51401">
        <ele>728.2</ele>
        <time>2025-09-07T14:08:46Z</time>
      </trkpt>
      <trkpt lat="46.20327" lon="4.51401">
        <ele>728.2</ele>
        <time>2025-09-07T14:08:47Z</time>
      </trkpt>
      <trkpt lat="46.20327" lon="4.51401">
        <ele>728.6</ele>
        <time>2025-09-07T14:08:48Z</time>
      </trkpt>
      <trkpt lat="46.20326" lon="4.51399">
        <ele>728.6</ele>
        <time>2025-09-07T14:08:49Z</time>
      </trkpt>
      <trkpt lat="46.20326" lon="4.51397">
        <ele>728.6</ele>
        <time>2025-09-07T14:08:50Z</time>
      </trkpt>
      <trkpt lat="46.20326" lon="4.51396">
        <ele>728.8</ele>
        <time>2025-09-07T14:08:51Z</time>
      </trkpt>
      <trkpt lat="46.20326" lon="4.51393">
        <ele>728.8</ele>
        <time>2025-09-07T14:08:52Z</time>
      </trkpt>
      <trkpt lat="46.20326" lon="4.51391">
        <ele>729</ele>
        <time>2025-09-07T14:08:53Z</time>
      </trkpt>
      <trkpt lat="46.20326" lon="4.51389">
        <ele>729.2</ele>
        <time>2025-09-07T14:08:54Z</time>
      </trkpt>
      <trkpt lat="46.20326" lon="4.51388">
        <ele>729.6</ele>
        <time>2025-09-07T14:08:55Z</time>
      </trkpt>
      <trkpt lat="46.20325" lon="4.51386">
        <ele>729.6</ele>
        <time>2025-09-07T14:08:56Z</time>
      </trkpt>
      <trkpt lat="46.20325" lon="4.51384">
        <ele>729.6</ele>
        <time>2025-09-07T14:08:57Z</time>
      </trkpt>
      <trkpt lat="46.20325" lon="4.51381">
        <ele>730</ele>
        <time>2025-09-07T14:08:58Z</time>
      </trkpt>
      <trkpt lat="46.20325" lon="4.5138">
        <ele>730.2</ele>
        <time>2025-09-07T14:08:59Z</time>
      </trkpt>
      <trkpt lat="46.20325" lon="4.51379">
        <ele>730.2</ele>
        <time>2025-09-07T14:09:00Z</time>
      </trkpt>
      <trkpt lat="46.20324" lon="4.51377">
        <ele>730.2</ele>
        <time>2025-09-07T14:09:01Z</time>
      </trkpt>
      <trkpt lat="46.20323" lon="4.51375">
        <ele>730.4</ele>
        <time>2025-09-07T14:09:02Z</time>
      </trkpt>
      <trkpt lat="46.20323" lon="4.51375">
        <ele>730.6</ele>
        <time>2025-09-07T14:09:03Z</time>
      </trkpt>
      <trkpt lat="46.20322" lon="4.51373">
        <ele>730.6</ele>
        <time>2025-09-07T14:09:04Z</time>
      </trkpt>
      <trkpt lat="46.20321" lon="4.51371">
        <ele>730.6</ele>
        <time>2025-09-07T14:09:05Z</time>
      </trkpt>
      <trkpt lat="46.20321" lon="4.51369">
        <ele>730.6</ele>
        <time>2025-09-07T14:09:06Z</time>
      </trkpt>
      <trkpt lat="46.20321" lon="4.51367">
        <ele>731</ele>
        <time>2025-09-07T14:09:07Z</time>
      </trkpt>
      <trkpt lat="46.20322" lon="4.51365">
        <ele>731</ele>
        <time>2025-09-07T14:09:08Z</time>
      </trkpt>
      <trkpt lat="46.20322" lon="4.51363">
        <ele>731.2</ele>
        <time>2025-09-07T14:09:09Z</time>
      </trkpt>
      <trkpt lat="46.20322" lon="4.51361">
        <ele>731.2</ele>
        <time>2025-09-07T14:09:10Z</time>
      </trkpt>
      <trkpt lat="46.20322" lon="4.51359">
        <ele>731.6</ele>
        <time>2025-09-07T14:09:11Z</time>
      </trkpt>
      <trkpt lat="46.20322" lon="4.51358">
        <ele>731.8</ele>
        <time>2025-09-07T14:09:12Z</time>
      </trkpt>
      <trkpt lat="46.20323" lon="4.51356">
        <ele>731.8</ele>
        <time>2025-09-07T14:09:13Z</time>
      </trkpt>
      <trkpt lat="46.20323" lon="4.51355">
        <ele>731.8</ele>
        <time>2025-09-07T14:09:14Z</time>
      </trkpt>
      <trkpt lat="46.20323" lon="4.51353">
        <ele>732</ele>
        <time>2025-09-07T14:09:15Z</time>
      </trkpt>
      <trkpt lat="46.20323" lon="4.51352">
        <ele>732</ele>
        <time>2025-09-07T14:09:16Z</time>
      </trkpt>
      <trkpt lat="46.20322" lon="4.51351">
        <ele>732</ele>
        <time>2025-09-07T14:09:17Z</time>
      </trkpt>
      <trkpt lat="46.20322" lon="4.5135">
        <ele>732</ele>
        <time>2025-09-07T14:09:18Z</time>
      </trkpt>
      <trkpt lat="46.20322" lon="4.51349">
        <ele>732.6</ele>
        <time>2025-09-07T14:09:19Z</time>
      </trkpt>
      <trkpt lat="46.20322" lon="4.51347">
        <ele>732.6</ele>
        <time>2025-09-07T14:09:20Z</time>
      </trkpt>
      <trkpt lat="46.20323" lon="4.51346">
        <ele>732.8</ele>
        <time>2025-09-07T14:09:21Z</time>
      </trkpt>
      <trkpt lat="46.20322" lon="4.51344">
        <ele>732.8</ele>
        <time>2025-09-07T14:09:22Z</time>
      </trkpt>
      <trkpt lat="46.20322" lon="4.51342">
        <ele>733.2</ele>
        <time>2025-09-07T14:09:23Z</time>
      </trkpt>
      <trkpt lat="46.20322" lon="4.51341">
        <ele>733.2</ele>
        <time>2025-09-07T14:09:24Z</time>
      </trkpt>
      <trkpt lat="46.20322" lon="4.51339">
        <ele>733.4</ele>
        <time>2025-09-07T14:09:25Z</time>
      </trkpt>
      <trkpt lat="46.20322" lon="4.51337">
        <ele>733.4</ele>
        <time>2025-09-07T14:09:26Z</time>
      </trkpt>
      <trkpt lat="46.20322" lon="4.51335">
        <ele>733.6</ele>
        <time>2025-09-07T14:09:27Z</time>
      </trkpt>
      <trkpt lat="46.20322" lon="4.51333">
        <ele>733.6</ele>
        <time>2025-09-07T14:09:28Z</time>
      </trkpt>
      <trkpt lat="46.20322" lon="4.51333">
        <ele>733.8</ele>
        <time>2025-09-07T14:09:29Z</time>
      </trkpt>
      <trkpt lat="46.20322" lon="4.5133">
        <ele>734.6</ele>
        <time>2025-09-07T14:09:30Z</time>
      </trkpt>
      <trkpt lat="46.20322" lon="4.51328">
        <ele>734.6</ele>
        <time>2025-09-07T14:09:31Z</time>
      </trkpt>
      <trkpt lat="46.20323" lon="4.51326">
        <ele>734.6</ele>
        <time>2025-09-07T14:09:32Z</time>
      </trkpt>
      <trkpt lat="46.20323" lon="4.51325">
        <ele>734.6</ele>
        <time>2025-09-07T14:09:33Z</time>
      </trkpt>
      <trkpt lat="46.20324" lon="4.51323">
        <ele>734.6</ele>
        <time>2025-09-07T14:09:34Z</time>
      </trkpt>
      <trkpt lat="46.20324" lon="4.51321">
        <ele>734.6</ele>
        <time>2025-09-07T14:09:35Z</time>
      </trkpt>
      <trkpt lat="46.20323" lon="4.51319">
        <ele>734.6</ele>
        <time>2025-09-07T14:09:36Z</time>
      </trkpt>
      <trkpt lat="46.20322" lon="4.51317">
        <ele>734.6</ele>
        <time>2025-09-07T14:09:37Z</time>
      </trkpt>
      <trkpt lat="46.20322" lon="4.51316">
        <ele>735</ele>
        <time>2025-09-07T14:09:38Z</time>
      </trkpt>
      <trkpt lat="46.20322" lon="4.51314">
        <ele>735.2</ele>
        <time>2025-09-07T14:09:39Z</time>
      </trkpt>
      <trkpt lat="46.20322" lon="4.51312">
        <ele>735.4</ele>
        <time>2025-09-07T14:09:40Z</time>
      </trkpt>
      <trkpt lat="46.20322" lon="4.51311">
        <ele>735.8</ele>
        <time>2025-09-07T14:09:41Z</time>
      </trkpt>
      <trkpt lat="46.20322" lon="4.51309">
        <ele>736</ele>
        <time>2025-09-07T14:09:42Z</time>
      </trkpt>
      <trkpt lat="46.20321" lon="4.51307">
        <ele>736</ele>
        <time>2025-09-07T14:09:43Z</time>
      </trkpt>
      <trkpt lat="46.20321" lon="4.51306">
        <ele>736.2</ele>
        <time>2025-09-07T14:09:44Z</time>
      </trkpt>
      <trkpt lat="46.20322" lon="4.51305">
        <ele>736.6</ele>
        <time>2025-09-07T14:09:45Z</time>
      </trkpt>
      <trkpt lat="46.20322" lon="4.51304">
        <ele>736.6</ele>
        <time>2025-09-07T14:09:46Z</time>
      </trkpt>
      <trkpt lat="46.20322" lon="4.51303">
        <ele>736.8</ele>
        <time>2025-09-07T14:09:47Z</time>
      </trkpt>
      <trkpt lat="46.20323" lon="4.51302">
        <ele>736.8</ele>
        <time>2025-09-07T14:09:48Z</time>
      </trkpt>
      <trkpt lat="46.20323" lon="4.513">
        <ele>736.8</ele>
        <time>2025-09-07T14:09:49Z</time>
      </trkpt>
      <trkpt lat="46.20323" lon="4.51299">
        <ele>737</ele>
        <time>2025-09-07T14:09:50Z</time>
      </trkpt>
      <trkpt lat="46.20323" lon="4.51298">
        <ele>737</ele>
        <time>2025-09-07T14:09:51Z</time>
      </trkpt>
      <trkpt lat="46.20322" lon="4.51297">
        <ele>737.4</ele>
        <time>2025-09-07T14:09:52Z</time>
      </trkpt>
      <trkpt lat="46.20322" lon="4.51295">
        <ele>737.4</ele>
        <time>2025-09-07T14:09:53Z</time>
      </trkpt>
      <trkpt lat="46.20322" lon="4.51294">
        <ele>737.6</ele>
        <time>2025-09-07T14:09:54Z</time>
      </trkpt>
      <trkpt lat="46.20322" lon="4.51292">
        <ele>737.6</ele>
        <time>2025-09-07T14:09:55Z</time>
      </trkpt>
      <trkpt lat="46.20322" lon="4.51291">
        <ele>737.6</ele>
        <time>2025-09-07T14:09:56Z</time>
      </trkpt>
      <trkpt lat="46.20322" lon="4.5129">
        <ele>738</ele>
        <time>2025-09-07T14:09:57Z</time>
      </trkpt>
      <trkpt lat="46.20322" lon="4.51288">
        <ele>738</ele>
        <time>2025-09-07T14:09:58Z</time>
      </trkpt>
      <trkpt lat="46.20322" lon="4.51287">
        <ele>738.4</ele>
        <time>2025-09-07T14:09:59Z</time>
      </trkpt>
      <trkpt lat="46.20323" lon="4.51285">
        <ele>738.4</ele>
        <time>2025-09-07T14:10:00Z</time>
      </trkpt>
      <trkpt lat="46.20322" lon="4.51283">
        <ele>738.6</ele>
        <time>2025-09-07T14:10:01Z</time>
      </trkpt>
      <trkpt lat="46.20322" lon="4.51282">
        <ele>738.6</ele>
        <time>2025-09-07T14:10:02Z</time>
      </trkpt>
      <trkpt lat="46.20322" lon="4.51281">
        <ele>739</ele>
        <time>2025-09-07T14:10:03Z</time>
      </trkpt>
      <trkpt lat="46.20322" lon="4.5128">
        <ele>739</ele>
        <time>2025-09-07T14:10:04Z</time>
      </trkpt>
      <trkpt lat="46.20322" lon="4.51278">
        <ele>739.2</ele>
        <time>2025-09-07T14:10:05Z</time>
      </trkpt>
      <trkpt lat="46.20322" lon="4.51276">
        <ele>739.2</ele>
        <time>2025-09-07T14:10:06Z</time>
      </trkpt>
      <trkpt lat="46.20322" lon="4.51274">
        <ele>739.6</ele>
        <time>2025-09-07T14:10:07Z</time>
      </trkpt>
      <trkpt lat="46.20322" lon="4.51273">
        <ele>739.6</ele>
        <time>2025-09-07T14:10:08Z</time>
      </trkpt>
      <trkpt lat="46.20322" lon="4.51271">
        <ele>740</ele>
        <time>2025-09-07T14:10:09Z</time>
      </trkpt>
      <trkpt lat="46.20322" lon="4.51269">
        <ele>740</ele>
        <time>2025-09-07T14:10:10Z</time>
      </trkpt>
      <trkpt lat="46.20322" lon="4.51268">
        <ele>740</ele>
        <time>2025-09-07T14:10:11Z</time>
      </trkpt>
      <trkpt lat="46.20322" lon="4.51267">
        <ele>740</ele>
        <time>2025-09-07T14:10:12Z</time>
      </trkpt>
      <trkpt lat="46.20322" lon="4.51265">
        <ele>740</ele>
        <time>2025-09-07T14:10:13Z</time>
      </trkpt>
      <trkpt lat="46.20322" lon="4.51263">
        <ele>740.4</ele>
        <time>2025-09-07T14:10:14Z</time>
      </trkpt>
      <trkpt lat="46.20323" lon="4.51262">
        <ele>740.6</ele>
        <time>2025-09-07T14:10:15Z</time>
      </trkpt>
      <trkpt lat="46.20323" lon="4.51259">
        <ele>740.8</ele>
        <time>2025-09-07T14:10:16Z</time>
      </trkpt>
      <trkpt lat="46.20323" lon="4.51258">
        <ele>740.8</ele>
        <time>2025-09-07T14:10:17Z</time>
      </trkpt>
      <trkpt lat="46.20323" lon="4.51256">
        <ele>740.8</ele>
        <time>2025-09-07T14:10:18Z</time>
      </trkpt>
      <trkpt lat="46.20322" lon="4.51256">
        <ele>741</ele>
        <time>2025-09-07T14:10:19Z</time>
      </trkpt>
      <trkpt lat="46.20322" lon="4.51255">
        <ele>741.2</ele>
        <time>2025-09-07T14:10:20Z</time>
      </trkpt>
      <trkpt lat="46.20321" lon="4.51254">
        <ele>741.6</ele>
        <time>2025-09-07T14:10:21Z</time>
      </trkpt>
      <trkpt lat="46.2032" lon="4.51252">
        <ele>741.8</ele>
        <time>2025-09-07T14:10:22Z</time>
      </trkpt>
      <trkpt lat="46.2032" lon="4.5125">
        <ele>741.8</ele>
        <time>2025-09-07T14:10:23Z</time>
      </trkpt>
      <trkpt lat="46.2032" lon="4.51248">
        <ele>741.8</ele>
        <time>2025-09-07T14:10:24Z</time>
      </trkpt>
      <trkpt lat="46.20321" lon="4.51247">
        <ele>741.8</ele>
        <time>2025-09-07T14:10:25Z</time>
      </trkpt>
      <trkpt lat="46.20321" lon="4.51245">
        <ele>741.8</ele>
        <time>2025-09-07T14:10:26Z</time>
      </trkpt>
      <trkpt lat="46.20321" lon="4.51243">
        <ele>742.4</ele>
        <time>2025-09-07T14:10:27Z</time>
      </trkpt>
      <trkpt lat="46.20322" lon="4.51242">
        <ele>742.4</ele>
        <time>2025-09-07T14:10:28Z</time>
      </trkpt>
      <trkpt lat="46.20322" lon="4.5124">
        <ele>742.4</ele>
        <time>2025-09-07T14:10:29Z</time>
      </trkpt>
      <trkpt lat="46.20322" lon="4.51238">
        <ele>742.4</ele>
        <time>2025-09-07T14:10:30Z</time>
      </trkpt>
      <trkpt lat="46.20323" lon="4.51235">
        <ele>742.8</ele>
        <time>2025-09-07T14:10:31Z</time>
      </trkpt>
      <trkpt lat="46.20323" lon="4.51234">
        <ele>742.8</ele>
        <time>2025-09-07T14:10:32Z</time>
      </trkpt>
      <trkpt lat="46.20323" lon="4.51234">
        <ele>743</ele>
        <time>2025-09-07T14:10:33Z</time>
      </trkpt>
      <trkpt lat="46.20323" lon="4.51234">
        <ele>743</ele>
        <time>2025-09-07T14:10:34Z</time>
      </trkpt>
      <trkpt lat="46.20323" lon="4.51226">
        <ele>743.6</ele>
        <time>2025-09-07T14:10:36Z</time>
      </trkpt>
      <trkpt lat="46.20323" lon="4.51224">
        <ele>743.8</ele>
        <time>2025-09-07T14:10:37Z</time>
      </trkpt>
      <trkpt lat="46.20322" lon="4.51222">
        <ele>743.8</ele>
        <time>2025-09-07T14:10:38Z</time>
      </trkpt>
      <trkpt lat="46.20322" lon="4.5122">
        <ele>744.2</ele>
        <time>2025-09-07T14:10:39Z</time>
      </trkpt>
      <trkpt lat="46.20323" lon="4.51219">
        <ele>744.2</ele>
        <time>2025-09-07T14:10:40Z</time>
      </trkpt>
      <trkpt lat="46.20323" lon="4.51217">
        <ele>744.4</ele>
        <time>2025-09-07T14:10:41Z</time>
      </trkpt>
      <trkpt lat="46.20324" lon="4.51216">
        <ele>744.4</ele>
        <time>2025-09-07T14:10:42Z</time>
      </trkpt>
      <trkpt lat="46.20324" lon="4.51214">
        <ele>744.8</ele>
        <time>2025-09-07T14:10:43Z</time>
      </trkpt>
      <trkpt lat="46.20325" lon="4.51213">
        <ele>744.8</ele>
        <time>2025-09-07T14:10:44Z</time>
      </trkpt>
      <trkpt lat="46.20326" lon="4.51211">
        <ele>744.8</ele>
        <time>2025-09-07T14:10:45Z</time>
      </trkpt>
      <trkpt lat="46.20326" lon="4.5121">
        <ele>745</ele>
        <time>2025-09-07T14:10:46Z</time>
      </trkpt>
      <trkpt lat="46.20327" lon="4.51208">
        <ele>745</ele>
        <time>2025-09-07T14:10:47Z</time>
      </trkpt>
      <trkpt lat="46.20327" lon="4.51206">
        <ele>745.2</ele>
        <time>2025-09-07T14:10:48Z</time>
      </trkpt>
      <trkpt lat="46.20327" lon="4.51205">
        <ele>745.2</ele>
        <time>2025-09-07T14:10:49Z</time>
      </trkpt>
      <trkpt lat="46.20327" lon="4.51203">
        <ele>745.2</ele>
        <time>2025-09-07T14:10:50Z</time>
      </trkpt>
      <trkpt lat="46.20327" lon="4.512">
        <ele>745.6</ele>
        <time>2025-09-07T14:10:51Z</time>
      </trkpt>
      <trkpt lat="46.20328" lon="4.51199">
        <ele>745.6</ele>
        <time>2025-09-07T14:10:52Z</time>
      </trkpt>
      <trkpt lat="46.20328" lon="4.51197">
        <ele>745.6</ele>
        <time>2025-09-07T14:10:53Z</time>
      </trkpt>
      <trkpt lat="46.20328" lon="4.51195">
        <ele>745.6</ele>
        <time>2025-09-07T14:10:54Z</time>
      </trkpt>
      <trkpt lat="46.20327" lon="4.51194">
        <ele>745.8</ele>
        <time>2025-09-07T14:10:55Z</time>
      </trkpt>
      <trkpt lat="46.20326" lon="4.51192">
        <ele>745.8</ele>
        <time>2025-09-07T14:10:56Z</time>
      </trkpt>
      <trkpt lat="46.20325" lon="4.5119">
        <ele>745.6</ele>
        <time>2025-09-07T14:10:57Z</time>
      </trkpt>
      <trkpt lat="46.20325" lon="4.51188">
        <ele>745.6</ele>
        <time>2025-09-07T14:10:58Z</time>
      </trkpt>
      <trkpt lat="46.20325" lon="4.51186">
        <ele>745.8</ele>
        <time>2025-09-07T14:10:59Z</time>
      </trkpt>
      <trkpt lat="46.20325" lon="4.51185">
        <ele>745.8</ele>
        <time>2025-09-07T14:11:00Z</time>
      </trkpt>
      <trkpt lat="46.20325" lon="4.51183">
        <ele>745.8</ele>
        <time>2025-09-07T14:11:01Z</time>
      </trkpt>
      <trkpt lat="46.20325" lon="4.51181">
        <ele>745.8</ele>
        <time>2025-09-07T14:11:02Z</time>
      </trkpt>
      <trkpt lat="46.20326" lon="4.51179">
        <ele>745.8</ele>
        <time>2025-09-07T14:11:03Z</time>
      </trkpt>
      <trkpt lat="46.20326" lon="4.51178">
        <ele>745.8</ele>
        <time>2025-09-07T14:11:04Z</time>
      </trkpt>
      <trkpt lat="46.20326" lon="4.51177">
        <ele>745.8</ele>
        <time>2025-09-07T14:11:05Z</time>
      </trkpt>
      <trkpt lat="46.20327" lon="4.51175">
        <ele>745.8</ele>
        <time>2025-09-07T14:11:06Z</time>
      </trkpt>
      <trkpt lat="46.20327" lon="4.51174">
        <ele>746</ele>
        <time>2025-09-07T14:11:07Z</time>
      </trkpt>
      <trkpt lat="46.20328" lon="4.51173">
        <ele>746</ele>
        <time>2025-09-07T14:11:08Z</time>
      </trkpt>
      <trkpt lat="46.20329" lon="4.51171">
        <ele>746.2</ele>
        <time>2025-09-07T14:11:09Z</time>
      </trkpt>
      <trkpt lat="46.20329" lon="4.5117">
        <ele>746.2</ele>
        <time>2025-09-07T14:11:10Z</time>
      </trkpt>
      <trkpt lat="46.2033" lon="4.51168">
        <ele>746.2</ele>
        <time>2025-09-07T14:11:11Z</time>
      </trkpt>
      <trkpt lat="46.20331" lon="4.51167">
        <ele>746.2</ele>
        <time>2025-09-07T14:11:12Z</time>
      </trkpt>
      <trkpt lat="46.20332" lon="4.51166">
        <ele>746.2</ele>
        <time>2025-09-07T14:11:13Z</time>
      </trkpt>
      <trkpt lat="46.20333" lon="4.51165">
        <ele>746.2</ele>
        <time>2025-09-07T14:11:14Z</time>
      </trkpt>
      <trkpt lat="46.20335" lon="4.51163">
        <ele>746.2</ele>
        <time>2025-09-07T14:11:15Z</time>
      </trkpt>
      <trkpt lat="46.20335" lon="4.51161">
        <ele>746.2</ele>
        <time>2025-09-07T14:11:16Z</time>
      </trkpt>
      <trkpt lat="46.20335" lon="4.51159">
        <ele>746.2</ele>
        <time>2025-09-07T14:11:17Z</time>
      </trkpt>
      <trkpt lat="46.20334" lon="4.5116">
        <ele>746.2</ele>
        <time>2025-09-07T14:11:18Z</time>
      </trkpt>
      <trkpt lat="46.20328" lon="4.51169">
        <ele>747.4</ele>
        <time>2025-09-07T14:16:03Z</time>
      </trkpt>
      <trkpt lat="46.20328" lon="4.5117">
        <ele>747.4</ele>
        <time>2025-09-07T14:16:04Z</time>
      </trkpt>
      <trkpt lat="46.20328" lon="4.5117">
        <ele>747.4</ele>
        <time>2025-09-07T14:16:05Z</time>
      </trkpt>
      <trkpt lat="46.20328" lon="4.5117">
        <ele>747.4</ele>
        <time>2025-09-07T14:16:06Z</time>
      </trkpt>
      <trkpt lat="46.20328" lon="4.51169">
        <ele>747.2</ele>
        <time>2025-09-07T14:16:07Z</time>
      </trkpt>
      <trkpt lat="46.20326" lon="4.51168">
        <ele>747</ele>
        <time>2025-09-07T14:16:14Z</time>
      </trkpt>
      <trkpt lat="46.20324" lon="4.51166">
        <ele>747</ele>
        <time>2025-09-07T14:16:15Z</time>
      </trkpt>
      <trkpt lat="46.20322" lon="4.51163">
        <ele>747</ele>
        <time>2025-09-07T14:16:16Z</time>
      </trkpt>
      <trkpt lat="46.20321" lon="4.5116">
        <ele>747</ele>
        <time>2025-09-07T14:16:17Z</time>
      </trkpt>
      <trkpt lat="46.20321" lon="4.51158">
        <ele>747</ele>
        <time>2025-09-07T14:16:18Z</time>
      </trkpt>
      <trkpt lat="46.20321" lon="4.51154">
        <ele>747</ele>
        <time>2025-09-07T14:16:19Z</time>
      </trkpt>
      <trkpt lat="46.20321" lon="4.51152">
        <ele>747.2</ele>
        <time>2025-09-07T14:16:20Z</time>
      </trkpt>
      <trkpt lat="46.2032" lon="4.5115">
        <ele>747.2</ele>
        <time>2025-09-07T14:16:21Z</time>
      </trkpt>
      <trkpt lat="46.2032" lon="4.51148">
        <ele>747.2</ele>
        <time>2025-09-07T14:16:22Z</time>
      </trkpt>
      <trkpt lat="46.20319" lon="4.51145">
        <ele>747.6</ele>
        <time>2025-09-07T14:16:23Z</time>
      </trkpt>
      <trkpt lat="46.20319" lon="4.51144">
        <ele>747.6</ele>
        <time>2025-09-07T14:16:24Z</time>
      </trkpt>
      <trkpt lat="46.20319" lon="4.51142">
        <ele>747.6</ele>
        <time>2025-09-07T14:16:25Z</time>
      </trkpt>
      <trkpt lat="46.20319" lon="4.51139">
        <ele>747.8</ele>
        <time>2025-09-07T14:16:26Z</time>
      </trkpt>
      <trkpt lat="46.20319" lon="4.51137">
        <ele>747.8</ele>
        <time>2025-09-07T14:16:27Z</time>
      </trkpt>
      <trkpt lat="46.20318" lon="4.51136">
        <ele>747.8</ele>
        <time>2025-09-07T14:16:28Z</time>
      </trkpt>
      <trkpt lat="46.20317" lon="4.51133">
        <ele>748</ele>
        <time>2025-09-07T14:16:29Z</time>
      </trkpt>
      <trkpt lat="46.20316" lon="4.5113">
        <ele>748.2</ele>
        <time>2025-09-07T14:16:30Z</time>
      </trkpt>
      <trkpt lat="46.20316" lon="4.51129">
        <ele>748.2</ele>
        <time>2025-09-07T14:16:31Z</time>
      </trkpt>
      <trkpt lat="46.20315" lon="4.51127">
        <ele>748.2</ele>
        <time>2025-09-07T14:16:32Z</time>
      </trkpt>
      <trkpt lat="46.20315" lon="4.51125">
        <ele>748.2</ele>
        <time>2025-09-07T14:16:33Z</time>
      </trkpt>
      <trkpt lat="46.20314" lon="4.51123">
        <ele>748.2</ele>
        <time>2025-09-07T14:16:34Z</time>
      </trkpt>
      <trkpt lat="46.20313" lon="4.51121">
        <ele>748.2</ele>
        <time>2025-09-07T14:16:35Z</time>
      </trkpt>
      <trkpt lat="46.20313" lon="4.51118">
        <ele>748.2</ele>
        <time>2025-09-07T14:16:36Z</time>
      </trkpt>
      <trkpt lat="46.20313" lon="4.51116">
        <ele>748.4</ele>
        <time>2025-09-07T14:16:37Z</time>
      </trkpt>
      <trkpt lat="46.20312" lon="4.51114">
        <ele>748.4</ele>
        <time>2025-09-07T14:16:38Z</time>
      </trkpt>
      <trkpt lat="46.20312" lon="4.51114">
        <ele>748.8</ele>
        <time>2025-09-07T14:16:39Z</time>
      </trkpt>
      <trkpt lat="46.20311" lon="4.5111">
        <ele>748.8</ele>
        <time>2025-09-07T14:16:40Z</time>
      </trkpt>
      <trkpt lat="46.20311" lon="4.5111">
        <ele>748.8</ele>
        <time>2025-09-07T14:16:41Z</time>
      </trkpt>
      <trkpt lat="46.2031" lon="4.51108">
        <ele>749.2</ele>
        <time>2025-09-07T14:16:42Z</time>
      </trkpt>
      <trkpt lat="46.2031" lon="4.51105">
        <ele>749.2</ele>
        <time>2025-09-07T14:16:43Z</time>
      </trkpt>
      <trkpt lat="46.20309" lon="4.51103">
        <ele>749.4</ele>
        <time>2025-09-07T14:16:44Z</time>
      </trkpt>
      <trkpt lat="46.20309" lon="4.51101">
        <ele>749.6</ele>
        <time>2025-09-07T14:16:45Z</time>
      </trkpt>
      <trkpt lat="46.20308" lon="4.51099">
        <ele>749.6</ele>
        <time>2025-09-07T14:16:46Z</time>
      </trkpt>
      <trkpt lat="46.20308" lon="4.51097">
        <ele>750</ele>
        <time>2025-09-07T14:16:47Z</time>
      </trkpt>
      <trkpt lat="46.20308" lon="4.51095">
        <ele>750</ele>
        <time>2025-09-07T14:16:48Z</time>
      </trkpt>
      <trkpt lat="46.20307" lon="4.51093">
        <ele>750.2</ele>
        <time>2025-09-07T14:16:49Z</time>
      </trkpt>
      <trkpt lat="46.20307" lon="4.51091">
        <ele>750.2</ele>
        <time>2025-09-07T14:16:50Z</time>
      </trkpt>
      <trkpt lat="46.20306" lon="4.51089">
        <ele>750.2</ele>
        <time>2025-09-07T14:16:51Z</time>
      </trkpt>
      <trkpt lat="46.20306" lon="4.51087">
        <ele>750.6</ele>
        <time>2025-09-07T14:16:52Z</time>
      </trkpt>
      <trkpt lat="46.20306" lon="4.51085">
        <ele>750.6</ele>
        <time>2025-09-07T14:16:53Z</time>
      </trkpt>
      <trkpt lat="46.20306" lon="4.51083">
        <ele>750.8</ele>
        <time>2025-09-07T14:16:54Z</time>
      </trkpt>
      <trkpt lat="46.20305" lon="4.51082">
        <ele>750.8</ele>
        <time>2025-09-07T14:16:55Z</time>
      </trkpt>
      <trkpt lat="46.20305" lon="4.5108">
        <ele>750.8</ele>
        <time>2025-09-07T14:16:56Z</time>
      </trkpt>
      <trkpt lat="46.20305" lon="4.51079">
        <ele>750.8</ele>
        <time>2025-09-07T14:16:57Z</time>
      </trkpt>
      <trkpt lat="46.20304" lon="4.51077">
        <ele>751.2</ele>
        <time>2025-09-07T14:16:58Z</time>
      </trkpt>
      <trkpt lat="46.20304" lon="4.51075">
        <ele>751.2</ele>
        <time>2025-09-07T14:16:59Z</time>
      </trkpt>
      <trkpt lat="46.20304" lon="4.51074">
        <ele>751.4</ele>
        <time>2025-09-07T14:17:00Z</time>
      </trkpt>
      <trkpt lat="46.20303" lon="4.51072">
        <ele>751.4</ele>
        <time>2025-09-07T14:17:01Z</time>
      </trkpt>
      <trkpt lat="46.20302" lon="4.51071">
        <ele>751.4</ele>
        <time>2025-09-07T14:17:02Z</time>
      </trkpt>
      <trkpt lat="46.20301" lon="4.5107">
        <ele>751.6</ele>
        <time>2025-09-07T14:17:03Z</time>
      </trkpt>
      <trkpt lat="46.203" lon="4.51068">
        <ele>751.8</ele>
        <time>2025-09-07T14:17:04Z</time>
      </trkpt>
      <trkpt lat="46.203" lon="4.51067">
        <ele>751.8</ele>
        <time>2025-09-07T14:17:05Z</time>
      </trkpt>
      <trkpt lat="46.203" lon="4.51065">
        <ele>752</ele>
        <time>2025-09-07T14:17:06Z</time>
      </trkpt>
      <trkpt lat="46.203" lon="4.51062">
        <ele>752</ele>
        <time>2025-09-07T14:17:07Z</time>
      </trkpt>
      <trkpt lat="46.203" lon="4.51061">
        <ele>752.4</ele>
        <time>2025-09-07T14:17:08Z</time>
      </trkpt>
      <trkpt lat="46.203" lon="4.5106">
        <ele>752.4</ele>
        <time>2025-09-07T14:17:09Z</time>
      </trkpt>
      <trkpt lat="46.203" lon="4.51058">
        <ele>752.4</ele>
        <time>2025-09-07T14:17:10Z</time>
      </trkpt>
      <trkpt lat="46.203" lon="4.51056">
        <ele>752.6</ele>
        <time>2025-09-07T14:17:11Z</time>
      </trkpt>
      <trkpt lat="46.20301" lon="4.51054">
        <ele>752.8</ele>
        <time>2025-09-07T14:17:12Z</time>
      </trkpt>
      <trkpt lat="46.20301" lon="4.51053">
        <ele>752.8</ele>
        <time>2025-09-07T14:17:13Z</time>
      </trkpt>
      <trkpt lat="46.20301" lon="4.51052">
        <ele>752.8</ele>
        <time>2025-09-07T14:17:14Z</time>
      </trkpt>
      <trkpt lat="46.20301" lon="4.51051">
        <ele>753.2</ele>
        <time>2025-09-07T14:17:15Z</time>
      </trkpt>
      <trkpt lat="46.203" lon="4.5105">
        <ele>753.4</ele>
        <time>2025-09-07T14:17:16Z</time>
      </trkpt>
      <trkpt lat="46.20299" lon="4.51048">
        <ele>753.4</ele>
        <time>2025-09-07T14:17:17Z</time>
      </trkpt>
      <trkpt lat="46.20299" lon="4.51047">
        <ele>753.8</ele>
        <time>2025-09-07T14:17:18Z</time>
      </trkpt>
      <trkpt lat="46.20299" lon="4.51047">
        <ele>753.8</ele>
        <time>2025-09-07T14:17:19Z</time>
      </trkpt>
      <trkpt lat="46.20298" lon="4.51046">
        <ele>754</ele>
        <time>2025-09-07T14:17:20Z</time>
      </trkpt>
      <trkpt lat="46.20298" lon="4.51045">
        <ele>754</ele>
        <time>2025-09-07T14:17:21Z</time>
      </trkpt>
      <trkpt lat="46.20297" lon="4.51044">
        <ele>754.2</ele>
        <time>2025-09-07T14:17:22Z</time>
      </trkpt>
      <trkpt lat="46.20297" lon="4.51042">
        <ele>754.2</ele>
        <time>2025-09-07T14:17:23Z</time>
      </trkpt>
      <trkpt lat="46.20297" lon="4.51041">
        <ele>754.6</ele>
        <time>2025-09-07T14:17:24Z</time>
      </trkpt>
      <trkpt lat="46.20297" lon="4.5104">
        <ele>754.6</ele>
        <time>2025-09-07T14:17:25Z</time>
      </trkpt>
      <trkpt lat="46.20297" lon="4.51037">
        <ele>754.6</ele>
        <time>2025-09-07T14:17:26Z</time>
      </trkpt>
      <trkpt lat="46.20296" lon="4.51036">
        <ele>755</ele>
        <time>2025-09-07T14:17:27Z</time>
      </trkpt>
      <trkpt lat="46.20296" lon="4.51035">
        <ele>755</ele>
        <time>2025-09-07T14:17:28Z</time>
      </trkpt>
      <trkpt lat="46.20295" lon="4.51034">
        <ele>755</ele>
        <time>2025-09-07T14:17:29Z</time>
      </trkpt>
      <trkpt lat="46.20295" lon="4.51033">
        <ele>755</ele>
        <time>2025-09-07T14:17:30Z</time>
      </trkpt>
      <trkpt lat="46.20294" lon="4.51032">
        <ele>755</ele>
        <time>2025-09-07T14:17:31Z</time>
      </trkpt>
      <trkpt lat="46.20294" lon="4.51031">
        <ele>755</ele>
        <time>2025-09-07T14:17:32Z</time>
      </trkpt>
      <trkpt lat="46.20293" lon="4.51031">
        <ele>755.2</ele>
        <time>2025-09-07T14:17:33Z</time>
      </trkpt>
      <trkpt lat="46.20292" lon="4.51031">
        <ele>755.2</ele>
        <time>2025-09-07T14:17:34Z</time>
      </trkpt>
      <trkpt lat="46.20291" lon="4.51031">
        <ele>755.6</ele>
        <time>2025-09-07T14:17:35Z</time>
      </trkpt>
      <trkpt lat="46.20291" lon="4.51031">
        <ele>755.6</ele>
        <time>2025-09-07T14:17:36Z</time>
      </trkpt>
      <trkpt lat="46.20291" lon="4.51031">
        <ele>755.6</ele>
        <time>2025-09-07T14:17:37Z</time>
      </trkpt>
      <trkpt lat="46.2029" lon="4.5103">
        <ele>755.8</ele>
        <time>2025-09-07T14:17:38Z</time>
      </trkpt>
      <trkpt lat="46.2029" lon="4.51029">
        <ele>755.8</ele>
        <time>2025-09-07T14:17:39Z</time>
      </trkpt>
      <trkpt lat="46.20289" lon="4.51028">
        <ele>756.2</ele>
        <time>2025-09-07T14:17:40Z</time>
      </trkpt>
      <trkpt lat="46.20288" lon="4.51027">
        <ele>756.2</ele>
        <time>2025-09-07T14:17:41Z</time>
      </trkpt>
      <trkpt lat="46.20288" lon="4.51026">
        <ele>756.4</ele>
        <time>2025-09-07T14:17:42Z</time>
      </trkpt>
      <trkpt lat="46.20288" lon="4.51026">
        <ele>756.4</ele>
        <time>2025-09-07T14:17:43Z</time>
      </trkpt>
      <trkpt lat="46.20287" lon="4.51026">
        <ele>756.8</ele>
        <time>2025-09-07T14:17:44Z</time>
      </trkpt>
      <trkpt lat="46.20286" lon="4.51025">
        <ele>757.2</ele>
        <time>2025-09-07T14:17:45Z</time>
      </trkpt>
      <trkpt lat="46.20285" lon="4.51025">
        <ele>757.2</ele>
        <time>2025-09-07T14:17:46Z</time>
      </trkpt>
      <trkpt lat="46.20284" lon="4.51025">
        <ele>757.4</ele>
        <time>2025-09-07T14:17:47Z</time>
      </trkpt>
      <trkpt lat="46.20283" lon="4.51025">
        <ele>757.6</ele>
        <time>2025-09-07T14:17:48Z</time>
      </trkpt>
      <trkpt lat="46.20281" lon="4.51025">
        <ele>757.6</ele>
        <time>2025-09-07T14:17:49Z</time>
      </trkpt>
      <trkpt lat="46.20281" lon="4.51024">
        <ele>757.8</ele>
        <time>2025-09-07T14:17:50Z</time>
      </trkpt>
      <trkpt lat="46.2028" lon="4.51023">
        <ele>758.2</ele>
        <time>2025-09-07T14:17:51Z</time>
      </trkpt>
      <trkpt lat="46.2028" lon="4.51022">
        <ele>758.2</ele>
        <time>2025-09-07T14:17:52Z</time>
      </trkpt>
      <trkpt lat="46.2028" lon="4.5102">
        <ele>758.2</ele>
        <time>2025-09-07T14:17:53Z</time>
      </trkpt>
      <trkpt lat="46.20279" lon="4.51019">
        <ele>758.4</ele>
        <time>2025-09-07T14:17:54Z</time>
      </trkpt>
      <trkpt lat="46.20279" lon="4.51017">
        <ele>758.6</ele>
        <time>2025-09-07T14:17:55Z</time>
      </trkpt>
      <trkpt lat="46.20279" lon="4.51014">
        <ele>758.6</ele>
        <time>2025-09-07T14:17:56Z</time>
      </trkpt>
      <trkpt lat="46.20279" lon="4.51012">
        <ele>759</ele>
        <time>2025-09-07T14:17:57Z</time>
      </trkpt>
      <trkpt lat="46.20279" lon="4.51011">
        <ele>759.2</ele>
        <time>2025-09-07T14:17:58Z</time>
      </trkpt>
      <trkpt lat="46.20279" lon="4.5101">
        <ele>759.2</ele>
        <time>2025-09-07T14:17:59Z</time>
      </trkpt>
      <trkpt lat="46.20278" lon="4.51008">
        <ele>759.2</ele>
        <time>2025-09-07T14:18:00Z</time>
      </trkpt>
      <trkpt lat="46.20278" lon="4.51007">
        <ele>759.2</ele>
        <time>2025-09-07T14:18:01Z</time>
      </trkpt>
      <trkpt lat="46.20278" lon="4.51005">
        <ele>759.4</ele>
        <time>2025-09-07T14:18:02Z</time>
      </trkpt>
      <trkpt lat="46.20279" lon="4.51005">
        <ele>759.4</ele>
        <time>2025-09-07T14:18:03Z</time>
      </trkpt>
      <trkpt lat="46.20278" lon="4.51004">
        <ele>759.4</ele>
        <time>2025-09-07T14:18:04Z</time>
      </trkpt>
      <trkpt lat="46.20278" lon="4.51002">
        <ele>759.6</ele>
        <time>2025-09-07T14:18:05Z</time>
      </trkpt>
      <trkpt lat="46.20278" lon="4.51001">
        <ele>760</ele>
        <time>2025-09-07T14:18:06Z</time>
      </trkpt>
      <trkpt lat="46.20278" lon="4.51">
        <ele>760</ele>
        <time>2025-09-07T14:18:07Z</time>
      </trkpt>
      <trkpt lat="46.20277" lon="4.51">
        <ele>760</ele>
        <time>2025-09-07T14:18:08Z</time>
      </trkpt>
      <trkpt lat="46.20276" lon="4.50999">
        <ele>760.2</ele>
        <time>2025-09-07T14:18:09Z</time>
      </trkpt>
      <trkpt lat="46.20275" lon="4.50998">
        <ele>760.4</ele>
        <time>2025-09-07T14:18:10Z</time>
      </trkpt>
      <trkpt lat="46.20274" lon="4.50997">
        <ele>760.8</ele>
        <time>2025-09-07T14:18:11Z</time>
      </trkpt>
      <trkpt lat="46.20273" lon="4.50996">
        <ele>761</ele>
        <time>2025-09-07T14:18:12Z</time>
      </trkpt>
      <trkpt lat="46.20273" lon="4.50995">
        <ele>761</ele>
        <time>2025-09-07T14:18:13Z</time>
      </trkpt>
      <trkpt lat="46.20272" lon="4.50994">
        <ele>761.4</ele>
        <time>2025-09-07T14:18:14Z</time>
      </trkpt>
      <trkpt lat="46.20271" lon="4.50993">
        <ele>761.4</ele>
        <time>2025-09-07T14:18:15Z</time>
      </trkpt>
      <trkpt lat="46.2027" lon="4.50992">
        <ele>761.6</ele>
        <time>2025-09-07T14:18:16Z</time>
      </trkpt>
      <trkpt lat="46.20269" lon="4.50991">
        <ele>761.6</ele>
        <time>2025-09-07T14:18:17Z</time>
      </trkpt>
      <trkpt lat="46.20269" lon="4.5099">
        <ele>761.6</ele>
        <time>2025-09-07T14:18:18Z</time>
      </trkpt>
      <trkpt lat="46.20268" lon="4.50989">
        <ele>762</ele>
        <time>2025-09-07T14:18:19Z</time>
      </trkpt>
      <trkpt lat="46.20267" lon="4.50988">
        <ele>762</ele>
        <time>2025-09-07T14:18:20Z</time>
      </trkpt>
      <trkpt lat="46.20267" lon="4.50986">
        <ele>762.2</ele>
        <time>2025-09-07T14:18:21Z</time>
      </trkpt>
      <trkpt lat="46.20266" lon="4.50985">
        <ele>762.2</ele>
        <time>2025-09-07T14:18:22Z</time>
      </trkpt>
      <trkpt lat="46.20266" lon="4.50984">
        <ele>762.2</ele>
        <time>2025-09-07T14:18:23Z</time>
      </trkpt>
      <trkpt lat="46.20266" lon="4.50982">
        <ele>762.2</ele>
        <time>2025-09-07T14:18:24Z</time>
      </trkpt>
      <trkpt lat="46.20266" lon="4.50982">
        <ele>762.2</ele>
        <time>2025-09-07T14:18:25Z</time>
      </trkpt>
      <trkpt lat="46.20266" lon="4.5098">
        <ele>762.6</ele>
        <time>2025-09-07T14:18:26Z</time>
      </trkpt>
      <trkpt lat="46.20265" lon="4.50979">
        <ele>762.6</ele>
        <time>2025-09-07T14:18:27Z</time>
      </trkpt>
      <trkpt lat="46.20265" lon="4.50977">
        <ele>762.6</ele>
        <time>2025-09-07T14:18:28Z</time>
      </trkpt>
      <trkpt lat="46.20264" lon="4.50974">
        <ele>762.6</ele>
        <time>2025-09-07T14:18:29Z</time>
      </trkpt>
      <trkpt lat="46.20264" lon="4.50973">
        <ele>762.8</ele>
        <time>2025-09-07T14:18:30Z</time>
      </trkpt>
      <trkpt lat="46.20263" lon="4.50972">
        <ele>762.8</ele>
        <time>2025-09-07T14:18:31Z</time>
      </trkpt>
      <trkpt lat="46.20263" lon="4.50971">
        <ele>763</ele>
        <time>2025-09-07T14:18:32Z</time>
      </trkpt>
      <trkpt lat="46.20263" lon="4.5097">
        <ele>763</ele>
        <time>2025-09-07T14:18:33Z</time>
      </trkpt>
      <trkpt lat="46.20263" lon="4.50969">
        <ele>763</ele>
        <time>2025-09-07T14:18:34Z</time>
      </trkpt>
      <trkpt lat="46.20262" lon="4.50967">
        <ele>763.4</ele>
        <time>2025-09-07T14:18:35Z</time>
      </trkpt>
      <trkpt lat="46.20262" lon="4.50966">
        <ele>763.4</ele>
        <time>2025-09-07T14:18:36Z</time>
      </trkpt>
      <trkpt lat="46.20262" lon="4.50965">
        <ele>763.4</ele>
        <time>2025-09-07T14:18:37Z</time>
      </trkpt>
      <trkpt lat="46.20261" lon="4.50964">
        <ele>763.6</ele>
        <time>2025-09-07T14:18:38Z</time>
      </trkpt>
      <trkpt lat="46.2026" lon="4.50962">
        <ele>763.8</ele>
        <time>2025-09-07T14:18:39Z</time>
      </trkpt>
      <trkpt lat="46.2026" lon="4.50961">
        <ele>763.8</ele>
        <time>2025-09-07T14:18:40Z</time>
      </trkpt>
      <trkpt lat="46.2026" lon="4.5096">
        <ele>763.8</ele>
        <time>2025-09-07T14:18:41Z</time>
      </trkpt>
      <trkpt lat="46.20259" lon="4.5096">
        <ele>763.8</ele>
        <time>2025-09-07T14:18:42Z</time>
      </trkpt>
      <trkpt lat="46.20259" lon="4.50958">
        <ele>763.8</ele>
        <time>2025-09-07T14:18:43Z</time>
      </trkpt>
      <trkpt lat="46.20258" lon="4.50956">
        <ele>764.2</ele>
        <time>2025-09-07T14:18:44Z</time>
      </trkpt>
      <trkpt lat="46.20258" lon="4.50955">
        <ele>764.2</ele>
        <time>2025-09-07T14:18:45Z</time>
      </trkpt>
      <trkpt lat="46.20258" lon="4.50953">
        <ele>764.4</ele>
        <time>2025-09-07T14:18:46Z</time>
      </trkpt>
      <trkpt lat="46.20258" lon="4.50951">
        <ele>764.4</ele>
        <time>2025-09-07T14:18:47Z</time>
      </trkpt>
      <trkpt lat="46.20258" lon="4.50949">
        <ele>764.4</ele>
        <time>2025-09-07T14:18:48Z</time>
      </trkpt>
      <trkpt lat="46.20257" lon="4.50948">
        <ele>764.8</ele>
        <time>2025-09-07T14:18:49Z</time>
      </trkpt>
      <trkpt lat="46.20257" lon="4.50947">
        <ele>764.8</ele>
        <time>2025-09-07T14:18:50Z</time>
      </trkpt>
      <trkpt lat="46.20256" lon="4.50946">
        <ele>765.2</ele>
        <time>2025-09-07T14:18:51Z</time>
      </trkpt>
      <trkpt lat="46.20256" lon="4.50944">
        <ele>765.2</ele>
        <time>2025-09-07T14:18:52Z</time>
      </trkpt>
      <trkpt lat="46.20255" lon="4.50942">
        <ele>765.4</ele>
        <time>2025-09-07T14:18:53Z</time>
      </trkpt>
      <trkpt lat="46.20255" lon="4.50941">
        <ele>765.4</ele>
        <time>2025-09-07T14:18:54Z</time>
      </trkpt>
      <trkpt lat="46.20254" lon="4.5094">
        <ele>765.4</ele>
        <time>2025-09-07T14:18:55Z</time>
      </trkpt>
      <trkpt lat="46.20254" lon="4.50938">
        <ele>765.6</ele>
        <time>2025-09-07T14:18:56Z</time>
      </trkpt>
      <trkpt lat="46.20254" lon="4.50937">
        <ele>765.6</ele>
        <time>2025-09-07T14:18:57Z</time>
      </trkpt>
      <trkpt lat="46.20254" lon="4.50935">
        <ele>765.6</ele>
        <time>2025-09-07T14:18:58Z</time>
      </trkpt>
      <trkpt lat="46.20254" lon="4.50934">
        <ele>765.8</ele>
        <time>2025-09-07T14:18:59Z</time>
      </trkpt>
      <trkpt lat="46.20254" lon="4.50932">
        <ele>765.8</ele>
        <time>2025-09-07T14:19:00Z</time>
      </trkpt>
      <trkpt lat="46.20254" lon="4.50929">
        <ele>766.2</ele>
        <time>2025-09-07T14:19:01Z</time>
      </trkpt>
      <trkpt lat="46.20254" lon="4.50928">
        <ele>766.6</ele>
        <time>2025-09-07T14:19:02Z</time>
      </trkpt>
      <trkpt lat="46.20253" lon="4.50927">
        <ele>766.6</ele>
        <time>2025-09-07T14:19:03Z</time>
      </trkpt>
      <trkpt lat="46.20252" lon="4.50926">
        <ele>766.6</ele>
        <time>2025-09-07T14:19:04Z</time>
      </trkpt>
      <trkpt lat="46.20251" lon="4.50926">
        <ele>767</ele>
        <time>2025-09-07T14:19:05Z</time>
      </trkpt>
      <trkpt lat="46.2025" lon="4.50926">
        <ele>767</ele>
        <time>2025-09-07T14:19:06Z</time>
      </trkpt>
      <trkpt lat="46.2025" lon="4.50926">
        <ele>767.4</ele>
        <time>2025-09-07T14:19:07Z</time>
      </trkpt>
      <trkpt lat="46.20249" lon="4.50925">
        <ele>767.4</ele>
        <time>2025-09-07T14:19:08Z</time>
      </trkpt>
      <trkpt lat="46.20249" lon="4.50925">
        <ele>767.4</ele>
        <time>2025-09-07T14:19:09Z</time>
      </trkpt>
      <trkpt lat="46.20248" lon="4.50924">
        <ele>767.4</ele>
        <time>2025-09-07T14:19:10Z</time>
      </trkpt>
      <trkpt lat="46.20247" lon="4.50923">
        <ele>767.8</ele>
        <time>2025-09-07T14:19:11Z</time>
      </trkpt>
      <trkpt lat="46.20247" lon="4.50922">
        <ele>767.8</ele>
        <time>2025-09-07T14:19:12Z</time>
      </trkpt>
      <trkpt lat="46.20246" lon="4.50919">
        <ele>768</ele>
        <time>2025-09-07T14:19:13Z</time>
      </trkpt>
      <trkpt lat="46.20246" lon="4.50918">
        <ele>768</ele>
        <time>2025-09-07T14:19:14Z</time>
      </trkpt>
      <trkpt lat="46.20245" lon="4.50917">
        <ele>768.2</ele>
        <time>2025-09-07T14:19:15Z</time>
      </trkpt>
      <trkpt lat="46.20245" lon="4.50916">
        <ele>768.2</ele>
        <time>2025-09-07T14:19:16Z</time>
      </trkpt>
      <trkpt lat="46.20244" lon="4.50915">
        <ele>768.2</ele>
        <time>2025-09-07T14:19:17Z</time>
      </trkpt>
      <trkpt lat="46.20244" lon="4.50913">
        <ele>768.2</ele>
        <time>2025-09-07T14:19:18Z</time>
      </trkpt>
      <trkpt lat="46.20245" lon="4.50911">
        <ele>768.2</ele>
        <time>2025-09-07T14:19:19Z</time>
      </trkpt>
      <trkpt lat="46.20245" lon="4.5091">
        <ele>768.2</ele>
        <time>2025-09-07T14:19:20Z</time>
      </trkpt>
      <trkpt lat="46.20244" lon="4.50908">
        <ele>768.2</ele>
        <time>2025-09-07T14:19:21Z</time>
      </trkpt>
      <trkpt lat="46.20244" lon="4.50907">
        <ele>768.2</ele>
        <time>2025-09-07T14:19:22Z</time>
      </trkpt>
      <trkpt lat="46.20243" lon="4.50907">
        <ele>768.2</ele>
        <time>2025-09-07T14:19:23Z</time>
      </trkpt>
      <trkpt lat="46.20243" lon="4.50906">
        <ele>768.6</ele>
        <time>2025-09-07T14:19:24Z</time>
      </trkpt>
      <trkpt lat="46.20242" lon="4.50905">
        <ele>768.8</ele>
        <time>2025-09-07T14:19:25Z</time>
      </trkpt>
      <trkpt lat="46.20241" lon="4.50904">
        <ele>768.8</ele>
        <time>2025-09-07T14:19:26Z</time>
      </trkpt>
      <trkpt lat="46.20241" lon="4.50903">
        <ele>769.2</ele>
        <time>2025-09-07T14:19:27Z</time>
      </trkpt>
      <trkpt lat="46.2024" lon="4.50903">
        <ele>769.2</ele>
        <time>2025-09-07T14:19:28Z</time>
      </trkpt>
      <trkpt lat="46.2024" lon="4.509">
        <ele>769.2</ele>
        <time>2025-09-07T14:19:29Z</time>
      </trkpt>
      <trkpt lat="46.2024" lon="4.509">
        <ele>769.2</ele>
        <time>2025-09-07T14:19:30Z</time>
      </trkpt>
      <trkpt lat="46.2024" lon="4.50898">
        <ele>769.6</ele>
        <time>2025-09-07T14:19:31Z</time>
      </trkpt>
      <trkpt lat="46.20239" lon="4.50897">
        <ele>769.6</ele>
        <time>2025-09-07T14:19:32Z</time>
      </trkpt>
      <trkpt lat="46.20238" lon="4.50896">
        <ele>769.8</ele>
        <time>2025-09-07T14:19:33Z</time>
      </trkpt>
      <trkpt lat="46.20238" lon="4.50896">
        <ele>769.8</ele>
        <time>2025-09-07T14:19:34Z</time>
      </trkpt>
      <trkpt lat="46.20236" lon="4.50896">
        <ele>769.8</ele>
        <time>2025-09-07T14:19:35Z</time>
      </trkpt>
      <trkpt lat="46.20235" lon="4.50896">
        <ele>770</ele>
        <time>2025-09-07T14:19:36Z</time>
      </trkpt>
      <trkpt lat="46.20234" lon="4.50897">
        <ele>770</ele>
        <time>2025-09-07T14:19:37Z</time>
      </trkpt>
      <trkpt lat="46.20233" lon="4.50897">
        <ele>770.6</ele>
        <time>2025-09-07T14:19:38Z</time>
      </trkpt>
      <trkpt lat="46.20233" lon="4.50896">
        <ele>770.8</ele>
        <time>2025-09-07T14:19:39Z</time>
      </trkpt>
      <trkpt lat="46.20232" lon="4.50895">
        <ele>770.8</ele>
        <time>2025-09-07T14:19:40Z</time>
      </trkpt>
      <trkpt lat="46.20232" lon="4.50894">
        <ele>770.8</ele>
        <time>2025-09-07T14:19:41Z</time>
      </trkpt>
      <trkpt lat="46.20231" lon="4.50893">
        <ele>771.2</ele>
        <time>2025-09-07T14:19:42Z</time>
      </trkpt>
      <trkpt lat="46.20231" lon="4.50891">
        <ele>771.2</ele>
        <time>2025-09-07T14:19:43Z</time>
      </trkpt>
      <trkpt lat="46.20231" lon="4.5089">
        <ele>771.2</ele>
        <time>2025-09-07T14:19:44Z</time>
      </trkpt>
      <trkpt lat="46.2023" lon="4.50889">
        <ele>771.2</ele>
        <time>2025-09-07T14:19:45Z</time>
      </trkpt>
      <trkpt lat="46.2023" lon="4.50887">
        <ele>771.6</ele>
        <time>2025-09-07T14:19:46Z</time>
      </trkpt>
      <trkpt lat="46.2023" lon="4.50886">
        <ele>771.6</ele>
        <time>2025-09-07T14:19:47Z</time>
      </trkpt>
      <trkpt lat="46.20229" lon="4.50885">
        <ele>771.6</ele>
        <time>2025-09-07T14:19:48Z</time>
      </trkpt>
      <trkpt lat="46.20229" lon="4.50884">
        <ele>771.6</ele>
        <time>2025-09-07T14:19:49Z</time>
      </trkpt>
      <trkpt lat="46.20228" lon="4.50882">
        <ele>771.6</ele>
        <time>2025-09-07T14:19:50Z</time>
      </trkpt>
      <trkpt lat="46.20228" lon="4.50881">
        <ele>771.6</ele>
        <time>2025-09-07T14:19:51Z</time>
      </trkpt>
      <trkpt lat="46.20227" lon="4.5088">
        <ele>771.8</ele>
        <time>2025-09-07T14:19:52Z</time>
      </trkpt>
      <trkpt lat="46.20226" lon="4.50878">
        <ele>771.8</ele>
        <time>2025-09-07T14:19:53Z</time>
      </trkpt>
      <trkpt lat="46.20226" lon="4.50877">
        <ele>772.2</ele>
        <time>2025-09-07T14:19:54Z</time>
      </trkpt>
      <trkpt lat="46.20226" lon="4.50875">
        <ele>772.2</ele>
        <time>2025-09-07T14:19:55Z</time>
      </trkpt>
      <trkpt lat="46.20226" lon="4.50874">
        <ele>772.2</ele>
        <time>2025-09-07T14:19:56Z</time>
      </trkpt>
      <trkpt lat="46.20226" lon="4.50874">
        <ele>772.6</ele>
        <time>2025-09-07T14:19:57Z</time>
      </trkpt>
      <trkpt lat="46.20225" lon="4.50873">
        <ele>772.6</ele>
        <time>2025-09-07T14:19:58Z</time>
      </trkpt>
      <trkpt lat="46.20225" lon="4.50872">
        <ele>772.6</ele>
        <time>2025-09-07T14:19:59Z</time>
      </trkpt>
      <trkpt lat="46.20224" lon="4.50871">
        <ele>773</ele>
        <time>2025-09-07T14:20:00Z</time>
      </trkpt>
      <trkpt lat="46.20223" lon="4.50869">
        <ele>773</ele>
        <time>2025-09-07T14:20:01Z</time>
      </trkpt>
      <trkpt lat="46.20222" lon="4.50868">
        <ele>773.2</ele>
        <time>2025-09-07T14:20:02Z</time>
      </trkpt>
      <trkpt lat="46.20221" lon="4.50866">
        <ele>773.2</ele>
        <time>2025-09-07T14:20:03Z</time>
      </trkpt>
      <trkpt lat="46.20221" lon="4.50865">
        <ele>773.6</ele>
        <time>2025-09-07T14:20:04Z</time>
      </trkpt>
      <trkpt lat="46.20221" lon="4.50865">
        <ele>773.6</ele>
        <time>2025-09-07T14:20:05Z</time>
      </trkpt>
      <trkpt lat="46.2022" lon="4.50864">
        <ele>774</ele>
        <time>2025-09-07T14:20:06Z</time>
      </trkpt>
      <trkpt lat="46.20218" lon="4.50863">
        <ele>774</ele>
        <time>2025-09-07T14:20:07Z</time>
      </trkpt>
      <trkpt lat="46.20217" lon="4.50862">
        <ele>774</ele>
        <time>2025-09-07T14:20:08Z</time>
      </trkpt>
      <trkpt lat="46.20217" lon="4.50862">
        <ele>774.4</ele>
        <time>2025-09-07T14:20:09Z</time>
      </trkpt>
      <trkpt lat="46.20216" lon="4.5086">
        <ele>774.4</ele>
        <time>2025-09-07T14:20:10Z</time>
      </trkpt>
      <trkpt lat="46.20214" lon="4.50858">
        <ele>774.4</ele>
        <time>2025-09-07T14:20:11Z</time>
      </trkpt>
      <trkpt lat="46.20212" lon="4.50857">
        <ele>774.4</ele>
        <time>2025-09-07T14:20:12Z</time>
      </trkpt>
      <trkpt lat="46.20211" lon="4.50857">
        <ele>774</ele>
        <time>2025-09-07T14:20:13Z</time>
      </trkpt>
      <trkpt lat="46.2021" lon="4.50856">
        <ele>774</ele>
        <time>2025-09-07T14:20:14Z</time>
      </trkpt>
      <trkpt lat="46.20209" lon="4.50854">
        <ele>774</ele>
        <time>2025-09-07T14:20:15Z</time>
      </trkpt>
      <trkpt lat="46.20209" lon="4.50852">
        <ele>774</ele>
        <time>2025-09-07T14:20:16Z</time>
      </trkpt>
      <trkpt lat="46.20209" lon="4.5085">
        <ele>774.4</ele>
        <time>2025-09-07T14:20:17Z</time>
      </trkpt>
      <trkpt lat="46.20209" lon="4.50849">
        <ele>774.4</ele>
        <time>2025-09-07T14:20:18Z</time>
      </trkpt>
      <trkpt lat="46.20209" lon="4.50847">
        <ele>774.4</ele>
        <time>2025-09-07T14:20:19Z</time>
      </trkpt>
      <trkpt lat="46.20208" lon="4.50845">
        <ele>774.4</ele>
        <time>2025-09-07T14:20:20Z</time>
      </trkpt>
      <trkpt lat="46.20208" lon="4.50843">
        <ele>774.6</ele>
        <time>2025-09-07T14:20:21Z</time>
      </trkpt>
      <trkpt lat="46.20208" lon="4.50842">
        <ele>774.6</ele>
        <time>2025-09-07T14:20:22Z</time>
      </trkpt>
      <trkpt lat="46.20208" lon="4.5084">
        <ele>774.8</ele>
        <time>2025-09-07T14:20:23Z</time>
      </trkpt>
      <trkpt lat="46.20206" lon="4.5084">
        <ele>774.8</ele>
        <time>2025-09-07T14:20:24Z</time>
      </trkpt>
      <trkpt lat="46.20205" lon="4.50839">
        <ele>775</ele>
        <time>2025-09-07T14:20:25Z</time>
      </trkpt>
      <trkpt lat="46.20204" lon="4.50838">
        <ele>775</ele>
        <time>2025-09-07T14:20:26Z</time>
      </trkpt>
      <trkpt lat="46.20203" lon="4.50837">
        <ele>775.4</ele>
        <time>2025-09-07T14:20:27Z</time>
      </trkpt>
      <trkpt lat="46.20202" lon="4.50835">
        <ele>775.4</ele>
        <time>2025-09-07T14:20:28Z</time>
      </trkpt>
      <trkpt lat="46.20201" lon="4.50833">
        <ele>775.6</ele>
        <time>2025-09-07T14:20:29Z</time>
      </trkpt>
      <trkpt lat="46.202" lon="4.50832">
        <ele>775.6</ele>
        <time>2025-09-07T14:20:30Z</time>
      </trkpt>
      <trkpt lat="46.20199" lon="4.50831">
        <ele>775.8</ele>
        <time>2025-09-07T14:20:31Z</time>
      </trkpt>
      <trkpt lat="46.20199" lon="4.5083">
        <ele>776</ele>
        <time>2025-09-07T14:20:32Z</time>
      </trkpt>
      <trkpt lat="46.20198" lon="4.50828">
        <ele>776</ele>
        <time>2025-09-07T14:20:33Z</time>
      </trkpt>
      <trkpt lat="46.20198" lon="4.50825">
        <ele>776</ele>
        <time>2025-09-07T14:20:34Z</time>
      </trkpt>
      <trkpt lat="46.20198" lon="4.50823">
        <ele>776.2</ele>
        <time>2025-09-07T14:20:35Z</time>
      </trkpt>
      <trkpt lat="46.20198" lon="4.50822">
        <ele>776.2</ele>
        <time>2025-09-07T14:20:36Z</time>
      </trkpt>
      <trkpt lat="46.20198" lon="4.50822">
        <ele>776.2</ele>
        <time>2025-09-07T14:20:37Z</time>
      </trkpt>
      <trkpt lat="46.20198" lon="4.50821">
        <ele>776.2</ele>
        <time>2025-09-07T14:20:38Z</time>
      </trkpt>
      <trkpt lat="46.20198" lon="4.5082">
        <ele>776.6</ele>
        <time>2025-09-07T14:20:39Z</time>
      </trkpt>
      <trkpt lat="46.20198" lon="4.50818">
        <ele>776.6</ele>
        <time>2025-09-07T14:20:40Z</time>
      </trkpt>
      <trkpt lat="46.20198" lon="4.50816">
        <ele>776.6</ele>
        <time>2025-09-07T14:20:41Z</time>
      </trkpt>
      <trkpt lat="46.20198" lon="4.50815">
        <ele>776.8</ele>
        <time>2025-09-07T14:20:42Z</time>
      </trkpt>
      <trkpt lat="46.20199" lon="4.50813">
        <ele>776.8</ele>
        <time>2025-09-07T14:20:43Z</time>
      </trkpt>
      <trkpt lat="46.20199" lon="4.50811">
        <ele>776.8</ele>
        <time>2025-09-07T14:20:44Z</time>
      </trkpt>
      <trkpt lat="46.20198" lon="4.50809">
        <ele>777</ele>
        <time>2025-09-07T14:20:45Z</time>
      </trkpt>
      <trkpt lat="46.20197" lon="4.50807">
        <ele>777</ele>
        <time>2025-09-07T14:20:46Z</time>
      </trkpt>
      <trkpt lat="46.20197" lon="4.50805">
        <ele>777</ele>
        <time>2025-09-07T14:20:47Z</time>
      </trkpt>
      <trkpt lat="46.20197" lon="4.50802">
        <ele>777</ele>
        <time>2025-09-07T14:20:48Z</time>
      </trkpt>
      <trkpt lat="46.20197" lon="4.50802">
        <ele>777</ele>
        <time>2025-09-07T14:20:49Z</time>
      </trkpt>
      <trkpt lat="46.20197" lon="4.50802">
        <ele>777</ele>
        <time>2025-09-07T14:20:50Z</time>
      </trkpt>
      <trkpt lat="46.20195" lon="4.50793">
        <ele>777</ele>
        <time>2025-09-07T14:20:52Z</time>
      </trkpt>
      <trkpt lat="46.20194" lon="4.50791">
        <ele>777</ele>
        <time>2025-09-07T14:20:53Z</time>
      </trkpt>
      <trkpt lat="46.20193" lon="4.50788">
        <ele>777</ele>
        <time>2025-09-07T14:20:54Z</time>
      </trkpt>
      <trkpt lat="46.20191" lon="4.50786">
        <ele>777.2</ele>
        <time>2025-09-07T14:20:55Z</time>
      </trkpt>
      <trkpt lat="46.20189" lon="4.50783">
        <ele>777.4</ele>
        <time>2025-09-07T14:20:56Z</time>
      </trkpt>
      <trkpt lat="46.20188" lon="4.50781">
        <ele>777.4</ele>
        <time>2025-09-07T14:20:57Z</time>
      </trkpt>
      <trkpt lat="46.20186" lon="4.50779">
        <ele>777.8</ele>
        <time>2025-09-07T14:20:58Z</time>
      </trkpt>
      <trkpt lat="46.20185" lon="4.50778">
        <ele>777.8</ele>
        <time>2025-09-07T14:20:59Z</time>
      </trkpt>
      <trkpt lat="46.20183" lon="4.50776">
        <ele>778</ele>
        <time>2025-09-07T14:21:00Z</time>
      </trkpt>
      <trkpt lat="46.20182" lon="4.50773">
        <ele>778</ele>
        <time>2025-09-07T14:21:01Z</time>
      </trkpt>
      <trkpt lat="46.2018" lon="4.50771">
        <ele>778</ele>
        <time>2025-09-07T14:21:02Z</time>
      </trkpt>
      <trkpt lat="46.20179" lon="4.50769">
        <ele>778</ele>
        <time>2025-09-07T14:21:03Z</time>
      </trkpt>
      <trkpt lat="46.20178" lon="4.50768">
        <ele>778.4</ele>
        <time>2025-09-07T14:21:04Z</time>
      </trkpt>
      <trkpt lat="46.20176" lon="4.50767">
        <ele>778.4</ele>
        <time>2025-09-07T14:21:05Z</time>
      </trkpt>
      <trkpt lat="46.20175" lon="4.50766">
        <ele>778.4</ele>
        <time>2025-09-07T14:21:06Z</time>
      </trkpt>
      <trkpt lat="46.20174" lon="4.50765">
        <ele>778.4</ele>
        <time>2025-09-07T14:21:07Z</time>
      </trkpt>
      <trkpt lat="46.20172" lon="4.50764">
        <ele>778.6</ele>
        <time>2025-09-07T14:21:08Z</time>
      </trkpt>
      <trkpt lat="46.20171" lon="4.50763">
        <ele>778.4</ele>
        <time>2025-09-07T14:21:09Z</time>
      </trkpt>
      <trkpt lat="46.2017" lon="4.50763">
        <ele>778.4</ele>
        <time>2025-09-07T14:21:10Z</time>
      </trkpt>
      <trkpt lat="46.20169" lon="4.50761">
        <ele>778.8</ele>
        <time>2025-09-07T14:21:11Z</time>
      </trkpt>
      <trkpt lat="46.20168" lon="4.50759">
        <ele>778.8</ele>
        <time>2025-09-07T14:21:12Z</time>
      </trkpt>
      <trkpt lat="46.20167" lon="4.50757">
        <ele>779</ele>
        <time>2025-09-07T14:21:13Z</time>
      </trkpt>
      <trkpt lat="46.20166" lon="4.50756">
        <ele>779</ele>
        <time>2025-09-07T14:21:14Z</time>
      </trkpt>
      <trkpt lat="46.20165" lon="4.50754">
        <ele>779.4</ele>
        <time>2025-09-07T14:21:15Z</time>
      </trkpt>
      <trkpt lat="46.20164" lon="4.50753">
        <ele>779.4</ele>
        <time>2025-09-07T14:21:16Z</time>
      </trkpt>
      <trkpt lat="46.20163" lon="4.50752">
        <ele>779.6</ele>
        <time>2025-09-07T14:21:17Z</time>
      </trkpt>
      <trkpt lat="46.20162" lon="4.50751">
        <ele>779.6</ele>
        <time>2025-09-07T14:21:18Z</time>
      </trkpt>
      <trkpt lat="46.20162" lon="4.50751">
        <ele>779.6</ele>
        <time>2025-09-07T14:21:19Z</time>
      </trkpt>
      <trkpt lat="46.20161" lon="4.5075">
        <ele>779.6</ele>
        <time>2025-09-07T14:21:20Z</time>
      </trkpt>
      <trkpt lat="46.20161" lon="4.5075">
        <ele>779.8</ele>
        <time>2025-09-07T14:21:21Z</time>
      </trkpt>
      <trkpt lat="46.2016" lon="4.50748">
        <ele>779.8</ele>
        <time>2025-09-07T14:21:22Z</time>
      </trkpt>
      <trkpt lat="46.20159" lon="4.50746">
        <ele>779.8</ele>
        <time>2025-09-07T14:21:23Z</time>
      </trkpt>
      <trkpt lat="46.20158" lon="4.50744">
        <ele>780</ele>
        <time>2025-09-07T14:21:24Z</time>
      </trkpt>
      <trkpt lat="46.20158" lon="4.50742">
        <ele>780</ele>
        <time>2025-09-07T14:21:25Z</time>
      </trkpt>
      <trkpt lat="46.20157" lon="4.5074">
        <ele>780.4</ele>
        <time>2025-09-07T14:21:26Z</time>
      </trkpt>
      <trkpt lat="46.20157" lon="4.50738">
        <ele>780.4</ele>
        <time>2025-09-07T14:21:27Z</time>
      </trkpt>
      <trkpt lat="46.20157" lon="4.50735">
        <ele>780.4</ele>
        <time>2025-09-07T14:21:28Z</time>
      </trkpt>
      <trkpt lat="46.20156" lon="4.50733">
        <ele>780.8</ele>
        <time>2025-09-07T14:21:29Z</time>
      </trkpt>
      <trkpt lat="46.20155" lon="4.50732">
        <ele>780.8</ele>
        <time>2025-09-07T14:21:30Z</time>
      </trkpt>
      <trkpt lat="46.20154" lon="4.50731">
        <ele>780.8</ele>
        <time>2025-09-07T14:21:31Z</time>
      </trkpt>
      <trkpt lat="46.20152" lon="4.5073">
        <ele>780.8</ele>
        <time>2025-09-07T14:21:32Z</time>
      </trkpt>
      <trkpt lat="46.20151" lon="4.50729">
        <ele>781.2</ele>
        <time>2025-09-07T14:21:33Z</time>
      </trkpt>
      <trkpt lat="46.2015" lon="4.50728">
        <ele>781.2</ele>
        <time>2025-09-07T14:21:34Z</time>
      </trkpt>
      <trkpt lat="46.20149" lon="4.50727">
        <ele>781.2</ele>
        <time>2025-09-07T14:21:35Z</time>
      </trkpt>
      <trkpt lat="46.20148" lon="4.50725">
        <ele>781.6</ele>
        <time>2025-09-07T14:21:36Z</time>
      </trkpt>
      <trkpt lat="46.20147" lon="4.50723">
        <ele>781.6</ele>
        <time>2025-09-07T14:21:37Z</time>
      </trkpt>
      <trkpt lat="46.20145" lon="4.50722">
        <ele>781.6</ele>
        <time>2025-09-07T14:21:38Z</time>
      </trkpt>
      <trkpt lat="46.20144" lon="4.50721">
        <ele>781.8</ele>
        <time>2025-09-07T14:21:39Z</time>
      </trkpt>
      <trkpt lat="46.20143" lon="4.5072">
        <ele>781.8</ele>
        <time>2025-09-07T14:21:40Z</time>
      </trkpt>
      <trkpt lat="46.20142" lon="4.50718">
        <ele>782</ele>
        <time>2025-09-07T14:21:41Z</time>
      </trkpt>
      <trkpt lat="46.20141" lon="4.50717">
        <ele>782.2</ele>
        <time>2025-09-07T14:21:42Z</time>
      </trkpt>
      <trkpt lat="46.2014" lon="4.50716">
        <ele>782.2</ele>
        <time>2025-09-07T14:21:43Z</time>
      </trkpt>
      <trkpt lat="46.20139" lon="4.50715">
        <ele>782.4</ele>
        <time>2025-09-07T14:21:44Z</time>
      </trkpt>
      <trkpt lat="46.20138" lon="4.50715">
        <ele>782.4</ele>
        <time>2025-09-07T14:21:45Z</time>
      </trkpt>
      <trkpt lat="46.20137" lon="4.50714">
        <ele>782.8</ele>
        <time>2025-09-07T14:21:46Z</time>
      </trkpt>
      <trkpt lat="46.20136" lon="4.50712">
        <ele>782.8</ele>
        <time>2025-09-07T14:21:47Z</time>
      </trkpt>
      <trkpt lat="46.20135" lon="4.50711">
        <ele>783</ele>
        <time>2025-09-07T14:21:48Z</time>
      </trkpt>
      <trkpt lat="46.20135" lon="4.50709">
        <ele>783.4</ele>
        <time>2025-09-07T14:21:49Z</time>
      </trkpt>
      <trkpt lat="46.20134" lon="4.50709">
        <ele>783.4</ele>
        <time>2025-09-07T14:21:50Z</time>
      </trkpt>
      <trkpt lat="46.20134" lon="4.50708">
        <ele>783.4</ele>
        <time>2025-09-07T14:21:51Z</time>
      </trkpt>
      <trkpt lat="46.20132" lon="4.50707">
        <ele>783.6</ele>
        <time>2025-09-07T14:21:52Z</time>
      </trkpt>
      <trkpt lat="46.20131" lon="4.50706">
        <ele>783.6</ele>
        <time>2025-09-07T14:21:53Z</time>
      </trkpt>
      <trkpt lat="46.20131" lon="4.50706">
        <ele>783.6</ele>
        <time>2025-09-07T14:21:54Z</time>
      </trkpt>
      <trkpt lat="46.2013" lon="4.50705">
        <ele>783.6</ele>
        <time>2025-09-07T14:21:55Z</time>
      </trkpt>
      <trkpt lat="46.2013" lon="4.50703">
        <ele>783.6</ele>
        <time>2025-09-07T14:21:56Z</time>
      </trkpt>
      <trkpt lat="46.2013" lon="4.50701">
        <ele>784</ele>
        <time>2025-09-07T14:21:57Z</time>
      </trkpt>
      <trkpt lat="46.20129" lon="4.50699">
        <ele>784</ele>
        <time>2025-09-07T14:21:58Z</time>
      </trkpt>
      <trkpt lat="46.20129" lon="4.50698">
        <ele>784</ele>
        <time>2025-09-07T14:21:59Z</time>
      </trkpt>
      <trkpt lat="46.20129" lon="4.50696">
        <ele>784</ele>
        <time>2025-09-07T14:22:00Z</time>
      </trkpt>
      <trkpt lat="46.20129" lon="4.50695">
        <ele>784.6</ele>
        <time>2025-09-07T14:22:01Z</time>
      </trkpt>
      <trkpt lat="46.20128" lon="4.50694">
        <ele>784.6</ele>
        <time>2025-09-07T14:22:02Z</time>
      </trkpt>
      <trkpt lat="46.20128" lon="4.50693">
        <ele>784.6</ele>
        <time>2025-09-07T14:22:03Z</time>
      </trkpt>
      <trkpt lat="46.20127" lon="4.50692">
        <ele>784.6</ele>
        <time>2025-09-07T14:22:04Z</time>
      </trkpt>
      <trkpt lat="46.20126" lon="4.50691">
        <ele>785</ele>
        <time>2025-09-07T14:22:05Z</time>
      </trkpt>
      <trkpt lat="46.20125" lon="4.50689">
        <ele>785</ele>
        <time>2025-09-07T14:22:06Z</time>
      </trkpt>
      <trkpt lat="46.20124" lon="4.50688">
        <ele>785.2</ele>
        <time>2025-09-07T14:22:07Z</time>
      </trkpt>
      <trkpt lat="46.20123" lon="4.50686">
        <ele>785.6</ele>
        <time>2025-09-07T14:22:08Z</time>
      </trkpt>
      <trkpt lat="46.20122" lon="4.50685">
        <ele>785.6</ele>
        <time>2025-09-07T14:22:09Z</time>
      </trkpt>
      <trkpt lat="46.20122" lon="4.50684">
        <ele>785.8</ele>
        <time>2025-09-07T14:22:10Z</time>
      </trkpt>
      <trkpt lat="46.20121" lon="4.50683">
        <ele>785.8</ele>
        <time>2025-09-07T14:22:11Z</time>
      </trkpt>
      <trkpt lat="46.2012" lon="4.50682">
        <ele>786</ele>
        <time>2025-09-07T14:22:12Z</time>
      </trkpt>
      <trkpt lat="46.20119" lon="4.5068">
        <ele>786.4</ele>
        <time>2025-09-07T14:22:13Z</time>
      </trkpt>
      <trkpt lat="46.20118" lon="4.50679">
        <ele>786.4</ele>
        <time>2025-09-07T14:22:14Z</time>
      </trkpt>
      <trkpt lat="46.20116" lon="4.50678">
        <ele>786.6</ele>
        <time>2025-09-07T14:22:15Z</time>
      </trkpt>
      <trkpt lat="46.20115" lon="4.50676">
        <ele>786.6</ele>
        <time>2025-09-07T14:22:16Z</time>
      </trkpt>
      <trkpt lat="46.20114" lon="4.50674">
        <ele>786.6</ele>
        <time>2025-09-07T14:22:17Z</time>
      </trkpt>
      <trkpt lat="46.20113" lon="4.50673">
        <ele>787</ele>
        <time>2025-09-07T14:22:18Z</time>
      </trkpt>
      <trkpt lat="46.20112" lon="4.50673">
        <ele>787</ele>
        <time>2025-09-07T14:22:19Z</time>
      </trkpt>
      <trkpt lat="46.20111" lon="4.50672">
        <ele>787.2</ele>
        <time>2025-09-07T14:22:20Z</time>
      </trkpt>
      <trkpt lat="46.2011" lon="4.50671">
        <ele>787.2</ele>
        <time>2025-09-07T14:22:21Z</time>
      </trkpt>
      <trkpt lat="46.20109" lon="4.5067">
        <ele>787.2</ele>
        <time>2025-09-07T14:22:22Z</time>
      </trkpt>
      <trkpt lat="46.20108" lon="4.50669">
        <ele>787.2</ele>
        <time>2025-09-07T14:22:23Z</time>
      </trkpt>
      <trkpt lat="46.20107" lon="4.50668">
        <ele>787.4</ele>
        <time>2025-09-07T14:22:24Z</time>
      </trkpt>
      <trkpt lat="46.20106" lon="4.50668">
        <ele>787.4</ele>
        <time>2025-09-07T14:22:25Z</time>
      </trkpt>
      <trkpt lat="46.20105" lon="4.50667">
        <ele>787.8</ele>
        <time>2025-09-07T14:22:26Z</time>
      </trkpt>
      <trkpt lat="46.20104" lon="4.50666">
        <ele>787.8</ele>
        <time>2025-09-07T14:22:27Z</time>
      </trkpt>
      <trkpt lat="46.20104" lon="4.50665">
        <ele>787.8</ele>
        <time>2025-09-07T14:22:28Z</time>
      </trkpt>
      <trkpt lat="46.20103" lon="4.50664">
        <ele>787.8</ele>
        <time>2025-09-07T14:22:29Z</time>
      </trkpt>
      <trkpt lat="46.20101" lon="4.50662">
        <ele>788</ele>
        <time>2025-09-07T14:22:30Z</time>
      </trkpt>
      <trkpt lat="46.20099" lon="4.50661">
        <ele>788.4</ele>
        <time>2025-09-07T14:22:31Z</time>
      </trkpt>
      <trkpt lat="46.20098" lon="4.50661">
        <ele>788.4</ele>
        <time>2025-09-07T14:22:32Z</time>
      </trkpt>
      <trkpt lat="46.20097" lon="4.50661">
        <ele>788.4</ele>
        <time>2025-09-07T14:22:33Z</time>
      </trkpt>
      <trkpt lat="46.20097" lon="4.5066">
        <ele>788.6</ele>
        <time>2025-09-07T14:22:34Z</time>
      </trkpt>
      <trkpt lat="46.20096" lon="4.50659">
        <ele>789</ele>
        <time>2025-09-07T14:22:35Z</time>
      </trkpt>
      <trkpt lat="46.20094" lon="4.50658">
        <ele>789.2</ele>
        <time>2025-09-07T14:22:36Z</time>
      </trkpt>
      <trkpt lat="46.20093" lon="4.50658">
        <ele>789.2</ele>
        <time>2025-09-07T14:22:37Z</time>
      </trkpt>
      <trkpt lat="46.20092" lon="4.50657">
        <ele>789.2</ele>
        <time>2025-09-07T14:22:38Z</time>
      </trkpt>
      <trkpt lat="46.20091" lon="4.50657">
        <ele>789.2</ele>
        <time>2025-09-07T14:22:39Z</time>
      </trkpt>
      <trkpt lat="46.20089" lon="4.50656">
        <ele>789.2</ele>
        <time>2025-09-07T14:22:40Z</time>
      </trkpt>
      <trkpt lat="46.20088" lon="4.50655">
        <ele>789.2</ele>
        <time>2025-09-07T14:22:41Z</time>
      </trkpt>
      <trkpt lat="46.20086" lon="4.50655">
        <ele>789.2</ele>
        <time>2025-09-07T14:22:42Z</time>
      </trkpt>
      <trkpt lat="46.20085" lon="4.50654">
        <ele>789.4</ele>
        <time>2025-09-07T14:22:43Z</time>
      </trkpt>
      <trkpt lat="46.20083" lon="4.50654">
        <ele>789.4</ele>
        <time>2025-09-07T14:22:44Z</time>
      </trkpt>
      <trkpt lat="46.20082" lon="4.50653">
        <ele>789.8</ele>
        <time>2025-09-07T14:22:45Z</time>
      </trkpt>
      <trkpt lat="46.20081" lon="4.50653">
        <ele>789.8</ele>
        <time>2025-09-07T14:22:46Z</time>
      </trkpt>
      <trkpt lat="46.2008" lon="4.50652">
        <ele>789.8</ele>
        <time>2025-09-07T14:22:47Z</time>
      </trkpt>
      <trkpt lat="46.20079" lon="4.50651">
        <ele>789.8</ele>
        <time>2025-09-07T14:22:48Z</time>
      </trkpt>
      <trkpt lat="46.20078" lon="4.5065">
        <ele>790</ele>
        <time>2025-09-07T14:22:49Z</time>
      </trkpt>
      <trkpt lat="46.20077" lon="4.50649">
        <ele>790</ele>
        <time>2025-09-07T14:22:50Z</time>
      </trkpt>
      <trkpt lat="46.20076" lon="4.50647">
        <ele>790</ele>
        <time>2025-09-07T14:22:51Z</time>
      </trkpt>
      <trkpt lat="46.20075" lon="4.50646">
        <ele>790</ele>
        <time>2025-09-07T14:22:52Z</time>
      </trkpt>
      <trkpt lat="46.20074" lon="4.50645">
        <ele>790</ele>
        <time>2025-09-07T14:22:53Z</time>
      </trkpt>
      <trkpt lat="46.20074" lon="4.50645">
        <ele>790.4</ele>
        <time>2025-09-07T14:22:54Z</time>
      </trkpt>
      <trkpt lat="46.20073" lon="4.50645">
        <ele>790.4</ele>
        <time>2025-09-07T14:22:55Z</time>
      </trkpt>
      <trkpt lat="46.20073" lon="4.50645">
        <ele>790.4</ele>
        <time>2025-09-07T14:22:56Z</time>
      </trkpt>
      <trkpt lat="46.20071" lon="4.50645">
        <ele>790.4</ele>
        <time>2025-09-07T14:22:57Z</time>
      </trkpt>
      <trkpt lat="46.2007" lon="4.50645">
        <ele>790.4</ele>
        <time>2025-09-07T14:22:58Z</time>
      </trkpt>
      <trkpt lat="46.20069" lon="4.50645">
        <ele>790.4</ele>
        <time>2025-09-07T14:22:59Z</time>
      </trkpt>
      <trkpt lat="46.20069" lon="4.50644">
        <ele>790.4</ele>
        <time>2025-09-07T14:23:00Z</time>
      </trkpt>
      <trkpt lat="46.20067" lon="4.50644">
        <ele>790.4</ele>
        <time>2025-09-07T14:23:01Z</time>
      </trkpt>
      <trkpt lat="46.20065" lon="4.50644">
        <ele>790.4</ele>
        <time>2025-09-07T14:23:02Z</time>
      </trkpt>
      <trkpt lat="46.20064" lon="4.50644">
        <ele>790.4</ele>
        <time>2025-09-07T14:23:03Z</time>
      </trkpt>
      <trkpt lat="46.20062" lon="4.50643">
        <ele>790.4</ele>
        <time>2025-09-07T14:23:04Z</time>
      </trkpt>
      <trkpt lat="46.20061" lon="4.50641">
        <ele>790.6</ele>
        <time>2025-09-07T14:23:05Z</time>
      </trkpt>
      <trkpt lat="46.20059" lon="4.5064">
        <ele>790.6</ele>
        <time>2025-09-07T14:23:06Z</time>
      </trkpt>
      <trkpt lat="46.20058" lon="4.50639">
        <ele>791.2</ele>
        <time>2025-09-07T14:23:07Z</time>
      </trkpt>
      <trkpt lat="46.20057" lon="4.50639">
        <ele>791.2</ele>
        <time>2025-09-07T14:23:08Z</time>
      </trkpt>
      <trkpt lat="46.20055" lon="4.50639">
        <ele>791.4</ele>
        <time>2025-09-07T14:23:09Z</time>
      </trkpt>
      <trkpt lat="46.20053" lon="4.50639">
        <ele>791.4</ele>
        <time>2025-09-07T14:23:10Z</time>
      </trkpt>
      <trkpt lat="46.20052" lon="4.50639">
        <ele>791.4</ele>
        <time>2025-09-07T14:23:11Z</time>
      </trkpt>
      <trkpt lat="46.20051" lon="4.50639">
        <ele>791.8</ele>
        <time>2025-09-07T14:23:12Z</time>
      </trkpt>
      <trkpt lat="46.2005" lon="4.50639">
        <ele>791.8</ele>
        <time>2025-09-07T14:23:13Z</time>
      </trkpt>
      <trkpt lat="46.20048" lon="4.5064">
        <ele>792.2</ele>
        <time>2025-09-07T14:23:14Z</time>
      </trkpt>
      <trkpt lat="46.20047" lon="4.5064">
        <ele>792.2</ele>
        <time>2025-09-07T14:23:15Z</time>
      </trkpt>
      <trkpt lat="46.20045" lon="4.50639">
        <ele>792.2</ele>
        <time>2025-09-07T14:23:16Z</time>
      </trkpt>
      <trkpt lat="46.20044" lon="4.50639">
        <ele>792.2</ele>
        <time>2025-09-07T14:23:17Z</time>
      </trkpt>
      <trkpt lat="46.20044" lon="4.50639">
        <ele>792.6</ele>
        <time>2025-09-07T14:23:18Z</time>
      </trkpt>
      <trkpt lat="46.20042" lon="4.50639">
        <ele>792.6</ele>
        <time>2025-09-07T14:23:19Z</time>
      </trkpt>
      <trkpt lat="46.20041" lon="4.5064">
        <ele>792.6</ele>
        <time>2025-09-07T14:23:20Z</time>
      </trkpt>
      <trkpt lat="46.20039" lon="4.5064">
        <ele>792.8</ele>
        <time>2025-09-07T14:23:21Z</time>
      </trkpt>
      <trkpt lat="46.20038" lon="4.5064">
        <ele>792.8</ele>
        <time>2025-09-07T14:23:22Z</time>
      </trkpt>
      <trkpt lat="46.20037" lon="4.50641">
        <ele>792.8</ele>
        <time>2025-09-07T14:23:23Z</time>
      </trkpt>
      <trkpt lat="46.20037" lon="4.50642">
        <ele>792.8</ele>
        <time>2025-09-07T14:23:24Z</time>
      </trkpt>
      <trkpt lat="46.20036" lon="4.50642">
        <ele>792.8</ele>
        <time>2025-09-07T14:23:25Z</time>
      </trkpt>
      <trkpt lat="46.20034" lon="4.50641">
        <ele>793.2</ele>
        <time>2025-09-07T14:23:26Z</time>
      </trkpt>
      <trkpt lat="46.20032" lon="4.50641">
        <ele>793.2</ele>
        <time>2025-09-07T14:23:27Z</time>
      </trkpt>
      <trkpt lat="46.20031" lon="4.5064">
        <ele>793.2</ele>
        <time>2025-09-07T14:23:28Z</time>
      </trkpt>
      <trkpt lat="46.20029" lon="4.50641">
        <ele>793.2</ele>
        <time>2025-09-07T14:23:29Z</time>
      </trkpt>
      <trkpt lat="46.20029" lon="4.50642">
        <ele>793.2</ele>
        <time>2025-09-07T14:23:30Z</time>
      </trkpt>
      <trkpt lat="46.20028" lon="4.50642">
        <ele>793.2</ele>
        <time>2025-09-07T14:23:31Z</time>
      </trkpt>
      <trkpt lat="46.20027" lon="4.50643">
        <ele>793.2</ele>
        <time>2025-09-07T14:23:32Z</time>
      </trkpt>
      <trkpt lat="46.20026" lon="4.50643">
        <ele>793.6</ele>
        <time>2025-09-07T14:23:33Z</time>
      </trkpt>
      <trkpt lat="46.20025" lon="4.50643">
        <ele>793.6</ele>
        <time>2025-09-07T14:23:34Z</time>
      </trkpt>
      <trkpt lat="46.20024" lon="4.50643">
        <ele>793.8</ele>
        <time>2025-09-07T14:23:35Z</time>
      </trkpt>
      <trkpt lat="46.20023" lon="4.50643">
        <ele>793.8</ele>
        <time>2025-09-07T14:23:36Z</time>
      </trkpt>
      <trkpt lat="46.20021" lon="4.50643">
        <ele>793.8</ele>
        <time>2025-09-07T14:23:37Z</time>
      </trkpt>
      <trkpt lat="46.2002" lon="4.50643">
        <ele>793.8</ele>
        <time>2025-09-07T14:23:38Z</time>
      </trkpt>
      <trkpt lat="46.20018" lon="4.50642">
        <ele>794.2</ele>
        <time>2025-09-07T14:23:39Z</time>
      </trkpt>
      <trkpt lat="46.20017" lon="4.50642">
        <ele>794.2</ele>
        <time>2025-09-07T14:23:40Z</time>
      </trkpt>
      <trkpt lat="46.20016" lon="4.50642">
        <ele>794.6</ele>
        <time>2025-09-07T14:23:41Z</time>
      </trkpt>
      <trkpt lat="46.20015" lon="4.50642">
        <ele>794.6</ele>
        <time>2025-09-07T14:23:42Z</time>
      </trkpt>
      <trkpt lat="46.20014" lon="4.50642">
        <ele>794.8</ele>
        <time>2025-09-07T14:23:43Z</time>
      </trkpt>
      <trkpt lat="46.20014" lon="4.50642">
        <ele>794.8</ele>
        <time>2025-09-07T14:23:44Z</time>
      </trkpt>
      <trkpt lat="46.20013" lon="4.50643">
        <ele>794.8</ele>
        <time>2025-09-07T14:23:45Z</time>
      </trkpt>
      <trkpt lat="46.20013" lon="4.50643">
        <ele>794.8</ele>
        <time>2025-09-07T14:23:46Z</time>
      </trkpt>
      <trkpt lat="46.20011" lon="4.50642">
        <ele>794.8</ele>
        <time>2025-09-07T14:23:47Z</time>
      </trkpt>
      <trkpt lat="46.20009" lon="4.50643">
        <ele>795</ele>
        <time>2025-09-07T14:23:48Z</time>
      </trkpt>
      <trkpt lat="46.20007" lon="4.50643">
        <ele>795</ele>
        <time>2025-09-07T14:23:49Z</time>
      </trkpt>
      <trkpt lat="46.20007" lon="4.50644">
        <ele>795.2</ele>
        <time>2025-09-07T14:23:50Z</time>
      </trkpt>
      <trkpt lat="46.20006" lon="4.50644">
        <ele>795.2</ele>
        <time>2025-09-07T14:23:51Z</time>
      </trkpt>
      <trkpt lat="46.20004" lon="4.50645">
        <ele>795.6</ele>
        <time>2025-09-07T14:23:52Z</time>
      </trkpt>
      <trkpt lat="46.20003" lon="4.50644">
        <ele>795.8</ele>
        <time>2025-09-07T14:23:53Z</time>
      </trkpt>
      <trkpt lat="46.20001" lon="4.50644">
        <ele>796</ele>
        <time>2025-09-07T14:23:54Z</time>
      </trkpt>
      <trkpt lat="46.19999" lon="4.50644">
        <ele>796</ele>
        <time>2025-09-07T14:23:55Z</time>
      </trkpt>
      <trkpt lat="46.19997" lon="4.50645">
        <ele>796.2</ele>
        <time>2025-09-07T14:23:56Z</time>
      </trkpt>
      <trkpt lat="46.19995" lon="4.50645">
        <ele>796.2</ele>
        <time>2025-09-07T14:23:57Z</time>
      </trkpt>
      <trkpt lat="46.19994" lon="4.50646">
        <ele>796.6</ele>
        <time>2025-09-07T14:23:58Z</time>
      </trkpt>
      <trkpt lat="46.19993" lon="4.50646">
        <ele>796.6</ele>
        <time>2025-09-07T14:23:59Z</time>
      </trkpt>
      <trkpt lat="46.19993" lon="4.50646">
        <ele>796.6</ele>
        <time>2025-09-07T14:24:00Z</time>
      </trkpt>
      <trkpt lat="46.19993" lon="4.50646">
        <ele>796.6</ele>
        <time>2025-09-07T14:24:01Z</time>
      </trkpt>
      <trkpt lat="46.19989" lon="4.50646">
        <ele>796.6</ele>
        <time>2025-09-07T14:24:02Z</time>
      </trkpt>
      <trkpt lat="46.19987" lon="4.50647">
        <ele>796.6</ele>
        <time>2025-09-07T14:24:03Z</time>
      </trkpt>
      <trkpt lat="46.19985" lon="4.50647">
        <ele>797.2</ele>
        <time>2025-09-07T14:24:04Z</time>
      </trkpt>
      <trkpt lat="46.19985" lon="4.50648">
        <ele>797.2</ele>
        <time>2025-09-07T14:24:05Z</time>
      </trkpt>
      <trkpt lat="46.19984" lon="4.50648">
        <ele>797.4</ele>
        <time>2025-09-07T14:24:06Z</time>
      </trkpt>
      <trkpt lat="46.19983" lon="4.50649">
        <ele>797.4</ele>
        <time>2025-09-07T14:24:07Z</time>
      </trkpt>
      <trkpt lat="46.19982" lon="4.5065">
        <ele>797.4</ele>
        <time>2025-09-07T14:24:08Z</time>
      </trkpt>
      <trkpt lat="46.19981" lon="4.5065">
        <ele>797.8</ele>
        <time>2025-09-07T14:24:09Z</time>
      </trkpt>
      <trkpt lat="46.19979" lon="4.50651">
        <ele>798</ele>
        <time>2025-09-07T14:24:10Z</time>
      </trkpt>
      <trkpt lat="46.19978" lon="4.50651">
        <ele>798.2</ele>
        <time>2025-09-07T14:24:11Z</time>
      </trkpt>
      <trkpt lat="46.19977" lon="4.50651">
        <ele>798.2</ele>
        <time>2025-09-07T14:24:12Z</time>
      </trkpt>
      <trkpt lat="46.19976" lon="4.50652">
        <ele>798.2</ele>
        <time>2025-09-07T14:24:13Z</time>
      </trkpt>
      <trkpt lat="46.19974" lon="4.50652">
        <ele>798.6</ele>
        <time>2025-09-07T14:24:14Z</time>
      </trkpt>
      <trkpt lat="46.19973" lon="4.50652">
        <ele>798.6</ele>
        <time>2025-09-07T14:24:15Z</time>
      </trkpt>
      <trkpt lat="46.19972" lon="4.50652">
        <ele>798.6</ele>
        <time>2025-09-07T14:24:16Z</time>
      </trkpt>
      <trkpt lat="46.1997" lon="4.50653">
        <ele>798.6</ele>
        <time>2025-09-07T14:24:17Z</time>
      </trkpt>
      <trkpt lat="46.19969" lon="4.50653">
        <ele>798.8</ele>
        <time>2025-09-07T14:24:18Z</time>
      </trkpt>
      <trkpt lat="46.19967" lon="4.50654">
        <ele>798.8</ele>
        <time>2025-09-07T14:24:19Z</time>
      </trkpt>
      <trkpt lat="46.19966" lon="4.50654">
        <ele>798.8</ele>
        <time>2025-09-07T14:24:20Z</time>
      </trkpt>
      <trkpt lat="46.19964" lon="4.50655">
        <ele>798.8</ele>
        <time>2025-09-07T14:24:21Z</time>
      </trkpt>
      <trkpt lat="46.19963" lon="4.50655">
        <ele>799</ele>
        <time>2025-09-07T14:24:22Z</time>
      </trkpt>
      <trkpt lat="46.19961" lon="4.50655">
        <ele>799</ele>
        <time>2025-09-07T14:24:23Z</time>
      </trkpt>
      <trkpt lat="46.19961" lon="4.50655">
        <ele>799.2</ele>
        <time>2025-09-07T14:24:24Z</time>
      </trkpt>
      <trkpt lat="46.1996" lon="4.50655">
        <ele>799.2</ele>
        <time>2025-09-07T14:24:25Z</time>
      </trkpt>
      <trkpt lat="46.19959" lon="4.50655">
        <ele>799.2</ele>
        <time>2025-09-07T14:24:26Z</time>
      </trkpt>
      <trkpt lat="46.19958" lon="4.50656">
        <ele>799.2</ele>
        <time>2025-09-07T14:24:27Z</time>
      </trkpt>
      <trkpt lat="46.19956" lon="4.50656">
        <ele>799.2</ele>
        <time>2025-09-07T14:24:28Z</time>
      </trkpt>
      <trkpt lat="46.19954" lon="4.50656">
        <ele>799.2</ele>
        <time>2025-09-07T14:24:29Z</time>
      </trkpt>
      <trkpt lat="46.19952" lon="4.50655">
        <ele>799.2</ele>
        <time>2025-09-07T14:24:30Z</time>
      </trkpt>
      <trkpt lat="46.19951" lon="4.50655">
        <ele>799.4</ele>
        <time>2025-09-07T14:24:31Z</time>
      </trkpt>
      <trkpt lat="46.19949" lon="4.50655">
        <ele>799.4</ele>
        <time>2025-09-07T14:24:32Z</time>
      </trkpt>
      <trkpt lat="46.19947" lon="4.50655">
        <ele>799.8</ele>
        <time>2025-09-07T14:24:33Z</time>
      </trkpt>
      <trkpt lat="46.19945" lon="4.50655">
        <ele>799.8</ele>
        <time>2025-09-07T14:24:34Z</time>
      </trkpt>
      <trkpt lat="46.19943" lon="4.50656">
        <ele>799.8</ele>
        <time>2025-09-07T14:24:35Z</time>
      </trkpt>
      <trkpt lat="46.19942" lon="4.50657">
        <ele>799.8</ele>
        <time>2025-09-07T14:24:36Z</time>
      </trkpt>
      <trkpt lat="46.1994" lon="4.50658">
        <ele>799.8</ele>
        <time>2025-09-07T14:24:37Z</time>
      </trkpt>
      <trkpt lat="46.19938" lon="4.50659">
        <ele>799.8</ele>
        <time>2025-09-07T14:24:38Z</time>
      </trkpt>
      <trkpt lat="46.19936" lon="4.5066">
        <ele>800</ele>
        <time>2025-09-07T14:24:39Z</time>
      </trkpt>
      <trkpt lat="46.19934" lon="4.5066">
        <ele>800</ele>
        <time>2025-09-07T14:24:40Z</time>
      </trkpt>
      <trkpt lat="46.19932" lon="4.50659">
        <ele>800</ele>
        <time>2025-09-07T14:24:41Z</time>
      </trkpt>
      <trkpt lat="46.19931" lon="4.50658">
        <ele>800</ele>
        <time>2025-09-07T14:24:42Z</time>
      </trkpt>
      <trkpt lat="46.19928" lon="4.50658">
        <ele>800.2</ele>
        <time>2025-09-07T14:24:43Z</time>
      </trkpt>
      <trkpt lat="46.19926" lon="4.50658">
        <ele>800.2</ele>
        <time>2025-09-07T14:24:44Z</time>
      </trkpt>
      <trkpt lat="46.19924" lon="4.50658">
        <ele>800.2</ele>
        <time>2025-09-07T14:24:45Z</time>
      </trkpt>
      <trkpt lat="46.19922" lon="4.50657">
        <ele>800.2</ele>
        <time>2025-09-07T14:24:46Z</time>
      </trkpt>
      <trkpt lat="46.1992" lon="4.50656">
        <ele>800.2</ele>
        <time>2025-09-07T14:24:47Z</time>
      </trkpt>
      <trkpt lat="46.19918" lon="4.50656">
        <ele>800.2</ele>
        <time>2025-09-07T14:24:48Z</time>
      </trkpt>
      <trkpt lat="46.19916" lon="4.50656">
        <ele>800.2</ele>
        <time>2025-09-07T14:24:49Z</time>
      </trkpt>
      <trkpt lat="46.19915" lon="4.50657">
        <ele>800.6</ele>
        <time>2025-09-07T14:24:50Z</time>
      </trkpt>
      <trkpt lat="46.19913" lon="4.50657">
        <ele>800.6</ele>
        <time>2025-09-07T14:24:51Z</time>
      </trkpt>
      <trkpt lat="46.19912" lon="4.50657">
        <ele>800.8</ele>
        <time>2025-09-07T14:24:52Z</time>
      </trkpt>
      <trkpt lat="46.19909" lon="4.50656">
        <ele>800.6</ele>
        <time>2025-09-07T14:24:53Z</time>
      </trkpt>
      <trkpt lat="46.19906" lon="4.50656">
        <ele>801</ele>
        <time>2025-09-07T14:24:54Z</time>
      </trkpt>
      <trkpt lat="46.19904" lon="4.50655">
        <ele>801</ele>
        <time>2025-09-07T14:24:55Z</time>
      </trkpt>
      <trkpt lat="46.19901" lon="4.50654">
        <ele>801</ele>
        <time>2025-09-07T14:24:56Z</time>
      </trkpt>
      <trkpt lat="46.19899" lon="4.50653">
        <ele>801</ele>
        <time>2025-09-07T14:24:57Z</time>
      </trkpt>
      <trkpt lat="46.19896" lon="4.50652">
        <ele>801</ele>
        <time>2025-09-07T14:24:58Z</time>
      </trkpt>
      <trkpt lat="46.19895" lon="4.5065">
        <ele>801</ele>
        <time>2025-09-07T14:24:59Z</time>
      </trkpt>
      <trkpt lat="46.19893" lon="4.50649">
        <ele>801</ele>
        <time>2025-09-07T14:25:00Z</time>
      </trkpt>
      <trkpt lat="46.1989" lon="4.50647">
        <ele>801</ele>
        <time>2025-09-07T14:25:01Z</time>
      </trkpt>
      <trkpt lat="46.19888" lon="4.50647">
        <ele>801</ele>
        <time>2025-09-07T14:25:02Z</time>
      </trkpt>
      <trkpt lat="46.19886" lon="4.50646">
        <ele>801</ele>
        <time>2025-09-07T14:25:03Z</time>
      </trkpt>
      <trkpt lat="46.19884" lon="4.50646">
        <ele>801</ele>
        <time>2025-09-07T14:25:04Z</time>
      </trkpt>
      <trkpt lat="46.19881" lon="4.50644">
        <ele>801</ele>
        <time>2025-09-07T14:25:05Z</time>
      </trkpt>
      <trkpt lat="46.19879" lon="4.50644">
        <ele>801</ele>
        <time>2025-09-07T14:25:06Z</time>
      </trkpt>
      <trkpt lat="46.19877" lon="4.50643">
        <ele>801</ele>
        <time>2025-09-07T14:25:07Z</time>
      </trkpt>
      <trkpt lat="46.19874" lon="4.50642">
        <ele>801</ele>
        <time>2025-09-07T14:25:08Z</time>
      </trkpt>
      <trkpt lat="46.19872" lon="4.50642">
        <ele>801.2</ele>
        <time>2025-09-07T14:25:09Z</time>
      </trkpt>
      <trkpt lat="46.19871" lon="4.5064">
        <ele>801.2</ele>
        <time>2025-09-07T14:25:10Z</time>
      </trkpt>
      <trkpt lat="46.1987" lon="4.50639">
        <ele>801.4</ele>
        <time>2025-09-07T14:25:11Z</time>
      </trkpt>
      <trkpt lat="46.19868" lon="4.50638">
        <ele>801.4</ele>
        <time>2025-09-07T14:25:12Z</time>
      </trkpt>
      <trkpt lat="46.19867" lon="4.50637">
        <ele>801.4</ele>
        <time>2025-09-07T14:25:13Z</time>
      </trkpt>
      <trkpt lat="46.19865" lon="4.50636">
        <ele>801.4</ele>
        <time>2025-09-07T14:25:14Z</time>
      </trkpt>
      <trkpt lat="46.19864" lon="4.50637">
        <ele>801.4</ele>
        <time>2025-09-07T14:25:15Z</time>
      </trkpt>
      <trkpt lat="46.19862" lon="4.50637">
        <ele>801.4</ele>
        <time>2025-09-07T14:25:16Z</time>
      </trkpt>
      <trkpt lat="46.1986" lon="4.50637">
        <ele>801.4</ele>
        <time>2025-09-07T14:25:17Z</time>
      </trkpt>
      <trkpt lat="46.19858" lon="4.50636">
        <ele>801.4</ele>
        <time>2025-09-07T14:25:18Z</time>
      </trkpt>
      <trkpt lat="46.19856" lon="4.50634">
        <ele>801.8</ele>
        <time>2025-09-07T14:25:19Z</time>
      </trkpt>
      <trkpt lat="46.19854" lon="4.50633">
        <ele>801.8</ele>
        <time>2025-09-07T14:25:20Z</time>
      </trkpt>
      <trkpt lat="46.19851" lon="4.50631">
        <ele>802</ele>
        <time>2025-09-07T14:25:21Z</time>
      </trkpt>
      <trkpt lat="46.1985" lon="4.50631">
        <ele>802</ele>
        <time>2025-09-07T14:25:22Z</time>
      </trkpt>
      <trkpt lat="46.19848" lon="4.5063">
        <ele>802</ele>
        <time>2025-09-07T14:25:23Z</time>
      </trkpt>
      <trkpt lat="46.19846" lon="4.50628">
        <ele>802</ele>
        <time>2025-09-07T14:25:24Z</time>
      </trkpt>
      <trkpt lat="46.19844" lon="4.50626">
        <ele>802.2</ele>
        <time>2025-09-07T14:25:25Z</time>
      </trkpt>
      <trkpt lat="46.19841" lon="4.50626">
        <ele>802.2</ele>
        <time>2025-09-07T14:25:26Z</time>
      </trkpt>
      <trkpt lat="46.19839" lon="4.50625">
        <ele>802.2</ele>
        <time>2025-09-07T14:25:27Z</time>
      </trkpt>
      <trkpt lat="46.19837" lon="4.50623">
        <ele>802.2</ele>
        <time>2025-09-07T14:25:28Z</time>
      </trkpt>
      <trkpt lat="46.19835" lon="4.50622">
        <ele>802.2</ele>
        <time>2025-09-07T14:25:29Z</time>
      </trkpt>
      <trkpt lat="46.19833" lon="4.50619">
        <ele>802.2</ele>
        <time>2025-09-07T14:25:30Z</time>
      </trkpt>
      <trkpt lat="46.19831" lon="4.50618">
        <ele>802.2</ele>
        <time>2025-09-07T14:25:31Z</time>
      </trkpt>
      <trkpt lat="46.19829" lon="4.50615">
        <ele>802.4</ele>
        <time>2025-09-07T14:25:32Z</time>
      </trkpt>
      <trkpt lat="46.19827" lon="4.50613">
        <ele>802.4</ele>
        <time>2025-09-07T14:25:33Z</time>
      </trkpt>
      <trkpt lat="46.19824" lon="4.50611">
        <ele>802.6</ele>
        <time>2025-09-07T14:25:34Z</time>
      </trkpt>
      <trkpt lat="46.19822" lon="4.50609">
        <ele>802.6</ele>
        <time>2025-09-07T14:25:35Z</time>
      </trkpt>
      <trkpt lat="46.19821" lon="4.50607">
        <ele>803</ele>
        <time>2025-09-07T14:25:36Z</time>
      </trkpt>
      <trkpt lat="46.1982" lon="4.50605">
        <ele>803</ele>
        <time>2025-09-07T14:25:37Z</time>
      </trkpt>
      <trkpt lat="46.19819" lon="4.50603">
        <ele>803.4</ele>
        <time>2025-09-07T14:25:38Z</time>
      </trkpt>
      <trkpt lat="46.19819" lon="4.506">
        <ele>803.4</ele>
        <time>2025-09-07T14:25:39Z</time>
      </trkpt>
      <trkpt lat="46.19818" lon="4.50598">
        <ele>803.8</ele>
        <time>2025-09-07T14:25:40Z</time>
      </trkpt>
      <trkpt lat="46.19818" lon="4.50597">
        <ele>803.8</ele>
        <time>2025-09-07T14:25:41Z</time>
      </trkpt>
      <trkpt lat="46.19818" lon="4.50595">
        <ele>804</ele>
        <time>2025-09-07T14:25:42Z</time>
      </trkpt>
      <trkpt lat="46.19819" lon="4.50593">
        <ele>804.4</ele>
        <time>2025-09-07T14:25:43Z</time>
      </trkpt>
      <trkpt lat="46.1982" lon="4.50591">
        <ele>804.4</ele>
        <time>2025-09-07T14:25:44Z</time>
      </trkpt>
      <trkpt lat="46.1982" lon="4.50589">
        <ele>804.6</ele>
        <time>2025-09-07T14:25:45Z</time>
      </trkpt>
      <trkpt lat="46.19821" lon="4.50586">
        <ele>804.6</ele>
        <time>2025-09-07T14:25:46Z</time>
      </trkpt>
      <trkpt lat="46.19822" lon="4.50585">
        <ele>805</ele>
        <time>2025-09-07T14:25:47Z</time>
      </trkpt>
      <trkpt lat="46.19824" lon="4.50583">
        <ele>805.2</ele>
        <time>2025-09-07T14:25:48Z</time>
      </trkpt>
      <trkpt lat="46.19825" lon="4.50582">
        <ele>805.2</ele>
        <time>2025-09-07T14:25:49Z</time>
      </trkpt>
      <trkpt lat="46.19827" lon="4.50581">
        <ele>805.4</ele>
        <time>2025-09-07T14:25:50Z</time>
      </trkpt>
      <trkpt lat="46.19828" lon="4.5058">
        <ele>805.4</ele>
        <time>2025-09-07T14:25:51Z</time>
      </trkpt>
      <trkpt lat="46.19828" lon="4.5058">
        <ele>805.4</ele>
        <time>2025-09-07T14:25:52Z</time>
      </trkpt>
      <trkpt lat="46.1983" lon="4.5058">
        <ele>805.4</ele>
        <time>2025-09-07T14:25:53Z</time>
      </trkpt>
      <trkpt lat="46.19831" lon="4.5058">
        <ele>805.8</ele>
        <time>2025-09-07T14:25:54Z</time>
      </trkpt>
      <trkpt lat="46.19831" lon="4.5058">
        <ele>805.8</ele>
        <time>2025-09-07T14:25:55Z</time>
      </trkpt>
      <trkpt lat="46.19833" lon="4.50582">
        <ele>806</ele>
        <time>2025-09-07T14:25:56Z</time>
      </trkpt>
      <trkpt lat="46.19834" lon="4.50582">
        <ele>806</ele>
        <time>2025-09-07T14:25:57Z</time>
      </trkpt>
      <trkpt lat="46.19835" lon="4.50583">
        <ele>806</ele>
        <time>2025-09-07T14:25:58Z</time>
      </trkpt>
      <trkpt lat="46.19837" lon="4.50583">
        <ele>806.2</ele>
        <time>2025-09-07T14:25:59Z</time>
      </trkpt>
      <trkpt lat="46.19839" lon="4.50583">
        <ele>806.2</ele>
        <time>2025-09-07T14:26:00Z</time>
      </trkpt>
      <trkpt lat="46.19841" lon="4.50582">
        <ele>806.2</ele>
        <time>2025-09-07T14:26:01Z</time>
      </trkpt>
      <trkpt lat="46.19842" lon="4.50582">
        <ele>806.6</ele>
        <time>2025-09-07T14:26:02Z</time>
      </trkpt>
      <trkpt lat="46.19843" lon="4.50583">
        <ele>806.6</ele>
        <time>2025-09-07T14:26:03Z</time>
      </trkpt>
      <trkpt lat="46.19845" lon="4.50583">
        <ele>806.6</ele>
        <time>2025-09-07T14:26:04Z</time>
      </trkpt>
      <trkpt lat="46.19845" lon="4.50584">
        <ele>807</ele>
        <time>2025-09-07T14:26:05Z</time>
      </trkpt>
      <trkpt lat="46.19846" lon="4.50584">
        <ele>807</ele>
        <time>2025-09-07T14:26:06Z</time>
      </trkpt>
      <trkpt lat="46.19847" lon="4.50584">
        <ele>807.4</ele>
        <time>2025-09-07T14:26:07Z</time>
      </trkpt>
      <trkpt lat="46.19849" lon="4.50584">
        <ele>807.4</ele>
        <time>2025-09-07T14:26:08Z</time>
      </trkpt>
      <trkpt lat="46.1985" lon="4.50584">
        <ele>807.4</ele>
        <time>2025-09-07T14:26:09Z</time>
      </trkpt>
      <trkpt lat="46.19851" lon="4.50585">
        <ele>807.8</ele>
        <time>2025-09-07T14:26:10Z</time>
      </trkpt>
      <trkpt lat="46.19852" lon="4.50586">
        <ele>807.8</ele>
        <time>2025-09-07T14:26:11Z</time>
      </trkpt>
      <trkpt lat="46.19854" lon="4.50586">
        <ele>808</ele>
        <time>2025-09-07T14:26:12Z</time>
      </trkpt>
      <trkpt lat="46.19854" lon="4.50586">
        <ele>808</ele>
        <time>2025-09-07T14:26:13Z</time>
      </trkpt>
      <trkpt lat="46.19855" lon="4.50587">
        <ele>808.2</ele>
        <time>2025-09-07T14:26:14Z</time>
      </trkpt>
      <trkpt lat="46.19857" lon="4.50588">
        <ele>808.2</ele>
        <time>2025-09-07T14:26:15Z</time>
      </trkpt>
      <trkpt lat="46.19858" lon="4.50589">
        <ele>808.2</ele>
        <time>2025-09-07T14:26:16Z</time>
      </trkpt>
      <trkpt lat="46.19859" lon="4.50589">
        <ele>808.2</ele>
        <time>2025-09-07T14:26:17Z</time>
      </trkpt>
      <trkpt lat="46.19859" lon="4.5059">
        <ele>808.4</ele>
        <time>2025-09-07T14:26:18Z</time>
      </trkpt>
      <trkpt lat="46.1986" lon="4.5059">
        <ele>808.4</ele>
        <time>2025-09-07T14:26:19Z</time>
      </trkpt>
      <trkpt lat="46.19861" lon="4.5059">
        <ele>808.4</ele>
        <time>2025-09-07T14:26:20Z</time>
      </trkpt>
      <trkpt lat="46.19862" lon="4.50591">
        <ele>809</ele>
        <time>2025-09-07T14:26:21Z</time>
      </trkpt>
      <trkpt lat="46.19863" lon="4.50592">
        <ele>809</ele>
        <time>2025-09-07T14:26:22Z</time>
      </trkpt>
      <trkpt lat="46.19864" lon="4.50594">
        <ele>809</ele>
        <time>2025-09-07T14:26:23Z</time>
      </trkpt>
      <trkpt lat="46.19865" lon="4.50594">
        <ele>809</ele>
        <time>2025-09-07T14:26:24Z</time>
      </trkpt>
      <trkpt lat="46.19866" lon="4.50594">
        <ele>809.2</ele>
        <time>2025-09-07T14:26:25Z</time>
      </trkpt>
      <trkpt lat="46.19867" lon="4.50593">
        <ele>809.2</ele>
        <time>2025-09-07T14:26:26Z</time>
      </trkpt>
      <trkpt lat="46.19868" lon="4.50592">
        <ele>809.4</ele>
        <time>2025-09-07T14:26:27Z</time>
      </trkpt>
      <trkpt lat="46.19869" lon="4.50593">
        <ele>809.4</ele>
        <time>2025-09-07T14:26:28Z</time>
      </trkpt>
      <trkpt lat="46.19871" lon="4.50593">
        <ele>809.6</ele>
        <time>2025-09-07T14:26:29Z</time>
      </trkpt>
      <trkpt lat="46.19872" lon="4.50593">
        <ele>809.6</ele>
        <time>2025-09-07T14:26:30Z</time>
      </trkpt>
      <trkpt lat="46.19873" lon="4.50593">
        <ele>809.6</ele>
        <time>2025-09-07T14:26:31Z</time>
      </trkpt>
      <trkpt lat="46.19874" lon="4.50592">
        <ele>809.6</ele>
        <time>2025-09-07T14:26:32Z</time>
      </trkpt>
      <trkpt lat="46.19875" lon="4.50592">
        <ele>809.6</ele>
        <time>2025-09-07T14:26:33Z</time>
      </trkpt>
      <trkpt lat="46.19875" lon="4.50592">
        <ele>809.6</ele>
        <time>2025-09-07T14:26:34Z</time>
      </trkpt>
      <trkpt lat="46.19876" lon="4.50592">
        <ele>809.6</ele>
        <time>2025-09-07T14:26:35Z</time>
      </trkpt>
      <trkpt lat="46.19877" lon="4.50591">
        <ele>810</ele>
        <time>2025-09-07T14:26:36Z</time>
      </trkpt>
      <trkpt lat="46.19879" lon="4.50591">
        <ele>810</ele>
        <time>2025-09-07T14:26:37Z</time>
      </trkpt>
      <trkpt lat="46.1988" lon="4.50591">
        <ele>810</ele>
        <time>2025-09-07T14:26:38Z</time>
      </trkpt>
      <trkpt lat="46.19881" lon="4.50591">
        <ele>810.2</ele>
        <time>2025-09-07T14:26:39Z</time>
      </trkpt>
      <trkpt lat="46.19883" lon="4.5059">
        <ele>810.2</ele>
        <time>2025-09-07T14:26:40Z</time>
      </trkpt>
      <trkpt lat="46.19884" lon="4.5059">
        <ele>810.4</ele>
        <time>2025-09-07T14:26:41Z</time>
      </trkpt>
      <trkpt lat="46.19885" lon="4.5059">
        <ele>810.8</ele>
        <time>2025-09-07T14:26:42Z</time>
      </trkpt>
      <trkpt lat="46.19887" lon="4.5059">
        <ele>811</ele>
        <time>2025-09-07T14:26:43Z</time>
      </trkpt>
      <trkpt lat="46.19888" lon="4.5059">
        <ele>811</ele>
        <time>2025-09-07T14:26:44Z</time>
      </trkpt>
      <trkpt lat="46.19888" lon="4.5059">
        <ele>811.4</ele>
        <time>2025-09-07T14:26:45Z</time>
      </trkpt>
      <trkpt lat="46.19889" lon="4.5059">
        <ele>811.4</ele>
        <time>2025-09-07T14:26:46Z</time>
      </trkpt>
      <trkpt lat="46.1989" lon="4.50589">
        <ele>811.4</ele>
        <time>2025-09-07T14:26:47Z</time>
      </trkpt>
      <trkpt lat="46.19891" lon="4.50588">
        <ele>811.4</ele>
        <time>2025-09-07T14:26:48Z</time>
      </trkpt>
      <trkpt lat="46.19891" lon="4.50587">
        <ele>811.8</ele>
        <time>2025-09-07T14:26:49Z</time>
      </trkpt>
      <trkpt lat="46.19891" lon="4.50587">
        <ele>811.8</ele>
        <time>2025-09-07T14:26:50Z</time>
      </trkpt>
      <trkpt lat="46.19891" lon="4.50585">
        <ele>811.8</ele>
        <time>2025-09-07T14:26:51Z</time>
      </trkpt>
      <trkpt lat="46.19891" lon="4.50584">
        <ele>812.2</ele>
        <time>2025-09-07T14:26:52Z</time>
      </trkpt>
      <trkpt lat="46.19892" lon="4.50583">
        <ele>812.2</ele>
        <time>2025-09-07T14:26:53Z</time>
      </trkpt>
      <trkpt lat="46.19893" lon="4.50582">
        <ele>812.6</ele>
        <time>2025-09-07T14:26:54Z</time>
      </trkpt>
      <trkpt lat="46.19894" lon="4.50581">
        <ele>812.6</ele>
        <time>2025-09-07T14:26:55Z</time>
      </trkpt>
      <trkpt lat="46.19895" lon="4.50581">
        <ele>813</ele>
        <time>2025-09-07T14:26:56Z</time>
      </trkpt>
      <trkpt lat="46.19896" lon="4.5058">
        <ele>813</ele>
        <time>2025-09-07T14:26:57Z</time>
      </trkpt>
      <trkpt lat="46.19898" lon="4.5058">
        <ele>813.2</ele>
        <time>2025-09-07T14:26:58Z</time>
      </trkpt>
      <trkpt lat="46.19899" lon="4.50579">
        <ele>813.4</ele>
        <time>2025-09-07T14:26:59Z</time>
      </trkpt>
      <trkpt lat="46.19901" lon="4.50578">
        <ele>813.6</ele>
        <time>2025-09-07T14:27:00Z</time>
      </trkpt>
      <trkpt lat="46.19902" lon="4.50577">
        <ele>813.6</ele>
        <time>2025-09-07T14:27:01Z</time>
      </trkpt>
      <trkpt lat="46.19903" lon="4.50577">
        <ele>813.6</ele>
        <time>2025-09-07T14:27:02Z</time>
      </trkpt>
      <trkpt lat="46.19904" lon="4.50577">
        <ele>814</ele>
        <time>2025-09-07T14:27:03Z</time>
      </trkpt>
      <trkpt lat="46.19905" lon="4.50578">
        <ele>814.2</ele>
        <time>2025-09-07T14:27:04Z</time>
      </trkpt>
      <trkpt lat="46.19906" lon="4.50578">
        <ele>814.2</ele>
        <time>2025-09-07T14:27:05Z</time>
      </trkpt>
      <trkpt lat="46.19907" lon="4.50578">
        <ele>814.2</ele>
        <time>2025-09-07T14:27:06Z</time>
      </trkpt>
      <trkpt lat="46.19908" lon="4.50578">
        <ele>814.4</ele>
        <time>2025-09-07T14:27:07Z</time>
      </trkpt>
      <trkpt lat="46.19909" lon="4.50578">
        <ele>814.4</ele>
        <time>2025-09-07T14:27:08Z</time>
      </trkpt>
      <trkpt lat="46.1991" lon="4.50578">
        <ele>814.8</ele>
        <time>2025-09-07T14:27:09Z</time>
      </trkpt>
      <trkpt lat="46.19911" lon="4.50578">
        <ele>814.8</ele>
        <time>2025-09-07T14:27:10Z</time>
      </trkpt>
      <trkpt lat="46.19913" lon="4.50578">
        <ele>815</ele>
        <time>2025-09-07T14:27:11Z</time>
      </trkpt>
      <trkpt lat="46.19914" lon="4.50578">
        <ele>815</ele>
        <time>2025-09-07T14:27:12Z</time>
      </trkpt>
      <trkpt lat="46.19916" lon="4.50578">
        <ele>815.2</ele>
        <time>2025-09-07T14:27:13Z</time>
      </trkpt>
      <trkpt lat="46.19917" lon="4.50577">
        <ele>815.2</ele>
        <time>2025-09-07T14:27:14Z</time>
      </trkpt>
      <trkpt lat="46.19917" lon="4.50576">
        <ele>815.4</ele>
        <time>2025-09-07T14:27:15Z</time>
      </trkpt>
      <trkpt lat="46.19919" lon="4.50575">
        <ele>815.4</ele>
        <time>2025-09-07T14:27:16Z</time>
      </trkpt>
      <trkpt lat="46.1992" lon="4.50574">
        <ele>815.4</ele>
        <time>2025-09-07T14:27:17Z</time>
      </trkpt>
      <trkpt lat="46.1992" lon="4.50573">
        <ele>815.4</ele>
        <time>2025-09-07T14:27:18Z</time>
      </trkpt>
      <trkpt lat="46.19921" lon="4.50572">
        <ele>815.4</ele>
        <time>2025-09-07T14:27:19Z</time>
      </trkpt>
      <trkpt lat="46.19922" lon="4.50571">
        <ele>815.4</ele>
        <time>2025-09-07T14:27:20Z</time>
      </trkpt>
      <trkpt lat="46.19923" lon="4.5057">
        <ele>815.8</ele>
        <time>2025-09-07T14:27:21Z</time>
      </trkpt>
      <trkpt lat="46.19923" lon="4.50568">
        <ele>815.8</ele>
        <time>2025-09-07T14:27:22Z</time>
      </trkpt>
      <trkpt lat="46.19924" lon="4.50567">
        <ele>815.8</ele>
        <time>2025-09-07T14:27:23Z</time>
      </trkpt>
      <trkpt lat="46.19925" lon="4.50566">
        <ele>816</ele>
        <time>2025-09-07T14:27:24Z</time>
      </trkpt>
      <trkpt lat="46.19926" lon="4.50565">
        <ele>816</ele>
        <time>2025-09-07T14:27:25Z</time>
      </trkpt>
      <trkpt lat="46.19926" lon="4.50564">
        <ele>816.2</ele>
        <time>2025-09-07T14:27:26Z</time>
      </trkpt>
      <trkpt lat="46.19927" lon="4.50563">
        <ele>816.2</ele>
        <time>2025-09-07T14:27:27Z</time>
      </trkpt>
      <trkpt lat="46.19928" lon="4.50562">
        <ele>816.6</ele>
        <time>2025-09-07T14:27:28Z</time>
      </trkpt>
      <trkpt lat="46.19929" lon="4.5056">
        <ele>816.6</ele>
        <time>2025-09-07T14:27:29Z</time>
      </trkpt>
      <trkpt lat="46.19929" lon="4.50559">
        <ele>816.8</ele>
        <time>2025-09-07T14:27:30Z</time>
      </trkpt>
      <trkpt lat="46.1993" lon="4.50557">
        <ele>816.8</ele>
        <time>2025-09-07T14:27:31Z</time>
      </trkpt>
      <trkpt lat="46.19931" lon="4.50556">
        <ele>816.8</ele>
        <time>2025-09-07T14:27:32Z</time>
      </trkpt>
      <trkpt lat="46.19932" lon="4.50554">
        <ele>816.8</ele>
        <time>2025-09-07T14:27:33Z</time>
      </trkpt>
      <trkpt lat="46.19932" lon="4.50553">
        <ele>816.8</ele>
        <time>2025-09-07T14:27:34Z</time>
      </trkpt>
      <trkpt lat="46.19933" lon="4.50551">
        <ele>817.4</ele>
        <time>2025-09-07T14:27:35Z</time>
      </trkpt>
      <trkpt lat="46.19933" lon="4.50549">
        <ele>817.6</ele>
        <time>2025-09-07T14:27:36Z</time>
      </trkpt>
      <trkpt lat="46.19934" lon="4.50548">
        <ele>818</ele>
        <time>2025-09-07T14:27:37Z</time>
      </trkpt>
      <trkpt lat="46.19935" lon="4.50546">
        <ele>818</ele>
        <time>2025-09-07T14:27:38Z</time>
      </trkpt>
      <trkpt lat="46.19935" lon="4.50545">
        <ele>818.2</ele>
        <time>2025-09-07T14:27:39Z</time>
      </trkpt>
      <trkpt lat="46.19936" lon="4.50543">
        <ele>818.2</ele>
        <time>2025-09-07T14:27:40Z</time>
      </trkpt>
      <trkpt lat="46.19937" lon="4.50541">
        <ele>818.2</ele>
        <time>2025-09-07T14:27:41Z</time>
      </trkpt>
      <trkpt lat="46.19937" lon="4.5054">
        <ele>818.4</ele>
        <time>2025-09-07T14:27:42Z</time>
      </trkpt>
      <trkpt lat="46.19938" lon="4.50539">
        <ele>818.4</ele>
        <time>2025-09-07T14:27:43Z</time>
      </trkpt>
      <trkpt lat="46.19938" lon="4.50538">
        <ele>818.6</ele>
        <time>2025-09-07T14:27:44Z</time>
      </trkpt>
      <trkpt lat="46.19939" lon="4.50536">
        <ele>818.6</ele>
        <time>2025-09-07T14:27:45Z</time>
      </trkpt>
      <trkpt lat="46.1994" lon="4.50535">
        <ele>819</ele>
        <time>2025-09-07T14:27:46Z</time>
      </trkpt>
      <trkpt lat="46.1994" lon="4.50534">
        <ele>819</ele>
        <time>2025-09-07T14:27:47Z</time>
      </trkpt>
      <trkpt lat="46.19941" lon="4.50532">
        <ele>819.2</ele>
        <time>2025-09-07T14:27:48Z</time>
      </trkpt>
      <trkpt lat="46.19941" lon="4.50532">
        <ele>819.2</ele>
        <time>2025-09-07T14:27:49Z</time>
      </trkpt>
      <trkpt lat="46.19941" lon="4.50532">
        <ele>819.2</ele>
        <time>2025-09-07T14:27:50Z</time>
      </trkpt>
      <trkpt lat="46.19942" lon="4.5053">
        <ele>819.6</ele>
        <time>2025-09-07T14:27:51Z</time>
      </trkpt>
      <trkpt lat="46.19942" lon="4.50529">
        <ele>819.6</ele>
        <time>2025-09-07T14:27:52Z</time>
      </trkpt>
      <trkpt lat="46.19942" lon="4.50528">
        <ele>820</ele>
        <time>2025-09-07T14:27:53Z</time>
      </trkpt>
      <trkpt lat="46.19943" lon="4.50527">
        <ele>820</ele>
        <time>2025-09-07T14:27:54Z</time>
      </trkpt>
      <trkpt lat="46.19944" lon="4.50526">
        <ele>820.4</ele>
        <time>2025-09-07T14:27:55Z</time>
      </trkpt>
      <trkpt lat="46.19944" lon="4.50525">
        <ele>820.4</ele>
        <time>2025-09-07T14:27:56Z</time>
      </trkpt>
      <trkpt lat="46.19945" lon="4.50524">
        <ele>820.4</ele>
        <time>2025-09-07T14:27:57Z</time>
      </trkpt>
      <trkpt lat="46.19946" lon="4.50523">
        <ele>820.4</ele>
        <time>2025-09-07T14:27:58Z</time>
      </trkpt>
      <trkpt lat="46.19946" lon="4.50521">
        <ele>820.6</ele>
        <time>2025-09-07T14:27:59Z</time>
      </trkpt>
      <trkpt lat="46.19946" lon="4.5052">
        <ele>820.8</ele>
        <time>2025-09-07T14:28:00Z</time>
      </trkpt>
      <trkpt lat="46.19947" lon="4.50518">
        <ele>820.8</ele>
        <time>2025-09-07T14:28:01Z</time>
      </trkpt>
      <trkpt lat="46.19947" lon="4.50517">
        <ele>820.8</ele>
        <time>2025-09-07T14:28:02Z</time>
      </trkpt>
      <trkpt lat="46.19947" lon="4.50516">
        <ele>820.8</ele>
        <time>2025-09-07T14:28:03Z</time>
      </trkpt>
      <trkpt lat="46.19947" lon="4.50515">
        <ele>821</ele>
        <time>2025-09-07T14:28:04Z</time>
      </trkpt>
      <trkpt lat="46.19948" lon="4.50513">
        <ele>821</ele>
        <time>2025-09-07T14:28:05Z</time>
      </trkpt>
      <trkpt lat="46.19948" lon="4.50512">
        <ele>821</ele>
        <time>2025-09-07T14:28:06Z</time>
      </trkpt>
      <trkpt lat="46.19949" lon="4.50511">
        <ele>821.4</ele>
        <time>2025-09-07T14:28:07Z</time>
      </trkpt>
      <trkpt lat="46.19949" lon="4.5051">
        <ele>821.4</ele>
        <time>2025-09-07T14:28:08Z</time>
      </trkpt>
      <trkpt lat="46.1995" lon="4.50509">
        <ele>821.4</ele>
        <time>2025-09-07T14:28:09Z</time>
      </trkpt>
      <trkpt lat="46.1995" lon="4.50509">
        <ele>821.4</ele>
        <time>2025-09-07T14:28:10Z</time>
      </trkpt>
      <trkpt lat="46.1995" lon="4.50507">
        <ele>821.4</ele>
        <time>2025-09-07T14:28:11Z</time>
      </trkpt>
      <trkpt lat="46.19951" lon="4.50506">
        <ele>821.6</ele>
        <time>2025-09-07T14:28:12Z</time>
      </trkpt>
      <trkpt lat="46.19951" lon="4.50504">
        <ele>821.6</ele>
        <time>2025-09-07T14:28:13Z</time>
      </trkpt>
      <trkpt lat="46.19951" lon="4.50502">
        <ele>822</ele>
        <time>2025-09-07T14:28:14Z</time>
      </trkpt>
      <trkpt lat="46.19952" lon="4.50501">
        <ele>822</ele>
        <time>2025-09-07T14:28:15Z</time>
      </trkpt>
      <trkpt lat="46.19952" lon="4.505">
        <ele>822</ele>
        <time>2025-09-07T14:28:16Z</time>
      </trkpt>
      <trkpt lat="46.19952" lon="4.50499">
        <ele>822.2</ele>
        <time>2025-09-07T14:28:17Z</time>
      </trkpt>
      <trkpt lat="46.19952" lon="4.50498">
        <ele>822.2</ele>
        <time>2025-09-07T14:28:18Z</time>
      </trkpt>
      <trkpt lat="46.19953" lon="4.50498">
        <ele>822.2</ele>
        <time>2025-09-07T14:28:19Z</time>
      </trkpt>
      <trkpt lat="46.19953" lon="4.50496">
        <ele>822.6</ele>
        <time>2025-09-07T14:28:20Z</time>
      </trkpt>
      <trkpt lat="46.19953" lon="4.50494">
        <ele>822.6</ele>
        <time>2025-09-07T14:28:21Z</time>
      </trkpt>
      <trkpt lat="46.19953" lon="4.50493">
        <ele>822.8</ele>
        <time>2025-09-07T14:28:22Z</time>
      </trkpt>
      <trkpt lat="46.19953" lon="4.50492">
        <ele>822.8</ele>
        <time>2025-09-07T14:28:23Z</time>
      </trkpt>
      <trkpt lat="46.19954" lon="4.5049">
        <ele>822.8</ele>
        <time>2025-09-07T14:28:24Z</time>
      </trkpt>
      <trkpt lat="46.19954" lon="4.50488">
        <ele>823</ele>
        <time>2025-09-07T14:28:25Z</time>
      </trkpt>
      <trkpt lat="46.19955" lon="4.50487">
        <ele>823.4</ele>
        <time>2025-09-07T14:28:26Z</time>
      </trkpt>
      <trkpt lat="46.19955" lon="4.50486">
        <ele>823.4</ele>
        <time>2025-09-07T14:28:27Z</time>
      </trkpt>
      <trkpt lat="46.19956" lon="4.50485">
        <ele>823.6</ele>
        <time>2025-09-07T14:28:28Z</time>
      </trkpt>
      <trkpt lat="46.19956" lon="4.50483">
        <ele>823.6</ele>
        <time>2025-09-07T14:28:29Z</time>
      </trkpt>
      <trkpt lat="46.19957" lon="4.50481">
        <ele>823.6</ele>
        <time>2025-09-07T14:28:30Z</time>
      </trkpt>
      <trkpt lat="46.19957" lon="4.50479">
        <ele>824</ele>
        <time>2025-09-07T14:28:31Z</time>
      </trkpt>
      <trkpt lat="46.19957" lon="4.50477">
        <ele>824</ele>
        <time>2025-09-07T14:28:32Z</time>
      </trkpt>
      <trkpt lat="46.19957" lon="4.50475">
        <ele>824</ele>
        <time>2025-09-07T14:28:33Z</time>
      </trkpt>
      <trkpt lat="46.19957" lon="4.50473">
        <ele>824.2</ele>
        <time>2025-09-07T14:28:34Z</time>
      </trkpt>
      <trkpt lat="46.19957" lon="4.50472">
        <ele>824.2</ele>
        <time>2025-09-07T14:28:35Z</time>
      </trkpt>
      <trkpt lat="46.19958" lon="4.5047">
        <ele>824.2</ele>
        <time>2025-09-07T14:28:36Z</time>
      </trkpt>
      <trkpt lat="46.19958" lon="4.50469">
        <ele>824.4</ele>
        <time>2025-09-07T14:28:37Z</time>
      </trkpt>
      <trkpt lat="46.19959" lon="4.50467">
        <ele>824.4</ele>
        <time>2025-09-07T14:28:38Z</time>
      </trkpt>
      <trkpt lat="46.19959" lon="4.50466">
        <ele>824.6</ele>
        <time>2025-09-07T14:28:39Z</time>
      </trkpt>
      <trkpt lat="46.19959" lon="4.50465">
        <ele>824.6</ele>
        <time>2025-09-07T14:28:40Z</time>
      </trkpt>
      <trkpt lat="46.19961" lon="4.50464">
        <ele>825</ele>
        <time>2025-09-07T14:28:41Z</time>
      </trkpt>
      <trkpt lat="46.19961" lon="4.50463">
        <ele>825.2</ele>
        <time>2025-09-07T14:28:42Z</time>
      </trkpt>
      <trkpt lat="46.19961" lon="4.50463">
        <ele>825.2</ele>
        <time>2025-09-07T14:28:43Z</time>
      </trkpt>
      <trkpt lat="46.19961" lon="4.50463">
        <ele>825.2</ele>
        <time>2025-09-07T14:28:44Z</time>
      </trkpt>
      <trkpt lat="46.19962" lon="4.50462">
        <ele>825.4</ele>
        <time>2025-09-07T14:28:45Z</time>
      </trkpt>
      <trkpt lat="46.19962" lon="4.50461">
        <ele>825.4</ele>
        <time>2025-09-07T14:28:46Z</time>
      </trkpt>
      <trkpt lat="46.19963" lon="4.5046">
        <ele>825.4</ele>
        <time>2025-09-07T14:28:47Z</time>
      </trkpt>
      <trkpt lat="46.19963" lon="4.50459">
        <ele>825.6</ele>
        <time>2025-09-07T14:28:48Z</time>
      </trkpt>
      <trkpt lat="46.19963" lon="4.50458">
        <ele>825.6</ele>
        <time>2025-09-07T14:28:49Z</time>
      </trkpt>
      <trkpt lat="46.19964" lon="4.50457">
        <ele>826</ele>
        <time>2025-09-07T14:28:50Z</time>
      </trkpt>
      <trkpt lat="46.19964" lon="4.50456">
        <ele>826</ele>
        <time>2025-09-07T14:28:51Z</time>
      </trkpt>
      <trkpt lat="46.19965" lon="4.50455">
        <ele>826</ele>
        <time>2025-09-07T14:28:52Z</time>
      </trkpt>
      <trkpt lat="46.19965" lon="4.50454">
        <ele>826</ele>
        <time>2025-09-07T14:28:53Z</time>
      </trkpt>
      <trkpt lat="46.19965" lon="4.50452">
        <ele>826.4</ele>
        <time>2025-09-07T14:28:54Z</time>
      </trkpt>
      <trkpt lat="46.19966" lon="4.5045">
        <ele>826.4</ele>
        <time>2025-09-07T14:28:55Z</time>
      </trkpt>
      <trkpt lat="46.19966" lon="4.50448">
        <ele>826.4</ele>
        <time>2025-09-07T14:28:56Z</time>
      </trkpt>
      <trkpt lat="46.19966" lon="4.50446">
        <ele>826.6</ele>
        <time>2025-09-07T14:28:57Z</time>
      </trkpt>
      <trkpt lat="46.19966" lon="4.50445">
        <ele>826.6</ele>
        <time>2025-09-07T14:28:58Z</time>
      </trkpt>
      <trkpt lat="46.19966" lon="4.50443">
        <ele>826.6</ele>
        <time>2025-09-07T14:28:59Z</time>
      </trkpt>
      <trkpt lat="46.19967" lon="4.50442">
        <ele>827</ele>
        <time>2025-09-07T14:29:00Z</time>
      </trkpt>
      <trkpt lat="46.19967" lon="4.5044">
        <ele>827</ele>
        <time>2025-09-07T14:29:01Z</time>
      </trkpt>
      <trkpt lat="46.19968" lon="4.50439">
        <ele>827</ele>
        <time>2025-09-07T14:29:02Z</time>
      </trkpt>
      <trkpt lat="46.19968" lon="4.50438">
        <ele>827.2</ele>
        <time>2025-09-07T14:29:03Z</time>
      </trkpt>
      <trkpt lat="46.19968" lon="4.50436">
        <ele>827.2</ele>
        <time>2025-09-07T14:29:04Z</time>
      </trkpt>
      <trkpt lat="46.19969" lon="4.50435">
        <ele>827.4</ele>
        <time>2025-09-07T14:29:05Z</time>
      </trkpt>
      <trkpt lat="46.19969" lon="4.50434">
        <ele>827.4</ele>
        <time>2025-09-07T14:29:06Z</time>
      </trkpt>
      <trkpt lat="46.19969" lon="4.50432">
        <ele>827.8</ele>
        <time>2025-09-07T14:29:07Z</time>
      </trkpt>
      <trkpt lat="46.1997" lon="4.50431">
        <ele>827.8</ele>
        <time>2025-09-07T14:29:08Z</time>
      </trkpt>
      <trkpt lat="46.1997" lon="4.5043">
        <ele>828</ele>
        <time>2025-09-07T14:29:09Z</time>
      </trkpt>
      <trkpt lat="46.1997" lon="4.5043">
        <ele>828</ele>
        <time>2025-09-07T14:29:10Z</time>
      </trkpt>
      <trkpt lat="46.19971" lon="4.5043">
        <ele>828.4</ele>
        <time>2025-09-07T14:29:11Z</time>
      </trkpt>
      <trkpt lat="46.19971" lon="4.50429">
        <ele>828.4</ele>
        <time>2025-09-07T14:29:12Z</time>
      </trkpt>
      <trkpt lat="46.19972" lon="4.50428">
        <ele>828.4</ele>
        <time>2025-09-07T14:29:13Z</time>
      </trkpt>
      <trkpt lat="46.19973" lon="4.50426">
        <ele>828.4</ele>
        <time>2025-09-07T14:29:14Z</time>
      </trkpt>
      <trkpt lat="46.19974" lon="4.50424">
        <ele>828.4</ele>
        <time>2025-09-07T14:29:15Z</time>
      </trkpt>
      <trkpt lat="46.19975" lon="4.50422">
        <ele>828.6</ele>
        <time>2025-09-07T14:29:16Z</time>
      </trkpt>
      <trkpt lat="46.19976" lon="4.50421">
        <ele>828.6</ele>
        <time>2025-09-07T14:29:17Z</time>
      </trkpt>
      <trkpt lat="46.19976" lon="4.50421">
        <ele>828.8</ele>
        <time>2025-09-07T14:29:18Z</time>
      </trkpt>
      <trkpt lat="46.19975" lon="4.50419">
        <ele>828.8</ele>
        <time>2025-09-07T14:29:19Z</time>
      </trkpt>
      <trkpt lat="46.19975" lon="4.50417">
        <ele>828.8</ele>
        <time>2025-09-07T14:29:20Z</time>
      </trkpt>
      <trkpt lat="46.19975" lon="4.50415">
        <ele>829</ele>
        <time>2025-09-07T14:29:21Z</time>
      </trkpt>
      <trkpt lat="46.19976" lon="4.50414">
        <ele>829</ele>
        <time>2025-09-07T14:29:22Z</time>
      </trkpt>
      <trkpt lat="46.19976" lon="4.50413">
        <ele>829</ele>
        <time>2025-09-07T14:29:23Z</time>
      </trkpt>
      <trkpt lat="46.19976" lon="4.50412">
        <ele>829.4</ele>
        <time>2025-09-07T14:29:24Z</time>
      </trkpt>
      <trkpt lat="46.19977" lon="4.50411">
        <ele>829.8</ele>
        <time>2025-09-07T14:29:25Z</time>
      </trkpt>
      <trkpt lat="46.19978" lon="4.50409">
        <ele>829.8</ele>
        <time>2025-09-07T14:29:26Z</time>
      </trkpt>
      <trkpt lat="46.19978" lon="4.50407">
        <ele>830.2</ele>
        <time>2025-09-07T14:29:27Z</time>
      </trkpt>
      <trkpt lat="46.19979" lon="4.50406">
        <ele>830.2</ele>
        <time>2025-09-07T14:29:28Z</time>
      </trkpt>
      <trkpt lat="46.19979" lon="4.50404">
        <ele>830.2</ele>
        <time>2025-09-07T14:29:29Z</time>
      </trkpt>
      <trkpt lat="46.1998" lon="4.50403">
        <ele>830.2</ele>
        <time>2025-09-07T14:29:30Z</time>
      </trkpt>
      <trkpt lat="46.1998" lon="4.50401">
        <ele>830.4</ele>
        <time>2025-09-07T14:29:31Z</time>
      </trkpt>
      <trkpt lat="46.1998" lon="4.50399">
        <ele>830.8</ele>
        <time>2025-09-07T14:29:32Z</time>
      </trkpt>
      <trkpt lat="46.19981" lon="4.50398">
        <ele>830.8</ele>
        <time>2025-09-07T14:29:33Z</time>
      </trkpt>
      <trkpt lat="46.19981" lon="4.50396">
        <ele>831</ele>
        <time>2025-09-07T14:29:34Z</time>
      </trkpt>
      <trkpt lat="46.19981" lon="4.50395">
        <ele>831</ele>
        <time>2025-09-07T14:29:35Z</time>
      </trkpt>
      <trkpt lat="46.19982" lon="4.50394">
        <ele>831.2</ele>
        <time>2025-09-07T14:29:36Z</time>
      </trkpt>
      <trkpt lat="46.19982" lon="4.50392">
        <ele>831.2</ele>
        <time>2025-09-07T14:29:37Z</time>
      </trkpt>
      <trkpt lat="46.19982" lon="4.5039">
        <ele>831.4</ele>
        <time>2025-09-07T14:29:38Z</time>
      </trkpt>
      <trkpt lat="46.19982" lon="4.50389">
        <ele>831.6</ele>
        <time>2025-09-07T14:29:39Z</time>
      </trkpt>
      <trkpt lat="46.19983" lon="4.50388">
        <ele>831.6</ele>
        <time>2025-09-07T14:29:40Z</time>
      </trkpt>
      <trkpt lat="46.19983" lon="4.50387">
        <ele>831.8</ele>
        <time>2025-09-07T14:29:41Z</time>
      </trkpt>
      <trkpt lat="46.19984" lon="4.50386">
        <ele>831.8</ele>
        <time>2025-09-07T14:29:42Z</time>
      </trkpt>
      <trkpt lat="46.19985" lon="4.50384">
        <ele>831.8</ele>
        <time>2025-09-07T14:29:43Z</time>
      </trkpt>
      <trkpt lat="46.19985" lon="4.50383">
        <ele>832.2</ele>
        <time>2025-09-07T14:29:44Z</time>
      </trkpt>
      <trkpt lat="46.19985" lon="4.50381">
        <ele>832.2</ele>
        <time>2025-09-07T14:29:45Z</time>
      </trkpt>
      <trkpt lat="46.19986" lon="4.5038">
        <ele>832.4</ele>
        <time>2025-09-07T14:29:46Z</time>
      </trkpt>
      <trkpt lat="46.19987" lon="4.50378">
        <ele>832.4</ele>
        <time>2025-09-07T14:29:47Z</time>
      </trkpt>
      <trkpt lat="46.19988" lon="4.50377">
        <ele>832.4</ele>
        <time>2025-09-07T14:29:48Z</time>
      </trkpt>
      <trkpt lat="46.1999" lon="4.50376">
        <ele>832.6</ele>
        <time>2025-09-07T14:29:49Z</time>
      </trkpt>
      <trkpt lat="46.19991" lon="4.50375">
        <ele>832.6</ele>
        <time>2025-09-07T14:29:50Z</time>
      </trkpt>
      <trkpt lat="46.19991" lon="4.50374">
        <ele>833</ele>
        <time>2025-09-07T14:29:51Z</time>
      </trkpt>
      <trkpt lat="46.19992" lon="4.50372">
        <ele>833</ele>
        <time>2025-09-07T14:29:52Z</time>
      </trkpt>
      <trkpt lat="46.19992" lon="4.50369">
        <ele>833</ele>
        <time>2025-09-07T14:29:53Z</time>
      </trkpt>
      <trkpt lat="46.19992" lon="4.50367">
        <ele>833.2</ele>
        <time>2025-09-07T14:29:54Z</time>
      </trkpt>
      <trkpt lat="46.19993" lon="4.50366">
        <ele>833.2</ele>
        <time>2025-09-07T14:29:55Z</time>
      </trkpt>
      <trkpt lat="46.19994" lon="4.50364">
        <ele>833.4</ele>
        <time>2025-09-07T14:29:56Z</time>
      </trkpt>
      <trkpt lat="46.19994" lon="4.50363">
        <ele>833.4</ele>
        <time>2025-09-07T14:29:57Z</time>
      </trkpt>
      <trkpt lat="46.19995" lon="4.50361">
        <ele>833.6</ele>
        <time>2025-09-07T14:29:58Z</time>
      </trkpt>
      <trkpt lat="46.19997" lon="4.5036">
        <ele>833.6</ele>
        <time>2025-09-07T14:29:59Z</time>
      </trkpt>
      <trkpt lat="46.19998" lon="4.50359">
        <ele>833.6</ele>
        <time>2025-09-07T14:30:00Z</time>
      </trkpt>
      <trkpt lat="46.19998" lon="4.50359">
        <ele>833.6</ele>
        <time>2025-09-07T14:30:01Z</time>
      </trkpt>
      <trkpt lat="46.19999" lon="4.50358">
        <ele>834</ele>
        <time>2025-09-07T14:30:02Z</time>
      </trkpt>
      <trkpt lat="46.2" lon="4.50357">
        <ele>834</ele>
        <time>2025-09-07T14:30:03Z</time>
      </trkpt>
      <trkpt lat="46.2" lon="4.50356">
        <ele>834.4</ele>
        <time>2025-09-07T14:30:04Z</time>
      </trkpt>
      <trkpt lat="46.2" lon="4.50355">
        <ele>834.6</ele>
        <time>2025-09-07T14:30:05Z</time>
      </trkpt>
      <trkpt lat="46.2" lon="4.50354">
        <ele>834.6</ele>
        <time>2025-09-07T14:30:06Z</time>
      </trkpt>
      <trkpt lat="46.20001" lon="4.50353">
        <ele>834.6</ele>
        <time>2025-09-07T14:30:07Z</time>
      </trkpt>
      <trkpt lat="46.20001" lon="4.50352">
        <ele>835</ele>
        <time>2025-09-07T14:30:08Z</time>
      </trkpt>
      <trkpt lat="46.20001" lon="4.50351">
        <ele>835</ele>
        <time>2025-09-07T14:30:09Z</time>
      </trkpt>
      <trkpt lat="46.20001" lon="4.50351">
        <ele>835</ele>
        <time>2025-09-07T14:30:10Z</time>
      </trkpt>
      <trkpt lat="46.20001" lon="4.5035">
        <ele>834.6</ele>
        <time>2025-09-07T14:30:11Z</time>
      </trkpt>
      <trkpt lat="46.20001" lon="4.50348">
        <ele>834.8</ele>
        <time>2025-09-07T14:30:12Z</time>
      </trkpt>
      <trkpt lat="46.20001" lon="4.50345">
        <ele>834.8</ele>
        <time>2025-09-07T14:30:13Z</time>
      </trkpt>
      <trkpt lat="46.20001" lon="4.50342">
        <ele>835.2</ele>
        <time>2025-09-07T14:30:14Z</time>
      </trkpt>
      <trkpt lat="46.20002" lon="4.5034">
        <ele>835.2</ele>
        <time>2025-09-07T14:30:15Z</time>
      </trkpt>
      <trkpt lat="46.20003" lon="4.50337">
        <ele>835.2</ele>
        <time>2025-09-07T14:30:16Z</time>
      </trkpt>
      <trkpt lat="46.20003" lon="4.50335">
        <ele>835.2</ele>
        <time>2025-09-07T14:30:17Z</time>
      </trkpt>
      <trkpt lat="46.20004" lon="4.50332">
        <ele>835.4</ele>
        <time>2025-09-07T14:30:18Z</time>
      </trkpt>
      <trkpt lat="46.20004" lon="4.50331">
        <ele>835.4</ele>
        <time>2025-09-07T14:30:19Z</time>
      </trkpt>
      <trkpt lat="46.20005" lon="4.50329">
        <ele>835.6</ele>
        <time>2025-09-07T14:30:20Z</time>
      </trkpt>
      <trkpt lat="46.20006" lon="4.50328">
        <ele>835.6</ele>
        <time>2025-09-07T14:30:21Z</time>
      </trkpt>
      <trkpt lat="46.20008" lon="4.50328">
        <ele>835.8</ele>
        <time>2025-09-07T14:30:22Z</time>
      </trkpt>
      <trkpt lat="46.2001" lon="4.50327">
        <ele>835.8</ele>
        <time>2025-09-07T14:30:23Z</time>
      </trkpt>
      <trkpt lat="46.20011" lon="4.50326">
        <ele>836.2</ele>
        <time>2025-09-07T14:30:24Z</time>
      </trkpt>
      <trkpt lat="46.20012" lon="4.50325">
        <ele>836.2</ele>
        <time>2025-09-07T14:30:25Z</time>
      </trkpt>
      <trkpt lat="46.20013" lon="4.50323">
        <ele>836.2</ele>
        <time>2025-09-07T14:30:26Z</time>
      </trkpt>
      <trkpt lat="46.20014" lon="4.50322">
        <ele>836.2</ele>
        <time>2025-09-07T14:30:27Z</time>
      </trkpt>
      <trkpt lat="46.20015" lon="4.5032">
        <ele>836.4</ele>
        <time>2025-09-07T14:30:28Z</time>
      </trkpt>
      <trkpt lat="46.20016" lon="4.50318">
        <ele>836.4</ele>
        <time>2025-09-07T14:30:29Z</time>
      </trkpt>
      <trkpt lat="46.20016" lon="4.50316">
        <ele>836.4</ele>
        <time>2025-09-07T14:30:30Z</time>
      </trkpt>
      <trkpt lat="46.20017" lon="4.50315">
        <ele>836.4</ele>
        <time>2025-09-07T14:30:31Z</time>
      </trkpt>
      <trkpt lat="46.20018" lon="4.50313">
        <ele>836.8</ele>
        <time>2025-09-07T14:30:32Z</time>
      </trkpt>
      <trkpt lat="46.20019" lon="4.50311">
        <ele>836.8</ele>
        <time>2025-09-07T14:30:33Z</time>
      </trkpt>
      <trkpt lat="46.20019" lon="4.50308">
        <ele>836.8</ele>
        <time>2025-09-07T14:30:34Z</time>
      </trkpt>
      <trkpt lat="46.2002" lon="4.50306">
        <ele>837</ele>
        <time>2025-09-07T14:30:35Z</time>
      </trkpt>
      <trkpt lat="46.2002" lon="4.50305">
        <ele>837</ele>
        <time>2025-09-07T14:30:36Z</time>
      </trkpt>
      <trkpt lat="46.20021" lon="4.50304">
        <ele>837</ele>
        <time>2025-09-07T14:30:37Z</time>
      </trkpt>
      <trkpt lat="46.20022" lon="4.50302">
        <ele>837</ele>
        <time>2025-09-07T14:30:38Z</time>
      </trkpt>
      <trkpt lat="46.20023" lon="4.50301">
        <ele>837.4</ele>
        <time>2025-09-07T14:30:39Z</time>
      </trkpt>
      <trkpt lat="46.20024" lon="4.503">
        <ele>837.4</ele>
        <time>2025-09-07T14:30:40Z</time>
      </trkpt>
      <trkpt lat="46.20025" lon="4.50298">
        <ele>837.6</ele>
        <time>2025-09-07T14:30:41Z</time>
      </trkpt>
      <trkpt lat="46.20026" lon="4.50297">
        <ele>837.6</ele>
        <time>2025-09-07T14:30:42Z</time>
      </trkpt>
      <trkpt lat="46.20027" lon="4.50295">
        <ele>837.6</ele>
        <time>2025-09-07T14:30:43Z</time>
      </trkpt>
      <trkpt lat="46.20028" lon="4.50294">
        <ele>837.8</ele>
        <time>2025-09-07T14:30:44Z</time>
      </trkpt>
      <trkpt lat="46.20028" lon="4.50293">
        <ele>837.8</ele>
        <time>2025-09-07T14:30:45Z</time>
      </trkpt>
      <trkpt lat="46.20029" lon="4.50291">
        <ele>837.8</ele>
        <time>2025-09-07T14:30:46Z</time>
      </trkpt>
      <trkpt lat="46.20029" lon="4.50289">
        <ele>837.8</ele>
        <time>2025-09-07T14:30:47Z</time>
      </trkpt>
      <trkpt lat="46.2003" lon="4.50286">
        <ele>838.4</ele>
        <time>2025-09-07T14:30:48Z</time>
      </trkpt>
      <trkpt lat="46.2003" lon="4.50285">
        <ele>838</ele>
        <time>2025-09-07T14:30:49Z</time>
      </trkpt>
      <trkpt lat="46.20031" lon="4.50283">
        <ele>838</ele>
        <time>2025-09-07T14:30:50Z</time>
      </trkpt>
      <trkpt lat="46.20032" lon="4.50282">
        <ele>838.2</ele>
        <time>2025-09-07T14:30:51Z</time>
      </trkpt>
      <trkpt lat="46.20033" lon="4.5028">
        <ele>838.2</ele>
        <time>2025-09-07T14:30:52Z</time>
      </trkpt>
      <trkpt lat="46.20033" lon="4.5028">
        <ele>838.8</ele>
        <time>2025-09-07T14:30:53Z</time>
      </trkpt>
      <trkpt lat="46.20033" lon="4.5028">
        <ele>838.8</ele>
        <time>2025-09-07T14:30:54Z</time>
      </trkpt>
      <trkpt lat="46.20036" lon="4.50271">
        <ele>839</ele>
        <time>2025-09-07T14:30:56Z</time>
      </trkpt>
      <trkpt lat="46.20037" lon="4.50269">
        <ele>839.4</ele>
        <time>2025-09-07T14:30:57Z</time>
      </trkpt>
      <trkpt lat="46.20038" lon="4.50267">
        <ele>839.4</ele>
        <time>2025-09-07T14:30:58Z</time>
      </trkpt>
      <trkpt lat="46.20039" lon="4.50265">
        <ele>839.4</ele>
        <time>2025-09-07T14:30:59Z</time>
      </trkpt>
      <trkpt lat="46.2004" lon="4.50263">
        <ele>839.4</ele>
        <time>2025-09-07T14:31:00Z</time>
      </trkpt>
      <trkpt lat="46.20041" lon="4.50261">
        <ele>839.6</ele>
        <time>2025-09-07T14:31:01Z</time>
      </trkpt>
      <trkpt lat="46.20042" lon="4.50259">
        <ele>839.6</ele>
        <time>2025-09-07T14:31:02Z</time>
      </trkpt>
      <trkpt lat="46.20042" lon="4.50255">
        <ele>839.6</ele>
        <time>2025-09-07T14:31:03Z</time>
      </trkpt>
      <trkpt lat="46.20043" lon="4.50253">
        <ele>839.8</ele>
        <time>2025-09-07T14:31:04Z</time>
      </trkpt>
      <trkpt lat="46.20043" lon="4.50251">
        <ele>839.8</ele>
        <time>2025-09-07T14:31:05Z</time>
      </trkpt>
      <trkpt lat="46.20044" lon="4.50248">
        <ele>839.8</ele>
        <time>2025-09-07T14:31:06Z</time>
      </trkpt>
      <trkpt lat="46.20045" lon="4.50246">
        <ele>839.8</ele>
        <time>2025-09-07T14:31:07Z</time>
      </trkpt>
      <trkpt lat="46.20046" lon="4.50243">
        <ele>839.8</ele>
        <time>2025-09-07T14:31:08Z</time>
      </trkpt>
      <trkpt lat="46.20047" lon="4.50241">
        <ele>839.8</ele>
        <time>2025-09-07T14:31:09Z</time>
      </trkpt>
      <trkpt lat="46.20047" lon="4.50238">
        <ele>839.8</ele>
        <time>2025-09-07T14:31:10Z</time>
      </trkpt>
      <trkpt lat="46.20048" lon="4.50235">
        <ele>839.8</ele>
        <time>2025-09-07T14:31:11Z</time>
      </trkpt>
      <trkpt lat="46.20048" lon="4.50232">
        <ele>840</ele>
        <time>2025-09-07T14:31:12Z</time>
      </trkpt>
      <trkpt lat="46.20049" lon="4.5023">
        <ele>840</ele>
        <time>2025-09-07T14:31:13Z</time>
      </trkpt>
      <trkpt lat="46.2005" lon="4.50227">
        <ele>840</ele>
        <time>2025-09-07T14:31:14Z</time>
      </trkpt>
      <trkpt lat="46.20051" lon="4.50225">
        <ele>840</ele>
        <time>2025-09-07T14:31:15Z</time>
      </trkpt>
      <trkpt lat="46.20052" lon="4.50223">
        <ele>840</ele>
        <time>2025-09-07T14:31:16Z</time>
      </trkpt>
      <trkpt lat="46.20052" lon="4.50221">
        <ele>840</ele>
        <time>2025-09-07T14:31:17Z</time>
      </trkpt>
      <trkpt lat="46.20053" lon="4.50218">
        <ele>840</ele>
        <time>2025-09-07T14:31:18Z</time>
      </trkpt>
      <trkpt lat="46.20054" lon="4.50215">
        <ele>840</ele>
        <time>2025-09-07T14:31:19Z</time>
      </trkpt>
      <trkpt lat="46.20054" lon="4.50213">
        <ele>840.2</ele>
        <time>2025-09-07T14:31:20Z</time>
      </trkpt>
      <trkpt lat="46.20055" lon="4.50211">
        <ele>840.2</ele>
        <time>2025-09-07T14:31:21Z</time>
      </trkpt>
      <trkpt lat="46.20055" lon="4.50211">
        <ele>840.2</ele>
        <time>2025-09-07T14:31:22Z</time>
      </trkpt>
      <trkpt lat="46.20057" lon="4.50205">
        <ele>840.2</ele>
        <time>2025-09-07T14:31:23Z</time>
      </trkpt>
      <trkpt lat="46.20058" lon="4.50203">
        <ele>840.2</ele>
        <time>2025-09-07T14:31:24Z</time>
      </trkpt>
      <trkpt lat="46.20059" lon="4.502">
        <ele>840.2</ele>
        <time>2025-09-07T14:31:25Z</time>
      </trkpt>
      <trkpt lat="46.20059" lon="4.50199">
        <ele>840.6</ele>
        <time>2025-09-07T14:31:26Z</time>
      </trkpt>
      <trkpt lat="46.2006" lon="4.50197">
        <ele>840.6</ele>
        <time>2025-09-07T14:31:27Z</time>
      </trkpt>
      <trkpt lat="46.2006" lon="4.50194">
        <ele>840.6</ele>
        <time>2025-09-07T14:31:28Z</time>
      </trkpt>
      <trkpt lat="46.2006" lon="4.50192">
        <ele>840.6</ele>
        <time>2025-09-07T14:31:29Z</time>
      </trkpt>
      <trkpt lat="46.2006" lon="4.50189">
        <ele>840.6</ele>
        <time>2025-09-07T14:31:30Z</time>
      </trkpt>
      <trkpt lat="46.2006" lon="4.50188">
        <ele>840.6</ele>
        <time>2025-09-07T14:31:31Z</time>
      </trkpt>
      <trkpt lat="46.2006" lon="4.50185">
        <ele>840.6</ele>
        <time>2025-09-07T14:31:32Z</time>
      </trkpt>
      <trkpt lat="46.20061" lon="4.50182">
        <ele>840.8</ele>
        <time>2025-09-07T14:31:33Z</time>
      </trkpt>
      <trkpt lat="46.20061" lon="4.5018">
        <ele>840.8</ele>
        <time>2025-09-07T14:31:34Z</time>
      </trkpt>
      <trkpt lat="46.20061" lon="4.50178">
        <ele>840.8</ele>
        <time>2025-09-07T14:31:35Z</time>
      </trkpt>
      <trkpt lat="46.20061" lon="4.50175">
        <ele>840.8</ele>
        <time>2025-09-07T14:31:36Z</time>
      </trkpt>
      <trkpt lat="46.20061" lon="4.50173">
        <ele>840.8</ele>
        <time>2025-09-07T14:31:37Z</time>
      </trkpt>
      <trkpt lat="46.20061" lon="4.5017">
        <ele>841.4</ele>
        <time>2025-09-07T14:31:38Z</time>
      </trkpt>
      <trkpt lat="46.20062" lon="4.50168">
        <ele>841.4</ele>
        <time>2025-09-07T14:31:39Z</time>
      </trkpt>
      <trkpt lat="46.20062" lon="4.50166">
        <ele>841.6</ele>
        <time>2025-09-07T14:31:40Z</time>
      </trkpt>
      <trkpt lat="46.20061" lon="4.50163">
        <ele>841.6</ele>
        <time>2025-09-07T14:31:41Z</time>
      </trkpt>
      <trkpt lat="46.20061" lon="4.50161">
        <ele>842</ele>
        <time>2025-09-07T14:31:42Z</time>
      </trkpt>
      <trkpt lat="46.20061" lon="4.50158">
        <ele>842</ele>
        <time>2025-09-07T14:31:43Z</time>
      </trkpt>
      <trkpt lat="46.20061" lon="4.50155">
        <ele>842</ele>
        <time>2025-09-07T14:31:44Z</time>
      </trkpt>
      <trkpt lat="46.20061" lon="4.50153">
        <ele>842.4</ele>
        <time>2025-09-07T14:31:45Z</time>
      </trkpt>
      <trkpt lat="46.20061" lon="4.5015">
        <ele>842.4</ele>
        <time>2025-09-07T14:31:46Z</time>
      </trkpt>
      <trkpt lat="46.20061" lon="4.50148">
        <ele>842.4</ele>
        <time>2025-09-07T14:31:47Z</time>
      </trkpt>
      <trkpt lat="46.20061" lon="4.50146">
        <ele>842.6</ele>
        <time>2025-09-07T14:31:48Z</time>
      </trkpt>
      <trkpt lat="46.20061" lon="4.50145">
        <ele>842.6</ele>
        <time>2025-09-07T14:31:49Z</time>
      </trkpt>
      <trkpt lat="46.2006" lon="4.50143">
        <ele>843</ele>
        <time>2025-09-07T14:31:50Z</time>
      </trkpt>
      <trkpt lat="46.2006" lon="4.5014">
        <ele>843</ele>
        <time>2025-09-07T14:31:51Z</time>
      </trkpt>
      <trkpt lat="46.2006" lon="4.50138">
        <ele>843</ele>
        <time>2025-09-07T14:31:52Z</time>
      </trkpt>
      <trkpt lat="46.2006" lon="4.50136">
        <ele>843</ele>
        <time>2025-09-07T14:31:53Z</time>
      </trkpt>
      <trkpt lat="46.2006" lon="4.50134">
        <ele>843.4</ele>
        <time>2025-09-07T14:31:54Z</time>
      </trkpt>
      <trkpt lat="46.2006" lon="4.50132">
        <ele>843.4</ele>
        <time>2025-09-07T14:31:55Z</time>
      </trkpt>
      <trkpt lat="46.20061" lon="4.5013">
        <ele>843.4</ele>
        <time>2025-09-07T14:31:56Z</time>
      </trkpt>
      <trkpt lat="46.20062" lon="4.50128">
        <ele>843.6</ele>
        <time>2025-09-07T14:31:57Z</time>
      </trkpt>
      <trkpt lat="46.20063" lon="4.50126">
        <ele>843.6</ele>
        <time>2025-09-07T14:31:58Z</time>
      </trkpt>
      <trkpt lat="46.20064" lon="4.50125">
        <ele>843.6</ele>
        <time>2025-09-07T14:31:59Z</time>
      </trkpt>
      <trkpt lat="46.20065" lon="4.50124">
        <ele>843.8</ele>
        <time>2025-09-07T14:32:00Z</time>
      </trkpt>
      <trkpt lat="46.20066" lon="4.50122">
        <ele>843.8</ele>
        <time>2025-09-07T14:32:01Z</time>
      </trkpt>
      <trkpt lat="46.20066" lon="4.50121">
        <ele>843.8</ele>
        <time>2025-09-07T14:32:02Z</time>
      </trkpt>
      <trkpt lat="46.20065" lon="4.5012">
        <ele>843.8</ele>
        <time>2025-09-07T14:32:03Z</time>
      </trkpt>
      <trkpt lat="46.20064" lon="4.5012">
        <ele>844.2</ele>
        <time>2025-09-07T14:32:04Z</time>
      </trkpt>
      <trkpt lat="46.20063" lon="4.50119">
        <ele>844.2</ele>
        <time>2025-09-07T14:32:05Z</time>
      </trkpt>
      <trkpt lat="46.20063" lon="4.50119">
        <ele>844.2</ele>
        <time>2025-09-07T14:32:06Z</time>
      </trkpt>
      <trkpt lat="46.20062" lon="4.50119">
        <ele>844.2</ele>
        <time>2025-09-07T14:32:07Z</time>
      </trkpt>
      <trkpt lat="46.20061" lon="4.50118">
        <ele>844.6</ele>
        <time>2025-09-07T14:32:17Z</time>
      </trkpt>
      <trkpt lat="46.2006" lon="4.50117">
        <ele>844.6</ele>
        <time>2025-09-07T14:32:18Z</time>
      </trkpt>
      <trkpt lat="46.2006" lon="4.50117">
        <ele>844.6</ele>
        <time>2025-09-07T14:32:19Z</time>
      </trkpt>
      <trkpt lat="46.20057" lon="4.50119">
        <ele>844.6</ele>
        <time>2025-09-07T14:34:37Z</time>
      </trkpt>
      <trkpt lat="46.20056" lon="4.50119">
        <ele>844.6</ele>
        <time>2025-09-07T14:34:38Z</time>
      </trkpt>
      <trkpt lat="46.20055" lon="4.50119">
        <ele>844.6</ele>
        <time>2025-09-07T14:34:39Z</time>
      </trkpt>
      <trkpt lat="46.20054" lon="4.50119">
        <ele>844.6</ele>
        <time>2025-09-07T14:34:40Z</time>
      </trkpt>
      <trkpt lat="46.20053" lon="4.50118">
        <ele>844.6</ele>
        <time>2025-09-07T14:34:41Z</time>
      </trkpt>
      <trkpt lat="46.20052" lon="4.50118">
        <ele>844.6</ele>
        <time>2025-09-07T14:34:42Z</time>
      </trkpt>
      <trkpt lat="46.20052" lon="4.50117">
        <ele>844.6</ele>
        <time>2025-09-07T14:34:43Z</time>
      </trkpt>
      <trkpt lat="46.20052" lon="4.50117">
        <ele>844.6</ele>
        <time>2025-09-07T14:34:44Z</time>
      </trkpt>
      <trkpt lat="46.2005" lon="4.50115">
        <ele>845</ele>
        <time>2025-09-07T14:34:49Z</time>
      </trkpt>
      <trkpt lat="46.20049" lon="4.50113">
        <ele>845</ele>
        <time>2025-09-07T14:34:50Z</time>
      </trkpt>
      <trkpt lat="46.20048" lon="4.50111">
        <ele>845</ele>
        <time>2025-09-07T14:34:51Z</time>
      </trkpt>
      <trkpt lat="46.20047" lon="4.50109">
        <ele>845.2</ele>
        <time>2025-09-07T14:34:52Z</time>
      </trkpt>
      <trkpt lat="46.20046" lon="4.50106">
        <ele>845.2</ele>
        <time>2025-09-07T14:34:53Z</time>
      </trkpt>
      <trkpt lat="46.20045" lon="4.50105">
        <ele>845.2</ele>
        <time>2025-09-07T14:34:54Z</time>
      </trkpt>
      <trkpt lat="46.20045" lon="4.50102">
        <ele>845.6</ele>
        <time>2025-09-07T14:34:55Z</time>
      </trkpt>
      <trkpt lat="46.20044" lon="4.50099">
        <ele>845.8</ele>
        <time>2025-09-07T14:34:56Z</time>
      </trkpt>
      <trkpt lat="46.20044" lon="4.50096">
        <ele>845.8</ele>
        <time>2025-09-07T14:34:57Z</time>
      </trkpt>
      <trkpt lat="46.20044" lon="4.50094">
        <ele>846.2</ele>
        <time>2025-09-07T14:34:58Z</time>
      </trkpt>
      <trkpt lat="46.20044" lon="4.50091">
        <ele>846.2</ele>
        <time>2025-09-07T14:34:59Z</time>
      </trkpt>
      <trkpt lat="46.20043" lon="4.50089">
        <ele>846.4</ele>
        <time>2025-09-07T14:35:00Z</time>
      </trkpt>
      <trkpt lat="46.20043" lon="4.50086">
        <ele>846.4</ele>
        <time>2025-09-07T14:35:01Z</time>
      </trkpt>
      <trkpt lat="46.20043" lon="4.50083">
        <ele>846.4</ele>
        <time>2025-09-07T14:35:02Z</time>
      </trkpt>
      <trkpt lat="46.20042" lon="4.5008">
        <ele>846.4</ele>
        <time>2025-09-07T14:35:03Z</time>
      </trkpt>
      <trkpt lat="46.20042" lon="4.50078">
        <ele>846.4</ele>
        <time>2025-09-07T14:35:04Z</time>
      </trkpt>
      <trkpt lat="46.20042" lon="4.50076">
        <ele>846.4</ele>
        <time>2025-09-07T14:35:05Z</time>
      </trkpt>
      <trkpt lat="46.20042" lon="4.50074">
        <ele>847</ele>
        <time>2025-09-07T14:35:06Z</time>
      </trkpt>
      <trkpt lat="46.20042" lon="4.50072">
        <ele>847</ele>
        <time>2025-09-07T14:35:07Z</time>
      </trkpt>
      <trkpt lat="46.20042" lon="4.50069">
        <ele>847.2</ele>
        <time>2025-09-07T14:35:08Z</time>
      </trkpt>
      <trkpt lat="46.20041" lon="4.50068">
        <ele>847.2</ele>
        <time>2025-09-07T14:35:09Z</time>
      </trkpt>
      <trkpt lat="46.2004" lon="4.50066">
        <ele>847.4</ele>
        <time>2025-09-07T14:35:10Z</time>
      </trkpt>
      <trkpt lat="46.2004" lon="4.50064">
        <ele>847.4</ele>
        <time>2025-09-07T14:35:11Z</time>
      </trkpt>
      <trkpt lat="46.20039" lon="4.50062">
        <ele>847.6</ele>
        <time>2025-09-07T14:35:12Z</time>
      </trkpt>
      <trkpt lat="46.2004" lon="4.50059">
        <ele>847.6</ele>
        <time>2025-09-07T14:35:13Z</time>
      </trkpt>
      <trkpt lat="46.2004" lon="4.50058">
        <ele>848</ele>
        <time>2025-09-07T14:35:14Z</time>
      </trkpt>
      <trkpt lat="46.20041" lon="4.50056">
        <ele>848</ele>
        <time>2025-09-07T14:35:15Z</time>
      </trkpt>
      <trkpt lat="46.20042" lon="4.50054">
        <ele>848</ele>
        <time>2025-09-07T14:35:16Z</time>
      </trkpt>
      <trkpt lat="46.20042" lon="4.50052">
        <ele>848</ele>
        <time>2025-09-07T14:35:17Z</time>
      </trkpt>
      <trkpt lat="46.20042" lon="4.5005">
        <ele>848</ele>
        <time>2025-09-07T14:35:18Z</time>
      </trkpt>
      <trkpt lat="46.20042" lon="4.50048">
        <ele>848.4</ele>
        <time>2025-09-07T14:35:19Z</time>
      </trkpt>
      <trkpt lat="46.20042" lon="4.50047">
        <ele>848.4</ele>
        <time>2025-09-07T14:35:20Z</time>
      </trkpt>
      <trkpt lat="46.20042" lon="4.50045">
        <ele>848.6</ele>
        <time>2025-09-07T14:35:21Z</time>
      </trkpt>
      <trkpt lat="46.20041" lon="4.50043">
        <ele>848.6</ele>
        <time>2025-09-07T14:35:22Z</time>
      </trkpt>
      <trkpt lat="46.20041" lon="4.50041">
        <ele>848.8</ele>
        <time>2025-09-07T14:35:23Z</time>
      </trkpt>
      <trkpt lat="46.20041" lon="4.5004">
        <ele>848.8</ele>
        <time>2025-09-07T14:35:24Z</time>
      </trkpt>
      <trkpt lat="46.20041" lon="4.50038">
        <ele>849</ele>
        <time>2025-09-07T14:35:25Z</time>
      </trkpt>
      <trkpt lat="46.20041" lon="4.50039">
        <ele>849</ele>
        <time>2025-09-07T14:35:26Z</time>
      </trkpt>
      <trkpt lat="46.20041" lon="4.50038">
        <ele>849.4</ele>
        <time>2025-09-07T14:35:27Z</time>
      </trkpt>
      <trkpt lat="46.20041" lon="4.50036">
        <ele>849.6</ele>
        <time>2025-09-07T14:35:28Z</time>
      </trkpt>
      <trkpt lat="46.2004" lon="4.50033">
        <ele>849.6</ele>
        <time>2025-09-07T14:35:29Z</time>
      </trkpt>
      <trkpt lat="46.2004" lon="4.50031">
        <ele>849.8</ele>
        <time>2025-09-07T14:35:30Z</time>
      </trkpt>
      <trkpt lat="46.2004" lon="4.50029">
        <ele>849.8</ele>
        <time>2025-09-07T14:35:31Z</time>
      </trkpt>
      <trkpt lat="46.2004" lon="4.50027">
        <ele>850.2</ele>
        <time>2025-09-07T14:35:32Z</time>
      </trkpt>
      <trkpt lat="46.2004" lon="4.50025">
        <ele>850.4</ele>
        <time>2025-09-07T14:35:33Z</time>
      </trkpt>
      <trkpt lat="46.20039" lon="4.50023">
        <ele>850.4</ele>
        <time>2025-09-07T14:35:34Z</time>
      </trkpt>
      <trkpt lat="46.20039" lon="4.50021">
        <ele>850.6</ele>
        <time>2025-09-07T14:35:35Z</time>
      </trkpt>
      <trkpt lat="46.2004" lon="4.5002">
        <ele>850.6</ele>
        <time>2025-09-07T14:35:36Z</time>
      </trkpt>
      <trkpt lat="46.2004" lon="4.50018">
        <ele>850.8</ele>
        <time>2025-09-07T14:35:37Z</time>
      </trkpt>
      <trkpt lat="46.2004" lon="4.50017">
        <ele>851</ele>
        <time>2025-09-07T14:35:38Z</time>
      </trkpt>
      <trkpt lat="46.2004" lon="4.50015">
        <ele>851.2</ele>
        <time>2025-09-07T14:35:39Z</time>
      </trkpt>
      <trkpt lat="46.20039" lon="4.50013">
        <ele>851.2</ele>
        <time>2025-09-07T14:35:40Z</time>
      </trkpt>
      <trkpt lat="46.20039" lon="4.50012">
        <ele>851.6</ele>
        <time>2025-09-07T14:35:41Z</time>
      </trkpt>
      <trkpt lat="46.20038" lon="4.50012">
        <ele>851.8</ele>
        <time>2025-09-07T14:35:42Z</time>
      </trkpt>
      <trkpt lat="46.20038" lon="4.50011">
        <ele>851.8</ele>
        <time>2025-09-07T14:35:43Z</time>
      </trkpt>
      <trkpt lat="46.20037" lon="4.5001">
        <ele>851.8</ele>
        <time>2025-09-07T14:35:44Z</time>
      </trkpt>
      <trkpt lat="46.20037" lon="4.50009">
        <ele>851.8</ele>
        <time>2025-09-07T14:35:45Z</time>
      </trkpt>
      <trkpt lat="46.20037" lon="4.50008">
        <ele>852.2</ele>
        <time>2025-09-07T14:35:46Z</time>
      </trkpt>
      <trkpt lat="46.20037" lon="4.50007">
        <ele>852.6</ele>
        <time>2025-09-07T14:35:47Z</time>
      </trkpt>
      <trkpt lat="46.20037" lon="4.50007">
        <ele>852.8</ele>
        <time>2025-09-07T14:35:48Z</time>
      </trkpt>
      <trkpt lat="46.20036" lon="4.50005">
        <ele>852.8</ele>
        <time>2025-09-07T14:35:49Z</time>
      </trkpt>
      <trkpt lat="46.20035" lon="4.50004">
        <ele>852.8</ele>
        <time>2025-09-07T14:35:50Z</time>
      </trkpt>
      <trkpt lat="46.20035" lon="4.50002">
        <ele>853</ele>
        <time>2025-09-07T14:35:51Z</time>
      </trkpt>
      <trkpt lat="46.20034" lon="4.50001">
        <ele>853</ele>
        <time>2025-09-07T14:35:52Z</time>
      </trkpt>
      <trkpt lat="46.20034" lon="4.5">
        <ele>853.4</ele>
        <time>2025-09-07T14:35:53Z</time>
      </trkpt>
      <trkpt lat="46.20033" lon="4.49999">
        <ele>853.6</ele>
        <time>2025-09-07T14:35:54Z</time>
      </trkpt>
      <trkpt lat="46.20033" lon="4.49999">
        <ele>854</ele>
        <time>2025-09-07T14:35:55Z</time>
      </trkpt>
      <trkpt lat="46.20032" lon="4.49998">
        <ele>854.4</ele>
        <time>2025-09-07T14:35:56Z</time>
      </trkpt>
      <trkpt lat="46.20032" lon="4.49997">
        <ele>854.4</ele>
        <time>2025-09-07T14:35:57Z</time>
      </trkpt>
      <trkpt lat="46.20032" lon="4.49995">
        <ele>854.8</ele>
        <time>2025-09-07T14:35:58Z</time>
      </trkpt>
      <trkpt lat="46.20032" lon="4.49993">
        <ele>854.8</ele>
        <time>2025-09-07T14:35:59Z</time>
      </trkpt>
      <trkpt lat="46.20032" lon="4.49991">
        <ele>855</ele>
        <time>2025-09-07T14:36:00Z</time>
      </trkpt>
      <trkpt lat="46.20032" lon="4.49989">
        <ele>855</ele>
        <time>2025-09-07T14:36:01Z</time>
      </trkpt>
      <trkpt lat="46.20032" lon="4.49987">
        <ele>855</ele>
        <time>2025-09-07T14:36:02Z</time>
      </trkpt>
      <trkpt lat="46.20032" lon="4.49986">
        <ele>855.4</ele>
        <time>2025-09-07T14:36:03Z</time>
      </trkpt>
      <trkpt lat="46.20031" lon="4.49984">
        <ele>855.4</ele>
        <time>2025-09-07T14:36:04Z</time>
      </trkpt>
      <trkpt lat="46.20031" lon="4.49983">
        <ele>855.4</ele>
        <time>2025-09-07T14:36:05Z</time>
      </trkpt>
      <trkpt lat="46.20031" lon="4.49981">
        <ele>855.6</ele>
        <time>2025-09-07T14:36:06Z</time>
      </trkpt>
      <trkpt lat="46.20031" lon="4.49979">
        <ele>855.6</ele>
        <time>2025-09-07T14:36:07Z</time>
      </trkpt>
      <trkpt lat="46.20031" lon="4.49977">
        <ele>856</ele>
        <time>2025-09-07T14:36:08Z</time>
      </trkpt>
      <trkpt lat="46.20031" lon="4.49976">
        <ele>856</ele>
        <time>2025-09-07T14:36:09Z</time>
      </trkpt>
      <trkpt lat="46.20031" lon="4.49975">
        <ele>856.4</ele>
        <time>2025-09-07T14:36:10Z</time>
      </trkpt>
      <trkpt lat="46.2003" lon="4.49973">
        <ele>856.4</ele>
        <time>2025-09-07T14:36:11Z</time>
      </trkpt>
      <trkpt lat="46.2003" lon="4.49971">
        <ele>856.4</ele>
        <time>2025-09-07T14:36:12Z</time>
      </trkpt>
      <trkpt lat="46.2003" lon="4.49969">
        <ele>856.4</ele>
        <time>2025-09-07T14:36:13Z</time>
      </trkpt>
      <trkpt lat="46.20029" lon="4.49968">
        <ele>856.6</ele>
        <time>2025-09-07T14:36:14Z</time>
      </trkpt>
      <trkpt lat="46.20029" lon="4.49967">
        <ele>856.8</ele>
        <time>2025-09-07T14:36:15Z</time>
      </trkpt>
      <trkpt lat="46.20029" lon="4.49966">
        <ele>856.8</ele>
        <time>2025-09-07T14:36:16Z</time>
      </trkpt>
      <trkpt lat="46.20029" lon="4.49965">
        <ele>857.2</ele>
        <time>2025-09-07T14:36:17Z</time>
      </trkpt>
      <trkpt lat="46.20028" lon="4.49964">
        <ele>857.2</ele>
        <time>2025-09-07T14:36:18Z</time>
      </trkpt>
      <trkpt lat="46.20029" lon="4.49964">
        <ele>857.6</ele>
        <time>2025-09-07T14:36:19Z</time>
      </trkpt>
      <trkpt lat="46.20028" lon="4.49963">
        <ele>857.6</ele>
        <time>2025-09-07T14:36:20Z</time>
      </trkpt>
      <trkpt lat="46.20028" lon="4.49962">
        <ele>857.6</ele>
        <time>2025-09-07T14:36:21Z</time>
      </trkpt>
      <trkpt lat="46.20028" lon="4.49961">
        <ele>857.6</ele>
        <time>2025-09-07T14:36:22Z</time>
      </trkpt>
      <trkpt lat="46.20027" lon="4.49959">
        <ele>857.8</ele>
        <time>2025-09-07T14:36:23Z</time>
      </trkpt>
      <trkpt lat="46.20026" lon="4.49958">
        <ele>857.8</ele>
        <time>2025-09-07T14:36:24Z</time>
      </trkpt>
      <trkpt lat="46.20025" lon="4.49956">
        <ele>858</ele>
        <time>2025-09-07T14:36:25Z</time>
      </trkpt>
      <trkpt lat="46.20024" lon="4.49954">
        <ele>858</ele>
        <time>2025-09-07T14:36:26Z</time>
      </trkpt>
      <trkpt lat="46.20023" lon="4.49953">
        <ele>858.4</ele>
        <time>2025-09-07T14:36:27Z</time>
      </trkpt>
      <trkpt lat="46.20022" lon="4.49951">
        <ele>858.4</ele>
        <time>2025-09-07T14:36:28Z</time>
      </trkpt>
      <trkpt lat="46.20022" lon="4.4995">
        <ele>858.6</ele>
        <time>2025-09-07T14:36:29Z</time>
      </trkpt>
      <trkpt lat="46.20022" lon="4.49948">
        <ele>858.6</ele>
        <time>2025-09-07T14:36:30Z</time>
      </trkpt>
      <trkpt lat="46.20022" lon="4.49946">
        <ele>858.8</ele>
        <time>2025-09-07T14:36:31Z</time>
      </trkpt>
      <trkpt lat="46.20022" lon="4.49944">
        <ele>858.8</ele>
        <time>2025-09-07T14:36:32Z</time>
      </trkpt>
      <trkpt lat="46.20022" lon="4.49941">
        <ele>859</ele>
        <time>2025-09-07T14:36:33Z</time>
      </trkpt>
      <trkpt lat="46.20021" lon="4.4994">
        <ele>859</ele>
        <time>2025-09-07T14:36:34Z</time>
      </trkpt>
      <trkpt lat="46.20021" lon="4.49939">
        <ele>859.4</ele>
        <time>2025-09-07T14:36:35Z</time>
      </trkpt>
      <trkpt lat="46.20021" lon="4.49938">
        <ele>859.4</ele>
        <time>2025-09-07T14:36:36Z</time>
      </trkpt>
      <trkpt lat="46.2002" lon="4.49937">
        <ele>859.4</ele>
        <time>2025-09-07T14:36:37Z</time>
      </trkpt>
      <trkpt lat="46.2002" lon="4.49935">
        <ele>859.8</ele>
        <time>2025-09-07T14:36:38Z</time>
      </trkpt>
      <trkpt lat="46.2002" lon="4.49934">
        <ele>860</ele>
        <time>2025-09-07T14:36:39Z</time>
      </trkpt>
      <trkpt lat="46.2002" lon="4.49933">
        <ele>860</ele>
        <time>2025-09-07T14:36:40Z</time>
      </trkpt>
      <trkpt lat="46.20019" lon="4.49933">
        <ele>860.4</ele>
        <time>2025-09-07T14:36:41Z</time>
      </trkpt>
      <trkpt lat="46.20018" lon="4.49933">
        <ele>860.4</ele>
        <time>2025-09-07T14:36:42Z</time>
      </trkpt>
      <trkpt lat="46.20017" lon="4.49933">
        <ele>860.8</ele>
        <time>2025-09-07T14:36:43Z</time>
      </trkpt>
      <trkpt lat="46.20016" lon="4.49931">
        <ele>860.8</ele>
        <time>2025-09-07T14:36:44Z</time>
      </trkpt>
      <trkpt lat="46.20015" lon="4.49929">
        <ele>861</ele>
        <time>2025-09-07T14:36:45Z</time>
      </trkpt>
      <trkpt lat="46.20015" lon="4.49927">
        <ele>861</ele>
        <time>2025-09-07T14:36:46Z</time>
      </trkpt>
      <trkpt lat="46.20014" lon="4.49926">
        <ele>861.2</ele>
        <time>2025-09-07T14:36:47Z</time>
      </trkpt>
      <trkpt lat="46.20014" lon="4.49925">
        <ele>861.2</ele>
        <time>2025-09-07T14:36:48Z</time>
      </trkpt>
      <trkpt lat="46.20014" lon="4.49924">
        <ele>861.6</ele>
        <time>2025-09-07T14:36:49Z</time>
      </trkpt>
      <trkpt lat="46.20014" lon="4.49923">
        <ele>861.6</ele>
        <time>2025-09-07T14:36:50Z</time>
      </trkpt>
      <trkpt lat="46.20013" lon="4.49921">
        <ele>861.6</ele>
        <time>2025-09-07T14:36:51Z</time>
      </trkpt>
      <trkpt lat="46.20013" lon="4.4992">
        <ele>861.8</ele>
        <time>2025-09-07T14:36:52Z</time>
      </trkpt>
      <trkpt lat="46.20013" lon="4.49918">
        <ele>861.8</ele>
        <time>2025-09-07T14:36:53Z</time>
      </trkpt>
      <trkpt lat="46.20013" lon="4.49916">
        <ele>861.8</ele>
        <time>2025-09-07T14:36:54Z</time>
      </trkpt>
      <trkpt lat="46.20013" lon="4.49915">
        <ele>862</ele>
        <time>2025-09-07T14:36:55Z</time>
      </trkpt>
      <trkpt lat="46.20013" lon="4.49913">
        <ele>862</ele>
        <time>2025-09-07T14:36:56Z</time>
      </trkpt>
      <trkpt lat="46.20013" lon="4.49912">
        <ele>862</ele>
        <time>2025-09-07T14:36:57Z</time>
      </trkpt>
      <trkpt lat="46.20013" lon="4.4991">
        <ele>862.4</ele>
        <time>2025-09-07T14:36:58Z</time>
      </trkpt>
      <trkpt lat="46.20012" lon="4.49908">
        <ele>862.4</ele>
        <time>2025-09-07T14:36:59Z</time>
      </trkpt>
      <trkpt lat="46.20012" lon="4.49907">
        <ele>862.4</ele>
        <time>2025-09-07T14:37:00Z</time>
      </trkpt>
      <trkpt lat="46.20012" lon="4.49905">
        <ele>862.6</ele>
        <time>2025-09-07T14:37:01Z</time>
      </trkpt>
      <trkpt lat="46.20011" lon="4.49903">
        <ele>862.6</ele>
        <time>2025-09-07T14:37:02Z</time>
      </trkpt>
      <trkpt lat="46.20011" lon="4.49902">
        <ele>862.6</ele>
        <time>2025-09-07T14:37:03Z</time>
      </trkpt>
      <trkpt lat="46.2001" lon="4.49901">
        <ele>863</ele>
        <time>2025-09-07T14:37:04Z</time>
      </trkpt>
      <trkpt lat="46.2001" lon="4.49898">
        <ele>863</ele>
        <time>2025-09-07T14:37:05Z</time>
      </trkpt>
      <trkpt lat="46.20009" lon="4.49896">
        <ele>863.2</ele>
        <time>2025-09-07T14:37:06Z</time>
      </trkpt>
      <trkpt lat="46.20009" lon="4.49895">
        <ele>863.2</ele>
        <time>2025-09-07T14:37:07Z</time>
      </trkpt>
      <trkpt lat="46.20009" lon="4.49894">
        <ele>863.6</ele>
        <time>2025-09-07T14:37:08Z</time>
      </trkpt>
      <trkpt lat="46.20008" lon="4.49892">
        <ele>863.6</ele>
        <time>2025-09-07T14:37:09Z</time>
      </trkpt>
      <trkpt lat="46.20008" lon="4.49891">
        <ele>863.6</ele>
        <time>2025-09-07T14:37:10Z</time>
      </trkpt>
      <trkpt lat="46.20008" lon="4.49891">
        <ele>863.8</ele>
        <time>2025-09-07T14:37:11Z</time>
      </trkpt>
      <trkpt lat="46.20007" lon="4.49889">
        <ele>863.8</ele>
        <time>2025-09-07T14:37:12Z</time>
      </trkpt>
      <trkpt lat="46.20007" lon="4.49887">
        <ele>864</ele>
        <time>2025-09-07T14:37:13Z</time>
      </trkpt>
      <trkpt lat="46.20006" lon="4.49886">
        <ele>864</ele>
        <time>2025-09-07T14:37:14Z</time>
      </trkpt>
      <trkpt lat="46.20006" lon="4.49885">
        <ele>864</ele>
        <time>2025-09-07T14:37:15Z</time>
      </trkpt>
      <trkpt lat="46.20006" lon="4.49884">
        <ele>864.2</ele>
        <time>2025-09-07T14:37:16Z</time>
      </trkpt>
      <trkpt lat="46.20005" lon="4.49883">
        <ele>864.2</ele>
        <time>2025-09-07T14:37:17Z</time>
      </trkpt>
      <trkpt lat="46.20005" lon="4.49881">
        <ele>864.6</ele>
        <time>2025-09-07T14:37:18Z</time>
      </trkpt>
      <trkpt lat="46.20005" lon="4.49879">
        <ele>864.6</ele>
        <time>2025-09-07T14:37:19Z</time>
      </trkpt>
      <trkpt lat="46.20004" lon="4.49877">
        <ele>864.6</ele>
        <time>2025-09-07T14:37:20Z</time>
      </trkpt>
      <trkpt lat="46.20004" lon="4.49876">
        <ele>864.8</ele>
        <time>2025-09-07T14:37:21Z</time>
      </trkpt>
      <trkpt lat="46.20003" lon="4.49875">
        <ele>864.8</ele>
        <time>2025-09-07T14:37:22Z</time>
      </trkpt>
      <trkpt lat="46.20003" lon="4.49874">
        <ele>865</ele>
        <time>2025-09-07T14:37:23Z</time>
      </trkpt>
      <trkpt lat="46.20003" lon="4.49874">
        <ele>865</ele>
        <time>2025-09-07T14:37:24Z</time>
      </trkpt>
      <trkpt lat="46.20003" lon="4.49873">
        <ele>865.2</ele>
        <time>2025-09-07T14:37:25Z</time>
      </trkpt>
      <trkpt lat="46.20002" lon="4.49871">
        <ele>865.2</ele>
        <time>2025-09-07T14:37:26Z</time>
      </trkpt>
      <trkpt lat="46.20002" lon="4.49869">
        <ele>865.2</ele>
        <time>2025-09-07T14:37:27Z</time>
      </trkpt>
      <trkpt lat="46.20002" lon="4.49868">
        <ele>865.6</ele>
        <time>2025-09-07T14:37:28Z</time>
      </trkpt>
      <trkpt lat="46.20001" lon="4.49865">
        <ele>865.6</ele>
        <time>2025-09-07T14:37:29Z</time>
      </trkpt>
      <trkpt lat="46.20001" lon="4.49864">
        <ele>865.8</ele>
        <time>2025-09-07T14:37:30Z</time>
      </trkpt>
      <trkpt lat="46.20001" lon="4.49862">
        <ele>865.8</ele>
        <time>2025-09-07T14:37:31Z</time>
      </trkpt>
      <trkpt lat="46.2" lon="4.49861">
        <ele>866</ele>
        <time>2025-09-07T14:37:32Z</time>
      </trkpt>
      <trkpt lat="46.2" lon="4.4986">
        <ele>866</ele>
        <time>2025-09-07T14:37:33Z</time>
      </trkpt>
      <trkpt lat="46.2" lon="4.49858">
        <ele>866</ele>
        <time>2025-09-07T14:37:34Z</time>
      </trkpt>
      <trkpt lat="46.2" lon="4.49857">
        <ele>866</ele>
        <time>2025-09-07T14:37:35Z</time>
      </trkpt>
      <trkpt lat="46.19999" lon="4.49855">
        <ele>866.4</ele>
        <time>2025-09-07T14:37:36Z</time>
      </trkpt>
      <trkpt lat="46.19998" lon="4.49854">
        <ele>866.4</ele>
        <time>2025-09-07T14:37:37Z</time>
      </trkpt>
      <trkpt lat="46.19998" lon="4.49852">
        <ele>866.6</ele>
        <time>2025-09-07T14:37:38Z</time>
      </trkpt>
      <trkpt lat="46.19997" lon="4.4985">
        <ele>866.6</ele>
        <time>2025-09-07T14:37:39Z</time>
      </trkpt>
      <trkpt lat="46.19997" lon="4.49849">
        <ele>867</ele>
        <time>2025-09-07T14:37:40Z</time>
      </trkpt>
      <trkpt lat="46.19996" lon="4.49847">
        <ele>867</ele>
        <time>2025-09-07T14:37:41Z</time>
      </trkpt>
      <trkpt lat="46.19996" lon="4.49845">
        <ele>867.2</ele>
        <time>2025-09-07T14:37:42Z</time>
      </trkpt>
      <trkpt lat="46.19995" lon="4.49844">
        <ele>867.2</ele>
        <time>2025-09-07T14:37:43Z</time>
      </trkpt>
      <trkpt lat="46.19995" lon="4.49842">
        <ele>867.6</ele>
        <time>2025-09-07T14:37:44Z</time>
      </trkpt>
      <trkpt lat="46.19995" lon="4.4984">
        <ele>867.6</ele>
        <time>2025-09-07T14:37:45Z</time>
      </trkpt>
      <trkpt lat="46.19994" lon="4.49839">
        <ele>867.8</ele>
        <time>2025-09-07T14:37:46Z</time>
      </trkpt>
      <trkpt lat="46.19994" lon="4.49837">
        <ele>868.2</ele>
        <time>2025-09-07T14:37:47Z</time>
      </trkpt>
      <trkpt lat="46.19993" lon="4.49835">
        <ele>868.2</ele>
        <time>2025-09-07T14:37:48Z</time>
      </trkpt>
      <trkpt lat="46.19993" lon="4.49833">
        <ele>868.2</ele>
        <time>2025-09-07T14:37:49Z</time>
      </trkpt>
      <trkpt lat="46.19993" lon="4.49832">
        <ele>868.2</ele>
        <time>2025-09-07T14:37:50Z</time>
      </trkpt>
      <trkpt lat="46.19992" lon="4.49831">
        <ele>868.2</ele>
        <time>2025-09-07T14:37:51Z</time>
      </trkpt>
      <trkpt lat="46.19992" lon="4.49829">
        <ele>868.2</ele>
        <time>2025-09-07T14:37:52Z</time>
      </trkpt>
      <trkpt lat="46.19992" lon="4.49827">
        <ele>868.6</ele>
        <time>2025-09-07T14:37:53Z</time>
      </trkpt>
      <trkpt lat="46.19992" lon="4.49825">
        <ele>868.8</ele>
        <time>2025-09-07T14:37:54Z</time>
      </trkpt>
      <trkpt lat="46.19992" lon="4.49824">
        <ele>868.8</ele>
        <time>2025-09-07T14:37:55Z</time>
      </trkpt>
      <trkpt lat="46.19991" lon="4.49823">
        <ele>868.8</ele>
        <time>2025-09-07T14:37:56Z</time>
      </trkpt>
      <trkpt lat="46.19991" lon="4.49821">
        <ele>869.2</ele>
        <time>2025-09-07T14:37:57Z</time>
      </trkpt>
      <trkpt lat="46.19991" lon="4.4982">
        <ele>869.2</ele>
        <time>2025-09-07T14:37:58Z</time>
      </trkpt>
      <trkpt lat="46.1999" lon="4.49818">
        <ele>869.2</ele>
        <time>2025-09-07T14:37:59Z</time>
      </trkpt>
      <trkpt lat="46.1999" lon="4.49816">
        <ele>869.4</ele>
        <time>2025-09-07T14:38:00Z</time>
      </trkpt>
      <trkpt lat="46.19989" lon="4.49813">
        <ele>869.4</ele>
        <time>2025-09-07T14:38:01Z</time>
      </trkpt>
      <trkpt lat="46.19989" lon="4.49812">
        <ele>869.8</ele>
        <time>2025-09-07T14:38:02Z</time>
      </trkpt>
      <trkpt lat="46.19988" lon="4.4981">
        <ele>869.8</ele>
        <time>2025-09-07T14:38:03Z</time>
      </trkpt>
      <trkpt lat="46.19988" lon="4.49808">
        <ele>869.8</ele>
        <time>2025-09-07T14:38:04Z</time>
      </trkpt>
      <trkpt lat="46.19987" lon="4.49807">
        <ele>870</ele>
        <time>2025-09-07T14:38:05Z</time>
      </trkpt>
      <trkpt lat="46.19987" lon="4.49806">
        <ele>870</ele>
        <time>2025-09-07T14:38:06Z</time>
      </trkpt>
      <trkpt lat="46.19986" lon="4.49806">
        <ele>870</ele>
        <time>2025-09-07T14:38:07Z</time>
      </trkpt>
      <trkpt lat="46.19984" lon="4.49805">
        <ele>870.2</ele>
        <time>2025-09-07T14:38:08Z</time>
      </trkpt>
      <trkpt lat="46.19983" lon="4.49804">
        <ele>870.6</ele>
        <time>2025-09-07T14:38:09Z</time>
      </trkpt>
      <trkpt lat="46.19982" lon="4.49803">
        <ele>870.6</ele>
        <time>2025-09-07T14:38:10Z</time>
      </trkpt>
      <trkpt lat="46.19982" lon="4.49801">
        <ele>870.8</ele>
        <time>2025-09-07T14:38:11Z</time>
      </trkpt>
      <trkpt lat="46.19981" lon="4.498">
        <ele>870.8</ele>
        <time>2025-09-07T14:38:12Z</time>
      </trkpt>
      <trkpt lat="46.1998" lon="4.49799">
        <ele>870.8</ele>
        <time>2025-09-07T14:38:13Z</time>
      </trkpt>
      <trkpt lat="46.19979" lon="4.49798">
        <ele>871.2</ele>
        <time>2025-09-07T14:38:14Z</time>
      </trkpt>
      <trkpt lat="46.19979" lon="4.49797">
        <ele>871.2</ele>
        <time>2025-09-07T14:38:15Z</time>
      </trkpt>
      <trkpt lat="46.19977" lon="4.49794">
        <ele>871.6</ele>
        <time>2025-09-07T14:38:16Z</time>
      </trkpt>
      <trkpt lat="46.19976" lon="4.49793">
        <ele>871.6</ele>
        <time>2025-09-07T14:38:17Z</time>
      </trkpt>
      <trkpt lat="46.19975" lon="4.49792">
        <ele>871.6</ele>
        <time>2025-09-07T14:38:18Z</time>
      </trkpt>
      <trkpt lat="46.19974" lon="4.4979">
        <ele>871.8</ele>
        <time>2025-09-07T14:38:19Z</time>
      </trkpt>
      <trkpt lat="46.19974" lon="4.49788">
        <ele>871.8</ele>
        <time>2025-09-07T14:38:20Z</time>
      </trkpt>
      <trkpt lat="46.19973" lon="4.49787">
        <ele>872</ele>
        <time>2025-09-07T14:38:21Z</time>
      </trkpt>
      <trkpt lat="46.19973" lon="4.49786">
        <ele>872</ele>
        <time>2025-09-07T14:38:22Z</time>
      </trkpt>
      <trkpt lat="46.19972" lon="4.49784">
        <ele>872.4</ele>
        <time>2025-09-07T14:38:23Z</time>
      </trkpt>
      <trkpt lat="46.19971" lon="4.49783">
        <ele>872.4</ele>
        <time>2025-09-07T14:38:24Z</time>
      </trkpt>
      <trkpt lat="46.1997" lon="4.49782">
        <ele>872.4</ele>
        <time>2025-09-07T14:38:25Z</time>
      </trkpt>
      <trkpt lat="46.19969" lon="4.49781">
        <ele>872.4</ele>
        <time>2025-09-07T14:38:26Z</time>
      </trkpt>
      <trkpt lat="46.19968" lon="4.4978">
        <ele>872.4</ele>
        <time>2025-09-07T14:38:27Z</time>
      </trkpt>
      <trkpt lat="46.19967" lon="4.49779">
        <ele>872.6</ele>
        <time>2025-09-07T14:38:28Z</time>
      </trkpt>
      <trkpt lat="46.19966" lon="4.49778">
        <ele>872.8</ele>
        <time>2025-09-07T14:38:29Z</time>
      </trkpt>
      <trkpt lat="46.19965" lon="4.49777">
        <ele>872.8</ele>
        <time>2025-09-07T14:38:30Z</time>
      </trkpt>
      <trkpt lat="46.19963" lon="4.49776">
        <ele>873.2</ele>
        <time>2025-09-07T14:38:31Z</time>
      </trkpt>
      <trkpt lat="46.19962" lon="4.49774">
        <ele>873.2</ele>
        <time>2025-09-07T14:38:32Z</time>
      </trkpt>
      <trkpt lat="46.19962" lon="4.49773">
        <ele>873.2</ele>
        <time>2025-09-07T14:38:33Z</time>
      </trkpt>
      <trkpt lat="46.19961" lon="4.49772">
        <ele>873.4</ele>
        <time>2025-09-07T14:38:34Z</time>
      </trkpt>
      <trkpt lat="46.1996" lon="4.4977">
        <ele>873.4</ele>
        <time>2025-09-07T14:38:35Z</time>
      </trkpt>
      <trkpt lat="46.19959" lon="4.49769">
        <ele>873.4</ele>
        <time>2025-09-07T14:38:36Z</time>
      </trkpt>
      <trkpt lat="46.19957" lon="4.49768">
        <ele>873.4</ele>
        <time>2025-09-07T14:38:37Z</time>
      </trkpt>
      <trkpt lat="46.19956" lon="4.49767">
        <ele>874</ele>
        <time>2025-09-07T14:38:38Z</time>
      </trkpt>
      <trkpt lat="46.19955" lon="4.49765">
        <ele>874</ele>
        <time>2025-09-07T14:38:39Z</time>
      </trkpt>
      <trkpt lat="46.19954" lon="4.49764">
        <ele>874</ele>
        <time>2025-09-07T14:38:40Z</time>
      </trkpt>
      <trkpt lat="46.19953" lon="4.49763">
        <ele>874</ele>
        <time>2025-09-07T14:38:41Z</time>
      </trkpt>
      <trkpt lat="46.19952" lon="4.49761">
        <ele>874.2</ele>
        <time>2025-09-07T14:38:42Z</time>
      </trkpt>
      <trkpt lat="46.19951" lon="4.4976">
        <ele>874.6</ele>
        <time>2025-09-07T14:38:43Z</time>
      </trkpt>
      <trkpt lat="46.1995" lon="4.49758">
        <ele>874.8</ele>
        <time>2025-09-07T14:38:44Z</time>
      </trkpt>
      <trkpt lat="46.19949" lon="4.49757">
        <ele>874.8</ele>
        <time>2025-09-07T14:38:45Z</time>
      </trkpt>
      <trkpt lat="46.19947" lon="4.49755">
        <ele>875</ele>
        <time>2025-09-07T14:38:46Z</time>
      </trkpt>
      <trkpt lat="46.19946" lon="4.49754">
        <ele>875</ele>
        <time>2025-09-07T14:38:47Z</time>
      </trkpt>
      <trkpt lat="46.19945" lon="4.49752">
        <ele>875.2</ele>
        <time>2025-09-07T14:38:48Z</time>
      </trkpt>
      <trkpt lat="46.19945" lon="4.4975">
        <ele>875.2</ele>
        <time>2025-09-07T14:38:49Z</time>
      </trkpt>
      <trkpt lat="46.19944" lon="4.49749">
        <ele>875.6</ele>
        <time>2025-09-07T14:38:50Z</time>
      </trkpt>
      <trkpt lat="46.19942" lon="4.49747">
        <ele>875.6</ele>
        <time>2025-09-07T14:38:51Z</time>
      </trkpt>
      <trkpt lat="46.19941" lon="4.49746">
        <ele>875.6</ele>
        <time>2025-09-07T14:38:52Z</time>
      </trkpt>
      <trkpt lat="46.1994" lon="4.49745">
        <ele>875.8</ele>
        <time>2025-09-07T14:38:53Z</time>
      </trkpt>
      <trkpt lat="46.19939" lon="4.49744">
        <ele>875.8</ele>
        <time>2025-09-07T14:38:54Z</time>
      </trkpt>
      <trkpt lat="46.19937" lon="4.49742">
        <ele>875.8</ele>
        <time>2025-09-07T14:38:55Z</time>
      </trkpt>
      <trkpt lat="46.19935" lon="4.49741">
        <ele>875.8</ele>
        <time>2025-09-07T14:38:56Z</time>
      </trkpt>
      <trkpt lat="46.19934" lon="4.49739">
        <ele>876</ele>
        <time>2025-09-07T14:38:57Z</time>
      </trkpt>
      <trkpt lat="46.19933" lon="4.49738">
        <ele>876.2</ele>
        <time>2025-09-07T14:38:58Z</time>
      </trkpt>
      <trkpt lat="46.19933" lon="4.49736">
        <ele>876.2</ele>
        <time>2025-09-07T14:38:59Z</time>
      </trkpt>
      <trkpt lat="46.19932" lon="4.49735">
        <ele>876.2</ele>
        <time>2025-09-07T14:39:00Z</time>
      </trkpt>
      <trkpt lat="46.19932" lon="4.49733">
        <ele>876.6</ele>
        <time>2025-09-07T14:39:01Z</time>
      </trkpt>
      <trkpt lat="46.19931" lon="4.49732">
        <ele>876.6</ele>
        <time>2025-09-07T14:39:02Z</time>
      </trkpt>
      <trkpt lat="46.1993" lon="4.49731">
        <ele>876.6</ele>
        <time>2025-09-07T14:39:03Z</time>
      </trkpt>
      <trkpt lat="46.1993" lon="4.49731">
        <ele>876.8</ele>
        <time>2025-09-07T14:39:04Z</time>
      </trkpt>
      <trkpt lat="46.19929" lon="4.49729">
        <ele>876.8</ele>
        <time>2025-09-07T14:39:05Z</time>
      </trkpt>
      <trkpt lat="46.19928" lon="4.49728">
        <ele>877</ele>
        <time>2025-09-07T14:39:06Z</time>
      </trkpt>
      <trkpt lat="46.19927" lon="4.49726">
        <ele>877</ele>
        <time>2025-09-07T14:39:07Z</time>
      </trkpt>
      <trkpt lat="46.19925" lon="4.49725">
        <ele>877</ele>
        <time>2025-09-07T14:39:08Z</time>
      </trkpt>
      <trkpt lat="46.19924" lon="4.49724">
        <ele>877</ele>
        <time>2025-09-07T14:39:09Z</time>
      </trkpt>
      <trkpt lat="46.19924" lon="4.49724">
        <ele>877.4</ele>
        <time>2025-09-07T14:39:10Z</time>
      </trkpt>
      <trkpt lat="46.19923" lon="4.49722">
        <ele>877.4</ele>
        <time>2025-09-07T14:39:11Z</time>
      </trkpt>
      <trkpt lat="46.19922" lon="4.4972">
        <ele>877.6</ele>
        <time>2025-09-07T14:39:12Z</time>
      </trkpt>
      <trkpt lat="46.19922" lon="4.49718">
        <ele>877.6</ele>
        <time>2025-09-07T14:39:13Z</time>
      </trkpt>
      <trkpt lat="46.19922" lon="4.49716">
        <ele>877.8</ele>
        <time>2025-09-07T14:39:14Z</time>
      </trkpt>
      <trkpt lat="46.19921" lon="4.49714">
        <ele>877.8</ele>
        <time>2025-09-07T14:39:15Z</time>
      </trkpt>
      <trkpt lat="46.19921" lon="4.49712">
        <ele>878</ele>
        <time>2025-09-07T14:39:16Z</time>
      </trkpt>
      <trkpt lat="46.1992" lon="4.49711">
        <ele>878.4</ele>
        <time>2025-09-07T14:39:17Z</time>
      </trkpt>
      <trkpt lat="46.1992" lon="4.49709">
        <ele>878.4</ele>
        <time>2025-09-07T14:39:18Z</time>
      </trkpt>
      <trkpt lat="46.19919" lon="4.49708">
        <ele>878.6</ele>
        <time>2025-09-07T14:39:19Z</time>
      </trkpt>
      <trkpt lat="46.19919" lon="4.49706">
        <ele>878.6</ele>
        <time>2025-09-07T14:39:20Z</time>
      </trkpt>
      <trkpt lat="46.19918" lon="4.49704">
        <ele>878.6</ele>
        <time>2025-09-07T14:39:21Z</time>
      </trkpt>
      <trkpt lat="46.19918" lon="4.49703">
        <ele>879</ele>
        <time>2025-09-07T14:39:22Z</time>
      </trkpt>
      <trkpt lat="46.19917" lon="4.49701">
        <ele>879</ele>
        <time>2025-09-07T14:39:23Z</time>
      </trkpt>
      <trkpt lat="46.19916" lon="4.49699">
        <ele>879</ele>
        <time>2025-09-07T14:39:24Z</time>
      </trkpt>
      <trkpt lat="46.19916" lon="4.49698">
        <ele>879.2</ele>
        <time>2025-09-07T14:39:25Z</time>
      </trkpt>
      <trkpt lat="46.19915" lon="4.49697">
        <ele>879.2</ele>
        <time>2025-09-07T14:39:26Z</time>
      </trkpt>
      <trkpt lat="46.19914" lon="4.49696">
        <ele>879.2</ele>
        <time>2025-09-07T14:39:27Z</time>
      </trkpt>
      <trkpt lat="46.19912" lon="4.49695">
        <ele>879.4</ele>
        <time>2025-09-07T14:39:28Z</time>
      </trkpt>
      <trkpt lat="46.19911" lon="4.49694">
        <ele>879.4</ele>
        <time>2025-09-07T14:39:29Z</time>
      </trkpt>
      <trkpt lat="46.19911" lon="4.49692">
        <ele>879.6</ele>
        <time>2025-09-07T14:39:30Z</time>
      </trkpt>
      <trkpt lat="46.1991" lon="4.4969">
        <ele>879.6</ele>
        <time>2025-09-07T14:39:31Z</time>
      </trkpt>
      <trkpt lat="46.19909" lon="4.49688">
        <ele>880</ele>
        <time>2025-09-07T14:39:32Z</time>
      </trkpt>
      <trkpt lat="46.19909" lon="4.49687">
        <ele>880</ele>
        <time>2025-09-07T14:39:33Z</time>
      </trkpt>
      <trkpt lat="46.19908" lon="4.49686">
        <ele>880</ele>
        <time>2025-09-07T14:39:34Z</time>
      </trkpt>
      <trkpt lat="46.19906" lon="4.49685">
        <ele>880</ele>
        <time>2025-09-07T14:39:35Z</time>
      </trkpt>
      <trkpt lat="46.19906" lon="4.49683">
        <ele>880</ele>
        <time>2025-09-07T14:39:36Z</time>
      </trkpt>
      <trkpt lat="46.19905" lon="4.49682">
        <ele>880.4</ele>
        <time>2025-09-07T14:39:37Z</time>
      </trkpt>
      <trkpt lat="46.19904" lon="4.4968">
        <ele>880.4</ele>
        <time>2025-09-07T14:39:38Z</time>
      </trkpt>
      <trkpt lat="46.19903" lon="4.49679">
        <ele>880.8</ele>
        <time>2025-09-07T14:39:39Z</time>
      </trkpt>
      <trkpt lat="46.19902" lon="4.49677">
        <ele>881</ele>
        <time>2025-09-07T14:39:40Z</time>
      </trkpt>
      <trkpt lat="46.19902" lon="4.49675">
        <ele>881</ele>
        <time>2025-09-07T14:39:41Z</time>
      </trkpt>
      <trkpt lat="46.19901" lon="4.49673">
        <ele>881.2</ele>
        <time>2025-09-07T14:39:42Z</time>
      </trkpt>
      <trkpt lat="46.199" lon="4.49671">
        <ele>881.2</ele>
        <time>2025-09-07T14:39:43Z</time>
      </trkpt>
      <trkpt lat="46.19899" lon="4.4967">
        <ele>881.4</ele>
        <time>2025-09-07T14:39:44Z</time>
      </trkpt>
      <trkpt lat="46.19898" lon="4.49669">
        <ele>881.4</ele>
        <time>2025-09-07T14:39:45Z</time>
      </trkpt>
      <trkpt lat="46.19897" lon="4.49667">
        <ele>881.6</ele>
        <time>2025-09-07T14:39:46Z</time>
      </trkpt>
      <trkpt lat="46.19896" lon="4.49666">
        <ele>881.6</ele>
        <time>2025-09-07T14:39:47Z</time>
      </trkpt>
      <trkpt lat="46.19896" lon="4.49665">
        <ele>882</ele>
        <time>2025-09-07T14:39:48Z</time>
      </trkpt>
      <trkpt lat="46.19895" lon="4.49664">
        <ele>882</ele>
        <time>2025-09-07T14:39:49Z</time>
      </trkpt>
      <trkpt lat="46.19894" lon="4.49662">
        <ele>882.2</ele>
        <time>2025-09-07T14:39:50Z</time>
      </trkpt>
      <trkpt lat="46.19893" lon="4.4966">
        <ele>882.6</ele>
        <time>2025-09-07T14:39:51Z</time>
      </trkpt>
      <trkpt lat="46.19892" lon="4.49658">
        <ele>882.6</ele>
        <time>2025-09-07T14:39:52Z</time>
      </trkpt>
      <trkpt lat="46.19891" lon="4.49656">
        <ele>882.6</ele>
        <time>2025-09-07T14:39:53Z</time>
      </trkpt>
      <trkpt lat="46.19891" lon="4.49655">
        <ele>882.6</ele>
        <time>2025-09-07T14:39:54Z</time>
      </trkpt>
      <trkpt lat="46.1989" lon="4.49653">
        <ele>882.8</ele>
        <time>2025-09-07T14:39:55Z</time>
      </trkpt>
      <trkpt lat="46.19889" lon="4.49651">
        <ele>882.8</ele>
        <time>2025-09-07T14:39:56Z</time>
      </trkpt>
      <trkpt lat="46.19889" lon="4.4965">
        <ele>883.2</ele>
        <time>2025-09-07T14:39:57Z</time>
      </trkpt>
      <trkpt lat="46.19889" lon="4.49648">
        <ele>883.2</ele>
        <time>2025-09-07T14:39:58Z</time>
      </trkpt>
      <trkpt lat="46.19888" lon="4.49646">
        <ele>883.2</ele>
        <time>2025-09-07T14:39:59Z</time>
      </trkpt>
      <trkpt lat="46.19888" lon="4.49644">
        <ele>883.2</ele>
        <time>2025-09-07T14:40:00Z</time>
      </trkpt>
      <trkpt lat="46.19887" lon="4.49643">
        <ele>883.4</ele>
        <time>2025-09-07T14:40:01Z</time>
      </trkpt>
      <trkpt lat="46.19887" lon="4.49641">
        <ele>883.4</ele>
        <time>2025-09-07T14:40:02Z</time>
      </trkpt>
      <trkpt lat="46.19886" lon="4.4964">
        <ele>883.6</ele>
        <time>2025-09-07T14:40:03Z</time>
      </trkpt>
      <trkpt lat="46.19885" lon="4.49639">
        <ele>883.6</ele>
        <time>2025-09-07T14:40:04Z</time>
      </trkpt>
      <trkpt lat="46.19884" lon="4.49637">
        <ele>883.8</ele>
        <time>2025-09-07T14:40:05Z</time>
      </trkpt>
      <trkpt lat="46.19883" lon="4.49635">
        <ele>883.8</ele>
        <time>2025-09-07T14:40:06Z</time>
      </trkpt>
      <trkpt lat="46.19882" lon="4.49634">
        <ele>883.8</ele>
        <time>2025-09-07T14:40:07Z</time>
      </trkpt>
      <trkpt lat="46.19882" lon="4.49632">
        <ele>883.8</ele>
        <time>2025-09-07T14:40:08Z</time>
      </trkpt>
      <trkpt lat="46.19881" lon="4.49631">
        <ele>884.2</ele>
        <time>2025-09-07T14:40:09Z</time>
      </trkpt>
      <trkpt lat="46.19881" lon="4.49629">
        <ele>884.2</ele>
        <time>2025-09-07T14:40:10Z</time>
      </trkpt>
      <trkpt lat="46.1988" lon="4.49628">
        <ele>884.4</ele>
        <time>2025-09-07T14:40:11Z</time>
      </trkpt>
      <trkpt lat="46.1988" lon="4.49627">
        <ele>884.4</ele>
        <time>2025-09-07T14:40:12Z</time>
      </trkpt>
      <trkpt lat="46.19879" lon="4.49625">
        <ele>884.4</ele>
        <time>2025-09-07T14:40:13Z</time>
      </trkpt>
      <trkpt lat="46.19879" lon="4.49623">
        <ele>884.6</ele>
        <time>2025-09-07T14:40:14Z</time>
      </trkpt>
      <trkpt lat="46.19878" lon="4.49622">
        <ele>884.6</ele>
        <time>2025-09-07T14:40:15Z</time>
      </trkpt>
      <trkpt lat="46.19878" lon="4.4962">
        <ele>885</ele>
        <time>2025-09-07T14:40:16Z</time>
      </trkpt>
      <trkpt lat="46.19877" lon="4.49619">
        <ele>885</ele>
        <time>2025-09-07T14:40:17Z</time>
      </trkpt>
      <trkpt lat="46.19876" lon="4.49617">
        <ele>885</ele>
        <time>2025-09-07T14:40:18Z</time>
      </trkpt>
      <trkpt lat="46.19875" lon="4.49616">
        <ele>885.2</ele>
        <time>2025-09-07T14:40:19Z</time>
      </trkpt>
      <trkpt lat="46.19874" lon="4.49615">
        <ele>885.2</ele>
        <time>2025-09-07T14:40:20Z</time>
      </trkpt>
      <trkpt lat="46.19874" lon="4.49613">
        <ele>885.4</ele>
        <time>2025-09-07T14:40:21Z</time>
      </trkpt>
      <trkpt lat="46.19873" lon="4.49611">
        <ele>885.4</ele>
        <time>2025-09-07T14:40:22Z</time>
      </trkpt>
      <trkpt lat="46.19873" lon="4.49609">
        <ele>885.4</ele>
        <time>2025-09-07T14:40:23Z</time>
      </trkpt>
      <trkpt lat="46.19872" lon="4.49608">
        <ele>885.6</ele>
        <time>2025-09-07T14:40:24Z</time>
      </trkpt>
      <trkpt lat="46.19871" lon="4.49607">
        <ele>885.6</ele>
        <time>2025-09-07T14:40:25Z</time>
      </trkpt>
      <trkpt lat="46.1987" lon="4.49605">
        <ele>886.2</ele>
        <time>2025-09-07T14:40:26Z</time>
      </trkpt>
      <trkpt lat="46.1987" lon="4.49604">
        <ele>886.2</ele>
        <time>2025-09-07T14:40:27Z</time>
      </trkpt>
      <trkpt lat="46.19869" lon="4.49602">
        <ele>886.4</ele>
        <time>2025-09-07T14:40:28Z</time>
      </trkpt>
      <trkpt lat="46.19868" lon="4.49601">
        <ele>886.4</ele>
        <time>2025-09-07T14:40:29Z</time>
      </trkpt>
      <trkpt lat="46.19867" lon="4.496">
        <ele>886.4</ele>
        <time>2025-09-07T14:40:30Z</time>
      </trkpt>
      <trkpt lat="46.19867" lon="4.49599">
        <ele>886.6</ele>
        <time>2025-09-07T14:40:31Z</time>
      </trkpt>
      <trkpt lat="46.19866" lon="4.49597">
        <ele>886.6</ele>
        <time>2025-09-07T14:40:32Z</time>
      </trkpt>
      <trkpt lat="46.19865" lon="4.49596">
        <ele>886.6</ele>
        <time>2025-09-07T14:40:33Z</time>
      </trkpt>
      <trkpt lat="46.19864" lon="4.49595">
        <ele>886.6</ele>
        <time>2025-09-07T14:40:34Z</time>
      </trkpt>
      <trkpt lat="46.19863" lon="4.49594">
        <ele>886.6</ele>
        <time>2025-09-07T14:40:35Z</time>
      </trkpt>
      <trkpt lat="46.19863" lon="4.49593">
        <ele>887</ele>
        <time>2025-09-07T14:40:36Z</time>
      </trkpt>
      <trkpt lat="46.19862" lon="4.49591">
        <ele>887</ele>
        <time>2025-09-07T14:40:37Z</time>
      </trkpt>
      <trkpt lat="46.19861" lon="4.4959">
        <ele>887.2</ele>
        <time>2025-09-07T14:40:38Z</time>
      </trkpt>
      <trkpt lat="46.1986" lon="4.49589">
        <ele>887.2</ele>
        <time>2025-09-07T14:40:39Z</time>
      </trkpt>
      <trkpt lat="46.19859" lon="4.49587">
        <ele>887.4</ele>
        <time>2025-09-07T14:40:40Z</time>
      </trkpt>
      <trkpt lat="46.19858" lon="4.49586">
        <ele>887.4</ele>
        <time>2025-09-07T14:40:41Z</time>
      </trkpt>
      <trkpt lat="46.19858" lon="4.49585">
        <ele>887.4</ele>
        <time>2025-09-07T14:40:42Z</time>
      </trkpt>
      <trkpt lat="46.19857" lon="4.49583">
        <ele>887.4</ele>
        <time>2025-09-07T14:40:43Z</time>
      </trkpt>
      <trkpt lat="46.19856" lon="4.49582">
        <ele>887.4</ele>
        <time>2025-09-07T14:40:44Z</time>
      </trkpt>
      <trkpt lat="46.19855" lon="4.4958">
        <ele>887.4</ele>
        <time>2025-09-07T14:40:45Z</time>
      </trkpt>
      <trkpt lat="46.19855" lon="4.49579">
        <ele>887.8</ele>
        <time>2025-09-07T14:40:46Z</time>
      </trkpt>
      <trkpt lat="46.19854" lon="4.49577">
        <ele>887.8</ele>
        <time>2025-09-07T14:40:47Z</time>
      </trkpt>
      <trkpt lat="46.19853" lon="4.49576">
        <ele>888</ele>
        <time>2025-09-07T14:40:48Z</time>
      </trkpt>
      <trkpt lat="46.19852" lon="4.49574">
        <ele>888</ele>
        <time>2025-09-07T14:40:49Z</time>
      </trkpt>
      <trkpt lat="46.19851" lon="4.49573">
        <ele>888.2</ele>
        <time>2025-09-07T14:40:50Z</time>
      </trkpt>
      <trkpt lat="46.1985" lon="4.49571">
        <ele>888.2</ele>
        <time>2025-09-07T14:40:51Z</time>
      </trkpt>
      <trkpt lat="46.19849" lon="4.4957">
        <ele>888.2</ele>
        <time>2025-09-07T14:40:52Z</time>
      </trkpt>
      <trkpt lat="46.19848" lon="4.49568">
        <ele>888.2</ele>
        <time>2025-09-07T14:40:53Z</time>
      </trkpt>
      <trkpt lat="46.19847" lon="4.49567">
        <ele>888.6</ele>
        <time>2025-09-07T14:40:54Z</time>
      </trkpt>
      <trkpt lat="46.19846" lon="4.49565">
        <ele>888.6</ele>
        <time>2025-09-07T14:40:55Z</time>
      </trkpt>
      <trkpt lat="46.19844" lon="4.49564">
        <ele>888.8</ele>
        <time>2025-09-07T14:40:56Z</time>
      </trkpt>
      <trkpt lat="46.19843" lon="4.49563">
        <ele>888.8</ele>
        <time>2025-09-07T14:40:57Z</time>
      </trkpt>
      <trkpt lat="46.19843" lon="4.49562">
        <ele>888.8</ele>
        <time>2025-09-07T14:40:58Z</time>
      </trkpt>
      <trkpt lat="46.19842" lon="4.4956">
        <ele>889</ele>
        <time>2025-09-07T14:40:59Z</time>
      </trkpt>
      <trkpt lat="46.19841" lon="4.49559">
        <ele>889</ele>
        <time>2025-09-07T14:41:00Z</time>
      </trkpt>
      <trkpt lat="46.1984" lon="4.49558">
        <ele>889</ele>
        <time>2025-09-07T14:41:01Z</time>
      </trkpt>
      <trkpt lat="46.1984" lon="4.49558">
        <ele>889</ele>
        <time>2025-09-07T14:41:02Z</time>
      </trkpt>
      <trkpt lat="46.1984" lon="4.49558">
        <ele>889.2</ele>
        <time>2025-09-07T14:41:03Z</time>
      </trkpt>
      <trkpt lat="46.1984" lon="4.49558">
        <ele>889</ele>
        <time>2025-09-07T14:41:19Z</time>
      </trkpt>
      <trkpt lat="46.19839" lon="4.49559">
        <ele>889</ele>
        <time>2025-09-07T14:41:20Z</time>
      </trkpt>
      <trkpt lat="46.19839" lon="4.49559">
        <ele>889</ele>
        <time>2025-09-07T14:41:21Z</time>
      </trkpt>
      <trkpt lat="46.19839" lon="4.49559">
        <ele>889</ele>
        <time>2025-09-07T14:41:22Z</time>
      </trkpt>
      <trkpt lat="46.19837" lon="4.49554">
        <ele>889.8</ele>
        <time>2025-09-07T14:43:47Z</time>
      </trkpt>
      <trkpt lat="46.19836" lon="4.49553">
        <ele>889.8</ele>
        <time>2025-09-07T14:43:48Z</time>
      </trkpt>
      <trkpt lat="46.19836" lon="4.49552">
        <ele>889.8</ele>
        <time>2025-09-07T14:43:49Z</time>
      </trkpt>
      <trkpt lat="46.19836" lon="4.49552">
        <ele>889.8</ele>
        <time>2025-09-07T14:43:50Z</time>
      </trkpt>
      <trkpt lat="46.19836" lon="4.49552">
        <ele>889.8</ele>
        <time>2025-09-07T14:43:51Z</time>
      </trkpt>
      <trkpt lat="46.19836" lon="4.49552">
        <ele>889.6</ele>
        <time>2025-09-07T14:43:57Z</time>
      </trkpt>
      <trkpt lat="46.19835" lon="4.49552">
        <ele>889.6</ele>
        <time>2025-09-07T14:43:58Z</time>
      </trkpt>
      <trkpt lat="46.19834" lon="4.4955">
        <ele>889.6</ele>
        <time>2025-09-07T14:43:59Z</time>
      </trkpt>
      <trkpt lat="46.19833" lon="4.49548">
        <ele>889.6</ele>
        <time>2025-09-07T14:44:00Z</time>
      </trkpt>
      <trkpt lat="46.19831" lon="4.49546">
        <ele>889.6</ele>
        <time>2025-09-07T14:44:01Z</time>
      </trkpt>
      <trkpt lat="46.1983" lon="4.49543">
        <ele>889.6</ele>
        <time>2025-09-07T14:44:02Z</time>
      </trkpt>
      <trkpt lat="46.19829" lon="4.4954">
        <ele>889.6</ele>
        <time>2025-09-07T14:44:03Z</time>
      </trkpt>
      <trkpt lat="46.19828" lon="4.49538">
        <ele>889.6</ele>
        <time>2025-09-07T14:44:04Z</time>
      </trkpt>
      <trkpt lat="46.19826" lon="4.49536">
        <ele>889.6</ele>
        <time>2025-09-07T14:44:05Z</time>
      </trkpt>
      <trkpt lat="46.19825" lon="4.49533">
        <ele>889.6</ele>
        <time>2025-09-07T14:44:06Z</time>
      </trkpt>
      <trkpt lat="46.19823" lon="4.4953">
        <ele>889.6</ele>
        <time>2025-09-07T14:44:07Z</time>
      </trkpt>
      <trkpt lat="46.19821" lon="4.49527">
        <ele>889.6</ele>
        <time>2025-09-07T14:44:08Z</time>
      </trkpt>
      <trkpt lat="46.19819" lon="4.49524">
        <ele>889.6</ele>
        <time>2025-09-07T14:44:09Z</time>
      </trkpt>
      <trkpt lat="46.19817" lon="4.49521">
        <ele>889.6</ele>
        <time>2025-09-07T14:44:10Z</time>
      </trkpt>
      <trkpt lat="46.19815" lon="4.49518">
        <ele>889.6</ele>
        <time>2025-09-07T14:44:11Z</time>
      </trkpt>
      <trkpt lat="46.1981" lon="4.4951">
        <ele>889.6</ele>
        <time>2025-09-07T14:44:12Z</time>
      </trkpt>
      <trkpt lat="46.19808" lon="4.49506">
        <ele>889.6</ele>
        <time>2025-09-07T14:44:13Z</time>
      </trkpt>
      <trkpt lat="46.19806" lon="4.49502">
        <ele>889.2</ele>
        <time>2025-09-07T14:44:14Z</time>
      </trkpt>
      <trkpt lat="46.19803" lon="4.49499">
        <ele>889.2</ele>
        <time>2025-09-07T14:44:15Z</time>
      </trkpt>
      <trkpt lat="46.19801" lon="4.49495">
        <ele>889.2</ele>
        <time>2025-09-07T14:44:16Z</time>
      </trkpt>
      <trkpt lat="46.19796" lon="4.4949">
        <ele>889.2</ele>
        <time>2025-09-07T14:44:17Z</time>
      </trkpt>
      <trkpt lat="46.19794" lon="4.49485">
        <ele>889</ele>
        <time>2025-09-07T14:44:18Z</time>
      </trkpt>
      <trkpt lat="46.1979" lon="4.49481">
        <ele>889</ele>
        <time>2025-09-07T14:44:19Z</time>
      </trkpt>
      <trkpt lat="46.19787" lon="4.49474">
        <ele>888.6</ele>
        <time>2025-09-07T14:44:20Z</time>
      </trkpt>
      <trkpt lat="46.19785" lon="4.49469">
        <ele>888.6</ele>
        <time>2025-09-07T14:44:21Z</time>
      </trkpt>
      <trkpt lat="46.19782" lon="4.49464">
        <ele>888</ele>
        <time>2025-09-07T14:44:22Z</time>
      </trkpt>
      <trkpt lat="46.19778" lon="4.49459">
        <ele>888</ele>
        <time>2025-09-07T14:44:23Z</time>
      </trkpt>
      <trkpt lat="46.19774" lon="4.49454">
        <ele>887.6</ele>
        <time>2025-09-07T14:44:24Z</time>
      </trkpt>
      <trkpt lat="46.19772" lon="4.49448">
        <ele>887</ele>
        <time>2025-09-07T14:44:25Z</time>
      </trkpt>
      <trkpt lat="46.19769" lon="4.49442">
        <ele>886.8</ele>
        <time>2025-09-07T14:44:26Z</time>
      </trkpt>
      <trkpt lat="46.19768" lon="4.49437">
        <ele>886.8</ele>
        <time>2025-09-07T14:44:27Z</time>
      </trkpt>
      <trkpt lat="46.19761" lon="4.49431">
        <ele>886.6</ele>
        <time>2025-09-07T14:44:28Z</time>
      </trkpt>
      <trkpt lat="46.19758" lon="4.49425">
        <ele>886.6</ele>
        <time>2025-09-07T14:44:29Z</time>
      </trkpt>
      <trkpt lat="46.19755" lon="4.49423">
        <ele>886.4</ele>
        <time>2025-09-07T14:44:30Z</time>
      </trkpt>
      <trkpt lat="46.19753" lon="4.49417">
        <ele>886.4</ele>
        <time>2025-09-07T14:44:31Z</time>
      </trkpt>
      <trkpt lat="46.19752" lon="4.49413">
        <ele>886.4</ele>
        <time>2025-09-07T14:44:32Z</time>
      </trkpt>
      <trkpt lat="46.19749" lon="4.4941">
        <ele>886.4</ele>
        <time>2025-09-07T14:44:33Z</time>
      </trkpt>
      <trkpt lat="46.19748" lon="4.49407">
        <ele>886.4</ele>
        <time>2025-09-07T14:44:34Z</time>
      </trkpt>
      <trkpt lat="46.19748" lon="4.49399">
        <ele>886.4</ele>
        <time>2025-09-07T14:44:35Z</time>
      </trkpt>
      <trkpt lat="46.19743" lon="4.49392">
        <ele>886.6</ele>
        <time>2025-09-07T14:44:36Z</time>
      </trkpt>
      <trkpt lat="46.19741" lon="4.49387">
        <ele>886.6</ele>
        <time>2025-09-07T14:44:37Z</time>
      </trkpt>
      <trkpt lat="46.19737" lon="4.49381">
        <ele>886.6</ele>
        <time>2025-09-07T14:44:38Z</time>
      </trkpt>
      <trkpt lat="46.19734" lon="4.49374">
        <ele>886.6</ele>
        <time>2025-09-07T14:44:39Z</time>
      </trkpt>
      <trkpt lat="46.19732" lon="4.49365">
        <ele>886.6</ele>
        <time>2025-09-07T14:44:40Z</time>
      </trkpt>
      <trkpt lat="46.19729" lon="4.49357">
        <ele>886.6</ele>
        <time>2025-09-07T14:44:41Z</time>
      </trkpt>
      <trkpt lat="46.19727" lon="4.49352">
        <ele>887</ele>
        <time>2025-09-07T14:44:42Z</time>
      </trkpt>
      <trkpt lat="46.19726" lon="4.49346">
        <ele>887</ele>
        <time>2025-09-07T14:44:43Z</time>
      </trkpt>
      <trkpt lat="46.19722" lon="4.49337">
        <ele>887</ele>
        <time>2025-09-07T14:44:44Z</time>
      </trkpt>
      <trkpt lat="46.19719" lon="4.49331">
        <ele>887.2</ele>
        <time>2025-09-07T14:44:45Z</time>
      </trkpt>
      <trkpt lat="46.19717" lon="4.49325">
        <ele>887.6</ele>
        <time>2025-09-07T14:44:46Z</time>
      </trkpt>
      <trkpt lat="46.19715" lon="4.49319">
        <ele>887.6</ele>
        <time>2025-09-07T14:44:47Z</time>
      </trkpt>
      <trkpt lat="46.19713" lon="4.49314">
        <ele>888</ele>
        <time>2025-09-07T14:44:48Z</time>
      </trkpt>
      <trkpt lat="46.19711" lon="4.49309">
        <ele>888</ele>
        <time>2025-09-07T14:44:49Z</time>
      </trkpt>
      <trkpt lat="46.19711" lon="4.49305">
        <ele>888.2</ele>
        <time>2025-09-07T14:44:50Z</time>
      </trkpt>
      <trkpt lat="46.1971" lon="4.493">
        <ele>888.8</ele>
        <time>2025-09-07T14:44:51Z</time>
      </trkpt>
      <trkpt lat="46.19707" lon="4.49295">
        <ele>888.8</ele>
        <time>2025-09-07T14:44:52Z</time>
      </trkpt>
      <trkpt lat="46.19704" lon="4.49289">
        <ele>889</ele>
        <time>2025-09-07T14:44:53Z</time>
      </trkpt>
      <trkpt lat="46.19703" lon="4.49284">
        <ele>889</ele>
        <time>2025-09-07T14:44:54Z</time>
      </trkpt>
      <trkpt lat="46.197" lon="4.49279">
        <ele>889</ele>
        <time>2025-09-07T14:44:55Z</time>
      </trkpt>
      <trkpt lat="46.19698" lon="4.49273">
        <ele>889.6</ele>
        <time>2025-09-07T14:44:56Z</time>
      </trkpt>
      <trkpt lat="46.19696" lon="4.49269">
        <ele>889.8</ele>
        <time>2025-09-07T14:44:57Z</time>
      </trkpt>
      <trkpt lat="46.19693" lon="4.49264">
        <ele>889.8</ele>
        <time>2025-09-07T14:44:58Z</time>
      </trkpt>
      <trkpt lat="46.19691" lon="4.4926">
        <ele>889.8</ele>
        <time>2025-09-07T14:44:59Z</time>
      </trkpt>
      <trkpt lat="46.1969" lon="4.49255">
        <ele>889.8</ele>
        <time>2025-09-07T14:45:00Z</time>
      </trkpt>
      <trkpt lat="46.19687" lon="4.49249">
        <ele>889.8</ele>
        <time>2025-09-07T14:45:01Z</time>
      </trkpt>
      <trkpt lat="46.19684" lon="4.49243">
        <ele>890</ele>
        <time>2025-09-07T14:45:02Z</time>
      </trkpt>
      <trkpt lat="46.19681" lon="4.49237">
        <ele>890</ele>
        <time>2025-09-07T14:45:03Z</time>
      </trkpt>
      <trkpt lat="46.19677" lon="4.49232">
        <ele>890</ele>
        <time>2025-09-07T14:45:04Z</time>
      </trkpt>
      <trkpt lat="46.19677" lon="4.49232">
        <ele>890</ele>
        <time>2025-09-07T14:45:05Z</time>
      </trkpt>
      <trkpt lat="46.19675" lon="4.49225">
        <ele>890</ele>
        <time>2025-09-07T14:45:06Z</time>
      </trkpt>
      <trkpt lat="46.19674" lon="4.4922">
        <ele>890</ele>
        <time>2025-09-07T14:45:07Z</time>
      </trkpt>
      <trkpt lat="46.19673" lon="4.49216">
        <ele>889.8</ele>
        <time>2025-09-07T14:45:08Z</time>
      </trkpt>
      <trkpt lat="46.19671" lon="4.49208">
        <ele>889.8</ele>
        <time>2025-09-07T14:45:09Z</time>
      </trkpt>
      <trkpt lat="46.19669" lon="4.49202">
        <ele>889</ele>
        <time>2025-09-07T14:45:10Z</time>
      </trkpt>
      <trkpt lat="46.19668" lon="4.49197">
        <ele>888.8</ele>
        <time>2025-09-07T14:45:11Z</time>
      </trkpt>
      <trkpt lat="46.19665" lon="4.4919">
        <ele>888.8</ele>
        <time>2025-09-07T14:45:12Z</time>
      </trkpt>
      <trkpt lat="46.19662" lon="4.49186">
        <ele>888.8</ele>
        <time>2025-09-07T14:45:13Z</time>
      </trkpt>
      <trkpt lat="46.19658" lon="4.49176">
        <ele>888.2</ele>
        <time>2025-09-07T14:45:14Z</time>
      </trkpt>
      <trkpt lat="46.19654" lon="4.49168">
        <ele>888</ele>
        <time>2025-09-07T14:45:15Z</time>
      </trkpt>
      <trkpt lat="46.19651" lon="4.49159">
        <ele>887.4</ele>
        <time>2025-09-07T14:45:16Z</time>
      </trkpt>
      <trkpt lat="46.19647" lon="4.49149">
        <ele>886.8</ele>
        <time>2025-09-07T14:45:17Z</time>
      </trkpt>
      <trkpt lat="46.19644" lon="4.49139">
        <ele>886</ele>
        <time>2025-09-07T14:45:18Z</time>
      </trkpt>
      <trkpt lat="46.1964" lon="4.49128">
        <ele>885.6</ele>
        <time>2025-09-07T14:45:19Z</time>
      </trkpt>
      <trkpt lat="46.19636" lon="4.49118">
        <ele>884.6</ele>
        <time>2025-09-07T14:45:20Z</time>
      </trkpt>
      <trkpt lat="46.19631" lon="4.49107">
        <ele>883.8</ele>
        <time>2025-09-07T14:45:21Z</time>
      </trkpt>
      <trkpt lat="46.19625" lon="4.49095">
        <ele>883.6</ele>
        <time>2025-09-07T14:45:22Z</time>
      </trkpt>
      <trkpt lat="46.19621" lon="4.49083">
        <ele>882.6</ele>
        <time>2025-09-07T14:45:23Z</time>
      </trkpt>
      <trkpt lat="46.19618" lon="4.4907">
        <ele>881.6</ele>
        <time>2025-09-07T14:45:24Z</time>
      </trkpt>
      <trkpt lat="46.19616" lon="4.49056">
        <ele>880.6</ele>
        <time>2025-09-07T14:45:25Z</time>
      </trkpt>
      <trkpt lat="46.19614" lon="4.49042">
        <ele>879.6</ele>
        <time>2025-09-07T14:45:26Z</time>
      </trkpt>
      <trkpt lat="46.19612" lon="4.49026">
        <ele>879</ele>
        <time>2025-09-07T14:45:27Z</time>
      </trkpt>
      <trkpt lat="46.1961" lon="4.49009">
        <ele>877.8</ele>
        <time>2025-09-07T14:45:28Z</time>
      </trkpt>
      <trkpt lat="46.19607" lon="4.48994">
        <ele>877</ele>
        <time>2025-09-07T14:45:29Z</time>
      </trkpt>
      <trkpt lat="46.19603" lon="4.48979">
        <ele>876.4</ele>
        <time>2025-09-07T14:45:30Z</time>
      </trkpt>
      <trkpt lat="46.19598" lon="4.48964">
        <ele>876.2</ele>
        <time>2025-09-07T14:45:31Z</time>
      </trkpt>
      <trkpt lat="46.19594" lon="4.4895">
        <ele>875.8</ele>
        <time>2025-09-07T14:45:32Z</time>
      </trkpt>
      <trkpt lat="46.1959" lon="4.48936">
        <ele>875.4</ele>
        <time>2025-09-07T14:45:33Z</time>
      </trkpt>
      <trkpt lat="46.19585" lon="4.48918">
        <ele>875</ele>
        <time>2025-09-07T14:45:34Z</time>
      </trkpt>
      <trkpt lat="46.19583" lon="4.4891">
        <ele>874.6</ele>
        <time>2025-09-07T14:45:35Z</time>
      </trkpt>
      <trkpt lat="46.19578" lon="4.48897">
        <ele>874.8</ele>
        <time>2025-09-07T14:45:36Z</time>
      </trkpt>
      <trkpt lat="46.19572" lon="4.48885">
        <ele>874.8</ele>
        <time>2025-09-07T14:45:37Z</time>
      </trkpt>
      <trkpt lat="46.19568" lon="4.48872">
        <ele>874.8</ele>
        <time>2025-09-07T14:45:38Z</time>
      </trkpt>
      <trkpt lat="46.19567" lon="4.48859">
        <ele>874.4</ele>
        <time>2025-09-07T14:45:39Z</time>
      </trkpt>
      <trkpt lat="46.19566" lon="4.48847">
        <ele>874.8</ele>
        <time>2025-09-07T14:45:40Z</time>
      </trkpt>
      <trkpt lat="46.19566" lon="4.48835">
        <ele>875</ele>
        <time>2025-09-07T14:45:41Z</time>
      </trkpt>
      <trkpt lat="46.19566" lon="4.48824">
        <ele>875.4</ele>
        <time>2025-09-07T14:45:42Z</time>
      </trkpt>
      <trkpt lat="46.19566" lon="4.48814">
        <ele>876</ele>
        <time>2025-09-07T14:45:43Z</time>
      </trkpt>
      <trkpt lat="46.19567" lon="4.48805">
        <ele>876.8</ele>
        <time>2025-09-07T14:45:44Z</time>
      </trkpt>
      <trkpt lat="46.19568" lon="4.48796">
        <ele>877.6</ele>
        <time>2025-09-07T14:45:45Z</time>
      </trkpt>
      <trkpt lat="46.19568" lon="4.48789">
        <ele>878.2</ele>
        <time>2025-09-07T14:45:46Z</time>
      </trkpt>
      <trkpt lat="46.19569" lon="4.48782">
        <ele>878.8</ele>
        <time>2025-09-07T14:45:47Z</time>
      </trkpt>
      <trkpt lat="46.19569" lon="4.48776">
        <ele>879.4</ele>
        <time>2025-09-07T14:45:48Z</time>
      </trkpt>
      <trkpt lat="46.19569" lon="4.48773">
        <ele>880</ele>
        <time>2025-09-07T14:45:49Z</time>
      </trkpt>
      <trkpt lat="46.19569" lon="4.48767">
        <ele>880.6</ele>
        <time>2025-09-07T14:45:50Z</time>
      </trkpt>
      <trkpt lat="46.19569" lon="4.48763">
        <ele>880.8</ele>
        <time>2025-09-07T14:45:51Z</time>
      </trkpt>
      <trkpt lat="46.1957" lon="4.48759">
        <ele>881.2</ele>
        <time>2025-09-07T14:45:52Z</time>
      </trkpt>
      <trkpt lat="46.19569" lon="4.48755">
        <ele>881.4</ele>
        <time>2025-09-07T14:45:53Z</time>
      </trkpt>
      <trkpt lat="46.19568" lon="4.48751">
        <ele>881.4</ele>
        <time>2025-09-07T14:45:54Z</time>
      </trkpt>
      <trkpt lat="46.19569" lon="4.48748">
        <ele>882</ele>
        <time>2025-09-07T14:45:55Z</time>
      </trkpt>
      <trkpt lat="46.19568" lon="4.48745">
        <ele>882</ele>
        <time>2025-09-07T14:45:56Z</time>
      </trkpt>
      <trkpt lat="46.19569" lon="4.48741">
        <ele>882.2</ele>
        <time>2025-09-07T14:45:57Z</time>
      </trkpt>
      <trkpt lat="46.19569" lon="4.48738">
        <ele>882.4</ele>
        <time>2025-09-07T14:45:58Z</time>
      </trkpt>
      <trkpt lat="46.1957" lon="4.48736">
        <ele>882.8</ele>
        <time>2025-09-07T14:45:59Z</time>
      </trkpt>
      <trkpt lat="46.19571" lon="4.48733">
        <ele>882.8</ele>
        <time>2025-09-07T14:46:00Z</time>
      </trkpt>
      <trkpt lat="46.1957" lon="4.48729">
        <ele>882.8</ele>
        <time>2025-09-07T14:46:01Z</time>
      </trkpt>
      <trkpt lat="46.1957" lon="4.48726">
        <ele>883</ele>
        <time>2025-09-07T14:46:02Z</time>
      </trkpt>
      <trkpt lat="46.19569" lon="4.48722">
        <ele>883</ele>
        <time>2025-09-07T14:46:03Z</time>
      </trkpt>
      <trkpt lat="46.19569" lon="4.48719">
        <ele>883.2</ele>
        <time>2025-09-07T14:46:04Z</time>
      </trkpt>
      <trkpt lat="46.19569" lon="4.48716">
        <ele>883.2</ele>
        <time>2025-09-07T14:46:05Z</time>
      </trkpt>
      <trkpt lat="46.19568" lon="4.48713">
        <ele>883.2</ele>
        <time>2025-09-07T14:46:06Z</time>
      </trkpt>
      <trkpt lat="46.19567" lon="4.4871">
        <ele>883.4</ele>
        <time>2025-09-07T14:46:07Z</time>
      </trkpt>
      <trkpt lat="46.19567" lon="4.48706">
        <ele>883.4</ele>
        <time>2025-09-07T14:46:08Z</time>
      </trkpt>
      <trkpt lat="46.19567" lon="4.48702">
        <ele>883.4</ele>
        <time>2025-09-07T14:46:09Z</time>
      </trkpt>
      <trkpt lat="46.19566" lon="4.48699">
        <ele>883.4</ele>
        <time>2025-09-07T14:46:10Z</time>
      </trkpt>
      <trkpt lat="46.19565" lon="4.48695">
        <ele>883.6</ele>
        <time>2025-09-07T14:46:11Z</time>
      </trkpt>
      <trkpt lat="46.19564" lon="4.48692">
        <ele>883.6</ele>
        <time>2025-09-07T14:46:12Z</time>
      </trkpt>
      <trkpt lat="46.19564" lon="4.48689">
        <ele>884</ele>
        <time>2025-09-07T14:46:13Z</time>
      </trkpt>
      <trkpt lat="46.19563" lon="4.48686">
        <ele>884</ele>
        <time>2025-09-07T14:46:14Z</time>
      </trkpt>
      <trkpt lat="46.19562" lon="4.48682">
        <ele>884.2</ele>
        <time>2025-09-07T14:46:15Z</time>
      </trkpt>
      <trkpt lat="46.19562" lon="4.48678">
        <ele>884.2</ele>
        <time>2025-09-07T14:46:16Z</time>
      </trkpt>
      <trkpt lat="46.1956" lon="4.48673">
        <ele>884.2</ele>
        <time>2025-09-07T14:46:17Z</time>
      </trkpt>
      <trkpt lat="46.19559" lon="4.48668">
        <ele>884.2</ele>
        <time>2025-09-07T14:46:18Z</time>
      </trkpt>
      <trkpt lat="46.19558" lon="4.48663">
        <ele>884.4</ele>
        <time>2025-09-07T14:46:19Z</time>
      </trkpt>
      <trkpt lat="46.19557" lon="4.48658">
        <ele>884.4</ele>
        <time>2025-09-07T14:46:20Z</time>
      </trkpt>
      <trkpt lat="46.19556" lon="4.48653">
        <ele>884.4</ele>
        <time>2025-09-07T14:46:21Z</time>
      </trkpt>
      <trkpt lat="46.19556" lon="4.48649">
        <ele>884.4</ele>
        <time>2025-09-07T14:46:22Z</time>
      </trkpt>
      <trkpt lat="46.19555" lon="4.48645">
        <ele>884.4</ele>
        <time>2025-09-07T14:46:23Z</time>
      </trkpt>
      <trkpt lat="46.19554" lon="4.4864">
        <ele>884.6</ele>
        <time>2025-09-07T14:46:24Z</time>
      </trkpt>
      <trkpt lat="46.19553" lon="4.48635">
        <ele>884.6</ele>
        <time>2025-09-07T14:46:25Z</time>
      </trkpt>
      <trkpt lat="46.19551" lon="4.48629">
        <ele>884.6</ele>
        <time>2025-09-07T14:46:26Z</time>
      </trkpt>
      <trkpt lat="46.1955" lon="4.48623">
        <ele>884.6</ele>
        <time>2025-09-07T14:46:27Z</time>
      </trkpt>
      <trkpt lat="46.1955" lon="4.48619">
        <ele>884.8</ele>
        <time>2025-09-07T14:46:28Z</time>
      </trkpt>
      <trkpt lat="46.19549" lon="4.48614">
        <ele>884.8</ele>
        <time>2025-09-07T14:46:29Z</time>
      </trkpt>
      <trkpt lat="46.19548" lon="4.48609">
        <ele>885.2</ele>
        <time>2025-09-07T14:46:30Z</time>
      </trkpt>
      <trkpt lat="46.19547" lon="4.48604">
        <ele>885.2</ele>
        <time>2025-09-07T14:46:31Z</time>
      </trkpt>
      <trkpt lat="46.19546" lon="4.48599">
        <ele>885.4</ele>
        <time>2025-09-07T14:46:32Z</time>
      </trkpt>
      <trkpt lat="46.19545" lon="4.48595">
        <ele>885.4</ele>
        <time>2025-09-07T14:46:33Z</time>
      </trkpt>
      <trkpt lat="46.19544" lon="4.4859">
        <ele>885.4</ele>
        <time>2025-09-07T14:46:34Z</time>
      </trkpt>
      <trkpt lat="46.19544" lon="4.48586">
        <ele>885.4</ele>
        <time>2025-09-07T14:46:35Z</time>
      </trkpt>
      <trkpt lat="46.19543" lon="4.48581">
        <ele>885.4</ele>
        <time>2025-09-07T14:46:36Z</time>
      </trkpt>
      <trkpt lat="46.19543" lon="4.48576">
        <ele>885.6</ele>
        <time>2025-09-07T14:46:37Z</time>
      </trkpt>
      <trkpt lat="46.19542" lon="4.48572">
        <ele>885.6</ele>
        <time>2025-09-07T14:46:38Z</time>
      </trkpt>
      <trkpt lat="46.19542" lon="4.48567">
        <ele>885.8</ele>
        <time>2025-09-07T14:46:39Z</time>
      </trkpt>
      <trkpt lat="46.19541" lon="4.48563">
        <ele>885.8</ele>
        <time>2025-09-07T14:46:40Z</time>
      </trkpt>
      <trkpt lat="46.19541" lon="4.48558">
        <ele>886.2</ele>
        <time>2025-09-07T14:46:41Z</time>
      </trkpt>
      <trkpt lat="46.1954" lon="4.48554">
        <ele>886.2</ele>
        <time>2025-09-07T14:46:42Z</time>
      </trkpt>
      <trkpt lat="46.1954" lon="4.48549">
        <ele>886.4</ele>
        <time>2025-09-07T14:46:43Z</time>
      </trkpt>
      <trkpt lat="46.19539" lon="4.48545">
        <ele>886.4</ele>
        <time>2025-09-07T14:46:44Z</time>
      </trkpt>
      <trkpt lat="46.19539" lon="4.48541">
        <ele>886.4</ele>
        <time>2025-09-07T14:46:45Z</time>
      </trkpt>
      <trkpt lat="46.19538" lon="4.48536">
        <ele>886.8</ele>
        <time>2025-09-07T14:46:46Z</time>
      </trkpt>
      <trkpt lat="46.19538" lon="4.48532">
        <ele>886.8</ele>
        <time>2025-09-07T14:46:47Z</time>
      </trkpt>
      <trkpt lat="46.19537" lon="4.48528">
        <ele>886.8</ele>
        <time>2025-09-07T14:46:48Z</time>
      </trkpt>
      <trkpt lat="46.19537" lon="4.48524">
        <ele>886.8</ele>
        <time>2025-09-07T14:46:49Z</time>
      </trkpt>
      <trkpt lat="46.19536" lon="4.4852">
        <ele>886.8</ele>
        <time>2025-09-07T14:46:50Z</time>
      </trkpt>
      <trkpt lat="46.19536" lon="4.48516">
        <ele>886.8</ele>
        <time>2025-09-07T14:46:51Z</time>
      </trkpt>
      <trkpt lat="46.19536" lon="4.48513">
        <ele>887.2</ele>
        <time>2025-09-07T14:46:52Z</time>
      </trkpt>
      <trkpt lat="46.19536" lon="4.48509">
        <ele>887.2</ele>
        <time>2025-09-07T14:46:53Z</time>
      </trkpt>
      <trkpt lat="46.19536" lon="4.48505">
        <ele>887.6</ele>
        <time>2025-09-07T14:46:54Z</time>
      </trkpt>
      <trkpt lat="46.19535" lon="4.48502">
        <ele>887.8</ele>
        <time>2025-09-07T14:46:55Z</time>
      </trkpt>
      <trkpt lat="46.19535" lon="4.48501">
        <ele>888</ele>
        <time>2025-09-07T14:46:56Z</time>
      </trkpt>
      <trkpt lat="46.19535" lon="4.48498">
        <ele>888.4</ele>
        <time>2025-09-07T14:46:57Z</time>
      </trkpt>
      <trkpt lat="46.19535" lon="4.48496">
        <ele>888.6</ele>
        <time>2025-09-07T14:46:58Z</time>
      </trkpt>
      <trkpt lat="46.19535" lon="4.48493">
        <ele>888.6</ele>
        <time>2025-09-07T14:46:59Z</time>
      </trkpt>
      <trkpt lat="46.19535" lon="4.48491">
        <ele>888.8</ele>
        <time>2025-09-07T14:47:00Z</time>
      </trkpt>
      <trkpt lat="46.19535" lon="4.48489">
        <ele>889.2</ele>
        <time>2025-09-07T14:47:01Z</time>
      </trkpt>
      <trkpt lat="46.19535" lon="4.48488">
        <ele>889.2</ele>
        <time>2025-09-07T14:47:02Z</time>
      </trkpt>
      <trkpt lat="46.19535" lon="4.48486">
        <ele>889.6</ele>
        <time>2025-09-07T14:47:03Z</time>
      </trkpt>
      <trkpt lat="46.19534" lon="4.48485">
        <ele>889.6</ele>
        <time>2025-09-07T14:47:04Z</time>
      </trkpt>
      <trkpt lat="46.19534" lon="4.48484">
        <ele>889.6</ele>
        <time>2025-09-07T14:47:05Z</time>
      </trkpt>
      <trkpt lat="46.19533" lon="4.48482">
        <ele>889.8</ele>
        <time>2025-09-07T14:47:06Z</time>
      </trkpt>
      <trkpt lat="46.19533" lon="4.4848">
        <ele>890.2</ele>
        <time>2025-09-07T14:47:07Z</time>
      </trkpt>
      <trkpt lat="46.19532" lon="4.48477">
        <ele>890.2</ele>
        <time>2025-09-07T14:47:08Z</time>
      </trkpt>
      <trkpt lat="46.19532" lon="4.48475">
        <ele>890.4</ele>
        <time>2025-09-07T14:47:09Z</time>
      </trkpt>
      <trkpt lat="46.19532" lon="4.48473">
        <ele>890.4</ele>
        <time>2025-09-07T14:47:10Z</time>
      </trkpt>
      <trkpt lat="46.19532" lon="4.4847">
        <ele>890.6</ele>
        <time>2025-09-07T14:47:11Z</time>
      </trkpt>
      <trkpt lat="46.19531" lon="4.48467">
        <ele>890.6</ele>
        <time>2025-09-07T14:47:12Z</time>
      </trkpt>
      <trkpt lat="46.19531" lon="4.48465">
        <ele>891</ele>
        <time>2025-09-07T14:47:13Z</time>
      </trkpt>
      <trkpt lat="46.19531" lon="4.48464">
        <ele>891</ele>
        <time>2025-09-07T14:47:14Z</time>
      </trkpt>
      <trkpt lat="46.19531" lon="4.48462">
        <ele>891</ele>
        <time>2025-09-07T14:47:15Z</time>
      </trkpt>
      <trkpt lat="46.19531" lon="4.48461">
        <ele>891.2</ele>
        <time>2025-09-07T14:47:16Z</time>
      </trkpt>
      <trkpt lat="46.1953" lon="4.4846">
        <ele>891.2</ele>
        <time>2025-09-07T14:47:17Z</time>
      </trkpt>
      <trkpt lat="46.1953" lon="4.48459">
        <ele>891.2</ele>
        <time>2025-09-07T14:47:18Z</time>
      </trkpt>
      <trkpt lat="46.1953" lon="4.48457">
        <ele>891.4</ele>
        <time>2025-09-07T14:47:19Z</time>
      </trkpt>
      <trkpt lat="46.19531" lon="4.48455">
        <ele>891.4</ele>
        <time>2025-09-07T14:47:20Z</time>
      </trkpt>
      <trkpt lat="46.1953" lon="4.48453">
        <ele>891.4</ele>
        <time>2025-09-07T14:47:21Z</time>
      </trkpt>
      <trkpt lat="46.1953" lon="4.48451">
        <ele>891.8</ele>
        <time>2025-09-07T14:47:22Z</time>
      </trkpt>
      <trkpt lat="46.1953" lon="4.48449">
        <ele>891.8</ele>
        <time>2025-09-07T14:47:23Z</time>
      </trkpt>
      <trkpt lat="46.1953" lon="4.48447">
        <ele>891.8</ele>
        <time>2025-09-07T14:47:24Z</time>
      </trkpt>
      <trkpt lat="46.1953" lon="4.48445">
        <ele>892</ele>
        <time>2025-09-07T14:47:25Z</time>
      </trkpt>
      <trkpt lat="46.1953" lon="4.48443">
        <ele>892</ele>
        <time>2025-09-07T14:47:26Z</time>
      </trkpt>
      <trkpt lat="46.1953" lon="4.48441">
        <ele>892</ele>
        <time>2025-09-07T14:47:27Z</time>
      </trkpt>
      <trkpt lat="46.1953" lon="4.48439">
        <ele>892</ele>
        <time>2025-09-07T14:47:28Z</time>
      </trkpt>
      <trkpt lat="46.1953" lon="4.48437">
        <ele>892.8</ele>
        <time>2025-09-07T14:47:29Z</time>
      </trkpt>
      <trkpt lat="46.19529" lon="4.48432">
        <ele>892.8</ele>
        <time>2025-09-07T14:47:30Z</time>
      </trkpt>
      <trkpt lat="46.19529" lon="4.4843">
        <ele>892.8</ele>
        <time>2025-09-07T14:47:31Z</time>
      </trkpt>
      <trkpt lat="46.19529" lon="4.48428">
        <ele>892.8</ele>
        <time>2025-09-07T14:47:32Z</time>
      </trkpt>
      <trkpt lat="46.19529" lon="4.48427">
        <ele>892.8</ele>
        <time>2025-09-07T14:47:33Z</time>
      </trkpt>
      <trkpt lat="46.1953" lon="4.48424">
        <ele>893.2</ele>
        <time>2025-09-07T14:47:34Z</time>
      </trkpt>
      <trkpt lat="46.19531" lon="4.48422">
        <ele>893.2</ele>
        <time>2025-09-07T14:47:35Z</time>
      </trkpt>
      <trkpt lat="46.19532" lon="4.48421">
        <ele>893.6</ele>
        <time>2025-09-07T14:47:36Z</time>
      </trkpt>
      <trkpt lat="46.19533" lon="4.48419">
        <ele>893.6</ele>
        <time>2025-09-07T14:47:37Z</time>
      </trkpt>
      <trkpt lat="46.19533" lon="4.48417">
        <ele>893.6</ele>
        <time>2025-09-07T14:47:38Z</time>
      </trkpt>
      <trkpt lat="46.19534" lon="4.48414">
        <ele>893.6</ele>
        <time>2025-09-07T14:47:39Z</time>
      </trkpt>
      <trkpt lat="46.19534" lon="4.48412">
        <ele>893.6</ele>
        <time>2025-09-07T14:47:40Z</time>
      </trkpt>
      <trkpt lat="46.19534" lon="4.4841">
        <ele>893.6</ele>
        <time>2025-09-07T14:47:41Z</time>
      </trkpt>
      <trkpt lat="46.19534" lon="4.48407">
        <ele>893.8</ele>
        <time>2025-09-07T14:47:42Z</time>
      </trkpt>
      <trkpt lat="46.19534" lon="4.48404">
        <ele>893.8</ele>
        <time>2025-09-07T14:47:43Z</time>
      </trkpt>
      <trkpt lat="46.19534" lon="4.48401">
        <ele>893.8</ele>
        <time>2025-09-07T14:47:44Z</time>
      </trkpt>
      <trkpt lat="46.19533" lon="4.48398">
        <ele>894</ele>
        <time>2025-09-07T14:47:45Z</time>
      </trkpt>
      <trkpt lat="46.19533" lon="4.48396">
        <ele>894</ele>
        <time>2025-09-07T14:47:46Z</time>
      </trkpt>
      <trkpt lat="46.19532" lon="4.48393">
        <ele>894</ele>
        <time>2025-09-07T14:47:47Z</time>
      </trkpt>
      <trkpt lat="46.19531" lon="4.48391">
        <ele>894</ele>
        <time>2025-09-07T14:47:48Z</time>
      </trkpt>
      <trkpt lat="46.19531" lon="4.48388">
        <ele>894</ele>
        <time>2025-09-07T14:47:49Z</time>
      </trkpt>
      <trkpt lat="46.1953" lon="4.48385">
        <ele>894</ele>
        <time>2025-09-07T14:47:50Z</time>
      </trkpt>
      <trkpt lat="46.19529" lon="4.4838">
        <ele>894</ele>
        <time>2025-09-07T14:47:51Z</time>
      </trkpt>
      <trkpt lat="46.19528" lon="4.48376">
        <ele>894</ele>
        <time>2025-09-07T14:47:52Z</time>
      </trkpt>
      <trkpt lat="46.19527" lon="4.48373">
        <ele>894</ele>
        <time>2025-09-07T14:47:53Z</time>
      </trkpt>
      <trkpt lat="46.19527" lon="4.48369">
        <ele>894</ele>
        <time>2025-09-07T14:47:54Z</time>
      </trkpt>
      <trkpt lat="46.19527" lon="4.48365">
        <ele>893.6</ele>
        <time>2025-09-07T14:47:55Z</time>
      </trkpt>
      <trkpt lat="46.19527" lon="4.48362">
        <ele>893.6</ele>
        <time>2025-09-07T14:47:56Z</time>
      </trkpt>
      <trkpt lat="46.19527" lon="4.48357">
        <ele>893.4</ele>
        <time>2025-09-07T14:47:57Z</time>
      </trkpt>
      <trkpt lat="46.19526" lon="4.48352">
        <ele>893</ele>
        <time>2025-09-07T14:47:58Z</time>
      </trkpt>
      <trkpt lat="46.19519" lon="4.4834">
        <ele>892.8</ele>
        <time>2025-09-07T14:47:59Z</time>
      </trkpt>
      <trkpt lat="46.19517" lon="4.48337">
        <ele>892.4</ele>
        <time>2025-09-07T14:48:00Z</time>
      </trkpt>
      <trkpt lat="46.19514" lon="4.4833">
        <ele>892</ele>
        <time>2025-09-07T14:48:01Z</time>
      </trkpt>
      <trkpt lat="46.19508" lon="4.48323">
        <ele>891.6</ele>
        <time>2025-09-07T14:48:02Z</time>
      </trkpt>
      <trkpt lat="46.19504" lon="4.48315">
        <ele>891</ele>
        <time>2025-09-07T14:48:03Z</time>
      </trkpt>
      <trkpt lat="46.19499" lon="4.48302">
        <ele>890.6</ele>
        <time>2025-09-07T14:48:04Z</time>
      </trkpt>
      <trkpt lat="46.19495" lon="4.48295">
        <ele>890.2</ele>
        <time>2025-09-07T14:48:05Z</time>
      </trkpt>
      <trkpt lat="46.19489" lon="4.48293">
        <ele>889.8</ele>
        <time>2025-09-07T14:48:06Z</time>
      </trkpt>
      <trkpt lat="46.19486" lon="4.48285">
        <ele>889.2</ele>
        <time>2025-09-07T14:48:07Z</time>
      </trkpt>
      <trkpt lat="46.19482" lon="4.48281">
        <ele>888.6</ele>
        <time>2025-09-07T14:48:08Z</time>
      </trkpt>
      <trkpt lat="46.19479" lon="4.48275">
        <ele>888.2</ele>
        <time>2025-09-07T14:48:09Z</time>
      </trkpt>
      <trkpt lat="46.19477" lon="4.48267">
        <ele>887.8</ele>
        <time>2025-09-07T14:48:10Z</time>
      </trkpt>
      <trkpt lat="46.19477" lon="4.4826">
        <ele>887.2</ele>
        <time>2025-09-07T14:48:11Z</time>
      </trkpt>
      <trkpt lat="46.19483" lon="4.48259">
        <ele>886.8</ele>
        <time>2025-09-07T14:48:12Z</time>
      </trkpt>
      <trkpt lat="46.19488" lon="4.4826">
        <ele>886.4</ele>
        <time>2025-09-07T14:48:13Z</time>
      </trkpt>
      <trkpt lat="46.19491" lon="4.48259">
        <ele>886.4</ele>
        <time>2025-09-07T14:48:14Z</time>
      </trkpt>
      <trkpt lat="46.19494" lon="4.48258">
        <ele>886.2</ele>
        <time>2025-09-07T14:48:15Z</time>
      </trkpt>
      <trkpt lat="46.19498" lon="4.48257">
        <ele>886.2</ele>
        <time>2025-09-07T14:48:16Z</time>
      </trkpt>
      <trkpt lat="46.19502" lon="4.48256">
        <ele>886.2</ele>
        <time>2025-09-07T14:48:17Z</time>
      </trkpt>
      <trkpt lat="46.19506" lon="4.48255">
        <ele>886.2</ele>
        <time>2025-09-07T14:48:18Z</time>
      </trkpt>
      <trkpt lat="46.19509" lon="4.48253">
        <ele>886.2</ele>
        <time>2025-09-07T14:48:19Z</time>
      </trkpt>
      <trkpt lat="46.19513" lon="4.48252">
        <ele>886.2</ele>
        <time>2025-09-07T14:48:20Z</time>
      </trkpt>
      <trkpt lat="46.19517" lon="4.48252">
        <ele>886.6</ele>
        <time>2025-09-07T14:48:21Z</time>
      </trkpt>
      <trkpt lat="46.1952" lon="4.48251">
        <ele>886.6</ele>
        <time>2025-09-07T14:48:22Z</time>
      </trkpt>
      <trkpt lat="46.1952" lon="4.48251">
        <ele>886.6</ele>
        <time>2025-09-07T14:48:23Z</time>
      </trkpt>
      <trkpt lat="46.19523" lon="4.4825">
        <ele>887</ele>
        <time>2025-09-07T14:48:24Z</time>
      </trkpt>
      <trkpt lat="46.19526" lon="4.48249">
        <ele>887</ele>
        <time>2025-09-07T14:48:25Z</time>
      </trkpt>
      <trkpt lat="46.19529" lon="4.48248">
        <ele>887.4</ele>
        <time>2025-09-07T14:48:26Z</time>
      </trkpt>
      <trkpt lat="46.19532" lon="4.48248">
        <ele>887.4</ele>
        <time>2025-09-07T14:48:27Z</time>
      </trkpt>
      <trkpt lat="46.19535" lon="4.48247">
        <ele>887.6</ele>
        <time>2025-09-07T14:48:28Z</time>
      </trkpt>
      <trkpt lat="46.19538" lon="4.48247">
        <ele>887.6</ele>
        <time>2025-09-07T14:48:29Z</time>
      </trkpt>
      <trkpt lat="46.19541" lon="4.48247">
        <ele>887.8</ele>
        <time>2025-09-07T14:48:30Z</time>
      </trkpt>
      <trkpt lat="46.19543" lon="4.48247">
        <ele>887.8</ele>
        <time>2025-09-07T14:48:31Z</time>
      </trkpt>
      <trkpt lat="46.19546" lon="4.48247">
        <ele>888</ele>
        <time>2025-09-07T14:48:32Z</time>
      </trkpt>
      <trkpt lat="46.19549" lon="4.48246">
        <ele>888.4</ele>
        <time>2025-09-07T14:48:33Z</time>
      </trkpt>
      <trkpt lat="46.19552" lon="4.48247">
        <ele>888.6</ele>
        <time>2025-09-07T14:48:34Z</time>
      </trkpt>
      <trkpt lat="46.19556" lon="4.48248">
        <ele>889</ele>
        <time>2025-09-07T14:48:35Z</time>
      </trkpt>
      <trkpt lat="46.19558" lon="4.48248">
        <ele>889</ele>
        <time>2025-09-07T14:48:36Z</time>
      </trkpt>
      <trkpt lat="46.19561" lon="4.48248">
        <ele>889.2</ele>
        <time>2025-09-07T14:48:37Z</time>
      </trkpt>
      <trkpt lat="46.19563" lon="4.48249">
        <ele>889.6</ele>
        <time>2025-09-07T14:48:38Z</time>
      </trkpt>
      <trkpt lat="46.19566" lon="4.4825">
        <ele>889.6</ele>
        <time>2025-09-07T14:48:39Z</time>
      </trkpt>
      <trkpt lat="46.19569" lon="4.48251">
        <ele>890</ele>
        <time>2025-09-07T14:48:40Z</time>
      </trkpt>
      <trkpt lat="46.19572" lon="4.4825">
        <ele>890</ele>
        <time>2025-09-07T14:48:41Z</time>
      </trkpt>
      <trkpt lat="46.19575" lon="4.48249">
        <ele>890.4</ele>
        <time>2025-09-07T14:48:42Z</time>
      </trkpt>
      <trkpt lat="46.19577" lon="4.48249">
        <ele>890.4</ele>
        <time>2025-09-07T14:48:43Z</time>
      </trkpt>
      <trkpt lat="46.1958" lon="4.48249">
        <ele>890.6</ele>
        <time>2025-09-07T14:48:44Z</time>
      </trkpt>
      <trkpt lat="46.19583" lon="4.48248">
        <ele>890.6</ele>
        <time>2025-09-07T14:48:45Z</time>
      </trkpt>
      <trkpt lat="46.19585" lon="4.48247">
        <ele>890.6</ele>
        <time>2025-09-07T14:48:46Z</time>
      </trkpt>
      <trkpt lat="46.19588" lon="4.48246">
        <ele>890.6</ele>
        <time>2025-09-07T14:48:47Z</time>
      </trkpt>
      <trkpt lat="46.19591" lon="4.48245">
        <ele>890.6</ele>
        <time>2025-09-07T14:48:48Z</time>
      </trkpt>
      <trkpt lat="46.19593" lon="4.48244">
        <ele>891</ele>
        <time>2025-09-07T14:48:49Z</time>
      </trkpt>
      <trkpt lat="46.19596" lon="4.48243">
        <ele>891</ele>
        <time>2025-09-07T14:48:50Z</time>
      </trkpt>
      <trkpt lat="46.19598" lon="4.48243">
        <ele>891.4</ele>
        <time>2025-09-07T14:48:51Z</time>
      </trkpt>
      <trkpt lat="46.196" lon="4.48242">
        <ele>891.4</ele>
        <time>2025-09-07T14:48:52Z</time>
      </trkpt>
      <trkpt lat="46.19602" lon="4.48241">
        <ele>891.6</ele>
        <time>2025-09-07T14:48:53Z</time>
      </trkpt>
      <trkpt lat="46.19605" lon="4.4824">
        <ele>891.6</ele>
        <time>2025-09-07T14:48:54Z</time>
      </trkpt>
      <trkpt lat="46.19607" lon="4.48239">
        <ele>891.6</ele>
        <time>2025-09-07T14:48:55Z</time>
      </trkpt>
      <trkpt lat="46.1961" lon="4.48238">
        <ele>891.8</ele>
        <time>2025-09-07T14:48:56Z</time>
      </trkpt>
      <trkpt lat="46.19612" lon="4.48237">
        <ele>891.8</ele>
        <time>2025-09-07T14:48:57Z</time>
      </trkpt>
      <trkpt lat="46.19614" lon="4.48236">
        <ele>892</ele>
        <time>2025-09-07T14:48:58Z</time>
      </trkpt>
      <trkpt lat="46.19617" lon="4.48236">
        <ele>892</ele>
        <time>2025-09-07T14:48:59Z</time>
      </trkpt>
      <trkpt lat="46.19619" lon="4.48235">
        <ele>892.4</ele>
        <time>2025-09-07T14:49:00Z</time>
      </trkpt>
      <trkpt lat="46.19622" lon="4.48234">
        <ele>892.4</ele>
        <time>2025-09-07T14:49:01Z</time>
      </trkpt>
      <trkpt lat="46.19624" lon="4.48232">
        <ele>892.4</ele>
        <time>2025-09-07T14:49:02Z</time>
      </trkpt>
      <trkpt lat="46.19627" lon="4.48231">
        <ele>892.6</ele>
        <time>2025-09-07T14:49:03Z</time>
      </trkpt>
      <trkpt lat="46.19629" lon="4.4823">
        <ele>892.6</ele>
        <time>2025-09-07T14:49:04Z</time>
      </trkpt>
      <trkpt lat="46.19632" lon="4.48229">
        <ele>892.6</ele>
        <time>2025-09-07T14:49:05Z</time>
      </trkpt>
      <trkpt lat="46.19634" lon="4.48228">
        <ele>892.8</ele>
        <time>2025-09-07T14:49:06Z</time>
      </trkpt>
      <trkpt lat="46.19637" lon="4.48227">
        <ele>892.8</ele>
        <time>2025-09-07T14:49:07Z</time>
      </trkpt>
      <trkpt lat="46.19639" lon="4.48226">
        <ele>893</ele>
        <time>2025-09-07T14:49:08Z</time>
      </trkpt>
      <trkpt lat="46.1964" lon="4.48225">
        <ele>893</ele>
        <time>2025-09-07T14:49:09Z</time>
      </trkpt>
      <trkpt lat="46.19642" lon="4.48223">
        <ele>893.4</ele>
        <time>2025-09-07T14:49:10Z</time>
      </trkpt>
      <trkpt lat="46.19645" lon="4.48222">
        <ele>893.4</ele>
        <time>2025-09-07T14:49:11Z</time>
      </trkpt>
      <trkpt lat="46.19647" lon="4.48221">
        <ele>893.6</ele>
        <time>2025-09-07T14:49:12Z</time>
      </trkpt>
      <trkpt lat="46.19649" lon="4.4822">
        <ele>893.6</ele>
        <time>2025-09-07T14:49:13Z</time>
      </trkpt>
      <trkpt lat="46.19651" lon="4.48219">
        <ele>893.6</ele>
        <time>2025-09-07T14:49:14Z</time>
      </trkpt>
      <trkpt lat="46.19652" lon="4.48217">
        <ele>893.6</ele>
        <time>2025-09-07T14:49:15Z</time>
      </trkpt>
      <trkpt lat="46.19655" lon="4.48215">
        <ele>893.6</ele>
        <time>2025-09-07T14:49:16Z</time>
      </trkpt>
      <trkpt lat="46.19657" lon="4.48214">
        <ele>893.6</ele>
        <time>2025-09-07T14:49:17Z</time>
      </trkpt>
      <trkpt lat="46.19659" lon="4.48212">
        <ele>894</ele>
        <time>2025-09-07T14:49:18Z</time>
      </trkpt>
      <trkpt lat="46.19661" lon="4.4821">
        <ele>894</ele>
        <time>2025-09-07T14:49:19Z</time>
      </trkpt>
      <trkpt lat="46.19663" lon="4.48208">
        <ele>894.2</ele>
        <time>2025-09-07T14:49:20Z</time>
      </trkpt>
      <trkpt lat="46.19664" lon="4.48206">
        <ele>894.2</ele>
        <time>2025-09-07T14:49:21Z</time>
      </trkpt>
      <trkpt lat="46.19666" lon="4.48205">
        <ele>894.2</ele>
        <time>2025-09-07T14:49:22Z</time>
      </trkpt>
      <trkpt lat="46.19668" lon="4.48203">
        <ele>894.4</ele>
        <time>2025-09-07T14:49:23Z</time>
      </trkpt>
      <trkpt lat="46.1967" lon="4.48201">
        <ele>894.4</ele>
        <time>2025-09-07T14:49:24Z</time>
      </trkpt>
      <trkpt lat="46.19672" lon="4.48199">
        <ele>894.4</ele>
        <time>2025-09-07T14:49:25Z</time>
      </trkpt>
      <trkpt lat="46.19674" lon="4.48197">
        <ele>894.6</ele>
        <time>2025-09-07T14:49:26Z</time>
      </trkpt>
      <trkpt lat="46.19676" lon="4.48196">
        <ele>894.6</ele>
        <time>2025-09-07T14:49:27Z</time>
      </trkpt>
      <trkpt lat="46.19678" lon="4.48194">
        <ele>894.8</ele>
        <time>2025-09-07T14:49:28Z</time>
      </trkpt>
      <trkpt lat="46.1968" lon="4.48192">
        <ele>895</ele>
        <time>2025-09-07T14:49:29Z</time>
      </trkpt>
      <trkpt lat="46.19682" lon="4.4819">
        <ele>895</ele>
        <time>2025-09-07T14:49:30Z</time>
      </trkpt>
      <trkpt lat="46.19684" lon="4.48189">
        <ele>895.2</ele>
        <time>2025-09-07T14:49:31Z</time>
      </trkpt>
      <trkpt lat="46.19685" lon="4.48188">
        <ele>895.2</ele>
        <time>2025-09-07T14:49:32Z</time>
      </trkpt>
      <trkpt lat="46.19687" lon="4.48187">
        <ele>895.2</ele>
        <time>2025-09-07T14:49:33Z</time>
      </trkpt>
      <trkpt lat="46.19689" lon="4.48186">
        <ele>895.6</ele>
        <time>2025-09-07T14:49:34Z</time>
      </trkpt>
      <trkpt lat="46.1969" lon="4.48184">
        <ele>895.6</ele>
        <time>2025-09-07T14:49:35Z</time>
      </trkpt>
      <trkpt lat="46.19691" lon="4.48183">
        <ele>895.6</ele>
        <time>2025-09-07T14:49:36Z</time>
      </trkpt>
      <trkpt lat="46.19693" lon="4.48181">
        <ele>895.8</ele>
        <time>2025-09-07T14:49:37Z</time>
      </trkpt>
      <trkpt lat="46.19695" lon="4.48181">
        <ele>896.2</ele>
        <time>2025-09-07T14:49:38Z</time>
      </trkpt>
      <trkpt lat="46.19696" lon="4.4818">
        <ele>896.4</ele>
        <time>2025-09-07T14:49:39Z</time>
      </trkpt>
      <trkpt lat="46.19698" lon="4.48179">
        <ele>896.6</ele>
        <time>2025-09-07T14:49:40Z</time>
      </trkpt>
      <trkpt lat="46.19699" lon="4.48179">
        <ele>896.8</ele>
        <time>2025-09-07T14:49:41Z</time>
      </trkpt>
      <trkpt lat="46.19701" lon="4.48178">
        <ele>896.8</ele>
        <time>2025-09-07T14:49:42Z</time>
      </trkpt>
      <trkpt lat="46.19702" lon="4.48178">
        <ele>897.2</ele>
        <time>2025-09-07T14:49:43Z</time>
      </trkpt>
      <trkpt lat="46.19703" lon="4.48177">
        <ele>897.4</ele>
        <time>2025-09-07T14:49:44Z</time>
      </trkpt>
      <trkpt lat="46.19705" lon="4.48176">
        <ele>897.4</ele>
        <time>2025-09-07T14:49:45Z</time>
      </trkpt>
      <trkpt lat="46.19706" lon="4.48175">
        <ele>897.4</ele>
        <time>2025-09-07T14:49:46Z</time>
      </trkpt>
      <trkpt lat="46.19708" lon="4.48174">
        <ele>897.8</ele>
        <time>2025-09-07T14:49:47Z</time>
      </trkpt>
      <trkpt lat="46.19709" lon="4.48173">
        <ele>898</ele>
        <time>2025-09-07T14:49:48Z</time>
      </trkpt>
      <trkpt lat="46.19711" lon="4.48171">
        <ele>898.2</ele>
        <time>2025-09-07T14:49:49Z</time>
      </trkpt>
      <trkpt lat="46.19712" lon="4.48171">
        <ele>898.6</ele>
        <time>2025-09-07T14:49:50Z</time>
      </trkpt>
      <trkpt lat="46.19712" lon="4.4817">
        <ele>898.6</ele>
        <time>2025-09-07T14:49:51Z</time>
      </trkpt>
      <trkpt lat="46.19714" lon="4.48169">
        <ele>899</ele>
        <time>2025-09-07T14:49:52Z</time>
      </trkpt>
      <trkpt lat="46.19715" lon="4.48169">
        <ele>899.2</ele>
        <time>2025-09-07T14:49:53Z</time>
      </trkpt>
      <trkpt lat="46.19715" lon="4.48168">
        <ele>899.2</ele>
        <time>2025-09-07T14:49:54Z</time>
      </trkpt>
      <trkpt lat="46.19716" lon="4.48167">
        <ele>899.2</ele>
        <time>2025-09-07T14:49:55Z</time>
      </trkpt>
      <trkpt lat="46.19718" lon="4.48166">
        <ele>899.2</ele>
        <time>2025-09-07T14:49:56Z</time>
      </trkpt>
      <trkpt lat="46.1972" lon="4.48166">
        <ele>899.6</ele>
        <time>2025-09-07T14:49:57Z</time>
      </trkpt>
      <trkpt lat="46.19722" lon="4.48166">
        <ele>899.6</ele>
        <time>2025-09-07T14:49:58Z</time>
      </trkpt>
      <trkpt lat="46.19723" lon="4.48165">
        <ele>900</ele>
        <time>2025-09-07T14:49:59Z</time>
      </trkpt>
      <trkpt lat="46.19724" lon="4.48163">
        <ele>900</ele>
        <time>2025-09-07T14:50:00Z</time>
      </trkpt>
      <trkpt lat="46.19724" lon="4.48162">
        <ele>900</ele>
        <time>2025-09-07T14:50:01Z</time>
      </trkpt>
      <trkpt lat="46.19725" lon="4.4816">
        <ele>900.2</ele>
        <time>2025-09-07T14:50:02Z</time>
      </trkpt>
      <trkpt lat="46.19726" lon="4.48159">
        <ele>900.2</ele>
        <time>2025-09-07T14:50:03Z</time>
      </trkpt>
      <trkpt lat="46.19727" lon="4.48158">
        <ele>900.2</ele>
        <time>2025-09-07T14:50:04Z</time>
      </trkpt>
      <trkpt lat="46.19727" lon="4.48157">
        <ele>900.4</ele>
        <time>2025-09-07T14:50:05Z</time>
      </trkpt>
      <trkpt lat="46.19728" lon="4.48156">
        <ele>900.4</ele>
        <time>2025-09-07T14:50:06Z</time>
      </trkpt>
      <trkpt lat="46.19729" lon="4.48155">
        <ele>900.8</ele>
        <time>2025-09-07T14:50:07Z</time>
      </trkpt>
      <trkpt lat="46.1973" lon="4.48153">
        <ele>900.8</ele>
        <time>2025-09-07T14:50:08Z</time>
      </trkpt>
      <trkpt lat="46.19731" lon="4.48151">
        <ele>901.2</ele>
        <time>2025-09-07T14:50:09Z</time>
      </trkpt>
      <trkpt lat="46.19733" lon="4.4815">
        <ele>901.2</ele>
        <time>2025-09-07T14:50:10Z</time>
      </trkpt>
      <trkpt lat="46.19734" lon="4.4815">
        <ele>901.2</ele>
        <time>2025-09-07T14:50:11Z</time>
      </trkpt>
      <trkpt lat="46.19735" lon="4.48149">
        <ele>901.6</ele>
        <time>2025-09-07T14:50:12Z</time>
      </trkpt>
      <trkpt lat="46.19736" lon="4.48149">
        <ele>901.6</ele>
        <time>2025-09-07T14:50:13Z</time>
      </trkpt>
      <trkpt lat="46.19738" lon="4.48148">
        <ele>901.6</ele>
        <time>2025-09-07T14:50:14Z</time>
      </trkpt>
      <trkpt lat="46.1974" lon="4.48148">
        <ele>901.8</ele>
        <time>2025-09-07T14:50:15Z</time>
      </trkpt>
      <trkpt lat="46.19741" lon="4.48148">
        <ele>901.8</ele>
        <time>2025-09-07T14:50:16Z</time>
      </trkpt>
      <trkpt lat="46.19742" lon="4.48147">
        <ele>902</ele>
        <time>2025-09-07T14:50:17Z</time>
      </trkpt>
      <trkpt lat="46.19743" lon="4.48146">
        <ele>902.4</ele>
        <time>2025-09-07T14:50:18Z</time>
      </trkpt>
      <trkpt lat="46.19745" lon="4.48146">
        <ele>902.4</ele>
        <time>2025-09-07T14:50:19Z</time>
      </trkpt>
      <trkpt lat="46.19746" lon="4.48144">
        <ele>902.4</ele>
        <time>2025-09-07T14:50:20Z</time>
      </trkpt>
      <trkpt lat="46.19747" lon="4.48142">
        <ele>902.6</ele>
        <time>2025-09-07T14:50:21Z</time>
      </trkpt>
      <trkpt lat="46.19749" lon="4.4814">
        <ele>902.6</ele>
        <time>2025-09-07T14:50:22Z</time>
      </trkpt>
      <trkpt lat="46.1975" lon="4.48138">
        <ele>902.6</ele>
        <time>2025-09-07T14:50:23Z</time>
      </trkpt>
      <trkpt lat="46.19751" lon="4.48137">
        <ele>903</ele>
        <time>2025-09-07T14:50:24Z</time>
      </trkpt>
      <trkpt lat="46.19753" lon="4.48136">
        <ele>903.2</ele>
        <time>2025-09-07T14:50:25Z</time>
      </trkpt>
      <trkpt lat="46.19754" lon="4.48136">
        <ele>903.2</ele>
        <time>2025-09-07T14:50:26Z</time>
      </trkpt>
      <trkpt lat="46.19755" lon="4.48135">
        <ele>903.4</ele>
        <time>2025-09-07T14:50:27Z</time>
      </trkpt>
      <trkpt lat="46.19756" lon="4.48134">
        <ele>903.4</ele>
        <time>2025-09-07T14:50:28Z</time>
      </trkpt>
      <trkpt lat="46.19758" lon="4.48134">
        <ele>903.4</ele>
        <time>2025-09-07T14:50:29Z</time>
      </trkpt>
      <trkpt lat="46.19759" lon="4.48133">
        <ele>903.8</ele>
        <time>2025-09-07T14:50:30Z</time>
      </trkpt>
      <trkpt lat="46.1976" lon="4.48133">
        <ele>903.8</ele>
        <time>2025-09-07T14:50:31Z</time>
      </trkpt>
      <trkpt lat="46.19761" lon="4.48134">
        <ele>903.8</ele>
        <time>2025-09-07T14:50:32Z</time>
      </trkpt>
      <trkpt lat="46.19762" lon="4.48135">
        <ele>903.8</ele>
        <time>2025-09-07T14:50:33Z</time>
      </trkpt>
      <trkpt lat="46.19763" lon="4.48137">
        <ele>904</ele>
        <time>2025-09-07T14:50:34Z</time>
      </trkpt>
      <trkpt lat="46.19764" lon="4.48138">
        <ele>904</ele>
        <time>2025-09-07T14:50:35Z</time>
      </trkpt>
      <trkpt lat="46.19766" lon="4.4814">
        <ele>904.4</ele>
        <time>2025-09-07T14:50:36Z</time>
      </trkpt>
      <trkpt lat="46.19768" lon="4.48142">
        <ele>904.6</ele>
        <time>2025-09-07T14:50:37Z</time>
      </trkpt>
      <trkpt lat="46.1977" lon="4.48144">
        <ele>904.6</ele>
        <time>2025-09-07T14:50:38Z</time>
      </trkpt>
      <trkpt lat="46.19772" lon="4.48145">
        <ele>904.6</ele>
        <time>2025-09-07T14:50:39Z</time>
      </trkpt>
      <trkpt lat="46.19773" lon="4.48145">
        <ele>904.6</ele>
        <time>2025-09-07T14:50:40Z</time>
      </trkpt>
      <trkpt lat="46.19773" lon="4.48144">
        <ele>904.6</ele>
        <time>2025-09-07T14:50:41Z</time>
      </trkpt>
      <trkpt lat="46.19773" lon="4.48137">
        <ele>905</ele>
        <time>2025-09-07T14:51:00Z</time>
      </trkpt>
      <trkpt lat="46.19773" lon="4.48135">
        <ele>905</ele>
        <time>2025-09-07T14:51:01Z</time>
      </trkpt>
      <trkpt lat="46.19772" lon="4.48133">
        <ele>905</ele>
        <time>2025-09-07T14:51:02Z</time>
      </trkpt>
      <trkpt lat="46.1977" lon="4.48131">
        <ele>904.8</ele>
        <time>2025-09-07T14:51:03Z</time>
      </trkpt>
      <trkpt lat="46.19769" lon="4.48129">
        <ele>904.8</ele>
        <time>2025-09-07T14:51:04Z</time>
      </trkpt>
      <trkpt lat="46.19768" lon="4.48126">
        <ele>904.6</ele>
        <time>2025-09-07T14:51:05Z</time>
      </trkpt>
      <trkpt lat="46.19767" lon="4.48122">
        <ele>904.6</ele>
        <time>2025-09-07T14:51:06Z</time>
      </trkpt>
      <trkpt lat="46.19768" lon="4.48118">
        <ele>904.2</ele>
        <time>2025-09-07T14:51:07Z</time>
      </trkpt>
      <trkpt lat="46.19768" lon="4.48115">
        <ele>904.2</ele>
        <time>2025-09-07T14:51:08Z</time>
      </trkpt>
      <trkpt lat="46.19769" lon="4.48114">
        <ele>904.2</ele>
        <time>2025-09-07T14:51:09Z</time>
      </trkpt>
      <trkpt lat="46.1977" lon="4.48112">
        <ele>904.2</ele>
        <time>2025-09-07T14:51:10Z</time>
      </trkpt>
      <trkpt lat="46.1977" lon="4.4811">
        <ele>904.2</ele>
        <time>2025-09-07T14:51:11Z</time>
      </trkpt>
      <trkpt lat="46.1977" lon="4.48109">
        <ele>904.2</ele>
        <time>2025-09-07T14:51:12Z</time>
      </trkpt>
      <trkpt lat="46.1977" lon="4.48108">
        <ele>904</ele>
        <time>2025-09-07T14:51:13Z</time>
      </trkpt>
      <trkpt lat="46.1977" lon="4.48106">
        <ele>904</ele>
        <time>2025-09-07T14:51:14Z</time>
      </trkpt>
      <trkpt lat="46.1977" lon="4.48106">
        <ele>904</ele>
        <time>2025-09-07T14:51:15Z</time>
      </trkpt>
      <trkpt lat="46.1977" lon="4.48106">
        <ele>904</ele>
        <time>2025-09-07T14:51:16Z</time>
      </trkpt>
      <trkpt lat="46.19768" lon="4.48102">
        <ele>903.6</ele>
        <time>2025-09-07T14:51:28Z</time>
      </trkpt>
      <trkpt lat="46.19767" lon="4.48099">
        <ele>903.6</ele>
        <time>2025-09-07T14:51:29Z</time>
      </trkpt>
      <trkpt lat="46.19767" lon="4.48097">
        <ele>903.6</ele>
        <time>2025-09-07T14:51:30Z</time>
      </trkpt>
      <trkpt lat="46.19767" lon="4.48094">
        <ele>903.6</ele>
        <time>2025-09-07T14:51:31Z</time>
      </trkpt>
      <trkpt lat="46.19766" lon="4.48091">
        <ele>903.6</ele>
        <time>2025-09-07T14:51:32Z</time>
      </trkpt>
      <trkpt lat="46.19766" lon="4.4809">
        <ele>903.4</ele>
        <time>2025-09-07T14:51:33Z</time>
      </trkpt>
      <trkpt lat="46.19766" lon="4.48086">
        <ele>903.4</ele>
        <time>2025-09-07T14:51:34Z</time>
      </trkpt>
      <trkpt lat="46.19766" lon="4.48081">
        <ele>903</ele>
        <time>2025-09-07T14:51:35Z</time>
      </trkpt>
      <trkpt lat="46.19766" lon="4.48077">
        <ele>903</ele>
        <time>2025-09-07T14:51:36Z</time>
      </trkpt>
      <trkpt lat="46.19766" lon="4.48074">
        <ele>903</ele>
        <time>2025-09-07T14:51:37Z</time>
      </trkpt>
      <trkpt lat="46.19766" lon="4.48071">
        <ele>903</ele>
        <time>2025-09-07T14:51:38Z</time>
      </trkpt>
      <trkpt lat="46.19765" lon="4.48069">
        <ele>903</ele>
        <time>2025-09-07T14:51:39Z</time>
      </trkpt>
      <trkpt lat="46.19765" lon="4.48068">
        <ele>903</ele>
        <time>2025-09-07T14:51:40Z</time>
      </trkpt>
      <trkpt lat="46.19765" lon="4.48066">
        <ele>903</ele>
        <time>2025-09-07T14:51:41Z</time>
      </trkpt>
      <trkpt lat="46.19765" lon="4.48066">
        <ele>903</ele>
        <time>2025-09-07T14:51:42Z</time>
      </trkpt>
      <trkpt lat="46.19765" lon="4.48066">
        <ele>903</ele>
        <time>2025-09-07T14:51:43Z</time>
      </trkpt>
      <trkpt lat="46.19765" lon="4.48065">
        <ele>903</ele>
        <time>2025-09-07T14:51:44Z</time>
      </trkpt>
      <trkpt lat="46.19766" lon="4.48064">
        <ele>903</ele>
        <time>2025-09-07T14:51:55Z</time>
      </trkpt>
      <trkpt lat="46.19766" lon="4.48063">
        <ele>903</ele>
        <time>2025-09-07T14:51:56Z</time>
      </trkpt>
      <trkpt lat="46.19766" lon="4.48058">
        <ele>903.2</ele>
        <time>2025-09-07T14:52:46Z</time>
      </trkpt>
      <trkpt lat="46.19766" lon="4.48056">
        <ele>903.2</ele>
        <time>2025-09-07T14:52:47Z</time>
      </trkpt>
      <trkpt lat="46.19767" lon="4.48054">
        <ele>903.2</ele>
        <time>2025-09-07T14:52:48Z</time>
      </trkpt>
      <trkpt lat="46.19767" lon="4.48052">
        <ele>903</ele>
        <time>2025-09-07T14:52:49Z</time>
      </trkpt>
      <trkpt lat="46.19767" lon="4.48048">
        <ele>903</ele>
        <time>2025-09-07T14:52:50Z</time>
      </trkpt>
      <trkpt lat="46.19768" lon="4.48042">
        <ele>902.6</ele>
        <time>2025-09-07T14:52:51Z</time>
      </trkpt>
      <trkpt lat="46.19769" lon="4.48036">
        <ele>902.6</ele>
        <time>2025-09-07T14:52:52Z</time>
      </trkpt>
      <trkpt lat="46.1977" lon="4.4803">
        <ele>902.4</ele>
        <time>2025-09-07T14:52:53Z</time>
      </trkpt>
      <trkpt lat="46.19771" lon="4.48025">
        <ele>902.4</ele>
        <time>2025-09-07T14:52:54Z</time>
      </trkpt>
      <trkpt lat="46.19771" lon="4.48015">
        <ele>902.4</ele>
        <time>2025-09-07T14:52:55Z</time>
      </trkpt>
      <trkpt lat="46.19771" lon="4.48009">
        <ele>901.2</ele>
        <time>2025-09-07T14:52:56Z</time>
      </trkpt>
      <trkpt lat="46.19773" lon="4.48003">
        <ele>901.4</ele>
        <time>2025-09-07T14:52:57Z</time>
      </trkpt>
      <trkpt lat="46.19773" lon="4.47998">
        <ele>901.4</ele>
        <time>2025-09-07T14:52:58Z</time>
      </trkpt>
      <trkpt lat="46.19773" lon="4.47991">
        <ele>901.4</ele>
        <time>2025-09-07T14:52:59Z</time>
      </trkpt>
      <trkpt lat="46.19773" lon="4.47986">
        <ele>901.8</ele>
        <time>2025-09-07T14:53:00Z</time>
      </trkpt>
      <trkpt lat="46.19774" lon="4.47979">
        <ele>901.8</ele>
        <time>2025-09-07T14:53:01Z</time>
      </trkpt>
      <trkpt lat="46.19775" lon="4.47973">
        <ele>902</ele>
        <time>2025-09-07T14:53:02Z</time>
      </trkpt>
      <trkpt lat="46.19775" lon="4.47966">
        <ele>902</ele>
        <time>2025-09-07T14:53:03Z</time>
      </trkpt>
      <trkpt lat="46.19774" lon="4.47959">
        <ele>901.6</ele>
        <time>2025-09-07T14:53:04Z</time>
      </trkpt>
      <trkpt lat="46.19774" lon="4.47952">
        <ele>902</ele>
        <time>2025-09-07T14:53:05Z</time>
      </trkpt>
      <trkpt lat="46.19774" lon="4.47947">
        <ele>902.4</ele>
        <time>2025-09-07T14:53:06Z</time>
      </trkpt>
      <trkpt lat="46.19775" lon="4.4794">
        <ele>902</ele>
        <time>2025-09-07T14:53:07Z</time>
      </trkpt>
      <trkpt lat="46.19776" lon="4.47935">
        <ele>902</ele>
        <time>2025-09-07T14:53:08Z</time>
      </trkpt>
      <trkpt lat="46.19778" lon="4.4793">
        <ele>902.6</ele>
        <time>2025-09-07T14:53:09Z</time>
      </trkpt>
      <trkpt lat="46.19778" lon="4.47924">
        <ele>902.8</ele>
        <time>2025-09-07T14:53:10Z</time>
      </trkpt>
      <trkpt lat="46.19779" lon="4.47919">
        <ele>903.2</ele>
        <time>2025-09-07T14:53:11Z</time>
      </trkpt>
      <trkpt lat="46.19779" lon="4.47914">
        <ele>903.2</ele>
        <time>2025-09-07T14:53:12Z</time>
      </trkpt>
      <trkpt lat="46.1978" lon="4.47908">
        <ele>903.2</ele>
        <time>2025-09-07T14:53:13Z</time>
      </trkpt>
      <trkpt lat="46.1978" lon="4.47903">
        <ele>903.2</ele>
        <time>2025-09-07T14:53:14Z</time>
      </trkpt>
      <trkpt lat="46.1978" lon="4.47896">
        <ele>903.4</ele>
        <time>2025-09-07T14:53:15Z</time>
      </trkpt>
      <trkpt lat="46.19781" lon="4.4789">
        <ele>903.8</ele>
        <time>2025-09-07T14:53:16Z</time>
      </trkpt>
      <trkpt lat="46.19781" lon="4.47884">
        <ele>903.8</ele>
        <time>2025-09-07T14:53:17Z</time>
      </trkpt>
      <trkpt lat="46.19781" lon="4.47879">
        <ele>903.8</ele>
        <time>2025-09-07T14:53:18Z</time>
      </trkpt>
      <trkpt lat="46.19781" lon="4.47873">
        <ele>903.8</ele>
        <time>2025-09-07T14:53:19Z</time>
      </trkpt>
      <trkpt lat="46.19781" lon="4.47868">
        <ele>904</ele>
        <time>2025-09-07T14:53:20Z</time>
      </trkpt>
      <trkpt lat="46.19782" lon="4.47864">
        <ele>904</ele>
        <time>2025-09-07T14:53:21Z</time>
      </trkpt>
      <trkpt lat="46.19782" lon="4.4786">
        <ele>904</ele>
        <time>2025-09-07T14:53:22Z</time>
      </trkpt>
      <trkpt lat="46.19782" lon="4.47855">
        <ele>904.4</ele>
        <time>2025-09-07T14:53:23Z</time>
      </trkpt>
      <trkpt lat="46.19783" lon="4.47851">
        <ele>904.4</ele>
        <time>2025-09-07T14:53:24Z</time>
      </trkpt>
      <trkpt lat="46.19783" lon="4.47845">
        <ele>904.6</ele>
        <time>2025-09-07T14:53:25Z</time>
      </trkpt>
      <trkpt lat="46.19783" lon="4.47841">
        <ele>905</ele>
        <time>2025-09-07T14:53:26Z</time>
      </trkpt>
      <trkpt lat="46.19783" lon="4.47837">
        <ele>905.2</ele>
        <time>2025-09-07T14:53:27Z</time>
      </trkpt>
      <trkpt lat="46.19783" lon="4.47831">
        <ele>905.2</ele>
        <time>2025-09-07T14:53:28Z</time>
      </trkpt>
      <trkpt lat="46.19783" lon="4.47826">
        <ele>905.2</ele>
        <time>2025-09-07T14:53:29Z</time>
      </trkpt>
      <trkpt lat="46.19783" lon="4.47822">
        <ele>905.2</ele>
        <time>2025-09-07T14:53:30Z</time>
      </trkpt>
      <trkpt lat="46.19783" lon="4.47816">
        <ele>905.4</ele>
        <time>2025-09-07T14:53:31Z</time>
      </trkpt>
      <trkpt lat="46.19783" lon="4.47811">
        <ele>905.4</ele>
        <time>2025-09-07T14:53:32Z</time>
      </trkpt>
      <trkpt lat="46.19783" lon="4.47807">
        <ele>905.6</ele>
        <time>2025-09-07T14:53:33Z</time>
      </trkpt>
      <trkpt lat="46.19783" lon="4.47803">
        <ele>905.6</ele>
        <time>2025-09-07T14:53:34Z</time>
      </trkpt>
      <trkpt lat="46.19782" lon="4.47793">
        <ele>905.6</ele>
        <time>2025-09-07T14:53:35Z</time>
      </trkpt>
      <trkpt lat="46.19782" lon="4.4779">
        <ele>906.2</ele>
        <time>2025-09-07T14:53:36Z</time>
      </trkpt>
      <trkpt lat="46.19782" lon="4.47785">
        <ele>906.4</ele>
        <time>2025-09-07T14:53:37Z</time>
      </trkpt>
      <trkpt lat="46.19782" lon="4.47779">
        <ele>906.6</ele>
        <time>2025-09-07T14:53:38Z</time>
      </trkpt>
      <trkpt lat="46.19781" lon="4.47773">
        <ele>906.6</ele>
        <time>2025-09-07T14:53:39Z</time>
      </trkpt>
      <trkpt lat="46.19781" lon="4.47769">
        <ele>906.6</ele>
        <time>2025-09-07T14:53:40Z</time>
      </trkpt>
      <trkpt lat="46.19781" lon="4.47764">
        <ele>906.6</ele>
        <time>2025-09-07T14:53:41Z</time>
      </trkpt>
      <trkpt lat="46.1978" lon="4.4776">
        <ele>906.8</ele>
        <time>2025-09-07T14:53:42Z</time>
      </trkpt>
      <trkpt lat="46.1978" lon="4.47755">
        <ele>906.8</ele>
        <time>2025-09-07T14:53:43Z</time>
      </trkpt>
      <trkpt lat="46.19779" lon="4.47751">
        <ele>907</ele>
        <time>2025-09-07T14:53:44Z</time>
      </trkpt>
      <trkpt lat="46.19779" lon="4.47747">
        <ele>907</ele>
        <time>2025-09-07T14:53:45Z</time>
      </trkpt>
      <trkpt lat="46.19777" lon="4.47742">
        <ele>907</ele>
        <time>2025-09-07T14:53:46Z</time>
      </trkpt>
      <trkpt lat="46.19776" lon="4.47738">
        <ele>907.4</ele>
        <time>2025-09-07T14:53:47Z</time>
      </trkpt>
      <trkpt lat="46.19775" lon="4.47734">
        <ele>907.4</ele>
        <time>2025-09-07T14:53:48Z</time>
      </trkpt>
      <trkpt lat="46.19774" lon="4.4773">
        <ele>907.4</ele>
        <time>2025-09-07T14:53:49Z</time>
      </trkpt>
      <trkpt lat="46.19774" lon="4.47726">
        <ele>907.8</ele>
        <time>2025-09-07T14:53:50Z</time>
      </trkpt>
      <trkpt lat="46.19774" lon="4.47723">
        <ele>907.8</ele>
        <time>2025-09-07T14:53:51Z</time>
      </trkpt>
      <trkpt lat="46.19772" lon="4.4772">
        <ele>907.8</ele>
        <time>2025-09-07T14:53:52Z</time>
      </trkpt>
      <trkpt lat="46.19771" lon="4.47716">
        <ele>908.2</ele>
        <time>2025-09-07T14:53:53Z</time>
      </trkpt>
      <trkpt lat="46.19769" lon="4.47711">
        <ele>908.2</ele>
        <time>2025-09-07T14:53:54Z</time>
      </trkpt>
      <trkpt lat="46.19767" lon="4.47707">
        <ele>908.6</ele>
        <time>2025-09-07T14:53:55Z</time>
      </trkpt>
      <trkpt lat="46.19765" lon="4.47703">
        <ele>908.2</ele>
        <time>2025-09-07T14:53:56Z</time>
      </trkpt>
      <trkpt lat="46.19764" lon="4.47698">
        <ele>908.2</ele>
        <time>2025-09-07T14:53:57Z</time>
      </trkpt>
      <trkpt lat="46.19763" lon="4.47693">
        <ele>908.2</ele>
        <time>2025-09-07T14:53:58Z</time>
      </trkpt>
      <trkpt lat="46.19762" lon="4.47689">
        <ele>908.2</ele>
        <time>2025-09-07T14:53:59Z</time>
      </trkpt>
      <trkpt lat="46.1976" lon="4.47684">
        <ele>908.4</ele>
        <time>2025-09-07T14:54:00Z</time>
      </trkpt>
      <trkpt lat="46.19759" lon="4.4768">
        <ele>908.4</ele>
        <time>2025-09-07T14:54:01Z</time>
      </trkpt>
      <trkpt lat="46.19757" lon="4.47676">
        <ele>909</ele>
        <time>2025-09-07T14:54:02Z</time>
      </trkpt>
      <trkpt lat="46.19756" lon="4.47672">
        <ele>909</ele>
        <time>2025-09-07T14:54:03Z</time>
      </trkpt>
      <trkpt lat="46.19754" lon="4.47668">
        <ele>909.2</ele>
        <time>2025-09-07T14:54:04Z</time>
      </trkpt>
      <trkpt lat="46.19753" lon="4.47664">
        <ele>909.2</ele>
        <time>2025-09-07T14:54:05Z</time>
      </trkpt>
      <trkpt lat="46.19751" lon="4.4766">
        <ele>909.2</ele>
        <time>2025-09-07T14:54:06Z</time>
      </trkpt>
      <trkpt lat="46.1975" lon="4.47656">
        <ele>909.2</ele>
        <time>2025-09-07T14:54:07Z</time>
      </trkpt>
      <trkpt lat="46.19748" lon="4.47652">
        <ele>909.2</ele>
        <time>2025-09-07T14:54:08Z</time>
      </trkpt>
      <trkpt lat="46.19747" lon="4.47649">
        <ele>909.2</ele>
        <time>2025-09-07T14:54:09Z</time>
      </trkpt>
      <trkpt lat="46.19745" lon="4.47645">
        <ele>909.2</ele>
        <time>2025-09-07T14:54:10Z</time>
      </trkpt>
      <trkpt lat="46.19743" lon="4.47641">
        <ele>909.4</ele>
        <time>2025-09-07T14:54:11Z</time>
      </trkpt>
      <trkpt lat="46.19741" lon="4.47637">
        <ele>909.4</ele>
        <time>2025-09-07T14:54:12Z</time>
      </trkpt>
      <trkpt lat="46.19739" lon="4.47633">
        <ele>909.4</ele>
        <time>2025-09-07T14:54:13Z</time>
      </trkpt>
      <trkpt lat="46.19737" lon="4.47629">
        <ele>909.4</ele>
        <time>2025-09-07T14:54:14Z</time>
      </trkpt>
      <trkpt lat="46.19734" lon="4.47626">
        <ele>909.2</ele>
        <time>2025-09-07T14:54:15Z</time>
      </trkpt>
      <trkpt lat="46.19731" lon="4.47622">
        <ele>909.2</ele>
        <time>2025-09-07T14:54:16Z</time>
      </trkpt>
      <trkpt lat="46.19729" lon="4.47619">
        <ele>909.2</ele>
        <time>2025-09-07T14:54:17Z</time>
      </trkpt>
      <trkpt lat="46.19727" lon="4.47618">
        <ele>909.2</ele>
        <time>2025-09-07T14:54:18Z</time>
      </trkpt>
      <trkpt lat="46.19726" lon="4.47616">
        <ele>909.2</ele>
        <time>2025-09-07T14:54:19Z</time>
      </trkpt>
      <trkpt lat="46.19725" lon="4.47615">
        <ele>909.2</ele>
        <time>2025-09-07T14:54:20Z</time>
      </trkpt>
      <trkpt lat="46.19723" lon="4.47613">
        <ele>909.2</ele>
        <time>2025-09-07T14:54:21Z</time>
      </trkpt>
      <trkpt lat="46.19722" lon="4.47612">
        <ele>909.2</ele>
        <time>2025-09-07T14:54:22Z</time>
      </trkpt>
      <trkpt lat="46.19722" lon="4.47612">
        <ele>909.2</ele>
        <time>2025-09-07T14:54:23Z</time>
      </trkpt>
      <trkpt lat="46.1972" lon="4.47611">
        <ele>909.4</ele>
        <time>2025-09-07T14:54:24Z</time>
      </trkpt>
      <trkpt lat="46.19718" lon="4.47609">
        <ele>909.4</ele>
        <time>2025-09-07T14:54:25Z</time>
      </trkpt>
      <trkpt lat="46.19717" lon="4.47608">
        <ele>909.4</ele>
        <time>2025-09-07T14:54:26Z</time>
      </trkpt>
      <trkpt lat="46.19716" lon="4.47607">
        <ele>909.4</ele>
        <time>2025-09-07T14:54:27Z</time>
      </trkpt>
      <trkpt lat="46.19717" lon="4.47608">
        <ele>909.4</ele>
        <time>2025-09-07T14:54:28Z</time>
      </trkpt>
      <trkpt lat="46.19714" lon="4.47604">
        <ele>909.2</ele>
        <time>2025-09-07T14:55:25Z</time>
      </trkpt>
      <trkpt lat="46.19712" lon="4.47602">
        <ele>908.8</ele>
        <time>2025-09-07T14:55:26Z</time>
      </trkpt>
      <trkpt lat="46.19709" lon="4.47601">
        <ele>908.8</ele>
        <time>2025-09-07T14:55:27Z</time>
      </trkpt>
      <trkpt lat="46.19707" lon="4.47599">
        <ele>908.4</ele>
        <time>2025-09-07T14:55:28Z</time>
      </trkpt>
      <trkpt lat="46.19701" lon="4.47599">
        <ele>907.8</ele>
        <time>2025-09-07T14:55:29Z</time>
      </trkpt>
      <trkpt lat="46.19698" lon="4.47596">
        <ele>907.8</ele>
        <time>2025-09-07T14:55:30Z</time>
      </trkpt>
      <trkpt lat="46.19693" lon="4.47595">
        <ele>907.2</ele>
        <time>2025-09-07T14:55:31Z</time>
      </trkpt>
      <trkpt lat="46.19688" lon="4.47593">
        <ele>907.2</ele>
        <time>2025-09-07T14:55:32Z</time>
      </trkpt>
      <trkpt lat="46.19683" lon="4.47591">
        <ele>907.2</ele>
        <time>2025-09-07T14:55:33Z</time>
      </trkpt>
      <trkpt lat="46.19677" lon="4.47588">
        <ele>906.6</ele>
        <time>2025-09-07T14:55:34Z</time>
      </trkpt>
      <trkpt lat="46.19671" lon="4.47586">
        <ele>906.2</ele>
        <time>2025-09-07T14:55:35Z</time>
      </trkpt>
      <trkpt lat="46.19664" lon="4.47584">
        <ele>905.8</ele>
        <time>2025-09-07T14:55:36Z</time>
      </trkpt>
      <trkpt lat="46.19657" lon="4.47581">
        <ele>905.4</ele>
        <time>2025-09-07T14:55:37Z</time>
      </trkpt>
      <trkpt lat="46.1965" lon="4.47578">
        <ele>904.8</ele>
        <time>2025-09-07T14:55:38Z</time>
      </trkpt>
      <trkpt lat="46.19644" lon="4.47571">
        <ele>904.4</ele>
        <time>2025-09-07T14:55:39Z</time>
      </trkpt>
      <trkpt lat="46.19636" lon="4.47567">
        <ele>904</ele>
        <time>2025-09-07T14:55:40Z</time>
      </trkpt>
      <trkpt lat="46.19628" lon="4.47563">
        <ele>903.2</ele>
        <time>2025-09-07T14:55:41Z</time>
      </trkpt>
      <trkpt lat="46.1962" lon="4.47561">
        <ele>902.6</ele>
        <time>2025-09-07T14:55:42Z</time>
      </trkpt>
      <trkpt lat="46.19612" lon="4.47556">
        <ele>902</ele>
        <time>2025-09-07T14:55:43Z</time>
      </trkpt>
      <trkpt lat="46.19604" lon="4.47553">
        <ele>901.4</ele>
        <time>2025-09-07T14:55:44Z</time>
      </trkpt>
      <trkpt lat="46.19597" lon="4.47547">
        <ele>901.4</ele>
        <time>2025-09-07T14:55:45Z</time>
      </trkpt>
      <trkpt lat="46.19589" lon="4.47544">
        <ele>901.2</ele>
        <time>2025-09-07T14:55:46Z</time>
      </trkpt>
      <trkpt lat="46.19581" lon="4.47538">
        <ele>900.8</ele>
        <time>2025-09-07T14:55:47Z</time>
      </trkpt>
      <trkpt lat="46.19574" lon="4.47533">
        <ele>900.6</ele>
        <time>2025-09-07T14:55:48Z</time>
      </trkpt>
      <trkpt lat="46.19568" lon="4.47527">
        <ele>900.6</ele>
        <time>2025-09-07T14:55:49Z</time>
      </trkpt>
      <trkpt lat="46.19561" lon="4.47523">
        <ele>901</ele>
        <time>2025-09-07T14:55:50Z</time>
      </trkpt>
      <trkpt lat="46.19555" lon="4.47518">
        <ele>901.2</ele>
        <time>2025-09-07T14:55:51Z</time>
      </trkpt>
      <trkpt lat="46.19549" lon="4.47513">
        <ele>901.2</ele>
        <time>2025-09-07T14:55:52Z</time>
      </trkpt>
      <trkpt lat="46.19543" lon="4.47508">
        <ele>901.2</ele>
        <time>2025-09-07T14:55:53Z</time>
      </trkpt>
      <trkpt lat="46.19536" lon="4.47506">
        <ele>901.2</ele>
        <time>2025-09-07T14:55:54Z</time>
      </trkpt>
      <trkpt lat="46.19531" lon="4.47503">
        <ele>901.2</ele>
        <time>2025-09-07T14:55:55Z</time>
      </trkpt>
      <trkpt lat="46.19525" lon="4.47501">
        <ele>900.6</ele>
        <time>2025-09-07T14:55:56Z</time>
      </trkpt>
      <trkpt lat="46.19519" lon="4.47496">
        <ele>900.8</ele>
        <time>2025-09-07T14:55:57Z</time>
      </trkpt>
      <trkpt lat="46.19515" lon="4.47494">
        <ele>901.2</ele>
        <time>2025-09-07T14:55:58Z</time>
      </trkpt>
      <trkpt lat="46.19509" lon="4.47491">
        <ele>901.4</ele>
        <time>2025-09-07T14:55:59Z</time>
      </trkpt>
      <trkpt lat="46.19502" lon="4.47487">
        <ele>901.4</ele>
        <time>2025-09-07T14:56:00Z</time>
      </trkpt>
      <trkpt lat="46.19497" lon="4.47486">
        <ele>901.4</ele>
        <time>2025-09-07T14:56:01Z</time>
      </trkpt>
      <trkpt lat="46.19492" lon="4.47486">
        <ele>901.4</ele>
        <time>2025-09-07T14:56:02Z</time>
      </trkpt>
      <trkpt lat="46.19487" lon="4.47483">
        <ele>901.6</ele>
        <time>2025-09-07T14:56:03Z</time>
      </trkpt>
      <trkpt lat="46.19482" lon="4.4748">
        <ele>901.6</ele>
        <time>2025-09-07T14:56:04Z</time>
      </trkpt>
      <trkpt lat="46.19475" lon="4.47479">
        <ele>901.6</ele>
        <time>2025-09-07T14:56:05Z</time>
      </trkpt>
      <trkpt lat="46.1947" lon="4.47476">
        <ele>901.6</ele>
        <time>2025-09-07T14:56:06Z</time>
      </trkpt>
      <trkpt lat="46.19465" lon="4.47475">
        <ele>901.6</ele>
        <time>2025-09-07T14:56:07Z</time>
      </trkpt>
      <trkpt lat="46.19462" lon="4.47475">
        <ele>902</ele>
        <time>2025-09-07T14:56:08Z</time>
      </trkpt>
      <trkpt lat="46.19455" lon="4.47473">
        <ele>901.6</ele>
        <time>2025-09-07T14:56:09Z</time>
      </trkpt>
      <trkpt lat="46.19448" lon="4.4747">
        <ele>901.8</ele>
        <time>2025-09-07T14:56:10Z</time>
      </trkpt>
      <trkpt lat="46.19443" lon="4.47468">
        <ele>901.8</ele>
        <time>2025-09-07T14:56:11Z</time>
      </trkpt>
      <trkpt lat="46.19437" lon="4.47468">
        <ele>901.4</ele>
        <time>2025-09-07T14:56:12Z</time>
      </trkpt>
      <trkpt lat="46.19431" lon="4.47465">
        <ele>901.4</ele>
        <time>2025-09-07T14:56:13Z</time>
      </trkpt>
      <trkpt lat="46.19425" lon="4.47462">
        <ele>901.2</ele>
        <time>2025-09-07T14:56:14Z</time>
      </trkpt>
      <trkpt lat="46.19418" lon="4.47458">
        <ele>901.2</ele>
        <time>2025-09-07T14:56:15Z</time>
      </trkpt>
      <trkpt lat="46.19412" lon="4.47454">
        <ele>901.2</ele>
        <time>2025-09-07T14:56:16Z</time>
      </trkpt>
      <trkpt lat="46.19408" lon="4.47451">
        <ele>901.4</ele>
        <time>2025-09-07T14:56:17Z</time>
      </trkpt>
      <trkpt lat="46.19403" lon="4.47448">
        <ele>901.6</ele>
        <time>2025-09-07T14:56:18Z</time>
      </trkpt>
      <trkpt lat="46.19399" lon="4.47443">
        <ele>901.6</ele>
        <time>2025-09-07T14:56:19Z</time>
      </trkpt>
      <trkpt lat="46.19395" lon="4.47438">
        <ele>902</ele>
        <time>2025-09-07T14:56:20Z</time>
      </trkpt>
      <trkpt lat="46.19391" lon="4.47434">
        <ele>902</ele>
        <time>2025-09-07T14:56:21Z</time>
      </trkpt>
      <trkpt lat="46.19386" lon="4.4743">
        <ele>902.4</ele>
        <time>2025-09-07T14:56:22Z</time>
      </trkpt>
      <trkpt lat="46.19382" lon="4.47426">
        <ele>902.4</ele>
        <time>2025-09-07T14:56:23Z</time>
      </trkpt>
      <trkpt lat="46.19377" lon="4.47423">
        <ele>902.6</ele>
        <time>2025-09-07T14:56:24Z</time>
      </trkpt>
      <trkpt lat="46.19372" lon="4.4742">
        <ele>902.6</ele>
        <time>2025-09-07T14:56:25Z</time>
      </trkpt>
      <trkpt lat="46.19368" lon="4.47417">
        <ele>903</ele>
        <time>2025-09-07T14:56:26Z</time>
      </trkpt>
      <trkpt lat="46.19363" lon="4.47414">
        <ele>903</ele>
        <time>2025-09-07T14:56:27Z</time>
      </trkpt>
      <trkpt lat="46.19359" lon="4.47412">
        <ele>903</ele>
        <time>2025-09-07T14:56:28Z</time>
      </trkpt>
      <trkpt lat="46.19354" lon="4.47409">
        <ele>903</ele>
        <time>2025-09-07T14:56:29Z</time>
      </trkpt>
      <trkpt lat="46.1935" lon="4.47406">
        <ele>903</ele>
        <time>2025-09-07T14:56:30Z</time>
      </trkpt>
      <trkpt lat="46.19345" lon="4.47404">
        <ele>903</ele>
        <time>2025-09-07T14:56:31Z</time>
      </trkpt>
      <trkpt lat="46.19341" lon="4.47401">
        <ele>902.8</ele>
        <time>2025-09-07T14:56:32Z</time>
      </trkpt>
      <trkpt lat="46.19336" lon="4.47398">
        <ele>902.8</ele>
        <time>2025-09-07T14:56:33Z</time>
      </trkpt>
      <trkpt lat="46.19331" lon="4.47393">
        <ele>902.4</ele>
        <time>2025-09-07T14:56:34Z</time>
      </trkpt>
      <trkpt lat="46.19326" lon="4.47389">
        <ele>902</ele>
        <time>2025-09-07T14:56:35Z</time>
      </trkpt>
      <trkpt lat="46.19321" lon="4.47385">
        <ele>902</ele>
        <time>2025-09-07T14:56:36Z</time>
      </trkpt>
      <trkpt lat="46.19316" lon="4.47381">
        <ele>902</ele>
        <time>2025-09-07T14:56:37Z</time>
      </trkpt>
      <trkpt lat="46.1931" lon="4.47376">
        <ele>902</ele>
        <time>2025-09-07T14:56:38Z</time>
      </trkpt>
      <trkpt lat="46.19304" lon="4.47374">
        <ele>901.8</ele>
        <time>2025-09-07T14:56:39Z</time>
      </trkpt>
      <trkpt lat="46.19298" lon="4.47372">
        <ele>901.8</ele>
        <time>2025-09-07T14:56:40Z</time>
      </trkpt>
      <trkpt lat="46.19292" lon="4.4737">
        <ele>901.8</ele>
        <time>2025-09-07T14:56:41Z</time>
      </trkpt>
      <trkpt lat="46.19286" lon="4.47369">
        <ele>901.8</ele>
        <time>2025-09-07T14:56:42Z</time>
      </trkpt>
      <trkpt lat="46.1928" lon="4.4737">
        <ele>901.6</ele>
        <time>2025-09-07T14:56:43Z</time>
      </trkpt>
      <trkpt lat="46.19274" lon="4.4737">
        <ele>901.2</ele>
        <time>2025-09-07T14:56:44Z</time>
      </trkpt>
      <trkpt lat="46.19268" lon="4.47371">
        <ele>901.2</ele>
        <time>2025-09-07T14:56:45Z</time>
      </trkpt>
      <trkpt lat="46.19261" lon="4.47373">
        <ele>900.8</ele>
        <time>2025-09-07T14:56:46Z</time>
      </trkpt>
      <trkpt lat="46.19255" lon="4.47376">
        <ele>900.6</ele>
        <time>2025-09-07T14:56:47Z</time>
      </trkpt>
      <trkpt lat="46.19249" lon="4.47379">
        <ele>900.4</ele>
        <time>2025-09-07T14:56:48Z</time>
      </trkpt>
      <trkpt lat="46.19242" lon="4.47383">
        <ele>899.8</ele>
        <time>2025-09-07T14:56:49Z</time>
      </trkpt>
      <trkpt lat="46.19235" lon="4.47386">
        <ele>899.2</ele>
        <time>2025-09-07T14:56:50Z</time>
      </trkpt>
      <trkpt lat="46.19228" lon="4.47389">
        <ele>898.6</ele>
        <time>2025-09-07T14:56:51Z</time>
      </trkpt>
      <trkpt lat="46.1922" lon="4.47393">
        <ele>898.4</ele>
        <time>2025-09-07T14:56:52Z</time>
      </trkpt>
      <trkpt lat="46.19212" lon="4.47396">
        <ele>897.6</ele>
        <time>2025-09-07T14:56:53Z</time>
      </trkpt>
      <trkpt lat="46.19204" lon="4.47397">
        <ele>897.2</ele>
        <time>2025-09-07T14:56:54Z</time>
      </trkpt>
      <trkpt lat="46.19196" lon="4.47399">
        <ele>896.6</ele>
        <time>2025-09-07T14:56:55Z</time>
      </trkpt>
      <trkpt lat="46.19189" lon="4.474">
        <ele>896.4</ele>
        <time>2025-09-07T14:56:56Z</time>
      </trkpt>
      <trkpt lat="46.19183" lon="4.47401">
        <ele>896</ele>
        <time>2025-09-07T14:56:57Z</time>
      </trkpt>
      <trkpt lat="46.19178" lon="4.47401">
        <ele>895.8</ele>
        <time>2025-09-07T14:56:58Z</time>
      </trkpt>
      <trkpt lat="46.19173" lon="4.47401">
        <ele>895.8</ele>
        <time>2025-09-07T14:56:59Z</time>
      </trkpt>
      <trkpt lat="46.19169" lon="4.47401">
        <ele>895.4</ele>
        <time>2025-09-07T14:57:00Z</time>
      </trkpt>
      <trkpt lat="46.19166" lon="4.474">
        <ele>895.4</ele>
        <time>2025-09-07T14:57:01Z</time>
      </trkpt>
      <trkpt lat="46.19163" lon="4.47399">
        <ele>895.4</ele>
        <time>2025-09-07T14:57:02Z</time>
      </trkpt>
      <trkpt lat="46.19159" lon="4.474">
        <ele>895</ele>
        <time>2025-09-07T14:57:03Z</time>
      </trkpt>
      <trkpt lat="46.19151" lon="4.47398">
        <ele>895</ele>
        <time>2025-09-07T14:57:04Z</time>
      </trkpt>
      <trkpt lat="46.19147" lon="4.47397">
        <ele>894.8</ele>
        <time>2025-09-07T14:57:05Z</time>
      </trkpt>
      <trkpt lat="46.19142" lon="4.47396">
        <ele>894.4</ele>
        <time>2025-09-07T14:57:06Z</time>
      </trkpt>
      <trkpt lat="46.19137" lon="4.47394">
        <ele>894.2</ele>
        <time>2025-09-07T14:57:07Z</time>
      </trkpt>
      <trkpt lat="46.19131" lon="4.47393">
        <ele>893.8</ele>
        <time>2025-09-07T14:57:08Z</time>
      </trkpt>
      <trkpt lat="46.19125" lon="4.47391">
        <ele>893.6</ele>
        <time>2025-09-07T14:57:09Z</time>
      </trkpt>
      <trkpt lat="46.19118" lon="4.47389">
        <ele>893</ele>
        <time>2025-09-07T14:57:10Z</time>
      </trkpt>
      <trkpt lat="46.19111" lon="4.47387">
        <ele>892.8</ele>
        <time>2025-09-07T14:57:11Z</time>
      </trkpt>
      <trkpt lat="46.19104" lon="4.47384">
        <ele>892.4</ele>
        <time>2025-09-07T14:57:12Z</time>
      </trkpt>
      <trkpt lat="46.19096" lon="4.4738">
        <ele>891.8</ele>
        <time>2025-09-07T14:57:13Z</time>
      </trkpt>
      <trkpt lat="46.19089" lon="4.47378">
        <ele>891.4</ele>
        <time>2025-09-07T14:57:14Z</time>
      </trkpt>
      <trkpt lat="46.19081" lon="4.47374">
        <ele>891</ele>
        <time>2025-09-07T14:57:15Z</time>
      </trkpt>
      <trkpt lat="46.19074" lon="4.47369">
        <ele>890.2</ele>
        <time>2025-09-07T14:57:16Z</time>
      </trkpt>
      <trkpt lat="46.19067" lon="4.47363">
        <ele>890</ele>
        <time>2025-09-07T14:57:17Z</time>
      </trkpt>
      <trkpt lat="46.19059" lon="4.47358">
        <ele>889.6</ele>
        <time>2025-09-07T14:57:18Z</time>
      </trkpt>
      <trkpt lat="46.19052" lon="4.47351">
        <ele>889.4</ele>
        <time>2025-09-07T14:57:19Z</time>
      </trkpt>
      <trkpt lat="46.19045" lon="4.47345">
        <ele>889</ele>
        <time>2025-09-07T14:57:20Z</time>
      </trkpt>
      <trkpt lat="46.19037" lon="4.4734">
        <ele>888.4</ele>
        <time>2025-09-07T14:57:21Z</time>
      </trkpt>
      <trkpt lat="46.1903" lon="4.47335">
        <ele>887.6</ele>
        <time>2025-09-07T14:57:22Z</time>
      </trkpt>
      <trkpt lat="46.1902" lon="4.47329">
        <ele>886</ele>
        <time>2025-09-07T14:57:23Z</time>
      </trkpt>
      <trkpt lat="46.1901" lon="4.47322">
        <ele>884.6</ele>
        <time>2025-09-07T14:57:24Z</time>
      </trkpt>
      <trkpt lat="46.18999" lon="4.47317">
        <ele>883</ele>
        <time>2025-09-07T14:57:25Z</time>
      </trkpt>
      <trkpt lat="46.18989" lon="4.4731">
        <ele>881.6</ele>
        <time>2025-09-07T14:57:26Z</time>
      </trkpt>
      <trkpt lat="46.1898" lon="4.47307">
        <ele>880.6</ele>
        <time>2025-09-07T14:57:27Z</time>
      </trkpt>
      <trkpt lat="46.18971" lon="4.47302">
        <ele>879.6</ele>
        <time>2025-09-07T14:57:28Z</time>
      </trkpt>
      <trkpt lat="46.18963" lon="4.47296">
        <ele>878.6</ele>
        <time>2025-09-07T14:57:29Z</time>
      </trkpt>
      <trkpt lat="46.18955" lon="4.47289">
        <ele>878.2</ele>
        <time>2025-09-07T14:57:30Z</time>
      </trkpt>
      <trkpt lat="46.18947" lon="4.47281">
        <ele>877.4</ele>
        <time>2025-09-07T14:57:31Z</time>
      </trkpt>
      <trkpt lat="46.18939" lon="4.47273">
        <ele>876.8</ele>
        <time>2025-09-07T14:57:32Z</time>
      </trkpt>
      <trkpt lat="46.18931" lon="4.47266">
        <ele>876</ele>
        <time>2025-09-07T14:57:33Z</time>
      </trkpt>
      <trkpt lat="46.18923" lon="4.47256">
        <ele>875.2</ele>
        <time>2025-09-07T14:57:34Z</time>
      </trkpt>
      <trkpt lat="46.18915" lon="4.47247">
        <ele>874.4</ele>
        <time>2025-09-07T14:57:35Z</time>
      </trkpt>
      <trkpt lat="46.18907" lon="4.47238">
        <ele>874</ele>
        <time>2025-09-07T14:57:36Z</time>
      </trkpt>
      <trkpt lat="46.18899" lon="4.47228">
        <ele>873.4</ele>
        <time>2025-09-07T14:57:37Z</time>
      </trkpt>
      <trkpt lat="46.18891" lon="4.47219">
        <ele>872</ele>
        <time>2025-09-07T14:57:38Z</time>
      </trkpt>
      <trkpt lat="46.18884" lon="4.4721">
        <ele>871.2</ele>
        <time>2025-09-07T14:57:39Z</time>
      </trkpt>
      <trkpt lat="46.18877" lon="4.472">
        <ele>870.2</ele>
        <time>2025-09-07T14:57:40Z</time>
      </trkpt>
      <trkpt lat="46.18869" lon="4.47191">
        <ele>869</ele>
        <time>2025-09-07T14:57:41Z</time>
      </trkpt>
      <trkpt lat="46.18863" lon="4.47177">
        <ele>868</ele>
        <time>2025-09-07T14:57:42Z</time>
      </trkpt>
      <trkpt lat="46.18855" lon="4.47165">
        <ele>867.2</ele>
        <time>2025-09-07T14:57:43Z</time>
      </trkpt>
      <trkpt lat="46.18848" lon="4.47153">
        <ele>866.8</ele>
        <time>2025-09-07T14:57:44Z</time>
      </trkpt>
      <trkpt lat="46.18843" lon="4.47141">
        <ele>866.2</ele>
        <time>2025-09-07T14:57:45Z</time>
      </trkpt>
      <trkpt lat="46.18837" lon="4.47128">
        <ele>865.8</ele>
        <time>2025-09-07T14:57:46Z</time>
      </trkpt>
      <trkpt lat="46.18837" lon="4.47128">
        <ele>865.2</ele>
        <time>2025-09-07T14:57:47Z</time>
      </trkpt>
      <trkpt lat="46.18831" lon="4.47115">
        <ele>864.8</ele>
        <time>2025-09-07T14:57:48Z</time>
      </trkpt>
      <trkpt lat="46.18824" lon="4.47101">
        <ele>864.4</ele>
        <time>2025-09-07T14:57:49Z</time>
      </trkpt>
      <trkpt lat="46.18819" lon="4.47089">
        <ele>864.2</ele>
        <time>2025-09-07T14:57:50Z</time>
      </trkpt>
      <trkpt lat="46.18813" lon="4.47078">
        <ele>864</ele>
        <time>2025-09-07T14:57:51Z</time>
      </trkpt>
      <trkpt lat="46.18809" lon="4.47067">
        <ele>863.2</ele>
        <time>2025-09-07T14:57:52Z</time>
      </trkpt>
      <trkpt lat="46.18802" lon="4.47057">
        <ele>862.8</ele>
        <time>2025-09-07T14:57:53Z</time>
      </trkpt>
      <trkpt lat="46.18796" lon="4.47043">
        <ele>862.8</ele>
        <time>2025-09-07T14:57:54Z</time>
      </trkpt>
      <trkpt lat="46.18788" lon="4.47034">
        <ele>862.4</ele>
        <time>2025-09-07T14:57:55Z</time>
      </trkpt>
      <trkpt lat="46.18781" lon="4.47025">
        <ele>861.8</ele>
        <time>2025-09-07T14:57:56Z</time>
      </trkpt>
      <trkpt lat="46.18772" lon="4.47018">
        <ele>861.8</ele>
        <time>2025-09-07T14:57:57Z</time>
      </trkpt>
      <trkpt lat="46.18765" lon="4.47009">
        <ele>861</ele>
        <time>2025-09-07T14:57:58Z</time>
      </trkpt>
      <trkpt lat="46.18755" lon="4.47001">
        <ele>860.4</ele>
        <time>2025-09-07T14:57:59Z</time>
      </trkpt>
      <trkpt lat="46.18746" lon="4.46994">
        <ele>860.2</ele>
        <time>2025-09-07T14:58:00Z</time>
      </trkpt>
      <trkpt lat="46.18738" lon="4.46985">
        <ele>859.8</ele>
        <time>2025-09-07T14:58:01Z</time>
      </trkpt>
      <trkpt lat="46.1873" lon="4.46977">
        <ele>859</ele>
        <time>2025-09-07T14:58:02Z</time>
      </trkpt>
      <trkpt lat="46.18721" lon="4.46969">
        <ele>858</ele>
        <time>2025-09-07T14:58:03Z</time>
      </trkpt>
      <trkpt lat="46.18712" lon="4.4696">
        <ele>857.4</ele>
        <time>2025-09-07T14:58:04Z</time>
      </trkpt>
      <trkpt lat="46.18705" lon="4.46949">
        <ele>856.6</ele>
        <time>2025-09-07T14:58:05Z</time>
      </trkpt>
      <trkpt lat="46.18696" lon="4.46939">
        <ele>856.4</ele>
        <time>2025-09-07T14:58:06Z</time>
      </trkpt>
      <trkpt lat="46.18688" lon="4.46929">
        <ele>856.2</ele>
        <time>2025-09-07T14:58:07Z</time>
      </trkpt>
      <trkpt lat="46.18679" lon="4.4692">
        <ele>855.8</ele>
        <time>2025-09-07T14:58:08Z</time>
      </trkpt>
      <trkpt lat="46.18671" lon="4.46911">
        <ele>855.4</ele>
        <time>2025-09-07T14:58:09Z</time>
      </trkpt>
      <trkpt lat="46.18662" lon="4.46903">
        <ele>855</ele>
        <time>2025-09-07T14:58:10Z</time>
      </trkpt>
      <trkpt lat="46.18654" lon="4.46897">
        <ele>854.6</ele>
        <time>2025-09-07T14:58:11Z</time>
      </trkpt>
      <trkpt lat="46.18645" lon="4.4689">
        <ele>854.2</ele>
        <time>2025-09-07T14:58:12Z</time>
      </trkpt>
      <trkpt lat="46.18635" lon="4.46884">
        <ele>853.4</ele>
        <time>2025-09-07T14:58:13Z</time>
      </trkpt>
      <trkpt lat="46.18627" lon="4.46879">
        <ele>852.8</ele>
        <time>2025-09-07T14:58:14Z</time>
      </trkpt>
      <trkpt lat="46.18618" lon="4.46874">
        <ele>852.4</ele>
        <time>2025-09-07T14:58:15Z</time>
      </trkpt>
      <trkpt lat="46.18609" lon="4.46869">
        <ele>851.8</ele>
        <time>2025-09-07T14:58:16Z</time>
      </trkpt>
      <trkpt lat="46.18601" lon="4.46864">
        <ele>850.8</ele>
        <time>2025-09-07T14:58:17Z</time>
      </trkpt>
      <trkpt lat="46.18592" lon="4.46861">
        <ele>850.8</ele>
        <time>2025-09-07T14:58:18Z</time>
      </trkpt>
      <trkpt lat="46.18584" lon="4.46855">
        <ele>850.4</ele>
        <time>2025-09-07T14:58:19Z</time>
      </trkpt>
      <trkpt lat="46.18576" lon="4.4685">
        <ele>849.8</ele>
        <time>2025-09-07T14:58:20Z</time>
      </trkpt>
      <trkpt lat="46.18567" lon="4.46845">
        <ele>849.8</ele>
        <time>2025-09-07T14:58:21Z</time>
      </trkpt>
      <trkpt lat="46.1856" lon="4.4684">
        <ele>849.8</ele>
        <time>2025-09-07T14:58:22Z</time>
      </trkpt>
      <trkpt lat="46.18553" lon="4.46835">
        <ele>849.2</ele>
        <time>2025-09-07T14:58:23Z</time>
      </trkpt>
      <trkpt lat="46.18546" lon="4.4683">
        <ele>848.8</ele>
        <time>2025-09-07T14:58:24Z</time>
      </trkpt>
      <trkpt lat="46.1854" lon="4.46828">
        <ele>848.8</ele>
        <time>2025-09-07T14:58:25Z</time>
      </trkpt>
      <trkpt lat="46.18535" lon="4.46824">
        <ele>848.4</ele>
        <time>2025-09-07T14:58:26Z</time>
      </trkpt>
      <trkpt lat="46.1853" lon="4.46821">
        <ele>848.4</ele>
        <time>2025-09-07T14:58:27Z</time>
      </trkpt>
      <trkpt lat="46.18526" lon="4.46817">
        <ele>848.4</ele>
        <time>2025-09-07T14:58:28Z</time>
      </trkpt>
      <trkpt lat="46.18522" lon="4.46815">
        <ele>848.4</ele>
        <time>2025-09-07T14:58:29Z</time>
      </trkpt>
      <trkpt lat="46.1852" lon="4.46812">
        <ele>848.4</ele>
        <time>2025-09-07T14:58:30Z</time>
      </trkpt>
      <trkpt lat="46.18517" lon="4.4681">
        <ele>848.4</ele>
        <time>2025-09-07T14:58:31Z</time>
      </trkpt>
      <trkpt lat="46.18515" lon="4.46809">
        <ele>848.4</ele>
        <time>2025-09-07T14:58:32Z</time>
      </trkpt>
      <trkpt lat="46.18514" lon="4.46806">
        <ele>848.4</ele>
        <time>2025-09-07T14:58:33Z</time>
      </trkpt>
      <trkpt lat="46.18512" lon="4.46803">
        <ele>848.4</ele>
        <time>2025-09-07T14:58:34Z</time>
      </trkpt>
      <trkpt lat="46.1851" lon="4.468">
        <ele>848.4</ele>
        <time>2025-09-07T14:58:35Z</time>
      </trkpt>
      <trkpt lat="46.1851" lon="4.46798">
        <ele>847.8</ele>
        <time>2025-09-07T14:58:36Z</time>
      </trkpt>
      <trkpt lat="46.18508" lon="4.46796">
        <ele>847.8</ele>
        <time>2025-09-07T14:58:37Z</time>
      </trkpt>
      <trkpt lat="46.18506" lon="4.46794">
        <ele>847.8</ele>
        <time>2025-09-07T14:58:38Z</time>
      </trkpt>
      <trkpt lat="46.18504" lon="4.46793">
        <ele>847.8</ele>
        <time>2025-09-07T14:58:39Z</time>
      </trkpt>
      <trkpt lat="46.18502" lon="4.46793">
        <ele>847.8</ele>
        <time>2025-09-07T14:58:40Z</time>
      </trkpt>
      <trkpt lat="46.18501" lon="4.46794">
        <ele>848.2</ele>
        <time>2025-09-07T14:58:41Z</time>
      </trkpt>
      <trkpt lat="46.18501" lon="4.46794">
        <ele>848.4</ele>
        <time>2025-09-07T14:58:42Z</time>
      </trkpt>
      <trkpt lat="46.18501" lon="4.46794">
        <ele>848.4</ele>
        <time>2025-09-07T14:58:43Z</time>
      </trkpt>
      <trkpt lat="46.185" lon="4.46793">
        <ele>848.4</ele>
        <time>2025-09-07T14:58:47Z</time>
      </trkpt>
      <trkpt lat="46.18501" lon="4.46793">
        <ele>848.4</ele>
        <time>2025-09-07T14:58:48Z</time>
      </trkpt>
      <trkpt lat="46.18501" lon="4.46792">
        <ele>848.4</ele>
        <time>2025-09-07T14:58:49Z</time>
      </trkpt>
      <trkpt lat="46.18501" lon="4.46792">
        <ele>848.4</ele>
        <time>2025-09-07T14:58:50Z</time>
      </trkpt>
      <trkpt lat="46.18502" lon="4.46792">
        <ele>848</ele>
        <time>2025-09-07T14:58:51Z</time>
      </trkpt>
      <trkpt lat="46.18502" lon="4.46791">
        <ele>848.4</ele>
        <time>2025-09-07T14:58:52Z</time>
      </trkpt>
      <trkpt lat="46.18502" lon="4.4679">
        <ele>848.4</ele>
        <time>2025-09-07T14:58:53Z</time>
      </trkpt>
      <trkpt lat="46.18502" lon="4.46789">
        <ele>848.6</ele>
        <time>2025-09-07T14:58:54Z</time>
      </trkpt>
      <trkpt lat="46.18503" lon="4.46788">
        <ele>848.6</ele>
        <time>2025-09-07T14:58:55Z</time>
      </trkpt>
      <trkpt lat="46.18503" lon="4.46787">
        <ele>848.6</ele>
        <time>2025-09-07T14:58:56Z</time>
      </trkpt>
      <trkpt lat="46.18503" lon="4.46786">
        <ele>848.6</ele>
        <time>2025-09-07T14:58:57Z</time>
      </trkpt>
      <trkpt lat="46.18501" lon="4.46786">
        <ele>848.6</ele>
        <time>2025-09-07T14:59:09Z</time>
      </trkpt>
      <trkpt lat="46.185" lon="4.46786">
        <ele>848.6</ele>
        <time>2025-09-07T14:59:10Z</time>
      </trkpt>
      <trkpt lat="46.185" lon="4.46786">
        <ele>849</ele>
        <time>2025-09-07T14:59:11Z</time>
      </trkpt>
      <trkpt lat="46.185" lon="4.46784">
        <ele>849</ele>
        <time>2025-09-07T14:59:15Z</time>
      </trkpt>
      <trkpt lat="46.185" lon="4.46784">
        <ele>849</ele>
        <time>2025-09-07T14:59:16Z</time>
      </trkpt>
      <trkpt lat="46.185" lon="4.46783">
        <ele>849</ele>
        <time>2025-09-07T14:59:17Z</time>
      </trkpt>
      <trkpt lat="46.185" lon="4.46783">
        <ele>849</ele>
        <time>2025-09-07T14:59:18Z</time>
      </trkpt>
      <trkpt lat="46.18503" lon="4.46785">
        <ele>848.8</ele>
        <time>2025-09-07T15:02:32Z</time>
      </trkpt>
      <trkpt lat="46.18502" lon="4.46785">
        <ele>848.8</ele>
        <time>2025-09-07T15:02:33Z</time>
      </trkpt>
      <trkpt lat="46.18502" lon="4.46785">
        <ele>848.8</ele>
        <time>2025-09-07T15:02:34Z</time>
      </trkpt>
      <trkpt lat="46.18502" lon="4.46785">
        <ele>848.6</ele>
        <time>2025-09-07T15:02:35Z</time>
      </trkpt>
      <trkpt lat="46.18498" lon="4.4679">
        <ele>848.6</ele>
        <time>2025-09-07T15:02:52Z</time>
      </trkpt>
      <trkpt lat="46.18497" lon="4.46791">
        <ele>848.6</ele>
        <time>2025-09-07T15:02:53Z</time>
      </trkpt>
      <trkpt lat="46.18496" lon="4.46793">
        <ele>848.6</ele>
        <time>2025-09-07T15:02:54Z</time>
      </trkpt>
      <trkpt lat="46.18494" lon="4.46794">
        <ele>848.6</ele>
        <time>2025-09-07T15:02:55Z</time>
      </trkpt>
      <trkpt lat="46.18493" lon="4.46795">
        <ele>848.6</ele>
        <time>2025-09-07T15:02:56Z</time>
      </trkpt>
      <trkpt lat="46.18491" lon="4.46797">
        <ele>848.6</ele>
        <time>2025-09-07T15:02:57Z</time>
      </trkpt>
      <trkpt lat="46.18489" lon="4.46799">
        <ele>848.6</ele>
        <time>2025-09-07T15:02:58Z</time>
      </trkpt>
      <trkpt lat="46.18487" lon="4.468">
        <ele>848.6</ele>
        <time>2025-09-07T15:02:59Z</time>
      </trkpt>
      <trkpt lat="46.18482" lon="4.46802">
        <ele>848.6</ele>
        <time>2025-09-07T15:03:00Z</time>
      </trkpt>
      <trkpt lat="46.1848" lon="4.46803">
        <ele>848.6</ele>
        <time>2025-09-07T15:03:01Z</time>
      </trkpt>
      <trkpt lat="46.18477" lon="4.46804">
        <ele>848.6</ele>
        <time>2025-09-07T15:03:02Z</time>
      </trkpt>
      <trkpt lat="46.18475" lon="4.46805">
        <ele>848.6</ele>
        <time>2025-09-07T15:03:03Z</time>
      </trkpt>
      <trkpt lat="46.18472" lon="4.46805">
        <ele>848.6</ele>
        <time>2025-09-07T15:03:04Z</time>
      </trkpt>
      <trkpt lat="46.18469" lon="4.46806">
        <ele>848.8</ele>
        <time>2025-09-07T15:03:05Z</time>
      </trkpt>
      <trkpt lat="46.18467" lon="4.46807">
        <ele>848.8</ele>
        <time>2025-09-07T15:03:06Z</time>
      </trkpt>
      <trkpt lat="46.18464" lon="4.46808">
        <ele>848.8</ele>
        <time>2025-09-07T15:03:07Z</time>
      </trkpt>
      <trkpt lat="46.18462" lon="4.46809">
        <ele>849.2</ele>
        <time>2025-09-07T15:03:08Z</time>
      </trkpt>
      <trkpt lat="46.18459" lon="4.4681">
        <ele>849.2</ele>
        <time>2025-09-07T15:03:09Z</time>
      </trkpt>
      <trkpt lat="46.18457" lon="4.46811">
        <ele>849.2</ele>
        <time>2025-09-07T15:03:10Z</time>
      </trkpt>
      <trkpt lat="46.18454" lon="4.46812">
        <ele>849.4</ele>
        <time>2025-09-07T15:03:11Z</time>
      </trkpt>
      <trkpt lat="46.18451" lon="4.46813">
        <ele>849.4</ele>
        <time>2025-09-07T15:03:12Z</time>
      </trkpt>
      <trkpt lat="46.18449" lon="4.46813">
        <ele>849.8</ele>
        <time>2025-09-07T15:03:13Z</time>
      </trkpt>
      <trkpt lat="46.18447" lon="4.46813">
        <ele>849.8</ele>
        <time>2025-09-07T15:03:14Z</time>
      </trkpt>
      <trkpt lat="46.18445" lon="4.46813">
        <ele>850</ele>
        <time>2025-09-07T15:03:15Z</time>
      </trkpt>
      <trkpt lat="46.18442" lon="4.46813">
        <ele>850</ele>
        <time>2025-09-07T15:03:16Z</time>
      </trkpt>
      <trkpt lat="46.1844" lon="4.46814">
        <ele>850</ele>
        <time>2025-09-07T15:03:17Z</time>
      </trkpt>
      <trkpt lat="46.18439" lon="4.46814">
        <ele>850.2</ele>
        <time>2025-09-07T15:03:18Z</time>
      </trkpt>
      <trkpt lat="46.18437" lon="4.46814">
        <ele>850.2</ele>
        <time>2025-09-07T15:03:19Z</time>
      </trkpt>
      <trkpt lat="46.18435" lon="4.46814">
        <ele>850.8</ele>
        <time>2025-09-07T15:03:20Z</time>
      </trkpt>
      <trkpt lat="46.18433" lon="4.46813">
        <ele>850.8</ele>
        <time>2025-09-07T15:03:21Z</time>
      </trkpt>
      <trkpt lat="46.18431" lon="4.46813">
        <ele>850.8</ele>
        <time>2025-09-07T15:03:22Z</time>
      </trkpt>
      <trkpt lat="46.18429" lon="4.46812">
        <ele>851</ele>
        <time>2025-09-07T15:03:23Z</time>
      </trkpt>
      <trkpt lat="46.18428" lon="4.46812">
        <ele>851.4</ele>
        <time>2025-09-07T15:03:24Z</time>
      </trkpt>
      <trkpt lat="46.18426" lon="4.46811">
        <ele>851.6</ele>
        <time>2025-09-07T15:03:25Z</time>
      </trkpt>
      <trkpt lat="46.18424" lon="4.46811">
        <ele>851.6</ele>
        <time>2025-09-07T15:03:26Z</time>
      </trkpt>
      <trkpt lat="46.18423" lon="4.4681">
        <ele>851</ele>
        <time>2025-09-07T15:03:27Z</time>
      </trkpt>
      <trkpt lat="46.18421" lon="4.4681">
        <ele>852.4</ele>
        <time>2025-09-07T15:03:28Z</time>
      </trkpt>
      <trkpt lat="46.1842" lon="4.4681">
        <ele>852.6</ele>
        <time>2025-09-07T15:03:29Z</time>
      </trkpt>
      <trkpt lat="46.18418" lon="4.4681">
        <ele>852.6</ele>
        <time>2025-09-07T15:03:30Z</time>
      </trkpt>
      <trkpt lat="46.18417" lon="4.46809">
        <ele>853</ele>
        <time>2025-09-07T15:03:31Z</time>
      </trkpt>
      <trkpt lat="46.18415" lon="4.46809">
        <ele>853</ele>
        <time>2025-09-07T15:03:32Z</time>
      </trkpt>
      <trkpt lat="46.18413" lon="4.46809">
        <ele>851.6</ele>
        <time>2025-09-07T15:03:33Z</time>
      </trkpt>
      <trkpt lat="46.18411" lon="4.46808">
        <ele>852.4</ele>
        <time>2025-09-07T15:03:34Z</time>
      </trkpt>
      <trkpt lat="46.18409" lon="4.46808">
        <ele>852.8</ele>
        <time>2025-09-07T15:03:35Z</time>
      </trkpt>
      <trkpt lat="46.18407" lon="4.46807">
        <ele>852.8</ele>
        <time>2025-09-07T15:03:36Z</time>
      </trkpt>
      <trkpt lat="46.18405" lon="4.46807">
        <ele>852.8</ele>
        <time>2025-09-07T15:03:37Z</time>
      </trkpt>
      <trkpt lat="46.18403" lon="4.46807">
        <ele>853</ele>
        <time>2025-09-07T15:03:38Z</time>
      </trkpt>
      <trkpt lat="46.18402" lon="4.46807">
        <ele>853.4</ele>
        <time>2025-09-07T15:03:39Z</time>
      </trkpt>
      <trkpt lat="46.18399" lon="4.46807">
        <ele>853.8</ele>
        <time>2025-09-07T15:03:40Z</time>
      </trkpt>
      <trkpt lat="46.18397" lon="4.46807">
        <ele>853.8</ele>
        <time>2025-09-07T15:03:41Z</time>
      </trkpt>
      <trkpt lat="46.18395" lon="4.46806">
        <ele>853.8</ele>
        <time>2025-09-07T15:03:42Z</time>
      </trkpt>
      <trkpt lat="46.18392" lon="4.46807">
        <ele>853.8</ele>
        <time>2025-09-07T15:03:43Z</time>
      </trkpt>
      <trkpt lat="46.1839" lon="4.46807">
        <ele>853.8</ele>
        <time>2025-09-07T15:03:44Z</time>
      </trkpt>
      <trkpt lat="46.18387" lon="4.46807">
        <ele>853.8</ele>
        <time>2025-09-07T15:03:45Z</time>
      </trkpt>
      <trkpt lat="46.18385" lon="4.46807">
        <ele>853.8</ele>
        <time>2025-09-07T15:03:46Z</time>
      </trkpt>
      <trkpt lat="46.18385" lon="4.46807">
        <ele>854</ele>
        <time>2025-09-07T15:03:47Z</time>
      </trkpt>
      <trkpt lat="46.18382" lon="4.46807">
        <ele>854</ele>
        <time>2025-09-07T15:03:48Z</time>
      </trkpt>
      <trkpt lat="46.1838" lon="4.46807">
        <ele>854</ele>
        <time>2025-09-07T15:03:49Z</time>
      </trkpt>
      <trkpt lat="46.18377" lon="4.46807">
        <ele>854</ele>
        <time>2025-09-07T15:03:50Z</time>
      </trkpt>
      <trkpt lat="46.18374" lon="4.46807">
        <ele>854</ele>
        <time>2025-09-07T15:03:51Z</time>
      </trkpt>
      <trkpt lat="46.18372" lon="4.46808">
        <ele>854</ele>
        <time>2025-09-07T15:03:52Z</time>
      </trkpt>
      <trkpt lat="46.18369" lon="4.46809">
        <ele>854</ele>
        <time>2025-09-07T15:03:53Z</time>
      </trkpt>
      <trkpt lat="46.18366" lon="4.4681">
        <ele>854.4</ele>
        <time>2025-09-07T15:03:54Z</time>
      </trkpt>
      <trkpt lat="46.18364" lon="4.46811">
        <ele>854.4</ele>
        <time>2025-09-07T15:03:55Z</time>
      </trkpt>
      <trkpt lat="46.18361" lon="4.46812">
        <ele>854.4</ele>
        <time>2025-09-07T15:03:56Z</time>
      </trkpt>
      <trkpt lat="46.18358" lon="4.46813">
        <ele>854.4</ele>
        <time>2025-09-07T15:03:57Z</time>
      </trkpt>
      <trkpt lat="46.18356" lon="4.46814">
        <ele>854.4</ele>
        <time>2025-09-07T15:03:58Z</time>
      </trkpt>
      <trkpt lat="46.18352" lon="4.46815">
        <ele>854.4</ele>
        <time>2025-09-07T15:03:59Z</time>
      </trkpt>
      <trkpt lat="46.18349" lon="4.46815">
        <ele>854</ele>
        <time>2025-09-07T15:04:00Z</time>
      </trkpt>
      <trkpt lat="46.18345" lon="4.46816">
        <ele>854</ele>
        <time>2025-09-07T15:04:01Z</time>
      </trkpt>
      <trkpt lat="46.18342" lon="4.46817">
        <ele>854.2</ele>
        <time>2025-09-07T15:04:02Z</time>
      </trkpt>
      <trkpt lat="46.18339" lon="4.46818">
        <ele>854.4</ele>
        <time>2025-09-07T15:04:03Z</time>
      </trkpt>
      <trkpt lat="46.18337" lon="4.4682">
        <ele>854.4</ele>
        <time>2025-09-07T15:04:04Z</time>
      </trkpt>
      <trkpt lat="46.18335" lon="4.46821">
        <ele>854.4</ele>
        <time>2025-09-07T15:04:05Z</time>
      </trkpt>
      <trkpt lat="46.18333" lon="4.46822">
        <ele>854</ele>
        <time>2025-09-07T15:04:06Z</time>
      </trkpt>
      <trkpt lat="46.18331" lon="4.46824">
        <ele>854</ele>
        <time>2025-09-07T15:04:07Z</time>
      </trkpt>
      <trkpt lat="46.1833" lon="4.46826">
        <ele>854</ele>
        <time>2025-09-07T15:04:08Z</time>
      </trkpt>
      <trkpt lat="46.18328" lon="4.46827">
        <ele>853.8</ele>
        <time>2025-09-07T15:04:09Z</time>
      </trkpt>
      <trkpt lat="46.18325" lon="4.46829">
        <ele>853.8</ele>
        <time>2025-09-07T15:04:10Z</time>
      </trkpt>
      <trkpt lat="46.18322" lon="4.46832">
        <ele>853.8</ele>
        <time>2025-09-07T15:04:11Z</time>
      </trkpt>
      <trkpt lat="46.18317" lon="4.46833">
        <ele>853.2</ele>
        <time>2025-09-07T15:04:12Z</time>
      </trkpt>
      <trkpt lat="46.18314" lon="4.46835">
        <ele>852.8</ele>
        <time>2025-09-07T15:04:13Z</time>
      </trkpt>
      <trkpt lat="46.1831" lon="4.46836">
        <ele>852.8</ele>
        <time>2025-09-07T15:04:14Z</time>
      </trkpt>
      <trkpt lat="46.18307" lon="4.46835">
        <ele>852.8</ele>
        <time>2025-09-07T15:04:15Z</time>
      </trkpt>
      <trkpt lat="46.18306" lon="4.4684">
        <ele>852.8</ele>
        <time>2025-09-07T15:04:16Z</time>
      </trkpt>
      <trkpt lat="46.18301" lon="4.46841">
        <ele>852.8</ele>
        <time>2025-09-07T15:04:17Z</time>
      </trkpt>
      <trkpt lat="46.18298" lon="4.46844">
        <ele>852.8</ele>
        <time>2025-09-07T15:04:18Z</time>
      </trkpt>
      <trkpt lat="46.18295" lon="4.46847">
        <ele>853</ele>
        <time>2025-09-07T15:04:19Z</time>
      </trkpt>
      <trkpt lat="46.1829" lon="4.46846">
        <ele>852.4</ele>
        <time>2025-09-07T15:04:20Z</time>
      </trkpt>
      <trkpt lat="46.18287" lon="4.46848">
        <ele>852.4</ele>
        <time>2025-09-07T15:04:21Z</time>
      </trkpt>
      <trkpt lat="46.18284" lon="4.46851">
        <ele>852</ele>
        <time>2025-09-07T15:04:22Z</time>
      </trkpt>
      <trkpt lat="46.18282" lon="4.46852">
        <ele>851.8</ele>
        <time>2025-09-07T15:04:23Z</time>
      </trkpt>
      <trkpt lat="46.18278" lon="4.46852">
        <ele>851.8</ele>
        <time>2025-09-07T15:04:24Z</time>
      </trkpt>
      <trkpt lat="46.18275" lon="4.46853">
        <ele>852.2</ele>
        <time>2025-09-07T15:04:25Z</time>
      </trkpt>
      <trkpt lat="46.18273" lon="4.46854">
        <ele>852.2</ele>
        <time>2025-09-07T15:04:26Z</time>
      </trkpt>
      <trkpt lat="46.18272" lon="4.46856">
        <ele>852.2</ele>
        <time>2025-09-07T15:04:27Z</time>
      </trkpt>
      <trkpt lat="46.18269" lon="4.46859">
        <ele>852.6</ele>
        <time>2025-09-07T15:04:28Z</time>
      </trkpt>
      <trkpt lat="46.18267" lon="4.46861">
        <ele>852.6</ele>
        <time>2025-09-07T15:04:29Z</time>
      </trkpt>
      <trkpt lat="46.18265" lon="4.46863">
        <ele>852.6</ele>
        <time>2025-09-07T15:04:30Z</time>
      </trkpt>
      <trkpt lat="46.18261" lon="4.46865">
        <ele>852.6</ele>
        <time>2025-09-07T15:04:31Z</time>
      </trkpt>
      <trkpt lat="46.18257" lon="4.46868">
        <ele>852.4</ele>
        <time>2025-09-07T15:04:32Z</time>
      </trkpt>
      <trkpt lat="46.18254" lon="4.4687">
        <ele>852.4</ele>
        <time>2025-09-07T15:04:33Z</time>
      </trkpt>
      <trkpt lat="46.1825" lon="4.46871">
        <ele>852</ele>
        <time>2025-09-07T15:04:34Z</time>
      </trkpt>
      <trkpt lat="46.18247" lon="4.46872">
        <ele>852</ele>
        <time>2025-09-07T15:04:35Z</time>
      </trkpt>
      <trkpt lat="46.18244" lon="4.46873">
        <ele>851.6</ele>
        <time>2025-09-07T15:04:36Z</time>
      </trkpt>
      <trkpt lat="46.1824" lon="4.46875">
        <ele>851.6</ele>
        <time>2025-09-07T15:04:37Z</time>
      </trkpt>
      <trkpt lat="46.18237" lon="4.46876">
        <ele>851.4</ele>
        <time>2025-09-07T15:04:38Z</time>
      </trkpt>
      <trkpt lat="46.18233" lon="4.46878">
        <ele>852</ele>
        <time>2025-09-07T15:04:39Z</time>
      </trkpt>
      <trkpt lat="46.1823" lon="4.46879">
        <ele>852</ele>
        <time>2025-09-07T15:04:40Z</time>
      </trkpt>
      <trkpt lat="46.18227" lon="4.46881">
        <ele>852</ele>
        <time>2025-09-07T15:04:41Z</time>
      </trkpt>
      <trkpt lat="46.18224" lon="4.46882">
        <ele>852</ele>
        <time>2025-09-07T15:04:42Z</time>
      </trkpt>
      <trkpt lat="46.18221" lon="4.46883">
        <ele>852</ele>
        <time>2025-09-07T15:04:43Z</time>
      </trkpt>
      <trkpt lat="46.18218" lon="4.46885">
        <ele>852.4</ele>
        <time>2025-09-07T15:04:44Z</time>
      </trkpt>
      <trkpt lat="46.18215" lon="4.46885">
        <ele>852.4</ele>
        <time>2025-09-07T15:04:45Z</time>
      </trkpt>
      <trkpt lat="46.18213" lon="4.46886">
        <ele>852</ele>
        <time>2025-09-07T15:04:46Z</time>
      </trkpt>
      <trkpt lat="46.1821" lon="4.46886">
        <ele>852</ele>
        <time>2025-09-07T15:04:47Z</time>
      </trkpt>
      <trkpt lat="46.18209" lon="4.46887">
        <ele>852</ele>
        <time>2025-09-07T15:04:48Z</time>
      </trkpt>
      <trkpt lat="46.18206" lon="4.46888">
        <ele>852</ele>
        <time>2025-09-07T15:04:49Z</time>
      </trkpt>
      <trkpt lat="46.18203" lon="4.4689">
        <ele>852</ele>
        <time>2025-09-07T15:04:50Z</time>
      </trkpt>
      <trkpt lat="46.18198" lon="4.46892">
        <ele>851.6</ele>
        <time>2025-09-07T15:04:51Z</time>
      </trkpt>
      <trkpt lat="46.18196" lon="4.46892">
        <ele>851.6</ele>
        <time>2025-09-07T15:04:52Z</time>
      </trkpt>
      <trkpt lat="46.18193" lon="4.46892">
        <ele>851.6</ele>
        <time>2025-09-07T15:04:53Z</time>
      </trkpt>
      <trkpt lat="46.18192" lon="4.46892">
        <ele>851.8</ele>
        <time>2025-09-07T15:04:54Z</time>
      </trkpt>
      <trkpt lat="46.1819" lon="4.46893">
        <ele>851.8</ele>
        <time>2025-09-07T15:04:55Z</time>
      </trkpt>
      <trkpt lat="46.18188" lon="4.46894">
        <ele>851.8</ele>
        <time>2025-09-07T15:04:56Z</time>
      </trkpt>
      <trkpt lat="46.18185" lon="4.46893">
        <ele>851.2</ele>
        <time>2025-09-07T15:04:57Z</time>
      </trkpt>
      <trkpt lat="46.18183" lon="4.46892">
        <ele>851.2</ele>
        <time>2025-09-07T15:04:58Z</time>
      </trkpt>
      <trkpt lat="46.18183" lon="4.46892">
        <ele>851.8</ele>
        <time>2025-09-07T15:04:59Z</time>
      </trkpt>
      <trkpt lat="46.18181" lon="4.46893">
        <ele>851.8</ele>
        <time>2025-09-07T15:05:00Z</time>
      </trkpt>
      <trkpt lat="46.1818" lon="4.46894">
        <ele>852.2</ele>
        <time>2025-09-07T15:05:01Z</time>
      </trkpt>
      <trkpt lat="46.1818" lon="4.46894">
        <ele>852.2</ele>
        <time>2025-09-07T15:05:02Z</time>
      </trkpt>
      <trkpt lat="46.18181" lon="4.46893">
        <ele>852.4</ele>
        <time>2025-09-07T15:05:03Z</time>
      </trkpt>
      <trkpt lat="46.18181" lon="4.46893">
        <ele>852.4</ele>
        <time>2025-09-07T15:05:04Z</time>
      </trkpt>
      <trkpt lat="46.1818" lon="4.46893">
        <ele>852.4</ele>
        <time>2025-09-07T15:05:05Z</time>
      </trkpt>
      <trkpt lat="46.18179" lon="4.46893">
        <ele>852.4</ele>
        <time>2025-09-07T15:05:06Z</time>
      </trkpt>
      <trkpt lat="46.18177" lon="4.46893">
        <ele>852.4</ele>
        <time>2025-09-07T15:05:07Z</time>
      </trkpt>
      <trkpt lat="46.18174" lon="4.46894">
        <ele>852.4</ele>
        <time>2025-09-07T15:05:08Z</time>
      </trkpt>
      <trkpt lat="46.18173" lon="4.46894">
        <ele>852.4</ele>
        <time>2025-09-07T15:05:09Z</time>
      </trkpt>
      <trkpt lat="46.18171" lon="4.46893">
        <ele>852.4</ele>
        <time>2025-09-07T15:05:10Z</time>
      </trkpt>
      <trkpt lat="46.18169" lon="4.46893">
        <ele>852.4</ele>
        <time>2025-09-07T15:05:11Z</time>
      </trkpt>
      <trkpt lat="46.18167" lon="4.46893">
        <ele>853</ele>
        <time>2025-09-07T15:05:12Z</time>
      </trkpt>
      <trkpt lat="46.18165" lon="4.46893">
        <ele>853</ele>
        <time>2025-09-07T15:05:13Z</time>
      </trkpt>
      <trkpt lat="46.18163" lon="4.46893">
        <ele>853</ele>
        <time>2025-09-07T15:05:14Z</time>
      </trkpt>
      <trkpt lat="46.18161" lon="4.46892">
        <ele>853</ele>
        <time>2025-09-07T15:05:15Z</time>
      </trkpt>
      <trkpt lat="46.18159" lon="4.46892">
        <ele>852.8</ele>
        <time>2025-09-07T15:05:16Z</time>
      </trkpt>
      <trkpt lat="46.18157" lon="4.4689">
        <ele>852.8</ele>
        <time>2025-09-07T15:05:17Z</time>
      </trkpt>
      <trkpt lat="46.18155" lon="4.46888">
        <ele>853.2</ele>
        <time>2025-09-07T15:05:18Z</time>
      </trkpt>
      <trkpt lat="46.18153" lon="4.46885">
        <ele>853.2</ele>
        <time>2025-09-07T15:05:19Z</time>
      </trkpt>
      <trkpt lat="46.18152" lon="4.46883">
        <ele>853.2</ele>
        <time>2025-09-07T15:05:20Z</time>
      </trkpt>
      <trkpt lat="46.1815" lon="4.46882">
        <ele>853.2</ele>
        <time>2025-09-07T15:05:21Z</time>
      </trkpt>
      <trkpt lat="46.18149" lon="4.46882">
        <ele>853.2</ele>
        <time>2025-09-07T15:05:22Z</time>
      </trkpt>
      <trkpt lat="46.18147" lon="4.46882">
        <ele>853.2</ele>
        <time>2025-09-07T15:05:23Z</time>
      </trkpt>
      <trkpt lat="46.18145" lon="4.46883">
        <ele>853.2</ele>
        <time>2025-09-07T15:05:24Z</time>
      </trkpt>
      <trkpt lat="46.18142" lon="4.46883">
        <ele>852.8</ele>
        <time>2025-09-07T15:05:25Z</time>
      </trkpt>
      <trkpt lat="46.1814" lon="4.46883">
        <ele>852.8</ele>
        <time>2025-09-07T15:05:26Z</time>
      </trkpt>
      <trkpt lat="46.18138" lon="4.46883">
        <ele>852.4</ele>
        <time>2025-09-07T15:05:27Z</time>
      </trkpt>
      <trkpt lat="46.18135" lon="4.46884">
        <ele>852.4</ele>
        <time>2025-09-07T15:05:28Z</time>
      </trkpt>
      <trkpt lat="46.18133" lon="4.46884">
        <ele>852.4</ele>
        <time>2025-09-07T15:05:29Z</time>
      </trkpt>
      <trkpt lat="46.1813" lon="4.46885">
        <ele>852.4</ele>
        <time>2025-09-07T15:05:30Z</time>
      </trkpt>
      <trkpt lat="46.18127" lon="4.46887">
        <ele>852.4</ele>
        <time>2025-09-07T15:05:31Z</time>
      </trkpt>
      <trkpt lat="46.18126" lon="4.46888">
        <ele>852.4</ele>
        <time>2025-09-07T15:05:32Z</time>
      </trkpt>
      <trkpt lat="46.18124" lon="4.46889">
        <ele>852.2</ele>
        <time>2025-09-07T15:05:33Z</time>
      </trkpt>
      <trkpt lat="46.18123" lon="4.4689">
        <ele>852.2</ele>
        <time>2025-09-07T15:05:34Z</time>
      </trkpt>
      <trkpt lat="46.18122" lon="4.46891">
        <ele>852</ele>
        <time>2025-09-07T15:05:35Z</time>
      </trkpt>
      <trkpt lat="46.18122" lon="4.46892">
        <ele>852</ele>
        <time>2025-09-07T15:05:36Z</time>
      </trkpt>
      <trkpt lat="46.1812" lon="4.4689">
        <ele>851.8</ele>
        <time>2025-09-07T15:05:45Z</time>
      </trkpt>
      <trkpt lat="46.18118" lon="4.46889">
        <ele>851.8</ele>
        <time>2025-09-07T15:05:46Z</time>
      </trkpt>
      <trkpt lat="46.18116" lon="4.46887">
        <ele>851.8</ele>
        <time>2025-09-07T15:05:47Z</time>
      </trkpt>
      <trkpt lat="46.18115" lon="4.46887">
        <ele>851.8</ele>
        <time>2025-09-07T15:05:48Z</time>
      </trkpt>
      <trkpt lat="46.18114" lon="4.46886">
        <ele>851.8</ele>
        <time>2025-09-07T15:05:49Z</time>
      </trkpt>
      <trkpt lat="46.18112" lon="4.46885">
        <ele>851.8</ele>
        <time>2025-09-07T15:05:50Z</time>
      </trkpt>
      <trkpt lat="46.1811" lon="4.46884">
        <ele>851.8</ele>
        <time>2025-09-07T15:05:51Z</time>
      </trkpt>
      <trkpt lat="46.18109" lon="4.46884">
        <ele>851.8</ele>
        <time>2025-09-07T15:05:52Z</time>
      </trkpt>
      <trkpt lat="46.18107" lon="4.46883">
        <ele>851.8</ele>
        <time>2025-09-07T15:05:53Z</time>
      </trkpt>
      <trkpt lat="46.18106" lon="4.46882">
        <ele>851.8</ele>
        <time>2025-09-07T15:05:54Z</time>
      </trkpt>
      <trkpt lat="46.18106" lon="4.46881">
        <ele>851.8</ele>
        <time>2025-09-07T15:05:55Z</time>
      </trkpt>
      <trkpt lat="46.18104" lon="4.4688">
        <ele>851.8</ele>
        <time>2025-09-07T15:05:56Z</time>
      </trkpt>
      <trkpt lat="46.18103" lon="4.4688">
        <ele>851.8</ele>
        <time>2025-09-07T15:05:57Z</time>
      </trkpt>
      <trkpt lat="46.18102" lon="4.46879">
        <ele>851.8</ele>
        <time>2025-09-07T15:05:58Z</time>
      </trkpt>
      <trkpt lat="46.181" lon="4.46878">
        <ele>851.8</ele>
        <time>2025-09-07T15:05:59Z</time>
      </trkpt>
      <trkpt lat="46.18099" lon="4.46877">
        <ele>851.8</ele>
        <time>2025-09-07T15:06:00Z</time>
      </trkpt>
      <trkpt lat="46.18098" lon="4.46876">
        <ele>851.8</ele>
        <time>2025-09-07T15:06:01Z</time>
      </trkpt>
      <trkpt lat="46.18096" lon="4.46876">
        <ele>851.4</ele>
        <time>2025-09-07T15:06:02Z</time>
      </trkpt>
      <trkpt lat="46.18095" lon="4.46875">
        <ele>851.4</ele>
        <time>2025-09-07T15:06:03Z</time>
      </trkpt>
      <trkpt lat="46.18095" lon="4.46875">
        <ele>851.4</ele>
        <time>2025-09-07T15:06:04Z</time>
      </trkpt>
      <trkpt lat="46.18094" lon="4.46874">
        <ele>851.4</ele>
        <time>2025-09-07T15:06:05Z</time>
      </trkpt>
      <trkpt lat="46.18092" lon="4.46874">
        <ele>851.8</ele>
        <time>2025-09-07T15:06:11Z</time>
      </trkpt>
      <trkpt lat="46.1809" lon="4.46874">
        <ele>851.8</ele>
        <time>2025-09-07T15:06:12Z</time>
      </trkpt>
      <trkpt lat="46.18088" lon="4.46875">
        <ele>852</ele>
        <time>2025-09-07T15:06:13Z</time>
      </trkpt>
      <trkpt lat="46.18085" lon="4.46877">
        <ele>852</ele>
        <time>2025-09-07T15:06:14Z</time>
      </trkpt>
      <trkpt lat="46.18082" lon="4.46878">
        <ele>851.6</ele>
        <time>2025-09-07T15:06:15Z</time>
      </trkpt>
      <trkpt lat="46.1808" lon="4.46879">
        <ele>851.6</ele>
        <time>2025-09-07T15:06:16Z</time>
      </trkpt>
      <trkpt lat="46.18077" lon="4.4688">
        <ele>851.6</ele>
        <time>2025-09-07T15:06:17Z</time>
      </trkpt>
      <trkpt lat="46.18074" lon="4.46882">
        <ele>852</ele>
        <time>2025-09-07T15:06:18Z</time>
      </trkpt>
      <trkpt lat="46.18072" lon="4.46883">
        <ele>852</ele>
        <time>2025-09-07T15:06:19Z</time>
      </trkpt>
      <trkpt lat="46.18071" lon="4.46883">
        <ele>852</ele>
        <time>2025-09-07T15:06:20Z</time>
      </trkpt>
      <trkpt lat="46.18067" lon="4.46883">
        <ele>852.8</ele>
        <time>2025-09-07T15:06:21Z</time>
      </trkpt>
      <trkpt lat="46.18066" lon="4.46883">
        <ele>852.8</ele>
        <time>2025-09-07T15:06:22Z</time>
      </trkpt>
      <trkpt lat="46.18065" lon="4.46883">
        <ele>852.8</ele>
        <time>2025-09-07T15:06:23Z</time>
      </trkpt>
      <trkpt lat="46.18063" lon="4.46884">
        <ele>853.2</ele>
        <time>2025-09-07T15:06:24Z</time>
      </trkpt>
      <trkpt lat="46.18061" lon="4.46883">
        <ele>853.2</ele>
        <time>2025-09-07T15:06:25Z</time>
      </trkpt>
      <trkpt lat="46.1806" lon="4.46882">
        <ele>853.2</ele>
        <time>2025-09-07T15:06:26Z</time>
      </trkpt>
      <trkpt lat="46.18059" lon="4.46882">
        <ele>853.2</ele>
        <time>2025-09-07T15:06:27Z</time>
      </trkpt>
      <trkpt lat="46.18058" lon="4.46882">
        <ele>853.8</ele>
        <time>2025-09-07T15:06:28Z</time>
      </trkpt>
      <trkpt lat="46.18057" lon="4.46881">
        <ele>853.8</ele>
        <time>2025-09-07T15:06:29Z</time>
      </trkpt>
      <trkpt lat="46.18056" lon="4.46881">
        <ele>854.2</ele>
        <time>2025-09-07T15:06:30Z</time>
      </trkpt>
      <trkpt lat="46.18054" lon="4.46882">
        <ele>854.2</ele>
        <time>2025-09-07T15:06:31Z</time>
      </trkpt>
      <trkpt lat="46.18052" lon="4.46882">
        <ele>854.2</ele>
        <time>2025-09-07T15:06:32Z</time>
      </trkpt>
      <trkpt lat="46.1805" lon="4.46883">
        <ele>854.2</ele>
        <time>2025-09-07T15:06:33Z</time>
      </trkpt>
      <trkpt lat="46.18048" lon="4.46883">
        <ele>854.2</ele>
        <time>2025-09-07T15:06:34Z</time>
      </trkpt>
      <trkpt lat="46.18047" lon="4.46883">
        <ele>854.6</ele>
        <time>2025-09-07T15:06:35Z</time>
      </trkpt>
      <trkpt lat="46.18045" lon="4.46883">
        <ele>854.6</ele>
        <time>2025-09-07T15:06:36Z</time>
      </trkpt>
      <trkpt lat="46.18043" lon="4.46883">
        <ele>854.6</ele>
        <time>2025-09-07T15:06:37Z</time>
      </trkpt>
      <trkpt lat="46.18042" lon="4.46882">
        <ele>854.6</ele>
        <time>2025-09-07T15:06:38Z</time>
      </trkpt>
      <trkpt lat="46.1804" lon="4.46882">
        <ele>854.6</ele>
        <time>2025-09-07T15:06:39Z</time>
      </trkpt>
      <trkpt lat="46.18038" lon="4.46881">
        <ele>854.6</ele>
        <time>2025-09-07T15:06:40Z</time>
      </trkpt>
      <trkpt lat="46.18036" lon="4.4688">
        <ele>854.6</ele>
        <time>2025-09-07T15:06:41Z</time>
      </trkpt>
      <trkpt lat="46.18035" lon="4.4688">
        <ele>854.6</ele>
        <time>2025-09-07T15:06:42Z</time>
      </trkpt>
      <trkpt lat="46.18033" lon="4.4688">
        <ele>854.6</ele>
        <time>2025-09-07T15:06:43Z</time>
      </trkpt>
      <trkpt lat="46.18032" lon="4.4688">
        <ele>855</ele>
        <time>2025-09-07T15:06:44Z</time>
      </trkpt>
      <trkpt lat="46.18032" lon="4.4688">
        <ele>855</ele>
        <time>2025-09-07T15:06:45Z</time>
      </trkpt>
      <trkpt lat="46.18032" lon="4.4688">
        <ele>855.2</ele>
        <time>2025-09-07T15:06:46Z</time>
      </trkpt>
      <trkpt lat="46.18029" lon="4.4688">
        <ele>855.4</ele>
        <time>2025-09-07T15:06:50Z</time>
      </trkpt>
      <trkpt lat="46.18028" lon="4.4688">
        <ele>855.4</ele>
        <time>2025-09-07T15:06:51Z</time>
      </trkpt>
      <trkpt lat="46.18027" lon="4.4688">
        <ele>855.4</ele>
        <time>2025-09-07T15:06:52Z</time>
      </trkpt>
      <trkpt lat="46.18026" lon="4.4688">
        <ele>855.4</ele>
        <time>2025-09-07T15:06:53Z</time>
      </trkpt>
      <trkpt lat="46.18025" lon="4.4688">
        <ele>855.4</ele>
        <time>2025-09-07T15:06:54Z</time>
      </trkpt>
      <trkpt lat="46.18025" lon="4.46881">
        <ele>855.4</ele>
        <time>2025-09-07T15:06:55Z</time>
      </trkpt>
      <trkpt lat="46.18022" lon="4.46882">
        <ele>855.4</ele>
        <time>2025-09-07T15:07:03Z</time>
      </trkpt>
      <trkpt lat="46.18022" lon="4.46883">
        <ele>855.4</ele>
        <time>2025-09-07T15:07:04Z</time>
      </trkpt>
      <trkpt lat="46.18022" lon="4.46883">
        <ele>855.4</ele>
        <time>2025-09-07T15:07:05Z</time>
      </trkpt>
      <trkpt lat="46.18019" lon="4.46885">
        <ele>855.4</ele>
        <time>2025-09-07T15:07:08Z</time>
      </trkpt>
      <trkpt lat="46.18018" lon="4.46885">
        <ele>855.4</ele>
        <time>2025-09-07T15:07:09Z</time>
      </trkpt>
      <trkpt lat="46.18017" lon="4.46885">
        <ele>855.4</ele>
        <time>2025-09-07T15:07:10Z</time>
      </trkpt>
      <trkpt lat="46.18016" lon="4.46884">
        <ele>855.4</ele>
        <time>2025-09-07T15:07:11Z</time>
      </trkpt>
      <trkpt lat="46.18016" lon="4.46884">
        <ele>855.4</ele>
        <time>2025-09-07T15:07:12Z</time>
      </trkpt>
      <trkpt lat="46.18016" lon="4.46884">
        <ele>855.4</ele>
        <time>2025-09-07T15:07:13Z</time>
      </trkpt>
      <trkpt lat="46.18015" lon="4.46884">
        <ele>855.4</ele>
        <time>2025-09-07T15:07:14Z</time>
      </trkpt>
      <trkpt lat="46.18014" lon="4.46883">
        <ele>855.4</ele>
        <time>2025-09-07T15:07:15Z</time>
      </trkpt>
      <trkpt lat="46.18013" lon="4.46883">
        <ele>855.4</ele>
        <time>2025-09-07T15:07:16Z</time>
      </trkpt>
      <trkpt lat="46.18012" lon="4.46883">
        <ele>855.4</ele>
        <time>2025-09-07T15:07:17Z</time>
      </trkpt>
      <trkpt lat="46.1801" lon="4.46883">
        <ele>855.4</ele>
        <time>2025-09-07T15:07:18Z</time>
      </trkpt>
      <trkpt lat="46.18009" lon="4.46883">
        <ele>855.4</ele>
        <time>2025-09-07T15:07:19Z</time>
      </trkpt>
      <trkpt lat="46.18007" lon="4.46883">
        <ele>855.4</ele>
        <time>2025-09-07T15:07:20Z</time>
      </trkpt>
      <trkpt lat="46.18005" lon="4.46884">
        <ele>855.4</ele>
        <time>2025-09-07T15:07:21Z</time>
      </trkpt>
      <trkpt lat="46.18003" lon="4.46886">
        <ele>855.4</ele>
        <time>2025-09-07T15:07:22Z</time>
      </trkpt>
      <trkpt lat="46.18002" lon="4.46887">
        <ele>855.4</ele>
        <time>2025-09-07T15:07:23Z</time>
      </trkpt>
      <trkpt lat="46.18" lon="4.46888">
        <ele>855.2</ele>
        <time>2025-09-07T15:07:24Z</time>
      </trkpt>
      <trkpt lat="46.17998" lon="4.46889">
        <ele>855</ele>
        <time>2025-09-07T15:07:25Z</time>
      </trkpt>
      <trkpt lat="46.17996" lon="4.4689">
        <ele>855</ele>
        <time>2025-09-07T15:07:26Z</time>
      </trkpt>
      <trkpt lat="46.17995" lon="4.46891">
        <ele>855</ele>
        <time>2025-09-07T15:07:27Z</time>
      </trkpt>
      <trkpt lat="46.17993" lon="4.46893">
        <ele>855</ele>
        <time>2025-09-07T15:07:28Z</time>
      </trkpt>
      <trkpt lat="46.17991" lon="4.46894">
        <ele>855</ele>
        <time>2025-09-07T15:07:29Z</time>
      </trkpt>
      <trkpt lat="46.17989" lon="4.46896">
        <ele>854.6</ele>
        <time>2025-09-07T15:07:30Z</time>
      </trkpt>
      <trkpt lat="46.17986" lon="4.46897">
        <ele>854.6</ele>
        <time>2025-09-07T15:07:31Z</time>
      </trkpt>
      <trkpt lat="46.17983" lon="4.46898">
        <ele>854.6</ele>
        <time>2025-09-07T15:07:32Z</time>
      </trkpt>
      <trkpt lat="46.1798" lon="4.46899">
        <ele>855.2</ele>
        <time>2025-09-07T15:07:33Z</time>
      </trkpt>
      <trkpt lat="46.17978" lon="4.469">
        <ele>855.2</ele>
        <time>2025-09-07T15:07:34Z</time>
      </trkpt>
      <trkpt lat="46.17976" lon="4.46901">
        <ele>855.2</ele>
        <time>2025-09-07T15:07:35Z</time>
      </trkpt>
      <trkpt lat="46.17974" lon="4.46902">
        <ele>855.2</ele>
        <time>2025-09-07T15:07:36Z</time>
      </trkpt>
      <trkpt lat="46.17973" lon="4.46903">
        <ele>855.4</ele>
        <time>2025-09-07T15:07:37Z</time>
      </trkpt>
      <trkpt lat="46.17972" lon="4.46904">
        <ele>855.4</ele>
        <time>2025-09-07T15:07:38Z</time>
      </trkpt>
      <trkpt lat="46.1797" lon="4.46904">
        <ele>855.4</ele>
        <time>2025-09-07T15:07:39Z</time>
      </trkpt>
      <trkpt lat="46.17968" lon="4.46904">
        <ele>855.4</ele>
        <time>2025-09-07T15:07:40Z</time>
      </trkpt>
      <trkpt lat="46.17966" lon="4.46903">
        <ele>855.8</ele>
        <time>2025-09-07T15:07:41Z</time>
      </trkpt>
      <trkpt lat="46.17965" lon="4.46902">
        <ele>855.8</ele>
        <time>2025-09-07T15:07:42Z</time>
      </trkpt>
      <trkpt lat="46.17964" lon="4.46902">
        <ele>856</ele>
        <time>2025-09-07T15:07:43Z</time>
      </trkpt>
      <trkpt lat="46.17961" lon="4.46902">
        <ele>856</ele>
        <time>2025-09-07T15:07:44Z</time>
      </trkpt>
      <trkpt lat="46.1796" lon="4.46902">
        <ele>856</ele>
        <time>2025-09-07T15:07:45Z</time>
      </trkpt>
      <trkpt lat="46.17958" lon="4.46903">
        <ele>856</ele>
        <time>2025-09-07T15:07:46Z</time>
      </trkpt>
      <trkpt lat="46.17955" lon="4.46904">
        <ele>856</ele>
        <time>2025-09-07T15:07:47Z</time>
      </trkpt>
      <trkpt lat="46.17953" lon="4.46904">
        <ele>856.6</ele>
        <time>2025-09-07T15:07:48Z</time>
      </trkpt>
      <trkpt lat="46.17951" lon="4.46904">
        <ele>856.6</ele>
        <time>2025-09-07T15:07:49Z</time>
      </trkpt>
      <trkpt lat="46.17949" lon="4.46904">
        <ele>856.6</ele>
        <time>2025-09-07T15:07:50Z</time>
      </trkpt>
      <trkpt lat="46.17947" lon="4.46904">
        <ele>856.6</ele>
        <time>2025-09-07T15:07:51Z</time>
      </trkpt>
      <trkpt lat="46.17945" lon="4.46904">
        <ele>856.8</ele>
        <time>2025-09-07T15:07:52Z</time>
      </trkpt>
      <trkpt lat="46.17942" lon="4.46905">
        <ele>856.8</ele>
        <time>2025-09-07T15:07:53Z</time>
      </trkpt>
      <trkpt lat="46.1794" lon="4.46906">
        <ele>856.8</ele>
        <time>2025-09-07T15:07:54Z</time>
      </trkpt>
      <trkpt lat="46.17938" lon="4.46907">
        <ele>856.8</ele>
        <time>2025-09-07T15:07:55Z</time>
      </trkpt>
      <trkpt lat="46.17936" lon="4.46907">
        <ele>856.4</ele>
        <time>2025-09-07T15:07:56Z</time>
      </trkpt>
      <trkpt lat="46.17934" lon="4.46907">
        <ele>856.4</ele>
        <time>2025-09-07T15:07:57Z</time>
      </trkpt>
      <trkpt lat="46.17931" lon="4.46907">
        <ele>856</ele>
        <time>2025-09-07T15:07:58Z</time>
      </trkpt>
      <trkpt lat="46.17928" lon="4.46907">
        <ele>856</ele>
        <time>2025-09-07T15:07:59Z</time>
      </trkpt>
      <trkpt lat="46.17925" lon="4.46907">
        <ele>856</ele>
        <time>2025-09-07T15:08:00Z</time>
      </trkpt>
      <trkpt lat="46.17922" lon="4.46906">
        <ele>856</ele>
        <time>2025-09-07T15:08:01Z</time>
      </trkpt>
      <trkpt lat="46.17919" lon="4.46906">
        <ele>855.8</ele>
        <time>2025-09-07T15:08:02Z</time>
      </trkpt>
      <trkpt lat="46.17916" lon="4.46906">
        <ele>855.8</ele>
        <time>2025-09-07T15:08:03Z</time>
      </trkpt>
      <trkpt lat="46.17912" lon="4.46906">
        <ele>855.4</ele>
        <time>2025-09-07T15:08:04Z</time>
      </trkpt>
      <trkpt lat="46.1791" lon="4.46906">
        <ele>855.4</ele>
        <time>2025-09-07T15:08:05Z</time>
      </trkpt>
      <trkpt lat="46.17906" lon="4.46907">
        <ele>855.4</ele>
        <time>2025-09-07T15:08:06Z</time>
      </trkpt>
      <trkpt lat="46.17902" lon="4.46908">
        <ele>855</ele>
        <time>2025-09-07T15:08:07Z</time>
      </trkpt>
      <trkpt lat="46.17899" lon="4.46909">
        <ele>855</ele>
        <time>2025-09-07T15:08:08Z</time>
      </trkpt>
      <trkpt lat="46.17896" lon="4.4691">
        <ele>854.4</ele>
        <time>2025-09-07T15:08:09Z</time>
      </trkpt>
      <trkpt lat="46.17893" lon="4.46911">
        <ele>854.4</ele>
        <time>2025-09-07T15:08:10Z</time>
      </trkpt>
      <trkpt lat="46.17889" lon="4.46912">
        <ele>854.4</ele>
        <time>2025-09-07T15:08:11Z</time>
      </trkpt>
      <trkpt lat="46.17886" lon="4.46912">
        <ele>854.4</ele>
        <time>2025-09-07T15:08:12Z</time>
      </trkpt>
      <trkpt lat="46.17885" lon="4.46913">
        <ele>854</ele>
        <time>2025-09-07T15:08:13Z</time>
      </trkpt>
      <trkpt lat="46.17882" lon="4.46915">
        <ele>854</ele>
        <time>2025-09-07T15:08:14Z</time>
      </trkpt>
      <trkpt lat="46.17878" lon="4.46917">
        <ele>853.6</ele>
        <time>2025-09-07T15:08:15Z</time>
      </trkpt>
      <trkpt lat="46.17875" lon="4.4692">
        <ele>853.4</ele>
        <time>2025-09-07T15:08:16Z</time>
      </trkpt>
      <trkpt lat="46.17873" lon="4.46921">
        <ele>853.4</ele>
        <time>2025-09-07T15:08:17Z</time>
      </trkpt>
      <trkpt lat="46.1787" lon="4.46922">
        <ele>853.6</ele>
        <time>2025-09-07T15:08:18Z</time>
      </trkpt>
      <trkpt lat="46.17867" lon="4.46923">
        <ele>853.6</ele>
        <time>2025-09-07T15:08:19Z</time>
      </trkpt>
      <trkpt lat="46.17864" lon="4.46924">
        <ele>853.6</ele>
        <time>2025-09-07T15:08:20Z</time>
      </trkpt>
      <trkpt lat="46.17861" lon="4.46925">
        <ele>853.4</ele>
        <time>2025-09-07T15:08:21Z</time>
      </trkpt>
      <trkpt lat="46.17858" lon="4.46926">
        <ele>852.4</ele>
        <time>2025-09-07T15:08:22Z</time>
      </trkpt>
      <trkpt lat="46.17855" lon="4.46927">
        <ele>852.4</ele>
        <time>2025-09-07T15:08:23Z</time>
      </trkpt>
      <trkpt lat="46.17851" lon="4.46929">
        <ele>851.6</ele>
        <time>2025-09-07T15:08:24Z</time>
      </trkpt>
      <trkpt lat="46.17848" lon="4.4693">
        <ele>851.6</ele>
        <time>2025-09-07T15:08:25Z</time>
      </trkpt>
      <trkpt lat="46.17845" lon="4.46931">
        <ele>851.2</ele>
        <time>2025-09-07T15:08:26Z</time>
      </trkpt>
      <trkpt lat="46.17841" lon="4.46933">
        <ele>850.8</ele>
        <time>2025-09-07T15:08:27Z</time>
      </trkpt>
      <trkpt lat="46.17838" lon="4.46934">
        <ele>850.8</ele>
        <time>2025-09-07T15:08:28Z</time>
      </trkpt>
      <trkpt lat="46.17835" lon="4.46934">
        <ele>850</ele>
        <time>2025-09-07T15:08:29Z</time>
      </trkpt>
      <trkpt lat="46.17832" lon="4.46935">
        <ele>850</ele>
        <time>2025-09-07T15:08:30Z</time>
      </trkpt>
      <trkpt lat="46.17829" lon="4.46936">
        <ele>850</ele>
        <time>2025-09-07T15:08:31Z</time>
      </trkpt>
      <trkpt lat="46.17827" lon="4.46937">
        <ele>849.8</ele>
        <time>2025-09-07T15:08:32Z</time>
      </trkpt>
      <trkpt lat="46.17825" lon="4.4694">
        <ele>849.8</ele>
        <time>2025-09-07T15:08:33Z</time>
      </trkpt>
      <trkpt lat="46.17823" lon="4.46942">
        <ele>849.2</ele>
        <time>2025-09-07T15:08:34Z</time>
      </trkpt>
      <trkpt lat="46.17822" lon="4.46943">
        <ele>849.2</ele>
        <time>2025-09-07T15:08:35Z</time>
      </trkpt>
      <trkpt lat="46.1782" lon="4.46945">
        <ele>849</ele>
        <time>2025-09-07T15:08:36Z</time>
      </trkpt>
      <trkpt lat="46.17817" lon="4.46947">
        <ele>847.8</ele>
        <time>2025-09-07T15:08:37Z</time>
      </trkpt>
      <trkpt lat="46.17815" lon="4.46949">
        <ele>847.6</ele>
        <time>2025-09-07T15:08:38Z</time>
      </trkpt>
      <trkpt lat="46.17813" lon="4.4695">
        <ele>847</ele>
        <time>2025-09-07T15:08:39Z</time>
      </trkpt>
      <trkpt lat="46.17811" lon="4.46951">
        <ele>846.4</ele>
        <time>2025-09-07T15:08:40Z</time>
      </trkpt>
      <trkpt lat="46.17808" lon="4.46951">
        <ele>846</ele>
        <time>2025-09-07T15:08:41Z</time>
      </trkpt>
      <trkpt lat="46.17805" lon="4.46951">
        <ele>846.6</ele>
        <time>2025-09-07T15:08:42Z</time>
      </trkpt>
      <trkpt lat="46.17803" lon="4.46952">
        <ele>846.6</ele>
        <time>2025-09-07T15:08:43Z</time>
      </trkpt>
      <trkpt lat="46.178" lon="4.46954">
        <ele>845.6</ele>
        <time>2025-09-07T15:08:44Z</time>
      </trkpt>
      <trkpt lat="46.17798" lon="4.46956">
        <ele>845.2</ele>
        <time>2025-09-07T15:08:45Z</time>
      </trkpt>
      <trkpt lat="46.17795" lon="4.46957">
        <ele>844.4</ele>
        <time>2025-09-07T15:08:46Z</time>
      </trkpt>
      <trkpt lat="46.17791" lon="4.46957">
        <ele>843.8</ele>
        <time>2025-09-07T15:08:47Z</time>
      </trkpt>
      <trkpt lat="46.17787" lon="4.46958">
        <ele>843</ele>
        <time>2025-09-07T15:08:48Z</time>
      </trkpt>
      <trkpt lat="46.17784" lon="4.46957">
        <ele>842.2</ele>
        <time>2025-09-07T15:08:49Z</time>
      </trkpt>
      <trkpt lat="46.17783" lon="4.46957">
        <ele>841.2</ele>
        <time>2025-09-07T15:08:50Z</time>
      </trkpt>
      <trkpt lat="46.17782" lon="4.46957">
        <ele>841.2</ele>
        <time>2025-09-07T15:08:51Z</time>
      </trkpt>
      <trkpt lat="46.1778" lon="4.46957">
        <ele>841</ele>
        <time>2025-09-07T15:08:52Z</time>
      </trkpt>
      <trkpt lat="46.17777" lon="4.46957">
        <ele>840.6</ele>
        <time>2025-09-07T15:08:53Z</time>
      </trkpt>
      <trkpt lat="46.17774" lon="4.46957">
        <ele>840.6</ele>
        <time>2025-09-07T15:08:54Z</time>
      </trkpt>
      <trkpt lat="46.17772" lon="4.46957">
        <ele>840.4</ele>
        <time>2025-09-07T15:08:55Z</time>
      </trkpt>
      <trkpt lat="46.1777" lon="4.46957">
        <ele>840</ele>
        <time>2025-09-07T15:08:56Z</time>
      </trkpt>
      <trkpt lat="46.17767" lon="4.46958">
        <ele>839.6</ele>
        <time>2025-09-07T15:08:57Z</time>
      </trkpt>
      <trkpt lat="46.17765" lon="4.46959">
        <ele>839.2</ele>
        <time>2025-09-07T15:08:58Z</time>
      </trkpt>
      <trkpt lat="46.17762" lon="4.4696">
        <ele>838.8</ele>
        <time>2025-09-07T15:08:59Z</time>
      </trkpt>
      <trkpt lat="46.17759" lon="4.46961">
        <ele>838.4</ele>
        <time>2025-09-07T15:09:00Z</time>
      </trkpt>
      <trkpt lat="46.17758" lon="4.46961">
        <ele>838</ele>
        <time>2025-09-07T15:09:01Z</time>
      </trkpt>
      <trkpt lat="46.17756" lon="4.46961">
        <ele>838</ele>
        <time>2025-09-07T15:09:02Z</time>
      </trkpt>
      <trkpt lat="46.17753" lon="4.46963">
        <ele>837.6</ele>
        <time>2025-09-07T15:09:03Z</time>
      </trkpt>
      <trkpt lat="46.1775" lon="4.46964">
        <ele>837</ele>
        <time>2025-09-07T15:09:04Z</time>
      </trkpt>
      <trkpt lat="46.17747" lon="4.46966">
        <ele>837</ele>
        <time>2025-09-07T15:09:05Z</time>
      </trkpt>
      <trkpt lat="46.17744" lon="4.46967">
        <ele>836.2</ele>
        <time>2025-09-07T15:09:06Z</time>
      </trkpt>
      <trkpt lat="46.1774" lon="4.46967">
        <ele>836.2</ele>
        <time>2025-09-07T15:09:07Z</time>
      </trkpt>
      <trkpt lat="46.17738" lon="4.46967">
        <ele>836.2</ele>
        <time>2025-09-07T15:09:08Z</time>
      </trkpt>
      <trkpt lat="46.17735" lon="4.46968">
        <ele>836.4</ele>
        <time>2025-09-07T15:09:09Z</time>
      </trkpt>
      <trkpt lat="46.17733" lon="4.46969">
        <ele>836.4</ele>
        <time>2025-09-07T15:09:10Z</time>
      </trkpt>
      <trkpt lat="46.17731" lon="4.4697">
        <ele>836</ele>
        <time>2025-09-07T15:09:11Z</time>
      </trkpt>
      <trkpt lat="46.17728" lon="4.46971">
        <ele>836</ele>
        <time>2025-09-07T15:09:12Z</time>
      </trkpt>
      <trkpt lat="46.17725" lon="4.46969">
        <ele>835.6</ele>
        <time>2025-09-07T15:09:13Z</time>
      </trkpt>
      <trkpt lat="46.17723" lon="4.46966">
        <ele>835.4</ele>
        <time>2025-09-07T15:09:14Z</time>
      </trkpt>
      <trkpt lat="46.17721" lon="4.46963">
        <ele>835.4</ele>
        <time>2025-09-07T15:09:15Z</time>
      </trkpt>
      <trkpt lat="46.1772" lon="4.4696">
        <ele>835</ele>
        <time>2025-09-07T15:09:16Z</time>
      </trkpt>
      <trkpt lat="46.17719" lon="4.46958">
        <ele>835</ele>
        <time>2025-09-07T15:09:17Z</time>
      </trkpt>
      <trkpt lat="46.17718" lon="4.46956">
        <ele>834.6</ele>
        <time>2025-09-07T15:09:18Z</time>
      </trkpt>
      <trkpt lat="46.17717" lon="4.46952">
        <ele>834.6</ele>
        <time>2025-09-07T15:09:19Z</time>
      </trkpt>
      <trkpt lat="46.17717" lon="4.46949">
        <ele>833.8</ele>
        <time>2025-09-07T15:09:20Z</time>
      </trkpt>
      <trkpt lat="46.17716" lon="4.46946">
        <ele>834.2</ele>
        <time>2025-09-07T15:09:21Z</time>
      </trkpt>
      <trkpt lat="46.17714" lon="4.46944">
        <ele>834.4</ele>
        <time>2025-09-07T15:09:22Z</time>
      </trkpt>
      <trkpt lat="46.17712" lon="4.46942">
        <ele>834.4</ele>
        <time>2025-09-07T15:09:23Z</time>
      </trkpt>
      <trkpt lat="46.17711" lon="4.46941">
        <ele>834.4</ele>
        <time>2025-09-07T15:09:24Z</time>
      </trkpt>
      <trkpt lat="46.1771" lon="4.4694">
        <ele>835</ele>
        <time>2025-09-07T15:09:25Z</time>
      </trkpt>
      <trkpt lat="46.17708" lon="4.46936">
        <ele>835</ele>
        <time>2025-09-07T15:09:26Z</time>
      </trkpt>
      <trkpt lat="46.17707" lon="4.46933">
        <ele>835</ele>
        <time>2025-09-07T15:09:27Z</time>
      </trkpt>
      <trkpt lat="46.17706" lon="4.46928">
        <ele>835</ele>
        <time>2025-09-07T15:09:28Z</time>
      </trkpt>
      <trkpt lat="46.17705" lon="4.46923">
        <ele>835</ele>
        <time>2025-09-07T15:09:29Z</time>
      </trkpt>
      <trkpt lat="46.17704" lon="4.46918">
        <ele>835</ele>
        <time>2025-09-07T15:09:30Z</time>
      </trkpt>
      <trkpt lat="46.17703" lon="4.46915">
        <ele>834.6</ele>
        <time>2025-09-07T15:09:31Z</time>
      </trkpt>
      <trkpt lat="46.17702" lon="4.46912">
        <ele>834.6</ele>
        <time>2025-09-07T15:09:32Z</time>
      </trkpt>
      <trkpt lat="46.17701" lon="4.4691">
        <ele>834.6</ele>
        <time>2025-09-07T15:09:33Z</time>
      </trkpt>
      <trkpt lat="46.177" lon="4.46907">
        <ele>834.6</ele>
        <time>2025-09-07T15:09:34Z</time>
      </trkpt>
      <trkpt lat="46.17699" lon="4.46905">
        <ele>834.6</ele>
        <time>2025-09-07T15:09:35Z</time>
      </trkpt>
      <trkpt lat="46.17699" lon="4.46902">
        <ele>835</ele>
        <time>2025-09-07T15:09:36Z</time>
      </trkpt>
      <trkpt lat="46.17698" lon="4.46899">
        <ele>835</ele>
        <time>2025-09-07T15:09:37Z</time>
      </trkpt>
      <trkpt lat="46.17698" lon="4.46896">
        <ele>835.4</ele>
        <time>2025-09-07T15:09:38Z</time>
      </trkpt>
      <trkpt lat="46.17697" lon="4.46894">
        <ele>835.8</ele>
        <time>2025-09-07T15:09:39Z</time>
      </trkpt>
      <trkpt lat="46.17697" lon="4.46892">
        <ele>836</ele>
        <time>2025-09-07T15:09:40Z</time>
      </trkpt>
      <trkpt lat="46.17696" lon="4.4689">
        <ele>836</ele>
        <time>2025-09-07T15:09:41Z</time>
      </trkpt>
      <trkpt lat="46.17696" lon="4.46887">
        <ele>836.2</ele>
        <time>2025-09-07T15:09:42Z</time>
      </trkpt>
      <trkpt lat="46.17695" lon="4.46885">
        <ele>836.4</ele>
        <time>2025-09-07T15:09:43Z</time>
      </trkpt>
      <trkpt lat="46.17694" lon="4.46883">
        <ele>836.8</ele>
        <time>2025-09-07T15:09:44Z</time>
      </trkpt>
      <trkpt lat="46.17694" lon="4.46881">
        <ele>836.8</ele>
        <time>2025-09-07T15:09:45Z</time>
      </trkpt>
      <trkpt lat="46.17693" lon="4.46877">
        <ele>836.8</ele>
        <time>2025-09-07T15:09:46Z</time>
      </trkpt>
      <trkpt lat="46.17692" lon="4.46875">
        <ele>837.2</ele>
        <time>2025-09-07T15:09:47Z</time>
      </trkpt>
      <trkpt lat="46.17692" lon="4.46872">
        <ele>837.2</ele>
        <time>2025-09-07T15:09:48Z</time>
      </trkpt>
      <trkpt lat="46.17691" lon="4.4687">
        <ele>837.4</ele>
        <time>2025-09-07T15:09:49Z</time>
      </trkpt>
      <trkpt lat="46.17691" lon="4.46868">
        <ele>837.4</ele>
        <time>2025-09-07T15:09:50Z</time>
      </trkpt>
      <trkpt lat="46.1769" lon="4.46866">
        <ele>837.4</ele>
        <time>2025-09-07T15:09:51Z</time>
      </trkpt>
      <trkpt lat="46.17688" lon="4.46865">
        <ele>837.8</ele>
        <time>2025-09-07T15:09:52Z</time>
      </trkpt>
      <trkpt lat="46.17687" lon="4.46863">
        <ele>837.8</ele>
        <time>2025-09-07T15:09:53Z</time>
      </trkpt>
      <trkpt lat="46.17687" lon="4.46863">
        <ele>838.2</ele>
        <time>2025-09-07T15:09:54Z</time>
      </trkpt>
      <trkpt lat="46.17686" lon="4.46862">
        <ele>838.2</ele>
        <time>2025-09-07T15:09:55Z</time>
      </trkpt>
      <trkpt lat="46.17687" lon="4.46862">
        <ele>838.2</ele>
        <time>2025-09-07T15:09:56Z</time>
      </trkpt>
      <trkpt lat="46.17687" lon="4.46862">
        <ele>838.2</ele>
        <time>2025-09-07T15:09:57Z</time>
      </trkpt>
      <trkpt lat="46.17687" lon="4.4686">
        <ele>838.4</ele>
        <time>2025-09-07T15:10:01Z</time>
      </trkpt>
      <trkpt lat="46.17686" lon="4.46858">
        <ele>838.4</ele>
        <time>2025-09-07T15:10:02Z</time>
      </trkpt>
      <trkpt lat="46.17685" lon="4.46857">
        <ele>838.4</ele>
        <time>2025-09-07T15:10:03Z</time>
      </trkpt>
      <trkpt lat="46.17684" lon="4.46855">
        <ele>838.4</ele>
        <time>2025-09-07T15:10:04Z</time>
      </trkpt>
      <trkpt lat="46.17683" lon="4.46854">
        <ele>838.2</ele>
        <time>2025-09-07T15:10:05Z</time>
      </trkpt>
      <trkpt lat="46.17683" lon="4.46852">
        <ele>838.2</ele>
        <time>2025-09-07T15:10:06Z</time>
      </trkpt>
      <trkpt lat="46.17682" lon="4.46851">
        <ele>838.6</ele>
        <time>2025-09-07T15:10:07Z</time>
      </trkpt>
      <trkpt lat="46.17681" lon="4.46849">
        <ele>838.6</ele>
        <time>2025-09-07T15:10:08Z</time>
      </trkpt>
      <trkpt lat="46.1768" lon="4.46848">
        <ele>838.4</ele>
        <time>2025-09-07T15:10:09Z</time>
      </trkpt>
      <trkpt lat="46.17679" lon="4.46846">
        <ele>838.4</ele>
        <time>2025-09-07T15:10:10Z</time>
      </trkpt>
      <trkpt lat="46.17678" lon="4.46845">
        <ele>838.8</ele>
        <time>2025-09-07T15:10:11Z</time>
      </trkpt>
      <trkpt lat="46.17678" lon="4.46843">
        <ele>838.8</ele>
        <time>2025-09-07T15:10:12Z</time>
      </trkpt>
      <trkpt lat="46.17677" lon="4.46842">
        <ele>838.8</ele>
        <time>2025-09-07T15:10:13Z</time>
      </trkpt>
      <trkpt lat="46.17676" lon="4.4684">
        <ele>839.4</ele>
        <time>2025-09-07T15:10:14Z</time>
      </trkpt>
      <trkpt lat="46.17675" lon="4.46839">
        <ele>839.4</ele>
        <time>2025-09-07T15:10:15Z</time>
      </trkpt>
      <trkpt lat="46.17674" lon="4.46837">
        <ele>839.4</ele>
        <time>2025-09-07T15:10:16Z</time>
      </trkpt>
      <trkpt lat="46.17673" lon="4.46836">
        <ele>840</ele>
        <time>2025-09-07T15:10:17Z</time>
      </trkpt>
      <trkpt lat="46.17673" lon="4.46835">
        <ele>839.6</ele>
        <time>2025-09-07T15:10:18Z</time>
      </trkpt>
      <trkpt lat="46.17672" lon="4.46834">
        <ele>839.2</ele>
        <time>2025-09-07T15:10:19Z</time>
      </trkpt>
      <trkpt lat="46.17671" lon="4.46832">
        <ele>839.2</ele>
        <time>2025-09-07T15:10:20Z</time>
      </trkpt>
      <trkpt lat="46.17671" lon="4.46829">
        <ele>839.2</ele>
        <time>2025-09-07T15:10:21Z</time>
      </trkpt>
      <trkpt lat="46.17671" lon="4.46827">
        <ele>839.2</ele>
        <time>2025-09-07T15:10:22Z</time>
      </trkpt>
      <trkpt lat="46.17672" lon="4.46825">
        <ele>839.6</ele>
        <time>2025-09-07T15:10:23Z</time>
      </trkpt>
      <trkpt lat="46.17672" lon="4.46823">
        <ele>840</ele>
        <time>2025-09-07T15:10:24Z</time>
      </trkpt>
      <trkpt lat="46.17672" lon="4.46821">
        <ele>840</ele>
        <time>2025-09-07T15:10:25Z</time>
      </trkpt>
      <trkpt lat="46.17671" lon="4.46819">
        <ele>840.2</ele>
        <time>2025-09-07T15:10:26Z</time>
      </trkpt>
      <trkpt lat="46.17671" lon="4.46817">
        <ele>840.6</ele>
        <time>2025-09-07T15:10:27Z</time>
      </trkpt>
      <trkpt lat="46.1767" lon="4.46815">
        <ele>840.6</ele>
        <time>2025-09-07T15:10:28Z</time>
      </trkpt>
      <trkpt lat="46.1767" lon="4.46813">
        <ele>841</ele>
        <time>2025-09-07T15:10:29Z</time>
      </trkpt>
      <trkpt lat="46.17669" lon="4.46811">
        <ele>841.4</ele>
        <time>2025-09-07T15:10:30Z</time>
      </trkpt>
      <trkpt lat="46.17668" lon="4.46809">
        <ele>841.4</ele>
        <time>2025-09-07T15:10:31Z</time>
      </trkpt>
      <trkpt lat="46.17667" lon="4.46808">
        <ele>841.4</ele>
        <time>2025-09-07T15:10:32Z</time>
      </trkpt>
      <trkpt lat="46.17667" lon="4.46806">
        <ele>841.4</ele>
        <time>2025-09-07T15:10:33Z</time>
      </trkpt>
      <trkpt lat="46.17666" lon="4.46805">
        <ele>841.8</ele>
        <time>2025-09-07T15:10:34Z</time>
      </trkpt>
      <trkpt lat="46.17665" lon="4.46803">
        <ele>842.2</ele>
        <time>2025-09-07T15:10:35Z</time>
      </trkpt>
      <trkpt lat="46.17665" lon="4.46802">
        <ele>842.2</ele>
        <time>2025-09-07T15:10:36Z</time>
      </trkpt>
      <trkpt lat="46.17664" lon="4.468">
        <ele>842.2</ele>
        <time>2025-09-07T15:10:37Z</time>
      </trkpt>
      <trkpt lat="46.17664" lon="4.468">
        <ele>842.2</ele>
        <time>2025-09-07T15:10:38Z</time>
      </trkpt>
      <trkpt lat="46.17664" lon="4.46799">
        <ele>842.2</ele>
        <time>2025-09-07T15:10:39Z</time>
      </trkpt>
      <trkpt lat="46.17663" lon="4.46797">
        <ele>842.6</ele>
        <time>2025-09-07T15:10:40Z</time>
      </trkpt>
      <trkpt lat="46.17662" lon="4.46795">
        <ele>842.6</ele>
        <time>2025-09-07T15:10:41Z</time>
      </trkpt>
      <trkpt lat="46.17662" lon="4.46793">
        <ele>843</ele>
        <time>2025-09-07T15:10:42Z</time>
      </trkpt>
      <trkpt lat="46.17661" lon="4.46792">
        <ele>843</ele>
        <time>2025-09-07T15:10:43Z</time>
      </trkpt>
      <trkpt lat="46.17661" lon="4.4679">
        <ele>843</ele>
        <time>2025-09-07T15:10:44Z</time>
      </trkpt>
      <trkpt lat="46.1766" lon="4.46788">
        <ele>843.2</ele>
        <time>2025-09-07T15:10:45Z</time>
      </trkpt>
      <trkpt lat="46.1766" lon="4.46786">
        <ele>843.2</ele>
        <time>2025-09-07T15:10:46Z</time>
      </trkpt>
      <trkpt lat="46.17659" lon="4.46784">
        <ele>843.2</ele>
        <time>2025-09-07T15:10:47Z</time>
      </trkpt>
      <trkpt lat="46.17658" lon="4.46782">
        <ele>843.4</ele>
        <time>2025-09-07T15:10:48Z</time>
      </trkpt>
      <trkpt lat="46.17657" lon="4.4678">
        <ele>843.4</ele>
        <time>2025-09-07T15:10:49Z</time>
      </trkpt>
      <trkpt lat="46.17656" lon="4.46778">
        <ele>843.8</ele>
        <time>2025-09-07T15:10:50Z</time>
      </trkpt>
      <trkpt lat="46.17656" lon="4.46777">
        <ele>844</ele>
        <time>2025-09-07T15:10:51Z</time>
      </trkpt>
      <trkpt lat="46.17655" lon="4.46775">
        <ele>844</ele>
        <time>2025-09-07T15:10:52Z</time>
      </trkpt>
      <trkpt lat="46.17653" lon="4.46773">
        <ele>844</ele>
        <time>2025-09-07T15:10:53Z</time>
      </trkpt>
      <trkpt lat="46.17652" lon="4.46772">
        <ele>844</ele>
        <time>2025-09-07T15:10:54Z</time>
      </trkpt>
      <trkpt lat="46.1765" lon="4.46771">
        <ele>844</ele>
        <time>2025-09-07T15:10:55Z</time>
      </trkpt>
      <trkpt lat="46.17649" lon="4.46769">
        <ele>844.4</ele>
        <time>2025-09-07T15:10:56Z</time>
      </trkpt>
      <trkpt lat="46.17647" lon="4.46768">
        <ele>844.4</ele>
        <time>2025-09-07T15:10:57Z</time>
      </trkpt>
      <trkpt lat="46.17646" lon="4.46767">
        <ele>844.4</ele>
        <time>2025-09-07T15:10:58Z</time>
      </trkpt>
      <trkpt lat="46.17645" lon="4.46765">
        <ele>844.4</ele>
        <time>2025-09-07T15:10:59Z</time>
      </trkpt>
      <trkpt lat="46.17643" lon="4.46763">
        <ele>844.4</ele>
        <time>2025-09-07T15:11:00Z</time>
      </trkpt>
      <trkpt lat="46.17643" lon="4.46761">
        <ele>844.4</ele>
        <time>2025-09-07T15:11:01Z</time>
      </trkpt>
      <trkpt lat="46.17642" lon="4.46759">
        <ele>844.8</ele>
        <time>2025-09-07T15:11:02Z</time>
      </trkpt>
      <trkpt lat="46.17641" lon="4.46757">
        <ele>844.8</ele>
        <time>2025-09-07T15:11:03Z</time>
      </trkpt>
      <trkpt lat="46.1764" lon="4.46755">
        <ele>844.8</ele>
        <time>2025-09-07T15:11:04Z</time>
      </trkpt>
      <trkpt lat="46.17639" lon="4.46753">
        <ele>844.8</ele>
        <time>2025-09-07T15:11:05Z</time>
      </trkpt>
      <trkpt lat="46.17638" lon="4.46751">
        <ele>844.8</ele>
        <time>2025-09-07T15:11:06Z</time>
      </trkpt>
      <trkpt lat="46.17637" lon="4.46749">
        <ele>844.8</ele>
        <time>2025-09-07T15:11:07Z</time>
      </trkpt>
      <trkpt lat="46.17636" lon="4.46748">
        <ele>844.8</ele>
        <time>2025-09-07T15:11:08Z</time>
      </trkpt>
      <trkpt lat="46.17634" lon="4.46746">
        <ele>844.8</ele>
        <time>2025-09-07T15:11:09Z</time>
      </trkpt>
      <trkpt lat="46.17633" lon="4.46744">
        <ele>845.2</ele>
        <time>2025-09-07T15:11:10Z</time>
      </trkpt>
      <trkpt lat="46.17632" lon="4.46743">
        <ele>845.6</ele>
        <time>2025-09-07T15:11:11Z</time>
      </trkpt>
      <trkpt lat="46.17632" lon="4.46741">
        <ele>845.8</ele>
        <time>2025-09-07T15:11:12Z</time>
      </trkpt>
      <trkpt lat="46.17631" lon="4.4674">
        <ele>845.8</ele>
        <time>2025-09-07T15:11:13Z</time>
      </trkpt>
      <trkpt lat="46.1763" lon="4.46739">
        <ele>846.2</ele>
        <time>2025-09-07T15:11:14Z</time>
      </trkpt>
      <trkpt lat="46.17629" lon="4.46737">
        <ele>846.2</ele>
        <time>2025-09-07T15:11:15Z</time>
      </trkpt>
      <trkpt lat="46.17628" lon="4.46737">
        <ele>846.2</ele>
        <time>2025-09-07T15:11:16Z</time>
      </trkpt>
      <trkpt lat="46.17626" lon="4.46735">
        <ele>846.2</ele>
        <time>2025-09-07T15:11:17Z</time>
      </trkpt>
      <trkpt lat="46.17625" lon="4.46734">
        <ele>846.2</ele>
        <time>2025-09-07T15:11:18Z</time>
      </trkpt>
      <trkpt lat="46.17623" lon="4.46732">
        <ele>846.2</ele>
        <time>2025-09-07T15:11:19Z</time>
      </trkpt>
      <trkpt lat="46.17622" lon="4.4673">
        <ele>846.2</ele>
        <time>2025-09-07T15:11:20Z</time>
      </trkpt>
      <trkpt lat="46.1762" lon="4.46728">
        <ele>846.2</ele>
        <time>2025-09-07T15:11:21Z</time>
      </trkpt>
      <trkpt lat="46.17619" lon="4.46726">
        <ele>846.4</ele>
        <time>2025-09-07T15:11:22Z</time>
      </trkpt>
      <trkpt lat="46.17618" lon="4.46724">
        <ele>846.6</ele>
        <time>2025-09-07T15:11:23Z</time>
      </trkpt>
      <trkpt lat="46.17617" lon="4.46722">
        <ele>846.6</ele>
        <time>2025-09-07T15:11:24Z</time>
      </trkpt>
      <trkpt lat="46.17616" lon="4.4672">
        <ele>847</ele>
        <time>2025-09-07T15:11:25Z</time>
      </trkpt>
      <trkpt lat="46.17616" lon="4.46719">
        <ele>847</ele>
        <time>2025-09-07T15:11:26Z</time>
      </trkpt>
      <trkpt lat="46.17615" lon="4.46717">
        <ele>847</ele>
        <time>2025-09-07T15:11:27Z</time>
      </trkpt>
      <trkpt lat="46.17614" lon="4.46715">
        <ele>847</ele>
        <time>2025-09-07T15:11:28Z</time>
      </trkpt>
      <trkpt lat="46.17614" lon="4.46713">
        <ele>847.2</ele>
        <time>2025-09-07T15:11:29Z</time>
      </trkpt>
      <trkpt lat="46.17613" lon="4.46712">
        <ele>847.6</ele>
        <time>2025-09-07T15:11:30Z</time>
      </trkpt>
      <trkpt lat="46.17612" lon="4.4671">
        <ele>847.6</ele>
        <time>2025-09-07T15:11:31Z</time>
      </trkpt>
      <trkpt lat="46.17611" lon="4.46708">
        <ele>847.4</ele>
        <time>2025-09-07T15:11:32Z</time>
      </trkpt>
      <trkpt lat="46.17611" lon="4.46706">
        <ele>847.4</ele>
        <time>2025-09-07T15:11:33Z</time>
      </trkpt>
      <trkpt lat="46.1761" lon="4.46705">
        <ele>848</ele>
        <time>2025-09-07T15:11:34Z</time>
      </trkpt>
      <trkpt lat="46.17609" lon="4.46702">
        <ele>848</ele>
        <time>2025-09-07T15:11:35Z</time>
      </trkpt>
      <trkpt lat="46.17608" lon="4.467">
        <ele>848</ele>
        <time>2025-09-07T15:11:36Z</time>
      </trkpt>
      <trkpt lat="46.17607" lon="4.46698">
        <ele>848</ele>
        <time>2025-09-07T15:11:37Z</time>
      </trkpt>
      <trkpt lat="46.17606" lon="4.46696">
        <ele>848</ele>
        <time>2025-09-07T15:11:38Z</time>
      </trkpt>
      <trkpt lat="46.17605" lon="4.46696">
        <ele>848.2</ele>
        <time>2025-09-07T15:11:39Z</time>
      </trkpt>
      <trkpt lat="46.17604" lon="4.46694">
        <ele>848.2</ele>
        <time>2025-09-07T15:11:40Z</time>
      </trkpt>
      <trkpt lat="46.17603" lon="4.46692">
        <ele>848.2</ele>
        <time>2025-09-07T15:11:41Z</time>
      </trkpt>
      <trkpt lat="46.17603" lon="4.46691">
        <ele>848.2</ele>
        <time>2025-09-07T15:11:42Z</time>
      </trkpt>
      <trkpt lat="46.17602" lon="4.46689">
        <ele>849</ele>
        <time>2025-09-07T15:11:43Z</time>
      </trkpt>
      <trkpt lat="46.17601" lon="4.46687">
        <ele>849</ele>
        <time>2025-09-07T15:11:44Z</time>
      </trkpt>
      <trkpt lat="46.176" lon="4.46685">
        <ele>849</ele>
        <time>2025-09-07T15:11:45Z</time>
      </trkpt>
      <trkpt lat="46.176" lon="4.46683">
        <ele>849</ele>
        <time>2025-09-07T15:11:46Z</time>
      </trkpt>
      <trkpt lat="46.176" lon="4.46681">
        <ele>849</ele>
        <time>2025-09-07T15:11:47Z</time>
      </trkpt>
      <trkpt lat="46.17599" lon="4.46679">
        <ele>849.2</ele>
        <time>2025-09-07T15:11:48Z</time>
      </trkpt>
      <trkpt lat="46.17599" lon="4.46677">
        <ele>849.2</ele>
        <time>2025-09-07T15:11:49Z</time>
      </trkpt>
      <trkpt lat="46.17599" lon="4.46675">
        <ele>849.4</ele>
        <time>2025-09-07T15:11:50Z</time>
      </trkpt>
      <trkpt lat="46.17598" lon="4.46672">
        <ele>849.4</ele>
        <time>2025-09-07T15:11:51Z</time>
      </trkpt>
      <trkpt lat="46.17597" lon="4.4667">
        <ele>849.4</ele>
        <time>2025-09-07T15:11:52Z</time>
      </trkpt>
      <trkpt lat="46.17596" lon="4.46669">
        <ele>849.4</ele>
        <time>2025-09-07T15:11:53Z</time>
      </trkpt>
      <trkpt lat="46.17596" lon="4.46668">
        <ele>849.4</ele>
        <time>2025-09-07T15:11:54Z</time>
      </trkpt>
      <trkpt lat="46.17596" lon="4.46666">
        <ele>849.8</ele>
        <time>2025-09-07T15:11:55Z</time>
      </trkpt>
      <trkpt lat="46.17595" lon="4.46664">
        <ele>849.8</ele>
        <time>2025-09-07T15:11:56Z</time>
      </trkpt>
      <trkpt lat="46.17594" lon="4.46661">
        <ele>850</ele>
        <time>2025-09-07T15:11:57Z</time>
      </trkpt>
      <trkpt lat="46.17594" lon="4.46659">
        <ele>850</ele>
        <time>2025-09-07T15:11:58Z</time>
      </trkpt>
      <trkpt lat="46.17593" lon="4.46657">
        <ele>850.2</ele>
        <time>2025-09-07T15:11:59Z</time>
      </trkpt>
      <trkpt lat="46.17592" lon="4.46656">
        <ele>850.2</ele>
        <time>2025-09-07T15:12:00Z</time>
      </trkpt>
      <trkpt lat="46.17592" lon="4.46655">
        <ele>850.6</ele>
        <time>2025-09-07T15:12:01Z</time>
      </trkpt>
      <trkpt lat="46.17591" lon="4.46654">
        <ele>850.8</ele>
        <time>2025-09-07T15:12:02Z</time>
      </trkpt>
      <trkpt lat="46.17591" lon="4.46652">
        <ele>850.8</ele>
        <time>2025-09-07T15:12:03Z</time>
      </trkpt>
      <trkpt lat="46.17591" lon="4.4665">
        <ele>850.8</ele>
        <time>2025-09-07T15:12:04Z</time>
      </trkpt>
      <trkpt lat="46.17591" lon="4.46649">
        <ele>851</ele>
        <time>2025-09-07T15:12:05Z</time>
      </trkpt>
      <trkpt lat="46.17591" lon="4.46647">
        <ele>851.4</ele>
        <time>2025-09-07T15:12:06Z</time>
      </trkpt>
      <trkpt lat="46.17591" lon="4.46646">
        <ele>851.4</ele>
        <time>2025-09-07T15:12:07Z</time>
      </trkpt>
      <trkpt lat="46.1759" lon="4.46644">
        <ele>851.4</ele>
        <time>2025-09-07T15:12:08Z</time>
      </trkpt>
      <trkpt lat="46.1759" lon="4.46644">
        <ele>851.4</ele>
        <time>2025-09-07T15:12:09Z</time>
      </trkpt>
      <trkpt lat="46.17589" lon="4.46644">
        <ele>851.2</ele>
        <time>2025-09-07T15:12:10Z</time>
      </trkpt>
      <trkpt lat="46.17589" lon="4.46642">
        <ele>851.4</ele>
        <time>2025-09-07T15:12:11Z</time>
      </trkpt>
      <trkpt lat="46.17589" lon="4.46641">
        <ele>851.4</ele>
        <time>2025-09-07T15:12:12Z</time>
      </trkpt>
      <trkpt lat="46.17589" lon="4.4664">
        <ele>851.4</ele>
        <time>2025-09-07T15:12:13Z</time>
      </trkpt>
      <trkpt lat="46.17588" lon="4.46639">
        <ele>851.4</ele>
        <time>2025-09-07T15:12:14Z</time>
      </trkpt>
      <trkpt lat="46.17587" lon="4.46638">
        <ele>851.8</ele>
        <time>2025-09-07T15:12:15Z</time>
      </trkpt>
      <trkpt lat="46.17587" lon="4.46636">
        <ele>851.8</ele>
        <time>2025-09-07T15:12:16Z</time>
      </trkpt>
      <trkpt lat="46.17587" lon="4.46637">
        <ele>852</ele>
        <time>2025-09-07T15:12:17Z</time>
      </trkpt>
      <trkpt lat="46.17588" lon="4.46636">
        <ele>852.4</ele>
        <time>2025-09-07T15:12:18Z</time>
      </trkpt>
      <trkpt lat="46.17588" lon="4.46635">
        <ele>852</ele>
        <time>2025-09-07T15:12:19Z</time>
      </trkpt>
      <trkpt lat="46.17588" lon="4.46634">
        <ele>852</ele>
        <time>2025-09-07T15:12:20Z</time>
      </trkpt>
      <trkpt lat="46.17588" lon="4.46633">
        <ele>852.4</ele>
        <time>2025-09-07T15:12:21Z</time>
      </trkpt>
      <trkpt lat="46.17588" lon="4.46632">
        <ele>852.6</ele>
        <time>2025-09-07T15:12:22Z</time>
      </trkpt>
      <trkpt lat="46.17588" lon="4.4663">
        <ele>852.6</ele>
        <time>2025-09-07T15:12:23Z</time>
      </trkpt>
      <trkpt lat="46.17589" lon="4.46629">
        <ele>853</ele>
        <time>2025-09-07T15:12:24Z</time>
      </trkpt>
      <trkpt lat="46.17589" lon="4.46628">
        <ele>853</ele>
        <time>2025-09-07T15:12:25Z</time>
      </trkpt>
      <trkpt lat="46.17589" lon="4.46626">
        <ele>853</ele>
        <time>2025-09-07T15:12:26Z</time>
      </trkpt>
      <trkpt lat="46.17589" lon="4.46625">
        <ele>853</ele>
        <time>2025-09-07T15:12:27Z</time>
      </trkpt>
      <trkpt lat="46.17589" lon="4.46625">
        <ele>853</ele>
        <time>2025-09-07T15:12:28Z</time>
      </trkpt>
      <trkpt lat="46.17588" lon="4.46624">
        <ele>853.4</ele>
        <time>2025-09-07T15:12:29Z</time>
      </trkpt>
      <trkpt lat="46.17587" lon="4.46624">
        <ele>853.4</ele>
        <time>2025-09-07T15:12:30Z</time>
      </trkpt>
      <trkpt lat="46.17587" lon="4.46623">
        <ele>853.6</ele>
        <time>2025-09-07T15:12:31Z</time>
      </trkpt>
      <trkpt lat="46.17586" lon="4.46622">
        <ele>853.6</ele>
        <time>2025-09-07T15:12:32Z</time>
      </trkpt>
      <trkpt lat="46.17585" lon="4.46622">
        <ele>853.6</ele>
        <time>2025-09-07T15:12:33Z</time>
      </trkpt>
      <trkpt lat="46.17584" lon="4.46621">
        <ele>853.6</ele>
        <time>2025-09-07T15:12:34Z</time>
      </trkpt>
      <trkpt lat="46.17583" lon="4.46619">
        <ele>854</ele>
        <time>2025-09-07T15:12:35Z</time>
      </trkpt>
      <trkpt lat="46.17582" lon="4.46617">
        <ele>853.6</ele>
        <time>2025-09-07T15:12:36Z</time>
      </trkpt>
      <trkpt lat="46.17581" lon="4.46616">
        <ele>853.6</ele>
        <time>2025-09-07T15:12:37Z</time>
      </trkpt>
      <trkpt lat="46.1758" lon="4.46615">
        <ele>853.6</ele>
        <time>2025-09-07T15:12:38Z</time>
      </trkpt>
      <trkpt lat="46.17579" lon="4.46615">
        <ele>854</ele>
        <time>2025-09-07T15:12:39Z</time>
      </trkpt>
      <trkpt lat="46.17579" lon="4.46615">
        <ele>854.2</ele>
        <time>2025-09-07T15:12:40Z</time>
      </trkpt>
      <trkpt lat="46.17578" lon="4.46614">
        <ele>854.4</ele>
        <time>2025-09-07T15:12:41Z</time>
      </trkpt>
      <trkpt lat="46.17578" lon="4.46614">
        <ele>854.8</ele>
        <time>2025-09-07T15:12:42Z</time>
      </trkpt>
      <trkpt lat="46.17578" lon="4.46614">
        <ele>854.8</ele>
        <time>2025-09-07T15:12:43Z</time>
      </trkpt>
      <trkpt lat="46.17577" lon="4.4661">
        <ele>854.8</ele>
        <time>2025-09-07T15:12:49Z</time>
      </trkpt>
      <trkpt lat="46.17577" lon="4.46609">
        <ele>854.8</ele>
        <time>2025-09-07T15:12:50Z</time>
      </trkpt>
      <trkpt lat="46.17576" lon="4.46607">
        <ele>854.8</ele>
        <time>2025-09-07T15:12:51Z</time>
      </trkpt>
      <trkpt lat="46.17575" lon="4.46605">
        <ele>854.6</ele>
        <time>2025-09-07T15:12:52Z</time>
      </trkpt>
      <trkpt lat="46.17574" lon="4.46603">
        <ele>854.8</ele>
        <time>2025-09-07T15:12:53Z</time>
      </trkpt>
      <trkpt lat="46.17574" lon="4.46602">
        <ele>855</ele>
        <time>2025-09-07T15:12:54Z</time>
      </trkpt>
      <trkpt lat="46.17573" lon="4.46601">
        <ele>855</ele>
        <time>2025-09-07T15:12:55Z</time>
      </trkpt>
      <trkpt lat="46.17573" lon="4.466">
        <ele>855.4</ele>
        <time>2025-09-07T15:12:56Z</time>
      </trkpt>
      <trkpt lat="46.17573" lon="4.46598">
        <ele>855.4</ele>
        <time>2025-09-07T15:12:57Z</time>
      </trkpt>
      <trkpt lat="46.17573" lon="4.46597">
        <ele>855.4</ele>
        <time>2025-09-07T15:12:58Z</time>
      </trkpt>
      <trkpt lat="46.17572" lon="4.46596">
        <ele>855.4</ele>
        <time>2025-09-07T15:12:59Z</time>
      </trkpt>
      <trkpt lat="46.1757" lon="4.46592">
        <ele>856.2</ele>
        <time>2025-09-07T15:13:07Z</time>
      </trkpt>
      <trkpt lat="46.17569" lon="4.46589">
        <ele>856.4</ele>
        <time>2025-09-07T15:13:08Z</time>
      </trkpt>
      <trkpt lat="46.17568" lon="4.46587">
        <ele>856.4</ele>
        <time>2025-09-07T15:13:09Z</time>
      </trkpt>
      <trkpt lat="46.17567" lon="4.46586">
        <ele>856.4</ele>
        <time>2025-09-07T15:13:10Z</time>
      </trkpt>
      <trkpt lat="46.17567" lon="4.46584">
        <ele>856.6</ele>
        <time>2025-09-07T15:13:11Z</time>
      </trkpt>
      <trkpt lat="46.17567" lon="4.46582">
        <ele>856.6</ele>
        <time>2025-09-07T15:13:12Z</time>
      </trkpt>
      <trkpt lat="46.17566" lon="4.4658">
        <ele>856.6</ele>
        <time>2025-09-07T15:13:13Z</time>
      </trkpt>
      <trkpt lat="46.17565" lon="4.46579">
        <ele>856.8</ele>
        <time>2025-09-07T15:13:14Z</time>
      </trkpt>
      <trkpt lat="46.17565" lon="4.46577">
        <ele>856.8</ele>
        <time>2025-09-07T15:13:15Z</time>
      </trkpt>
      <trkpt lat="46.17565" lon="4.46575">
        <ele>857.2</ele>
        <time>2025-09-07T15:13:16Z</time>
      </trkpt>
      <trkpt lat="46.17565" lon="4.46573">
        <ele>857.2</ele>
        <time>2025-09-07T15:13:17Z</time>
      </trkpt>
      <trkpt lat="46.17565" lon="4.46572">
        <ele>856.8</ele>
        <time>2025-09-07T15:13:18Z</time>
      </trkpt>
      <trkpt lat="46.17564" lon="4.46571">
        <ele>856.8</ele>
        <time>2025-09-07T15:13:19Z</time>
      </trkpt>
      <trkpt lat="46.17564" lon="4.4657">
        <ele>857.2</ele>
        <time>2025-09-07T15:13:20Z</time>
      </trkpt>
      <trkpt lat="46.17563" lon="4.46568">
        <ele>857.2</ele>
        <time>2025-09-07T15:13:21Z</time>
      </trkpt>
      <trkpt lat="46.17562" lon="4.46567">
        <ele>857.4</ele>
        <time>2025-09-07T15:13:22Z</time>
      </trkpt>
      <trkpt lat="46.17561" lon="4.46566">
        <ele>857.4</ele>
        <time>2025-09-07T15:13:23Z</time>
      </trkpt>
      <trkpt lat="46.1756" lon="4.46565">
        <ele>857.4</ele>
        <time>2025-09-07T15:13:24Z</time>
      </trkpt>
      <trkpt lat="46.1756" lon="4.46564">
        <ele>857.4</ele>
        <time>2025-09-07T15:13:25Z</time>
      </trkpt>
      <trkpt lat="46.17559" lon="4.46562">
        <ele>857.4</ele>
        <time>2025-09-07T15:13:26Z</time>
      </trkpt>
      <trkpt lat="46.17559" lon="4.4656">
        <ele>857.4</ele>
        <time>2025-09-07T15:13:27Z</time>
      </trkpt>
      <trkpt lat="46.17558" lon="4.46558">
        <ele>857.4</ele>
        <time>2025-09-07T15:13:28Z</time>
      </trkpt>
      <trkpt lat="46.17557" lon="4.46556">
        <ele>857.4</ele>
        <time>2025-09-07T15:13:29Z</time>
      </trkpt>
      <trkpt lat="46.17557" lon="4.46554">
        <ele>857.4</ele>
        <time>2025-09-07T15:13:30Z</time>
      </trkpt>
      <trkpt lat="46.17555" lon="4.46552">
        <ele>857.4</ele>
        <time>2025-09-07T15:13:31Z</time>
      </trkpt>
      <trkpt lat="46.17554" lon="4.46551">
        <ele>857.4</ele>
        <time>2025-09-07T15:13:32Z</time>
      </trkpt>
      <trkpt lat="46.17554" lon="4.4655">
        <ele>857.8</ele>
        <time>2025-09-07T15:13:33Z</time>
      </trkpt>
      <trkpt lat="46.17553" lon="4.46551">
        <ele>857.6</ele>
        <time>2025-09-07T15:13:34Z</time>
      </trkpt>
      <trkpt lat="46.17552" lon="4.46551">
        <ele>857.6</ele>
        <time>2025-09-07T15:13:35Z</time>
      </trkpt>
      <trkpt lat="46.17552" lon="4.46551">
        <ele>857.8</ele>
        <time>2025-09-07T15:13:36Z</time>
      </trkpt>
      <trkpt lat="46.17552" lon="4.4655">
        <ele>857.8</ele>
        <time>2025-09-07T15:13:37Z</time>
      </trkpt>
      <trkpt lat="46.17551" lon="4.46549">
        <ele>857.8</ele>
        <time>2025-09-07T15:13:38Z</time>
      </trkpt>
      <trkpt lat="46.17551" lon="4.46548">
        <ele>858.2</ele>
        <time>2025-09-07T15:13:39Z</time>
      </trkpt>
      <trkpt lat="46.17551" lon="4.46548">
        <ele>858.2</ele>
        <time>2025-09-07T15:13:40Z</time>
      </trkpt>
      <trkpt lat="46.17552" lon="4.46548">
        <ele>858.2</ele>
        <time>2025-09-07T15:13:41Z</time>
      </trkpt>
      <trkpt lat="46.17552" lon="4.46547">
        <ele>858.2</ele>
        <time>2025-09-07T15:13:42Z</time>
      </trkpt>
      <trkpt lat="46.17552" lon="4.46547">
        <ele>858.2</ele>
        <time>2025-09-07T15:13:43Z</time>
      </trkpt>
      <trkpt lat="46.17552" lon="4.46547">
        <ele>858.2</ele>
        <time>2025-09-07T15:13:44Z</time>
      </trkpt>
      <trkpt lat="46.17549" lon="4.46545">
        <ele>858.2</ele>
        <time>2025-09-07T15:13:45Z</time>
      </trkpt>
      <trkpt lat="46.17549" lon="4.46544">
        <ele>858.4</ele>
        <time>2025-09-07T15:13:46Z</time>
      </trkpt>
      <trkpt lat="46.17549" lon="4.46543">
        <ele>858.4</ele>
        <time>2025-09-07T15:13:47Z</time>
      </trkpt>
      <trkpt lat="46.17549" lon="4.46543">
        <ele>858.4</ele>
        <time>2025-09-07T15:13:48Z</time>
      </trkpt>
      <trkpt lat="46.17549" lon="4.46542">
        <ele>858.4</ele>
        <time>2025-09-07T15:13:49Z</time>
      </trkpt>
      <trkpt lat="46.17549" lon="4.4654">
        <ele>858.4</ele>
        <time>2025-09-07T15:13:50Z</time>
      </trkpt>
      <trkpt lat="46.17548" lon="4.46538">
        <ele>858.8</ele>
        <time>2025-09-07T15:13:51Z</time>
      </trkpt>
      <trkpt lat="46.17548" lon="4.46536">
        <ele>858.8</ele>
        <time>2025-09-07T15:13:52Z</time>
      </trkpt>
      <trkpt lat="46.17547" lon="4.46534">
        <ele>859.2</ele>
        <time>2025-09-07T15:13:53Z</time>
      </trkpt>
      <trkpt lat="46.17547" lon="4.46533">
        <ele>859.2</ele>
        <time>2025-09-07T15:13:54Z</time>
      </trkpt>
      <trkpt lat="46.17541" lon="4.46527">
        <ele>859.2</ele>
        <time>2025-09-07T15:15:09Z</time>
      </trkpt>
      <trkpt lat="46.17539" lon="4.46526">
        <ele>859.2</ele>
        <time>2025-09-07T15:15:10Z</time>
      </trkpt>
      <trkpt lat="46.17538" lon="4.46524">
        <ele>859.2</ele>
        <time>2025-09-07T15:15:11Z</time>
      </trkpt>
      <trkpt lat="46.17536" lon="4.4652">
        <ele>859.2</ele>
        <time>2025-09-07T15:15:12Z</time>
      </trkpt>
      <trkpt lat="46.17534" lon="4.46516">
        <ele>859</ele>
        <time>2025-09-07T15:15:13Z</time>
      </trkpt>
      <trkpt lat="46.17534" lon="4.46514">
        <ele>858.6</ele>
        <time>2025-09-07T15:15:14Z</time>
      </trkpt>
      <trkpt lat="46.17533" lon="4.4651">
        <ele>858.6</ele>
        <time>2025-09-07T15:15:15Z</time>
      </trkpt>
      <trkpt lat="46.17533" lon="4.46506">
        <ele>858.6</ele>
        <time>2025-09-07T15:15:16Z</time>
      </trkpt>
      <trkpt lat="46.17532" lon="4.46503">
        <ele>858.6</ele>
        <time>2025-09-07T15:15:17Z</time>
      </trkpt>
      <trkpt lat="46.17531" lon="4.46501">
        <ele>859.2</ele>
        <time>2025-09-07T15:15:18Z</time>
      </trkpt>
      <trkpt lat="46.1753" lon="4.46499">
        <ele>859.6</ele>
        <time>2025-09-07T15:15:19Z</time>
      </trkpt>
      <trkpt lat="46.17529" lon="4.46497">
        <ele>859.8</ele>
        <time>2025-09-07T15:15:20Z</time>
      </trkpt>
      <trkpt lat="46.1753" lon="4.46495">
        <ele>859.8</ele>
        <time>2025-09-07T15:15:21Z</time>
      </trkpt>
      <trkpt lat="46.1753" lon="4.46492">
        <ele>859.8</ele>
        <time>2025-09-07T15:15:22Z</time>
      </trkpt>
      <trkpt lat="46.17531" lon="4.46489">
        <ele>860</ele>
        <time>2025-09-07T15:15:23Z</time>
      </trkpt>
      <trkpt lat="46.17531" lon="4.46487">
        <ele>860.2</ele>
        <time>2025-09-07T15:15:24Z</time>
      </trkpt>
      <trkpt lat="46.17532" lon="4.46485">
        <ele>860.2</ele>
        <time>2025-09-07T15:15:25Z</time>
      </trkpt>
      <trkpt lat="46.17532" lon="4.46483">
        <ele>860.2</ele>
        <time>2025-09-07T15:15:26Z</time>
      </trkpt>
      <trkpt lat="46.17533" lon="4.46481">
        <ele>860.4</ele>
        <time>2025-09-07T15:15:27Z</time>
      </trkpt>
      <trkpt lat="46.17534" lon="4.46478">
        <ele>860.4</ele>
        <time>2025-09-07T15:15:28Z</time>
      </trkpt>
      <trkpt lat="46.17534" lon="4.46477">
        <ele>860.4</ele>
        <time>2025-09-07T15:15:29Z</time>
      </trkpt>
      <trkpt lat="46.17534" lon="4.46475">
        <ele>860.4</ele>
        <time>2025-09-07T15:15:30Z</time>
      </trkpt>
      <trkpt lat="46.17533" lon="4.46472">
        <ele>860.4</ele>
        <time>2025-09-07T15:15:31Z</time>
      </trkpt>
      <trkpt lat="46.17532" lon="4.46468">
        <ele>860.4</ele>
        <time>2025-09-07T15:15:32Z</time>
      </trkpt>
      <trkpt lat="46.17532" lon="4.46465">
        <ele>860.4</ele>
        <time>2025-09-07T15:15:33Z</time>
      </trkpt>
      <trkpt lat="46.17531" lon="4.46463">
        <ele>860.4</ele>
        <time>2025-09-07T15:15:34Z</time>
      </trkpt>
      <trkpt lat="46.17531" lon="4.4646">
        <ele>860.4</ele>
        <time>2025-09-07T15:15:35Z</time>
      </trkpt>
      <trkpt lat="46.1753" lon="4.46457">
        <ele>860.4</ele>
        <time>2025-09-07T15:15:36Z</time>
      </trkpt>
      <trkpt lat="46.1753" lon="4.46454">
        <ele>860.2</ele>
        <time>2025-09-07T15:15:37Z</time>
      </trkpt>
      <trkpt lat="46.1753" lon="4.46451">
        <ele>860.6</ele>
        <time>2025-09-07T15:15:38Z</time>
      </trkpt>
      <trkpt lat="46.1753" lon="4.46449">
        <ele>860.8</ele>
        <time>2025-09-07T15:15:39Z</time>
      </trkpt>
      <trkpt lat="46.1753" lon="4.46447">
        <ele>860.8</ele>
        <time>2025-09-07T15:15:40Z</time>
      </trkpt>
      <trkpt lat="46.1753" lon="4.46445">
        <ele>860.4</ele>
        <time>2025-09-07T15:15:41Z</time>
      </trkpt>
      <trkpt lat="46.1753" lon="4.46444">
        <ele>860.4</ele>
        <time>2025-09-07T15:15:42Z</time>
      </trkpt>
      <trkpt lat="46.17531" lon="4.46442">
        <ele>861.2</ele>
        <time>2025-09-07T15:15:43Z</time>
      </trkpt>
      <trkpt lat="46.17532" lon="4.4644">
        <ele>861.6</ele>
        <time>2025-09-07T15:15:44Z</time>
      </trkpt>
      <trkpt lat="46.17532" lon="4.46438">
        <ele>862</ele>
        <time>2025-09-07T15:15:45Z</time>
      </trkpt>
      <trkpt lat="46.17532" lon="4.46437">
        <ele>862</ele>
        <time>2025-09-07T15:15:46Z</time>
      </trkpt>
      <trkpt lat="46.17532" lon="4.46435">
        <ele>862</ele>
        <time>2025-09-07T15:15:47Z</time>
      </trkpt>
      <trkpt lat="46.17531" lon="4.46433">
        <ele>862</ele>
        <time>2025-09-07T15:15:48Z</time>
      </trkpt>
      <trkpt lat="46.1753" lon="4.46432">
        <ele>862</ele>
        <time>2025-09-07T15:15:49Z</time>
      </trkpt>
      <trkpt lat="46.17529" lon="4.4643">
        <ele>862</ele>
        <time>2025-09-07T15:15:50Z</time>
      </trkpt>
      <trkpt lat="46.17528" lon="4.46429">
        <ele>862</ele>
        <time>2025-09-07T15:15:51Z</time>
      </trkpt>
      <trkpt lat="46.17528" lon="4.46427">
        <ele>862</ele>
        <time>2025-09-07T15:15:52Z</time>
      </trkpt>
      <trkpt lat="46.17528" lon="4.46424">
        <ele>862.2</ele>
        <time>2025-09-07T15:15:53Z</time>
      </trkpt>
      <trkpt lat="46.17528" lon="4.46421">
        <ele>862.4</ele>
        <time>2025-09-07T15:15:54Z</time>
      </trkpt>
      <trkpt lat="46.17527" lon="4.46417">
        <ele>862.4</ele>
        <time>2025-09-07T15:15:55Z</time>
      </trkpt>
      <trkpt lat="46.17527" lon="4.46415">
        <ele>862.4</ele>
        <time>2025-09-07T15:15:56Z</time>
      </trkpt>
      <trkpt lat="46.17527" lon="4.46412">
        <ele>862.4</ele>
        <time>2025-09-07T15:15:57Z</time>
      </trkpt>
      <trkpt lat="46.17527" lon="4.46409">
        <ele>862.4</ele>
        <time>2025-09-07T15:15:58Z</time>
      </trkpt>
      <trkpt lat="46.17527" lon="4.46406">
        <ele>862.4</ele>
        <time>2025-09-07T15:15:59Z</time>
      </trkpt>
      <trkpt lat="46.17528" lon="4.46403">
        <ele>862.6</ele>
        <time>2025-09-07T15:16:00Z</time>
      </trkpt>
      <trkpt lat="46.17528" lon="4.46401">
        <ele>862.6</ele>
        <time>2025-09-07T15:16:01Z</time>
      </trkpt>
      <trkpt lat="46.17529" lon="4.46398">
        <ele>863</ele>
        <time>2025-09-07T15:16:02Z</time>
      </trkpt>
      <trkpt lat="46.1753" lon="4.46396">
        <ele>863</ele>
        <time>2025-09-07T15:16:03Z</time>
      </trkpt>
      <trkpt lat="46.17531" lon="4.46393">
        <ele>863</ele>
        <time>2025-09-07T15:16:04Z</time>
      </trkpt>
      <trkpt lat="46.17532" lon="4.46391">
        <ele>862.6</ele>
        <time>2025-09-07T15:16:05Z</time>
      </trkpt>
      <trkpt lat="46.17532" lon="4.46387">
        <ele>862.8</ele>
        <time>2025-09-07T15:16:06Z</time>
      </trkpt>
      <trkpt lat="46.17533" lon="4.46384">
        <ele>862.8</ele>
        <time>2025-09-07T15:16:07Z</time>
      </trkpt>
      <trkpt lat="46.17533" lon="4.46381">
        <ele>863.4</ele>
        <time>2025-09-07T15:16:08Z</time>
      </trkpt>
      <trkpt lat="46.17533" lon="4.46378">
        <ele>863.4</ele>
        <time>2025-09-07T15:16:09Z</time>
      </trkpt>
      <trkpt lat="46.17533" lon="4.46375">
        <ele>863.4</ele>
        <time>2025-09-07T15:16:10Z</time>
      </trkpt>
      <trkpt lat="46.17533" lon="4.46373">
        <ele>863.8</ele>
        <time>2025-09-07T15:16:11Z</time>
      </trkpt>
      <trkpt lat="46.17532" lon="4.46372">
        <ele>863</ele>
        <time>2025-09-07T15:16:12Z</time>
      </trkpt>
      <trkpt lat="46.17531" lon="4.46368">
        <ele>863.2</ele>
        <time>2025-09-07T15:16:13Z</time>
      </trkpt>
      <trkpt lat="46.17529" lon="4.46364">
        <ele>863.2</ele>
        <time>2025-09-07T15:16:14Z</time>
      </trkpt>
      <trkpt lat="46.17528" lon="4.46361">
        <ele>863.4</ele>
        <time>2025-09-07T15:16:15Z</time>
      </trkpt>
      <trkpt lat="46.17527" lon="4.46359">
        <ele>863</ele>
        <time>2025-09-07T15:16:16Z</time>
      </trkpt>
      <trkpt lat="46.17527" lon="4.46356">
        <ele>863</ele>
        <time>2025-09-07T15:16:17Z</time>
      </trkpt>
      <trkpt lat="46.17527" lon="4.46354">
        <ele>863</ele>
        <time>2025-09-07T15:16:18Z</time>
      </trkpt>
      <trkpt lat="46.17527" lon="4.46351">
        <ele>863.4</ele>
        <time>2025-09-07T15:16:19Z</time>
      </trkpt>
      <trkpt lat="46.17527" lon="4.46348">
        <ele>863.4</ele>
        <time>2025-09-07T15:16:20Z</time>
      </trkpt>
      <trkpt lat="46.17528" lon="4.46346">
        <ele>863.8</ele>
        <time>2025-09-07T15:16:21Z</time>
      </trkpt>
      <trkpt lat="46.17528" lon="4.46344">
        <ele>863.6</ele>
        <time>2025-09-07T15:16:22Z</time>
      </trkpt>
      <trkpt lat="46.17528" lon="4.46342">
        <ele>863.6</ele>
        <time>2025-09-07T15:16:23Z</time>
      </trkpt>
      <trkpt lat="46.17527" lon="4.4634">
        <ele>864</ele>
        <time>2025-09-07T15:16:24Z</time>
      </trkpt>
      <trkpt lat="46.17527" lon="4.46338">
        <ele>864</ele>
        <time>2025-09-07T15:16:25Z</time>
      </trkpt>
      <trkpt lat="46.17526" lon="4.46337">
        <ele>864.4</ele>
        <time>2025-09-07T15:16:26Z</time>
      </trkpt>
      <trkpt lat="46.17526" lon="4.46336">
        <ele>864.4</ele>
        <time>2025-09-07T15:16:27Z</time>
      </trkpt>
      <trkpt lat="46.17527" lon="4.46334">
        <ele>863.8</ele>
        <time>2025-09-07T15:16:28Z</time>
      </trkpt>
      <trkpt lat="46.17527" lon="4.46332">
        <ele>864.2</ele>
        <time>2025-09-07T15:16:29Z</time>
      </trkpt>
      <trkpt lat="46.17527" lon="4.4633">
        <ele>864.2</ele>
        <time>2025-09-07T15:16:30Z</time>
      </trkpt>
      <trkpt lat="46.17528" lon="4.46328">
        <ele>864.6</ele>
        <time>2025-09-07T15:16:31Z</time>
      </trkpt>
      <trkpt lat="46.17528" lon="4.46326">
        <ele>866</ele>
        <time>2025-09-07T15:16:32Z</time>
      </trkpt>
      <trkpt lat="46.17528" lon="4.46324">
        <ele>866</ele>
        <time>2025-09-07T15:16:33Z</time>
      </trkpt>
      <trkpt lat="46.17528" lon="4.46323">
        <ele>866</ele>
        <time>2025-09-07T15:16:34Z</time>
      </trkpt>
      <trkpt lat="46.17528" lon="4.46322">
        <ele>866.4</ele>
        <time>2025-09-07T15:16:35Z</time>
      </trkpt>
      <trkpt lat="46.17529" lon="4.46321">
        <ele>866.4</ele>
        <time>2025-09-07T15:16:36Z</time>
      </trkpt>
      <trkpt lat="46.1753" lon="4.46318">
        <ele>866.4</ele>
        <time>2025-09-07T15:16:37Z</time>
      </trkpt>
      <trkpt lat="46.1753" lon="4.46316">
        <ele>866.4</ele>
        <time>2025-09-07T15:16:38Z</time>
      </trkpt>
      <trkpt lat="46.17531" lon="4.46314">
        <ele>866.4</ele>
        <time>2025-09-07T15:16:39Z</time>
      </trkpt>
      <trkpt lat="46.17532" lon="4.46312">
        <ele>866.6</ele>
        <time>2025-09-07T15:16:40Z</time>
      </trkpt>
      <trkpt lat="46.17533" lon="4.46311">
        <ele>866.6</ele>
        <time>2025-09-07T15:16:41Z</time>
      </trkpt>
      <trkpt lat="46.17534" lon="4.46311">
        <ele>866.6</ele>
        <time>2025-09-07T15:16:42Z</time>
      </trkpt>
      <trkpt lat="46.17534" lon="4.46312">
        <ele>866.8</ele>
        <time>2025-09-07T15:16:43Z</time>
      </trkpt>
      <trkpt lat="46.17535" lon="4.46311">
        <ele>867</ele>
        <time>2025-09-07T15:16:44Z</time>
      </trkpt>
      <trkpt lat="46.17535" lon="4.46308">
        <ele>867.4</ele>
        <time>2025-09-07T15:16:45Z</time>
      </trkpt>
      <trkpt lat="46.17535" lon="4.46305">
        <ele>867.4</ele>
        <time>2025-09-07T15:16:46Z</time>
      </trkpt>
      <trkpt lat="46.17535" lon="4.46303">
        <ele>867.4</ele>
        <time>2025-09-07T15:16:47Z</time>
      </trkpt>
      <trkpt lat="46.17535" lon="4.46301">
        <ele>867.4</ele>
        <time>2025-09-07T15:16:48Z</time>
      </trkpt>
      <trkpt lat="46.17535" lon="4.463">
        <ele>867.4</ele>
        <time>2025-09-07T15:16:49Z</time>
      </trkpt>
      <trkpt lat="46.17534" lon="4.46299">
        <ele>867.4</ele>
        <time>2025-09-07T15:16:50Z</time>
      </trkpt>
      <trkpt lat="46.17534" lon="4.46297">
        <ele>867.4</ele>
        <time>2025-09-07T15:16:51Z</time>
      </trkpt>
      <trkpt lat="46.17534" lon="4.46297">
        <ele>867.4</ele>
        <time>2025-09-07T15:16:52Z</time>
      </trkpt>
      <trkpt lat="46.17532" lon="4.46294">
        <ele>867.6</ele>
        <time>2025-09-07T15:17:04Z</time>
      </trkpt>
      <trkpt lat="46.17532" lon="4.46292">
        <ele>867.8</ele>
        <time>2025-09-07T15:17:05Z</time>
      </trkpt>
      <trkpt lat="46.17533" lon="4.46289">
        <ele>868</ele>
        <time>2025-09-07T15:17:06Z</time>
      </trkpt>
      <trkpt lat="46.17534" lon="4.46288">
        <ele>868</ele>
        <time>2025-09-07T15:17:07Z</time>
      </trkpt>
      <trkpt lat="46.17534" lon="4.46285">
        <ele>868</ele>
        <time>2025-09-07T15:17:08Z</time>
      </trkpt>
      <trkpt lat="46.17535" lon="4.46284">
        <ele>868</ele>
        <time>2025-09-07T15:17:09Z</time>
      </trkpt>
      <trkpt lat="46.17535" lon="4.46285">
        <ele>868</ele>
        <time>2025-09-07T15:17:10Z</time>
      </trkpt>
      <trkpt lat="46.17535" lon="4.4628">
        <ele>868.4</ele>
        <time>2025-09-07T15:17:26Z</time>
      </trkpt>
      <trkpt lat="46.17536" lon="4.46278">
        <ele>868.6</ele>
        <time>2025-09-07T15:17:27Z</time>
      </trkpt>
      <trkpt lat="46.17536" lon="4.46275">
        <ele>868.6</ele>
        <time>2025-09-07T15:17:28Z</time>
      </trkpt>
      <trkpt lat="46.17537" lon="4.46273">
        <ele>868.6</ele>
        <time>2025-09-07T15:17:29Z</time>
      </trkpt>
      <trkpt lat="46.17538" lon="4.46271">
        <ele>869</ele>
        <time>2025-09-07T15:17:30Z</time>
      </trkpt>
      <trkpt lat="46.17538" lon="4.46269">
        <ele>869</ele>
        <time>2025-09-07T15:17:31Z</time>
      </trkpt>
      <trkpt lat="46.1754" lon="4.46267">
        <ele>869</ele>
        <time>2025-09-07T15:17:32Z</time>
      </trkpt>
      <trkpt lat="46.17542" lon="4.46265">
        <ele>869</ele>
        <time>2025-09-07T15:17:33Z</time>
      </trkpt>
      <trkpt lat="46.17543" lon="4.46261">
        <ele>869.2</ele>
        <time>2025-09-07T15:17:34Z</time>
      </trkpt>
      <trkpt lat="46.17543" lon="4.46258">
        <ele>870</ele>
        <time>2025-09-07T15:17:35Z</time>
      </trkpt>
      <trkpt lat="46.17544" lon="4.46256">
        <ele>870</ele>
        <time>2025-09-07T15:17:36Z</time>
      </trkpt>
      <trkpt lat="46.17545" lon="4.46254">
        <ele>870</ele>
        <time>2025-09-07T15:17:37Z</time>
      </trkpt>
      <trkpt lat="46.17546" lon="4.46252">
        <ele>870</ele>
        <time>2025-09-07T15:17:38Z</time>
      </trkpt>
      <trkpt lat="46.17547" lon="4.46248">
        <ele>869.6</ele>
        <time>2025-09-07T15:17:39Z</time>
      </trkpt>
      <trkpt lat="46.17547" lon="4.46245">
        <ele>869.8</ele>
        <time>2025-09-07T15:17:40Z</time>
      </trkpt>
      <trkpt lat="46.17547" lon="4.46243">
        <ele>869.8</ele>
        <time>2025-09-07T15:17:41Z</time>
      </trkpt>
      <trkpt lat="46.17547" lon="4.46241">
        <ele>869.8</ele>
        <time>2025-09-07T15:17:42Z</time>
      </trkpt>
      <trkpt lat="46.17547" lon="4.46238">
        <ele>869.8</ele>
        <time>2025-09-07T15:17:43Z</time>
      </trkpt>
      <trkpt lat="46.17547" lon="4.46235">
        <ele>870</ele>
        <time>2025-09-07T15:17:44Z</time>
      </trkpt>
      <trkpt lat="46.17547" lon="4.46233">
        <ele>870</ele>
        <time>2025-09-07T15:17:45Z</time>
      </trkpt>
      <trkpt lat="46.17548" lon="4.46231">
        <ele>870</ele>
        <time>2025-09-07T15:17:46Z</time>
      </trkpt>
      <trkpt lat="46.17549" lon="4.4623">
        <ele>870</ele>
        <time>2025-09-07T15:17:47Z</time>
      </trkpt>
      <trkpt lat="46.17549" lon="4.46228">
        <ele>870.8</ele>
        <time>2025-09-07T15:17:48Z</time>
      </trkpt>
      <trkpt lat="46.1755" lon="4.46225">
        <ele>870.8</ele>
        <time>2025-09-07T15:17:49Z</time>
      </trkpt>
      <trkpt lat="46.1755" lon="4.46223">
        <ele>870.8</ele>
        <time>2025-09-07T15:17:50Z</time>
      </trkpt>
      <trkpt lat="46.1755" lon="4.46221">
        <ele>870.8</ele>
        <time>2025-09-07T15:17:51Z</time>
      </trkpt>
      <trkpt lat="46.1755" lon="4.46219">
        <ele>870.8</ele>
        <time>2025-09-07T15:17:52Z</time>
      </trkpt>
      <trkpt lat="46.17551" lon="4.46216">
        <ele>870.8</ele>
        <time>2025-09-07T15:17:53Z</time>
      </trkpt>
      <trkpt lat="46.17551" lon="4.46214">
        <ele>870.8</ele>
        <time>2025-09-07T15:17:54Z</time>
      </trkpt>
      <trkpt lat="46.17551" lon="4.46213">
        <ele>870.8</ele>
        <time>2025-09-07T15:17:55Z</time>
      </trkpt>
      <trkpt lat="46.17551" lon="4.46211">
        <ele>870.8</ele>
        <time>2025-09-07T15:17:56Z</time>
      </trkpt>
      <trkpt lat="46.1755" lon="4.46208">
        <ele>870.8</ele>
        <time>2025-09-07T15:17:57Z</time>
      </trkpt>
      <trkpt lat="46.17549" lon="4.46206">
        <ele>871.2</ele>
        <time>2025-09-07T15:17:58Z</time>
      </trkpt>
      <trkpt lat="46.17549" lon="4.46204">
        <ele>871.2</ele>
        <time>2025-09-07T15:17:59Z</time>
      </trkpt>
      <trkpt lat="46.17549" lon="4.46203">
        <ele>871.2</ele>
        <time>2025-09-07T15:18:00Z</time>
      </trkpt>
      <trkpt lat="46.17548" lon="4.46202">
        <ele>871.2</ele>
        <time>2025-09-07T15:18:01Z</time>
      </trkpt>
      <trkpt lat="46.17548" lon="4.46201">
        <ele>871.2</ele>
        <time>2025-09-07T15:18:02Z</time>
      </trkpt>
      <trkpt lat="46.17548" lon="4.46197">
        <ele>871.4</ele>
        <time>2025-09-07T15:18:03Z</time>
      </trkpt>
      <trkpt lat="46.17549" lon="4.46194">
        <ele>871.6</ele>
        <time>2025-09-07T15:18:04Z</time>
      </trkpt>
      <trkpt lat="46.17549" lon="4.46192">
        <ele>871.6</ele>
        <time>2025-09-07T15:18:05Z</time>
      </trkpt>
      <trkpt lat="46.1755" lon="4.46189">
        <ele>872.4</ele>
        <time>2025-09-07T15:18:06Z</time>
      </trkpt>
      <trkpt lat="46.1755" lon="4.46187">
        <ele>872.6</ele>
        <time>2025-09-07T15:18:07Z</time>
      </trkpt>
      <trkpt lat="46.17551" lon="4.46185">
        <ele>872.6</ele>
        <time>2025-09-07T15:18:08Z</time>
      </trkpt>
      <trkpt lat="46.17551" lon="4.46183">
        <ele>873</ele>
        <time>2025-09-07T15:18:09Z</time>
      </trkpt>
      <trkpt lat="46.17551" lon="4.46181">
        <ele>873.2</ele>
        <time>2025-09-07T15:18:10Z</time>
      </trkpt>
      <trkpt lat="46.17552" lon="4.46178">
        <ele>873.4</ele>
        <time>2025-09-07T15:18:11Z</time>
      </trkpt>
      <trkpt lat="46.17552" lon="4.46176">
        <ele>873.4</ele>
        <time>2025-09-07T15:18:12Z</time>
      </trkpt>
      <trkpt lat="46.17552" lon="4.46175">
        <ele>873.6</ele>
        <time>2025-09-07T15:18:13Z</time>
      </trkpt>
      <trkpt lat="46.17553" lon="4.46173">
        <ele>873.6</ele>
        <time>2025-09-07T15:18:14Z</time>
      </trkpt>
      <trkpt lat="46.17554" lon="4.46171">
        <ele>873.6</ele>
        <time>2025-09-07T15:18:15Z</time>
      </trkpt>
      <trkpt lat="46.17554" lon="4.46169">
        <ele>873.6</ele>
        <time>2025-09-07T15:18:16Z</time>
      </trkpt>
      <trkpt lat="46.17555" lon="4.46167">
        <ele>874</ele>
        <time>2025-09-07T15:18:17Z</time>
      </trkpt>
      <trkpt lat="46.17555" lon="4.46165">
        <ele>874</ele>
        <time>2025-09-07T15:18:18Z</time>
      </trkpt>
      <trkpt lat="46.17556" lon="4.46162">
        <ele>874</ele>
        <time>2025-09-07T15:18:19Z</time>
      </trkpt>
      <trkpt lat="46.17557" lon="4.4616">
        <ele>874</ele>
        <time>2025-09-07T15:18:20Z</time>
      </trkpt>
      <trkpt lat="46.17557" lon="4.46158">
        <ele>874.4</ele>
        <time>2025-09-07T15:18:21Z</time>
      </trkpt>
      <trkpt lat="46.17557" lon="4.46155">
        <ele>874.8</ele>
        <time>2025-09-07T15:18:22Z</time>
      </trkpt>
      <trkpt lat="46.17557" lon="4.46155">
        <ele>875.2</ele>
        <time>2025-09-07T15:18:23Z</time>
      </trkpt>
      <trkpt lat="46.17558" lon="4.46153">
        <ele>875.2</ele>
        <time>2025-09-07T15:18:24Z</time>
      </trkpt>
      <trkpt lat="46.17558" lon="4.46151">
        <ele>875.2</ele>
        <time>2025-09-07T15:18:25Z</time>
      </trkpt>
      <trkpt lat="46.17558" lon="4.46148">
        <ele>875.2</ele>
        <time>2025-09-07T15:18:26Z</time>
      </trkpt>
      <trkpt lat="46.17558" lon="4.46146">
        <ele>875.4</ele>
        <time>2025-09-07T15:18:27Z</time>
      </trkpt>
      <trkpt lat="46.17558" lon="4.46144">
        <ele>875.4</ele>
        <time>2025-09-07T15:18:28Z</time>
      </trkpt>
      <trkpt lat="46.17559" lon="4.46141">
        <ele>875.8</ele>
        <time>2025-09-07T15:18:29Z</time>
      </trkpt>
      <trkpt lat="46.17559" lon="4.46139">
        <ele>876.2</ele>
        <time>2025-09-07T15:18:30Z</time>
      </trkpt>
      <trkpt lat="46.17559" lon="4.46138">
        <ele>876.2</ele>
        <time>2025-09-07T15:18:31Z</time>
      </trkpt>
      <trkpt lat="46.17559" lon="4.46137">
        <ele>876.4</ele>
        <time>2025-09-07T15:18:32Z</time>
      </trkpt>
      <trkpt lat="46.1756" lon="4.46136">
        <ele>876.8</ele>
        <time>2025-09-07T15:18:33Z</time>
      </trkpt>
      <trkpt lat="46.17561" lon="4.46135">
        <ele>876.8</ele>
        <time>2025-09-07T15:18:34Z</time>
      </trkpt>
      <trkpt lat="46.17562" lon="4.46134">
        <ele>876.8</ele>
        <time>2025-09-07T15:18:35Z</time>
      </trkpt>
      <trkpt lat="46.17564" lon="4.46132">
        <ele>876.8</ele>
        <time>2025-09-07T15:18:36Z</time>
      </trkpt>
      <trkpt lat="46.17565" lon="4.46129">
        <ele>877.4</ele>
        <time>2025-09-07T15:18:37Z</time>
      </trkpt>
      <trkpt lat="46.17566" lon="4.46128">
        <ele>877.6</ele>
        <time>2025-09-07T15:18:38Z</time>
      </trkpt>
      <trkpt lat="46.17566" lon="4.46126">
        <ele>877.6</ele>
        <time>2025-09-07T15:18:39Z</time>
      </trkpt>
      <trkpt lat="46.17567" lon="4.46124">
        <ele>877.6</ele>
        <time>2025-09-07T15:18:40Z</time>
      </trkpt>
      <trkpt lat="46.17567" lon="4.46123">
        <ele>877.6</ele>
        <time>2025-09-07T15:18:41Z</time>
      </trkpt>
      <trkpt lat="46.17568" lon="4.46123">
        <ele>877.6</ele>
        <time>2025-09-07T15:18:42Z</time>
      </trkpt>
      <trkpt lat="46.17568" lon="4.46122">
        <ele>877.6</ele>
        <time>2025-09-07T15:18:43Z</time>
      </trkpt>
      <trkpt lat="46.17567" lon="4.46117">
        <ele>878</ele>
        <time>2025-09-07T15:18:54Z</time>
      </trkpt>
      <trkpt lat="46.17567" lon="4.46117">
        <ele>878</ele>
        <time>2025-09-07T15:18:55Z</time>
      </trkpt>
      <trkpt lat="46.17567" lon="4.46116">
        <ele>878.4</ele>
        <time>2025-09-07T15:18:56Z</time>
      </trkpt>
      <trkpt lat="46.17567" lon="4.46115">
        <ele>878.4</ele>
        <time>2025-09-07T15:18:57Z</time>
      </trkpt>
      <trkpt lat="46.17566" lon="4.46114">
        <ele>878.4</ele>
        <time>2025-09-07T15:18:58Z</time>
      </trkpt>
      <trkpt lat="46.17566" lon="4.46113">
        <ele>878.6</ele>
        <time>2025-09-07T15:18:59Z</time>
      </trkpt>
      <trkpt lat="46.17566" lon="4.46111">
        <ele>878.6</ele>
        <time>2025-09-07T15:19:00Z</time>
      </trkpt>
      <trkpt lat="46.17566" lon="4.46109">
        <ele>878.6</ele>
        <time>2025-09-07T15:19:01Z</time>
      </trkpt>
      <trkpt lat="46.17566" lon="4.46108">
        <ele>878.6</ele>
        <time>2025-09-07T15:19:02Z</time>
      </trkpt>
      <trkpt lat="46.17566" lon="4.46107">
        <ele>878.6</ele>
        <time>2025-09-07T15:19:03Z</time>
      </trkpt>
      <trkpt lat="46.17567" lon="4.46105">
        <ele>879</ele>
        <time>2025-09-07T15:19:12Z</time>
      </trkpt>
      <trkpt lat="46.17567" lon="4.46105">
        <ele>879</ele>
        <time>2025-09-07T15:19:13Z</time>
      </trkpt>
      <trkpt lat="46.17566" lon="4.46103">
        <ele>879</ele>
        <time>2025-09-07T15:19:18Z</time>
      </trkpt>
      <trkpt lat="46.17566" lon="4.46104">
        <ele>879</ele>
        <time>2025-09-07T15:19:19Z</time>
      </trkpt>
      <trkpt lat="46.17566" lon="4.46104">
        <ele>878.8</ele>
        <time>2025-09-07T15:19:20Z</time>
      </trkpt>
      <trkpt lat="46.17565" lon="4.46103">
        <ele>879</ele>
        <time>2025-09-07T15:19:23Z</time>
      </trkpt>
      <trkpt lat="46.17565" lon="4.46102">
        <ele>879.4</ele>
        <time>2025-09-07T15:19:24Z</time>
      </trkpt>
      <trkpt lat="46.17564" lon="4.46102">
        <ele>879.4</ele>
        <time>2025-09-07T15:19:25Z</time>
      </trkpt>
      <trkpt lat="46.17564" lon="4.461">
        <ele>879.4</ele>
        <time>2025-09-07T15:19:31Z</time>
      </trkpt>
      <trkpt lat="46.17563" lon="4.46099">
        <ele>879.4</ele>
        <time>2025-09-07T15:19:32Z</time>
      </trkpt>
      <trkpt lat="46.17563" lon="4.46097">
        <ele>879.4</ele>
        <time>2025-09-07T15:19:33Z</time>
      </trkpt>
      <trkpt lat="46.17563" lon="4.46094">
        <ele>879.4</ele>
        <time>2025-09-07T15:19:34Z</time>
      </trkpt>
      <trkpt lat="46.17563" lon="4.46092">
        <ele>879.4</ele>
        <time>2025-09-07T15:19:35Z</time>
      </trkpt>
      <trkpt lat="46.17563" lon="4.46091">
        <ele>879.4</ele>
        <time>2025-09-07T15:19:36Z</time>
      </trkpt>
      <trkpt lat="46.17564" lon="4.4609">
        <ele>879.4</ele>
        <time>2025-09-07T15:19:37Z</time>
      </trkpt>
      <trkpt lat="46.17564" lon="4.4609">
        <ele>879.4</ele>
        <time>2025-09-07T15:19:38Z</time>
      </trkpt>
      <trkpt lat="46.17563" lon="4.46089">
        <ele>879.4</ele>
        <time>2025-09-07T15:19:39Z</time>
      </trkpt>
      <trkpt lat="46.17563" lon="4.46087">
        <ele>879.4</ele>
        <time>2025-09-07T15:19:40Z</time>
      </trkpt>
      <trkpt lat="46.17563" lon="4.46086">
        <ele>879.2</ele>
        <time>2025-09-07T15:19:41Z</time>
      </trkpt>
      <trkpt lat="46.17562" lon="4.46084">
        <ele>879.2</ele>
        <time>2025-09-07T15:19:42Z</time>
      </trkpt>
      <trkpt lat="46.17562" lon="4.46083">
        <ele>879.2</ele>
        <time>2025-09-07T15:19:43Z</time>
      </trkpt>
      <trkpt lat="46.17562" lon="4.46081">
        <ele>879.2</ele>
        <time>2025-09-07T15:19:44Z</time>
      </trkpt>
      <trkpt lat="46.17562" lon="4.4608">
        <ele>879.4</ele>
        <time>2025-09-07T15:19:45Z</time>
      </trkpt>
      <trkpt lat="46.17561" lon="4.46079">
        <ele>879.4</ele>
        <time>2025-09-07T15:19:46Z</time>
      </trkpt>
      <trkpt lat="46.17561" lon="4.46078">
        <ele>879.4</ele>
        <time>2025-09-07T15:19:47Z</time>
      </trkpt>
      <trkpt lat="46.17561" lon="4.46074">
        <ele>879.4</ele>
        <time>2025-09-07T15:20:27Z</time>
      </trkpt>
      <trkpt lat="46.17562" lon="4.46073">
        <ele>879.4</ele>
        <time>2025-09-07T15:20:28Z</time>
      </trkpt>
      <trkpt lat="46.17562" lon="4.46072">
        <ele>879.4</ele>
        <time>2025-09-07T15:20:29Z</time>
      </trkpt>
      <trkpt lat="46.17561" lon="4.46071">
        <ele>879.4</ele>
        <time>2025-09-07T15:20:30Z</time>
      </trkpt>
      <trkpt lat="46.17561" lon="4.4607">
        <ele>879.4</ele>
        <time>2025-09-07T15:20:31Z</time>
      </trkpt>
      <trkpt lat="46.1756" lon="4.46071">
        <ele>879.4</ele>
        <time>2025-09-07T15:20:32Z</time>
      </trkpt>
      <trkpt lat="46.17554" lon="4.46071">
        <ele>879.2</ele>
        <time>2025-09-07T15:25:00Z</time>
      </trkpt>
      <trkpt lat="46.17554" lon="4.46071">
        <ele>879.2</ele>
        <time>2025-09-07T15:25:01Z</time>
      </trkpt>
      <trkpt lat="46.17554" lon="4.46071">
        <ele>879.2</ele>
        <time>2025-09-07T15:25:02Z</time>
      </trkpt>
      <trkpt lat="46.17554" lon="4.46071">
        <ele>879.2</ele>
        <time>2025-09-07T15:25:03Z</time>
      </trkpt>
      <trkpt lat="46.17554" lon="4.46069">
        <ele>878.4</ele>
        <time>2025-09-07T15:25:09Z</time>
      </trkpt>
      <trkpt lat="46.17553" lon="4.46067">
        <ele>878.4</ele>
        <time>2025-09-07T15:25:10Z</time>
      </trkpt>
      <trkpt lat="46.17552" lon="4.46064">
        <ele>878.6</ele>
        <time>2025-09-07T15:25:11Z</time>
      </trkpt>
      <trkpt lat="46.17551" lon="4.46062">
        <ele>878.6</ele>
        <time>2025-09-07T15:25:12Z</time>
      </trkpt>
      <trkpt lat="46.17552" lon="4.4606">
        <ele>878.6</ele>
        <time>2025-09-07T15:25:13Z</time>
      </trkpt>
      <trkpt lat="46.17552" lon="4.46059">
        <ele>878.6</ele>
        <time>2025-09-07T15:25:14Z</time>
      </trkpt>
      <trkpt lat="46.17552" lon="4.46057">
        <ele>878.8</ele>
        <time>2025-09-07T15:25:15Z</time>
      </trkpt>
      <trkpt lat="46.17551" lon="4.46055">
        <ele>878.8</ele>
        <time>2025-09-07T15:25:16Z</time>
      </trkpt>
      <trkpt lat="46.17551" lon="4.46053">
        <ele>878.8</ele>
        <time>2025-09-07T15:25:17Z</time>
      </trkpt>
      <trkpt lat="46.17551" lon="4.46051">
        <ele>878.8</ele>
        <time>2025-09-07T15:25:18Z</time>
      </trkpt>
      <trkpt lat="46.1755" lon="4.46048">
        <ele>878.8</ele>
        <time>2025-09-07T15:25:19Z</time>
      </trkpt>
      <trkpt lat="46.1755" lon="4.46045">
        <ele>878.8</ele>
        <time>2025-09-07T15:25:20Z</time>
      </trkpt>
      <trkpt lat="46.17549" lon="4.46043">
        <ele>878.8</ele>
        <time>2025-09-07T15:25:21Z</time>
      </trkpt>
      <trkpt lat="46.17548" lon="4.46041">
        <ele>878.8</ele>
        <time>2025-09-07T15:25:22Z</time>
      </trkpt>
      <trkpt lat="46.17547" lon="4.4604">
        <ele>878.8</ele>
        <time>2025-09-07T15:25:23Z</time>
      </trkpt>
      <trkpt lat="46.17547" lon="4.46038">
        <ele>879</ele>
        <time>2025-09-07T15:25:24Z</time>
      </trkpt>
      <trkpt lat="46.17546" lon="4.46036">
        <ele>879</ele>
        <time>2025-09-07T15:25:25Z</time>
      </trkpt>
      <trkpt lat="46.17545" lon="4.46034">
        <ele>879</ele>
        <time>2025-09-07T15:25:26Z</time>
      </trkpt>
      <trkpt lat="46.17545" lon="4.46033">
        <ele>879</ele>
        <time>2025-09-07T15:25:27Z</time>
      </trkpt>
      <trkpt lat="46.17545" lon="4.46031">
        <ele>879.4</ele>
        <time>2025-09-07T15:25:28Z</time>
      </trkpt>
      <trkpt lat="46.17544" lon="4.46028">
        <ele>879.4</ele>
        <time>2025-09-07T15:25:29Z</time>
      </trkpt>
      <trkpt lat="46.17543" lon="4.46024">
        <ele>879.2</ele>
        <time>2025-09-07T15:25:30Z</time>
      </trkpt>
      <trkpt lat="46.17542" lon="4.46022">
        <ele>879.2</ele>
        <time>2025-09-07T15:25:31Z</time>
      </trkpt>
      <trkpt lat="46.17541" lon="4.46017">
        <ele>879.2</ele>
        <time>2025-09-07T15:25:32Z</time>
      </trkpt>
      <trkpt lat="46.17541" lon="4.46012">
        <ele>879.2</ele>
        <time>2025-09-07T15:25:33Z</time>
      </trkpt>
      <trkpt lat="46.1754" lon="4.46008">
        <ele>879.2</ele>
        <time>2025-09-07T15:25:34Z</time>
      </trkpt>
      <trkpt lat="46.17539" lon="4.46004">
        <ele>879</ele>
        <time>2025-09-07T15:25:35Z</time>
      </trkpt>
      <trkpt lat="46.17537" lon="4.45999">
        <ele>878.6</ele>
        <time>2025-09-07T15:25:36Z</time>
      </trkpt>
      <trkpt lat="46.17536" lon="4.45995">
        <ele>878.8</ele>
        <time>2025-09-07T15:25:37Z</time>
      </trkpt>
      <trkpt lat="46.17536" lon="4.45991">
        <ele>878.8</ele>
        <time>2025-09-07T15:25:38Z</time>
      </trkpt>
      <trkpt lat="46.17535" lon="4.45986">
        <ele>878.8</ele>
        <time>2025-09-07T15:25:39Z</time>
      </trkpt>
      <trkpt lat="46.17535" lon="4.4598">
        <ele>878.6</ele>
        <time>2025-09-07T15:25:40Z</time>
      </trkpt>
      <trkpt lat="46.17535" lon="4.45976">
        <ele>877.2</ele>
        <time>2025-09-07T15:25:41Z</time>
      </trkpt>
      <trkpt lat="46.17536" lon="4.45973">
        <ele>877.8</ele>
        <time>2025-09-07T15:25:42Z</time>
      </trkpt>
      <trkpt lat="46.17536" lon="4.4597">
        <ele>877.8</ele>
        <time>2025-09-07T15:25:43Z</time>
      </trkpt>
      <trkpt lat="46.17536" lon="4.45968">
        <ele>877.8</ele>
        <time>2025-09-07T15:25:44Z</time>
      </trkpt>
      <trkpt lat="46.17535" lon="4.45965">
        <ele>878</ele>
        <time>2025-09-07T15:25:45Z</time>
      </trkpt>
      <trkpt lat="46.17534" lon="4.45961">
        <ele>878</ele>
        <time>2025-09-07T15:25:46Z</time>
      </trkpt>
      <trkpt lat="46.17533" lon="4.45955">
        <ele>877.6</ele>
        <time>2025-09-07T15:25:47Z</time>
      </trkpt>
      <trkpt lat="46.17532" lon="4.4595">
        <ele>877.6</ele>
        <time>2025-09-07T15:25:48Z</time>
      </trkpt>
      <trkpt lat="46.17531" lon="4.45944">
        <ele>877.6</ele>
        <time>2025-09-07T15:25:49Z</time>
      </trkpt>
      <trkpt lat="46.17527" lon="4.45935">
        <ele>877.4</ele>
        <time>2025-09-07T15:25:50Z</time>
      </trkpt>
      <trkpt lat="46.17525" lon="4.45929">
        <ele>877.4</ele>
        <time>2025-09-07T15:25:51Z</time>
      </trkpt>
      <trkpt lat="46.17523" lon="4.45922">
        <ele>877</ele>
        <time>2025-09-07T15:25:52Z</time>
      </trkpt>
      <trkpt lat="46.17521" lon="4.45917">
        <ele>876.6</ele>
        <time>2025-09-07T15:25:53Z</time>
      </trkpt>
      <trkpt lat="46.17519" lon="4.4591">
        <ele>876.4</ele>
        <time>2025-09-07T15:25:54Z</time>
      </trkpt>
      <trkpt lat="46.17518" lon="4.45899">
        <ele>876</ele>
        <time>2025-09-07T15:25:55Z</time>
      </trkpt>
      <trkpt lat="46.17515" lon="4.45891">
        <ele>875.8</ele>
        <time>2025-09-07T15:25:56Z</time>
      </trkpt>
      <trkpt lat="46.17515" lon="4.45891">
        <ele>875.8</ele>
        <time>2025-09-07T15:25:57Z</time>
      </trkpt>
      <trkpt lat="46.17515" lon="4.45891">
        <ele>875.4</ele>
        <time>2025-09-07T15:25:58Z</time>
      </trkpt>
      <trkpt lat="46.1751" lon="4.45873">
        <ele>875.4</ele>
        <time>2025-09-07T15:25:59Z</time>
      </trkpt>
      <trkpt lat="46.17508" lon="4.45866">
        <ele>875.2</ele>
        <time>2025-09-07T15:26:00Z</time>
      </trkpt>
      <trkpt lat="46.17507" lon="4.45863">
        <ele>874.8</ele>
        <time>2025-09-07T15:26:01Z</time>
      </trkpt>
      <trkpt lat="46.17508" lon="4.4586">
        <ele>874.8</ele>
        <time>2025-09-07T15:26:02Z</time>
      </trkpt>
      <trkpt lat="46.17507" lon="4.45856">
        <ele>874.8</ele>
        <time>2025-09-07T15:26:03Z</time>
      </trkpt>
      <trkpt lat="46.17504" lon="4.45852">
        <ele>874.8</ele>
        <time>2025-09-07T15:26:04Z</time>
      </trkpt>
      <trkpt lat="46.17502" lon="4.45846">
        <ele>874.8</ele>
        <time>2025-09-07T15:26:05Z</time>
      </trkpt>
      <trkpt lat="46.17502" lon="4.45844">
        <ele>874.8</ele>
        <time>2025-09-07T15:26:06Z</time>
      </trkpt>
      <trkpt lat="46.17498" lon="4.4584">
        <ele>874.8</ele>
        <time>2025-09-07T15:26:07Z</time>
      </trkpt>
      <trkpt lat="46.17495" lon="4.45834">
        <ele>874.6</ele>
        <time>2025-09-07T15:26:08Z</time>
      </trkpt>
      <trkpt lat="46.17493" lon="4.45829">
        <ele>874</ele>
        <time>2025-09-07T15:26:09Z</time>
      </trkpt>
      <trkpt lat="46.17491" lon="4.45823">
        <ele>874</ele>
        <time>2025-09-07T15:26:10Z</time>
      </trkpt>
      <trkpt lat="46.17488" lon="4.45817">
        <ele>874</ele>
        <time>2025-09-07T15:26:11Z</time>
      </trkpt>
      <trkpt lat="46.17485" lon="4.45813">
        <ele>873.8</ele>
        <time>2025-09-07T15:26:12Z</time>
      </trkpt>
      <trkpt lat="46.17482" lon="4.45808">
        <ele>873.8</ele>
        <time>2025-09-07T15:26:13Z</time>
      </trkpt>
      <trkpt lat="46.17479" lon="4.45802">
        <ele>873.8</ele>
        <time>2025-09-07T15:26:14Z</time>
      </trkpt>
      <trkpt lat="46.17476" lon="4.45796">
        <ele>873.8</ele>
        <time>2025-09-07T15:26:15Z</time>
      </trkpt>
      <trkpt lat="46.17476" lon="4.45796">
        <ele>873.4</ele>
        <time>2025-09-07T15:26:16Z</time>
      </trkpt>
      <trkpt lat="46.17472" lon="4.45791">
        <ele>873.4</ele>
        <time>2025-09-07T15:26:17Z</time>
      </trkpt>
      <trkpt lat="46.17468" lon="4.45784">
        <ele>873</ele>
        <time>2025-09-07T15:26:18Z</time>
      </trkpt>
      <trkpt lat="46.17466" lon="4.45776">
        <ele>872.8</ele>
        <time>2025-09-07T15:26:19Z</time>
      </trkpt>
      <trkpt lat="46.17463" lon="4.45772">
        <ele>872.4</ele>
        <time>2025-09-07T15:26:20Z</time>
      </trkpt>
      <trkpt lat="46.1746" lon="4.45769">
        <ele>872.4</ele>
        <time>2025-09-07T15:26:21Z</time>
      </trkpt>
      <trkpt lat="46.17457" lon="4.45765">
        <ele>872.4</ele>
        <time>2025-09-07T15:26:22Z</time>
      </trkpt>
      <trkpt lat="46.17455" lon="4.4576">
        <ele>872.2</ele>
        <time>2025-09-07T15:26:23Z</time>
      </trkpt>
      <trkpt lat="46.17453" lon="4.45754">
        <ele>872</ele>
        <time>2025-09-07T15:26:24Z</time>
      </trkpt>
      <trkpt lat="46.17452" lon="4.45751">
        <ele>872</ele>
        <time>2025-09-07T15:26:25Z</time>
      </trkpt>
      <trkpt lat="46.17448" lon="4.45747">
        <ele>871.4</ele>
        <time>2025-09-07T15:26:26Z</time>
      </trkpt>
      <trkpt lat="46.17445" lon="4.45743">
        <ele>871.2</ele>
        <time>2025-09-07T15:26:27Z</time>
      </trkpt>
      <trkpt lat="46.17442" lon="4.45739">
        <ele>871.8</ele>
        <time>2025-09-07T15:26:28Z</time>
      </trkpt>
      <trkpt lat="46.1744" lon="4.45737">
        <ele>871.4</ele>
        <time>2025-09-07T15:26:29Z</time>
      </trkpt>
      <trkpt lat="46.17437" lon="4.45734">
        <ele>871.2</ele>
        <time>2025-09-07T15:26:30Z</time>
      </trkpt>
      <trkpt lat="46.17435" lon="4.45731">
        <ele>871</ele>
        <time>2025-09-07T15:26:31Z</time>
      </trkpt>
      <trkpt lat="46.17433" lon="4.45728">
        <ele>870.6</ele>
        <time>2025-09-07T15:26:32Z</time>
      </trkpt>
      <trkpt lat="46.17431" lon="4.45726">
        <ele>870.2</ele>
        <time>2025-09-07T15:26:33Z</time>
      </trkpt>
      <trkpt lat="46.17431" lon="4.45724">
        <ele>870.2</ele>
        <time>2025-09-07T15:26:34Z</time>
      </trkpt>
      <trkpt lat="46.17429" lon="4.45722">
        <ele>869.6</ele>
        <time>2025-09-07T15:26:35Z</time>
      </trkpt>
      <trkpt lat="46.17428" lon="4.45719">
        <ele>869.6</ele>
        <time>2025-09-07T15:26:36Z</time>
      </trkpt>
      <trkpt lat="46.17426" lon="4.45716">
        <ele>869.6</ele>
        <time>2025-09-07T15:26:37Z</time>
      </trkpt>
      <trkpt lat="46.17425" lon="4.45714">
        <ele>869</ele>
        <time>2025-09-07T15:26:38Z</time>
      </trkpt>
      <trkpt lat="46.17424" lon="4.45712">
        <ele>869</ele>
        <time>2025-09-07T15:26:39Z</time>
      </trkpt>
      <trkpt lat="46.17422" lon="4.45709">
        <ele>869</ele>
        <time>2025-09-07T15:26:40Z</time>
      </trkpt>
      <trkpt lat="46.1742" lon="4.45707">
        <ele>868.4</ele>
        <time>2025-09-07T15:26:41Z</time>
      </trkpt>
      <trkpt lat="46.17417" lon="4.45703">
        <ele>868.4</ele>
        <time>2025-09-07T15:26:42Z</time>
      </trkpt>
      <trkpt lat="46.17414" lon="4.457">
        <ele>868.2</ele>
        <time>2025-09-07T15:26:43Z</time>
      </trkpt>
      <trkpt lat="46.17412" lon="4.45698">
        <ele>868.2</ele>
        <time>2025-09-07T15:26:44Z</time>
      </trkpt>
      <trkpt lat="46.1741" lon="4.45696">
        <ele>868</ele>
        <time>2025-09-07T15:26:45Z</time>
      </trkpt>
      <trkpt lat="46.17409" lon="4.45695">
        <ele>868</ele>
        <time>2025-09-07T15:26:46Z</time>
      </trkpt>
      <trkpt lat="46.17409" lon="4.45694">
        <ele>868</ele>
        <time>2025-09-07T15:26:47Z</time>
      </trkpt>
      <trkpt lat="46.17408" lon="4.45693">
        <ele>867.8</ele>
        <time>2025-09-07T15:26:48Z</time>
      </trkpt>
      <trkpt lat="46.17408" lon="4.45691">
        <ele>867.8</ele>
        <time>2025-09-07T15:26:49Z</time>
      </trkpt>
      <trkpt lat="46.17407" lon="4.45689">
        <ele>867.8</ele>
        <time>2025-09-07T15:26:50Z</time>
      </trkpt>
      <trkpt lat="46.17406" lon="4.45688">
        <ele>867.8</ele>
        <time>2025-09-07T15:26:51Z</time>
      </trkpt>
      <trkpt lat="46.17404" lon="4.45686">
        <ele>867.8</ele>
        <time>2025-09-07T15:26:52Z</time>
      </trkpt>
      <trkpt lat="46.17401" lon="4.45683">
        <ele>867.8</ele>
        <time>2025-09-07T15:26:53Z</time>
      </trkpt>
      <trkpt lat="46.17398" lon="4.45681">
        <ele>867.8</ele>
        <time>2025-09-07T15:26:54Z</time>
      </trkpt>
      <trkpt lat="46.17395" lon="4.45679">
        <ele>867.6</ele>
        <time>2025-09-07T15:26:55Z</time>
      </trkpt>
      <trkpt lat="46.17392" lon="4.45676">
        <ele>867.6</ele>
        <time>2025-09-07T15:26:56Z</time>
      </trkpt>
      <trkpt lat="46.17388" lon="4.45672">
        <ele>867.4</ele>
        <time>2025-09-07T15:26:57Z</time>
      </trkpt>
      <trkpt lat="46.17384" lon="4.45669">
        <ele>867</ele>
        <time>2025-09-07T15:26:58Z</time>
      </trkpt>
      <trkpt lat="46.17381" lon="4.45665">
        <ele>866.6</ele>
        <time>2025-09-07T15:26:59Z</time>
      </trkpt>
      <trkpt lat="46.17377" lon="4.45662">
        <ele>866.6</ele>
        <time>2025-09-07T15:27:00Z</time>
      </trkpt>
      <trkpt lat="46.17374" lon="4.4566">
        <ele>866.6</ele>
        <time>2025-09-07T15:27:01Z</time>
      </trkpt>
      <trkpt lat="46.17371" lon="4.45657">
        <ele>866.2</ele>
        <time>2025-09-07T15:27:02Z</time>
      </trkpt>
      <trkpt lat="46.17367" lon="4.4565">
        <ele>866</ele>
        <time>2025-09-07T15:27:03Z</time>
      </trkpt>
      <trkpt lat="46.17364" lon="4.45645">
        <ele>866</ele>
        <time>2025-09-07T15:27:04Z</time>
      </trkpt>
      <trkpt lat="46.17362" lon="4.45644">
        <ele>866</ele>
        <time>2025-09-07T15:27:05Z</time>
      </trkpt>
      <trkpt lat="46.1736" lon="4.4564">
        <ele>865.6</ele>
        <time>2025-09-07T15:27:06Z</time>
      </trkpt>
      <trkpt lat="46.17358" lon="4.45638">
        <ele>865.6</ele>
        <time>2025-09-07T15:27:07Z</time>
      </trkpt>
      <trkpt lat="46.17354" lon="4.45634">
        <ele>865.4</ele>
        <time>2025-09-07T15:27:08Z</time>
      </trkpt>
      <trkpt lat="46.17352" lon="4.45633">
        <ele>865.4</ele>
        <time>2025-09-07T15:27:09Z</time>
      </trkpt>
      <trkpt lat="46.1735" lon="4.45632">
        <ele>865</ele>
        <time>2025-09-07T15:27:10Z</time>
      </trkpt>
      <trkpt lat="46.17348" lon="4.45632">
        <ele>865</ele>
        <time>2025-09-07T15:27:11Z</time>
      </trkpt>
      <trkpt lat="46.17348" lon="4.45635">
        <ele>865</ele>
        <time>2025-09-07T15:27:12Z</time>
      </trkpt>
      <trkpt lat="46.17346" lon="4.45631">
        <ele>864.4</ele>
        <time>2025-09-07T15:27:56Z</time>
      </trkpt>
      <trkpt lat="46.17345" lon="4.45631">
        <ele>864.6</ele>
        <time>2025-09-07T15:27:57Z</time>
      </trkpt>
      <trkpt lat="46.17343" lon="4.45631">
        <ele>864.2</ele>
        <time>2025-09-07T15:27:58Z</time>
      </trkpt>
      <trkpt lat="46.17341" lon="4.4563">
        <ele>863.8</ele>
        <time>2025-09-07T15:27:59Z</time>
      </trkpt>
      <trkpt lat="46.17339" lon="4.45629">
        <ele>863.8</ele>
        <time>2025-09-07T15:28:00Z</time>
      </trkpt>
      <trkpt lat="46.17337" lon="4.45628">
        <ele>863.6</ele>
        <time>2025-09-07T15:28:01Z</time>
      </trkpt>
      <trkpt lat="46.17334" lon="4.45625">
        <ele>863.2</ele>
        <time>2025-09-07T15:28:02Z</time>
      </trkpt>
      <trkpt lat="46.17332" lon="4.45621">
        <ele>863.2</ele>
        <time>2025-09-07T15:28:03Z</time>
      </trkpt>
      <trkpt lat="46.1733" lon="4.45617">
        <ele>863.2</ele>
        <time>2025-09-07T15:28:04Z</time>
      </trkpt>
      <trkpt lat="46.17327" lon="4.45613">
        <ele>862.2</ele>
        <time>2025-09-07T15:28:05Z</time>
      </trkpt>
      <trkpt lat="46.17322" lon="4.45611">
        <ele>862.2</ele>
        <time>2025-09-07T15:28:06Z</time>
      </trkpt>
      <trkpt lat="46.17319" lon="4.45611">
        <ele>862.2</ele>
        <time>2025-09-07T15:28:07Z</time>
      </trkpt>
      <trkpt lat="46.17316" lon="4.4561">
        <ele>862</ele>
        <time>2025-09-07T15:28:08Z</time>
      </trkpt>
      <trkpt lat="46.17312" lon="4.45608">
        <ele>862</ele>
        <time>2025-09-07T15:28:09Z</time>
      </trkpt>
      <trkpt lat="46.1731" lon="4.45607">
        <ele>861.6</ele>
        <time>2025-09-07T15:28:10Z</time>
      </trkpt>
      <trkpt lat="46.17305" lon="4.45603">
        <ele>861.2</ele>
        <time>2025-09-07T15:28:11Z</time>
      </trkpt>
      <trkpt lat="46.173" lon="4.45602">
        <ele>861.2</ele>
        <time>2025-09-07T15:28:12Z</time>
      </trkpt>
      <trkpt lat="46.17294" lon="4.45603">
        <ele>860.4</ele>
        <time>2025-09-07T15:28:13Z</time>
      </trkpt>
      <trkpt lat="46.17292" lon="4.45603">
        <ele>860.4</ele>
        <time>2025-09-07T15:28:14Z</time>
      </trkpt>
      <trkpt lat="46.17291" lon="4.45601">
        <ele>860</ele>
        <time>2025-09-07T15:28:15Z</time>
      </trkpt>
      <trkpt lat="46.17287" lon="4.45601">
        <ele>860</ele>
        <time>2025-09-07T15:28:16Z</time>
      </trkpt>
      <trkpt lat="46.17283" lon="4.456">
        <ele>859.6</ele>
        <time>2025-09-07T15:28:17Z</time>
      </trkpt>
      <trkpt lat="46.1728" lon="4.45599">
        <ele>859.6</ele>
        <time>2025-09-07T15:28:18Z</time>
      </trkpt>
      <trkpt lat="46.17276" lon="4.45598">
        <ele>859.4</ele>
        <time>2025-09-07T15:28:19Z</time>
      </trkpt>
      <trkpt lat="46.17271" lon="4.45601">
        <ele>859.4</ele>
        <time>2025-09-07T15:28:20Z</time>
      </trkpt>
      <trkpt lat="46.17267" lon="4.45601">
        <ele>859</ele>
        <time>2025-09-07T15:28:21Z</time>
      </trkpt>
      <trkpt lat="46.17265" lon="4.45604">
        <ele>858.6</ele>
        <time>2025-09-07T15:28:22Z</time>
      </trkpt>
      <trkpt lat="46.17261" lon="4.45603">
        <ele>858.6</ele>
        <time>2025-09-07T15:28:23Z</time>
      </trkpt>
      <trkpt lat="46.17258" lon="4.45603">
        <ele>858.4</ele>
        <time>2025-09-07T15:28:24Z</time>
      </trkpt>
      <trkpt lat="46.17254" lon="4.45602">
        <ele>857.6</ele>
        <time>2025-09-07T15:28:25Z</time>
      </trkpt>
      <trkpt lat="46.1725" lon="4.45601">
        <ele>857</ele>
        <time>2025-09-07T15:28:26Z</time>
      </trkpt>
      <trkpt lat="46.17246" lon="4.456">
        <ele>856.6</ele>
        <time>2025-09-07T15:28:27Z</time>
      </trkpt>
      <trkpt lat="46.17242" lon="4.456">
        <ele>856.6</ele>
        <time>2025-09-07T15:28:28Z</time>
      </trkpt>
      <trkpt lat="46.1724" lon="4.456">
        <ele>855.6</ele>
        <time>2025-09-07T15:28:29Z</time>
      </trkpt>
      <trkpt lat="46.17236" lon="4.45601">
        <ele>855.4</ele>
        <time>2025-09-07T15:28:30Z</time>
      </trkpt>
      <trkpt lat="46.17233" lon="4.45602">
        <ele>854.8</ele>
        <time>2025-09-07T15:28:31Z</time>
      </trkpt>
      <trkpt lat="46.1723" lon="4.45603">
        <ele>854.2</ele>
        <time>2025-09-07T15:28:32Z</time>
      </trkpt>
      <trkpt lat="46.17227" lon="4.45603">
        <ele>854</ele>
        <time>2025-09-07T15:28:33Z</time>
      </trkpt>
      <trkpt lat="46.17224" lon="4.45603">
        <ele>853.4</ele>
        <time>2025-09-07T15:28:34Z</time>
      </trkpt>
      <trkpt lat="46.1722" lon="4.45602">
        <ele>852.8</ele>
        <time>2025-09-07T15:28:35Z</time>
      </trkpt>
      <trkpt lat="46.17217" lon="4.45601">
        <ele>852.8</ele>
        <time>2025-09-07T15:28:36Z</time>
      </trkpt>
      <trkpt lat="46.17215" lon="4.45601">
        <ele>852.8</ele>
        <time>2025-09-07T15:28:37Z</time>
      </trkpt>
      <trkpt lat="46.17213" lon="4.456">
        <ele>852.2</ele>
        <time>2025-09-07T15:28:38Z</time>
      </trkpt>
      <trkpt lat="46.1721" lon="4.45599">
        <ele>851.8</ele>
        <time>2025-09-07T15:28:39Z</time>
      </trkpt>
      <trkpt lat="46.17207" lon="4.45599">
        <ele>851.8</ele>
        <time>2025-09-07T15:28:40Z</time>
      </trkpt>
      <trkpt lat="46.17204" lon="4.45599">
        <ele>851.2</ele>
        <time>2025-09-07T15:28:41Z</time>
      </trkpt>
      <trkpt lat="46.17201" lon="4.456">
        <ele>850.4</ele>
        <time>2025-09-07T15:28:42Z</time>
      </trkpt>
      <trkpt lat="46.17198" lon="4.456">
        <ele>849.6</ele>
        <time>2025-09-07T15:28:43Z</time>
      </trkpt>
      <trkpt lat="46.17195" lon="4.45601">
        <ele>849</ele>
        <time>2025-09-07T15:28:44Z</time>
      </trkpt>
      <trkpt lat="46.17193" lon="4.45602">
        <ele>848.6</ele>
        <time>2025-09-07T15:28:45Z</time>
      </trkpt>
      <trkpt lat="46.17191" lon="4.45605">
        <ele>848.6</ele>
        <time>2025-09-07T15:28:46Z</time>
      </trkpt>
      <trkpt lat="46.17189" lon="4.45607">
        <ele>848.2</ele>
        <time>2025-09-07T15:28:47Z</time>
      </trkpt>
      <trkpt lat="46.17186" lon="4.45607">
        <ele>847.8</ele>
        <time>2025-09-07T15:28:48Z</time>
      </trkpt>
      <trkpt lat="46.17183" lon="4.45608">
        <ele>847</ele>
        <time>2025-09-07T15:28:49Z</time>
      </trkpt>
      <trkpt lat="46.17178" lon="4.45609">
        <ele>846</ele>
        <time>2025-09-07T15:28:50Z</time>
      </trkpt>
      <trkpt lat="46.17176" lon="4.45608">
        <ele>846</ele>
        <time>2025-09-07T15:28:51Z</time>
      </trkpt>
      <trkpt lat="46.17174" lon="4.45608">
        <ele>845.6</ele>
        <time>2025-09-07T15:28:52Z</time>
      </trkpt>
      <trkpt lat="46.17172" lon="4.45608">
        <ele>844.8</ele>
        <time>2025-09-07T15:28:53Z</time>
      </trkpt>
      <trkpt lat="46.1717" lon="4.45608">
        <ele>844.6</ele>
        <time>2025-09-07T15:28:54Z</time>
      </trkpt>
      <trkpt lat="46.17168" lon="4.45608">
        <ele>844.2</ele>
        <time>2025-09-07T15:28:55Z</time>
      </trkpt>
      <trkpt lat="46.17166" lon="4.45608">
        <ele>844</ele>
        <time>2025-09-07T15:28:56Z</time>
      </trkpt>
      <trkpt lat="46.17163" lon="4.45606">
        <ele>843.6</ele>
        <time>2025-09-07T15:28:57Z</time>
      </trkpt>
      <trkpt lat="46.17159" lon="4.45606">
        <ele>843.4</ele>
        <time>2025-09-07T15:28:58Z</time>
      </trkpt>
      <trkpt lat="46.17154" lon="4.45606">
        <ele>842.6</ele>
        <time>2025-09-07T15:28:59Z</time>
      </trkpt>
      <trkpt lat="46.17152" lon="4.45608">
        <ele>842.4</ele>
        <time>2025-09-07T15:29:00Z</time>
      </trkpt>
      <trkpt lat="46.17148" lon="4.4561">
        <ele>841.6</ele>
        <time>2025-09-07T15:29:01Z</time>
      </trkpt>
      <trkpt lat="46.17144" lon="4.45611">
        <ele>841.6</ele>
        <time>2025-09-07T15:29:02Z</time>
      </trkpt>
      <trkpt lat="46.1714" lon="4.45613">
        <ele>841.4</ele>
        <time>2025-09-07T15:29:03Z</time>
      </trkpt>
      <trkpt lat="46.17136" lon="4.45613">
        <ele>840.6</ele>
        <time>2025-09-07T15:29:04Z</time>
      </trkpt>
      <trkpt lat="46.17134" lon="4.45614">
        <ele>840.4</ele>
        <time>2025-09-07T15:29:05Z</time>
      </trkpt>
      <trkpt lat="46.17132" lon="4.45614">
        <ele>840</ele>
        <time>2025-09-07T15:29:06Z</time>
      </trkpt>
      <trkpt lat="46.17129" lon="4.45614">
        <ele>839.4</ele>
        <time>2025-09-07T15:29:07Z</time>
      </trkpt>
      <trkpt lat="46.17125" lon="4.45614">
        <ele>838.8</ele>
        <time>2025-09-07T15:29:08Z</time>
      </trkpt>
      <trkpt lat="46.17121" lon="4.45615">
        <ele>838.2</ele>
        <time>2025-09-07T15:29:09Z</time>
      </trkpt>
      <trkpt lat="46.17118" lon="4.45616">
        <ele>837.8</ele>
        <time>2025-09-07T15:29:10Z</time>
      </trkpt>
      <trkpt lat="46.17115" lon="4.45618">
        <ele>837.4</ele>
        <time>2025-09-07T15:29:11Z</time>
      </trkpt>
      <trkpt lat="46.17112" lon="4.4562">
        <ele>837.4</ele>
        <time>2025-09-07T15:29:12Z</time>
      </trkpt>
      <trkpt lat="46.1711" lon="4.45622">
        <ele>836.2</ele>
        <time>2025-09-07T15:29:13Z</time>
      </trkpt>
      <trkpt lat="46.17106" lon="4.45624">
        <ele>836</ele>
        <time>2025-09-07T15:29:14Z</time>
      </trkpt>
      <trkpt lat="46.17102" lon="4.45626">
        <ele>835.6</ele>
        <time>2025-09-07T15:29:15Z</time>
      </trkpt>
      <trkpt lat="46.171" lon="4.45627">
        <ele>835.6</ele>
        <time>2025-09-07T15:29:16Z</time>
      </trkpt>
      <trkpt lat="46.17097" lon="4.45629">
        <ele>835.6</ele>
        <time>2025-09-07T15:29:17Z</time>
      </trkpt>
      <trkpt lat="46.17095" lon="4.45631">
        <ele>835.6</ele>
        <time>2025-09-07T15:29:18Z</time>
      </trkpt>
      <trkpt lat="46.17093" lon="4.45633">
        <ele>835.6</ele>
        <time>2025-09-07T15:29:19Z</time>
      </trkpt>
      <trkpt lat="46.17092" lon="4.45635">
        <ele>835.6</ele>
        <time>2025-09-07T15:29:20Z</time>
      </trkpt>
      <trkpt lat="46.17091" lon="4.45637">
        <ele>835.2</ele>
        <time>2025-09-07T15:29:21Z</time>
      </trkpt>
      <trkpt lat="46.17089" lon="4.45638">
        <ele>835</ele>
        <time>2025-09-07T15:29:22Z</time>
      </trkpt>
      <trkpt lat="46.17087" lon="4.45638">
        <ele>835</ele>
        <time>2025-09-07T15:29:23Z</time>
      </trkpt>
      <trkpt lat="46.17086" lon="4.45638">
        <ele>835</ele>
        <time>2025-09-07T15:29:24Z</time>
      </trkpt>
      <trkpt lat="46.17084" lon="4.45637">
        <ele>834.8</ele>
        <time>2025-09-07T15:29:25Z</time>
      </trkpt>
      <trkpt lat="46.17083" lon="4.45637">
        <ele>834.8</ele>
        <time>2025-09-07T15:29:26Z</time>
      </trkpt>
      <trkpt lat="46.17081" lon="4.45635">
        <ele>834.2</ele>
        <time>2025-09-07T15:29:27Z</time>
      </trkpt>
      <trkpt lat="46.1708" lon="4.45633">
        <ele>834.2</ele>
        <time>2025-09-07T15:29:28Z</time>
      </trkpt>
      <trkpt lat="46.17079" lon="4.4563">
        <ele>833.6</ele>
        <time>2025-09-07T15:29:29Z</time>
      </trkpt>
      <trkpt lat="46.17078" lon="4.45626">
        <ele>833.8</ele>
        <time>2025-09-07T15:29:30Z</time>
      </trkpt>
      <trkpt lat="46.17077" lon="4.45621">
        <ele>834.2</ele>
        <time>2025-09-07T15:29:31Z</time>
      </trkpt>
      <trkpt lat="46.17075" lon="4.45617">
        <ele>833.8</ele>
        <time>2025-09-07T15:29:32Z</time>
      </trkpt>
      <trkpt lat="46.17074" lon="4.45613">
        <ele>833.4</ele>
        <time>2025-09-07T15:29:33Z</time>
      </trkpt>
      <trkpt lat="46.17072" lon="4.45609">
        <ele>833</ele>
        <time>2025-09-07T15:29:34Z</time>
      </trkpt>
      <trkpt lat="46.1707" lon="4.45605">
        <ele>832.6</ele>
        <time>2025-09-07T15:29:35Z</time>
      </trkpt>
      <trkpt lat="46.17069" lon="4.45601">
        <ele>832.6</ele>
        <time>2025-09-07T15:29:36Z</time>
      </trkpt>
      <trkpt lat="46.17067" lon="4.45596">
        <ele>832.6</ele>
        <time>2025-09-07T15:29:37Z</time>
      </trkpt>
      <trkpt lat="46.17067" lon="4.45596">
        <ele>832.6</ele>
        <time>2025-09-07T15:29:38Z</time>
      </trkpt>
      <trkpt lat="46.17065" lon="4.45591">
        <ele>832.2</ele>
        <time>2025-09-07T15:29:39Z</time>
      </trkpt>
      <trkpt lat="46.17063" lon="4.45584">
        <ele>832</ele>
        <time>2025-09-07T15:29:40Z</time>
      </trkpt>
      <trkpt lat="46.17061" lon="4.45579">
        <ele>832</ele>
        <time>2025-09-07T15:29:41Z</time>
      </trkpt>
      <trkpt lat="46.17059" lon="4.45576">
        <ele>832</ele>
        <time>2025-09-07T15:29:42Z</time>
      </trkpt>
      <trkpt lat="46.17058" lon="4.45572">
        <ele>832.2</ele>
        <time>2025-09-07T15:29:43Z</time>
      </trkpt>
      <trkpt lat="46.17057" lon="4.45568">
        <ele>831.6</ele>
        <time>2025-09-07T15:29:44Z</time>
      </trkpt>
      <trkpt lat="46.17057" lon="4.45564">
        <ele>831.2</ele>
        <time>2025-09-07T15:29:45Z</time>
      </trkpt>
      <trkpt lat="46.17052" lon="4.45557">
        <ele>830</ele>
        <time>2025-09-07T15:29:46Z</time>
      </trkpt>
      <trkpt lat="46.17049" lon="4.45554">
        <ele>830</ele>
        <time>2025-09-07T15:29:47Z</time>
      </trkpt>
      <trkpt lat="46.17048" lon="4.4555">
        <ele>830</ele>
        <time>2025-09-07T15:29:48Z</time>
      </trkpt>
      <trkpt lat="46.17046" lon="4.45551">
        <ele>829.8</ele>
        <time>2025-09-07T15:29:49Z</time>
      </trkpt>
      <trkpt lat="46.17047" lon="4.4555">
        <ele>829.8</ele>
        <time>2025-09-07T15:29:50Z</time>
      </trkpt>
      <trkpt lat="46.17047" lon="4.4555">
        <ele>829.8</ele>
        <time>2025-09-07T15:29:51Z</time>
      </trkpt>
      <trkpt lat="46.17045" lon="4.45549">
        <ele>829.2</ele>
        <time>2025-09-07T15:30:05Z</time>
      </trkpt>
      <trkpt lat="46.17045" lon="4.4555">
        <ele>829.2</ele>
        <time>2025-09-07T15:30:06Z</time>
      </trkpt>
      <trkpt lat="46.17045" lon="4.45546">
        <ele>829.2</ele>
        <time>2025-09-07T15:30:07Z</time>
      </trkpt>
      <trkpt lat="46.17043" lon="4.45545">
        <ele>828.8</ele>
        <time>2025-09-07T15:30:08Z</time>
      </trkpt>
      <trkpt lat="46.17044" lon="4.45541">
        <ele>828.8</ele>
        <time>2025-09-07T15:30:09Z</time>
      </trkpt>
      <trkpt lat="46.17043" lon="4.45536">
        <ele>828.4</ele>
        <time>2025-09-07T15:30:10Z</time>
      </trkpt>
      <trkpt lat="46.17043" lon="4.4553">
        <ele>828.4</ele>
        <time>2025-09-07T15:30:11Z</time>
      </trkpt>
      <trkpt lat="46.17044" lon="4.45524">
        <ele>828.4</ele>
        <time>2025-09-07T15:30:12Z</time>
      </trkpt>
      <trkpt lat="46.17045" lon="4.45518">
        <ele>828.2</ele>
        <time>2025-09-07T15:30:13Z</time>
      </trkpt>
      <trkpt lat="46.17049" lon="4.45509">
        <ele>828</ele>
        <time>2025-09-07T15:30:14Z</time>
      </trkpt>
      <trkpt lat="46.17052" lon="4.45503">
        <ele>827.8</ele>
        <time>2025-09-07T15:30:15Z</time>
      </trkpt>
      <trkpt lat="46.17054" lon="4.455">
        <ele>827.6</ele>
        <time>2025-09-07T15:30:16Z</time>
      </trkpt>
      <trkpt lat="46.17056" lon="4.45497">
        <ele>827.2</ele>
        <time>2025-09-07T15:30:17Z</time>
      </trkpt>
      <trkpt lat="46.17055" lon="4.45491">
        <ele>827.2</ele>
        <time>2025-09-07T15:30:18Z</time>
      </trkpt>
      <trkpt lat="46.17055" lon="4.45488">
        <ele>826.8</ele>
        <time>2025-09-07T15:30:19Z</time>
      </trkpt>
      <trkpt lat="46.17056" lon="4.45482">
        <ele>826</ele>
        <time>2025-09-07T15:30:20Z</time>
      </trkpt>
      <trkpt lat="46.17054" lon="4.45475">
        <ele>825.6</ele>
        <time>2025-09-07T15:30:21Z</time>
      </trkpt>
      <trkpt lat="46.17055" lon="4.45466">
        <ele>825.2</ele>
        <time>2025-09-07T15:30:22Z</time>
      </trkpt>
      <trkpt lat="46.17056" lon="4.45458">
        <ele>825</ele>
        <time>2025-09-07T15:30:23Z</time>
      </trkpt>
      <trkpt lat="46.17058" lon="4.45453">
        <ele>824.6</ele>
        <time>2025-09-07T15:30:24Z</time>
      </trkpt>
      <trkpt lat="46.17057" lon="4.45443">
        <ele>823.6</ele>
        <time>2025-09-07T15:30:25Z</time>
      </trkpt>
      <trkpt lat="46.17058" lon="4.45437">
        <ele>823.6</ele>
        <time>2025-09-07T15:30:26Z</time>
      </trkpt>
      <trkpt lat="46.17059" lon="4.45431">
        <ele>822.6</ele>
        <time>2025-09-07T15:30:27Z</time>
      </trkpt>
      <trkpt lat="46.17059" lon="4.45422">
        <ele>821.6</ele>
        <time>2025-09-07T15:30:28Z</time>
      </trkpt>
      <trkpt lat="46.17058" lon="4.45415">
        <ele>820.6</ele>
        <time>2025-09-07T15:30:29Z</time>
      </trkpt>
      <trkpt lat="46.17059" lon="4.45409">
        <ele>819.8</ele>
        <time>2025-09-07T15:30:30Z</time>
      </trkpt>
      <trkpt lat="46.17058" lon="4.454">
        <ele>819.6</ele>
        <time>2025-09-07T15:30:31Z</time>
      </trkpt>
      <trkpt lat="46.1706" lon="4.45393">
        <ele>818.2</ele>
        <time>2025-09-07T15:30:32Z</time>
      </trkpt>
      <trkpt lat="46.17061" lon="4.45387">
        <ele>818</ele>
        <time>2025-09-07T15:30:33Z</time>
      </trkpt>
      <trkpt lat="46.17062" lon="4.45381">
        <ele>818</ele>
        <time>2025-09-07T15:30:34Z</time>
      </trkpt>
      <trkpt lat="46.17063" lon="4.45374">
        <ele>817</ele>
        <time>2025-09-07T15:30:35Z</time>
      </trkpt>
      <trkpt lat="46.17062" lon="4.45366">
        <ele>817</ele>
        <time>2025-09-07T15:30:36Z</time>
      </trkpt>
      <trkpt lat="46.17062" lon="4.4536">
        <ele>816.2</ele>
        <time>2025-09-07T15:30:37Z</time>
      </trkpt>
      <trkpt lat="46.17063" lon="4.4535">
        <ele>815.6</ele>
        <time>2025-09-07T15:30:38Z</time>
      </trkpt>
      <trkpt lat="46.17065" lon="4.4534">
        <ele>815.4</ele>
        <time>2025-09-07T15:30:39Z</time>
      </trkpt>
      <trkpt lat="46.17066" lon="4.45334">
        <ele>815.4</ele>
        <time>2025-09-07T15:30:40Z</time>
      </trkpt>
      <trkpt lat="46.17067" lon="4.45326">
        <ele>814.8</ele>
        <time>2025-09-07T15:30:41Z</time>
      </trkpt>
      <trkpt lat="46.17066" lon="4.45318">
        <ele>814</ele>
        <time>2025-09-07T15:30:42Z</time>
      </trkpt>
      <trkpt lat="46.17067" lon="4.45313">
        <ele>814</ele>
        <time>2025-09-07T15:30:43Z</time>
      </trkpt>
      <trkpt lat="46.17067" lon="4.45307">
        <ele>814</ele>
        <time>2025-09-07T15:30:44Z</time>
      </trkpt>
      <trkpt lat="46.17067" lon="4.45302">
        <ele>813.4</ele>
        <time>2025-09-07T15:30:45Z</time>
      </trkpt>
      <trkpt lat="46.17067" lon="4.45299">
        <ele>813.2</ele>
        <time>2025-09-07T15:30:46Z</time>
      </trkpt>
      <trkpt lat="46.17067" lon="4.45298">
        <ele>813.2</ele>
        <time>2025-09-07T15:30:47Z</time>
      </trkpt>
      <trkpt lat="46.17067" lon="4.45295">
        <ele>813.2</ele>
        <time>2025-09-07T15:30:48Z</time>
      </trkpt>
      <trkpt lat="46.17067" lon="4.45296">
        <ele>813.2</ele>
        <time>2025-09-07T15:30:49Z</time>
      </trkpt>
      <trkpt lat="46.17067" lon="4.45296">
        <ele>813.2</ele>
        <time>2025-09-07T15:30:50Z</time>
      </trkpt>
      <trkpt lat="46.17068" lon="4.45294">
        <ele>812.6</ele>
        <time>2025-09-07T15:30:56Z</time>
      </trkpt>
      <trkpt lat="46.17068" lon="4.4529">
        <ele>812.4</ele>
        <time>2025-09-07T15:30:57Z</time>
      </trkpt>
      <trkpt lat="46.17067" lon="4.45287">
        <ele>812.4</ele>
        <time>2025-09-07T15:30:58Z</time>
      </trkpt>
      <trkpt lat="46.17067" lon="4.45282">
        <ele>812.2</ele>
        <time>2025-09-07T15:30:59Z</time>
      </trkpt>
      <trkpt lat="46.17067" lon="4.45277">
        <ele>811.8</ele>
        <time>2025-09-07T15:31:00Z</time>
      </trkpt>
      <trkpt lat="46.17067" lon="4.45271">
        <ele>811.8</ele>
        <time>2025-09-07T15:31:01Z</time>
      </trkpt>
      <trkpt lat="46.17068" lon="4.45266">
        <ele>811.4</ele>
        <time>2025-09-07T15:31:02Z</time>
      </trkpt>
      <trkpt lat="46.17068" lon="4.45262">
        <ele>811.4</ele>
        <time>2025-09-07T15:31:03Z</time>
      </trkpt>
      <trkpt lat="46.17069" lon="4.45258">
        <ele>811.6</ele>
        <time>2025-09-07T15:31:04Z</time>
      </trkpt>
      <trkpt lat="46.1707" lon="4.45254">
        <ele>811.4</ele>
        <time>2025-09-07T15:31:05Z</time>
      </trkpt>
      <trkpt lat="46.1707" lon="4.45251">
        <ele>810.2</ele>
        <time>2025-09-07T15:31:06Z</time>
      </trkpt>
      <trkpt lat="46.1707" lon="4.45247">
        <ele>810.2</ele>
        <time>2025-09-07T15:31:07Z</time>
      </trkpt>
      <trkpt lat="46.1707" lon="4.45242">
        <ele>810</ele>
        <time>2025-09-07T15:31:08Z</time>
      </trkpt>
      <trkpt lat="46.17069" lon="4.45239">
        <ele>810</ele>
        <time>2025-09-07T15:31:09Z</time>
      </trkpt>
      <trkpt lat="46.17069" lon="4.45236">
        <ele>809.2</ele>
        <time>2025-09-07T15:31:10Z</time>
      </trkpt>
      <trkpt lat="46.17068" lon="4.45233">
        <ele>809</ele>
        <time>2025-09-07T15:31:11Z</time>
      </trkpt>
      <trkpt lat="46.17067" lon="4.45229">
        <ele>808.8</ele>
        <time>2025-09-07T15:31:12Z</time>
      </trkpt>
      <trkpt lat="46.17066" lon="4.45226">
        <ele>809.2</ele>
        <time>2025-09-07T15:31:13Z</time>
      </trkpt>
      <trkpt lat="46.17064" lon="4.45222">
        <ele>808.6</ele>
        <time>2025-09-07T15:31:14Z</time>
      </trkpt>
      <trkpt lat="46.17061" lon="4.45219">
        <ele>808</ele>
        <time>2025-09-07T15:31:15Z</time>
      </trkpt>
      <trkpt lat="46.1706" lon="4.45216">
        <ele>807.4</ele>
        <time>2025-09-07T15:31:16Z</time>
      </trkpt>
      <trkpt lat="46.17058" lon="4.45214">
        <ele>807</ele>
        <time>2025-09-07T15:31:17Z</time>
      </trkpt>
      <trkpt lat="46.17056" lon="4.45212">
        <ele>806.6</ele>
        <time>2025-09-07T15:31:18Z</time>
      </trkpt>
      <trkpt lat="46.17054" lon="4.45209">
        <ele>806.4</ele>
        <time>2025-09-07T15:31:19Z</time>
      </trkpt>
      <trkpt lat="46.17052" lon="4.45207">
        <ele>806</ele>
        <time>2025-09-07T15:31:20Z</time>
      </trkpt>
      <trkpt lat="46.1705" lon="4.45205">
        <ele>805.6</ele>
        <time>2025-09-07T15:31:21Z</time>
      </trkpt>
      <trkpt lat="46.17048" lon="4.45203">
        <ele>805.2</ele>
        <time>2025-09-07T15:31:22Z</time>
      </trkpt>
      <trkpt lat="46.17045" lon="4.452">
        <ele>804.6</ele>
        <time>2025-09-07T15:31:23Z</time>
      </trkpt>
      <trkpt lat="46.17043" lon="4.45198">
        <ele>804</ele>
        <time>2025-09-07T15:31:24Z</time>
      </trkpt>
      <trkpt lat="46.1704" lon="4.45194">
        <ele>803.6</ele>
        <time>2025-09-07T15:31:25Z</time>
      </trkpt>
      <trkpt lat="46.17038" lon="4.4519">
        <ele>803.6</ele>
        <time>2025-09-07T15:31:26Z</time>
      </trkpt>
      <trkpt lat="46.17036" lon="4.45185">
        <ele>803.2</ele>
        <time>2025-09-07T15:31:27Z</time>
      </trkpt>
      <trkpt lat="46.17034" lon="4.4518">
        <ele>802.4</ele>
        <time>2025-09-07T15:31:28Z</time>
      </trkpt>
      <trkpt lat="46.17032" lon="4.45174">
        <ele>802</ele>
        <time>2025-09-07T15:31:29Z</time>
      </trkpt>
      <trkpt lat="46.17031" lon="4.45168">
        <ele>801.4</ele>
        <time>2025-09-07T15:31:30Z</time>
      </trkpt>
      <trkpt lat="46.17031" lon="4.45161">
        <ele>801</ele>
        <time>2025-09-07T15:31:31Z</time>
      </trkpt>
      <trkpt lat="46.17033" lon="4.45153">
        <ele>800.2</ele>
        <time>2025-09-07T15:31:32Z</time>
      </trkpt>
      <trkpt lat="46.17033" lon="4.45147">
        <ele>799.6</ele>
        <time>2025-09-07T15:31:33Z</time>
      </trkpt>
      <trkpt lat="46.17031" lon="4.45141">
        <ele>799.2</ele>
        <time>2025-09-07T15:31:34Z</time>
      </trkpt>
      <trkpt lat="46.17034" lon="4.45136">
        <ele>799.4</ele>
        <time>2025-09-07T15:31:35Z</time>
      </trkpt>
      <trkpt lat="46.17034" lon="4.45131">
        <ele>799.4</ele>
        <time>2025-09-07T15:31:36Z</time>
      </trkpt>
      <trkpt lat="46.17033" lon="4.45125">
        <ele>798.8</ele>
        <time>2025-09-07T15:31:37Z</time>
      </trkpt>
      <trkpt lat="46.17033" lon="4.45123">
        <ele>798.8</ele>
        <time>2025-09-07T15:31:38Z</time>
      </trkpt>
      <trkpt lat="46.17034" lon="4.45118">
        <ele>798.2</ele>
        <time>2025-09-07T15:31:39Z</time>
      </trkpt>
      <trkpt lat="46.17035" lon="4.45114">
        <ele>798.6</ele>
        <time>2025-09-07T15:31:40Z</time>
      </trkpt>
      <trkpt lat="46.17036" lon="4.45112">
        <ele>798</ele>
        <time>2025-09-07T15:31:41Z</time>
      </trkpt>
      <trkpt lat="46.17036" lon="4.45108">
        <ele>797.2</ele>
        <time>2025-09-07T15:31:42Z</time>
      </trkpt>
      <trkpt lat="46.17036" lon="4.45105">
        <ele>796.8</ele>
        <time>2025-09-07T15:31:43Z</time>
      </trkpt>
      <trkpt lat="46.17034" lon="4.45099">
        <ele>796.2</ele>
        <time>2025-09-07T15:31:44Z</time>
      </trkpt>
      <trkpt lat="46.17033" lon="4.45096">
        <ele>795.4</ele>
        <time>2025-09-07T15:31:45Z</time>
      </trkpt>
      <trkpt lat="46.17033" lon="4.45094">
        <ele>794.8</ele>
        <time>2025-09-07T15:31:46Z</time>
      </trkpt>
      <trkpt lat="46.17034" lon="4.45089">
        <ele>793.8</ele>
        <time>2025-09-07T15:31:47Z</time>
      </trkpt>
      <trkpt lat="46.17034" lon="4.45083">
        <ele>793.6</ele>
        <time>2025-09-07T15:31:48Z</time>
      </trkpt>
      <trkpt lat="46.17034" lon="4.45078">
        <ele>793.6</ele>
        <time>2025-09-07T15:31:49Z</time>
      </trkpt>
      <trkpt lat="46.17035" lon="4.45073">
        <ele>793.4</ele>
        <time>2025-09-07T15:31:50Z</time>
      </trkpt>
      <trkpt lat="46.17036" lon="4.45068">
        <ele>792.6</ele>
        <time>2025-09-07T15:31:51Z</time>
      </trkpt>
      <trkpt lat="46.17036" lon="4.45065">
        <ele>792.2</ele>
        <time>2025-09-07T15:31:52Z</time>
      </trkpt>
      <trkpt lat="46.17036" lon="4.45061">
        <ele>792</ele>
        <time>2025-09-07T15:31:53Z</time>
      </trkpt>
      <trkpt lat="46.17036" lon="4.45057">
        <ele>791.2</ele>
        <time>2025-09-07T15:31:54Z</time>
      </trkpt>
      <trkpt lat="46.17036" lon="4.45053">
        <ele>790.6</ele>
        <time>2025-09-07T15:31:55Z</time>
      </trkpt>
      <trkpt lat="46.17037" lon="4.4505">
        <ele>790.4</ele>
        <time>2025-09-07T15:31:56Z</time>
      </trkpt>
      <trkpt lat="46.17037" lon="4.45046">
        <ele>789.6</ele>
        <time>2025-09-07T15:31:57Z</time>
      </trkpt>
      <trkpt lat="46.17036" lon="4.45042">
        <ele>789.4</ele>
        <time>2025-09-07T15:31:58Z</time>
      </trkpt>
      <trkpt lat="46.17036" lon="4.45038">
        <ele>789</ele>
        <time>2025-09-07T15:31:59Z</time>
      </trkpt>
      <trkpt lat="46.17035" lon="4.45035">
        <ele>788.4</ele>
        <time>2025-09-07T15:32:00Z</time>
      </trkpt>
      <trkpt lat="46.17034" lon="4.45031">
        <ele>788</ele>
        <time>2025-09-07T15:32:01Z</time>
      </trkpt>
      <trkpt lat="46.17033" lon="4.45027">
        <ele>787</ele>
        <time>2025-09-07T15:32:02Z</time>
      </trkpt>
      <trkpt lat="46.1703" lon="4.45023">
        <ele>786.6</ele>
        <time>2025-09-07T15:32:03Z</time>
      </trkpt>
      <trkpt lat="46.17027" lon="4.45019">
        <ele>786.2</ele>
        <time>2025-09-07T15:32:04Z</time>
      </trkpt>
      <trkpt lat="46.17024" lon="4.45015">
        <ele>785.6</ele>
        <time>2025-09-07T15:32:05Z</time>
      </trkpt>
      <trkpt lat="46.1702" lon="4.45009">
        <ele>786.4</ele>
        <time>2025-09-07T15:32:06Z</time>
      </trkpt>
      <trkpt lat="46.17017" lon="4.45006">
        <ele>785.4</ele>
        <time>2025-09-07T15:32:07Z</time>
      </trkpt>
      <trkpt lat="46.17015" lon="4.45">
        <ele>784.6</ele>
        <time>2025-09-07T15:32:08Z</time>
      </trkpt>
      <trkpt lat="46.17013" lon="4.44996">
        <ele>783.8</ele>
        <time>2025-09-07T15:32:09Z</time>
      </trkpt>
      <trkpt lat="46.17008" lon="4.44986">
        <ele>783.8</ele>
        <time>2025-09-07T15:32:10Z</time>
      </trkpt>
      <trkpt lat="46.17007" lon="4.44981">
        <ele>782.4</ele>
        <time>2025-09-07T15:32:11Z</time>
      </trkpt>
      <trkpt lat="46.17005" lon="4.44975">
        <ele>781.6</ele>
        <time>2025-09-07T15:32:12Z</time>
      </trkpt>
      <trkpt lat="46.17004" lon="4.44968">
        <ele>781.2</ele>
        <time>2025-09-07T15:32:13Z</time>
      </trkpt>
      <trkpt lat="46.17002" lon="4.44962">
        <ele>780.4</ele>
        <time>2025-09-07T15:32:14Z</time>
      </trkpt>
      <trkpt lat="46.17001" lon="4.44956">
        <ele>780.2</ele>
        <time>2025-09-07T15:32:15Z</time>
      </trkpt>
      <trkpt lat="46.17" lon="4.44951">
        <ele>779.8</ele>
        <time>2025-09-07T15:32:16Z</time>
      </trkpt>
      <trkpt lat="46.16998" lon="4.44946">
        <ele>779.8</ele>
        <time>2025-09-07T15:32:17Z</time>
      </trkpt>
      <trkpt lat="46.16997" lon="4.44942">
        <ele>779.4</ele>
        <time>2025-09-07T15:32:18Z</time>
      </trkpt>
      <trkpt lat="46.16996" lon="4.44935">
        <ele>778.8</ele>
        <time>2025-09-07T15:32:19Z</time>
      </trkpt>
      <trkpt lat="46.16996" lon="4.4493">
        <ele>778.4</ele>
        <time>2025-09-07T15:32:20Z</time>
      </trkpt>
      <trkpt lat="46.16995" lon="4.44924">
        <ele>777.4</ele>
        <time>2025-09-07T15:32:21Z</time>
      </trkpt>
      <trkpt lat="46.16994" lon="4.44918">
        <ele>776.8</ele>
        <time>2025-09-07T15:32:22Z</time>
      </trkpt>
      <trkpt lat="46.16993" lon="4.44913">
        <ele>775.8</ele>
        <time>2025-09-07T15:32:23Z</time>
      </trkpt>
      <trkpt lat="46.16991" lon="4.44909">
        <ele>775.8</ele>
        <time>2025-09-07T15:32:24Z</time>
      </trkpt>
      <trkpt lat="46.1699" lon="4.44904">
        <ele>775.8</ele>
        <time>2025-09-07T15:32:25Z</time>
      </trkpt>
      <trkpt lat="46.1699" lon="4.449">
        <ele>775.8</ele>
        <time>2025-09-07T15:32:26Z</time>
      </trkpt>
      <trkpt lat="46.16989" lon="4.44898">
        <ele>775.2</ele>
        <time>2025-09-07T15:32:27Z</time>
      </trkpt>
      <trkpt lat="46.16987" lon="4.44894">
        <ele>774.8</ele>
        <time>2025-09-07T15:32:28Z</time>
      </trkpt>
      <trkpt lat="46.16986" lon="4.4489">
        <ele>774</ele>
        <time>2025-09-07T15:32:29Z</time>
      </trkpt>
      <trkpt lat="46.16984" lon="4.44887">
        <ele>773.6</ele>
        <time>2025-09-07T15:32:30Z</time>
      </trkpt>
      <trkpt lat="46.16982" lon="4.44885">
        <ele>773.6</ele>
        <time>2025-09-07T15:32:31Z</time>
      </trkpt>
      <trkpt lat="46.1698" lon="4.44883">
        <ele>773.6</ele>
        <time>2025-09-07T15:32:32Z</time>
      </trkpt>
      <trkpt lat="46.16978" lon="4.4488">
        <ele>772.6</ele>
        <time>2025-09-07T15:32:33Z</time>
      </trkpt>
      <trkpt lat="46.16975" lon="4.44878">
        <ele>771.8</ele>
        <time>2025-09-07T15:32:34Z</time>
      </trkpt>
      <trkpt lat="46.16972" lon="4.44876">
        <ele>771</ele>
        <time>2025-09-07T15:32:35Z</time>
      </trkpt>
      <trkpt lat="46.16969" lon="4.44873">
        <ele>771</ele>
        <time>2025-09-07T15:32:36Z</time>
      </trkpt>
      <trkpt lat="46.16966" lon="4.4487">
        <ele>771</ele>
        <time>2025-09-07T15:32:37Z</time>
      </trkpt>
      <trkpt lat="46.16963" lon="4.44867">
        <ele>771</ele>
        <time>2025-09-07T15:32:38Z</time>
      </trkpt>
      <trkpt lat="46.1696" lon="4.44864">
        <ele>771</ele>
        <time>2025-09-07T15:32:39Z</time>
      </trkpt>
      <trkpt lat="46.16958" lon="4.4486">
        <ele>770.6</ele>
        <time>2025-09-07T15:32:40Z</time>
      </trkpt>
      <trkpt lat="46.16955" lon="4.44855">
        <ele>770</ele>
        <time>2025-09-07T15:32:41Z</time>
      </trkpt>
      <trkpt lat="46.16953" lon="4.4485">
        <ele>769.4</ele>
        <time>2025-09-07T15:32:42Z</time>
      </trkpt>
      <trkpt lat="46.1695" lon="4.44845">
        <ele>768.8</ele>
        <time>2025-09-07T15:32:43Z</time>
      </trkpt>
      <trkpt lat="46.16947" lon="4.4484">
        <ele>768.4</ele>
        <time>2025-09-07T15:32:44Z</time>
      </trkpt>
      <trkpt lat="46.16946" lon="4.44836">
        <ele>767.8</ele>
        <time>2025-09-07T15:32:45Z</time>
      </trkpt>
      <trkpt lat="46.16945" lon="4.44832">
        <ele>767.8</ele>
        <time>2025-09-07T15:32:46Z</time>
      </trkpt>
      <trkpt lat="46.16944" lon="4.44829">
        <ele>767.8</ele>
        <time>2025-09-07T15:32:47Z</time>
      </trkpt>
      <trkpt lat="46.16944" lon="4.44827">
        <ele>767.2</ele>
        <time>2025-09-07T15:32:48Z</time>
      </trkpt>
      <trkpt lat="46.16943" lon="4.44824">
        <ele>767.2</ele>
        <time>2025-09-07T15:32:49Z</time>
      </trkpt>
      <trkpt lat="46.16942" lon="4.44822">
        <ele>766.8</ele>
        <time>2025-09-07T15:32:50Z</time>
      </trkpt>
      <trkpt lat="46.16941" lon="4.44819">
        <ele>766.6</ele>
        <time>2025-09-07T15:32:51Z</time>
      </trkpt>
      <trkpt lat="46.16941" lon="4.44816">
        <ele>766.2</ele>
        <time>2025-09-07T15:32:52Z</time>
      </trkpt>
      <trkpt lat="46.16939" lon="4.44812">
        <ele>765.6</ele>
        <time>2025-09-07T15:32:53Z</time>
      </trkpt>
      <trkpt lat="46.16937" lon="4.44807">
        <ele>766</ele>
        <time>2025-09-07T15:32:54Z</time>
      </trkpt>
      <trkpt lat="46.16934" lon="4.44797">
        <ele>765.4</ele>
        <time>2025-09-07T15:32:55Z</time>
      </trkpt>
      <trkpt lat="46.16932" lon="4.44791">
        <ele>765.4</ele>
        <time>2025-09-07T15:32:56Z</time>
      </trkpt>
      <trkpt lat="46.16931" lon="4.44787">
        <ele>764.6</ele>
        <time>2025-09-07T15:32:57Z</time>
      </trkpt>
      <trkpt lat="46.16931" lon="4.44787">
        <ele>764</ele>
        <time>2025-09-07T15:32:58Z</time>
      </trkpt>
      <trkpt lat="46.1693" lon="4.44778">
        <ele>764</ele>
        <time>2025-09-07T15:32:59Z</time>
      </trkpt>
      <trkpt lat="46.16928" lon="4.44774">
        <ele>763.8</ele>
        <time>2025-09-07T15:33:00Z</time>
      </trkpt>
      <trkpt lat="46.16927" lon="4.44768">
        <ele>763.4</ele>
        <time>2025-09-07T15:33:01Z</time>
      </trkpt>
      <trkpt lat="46.16925" lon="4.44762">
        <ele>763</ele>
        <time>2025-09-07T15:33:02Z</time>
      </trkpt>
      <trkpt lat="46.16924" lon="4.44755">
        <ele>762.8</ele>
        <time>2025-09-07T15:33:03Z</time>
      </trkpt>
      <trkpt lat="46.16922" lon="4.44749">
        <ele>762</ele>
        <time>2025-09-07T15:33:04Z</time>
      </trkpt>
      <trkpt lat="46.1692" lon="4.44745">
        <ele>761.6</ele>
        <time>2025-09-07T15:33:05Z</time>
      </trkpt>
      <trkpt lat="46.16919" lon="4.4474">
        <ele>761.2</ele>
        <time>2025-09-07T15:33:06Z</time>
      </trkpt>
      <trkpt lat="46.16919" lon="4.44735">
        <ele>761</ele>
        <time>2025-09-07T15:33:07Z</time>
      </trkpt>
      <trkpt lat="46.16918" lon="4.44729">
        <ele>760.2</ele>
        <time>2025-09-07T15:33:08Z</time>
      </trkpt>
      <trkpt lat="46.16918" lon="4.44723">
        <ele>760.2</ele>
        <time>2025-09-07T15:33:09Z</time>
      </trkpt>
      <trkpt lat="46.1692" lon="4.44719">
        <ele>760</ele>
        <time>2025-09-07T15:33:10Z</time>
      </trkpt>
      <trkpt lat="46.16921" lon="4.44714">
        <ele>759.4</ele>
        <time>2025-09-07T15:33:11Z</time>
      </trkpt>
      <trkpt lat="46.16922" lon="4.44709">
        <ele>759.2</ele>
        <time>2025-09-07T15:33:12Z</time>
      </trkpt>
      <trkpt lat="46.16924" lon="4.44704">
        <ele>758.6</ele>
        <time>2025-09-07T15:33:13Z</time>
      </trkpt>
      <trkpt lat="46.16926" lon="4.447">
        <ele>758.6</ele>
        <time>2025-09-07T15:33:14Z</time>
      </trkpt>
      <trkpt lat="46.16928" lon="4.44696">
        <ele>758.4</ele>
        <time>2025-09-07T15:33:15Z</time>
      </trkpt>
      <trkpt lat="46.16928" lon="4.44691">
        <ele>758</ele>
        <time>2025-09-07T15:33:16Z</time>
      </trkpt>
      <trkpt lat="46.16929" lon="4.44687">
        <ele>756.6</ele>
        <time>2025-09-07T15:33:17Z</time>
      </trkpt>
      <trkpt lat="46.16929" lon="4.44682">
        <ele>757.2</ele>
        <time>2025-09-07T15:33:18Z</time>
      </trkpt>
      <trkpt lat="46.16927" lon="4.44678">
        <ele>757.2</ele>
        <time>2025-09-07T15:33:19Z</time>
      </trkpt>
      <trkpt lat="46.16926" lon="4.44673">
        <ele>757.2</ele>
        <time>2025-09-07T15:33:20Z</time>
      </trkpt>
      <trkpt lat="46.16919" lon="4.44665">
        <ele>756.8</ele>
        <time>2025-09-07T15:33:21Z</time>
      </trkpt>
      <trkpt lat="46.16917" lon="4.4466">
        <ele>756.8</ele>
        <time>2025-09-07T15:33:22Z</time>
      </trkpt>
      <trkpt lat="46.16914" lon="4.44655">
        <ele>756.8</ele>
        <time>2025-09-07T15:33:23Z</time>
      </trkpt>
      <trkpt lat="46.1691" lon="4.44648">
        <ele>756.6</ele>
        <time>2025-09-07T15:33:24Z</time>
      </trkpt>
      <trkpt lat="46.16908" lon="4.44642">
        <ele>756.6</ele>
        <time>2025-09-07T15:33:25Z</time>
      </trkpt>
      <trkpt lat="46.16905" lon="4.44637">
        <ele>756.6</ele>
        <time>2025-09-07T15:33:26Z</time>
      </trkpt>
      <trkpt lat="46.16903" lon="4.4463">
        <ele>756.6</ele>
        <time>2025-09-07T15:33:27Z</time>
      </trkpt>
      <trkpt lat="46.169" lon="4.44624">
        <ele>756.2</ele>
        <time>2025-09-07T15:33:28Z</time>
      </trkpt>
      <trkpt lat="46.16898" lon="4.44617">
        <ele>756.2</ele>
        <time>2025-09-07T15:33:29Z</time>
      </trkpt>
      <trkpt lat="46.16897" lon="4.44612">
        <ele>756</ele>
        <time>2025-09-07T15:33:30Z</time>
      </trkpt>
      <trkpt lat="46.16894" lon="4.44605">
        <ele>756</ele>
        <time>2025-09-07T15:33:31Z</time>
      </trkpt>
      <trkpt lat="46.16892" lon="4.44599">
        <ele>755.4</ele>
        <time>2025-09-07T15:33:32Z</time>
      </trkpt>
      <trkpt lat="46.1689" lon="4.44594">
        <ele>755.4</ele>
        <time>2025-09-07T15:33:33Z</time>
      </trkpt>
      <trkpt lat="46.16889" lon="4.44588">
        <ele>755.4</ele>
        <time>2025-09-07T15:33:34Z</time>
      </trkpt>
      <trkpt lat="46.16888" lon="4.44582">
        <ele>755.6</ele>
        <time>2025-09-07T15:33:35Z</time>
      </trkpt>
      <trkpt lat="46.16888" lon="4.44575">
        <ele>755.6</ele>
        <time>2025-09-07T15:33:36Z</time>
      </trkpt>
      <trkpt lat="46.16888" lon="4.4457">
        <ele>755.6</ele>
        <time>2025-09-07T15:33:37Z</time>
      </trkpt>
      <trkpt lat="46.16886" lon="4.44565">
        <ele>756.2</ele>
        <time>2025-09-07T15:33:38Z</time>
      </trkpt>
      <trkpt lat="46.16884" lon="4.44559">
        <ele>756.2</ele>
        <time>2025-09-07T15:33:39Z</time>
      </trkpt>
      <trkpt lat="46.16882" lon="4.44555">
        <ele>756.2</ele>
        <time>2025-09-07T15:33:40Z</time>
      </trkpt>
      <trkpt lat="46.16881" lon="4.44551">
        <ele>756.2</ele>
        <time>2025-09-07T15:33:41Z</time>
      </trkpt>
      <trkpt lat="46.16881" lon="4.44547">
        <ele>756.2</ele>
        <time>2025-09-07T15:33:42Z</time>
      </trkpt>
      <trkpt lat="46.16879" lon="4.44542">
        <ele>755.4</ele>
        <time>2025-09-07T15:33:43Z</time>
      </trkpt>
      <trkpt lat="46.16879" lon="4.44536">
        <ele>755.6</ele>
        <time>2025-09-07T15:33:44Z</time>
      </trkpt>
      <trkpt lat="46.16879" lon="4.44532">
        <ele>755.6</ele>
        <time>2025-09-07T15:33:45Z</time>
      </trkpt>
      <trkpt lat="46.16877" lon="4.4453">
        <ele>755.6</ele>
        <time>2025-09-07T15:33:46Z</time>
      </trkpt>
      <trkpt lat="46.16877" lon="4.44529">
        <ele>755.6</ele>
        <time>2025-09-07T15:33:47Z</time>
      </trkpt>
      <trkpt lat="46.16877" lon="4.44529">
        <ele>755.6</ele>
        <time>2025-09-07T15:33:48Z</time>
      </trkpt>
      <trkpt lat="46.16877" lon="4.44523">
        <ele>755</ele>
        <time>2025-09-07T15:34:05Z</time>
      </trkpt>
      <trkpt lat="46.16879" lon="4.44518">
        <ele>755</ele>
        <time>2025-09-07T15:34:06Z</time>
      </trkpt>
      <trkpt lat="46.1688" lon="4.44513">
        <ele>755</ele>
        <time>2025-09-07T15:34:07Z</time>
      </trkpt>
      <trkpt lat="46.16882" lon="4.44509">
        <ele>755</ele>
        <time>2025-09-07T15:34:08Z</time>
      </trkpt>
      <trkpt lat="46.16885" lon="4.44505">
        <ele>754.8</ele>
        <time>2025-09-07T15:34:09Z</time>
      </trkpt>
      <trkpt lat="46.16885" lon="4.44498">
        <ele>754.4</ele>
        <time>2025-09-07T15:34:10Z</time>
      </trkpt>
      <trkpt lat="46.16888" lon="4.44491">
        <ele>753.6</ele>
        <time>2025-09-07T15:34:11Z</time>
      </trkpt>
      <trkpt lat="46.1689" lon="4.44485">
        <ele>753.2</ele>
        <time>2025-09-07T15:34:12Z</time>
      </trkpt>
      <trkpt lat="46.1689" lon="4.44478">
        <ele>752.6</ele>
        <time>2025-09-07T15:34:13Z</time>
      </trkpt>
      <trkpt lat="46.1689" lon="4.44474">
        <ele>752</ele>
        <time>2025-09-07T15:34:14Z</time>
      </trkpt>
      <trkpt lat="46.1689" lon="4.44469">
        <ele>751.4</ele>
        <time>2025-09-07T15:34:15Z</time>
      </trkpt>
      <trkpt lat="46.1689" lon="4.44462">
        <ele>750.8</ele>
        <time>2025-09-07T15:34:16Z</time>
      </trkpt>
      <trkpt lat="46.16891" lon="4.44453">
        <ele>750.4</ele>
        <time>2025-09-07T15:34:17Z</time>
      </trkpt>
      <trkpt lat="46.16893" lon="4.44445">
        <ele>750</ele>
        <time>2025-09-07T15:34:18Z</time>
      </trkpt>
      <trkpt lat="46.16892" lon="4.44439">
        <ele>749.6</ele>
        <time>2025-09-07T15:34:19Z</time>
      </trkpt>
      <trkpt lat="46.16893" lon="4.44433">
        <ele>749</ele>
        <time>2025-09-07T15:34:20Z</time>
      </trkpt>
      <trkpt lat="46.16893" lon="4.44427">
        <ele>749</ele>
        <time>2025-09-07T15:34:21Z</time>
      </trkpt>
      <trkpt lat="46.16894" lon="4.44422">
        <ele>749</ele>
        <time>2025-09-07T15:34:22Z</time>
      </trkpt>
      <trkpt lat="46.16895" lon="4.44416">
        <ele>748.4</ele>
        <time>2025-09-07T15:34:23Z</time>
      </trkpt>
      <trkpt lat="46.16895" lon="4.44412">
        <ele>748</ele>
        <time>2025-09-07T15:34:24Z</time>
      </trkpt>
      <trkpt lat="46.16894" lon="4.44406">
        <ele>747.8</ele>
        <time>2025-09-07T15:34:25Z</time>
      </trkpt>
      <trkpt lat="46.16894" lon="4.44403">
        <ele>747.2</ele>
        <time>2025-09-07T15:34:26Z</time>
      </trkpt>
      <trkpt lat="46.16894" lon="4.444">
        <ele>746.8</ele>
        <time>2025-09-07T15:34:27Z</time>
      </trkpt>
      <trkpt lat="46.16894" lon="4.44394">
        <ele>746.2</ele>
        <time>2025-09-07T15:34:28Z</time>
      </trkpt>
      <trkpt lat="46.16892" lon="4.44387">
        <ele>745.4</ele>
        <time>2025-09-07T15:34:29Z</time>
      </trkpt>
      <trkpt lat="46.16891" lon="4.44382">
        <ele>744.8</ele>
        <time>2025-09-07T15:34:30Z</time>
      </trkpt>
      <trkpt lat="46.1689" lon="4.44378">
        <ele>744.2</ele>
        <time>2025-09-07T15:34:31Z</time>
      </trkpt>
      <trkpt lat="46.1689" lon="4.44373">
        <ele>743.6</ele>
        <time>2025-09-07T15:34:32Z</time>
      </trkpt>
      <trkpt lat="46.16889" lon="4.44369">
        <ele>743</ele>
        <time>2025-09-07T15:34:33Z</time>
      </trkpt>
      <trkpt lat="46.16888" lon="4.44366">
        <ele>742.6</ele>
        <time>2025-09-07T15:34:34Z</time>
      </trkpt>
      <trkpt lat="46.16888" lon="4.44362">
        <ele>742.2</ele>
        <time>2025-09-07T15:34:35Z</time>
      </trkpt>
      <trkpt lat="46.16886" lon="4.44361">
        <ele>741.8</ele>
        <time>2025-09-07T15:34:36Z</time>
      </trkpt>
      <trkpt lat="46.16885" lon="4.44359">
        <ele>741.6</ele>
        <time>2025-09-07T15:34:37Z</time>
      </trkpt>
      <trkpt lat="46.16885" lon="4.44357">
        <ele>741.6</ele>
        <time>2025-09-07T15:34:38Z</time>
      </trkpt>
      <trkpt lat="46.16885" lon="4.44357">
        <ele>741.2</ele>
        <time>2025-09-07T15:34:39Z</time>
      </trkpt>
      <trkpt lat="46.16885" lon="4.44358">
        <ele>741</ele>
        <time>2025-09-07T15:34:40Z</time>
      </trkpt>
      <trkpt lat="46.16888" lon="4.44357">
        <ele>740.6</ele>
        <time>2025-09-07T15:35:54Z</time>
      </trkpt>
      <trkpt lat="46.16888" lon="4.44356">
        <ele>740.6</ele>
        <time>2025-09-07T15:35:55Z</time>
      </trkpt>
      <trkpt lat="46.16888" lon="4.44356">
        <ele>740.6</ele>
        <time>2025-09-07T15:35:56Z</time>
      </trkpt>
      <trkpt lat="46.16888" lon="4.44356">
        <ele>740.2</ele>
        <time>2025-09-07T15:35:57Z</time>
      </trkpt>
      <trkpt lat="46.16891" lon="4.4434">
        <ele>739.6</ele>
        <time>2025-09-07T15:35:58Z</time>
      </trkpt>
      <trkpt lat="46.16892" lon="4.44332">
        <ele>738.8</ele>
        <time>2025-09-07T15:35:59Z</time>
      </trkpt>
      <trkpt lat="46.16893" lon="4.44325">
        <ele>738</ele>
        <time>2025-09-07T15:36:00Z</time>
      </trkpt>
      <trkpt lat="46.16893" lon="4.44317">
        <ele>736.8</ele>
        <time>2025-09-07T15:36:01Z</time>
      </trkpt>
      <trkpt lat="46.16892" lon="4.4431">
        <ele>735.8</ele>
        <time>2025-09-07T15:36:02Z</time>
      </trkpt>
      <trkpt lat="46.16892" lon="4.44302">
        <ele>734.8</ele>
        <time>2025-09-07T15:36:03Z</time>
      </trkpt>
      <trkpt lat="46.16889" lon="4.44295">
        <ele>733.8</ele>
        <time>2025-09-07T15:36:04Z</time>
      </trkpt>
      <trkpt lat="46.16885" lon="4.44289">
        <ele>732.8</ele>
        <time>2025-09-07T15:36:05Z</time>
      </trkpt>
      <trkpt lat="46.16881" lon="4.44282">
        <ele>732</ele>
        <time>2025-09-07T15:36:06Z</time>
      </trkpt>
      <trkpt lat="46.16876" lon="4.44276">
        <ele>731</ele>
        <time>2025-09-07T15:36:07Z</time>
      </trkpt>
      <trkpt lat="46.16871" lon="4.44269">
        <ele>730</ele>
        <time>2025-09-07T15:36:08Z</time>
      </trkpt>
      <trkpt lat="46.16865" lon="4.44262">
        <ele>729</ele>
        <time>2025-09-07T15:36:09Z</time>
      </trkpt>
      <trkpt lat="46.16861" lon="4.44256">
        <ele>728</ele>
        <time>2025-09-07T15:36:10Z</time>
      </trkpt>
      <trkpt lat="46.16857" lon="4.44251">
        <ele>727.2</ele>
        <time>2025-09-07T15:36:11Z</time>
      </trkpt>
      <trkpt lat="46.16853" lon="4.44246">
        <ele>726.4</ele>
        <time>2025-09-07T15:36:12Z</time>
      </trkpt>
      <trkpt lat="46.16849" lon="4.4424">
        <ele>725.6</ele>
        <time>2025-09-07T15:36:13Z</time>
      </trkpt>
      <trkpt lat="46.16846" lon="4.44233">
        <ele>724.6</ele>
        <time>2025-09-07T15:36:14Z</time>
      </trkpt>
      <trkpt lat="46.16842" lon="4.44228">
        <ele>723.8</ele>
        <time>2025-09-07T15:36:15Z</time>
      </trkpt>
      <trkpt lat="46.1684" lon="4.44223">
        <ele>722</ele>
        <time>2025-09-07T15:36:16Z</time>
      </trkpt>
      <trkpt lat="46.16838" lon="4.44218">
        <ele>722.2</ele>
        <time>2025-09-07T15:36:17Z</time>
      </trkpt>
      <trkpt lat="46.16835" lon="4.44215">
        <ele>721.2</ele>
        <time>2025-09-07T15:36:18Z</time>
      </trkpt>
      <trkpt lat="46.16832" lon="4.44208">
        <ele>720.2</ele>
        <time>2025-09-07T15:36:19Z</time>
      </trkpt>
      <trkpt lat="46.1683" lon="4.44199">
        <ele>720</ele>
        <time>2025-09-07T15:36:20Z</time>
      </trkpt>
      <trkpt lat="46.16829" lon="4.44192">
        <ele>719.6</ele>
        <time>2025-09-07T15:36:21Z</time>
      </trkpt>
      <trkpt lat="46.16827" lon="4.44185">
        <ele>719</ele>
        <time>2025-09-07T15:36:22Z</time>
      </trkpt>
      <trkpt lat="46.16822" lon="4.44182">
        <ele>719</ele>
        <time>2025-09-07T15:36:23Z</time>
      </trkpt>
      <trkpt lat="46.16823" lon="4.44178">
        <ele>719</ele>
        <time>2025-09-07T15:36:24Z</time>
      </trkpt>
      <trkpt lat="46.16821" lon="4.44175">
        <ele>718.8</ele>
        <time>2025-09-07T15:36:25Z</time>
      </trkpt>
      <trkpt lat="46.1682" lon="4.44172">
        <ele>718</ele>
        <time>2025-09-07T15:36:26Z</time>
      </trkpt>
      <trkpt lat="46.16818" lon="4.44168">
        <ele>718</ele>
        <time>2025-09-07T15:36:27Z</time>
      </trkpt>
      <trkpt lat="46.16817" lon="4.44164">
        <ele>718</ele>
        <time>2025-09-07T15:36:28Z</time>
      </trkpt>
      <trkpt lat="46.16815" lon="4.44161">
        <ele>718</ele>
        <time>2025-09-07T15:36:29Z</time>
      </trkpt>
      <trkpt lat="46.16813" lon="4.44157">
        <ele>717.4</ele>
        <time>2025-09-07T15:36:30Z</time>
      </trkpt>
      <trkpt lat="46.16812" lon="4.44155">
        <ele>718.6</ele>
        <time>2025-09-07T15:36:31Z</time>
      </trkpt>
      <trkpt lat="46.16809" lon="4.44152">
        <ele>718.6</ele>
        <time>2025-09-07T15:36:32Z</time>
      </trkpt>
      <trkpt lat="46.16807" lon="4.4415">
        <ele>718.2</ele>
        <time>2025-09-07T15:36:33Z</time>
      </trkpt>
      <trkpt lat="46.16804" lon="4.44148">
        <ele>718</ele>
        <time>2025-09-07T15:36:34Z</time>
      </trkpt>
      <trkpt lat="46.16802" lon="4.44146">
        <ele>717.6</ele>
        <time>2025-09-07T15:36:35Z</time>
      </trkpt>
      <trkpt lat="46.168" lon="4.44144">
        <ele>717.4</ele>
        <time>2025-09-07T15:36:36Z</time>
      </trkpt>
      <trkpt lat="46.16797" lon="4.44142">
        <ele>717.2</ele>
        <time>2025-09-07T15:36:37Z</time>
      </trkpt>
      <trkpt lat="46.16795" lon="4.44141">
        <ele>717</ele>
        <time>2025-09-07T15:36:38Z</time>
      </trkpt>
      <trkpt lat="46.16791" lon="4.44138">
        <ele>717</ele>
        <time>2025-09-07T15:36:39Z</time>
      </trkpt>
      <trkpt lat="46.16788" lon="4.44136">
        <ele>717</ele>
        <time>2025-09-07T15:36:40Z</time>
      </trkpt>
      <trkpt lat="46.16785" lon="4.44135">
        <ele>716.4</ele>
        <time>2025-09-07T15:36:41Z</time>
      </trkpt>
      <trkpt lat="46.16783" lon="4.44133">
        <ele>716.2</ele>
        <time>2025-09-07T15:36:42Z</time>
      </trkpt>
      <trkpt lat="46.16782" lon="4.44132">
        <ele>716.2</ele>
        <time>2025-09-07T15:36:43Z</time>
      </trkpt>
      <trkpt lat="46.16781" lon="4.4413">
        <ele>715.8</ele>
        <time>2025-09-07T15:36:44Z</time>
      </trkpt>
      <trkpt lat="46.16779" lon="4.44128">
        <ele>715.4</ele>
        <time>2025-09-07T15:36:45Z</time>
      </trkpt>
      <trkpt lat="46.16776" lon="4.44126">
        <ele>715.4</ele>
        <time>2025-09-07T15:36:46Z</time>
      </trkpt>
      <trkpt lat="46.16773" lon="4.44125">
        <ele>715.2</ele>
        <time>2025-09-07T15:36:47Z</time>
      </trkpt>
      <trkpt lat="46.1677" lon="4.44126">
        <ele>715.2</ele>
        <time>2025-09-07T15:36:48Z</time>
      </trkpt>
      <trkpt lat="46.16766" lon="4.44128">
        <ele>715.2</ele>
        <time>2025-09-07T15:36:49Z</time>
      </trkpt>
      <trkpt lat="46.16763" lon="4.44131">
        <ele>715.2</ele>
        <time>2025-09-07T15:36:50Z</time>
      </trkpt>
      <trkpt lat="46.16761" lon="4.44134">
        <ele>714.8</ele>
        <time>2025-09-07T15:36:51Z</time>
      </trkpt>
      <trkpt lat="46.16758" lon="4.44137">
        <ele>714.8</ele>
        <time>2025-09-07T15:36:52Z</time>
      </trkpt>
      <trkpt lat="46.16755" lon="4.4414">
        <ele>714.6</ele>
        <time>2025-09-07T15:36:53Z</time>
      </trkpt>
      <trkpt lat="46.16752" lon="4.44142">
        <ele>714.6</ele>
        <time>2025-09-07T15:36:54Z</time>
      </trkpt>
      <trkpt lat="46.16748" lon="4.44144">
        <ele>714.6</ele>
        <time>2025-09-07T15:36:55Z</time>
      </trkpt>
      <trkpt lat="46.16744" lon="4.44145">
        <ele>714.6</ele>
        <time>2025-09-07T15:36:56Z</time>
      </trkpt>
      <trkpt lat="46.1674" lon="4.44146">
        <ele>714.4</ele>
        <time>2025-09-07T15:36:57Z</time>
      </trkpt>
      <trkpt lat="46.16737" lon="4.44145">
        <ele>714.4</ele>
        <time>2025-09-07T15:36:58Z</time>
      </trkpt>
      <trkpt lat="46.16734" lon="4.44144">
        <ele>714.4</ele>
        <time>2025-09-07T15:36:59Z</time>
      </trkpt>
      <trkpt lat="46.16731" lon="4.44143">
        <ele>714.4</ele>
        <time>2025-09-07T15:37:00Z</time>
      </trkpt>
      <trkpt lat="46.16728" lon="4.44142">
        <ele>714.6</ele>
        <time>2025-09-07T15:37:01Z</time>
      </trkpt>
      <trkpt lat="46.16725" lon="4.44144">
        <ele>714.6</ele>
        <time>2025-09-07T15:37:02Z</time>
      </trkpt>
      <trkpt lat="46.16723" lon="4.44146">
        <ele>714.6</ele>
        <time>2025-09-07T15:37:03Z</time>
      </trkpt>
      <trkpt lat="46.16722" lon="4.44148">
        <ele>714.6</ele>
        <time>2025-09-07T15:37:04Z</time>
      </trkpt>
      <trkpt lat="46.16724" lon="4.44149">
        <ele>714.6</ele>
        <time>2025-09-07T15:37:05Z</time>
      </trkpt>
      <trkpt lat="46.16727" lon="4.44152">
        <ele>714.8</ele>
        <time>2025-09-07T15:37:15Z</time>
      </trkpt>
      <trkpt lat="46.16727" lon="4.44153">
        <ele>714.8</ele>
        <time>2025-09-07T15:37:16Z</time>
      </trkpt>
      <trkpt lat="46.16727" lon="4.44155">
        <ele>714.8</ele>
        <time>2025-09-07T15:37:17Z</time>
      </trkpt>
      <trkpt lat="46.16728" lon="4.44157">
        <ele>714.8</ele>
        <time>2025-09-07T15:37:18Z</time>
      </trkpt>
      <trkpt lat="46.16729" lon="4.44159">
        <ele>714.8</ele>
        <time>2025-09-07T15:37:19Z</time>
      </trkpt>
      <trkpt lat="46.1673" lon="4.44161">
        <ele>714.8</ele>
        <time>2025-09-07T15:37:20Z</time>
      </trkpt>
      <trkpt lat="46.16733" lon="4.44159">
        <ele>714.8</ele>
        <time>2025-09-07T15:37:21Z</time>
      </trkpt>
      <trkpt lat="46.16736" lon="4.44156">
        <ele>714.8</ele>
        <time>2025-09-07T15:37:22Z</time>
      </trkpt>
      <trkpt lat="46.16737" lon="4.44151">
        <ele>714.8</ele>
        <time>2025-09-07T15:37:23Z</time>
      </trkpt>
      <trkpt lat="46.16736" lon="4.44146">
        <ele>714.8</ele>
        <time>2025-09-07T15:37:24Z</time>
      </trkpt>
      <trkpt lat="46.16734" lon="4.44141">
        <ele>714.8</ele>
        <time>2025-09-07T15:37:25Z</time>
      </trkpt>
      <trkpt lat="46.16732" lon="4.44136">
        <ele>714.8</ele>
        <time>2025-09-07T15:37:26Z</time>
      </trkpt>
      <trkpt lat="46.16729" lon="4.44132">
        <ele>714.6</ele>
        <time>2025-09-07T15:37:27Z</time>
      </trkpt>
      <trkpt lat="46.16726" lon="4.44128">
        <ele>714.6</ele>
        <time>2025-09-07T15:37:28Z</time>
      </trkpt>
      <trkpt lat="46.16723" lon="4.44126">
        <ele>714.6</ele>
        <time>2025-09-07T15:37:29Z</time>
      </trkpt>
      <trkpt lat="46.16719" lon="4.44124">
        <ele>714.4</ele>
        <time>2025-09-07T15:37:30Z</time>
      </trkpt>
      <trkpt lat="46.16715" lon="4.44124">
        <ele>714.4</ele>
        <time>2025-09-07T15:37:31Z</time>
      </trkpt>
      <trkpt lat="46.1671" lon="4.44124">
        <ele>713.8</ele>
        <time>2025-09-07T15:37:32Z</time>
      </trkpt>
      <trkpt lat="46.16706" lon="4.44126">
        <ele>713.8</ele>
        <time>2025-09-07T15:37:33Z</time>
      </trkpt>
      <trkpt lat="46.16702" lon="4.44133">
        <ele>713.8</ele>
        <time>2025-09-07T15:37:34Z</time>
      </trkpt>
      <trkpt lat="46.16699" lon="4.44136">
        <ele>713.6</ele>
        <time>2025-09-07T15:37:35Z</time>
      </trkpt>
      <trkpt lat="46.16699" lon="4.44145">
        <ele>713.6</ele>
        <time>2025-09-07T15:37:36Z</time>
      </trkpt>
      <trkpt lat="46.16698" lon="4.44152">
        <ele>713.6</ele>
        <time>2025-09-07T15:37:37Z</time>
      </trkpt>
      <trkpt lat="46.16699" lon="4.44158">
        <ele>713.2</ele>
        <time>2025-09-07T15:37:38Z</time>
      </trkpt>
      <trkpt lat="46.167" lon="4.44165">
        <ele>713.2</ele>
        <time>2025-09-07T15:37:39Z</time>
      </trkpt>
      <trkpt lat="46.16702" lon="4.44171">
        <ele>713.2</ele>
        <time>2025-09-07T15:37:40Z</time>
      </trkpt>
      <trkpt lat="46.16705" lon="4.44176">
        <ele>713.2</ele>
        <time>2025-09-07T15:37:41Z</time>
      </trkpt>
      <trkpt lat="46.16707" lon="4.44182">
        <ele>713.2</ele>
        <time>2025-09-07T15:37:42Z</time>
      </trkpt>
      <trkpt lat="46.16708" lon="4.44188">
        <ele>713.2</ele>
        <time>2025-09-07T15:37:43Z</time>
      </trkpt>
      <trkpt lat="46.16708" lon="4.44194">
        <ele>713.2</ele>
        <time>2025-09-07T15:37:44Z</time>
      </trkpt>
      <trkpt lat="46.16708" lon="4.44201">
        <ele>713.2</ele>
        <time>2025-09-07T15:37:45Z</time>
      </trkpt>
      <trkpt lat="46.16706" lon="4.44208">
        <ele>713.2</ele>
        <time>2025-09-07T15:37:46Z</time>
      </trkpt>
      <trkpt lat="46.16705" lon="4.44215">
        <ele>713</ele>
        <time>2025-09-07T15:37:47Z</time>
      </trkpt>
      <trkpt lat="46.16704" lon="4.44222">
        <ele>713</ele>
        <time>2025-09-07T15:37:48Z</time>
      </trkpt>
      <trkpt lat="46.16702" lon="4.44229">
        <ele>712.8</ele>
        <time>2025-09-07T15:37:49Z</time>
      </trkpt>
      <trkpt lat="46.167" lon="4.44236">
        <ele>712.4</ele>
        <time>2025-09-07T15:37:50Z</time>
      </trkpt>
      <trkpt lat="46.16699" lon="4.44244">
        <ele>712.4</ele>
        <time>2025-09-07T15:37:51Z</time>
      </trkpt>
      <trkpt lat="46.16697" lon="4.4425">
        <ele>712.4</ele>
        <time>2025-09-07T15:37:52Z</time>
      </trkpt>
      <trkpt lat="46.16695" lon="4.44253">
        <ele>712.2</ele>
        <time>2025-09-07T15:37:53Z</time>
      </trkpt>
      <trkpt lat="46.16693" lon="4.44255">
        <ele>712.2</ele>
        <time>2025-09-07T15:37:54Z</time>
      </trkpt>
      <trkpt lat="46.16691" lon="4.44256">
        <ele>712</ele>
        <time>2025-09-07T15:37:55Z</time>
      </trkpt>
      <trkpt lat="46.16687" lon="4.44256">
        <ele>712</ele>
        <time>2025-09-07T15:37:56Z</time>
      </trkpt>
      <trkpt lat="46.16684" lon="4.44256">
        <ele>711.6</ele>
        <time>2025-09-07T15:37:57Z</time>
      </trkpt>
      <trkpt lat="46.16681" lon="4.44258">
        <ele>711.4</ele>
        <time>2025-09-07T15:37:58Z</time>
      </trkpt>
      <trkpt lat="46.16678" lon="4.4426">
        <ele>711.2</ele>
        <time>2025-09-07T15:37:59Z</time>
      </trkpt>
      <trkpt lat="46.16675" lon="4.44265">
        <ele>710.8</ele>
        <time>2025-09-07T15:38:00Z</time>
      </trkpt>
      <trkpt lat="46.16673" lon="4.4427">
        <ele>710.4</ele>
        <time>2025-09-07T15:38:01Z</time>
      </trkpt>
      <trkpt lat="46.16671" lon="4.44275">
        <ele>710</ele>
        <time>2025-09-07T15:38:02Z</time>
      </trkpt>
      <trkpt lat="46.16668" lon="4.44281">
        <ele>709.6</ele>
        <time>2025-09-07T15:38:03Z</time>
      </trkpt>
      <trkpt lat="46.16664" lon="4.44285">
        <ele>709</ele>
        <time>2025-09-07T15:38:04Z</time>
      </trkpt>
      <trkpt lat="46.16662" lon="4.4429">
        <ele>708.6</ele>
        <time>2025-09-07T15:38:05Z</time>
      </trkpt>
      <trkpt lat="46.1666" lon="4.44295">
        <ele>708</ele>
        <time>2025-09-07T15:38:06Z</time>
      </trkpt>
      <trkpt lat="46.16658" lon="4.44299">
        <ele>707.8</ele>
        <time>2025-09-07T15:38:07Z</time>
      </trkpt>
      <trkpt lat="46.16655" lon="4.44299">
        <ele>707.4</ele>
        <time>2025-09-07T15:38:08Z</time>
      </trkpt>
      <trkpt lat="46.16652" lon="4.44296">
        <ele>707</ele>
        <time>2025-09-07T15:38:09Z</time>
      </trkpt>
      <trkpt lat="46.16649" lon="4.44292">
        <ele>706.6</ele>
        <time>2025-09-07T15:38:10Z</time>
      </trkpt>
      <trkpt lat="46.16646" lon="4.44285">
        <ele>706.4</ele>
        <time>2025-09-07T15:38:11Z</time>
      </trkpt>
      <trkpt lat="46.16645" lon="4.4428">
        <ele>706.2</ele>
        <time>2025-09-07T15:38:12Z</time>
      </trkpt>
      <trkpt lat="46.16643" lon="4.44269">
        <ele>705.8</ele>
        <time>2025-09-07T15:38:13Z</time>
      </trkpt>
      <trkpt lat="46.16643" lon="4.44268">
        <ele>705.8</ele>
        <time>2025-09-07T15:38:14Z</time>
      </trkpt>
      <trkpt lat="46.1664" lon="4.44265">
        <ele>705.4</ele>
        <time>2025-09-07T15:38:15Z</time>
      </trkpt>
      <trkpt lat="46.16639" lon="4.44264">
        <ele>705.4</ele>
        <time>2025-09-07T15:38:16Z</time>
      </trkpt>
      <trkpt lat="46.16635" lon="4.44263">
        <ele>705.4</ele>
        <time>2025-09-07T15:38:17Z</time>
      </trkpt>
      <trkpt lat="46.16632" lon="4.44264">
        <ele>705.4</ele>
        <time>2025-09-07T15:38:18Z</time>
      </trkpt>
      <trkpt lat="46.16628" lon="4.44264">
        <ele>704.4</ele>
        <time>2025-09-07T15:38:19Z</time>
      </trkpt>
      <trkpt lat="46.16625" lon="4.44265">
        <ele>704.4</ele>
        <time>2025-09-07T15:38:20Z</time>
      </trkpt>
      <trkpt lat="46.16622" lon="4.44267">
        <ele>704</ele>
        <time>2025-09-07T15:38:21Z</time>
      </trkpt>
      <trkpt lat="46.16618" lon="4.44269">
        <ele>703.8</ele>
        <time>2025-09-07T15:38:22Z</time>
      </trkpt>
      <trkpt lat="46.16614" lon="4.4427">
        <ele>703.8</ele>
        <time>2025-09-07T15:38:23Z</time>
      </trkpt>
      <trkpt lat="46.16609" lon="4.44273">
        <ele>703.6</ele>
        <time>2025-09-07T15:38:24Z</time>
      </trkpt>
      <trkpt lat="46.16605" lon="4.44273">
        <ele>702.8</ele>
        <time>2025-09-07T15:38:25Z</time>
      </trkpt>
      <trkpt lat="46.16601" lon="4.44274">
        <ele>702.8</ele>
        <time>2025-09-07T15:38:26Z</time>
      </trkpt>
      <trkpt lat="46.16597" lon="4.44277">
        <ele>702.2</ele>
        <time>2025-09-07T15:38:27Z</time>
      </trkpt>
      <trkpt lat="46.16593" lon="4.44278">
        <ele>702.2</ele>
        <time>2025-09-07T15:38:28Z</time>
      </trkpt>
      <trkpt lat="46.16588" lon="4.44279">
        <ele>702</ele>
        <time>2025-09-07T15:38:29Z</time>
      </trkpt>
      <trkpt lat="46.16584" lon="4.44281">
        <ele>702</ele>
        <time>2025-09-07T15:38:30Z</time>
      </trkpt>
      <trkpt lat="46.16581" lon="4.44283">
        <ele>701.4</ele>
        <time>2025-09-07T15:38:31Z</time>
      </trkpt>
      <trkpt lat="46.16577" lon="4.44286">
        <ele>701</ele>
        <time>2025-09-07T15:38:32Z</time>
      </trkpt>
      <trkpt lat="46.16574" lon="4.44288">
        <ele>700.6</ele>
        <time>2025-09-07T15:38:33Z</time>
      </trkpt>
      <trkpt lat="46.16569" lon="4.4429">
        <ele>700</ele>
        <time>2025-09-07T15:38:34Z</time>
      </trkpt>
      <trkpt lat="46.16565" lon="4.44292">
        <ele>700</ele>
        <time>2025-09-07T15:38:35Z</time>
      </trkpt>
      <trkpt lat="46.16562" lon="4.44294">
        <ele>699.4</ele>
        <time>2025-09-07T15:38:36Z</time>
      </trkpt>
      <trkpt lat="46.16558" lon="4.44296">
        <ele>699.2</ele>
        <time>2025-09-07T15:38:37Z</time>
      </trkpt>
      <trkpt lat="46.16555" lon="4.44297">
        <ele>699.2</ele>
        <time>2025-09-07T15:38:38Z</time>
      </trkpt>
      <trkpt lat="46.16552" lon="4.44298">
        <ele>698.6</ele>
        <time>2025-09-07T15:38:39Z</time>
      </trkpt>
      <trkpt lat="46.16548" lon="4.443">
        <ele>698.2</ele>
        <time>2025-09-07T15:38:40Z</time>
      </trkpt>
      <trkpt lat="46.16545" lon="4.44302">
        <ele>697.4</ele>
        <time>2025-09-07T15:38:41Z</time>
      </trkpt>
      <trkpt lat="46.16542" lon="4.44303">
        <ele>697.2</ele>
        <time>2025-09-07T15:38:42Z</time>
      </trkpt>
      <trkpt lat="46.16538" lon="4.44304">
        <ele>696.6</ele>
        <time>2025-09-07T15:38:43Z</time>
      </trkpt>
      <trkpt lat="46.16536" lon="4.44306">
        <ele>695.8</ele>
        <time>2025-09-07T15:38:44Z</time>
      </trkpt>
      <trkpt lat="46.16533" lon="4.44306">
        <ele>695.2</ele>
        <time>2025-09-07T15:38:45Z</time>
      </trkpt>
      <trkpt lat="46.16531" lon="4.44307">
        <ele>694.8</ele>
        <time>2025-09-07T15:38:46Z</time>
      </trkpt>
      <trkpt lat="46.1653" lon="4.44308">
        <ele>694.4</ele>
        <time>2025-09-07T15:38:47Z</time>
      </trkpt>
      <trkpt lat="46.16527" lon="4.4431">
        <ele>694</ele>
        <time>2025-09-07T15:38:48Z</time>
      </trkpt>
      <trkpt lat="46.16524" lon="4.44312">
        <ele>693.2</ele>
        <time>2025-09-07T15:38:49Z</time>
      </trkpt>
      <trkpt lat="46.1652" lon="4.44313">
        <ele>693.2</ele>
        <time>2025-09-07T15:38:50Z</time>
      </trkpt>
      <trkpt lat="46.16517" lon="4.44313">
        <ele>692.6</ele>
        <time>2025-09-07T15:38:51Z</time>
      </trkpt>
      <trkpt lat="46.16514" lon="4.44313">
        <ele>692</ele>
        <time>2025-09-07T15:38:52Z</time>
      </trkpt>
      <trkpt lat="46.16509" lon="4.44313">
        <ele>691.6</ele>
        <time>2025-09-07T15:38:53Z</time>
      </trkpt>
      <trkpt lat="46.16505" lon="4.44315">
        <ele>691</ele>
        <time>2025-09-07T15:38:54Z</time>
      </trkpt>
      <trkpt lat="46.16501" lon="4.44314">
        <ele>690.4</ele>
        <time>2025-09-07T15:38:55Z</time>
      </trkpt>
      <trkpt lat="46.16497" lon="4.44314">
        <ele>690</ele>
        <time>2025-09-07T15:38:56Z</time>
      </trkpt>
      <trkpt lat="46.16494" lon="4.44315">
        <ele>689.6</ele>
        <time>2025-09-07T15:38:57Z</time>
      </trkpt>
      <trkpt lat="46.16489" lon="4.44315">
        <ele>689.2</ele>
        <time>2025-09-07T15:38:58Z</time>
      </trkpt>
      <trkpt lat="46.16489" lon="4.44315">
        <ele>689</ele>
        <time>2025-09-07T15:38:59Z</time>
      </trkpt>
      <trkpt lat="46.16485" lon="4.44315">
        <ele>689</ele>
        <time>2025-09-07T15:39:00Z</time>
      </trkpt>
      <trkpt lat="46.16481" lon="4.44315">
        <ele>688.6</ele>
        <time>2025-09-07T15:39:01Z</time>
      </trkpt>
      <trkpt lat="46.16477" lon="4.44314">
        <ele>688.2</ele>
        <time>2025-09-07T15:39:02Z</time>
      </trkpt>
      <trkpt lat="46.16476" lon="4.44316">
        <ele>687.8</ele>
        <time>2025-09-07T15:39:03Z</time>
      </trkpt>
      <trkpt lat="46.16472" lon="4.44316">
        <ele>687</ele>
        <time>2025-09-07T15:39:04Z</time>
      </trkpt>
      <trkpt lat="46.16468" lon="4.44316">
        <ele>686.4</ele>
        <time>2025-09-07T15:39:05Z</time>
      </trkpt>
      <trkpt lat="46.16464" lon="4.44314">
        <ele>685.6</ele>
        <time>2025-09-07T15:39:06Z</time>
      </trkpt>
      <trkpt lat="46.16461" lon="4.44313">
        <ele>685.2</ele>
        <time>2025-09-07T15:39:07Z</time>
      </trkpt>
      <trkpt lat="46.16458" lon="4.44314">
        <ele>685</ele>
        <time>2025-09-07T15:39:08Z</time>
      </trkpt>
      <trkpt lat="46.16456" lon="4.44314">
        <ele>684.2</ele>
        <time>2025-09-07T15:39:09Z</time>
      </trkpt>
      <trkpt lat="46.16453" lon="4.44313">
        <ele>683.8</ele>
        <time>2025-09-07T15:39:10Z</time>
      </trkpt>
      <trkpt lat="46.16451" lon="4.44313">
        <ele>683.4</ele>
        <time>2025-09-07T15:39:11Z</time>
      </trkpt>
      <trkpt lat="46.16448" lon="4.44312">
        <ele>682.8</ele>
        <time>2025-09-07T15:39:12Z</time>
      </trkpt>
      <trkpt lat="46.16446" lon="4.44312">
        <ele>682.4</ele>
        <time>2025-09-07T15:39:13Z</time>
      </trkpt>
      <trkpt lat="46.16444" lon="4.44312">
        <ele>681.8</ele>
        <time>2025-09-07T15:39:14Z</time>
      </trkpt>
      <trkpt lat="46.16442" lon="4.44311">
        <ele>682.2</ele>
        <time>2025-09-07T15:39:15Z</time>
      </trkpt>
      <trkpt lat="46.16439" lon="4.44311">
        <ele>681.8</ele>
        <time>2025-09-07T15:39:16Z</time>
      </trkpt>
      <trkpt lat="46.16436" lon="4.4431">
        <ele>680.4</ele>
        <time>2025-09-07T15:39:17Z</time>
      </trkpt>
      <trkpt lat="46.16433" lon="4.4431">
        <ele>679.8</ele>
        <time>2025-09-07T15:39:18Z</time>
      </trkpt>
      <trkpt lat="46.1643" lon="4.4431">
        <ele>679</ele>
        <time>2025-09-07T15:39:19Z</time>
      </trkpt>
      <trkpt lat="46.16427" lon="4.4431">
        <ele>678.2</ele>
        <time>2025-09-07T15:39:20Z</time>
      </trkpt>
      <trkpt lat="46.16424" lon="4.44309">
        <ele>677</ele>
        <time>2025-09-07T15:39:21Z</time>
      </trkpt>
      <trkpt lat="46.16422" lon="4.44309">
        <ele>676.4</ele>
        <time>2025-09-07T15:39:22Z</time>
      </trkpt>
      <trkpt lat="46.16418" lon="4.44309">
        <ele>675.8</ele>
        <time>2025-09-07T15:39:23Z</time>
      </trkpt>
      <trkpt lat="46.16415" lon="4.44309">
        <ele>675.4</ele>
        <time>2025-09-07T15:39:24Z</time>
      </trkpt>
      <trkpt lat="46.16411" lon="4.44309">
        <ele>675</ele>
        <time>2025-09-07T15:39:25Z</time>
      </trkpt>
      <trkpt lat="46.16408" lon="4.4431">
        <ele>674.6</ele>
        <time>2025-09-07T15:39:26Z</time>
      </trkpt>
      <trkpt lat="46.16405" lon="4.44311">
        <ele>674.2</ele>
        <time>2025-09-07T15:39:27Z</time>
      </trkpt>
      <trkpt lat="46.16403" lon="4.44312">
        <ele>674.2</ele>
        <time>2025-09-07T15:39:28Z</time>
      </trkpt>
      <trkpt lat="46.16402" lon="4.44314">
        <ele>674.2</ele>
        <time>2025-09-07T15:39:29Z</time>
      </trkpt>
      <trkpt lat="46.16399" lon="4.44316">
        <ele>673.2</ele>
        <time>2025-09-07T15:39:30Z</time>
      </trkpt>
      <trkpt lat="46.16397" lon="4.44319">
        <ele>673.2</ele>
        <time>2025-09-07T15:39:31Z</time>
      </trkpt>
      <trkpt lat="46.16395" lon="4.44321">
        <ele>673</ele>
        <time>2025-09-07T15:39:32Z</time>
      </trkpt>
      <trkpt lat="46.16393" lon="4.44323">
        <ele>671</ele>
        <time>2025-09-07T15:39:33Z</time>
      </trkpt>
      <trkpt lat="46.16392" lon="4.44326">
        <ele>671</ele>
        <time>2025-09-07T15:39:34Z</time>
      </trkpt>
      <trkpt lat="46.16391" lon="4.4433">
        <ele>671.2</ele>
        <time>2025-09-07T15:39:35Z</time>
      </trkpt>
      <trkpt lat="46.1639" lon="4.44334">
        <ele>671</ele>
        <time>2025-09-07T15:39:36Z</time>
      </trkpt>
      <trkpt lat="46.16389" lon="4.44339">
        <ele>670.6</ele>
        <time>2025-09-07T15:39:37Z</time>
      </trkpt>
      <trkpt lat="46.16387" lon="4.44344">
        <ele>670.4</ele>
        <time>2025-09-07T15:39:38Z</time>
      </trkpt>
      <trkpt lat="46.16387" lon="4.44348">
        <ele>670.4</ele>
        <time>2025-09-07T15:39:39Z</time>
      </trkpt>
      <trkpt lat="46.16386" lon="4.44353">
        <ele>669.8</ele>
        <time>2025-09-07T15:39:40Z</time>
      </trkpt>
      <trkpt lat="46.16384" lon="4.44358">
        <ele>669.8</ele>
        <time>2025-09-07T15:39:41Z</time>
      </trkpt>
      <trkpt lat="46.16383" lon="4.44362">
        <ele>669.8</ele>
        <time>2025-09-07T15:39:42Z</time>
      </trkpt>
      <trkpt lat="46.16382" lon="4.44367">
        <ele>669.6</ele>
        <time>2025-09-07T15:39:43Z</time>
      </trkpt>
      <trkpt lat="46.1638" lon="4.44371">
        <ele>670.6</ele>
        <time>2025-09-07T15:39:44Z</time>
      </trkpt>
      <trkpt lat="46.16379" lon="4.44376">
        <ele>670.6</ele>
        <time>2025-09-07T15:39:45Z</time>
      </trkpt>
      <trkpt lat="46.16377" lon="4.4438">
        <ele>670.2</ele>
        <time>2025-09-07T15:39:46Z</time>
      </trkpt>
      <trkpt lat="46.16376" lon="4.44383">
        <ele>670</ele>
        <time>2025-09-07T15:39:47Z</time>
      </trkpt>
      <trkpt lat="46.16375" lon="4.44386">
        <ele>669.8</ele>
        <time>2025-09-07T15:39:48Z</time>
      </trkpt>
      <trkpt lat="46.16373" lon="4.44389">
        <ele>669.2</ele>
        <time>2025-09-07T15:39:49Z</time>
      </trkpt>
      <trkpt lat="46.16371" lon="4.44393">
        <ele>669.2</ele>
        <time>2025-09-07T15:39:50Z</time>
      </trkpt>
      <trkpt lat="46.16369" lon="4.44397">
        <ele>668.8</ele>
        <time>2025-09-07T15:39:51Z</time>
      </trkpt>
      <trkpt lat="46.16367" lon="4.44401">
        <ele>668.4</ele>
        <time>2025-09-07T15:39:52Z</time>
      </trkpt>
      <trkpt lat="46.16365" lon="4.44404">
        <ele>668</ele>
        <time>2025-09-07T15:39:53Z</time>
      </trkpt>
      <trkpt lat="46.16363" lon="4.44407">
        <ele>667.6</ele>
        <time>2025-09-07T15:39:54Z</time>
      </trkpt>
      <trkpt lat="46.16361" lon="4.4441">
        <ele>667.6</ele>
        <time>2025-09-07T15:39:55Z</time>
      </trkpt>
      <trkpt lat="46.16359" lon="4.44413">
        <ele>667.2</ele>
        <time>2025-09-07T15:39:56Z</time>
      </trkpt>
      <trkpt lat="46.16357" lon="4.44415">
        <ele>667.2</ele>
        <time>2025-09-07T15:39:57Z</time>
      </trkpt>
      <trkpt lat="46.16355" lon="4.44417">
        <ele>666.2</ele>
        <time>2025-09-07T15:39:58Z</time>
      </trkpt>
      <trkpt lat="46.16353" lon="4.4442">
        <ele>666</ele>
        <time>2025-09-07T15:39:59Z</time>
      </trkpt>
      <trkpt lat="46.16351" lon="4.44423">
        <ele>666</ele>
        <time>2025-09-07T15:40:00Z</time>
      </trkpt>
      <trkpt lat="46.16348" lon="4.44426">
        <ele>665.8</ele>
        <time>2025-09-07T15:40:01Z</time>
      </trkpt>
      <trkpt lat="46.16346" lon="4.44428">
        <ele>665.4</ele>
        <time>2025-09-07T15:40:02Z</time>
      </trkpt>
      <trkpt lat="46.16345" lon="4.4443">
        <ele>665.2</ele>
        <time>2025-09-07T15:40:03Z</time>
      </trkpt>
      <trkpt lat="46.16343" lon="4.44432">
        <ele>665</ele>
        <time>2025-09-07T15:40:04Z</time>
      </trkpt>
      <trkpt lat="46.16341" lon="4.44436">
        <ele>665</ele>
        <time>2025-09-07T15:40:05Z</time>
      </trkpt>
      <trkpt lat="46.16338" lon="4.44439">
        <ele>664.4</ele>
        <time>2025-09-07T15:40:06Z</time>
      </trkpt>
      <trkpt lat="46.16336" lon="4.44442">
        <ele>664.2</ele>
        <time>2025-09-07T15:40:07Z</time>
      </trkpt>
      <trkpt lat="46.16334" lon="4.44445">
        <ele>664.2</ele>
        <time>2025-09-07T15:40:08Z</time>
      </trkpt>
      <trkpt lat="46.16331" lon="4.44447">
        <ele>663.2</ele>
        <time>2025-09-07T15:40:09Z</time>
      </trkpt>
      <trkpt lat="46.1633" lon="4.44449">
        <ele>663.2</ele>
        <time>2025-09-07T15:40:10Z</time>
      </trkpt>
      <trkpt lat="46.16329" lon="4.4445">
        <ele>663</ele>
        <time>2025-09-07T15:40:11Z</time>
      </trkpt>
      <trkpt lat="46.16328" lon="4.44452">
        <ele>662.2</ele>
        <time>2025-09-07T15:40:12Z</time>
      </trkpt>
      <trkpt lat="46.16326" lon="4.44455">
        <ele>661.8</ele>
        <time>2025-09-07T15:40:13Z</time>
      </trkpt>
      <trkpt lat="46.16324" lon="4.44457">
        <ele>661.8</ele>
        <time>2025-09-07T15:40:14Z</time>
      </trkpt>
      <trkpt lat="46.16322" lon="4.4446">
        <ele>661.4</ele>
        <time>2025-09-07T15:40:15Z</time>
      </trkpt>
      <trkpt lat="46.1632" lon="4.44463">
        <ele>661.4</ele>
        <time>2025-09-07T15:40:16Z</time>
      </trkpt>
      <trkpt lat="46.16318" lon="4.44465">
        <ele>660.6</ele>
        <time>2025-09-07T15:40:17Z</time>
      </trkpt>
      <trkpt lat="46.16316" lon="4.44467">
        <ele>660.6</ele>
        <time>2025-09-07T15:40:18Z</time>
      </trkpt>
      <trkpt lat="46.16314" lon="4.4447">
        <ele>659.8</ele>
        <time>2025-09-07T15:40:19Z</time>
      </trkpt>
      <trkpt lat="46.16312" lon="4.44473">
        <ele>659.4</ele>
        <time>2025-09-07T15:40:20Z</time>
      </trkpt>
      <trkpt lat="46.1631" lon="4.44478">
        <ele>659.4</ele>
        <time>2025-09-07T15:40:21Z</time>
      </trkpt>
      <trkpt lat="46.16308" lon="4.44481">
        <ele>658.8</ele>
        <time>2025-09-07T15:40:22Z</time>
      </trkpt>
      <trkpt lat="46.16305" lon="4.44485">
        <ele>658.8</ele>
        <time>2025-09-07T15:40:23Z</time>
      </trkpt>
      <trkpt lat="46.16302" lon="4.4449">
        <ele>658.2</ele>
        <time>2025-09-07T15:40:24Z</time>
      </trkpt>
      <trkpt lat="46.163" lon="4.44493">
        <ele>657.8</ele>
        <time>2025-09-07T15:40:25Z</time>
      </trkpt>
      <trkpt lat="46.16297" lon="4.44496">
        <ele>657.2</ele>
        <time>2025-09-07T15:40:26Z</time>
      </trkpt>
      <trkpt lat="46.16295" lon="4.445">
        <ele>657</ele>
        <time>2025-09-07T15:40:27Z</time>
      </trkpt>
      <trkpt lat="46.16292" lon="4.44504">
        <ele>656.4</ele>
        <time>2025-09-07T15:40:28Z</time>
      </trkpt>
      <trkpt lat="46.16291" lon="4.44507">
        <ele>656.2</ele>
        <time>2025-09-07T15:40:29Z</time>
      </trkpt>
      <trkpt lat="46.1629" lon="4.44509">
        <ele>655.6</ele>
        <time>2025-09-07T15:40:30Z</time>
      </trkpt>
      <trkpt lat="46.16288" lon="4.44512">
        <ele>655.6</ele>
        <time>2025-09-07T15:40:31Z</time>
      </trkpt>
      <trkpt lat="46.16286" lon="4.44514">
        <ele>655.2</ele>
        <time>2025-09-07T15:40:32Z</time>
      </trkpt>
      <trkpt lat="46.16285" lon="4.44516">
        <ele>654</ele>
        <time>2025-09-07T15:40:33Z</time>
      </trkpt>
      <trkpt lat="46.16284" lon="4.44517">
        <ele>653.6</ele>
        <time>2025-09-07T15:40:34Z</time>
      </trkpt>
      <trkpt lat="46.16282" lon="4.44518">
        <ele>654.2</ele>
        <time>2025-09-07T15:40:35Z</time>
      </trkpt>
      <trkpt lat="46.1628" lon="4.44519">
        <ele>653.8</ele>
        <time>2025-09-07T15:40:36Z</time>
      </trkpt>
      <trkpt lat="46.16278" lon="4.44521">
        <ele>653.8</ele>
        <time>2025-09-07T15:40:37Z</time>
      </trkpt>
      <trkpt lat="46.16276" lon="4.44523">
        <ele>653</ele>
        <time>2025-09-07T15:40:38Z</time>
      </trkpt>
      <trkpt lat="46.16274" lon="4.44524">
        <ele>652.8</ele>
        <time>2025-09-07T15:40:39Z</time>
      </trkpt>
      <trkpt lat="46.16272" lon="4.44525">
        <ele>652.6</ele>
        <time>2025-09-07T15:40:40Z</time>
      </trkpt>
      <trkpt lat="46.1627" lon="4.44527">
        <ele>652.2</ele>
        <time>2025-09-07T15:40:41Z</time>
      </trkpt>
      <trkpt lat="46.16268" lon="4.44528">
        <ele>651.8</ele>
        <time>2025-09-07T15:40:42Z</time>
      </trkpt>
      <trkpt lat="46.16266" lon="4.4453">
        <ele>651.6</ele>
        <time>2025-09-07T15:40:43Z</time>
      </trkpt>
      <trkpt lat="46.16264" lon="4.44531">
        <ele>651.2</ele>
        <time>2025-09-07T15:40:44Z</time>
      </trkpt>
      <trkpt lat="46.16262" lon="4.44533">
        <ele>650.8</ele>
        <time>2025-09-07T15:40:45Z</time>
      </trkpt>
      <trkpt lat="46.1626" lon="4.44534">
        <ele>650.6</ele>
        <time>2025-09-07T15:40:46Z</time>
      </trkpt>
      <trkpt lat="46.16259" lon="4.44535">
        <ele>650.2</ele>
        <time>2025-09-07T15:40:47Z</time>
      </trkpt>
      <trkpt lat="46.16257" lon="4.44535">
        <ele>649.4</ele>
        <time>2025-09-07T15:40:48Z</time>
      </trkpt>
      <trkpt lat="46.16255" lon="4.44536">
        <ele>649.2</ele>
        <time>2025-09-07T15:40:49Z</time>
      </trkpt>
      <trkpt lat="46.16253" lon="4.44537">
        <ele>649.4</ele>
        <time>2025-09-07T15:40:50Z</time>
      </trkpt>
      <trkpt lat="46.16251" lon="4.44539">
        <ele>648.8</ele>
        <time>2025-09-07T15:40:51Z</time>
      </trkpt>
      <trkpt lat="46.1625" lon="4.44541">
        <ele>648.8</ele>
        <time>2025-09-07T15:40:52Z</time>
      </trkpt>
      <trkpt lat="46.16248" lon="4.44543">
        <ele>648.6</ele>
        <time>2025-09-07T15:40:53Z</time>
      </trkpt>
      <trkpt lat="46.16246" lon="4.44544">
        <ele>648.6</ele>
        <time>2025-09-07T15:40:54Z</time>
      </trkpt>
      <trkpt lat="46.16243" lon="4.44545">
        <ele>648.4</ele>
        <time>2025-09-07T15:40:55Z</time>
      </trkpt>
      <trkpt lat="46.16241" lon="4.44546">
        <ele>648.4</ele>
        <time>2025-09-07T15:40:56Z</time>
      </trkpt>
      <trkpt lat="46.16239" lon="4.44547">
        <ele>648</ele>
        <time>2025-09-07T15:40:57Z</time>
      </trkpt>
      <trkpt lat="46.16236" lon="4.44548">
        <ele>648</ele>
        <time>2025-09-07T15:40:58Z</time>
      </trkpt>
      <trkpt lat="46.16233" lon="4.44548">
        <ele>648</ele>
        <time>2025-09-07T15:40:59Z</time>
      </trkpt>
      <trkpt lat="46.16231" lon="4.4455">
        <ele>647.8</ele>
        <time>2025-09-07T15:41:00Z</time>
      </trkpt>
      <trkpt lat="46.16229" lon="4.44551">
        <ele>647.8</ele>
        <time>2025-09-07T15:41:01Z</time>
      </trkpt>
      <trkpt lat="46.16226" lon="4.44552">
        <ele>647.8</ele>
        <time>2025-09-07T15:41:02Z</time>
      </trkpt>
      <trkpt lat="46.16224" lon="4.44552">
        <ele>647</ele>
        <time>2025-09-07T15:41:03Z</time>
      </trkpt>
      <trkpt lat="46.16221" lon="4.44552">
        <ele>646.8</ele>
        <time>2025-09-07T15:41:04Z</time>
      </trkpt>
      <trkpt lat="46.16219" lon="4.44552">
        <ele>646.2</ele>
        <time>2025-09-07T15:41:05Z</time>
      </trkpt>
      <trkpt lat="46.16218" lon="4.44552">
        <ele>646</ele>
        <time>2025-09-07T15:41:06Z</time>
      </trkpt>
      <trkpt lat="46.16216" lon="4.44552">
        <ele>646</ele>
        <time>2025-09-07T15:41:07Z</time>
      </trkpt>
      <trkpt lat="46.16215" lon="4.44554">
        <ele>646</ele>
        <time>2025-09-07T15:41:08Z</time>
      </trkpt>
      <trkpt lat="46.16213" lon="4.44555">
        <ele>645.6</ele>
        <time>2025-09-07T15:41:09Z</time>
      </trkpt>
      <trkpt lat="46.16212" lon="4.44557">
        <ele>645.2</ele>
        <time>2025-09-07T15:41:10Z</time>
      </trkpt>
      <trkpt lat="46.1621" lon="4.44558">
        <ele>644.8</ele>
        <time>2025-09-07T15:41:11Z</time>
      </trkpt>
      <trkpt lat="46.16208" lon="4.44559">
        <ele>644.8</ele>
        <time>2025-09-07T15:41:12Z</time>
      </trkpt>
      <trkpt lat="46.16206" lon="4.4456">
        <ele>644.2</ele>
        <time>2025-09-07T15:41:13Z</time>
      </trkpt>
      <trkpt lat="46.16204" lon="4.44562">
        <ele>644.2</ele>
        <time>2025-09-07T15:41:14Z</time>
      </trkpt>
      <trkpt lat="46.16202" lon="4.44563">
        <ele>643.8</ele>
        <time>2025-09-07T15:41:15Z</time>
      </trkpt>
      <trkpt lat="46.162" lon="4.44563">
        <ele>643.4</ele>
        <time>2025-09-07T15:41:16Z</time>
      </trkpt>
      <trkpt lat="46.16199" lon="4.44564">
        <ele>643.2</ele>
        <time>2025-09-07T15:41:17Z</time>
      </trkpt>
      <trkpt lat="46.16198" lon="4.44564">
        <ele>643.2</ele>
        <time>2025-09-07T15:41:18Z</time>
      </trkpt>
      <trkpt lat="46.16197" lon="4.44563">
        <ele>643.2</ele>
        <time>2025-09-07T15:41:19Z</time>
      </trkpt>
      <trkpt lat="46.16195" lon="4.44563">
        <ele>643</ele>
        <time>2025-09-07T15:41:20Z</time>
      </trkpt>
      <trkpt lat="46.16193" lon="4.44563">
        <ele>643</ele>
        <time>2025-09-07T15:41:21Z</time>
      </trkpt>
      <trkpt lat="46.1619" lon="4.44565">
        <ele>642.6</ele>
        <time>2025-09-07T15:41:22Z</time>
      </trkpt>
      <trkpt lat="46.16186" lon="4.44567">
        <ele>642.4</ele>
        <time>2025-09-07T15:41:23Z</time>
      </trkpt>
      <trkpt lat="46.16182" lon="4.4457">
        <ele>642</ele>
        <time>2025-09-07T15:41:24Z</time>
      </trkpt>
      <trkpt lat="46.16178" lon="4.44572">
        <ele>641.4</ele>
        <time>2025-09-07T15:41:25Z</time>
      </trkpt>
      <trkpt lat="46.16174" lon="4.44574">
        <ele>641</ele>
        <time>2025-09-07T15:41:26Z</time>
      </trkpt>
      <trkpt lat="46.1617" lon="4.44577">
        <ele>641</ele>
        <time>2025-09-07T15:41:27Z</time>
      </trkpt>
      <trkpt lat="46.16167" lon="4.44579">
        <ele>640.2</ele>
        <time>2025-09-07T15:41:28Z</time>
      </trkpt>
      <trkpt lat="46.16164" lon="4.44581">
        <ele>640.2</ele>
        <time>2025-09-07T15:41:29Z</time>
      </trkpt>
      <trkpt lat="46.16162" lon="4.44583">
        <ele>640.2</ele>
        <time>2025-09-07T15:41:30Z</time>
      </trkpt>
      <trkpt lat="46.16159" lon="4.44586">
        <ele>640</ele>
        <time>2025-09-07T15:41:31Z</time>
      </trkpt>
      <trkpt lat="46.16158" lon="4.44587">
        <ele>639.8</ele>
        <time>2025-09-07T15:41:32Z</time>
      </trkpt>
      <trkpt lat="46.16157" lon="4.44588">
        <ele>639.8</ele>
        <time>2025-09-07T15:41:33Z</time>
      </trkpt>
      <trkpt lat="46.16158" lon="4.44588">
        <ele>639.4</ele>
        <time>2025-09-07T15:41:34Z</time>
      </trkpt>
      <trkpt lat="46.16158" lon="4.44588">
        <ele>639</ele>
        <time>2025-09-07T15:41:35Z</time>
      </trkpt>
      <trkpt lat="46.16155" lon="4.44595">
        <ele>639</ele>
        <time>2025-09-07T15:41:55Z</time>
      </trkpt>
      <trkpt lat="46.16153" lon="4.44598">
        <ele>638.8</ele>
        <time>2025-09-07T15:41:56Z</time>
      </trkpt>
      <trkpt lat="46.16151" lon="4.44601">
        <ele>638.8</ele>
        <time>2025-09-07T15:41:57Z</time>
      </trkpt>
      <trkpt lat="46.16149" lon="4.44604">
        <ele>638.2</ele>
        <time>2025-09-07T15:41:58Z</time>
      </trkpt>
      <trkpt lat="46.16146" lon="4.44607">
        <ele>637.8</ele>
        <time>2025-09-07T15:41:59Z</time>
      </trkpt>
      <trkpt lat="46.16144" lon="4.44608">
        <ele>637.4</ele>
        <time>2025-09-07T15:42:00Z</time>
      </trkpt>
      <trkpt lat="46.16143" lon="4.44609">
        <ele>637.2</ele>
        <time>2025-09-07T15:42:01Z</time>
      </trkpt>
      <trkpt lat="46.16142" lon="4.4461">
        <ele>636.8</ele>
        <time>2025-09-07T15:42:02Z</time>
      </trkpt>
      <trkpt lat="46.16141" lon="4.4461">
        <ele>636.2</ele>
        <time>2025-09-07T15:42:03Z</time>
      </trkpt>
      <trkpt lat="46.1614" lon="4.4461">
        <ele>635.8</ele>
        <time>2025-09-07T15:42:04Z</time>
      </trkpt>
      <trkpt lat="46.16138" lon="4.44611">
        <ele>635.6</ele>
        <time>2025-09-07T15:42:05Z</time>
      </trkpt>
      <trkpt lat="46.16137" lon="4.44611">
        <ele>635.4</ele>
        <time>2025-09-07T15:42:06Z</time>
      </trkpt>
      <trkpt lat="46.16135" lon="4.4461">
        <ele>635</ele>
        <time>2025-09-07T15:42:07Z</time>
      </trkpt>
      <trkpt lat="46.16133" lon="4.44608">
        <ele>635</ele>
        <time>2025-09-07T15:42:08Z</time>
      </trkpt>
      <trkpt lat="46.16132" lon="4.44606">
        <ele>633.4</ele>
        <time>2025-09-07T15:42:09Z</time>
      </trkpt>
      <trkpt lat="46.16131" lon="4.44605">
        <ele>633.4</ele>
        <time>2025-09-07T15:42:10Z</time>
      </trkpt>
      <trkpt lat="46.16129" lon="4.44603">
        <ele>633.4</ele>
        <time>2025-09-07T15:42:11Z</time>
      </trkpt>
      <trkpt lat="46.16127" lon="4.44601">
        <ele>632.8</ele>
        <time>2025-09-07T15:42:12Z</time>
      </trkpt>
      <trkpt lat="46.16125" lon="4.446">
        <ele>632.2</ele>
        <time>2025-09-07T15:42:13Z</time>
      </trkpt>
      <trkpt lat="46.16123" lon="4.44599">
        <ele>632.2</ele>
        <time>2025-09-07T15:42:14Z</time>
      </trkpt>
      <trkpt lat="46.16121" lon="4.446">
        <ele>632</ele>
        <time>2025-09-07T15:42:15Z</time>
      </trkpt>
      <trkpt lat="46.16119" lon="4.446">
        <ele>631.2</ele>
        <time>2025-09-07T15:42:16Z</time>
      </trkpt>
      <trkpt lat="46.16117" lon="4.446">
        <ele>631</ele>
        <time>2025-09-07T15:42:17Z</time>
      </trkpt>
      <trkpt lat="46.16114" lon="4.446">
        <ele>631</ele>
        <time>2025-09-07T15:42:18Z</time>
      </trkpt>
      <trkpt lat="46.16112" lon="4.446">
        <ele>630.6</ele>
        <time>2025-09-07T15:42:19Z</time>
      </trkpt>
      <trkpt lat="46.1611" lon="4.446">
        <ele>630.2</ele>
        <time>2025-09-07T15:42:20Z</time>
      </trkpt>
      <trkpt lat="46.16108" lon="4.446">
        <ele>630.2</ele>
        <time>2025-09-07T15:42:21Z</time>
      </trkpt>
      <trkpt lat="46.16106" lon="4.44601">
        <ele>630</ele>
        <time>2025-09-07T15:42:22Z</time>
      </trkpt>
      <trkpt lat="46.16104" lon="4.44601">
        <ele>629.2</ele>
        <time>2025-09-07T15:42:23Z</time>
      </trkpt>
      <trkpt lat="46.16103" lon="4.44602">
        <ele>628.8</ele>
        <time>2025-09-07T15:42:24Z</time>
      </trkpt>
      <trkpt lat="46.16101" lon="4.44602">
        <ele>628.6</ele>
        <time>2025-09-07T15:42:25Z</time>
      </trkpt>
      <trkpt lat="46.161" lon="4.44602">
        <ele>627.8</ele>
        <time>2025-09-07T15:42:26Z</time>
      </trkpt>
      <trkpt lat="46.16098" lon="4.44603">
        <ele>627.8</ele>
        <time>2025-09-07T15:42:27Z</time>
      </trkpt>
      <trkpt lat="46.16096" lon="4.44603">
        <ele>627.8</ele>
        <time>2025-09-07T15:42:28Z</time>
      </trkpt>
      <trkpt lat="46.16093" lon="4.44603">
        <ele>627.8</ele>
        <time>2025-09-07T15:42:29Z</time>
      </trkpt>
      <trkpt lat="46.16091" lon="4.44603">
        <ele>627.4</ele>
        <time>2025-09-07T15:42:30Z</time>
      </trkpt>
      <trkpt lat="46.16091" lon="4.44603">
        <ele>626.8</ele>
        <time>2025-09-07T15:42:31Z</time>
      </trkpt>
      <trkpt lat="46.16089" lon="4.44603">
        <ele>627.4</ele>
        <time>2025-09-07T15:42:32Z</time>
      </trkpt>
      <trkpt lat="46.16087" lon="4.44603">
        <ele>626.8</ele>
        <time>2025-09-07T15:42:33Z</time>
      </trkpt>
      <trkpt lat="46.16083" lon="4.44603">
        <ele>626.8</ele>
        <time>2025-09-07T15:42:34Z</time>
      </trkpt>
      <trkpt lat="46.1608" lon="4.44602">
        <ele>626.8</ele>
        <time>2025-09-07T15:42:35Z</time>
      </trkpt>
      <trkpt lat="46.16078" lon="4.44602">
        <ele>626.8</ele>
        <time>2025-09-07T15:42:36Z</time>
      </trkpt>
      <trkpt lat="46.16076" lon="4.44602">
        <ele>626.8</ele>
        <time>2025-09-07T15:42:37Z</time>
      </trkpt>
      <trkpt lat="46.16073" lon="4.44602">
        <ele>627.2</ele>
        <time>2025-09-07T15:42:38Z</time>
      </trkpt>
      <trkpt lat="46.16071" lon="4.44602">
        <ele>627.2</ele>
        <time>2025-09-07T15:42:39Z</time>
      </trkpt>
      <trkpt lat="46.16068" lon="4.44602">
        <ele>626.6</ele>
        <time>2025-09-07T15:42:40Z</time>
      </trkpt>
      <trkpt lat="46.16065" lon="4.44602">
        <ele>626.2</ele>
        <time>2025-09-07T15:42:41Z</time>
      </trkpt>
      <trkpt lat="46.16062" lon="4.44602">
        <ele>626.2</ele>
        <time>2025-09-07T15:42:42Z</time>
      </trkpt>
      <trkpt lat="46.16058" lon="4.44601">
        <ele>626.2</ele>
        <time>2025-09-07T15:42:43Z</time>
      </trkpt>
      <trkpt lat="46.16055" lon="4.446">
        <ele>627</ele>
        <time>2025-09-07T15:42:44Z</time>
      </trkpt>
      <trkpt lat="46.16052" lon="4.44599">
        <ele>626.8</ele>
        <time>2025-09-07T15:42:45Z</time>
      </trkpt>
      <trkpt lat="46.16049" lon="4.44598">
        <ele>626.6</ele>
        <time>2025-09-07T15:42:46Z</time>
      </trkpt>
      <trkpt lat="46.16046" lon="4.44597">
        <ele>626.2</ele>
        <time>2025-09-07T15:42:47Z</time>
      </trkpt>
      <trkpt lat="46.16044" lon="4.44596">
        <ele>626.2</ele>
        <time>2025-09-07T15:42:48Z</time>
      </trkpt>
      <trkpt lat="46.16042" lon="4.44595">
        <ele>626.2</ele>
        <time>2025-09-07T15:42:49Z</time>
      </trkpt>
      <trkpt lat="46.1604" lon="4.44595">
        <ele>625.6</ele>
        <time>2025-09-07T15:42:50Z</time>
      </trkpt>
      <trkpt lat="46.16037" lon="4.44596">
        <ele>625.6</ele>
        <time>2025-09-07T15:42:51Z</time>
      </trkpt>
      <trkpt lat="46.16034" lon="4.44597">
        <ele>624.8</ele>
        <time>2025-09-07T15:42:52Z</time>
      </trkpt>
      <trkpt lat="46.16031" lon="4.44598">
        <ele>624.8</ele>
        <time>2025-09-07T15:42:53Z</time>
      </trkpt>
      <trkpt lat="46.16028" lon="4.44598">
        <ele>624.4</ele>
        <time>2025-09-07T15:42:54Z</time>
      </trkpt>
      <trkpt lat="46.16025" lon="4.44597">
        <ele>624.4</ele>
        <time>2025-09-07T15:42:55Z</time>
      </trkpt>
      <trkpt lat="46.16022" lon="4.44597">
        <ele>624.4</ele>
        <time>2025-09-07T15:42:56Z</time>
      </trkpt>
      <trkpt lat="46.16019" lon="4.44597">
        <ele>624.8</ele>
        <time>2025-09-07T15:42:57Z</time>
      </trkpt>
      <trkpt lat="46.16017" lon="4.44597">
        <ele>624.6</ele>
        <time>2025-09-07T15:42:58Z</time>
      </trkpt>
      <trkpt lat="46.16016" lon="4.44598">
        <ele>624.2</ele>
        <time>2025-09-07T15:42:59Z</time>
      </trkpt>
      <trkpt lat="46.16014" lon="4.44599">
        <ele>624</ele>
        <time>2025-09-07T15:43:00Z</time>
      </trkpt>
      <trkpt lat="46.16012" lon="4.44602">
        <ele>624</ele>
        <time>2025-09-07T15:43:01Z</time>
      </trkpt>
      <trkpt lat="46.16009" lon="4.44606">
        <ele>623.6</ele>
        <time>2025-09-07T15:43:02Z</time>
      </trkpt>
      <trkpt lat="46.16006" lon="4.44613">
        <ele>623.4</ele>
        <time>2025-09-07T15:43:03Z</time>
      </trkpt>
      <trkpt lat="46.16004" lon="4.44618">
        <ele>623</ele>
        <time>2025-09-07T15:43:04Z</time>
      </trkpt>
      <trkpt lat="46.16001" lon="4.44622">
        <ele>623.2</ele>
        <time>2025-09-07T15:43:05Z</time>
      </trkpt>
      <trkpt lat="46.16" lon="4.44626">
        <ele>622.8</ele>
        <time>2025-09-07T15:43:06Z</time>
      </trkpt>
      <trkpt lat="46.15998" lon="4.44628">
        <ele>622.4</ele>
        <time>2025-09-07T15:43:07Z</time>
      </trkpt>
      <trkpt lat="46.15996" lon="4.4463">
        <ele>622.2</ele>
        <time>2025-09-07T15:43:08Z</time>
      </trkpt>
      <trkpt lat="46.15995" lon="4.44632">
        <ele>622.4</ele>
        <time>2025-09-07T15:43:09Z</time>
      </trkpt>
      <trkpt lat="46.15993" lon="4.44633">
        <ele>622.2</ele>
        <time>2025-09-07T15:43:10Z</time>
      </trkpt>
      <trkpt lat="46.15991" lon="4.44635">
        <ele>622.2</ele>
        <time>2025-09-07T15:43:11Z</time>
      </trkpt>
      <trkpt lat="46.1599" lon="4.44637">
        <ele>622</ele>
        <time>2025-09-07T15:43:12Z</time>
      </trkpt>
      <trkpt lat="46.15988" lon="4.4464">
        <ele>621.6</ele>
        <time>2025-09-07T15:43:13Z</time>
      </trkpt>
      <trkpt lat="46.15986" lon="4.44642">
        <ele>621</ele>
        <time>2025-09-07T15:43:14Z</time>
      </trkpt>
      <trkpt lat="46.15984" lon="4.44645">
        <ele>621</ele>
        <time>2025-09-07T15:43:15Z</time>
      </trkpt>
      <trkpt lat="46.15981" lon="4.44648">
        <ele>621</ele>
        <time>2025-09-07T15:43:16Z</time>
      </trkpt>
      <trkpt lat="46.15978" lon="4.44651">
        <ele>621</ele>
        <time>2025-09-07T15:43:17Z</time>
      </trkpt>
      <trkpt lat="46.15976" lon="4.44655">
        <ele>620.6</ele>
        <time>2025-09-07T15:43:18Z</time>
      </trkpt>
      <trkpt lat="46.15973" lon="4.44658">
        <ele>620.6</ele>
        <time>2025-09-07T15:43:19Z</time>
      </trkpt>
      <trkpt lat="46.15969" lon="4.44658">
        <ele>620.4</ele>
        <time>2025-09-07T15:43:20Z</time>
      </trkpt>
      <trkpt lat="46.15965" lon="4.4466">
        <ele>620.4</ele>
        <time>2025-09-07T15:43:21Z</time>
      </trkpt>
      <trkpt lat="46.1596" lon="4.44661">
        <ele>620.4</ele>
        <time>2025-09-07T15:43:22Z</time>
      </trkpt>
      <trkpt lat="46.15956" lon="4.44663">
        <ele>620.4</ele>
        <time>2025-09-07T15:43:23Z</time>
      </trkpt>
      <trkpt lat="46.15952" lon="4.44663">
        <ele>620.4</ele>
        <time>2025-09-07T15:43:24Z</time>
      </trkpt>
      <trkpt lat="46.15947" lon="4.44664">
        <ele>620.4</ele>
        <time>2025-09-07T15:43:25Z</time>
      </trkpt>
      <trkpt lat="46.15943" lon="4.44665">
        <ele>620</ele>
        <time>2025-09-07T15:43:26Z</time>
      </trkpt>
      <trkpt lat="46.15939" lon="4.44667">
        <ele>620.4</ele>
        <time>2025-09-07T15:43:27Z</time>
      </trkpt>
      <trkpt lat="46.15936" lon="4.44669">
        <ele>620.4</ele>
        <time>2025-09-07T15:43:28Z</time>
      </trkpt>
      <trkpt lat="46.15932" lon="4.44671">
        <ele>620.8</ele>
        <time>2025-09-07T15:43:29Z</time>
      </trkpt>
      <trkpt lat="46.15929" lon="4.44673">
        <ele>621.2</ele>
        <time>2025-09-07T15:43:30Z</time>
      </trkpt>
      <trkpt lat="46.15927" lon="4.44675">
        <ele>621.6</ele>
        <time>2025-09-07T15:43:31Z</time>
      </trkpt>
      <trkpt lat="46.15924" lon="4.44677">
        <ele>621.6</ele>
        <time>2025-09-07T15:43:32Z</time>
      </trkpt>
      <trkpt lat="46.15922" lon="4.44677">
        <ele>621.6</ele>
        <time>2025-09-07T15:43:33Z</time>
      </trkpt>
      <trkpt lat="46.15919" lon="4.44677">
        <ele>622</ele>
        <time>2025-09-07T15:43:34Z</time>
      </trkpt>
      <trkpt lat="46.15917" lon="4.44679">
        <ele>622.2</ele>
        <time>2025-09-07T15:43:35Z</time>
      </trkpt>
      <trkpt lat="46.15916" lon="4.4468">
        <ele>622.2</ele>
        <time>2025-09-07T15:43:36Z</time>
      </trkpt>
      <trkpt lat="46.15914" lon="4.44681">
        <ele>622.8</ele>
        <time>2025-09-07T15:43:37Z</time>
      </trkpt>
      <trkpt lat="46.15913" lon="4.44683">
        <ele>622.8</ele>
        <time>2025-09-07T15:43:38Z</time>
      </trkpt>
      <trkpt lat="46.15912" lon="4.44684">
        <ele>623</ele>
        <time>2025-09-07T15:43:39Z</time>
      </trkpt>
      <trkpt lat="46.15911" lon="4.44686">
        <ele>623.4</ele>
        <time>2025-09-07T15:43:40Z</time>
      </trkpt>
      <trkpt lat="46.1591" lon="4.44687">
        <ele>623.8</ele>
        <time>2025-09-07T15:43:41Z</time>
      </trkpt>
      <trkpt lat="46.15909" lon="4.44688">
        <ele>624.2</ele>
        <time>2025-09-07T15:43:42Z</time>
      </trkpt>
      <trkpt lat="46.15908" lon="4.4469">
        <ele>624.2</ele>
        <time>2025-09-07T15:43:43Z</time>
      </trkpt>
      <trkpt lat="46.15907" lon="4.44692">
        <ele>624.4</ele>
        <time>2025-09-07T15:43:44Z</time>
      </trkpt>
      <trkpt lat="46.15906" lon="4.44694">
        <ele>624.4</ele>
        <time>2025-09-07T15:43:45Z</time>
      </trkpt>
      <trkpt lat="46.15904" lon="4.44696">
        <ele>624.8</ele>
        <time>2025-09-07T15:43:46Z</time>
      </trkpt>
      <trkpt lat="46.15903" lon="4.44697">
        <ele>624.8</ele>
        <time>2025-09-07T15:43:47Z</time>
      </trkpt>
      <trkpt lat="46.15901" lon="4.44699">
        <ele>625</ele>
        <time>2025-09-07T15:43:48Z</time>
      </trkpt>
      <trkpt lat="46.159" lon="4.44701">
        <ele>625</ele>
        <time>2025-09-07T15:43:49Z</time>
      </trkpt>
      <trkpt lat="46.15899" lon="4.44702">
        <ele>625</ele>
        <time>2025-09-07T15:43:50Z</time>
      </trkpt>
      <trkpt lat="46.15898" lon="4.44704">
        <ele>625.2</ele>
        <time>2025-09-07T15:43:51Z</time>
      </trkpt>
      <trkpt lat="46.15897" lon="4.44706">
        <ele>625.2</ele>
        <time>2025-09-07T15:43:52Z</time>
      </trkpt>
      <trkpt lat="46.15896" lon="4.44708">
        <ele>625.6</ele>
        <time>2025-09-07T15:43:53Z</time>
      </trkpt>
      <trkpt lat="46.15895" lon="4.4471">
        <ele>625.6</ele>
        <time>2025-09-07T15:43:54Z</time>
      </trkpt>
      <trkpt lat="46.15894" lon="4.44712">
        <ele>625.8</ele>
        <time>2025-09-07T15:43:55Z</time>
      </trkpt>
      <trkpt lat="46.15893" lon="4.44714">
        <ele>625.8</ele>
        <time>2025-09-07T15:43:56Z</time>
      </trkpt>
      <trkpt lat="46.15892" lon="4.44716">
        <ele>626.2</ele>
        <time>2025-09-07T15:43:57Z</time>
      </trkpt>
      <trkpt lat="46.15891" lon="4.44717">
        <ele>626.4</ele>
        <time>2025-09-07T15:43:58Z</time>
      </trkpt>
      <trkpt lat="46.15889" lon="4.44719">
        <ele>626.4</ele>
        <time>2025-09-07T15:43:59Z</time>
      </trkpt>
      <trkpt lat="46.15888" lon="4.44721">
        <ele>626.4</ele>
        <time>2025-09-07T15:44:00Z</time>
      </trkpt>
      <trkpt lat="46.15887" lon="4.44723">
        <ele>626.6</ele>
        <time>2025-09-07T15:44:01Z</time>
      </trkpt>
      <trkpt lat="46.15886" lon="4.44725">
        <ele>626.6</ele>
        <time>2025-09-07T15:44:02Z</time>
      </trkpt>
      <trkpt lat="46.15885" lon="4.44727">
        <ele>626.6</ele>
        <time>2025-09-07T15:44:03Z</time>
      </trkpt>
      <trkpt lat="46.15884" lon="4.4473">
        <ele>626.6</ele>
        <time>2025-09-07T15:44:04Z</time>
      </trkpt>
      <trkpt lat="46.15883" lon="4.44732">
        <ele>627</ele>
        <time>2025-09-07T15:44:05Z</time>
      </trkpt>
      <trkpt lat="46.15883" lon="4.44735">
        <ele>627</ele>
        <time>2025-09-07T15:44:06Z</time>
      </trkpt>
      <trkpt lat="46.15882" lon="4.44737">
        <ele>627.2</ele>
        <time>2025-09-07T15:44:07Z</time>
      </trkpt>
      <trkpt lat="46.15881" lon="4.4474">
        <ele>627.2</ele>
        <time>2025-09-07T15:44:08Z</time>
      </trkpt>
      <trkpt lat="46.1588" lon="4.44742">
        <ele>627.2</ele>
        <time>2025-09-07T15:44:09Z</time>
      </trkpt>
      <trkpt lat="46.15879" lon="4.44744">
        <ele>627.2</ele>
        <time>2025-09-07T15:44:10Z</time>
      </trkpt>
      <trkpt lat="46.15879" lon="4.44747">
        <ele>627.6</ele>
        <time>2025-09-07T15:44:11Z</time>
      </trkpt>
      <trkpt lat="46.15878" lon="4.44749">
        <ele>627.8</ele>
        <time>2025-09-07T15:44:12Z</time>
      </trkpt>
      <trkpt lat="46.15877" lon="4.44752">
        <ele>627.8</ele>
        <time>2025-09-07T15:44:13Z</time>
      </trkpt>
      <trkpt lat="46.15877" lon="4.44754">
        <ele>627.8</ele>
        <time>2025-09-07T15:44:14Z</time>
      </trkpt>
      <trkpt lat="46.15876" lon="4.44757">
        <ele>627.8</ele>
        <time>2025-09-07T15:44:15Z</time>
      </trkpt>
      <trkpt lat="46.15876" lon="4.44759">
        <ele>627.8</ele>
        <time>2025-09-07T15:44:16Z</time>
      </trkpt>
      <trkpt lat="46.15875" lon="4.44762">
        <ele>628.2</ele>
        <time>2025-09-07T15:44:17Z</time>
      </trkpt>
      <trkpt lat="46.15875" lon="4.44764">
        <ele>628.2</ele>
        <time>2025-09-07T15:44:18Z</time>
      </trkpt>
      <trkpt lat="46.15875" lon="4.44766">
        <ele>628.2</ele>
        <time>2025-09-07T15:44:19Z</time>
      </trkpt>
      <trkpt lat="46.15874" lon="4.44769">
        <ele>628.2</ele>
        <time>2025-09-07T15:44:20Z</time>
      </trkpt>
      <trkpt lat="46.15873" lon="4.44771">
        <ele>628.6</ele>
        <time>2025-09-07T15:44:21Z</time>
      </trkpt>
      <trkpt lat="46.15873" lon="4.44773">
        <ele>628.6</ele>
        <time>2025-09-07T15:44:22Z</time>
      </trkpt>
      <trkpt lat="46.15872" lon="4.44776">
        <ele>628.6</ele>
        <time>2025-09-07T15:44:23Z</time>
      </trkpt>
      <trkpt lat="46.15871" lon="4.44778">
        <ele>628.6</ele>
        <time>2025-09-07T15:44:24Z</time>
      </trkpt>
      <trkpt lat="46.1587" lon="4.4478">
        <ele>628.8</ele>
        <time>2025-09-07T15:44:25Z</time>
      </trkpt>
      <trkpt lat="46.1587" lon="4.44783">
        <ele>628.8</ele>
        <time>2025-09-07T15:44:26Z</time>
      </trkpt>
      <trkpt lat="46.15869" lon="4.44785">
        <ele>629.2</ele>
        <time>2025-09-07T15:44:27Z</time>
      </trkpt>
      <trkpt lat="46.15869" lon="4.44788">
        <ele>629.2</ele>
        <time>2025-09-07T15:44:28Z</time>
      </trkpt>
      <trkpt lat="46.15868" lon="4.4479">
        <ele>629.2</ele>
        <time>2025-09-07T15:44:29Z</time>
      </trkpt>
      <trkpt lat="46.15867" lon="4.44793">
        <ele>629.2</ele>
        <time>2025-09-07T15:44:30Z</time>
      </trkpt>
      <trkpt lat="46.15866" lon="4.44795">
        <ele>629.2</ele>
        <time>2025-09-07T15:44:31Z</time>
      </trkpt>
      <trkpt lat="46.15864" lon="4.44797">
        <ele>629.2</ele>
        <time>2025-09-07T15:44:32Z</time>
      </trkpt>
      <trkpt lat="46.15862" lon="4.448">
        <ele>629.2</ele>
        <time>2025-09-07T15:44:33Z</time>
      </trkpt>
      <trkpt lat="46.1586" lon="4.44803">
        <ele>629.2</ele>
        <time>2025-09-07T15:44:34Z</time>
      </trkpt>
      <trkpt lat="46.15858" lon="4.44806">
        <ele>629.2</ele>
        <time>2025-09-07T15:44:35Z</time>
      </trkpt>
      <trkpt lat="46.15857" lon="4.44809">
        <ele>629.2</ele>
        <time>2025-09-07T15:44:36Z</time>
      </trkpt>
      <trkpt lat="46.15855" lon="4.44813">
        <ele>629.2</ele>
        <time>2025-09-07T15:44:37Z</time>
      </trkpt>
      <trkpt lat="46.15853" lon="4.44817">
        <ele>628.8</ele>
        <time>2025-09-07T15:44:38Z</time>
      </trkpt>
      <trkpt lat="46.1585" lon="4.44821">
        <ele>628.8</ele>
        <time>2025-09-07T15:44:39Z</time>
      </trkpt>
      <trkpt lat="46.15848" lon="4.44825">
        <ele>628.4</ele>
        <time>2025-09-07T15:44:40Z</time>
      </trkpt>
      <trkpt lat="46.15845" lon="4.44829">
        <ele>627.8</ele>
        <time>2025-09-07T15:44:41Z</time>
      </trkpt>
      <trkpt lat="46.1584" lon="4.44834">
        <ele>627.4</ele>
        <time>2025-09-07T15:44:42Z</time>
      </trkpt>
      <trkpt lat="46.15835" lon="4.44838">
        <ele>626.8</ele>
        <time>2025-09-07T15:44:43Z</time>
      </trkpt>
      <trkpt lat="46.15829" lon="4.44842">
        <ele>626.4</ele>
        <time>2025-09-07T15:44:44Z</time>
      </trkpt>
      <trkpt lat="46.15824" lon="4.44848">
        <ele>626.2</ele>
        <time>2025-09-07T15:44:45Z</time>
      </trkpt>
      <trkpt lat="46.15819" lon="4.44853">
        <ele>625.6</ele>
        <time>2025-09-07T15:44:46Z</time>
      </trkpt>
      <trkpt lat="46.15816" lon="4.44861">
        <ele>625.6</ele>
        <time>2025-09-07T15:44:47Z</time>
      </trkpt>
      <trkpt lat="46.15812" lon="4.44868">
        <ele>625.4</ele>
        <time>2025-09-07T15:44:48Z</time>
      </trkpt>
      <trkpt lat="46.15808" lon="4.44876">
        <ele>625.4</ele>
        <time>2025-09-07T15:44:49Z</time>
      </trkpt>
      <trkpt lat="46.15805" lon="4.44883">
        <ele>625.4</ele>
        <time>2025-09-07T15:44:50Z</time>
      </trkpt>
      <trkpt lat="46.15801" lon="4.44891">
        <ele>625</ele>
        <time>2025-09-07T15:44:51Z</time>
      </trkpt>
      <trkpt lat="46.15799" lon="4.44897">
        <ele>625</ele>
        <time>2025-09-07T15:44:52Z</time>
      </trkpt>
      <trkpt lat="46.15795" lon="4.44904">
        <ele>624.6</ele>
        <time>2025-09-07T15:44:53Z</time>
      </trkpt>
      <trkpt lat="46.15791" lon="4.4491">
        <ele>624.6</ele>
        <time>2025-09-07T15:44:54Z</time>
      </trkpt>
      <trkpt lat="46.15789" lon="4.44916">
        <ele>624.4</ele>
        <time>2025-09-07T15:44:55Z</time>
      </trkpt>
      <trkpt lat="46.15785" lon="4.44921">
        <ele>624.4</ele>
        <time>2025-09-07T15:44:56Z</time>
      </trkpt>
      <trkpt lat="46.15781" lon="4.44927">
        <ele>624.4</ele>
        <time>2025-09-07T15:44:57Z</time>
      </trkpt>
      <trkpt lat="46.15778" lon="4.44934">
        <ele>624.4</ele>
        <time>2025-09-07T15:44:58Z</time>
      </trkpt>
      <trkpt lat="46.15771" lon="4.44946">
        <ele>624.4</ele>
        <time>2025-09-07T15:44:59Z</time>
      </trkpt>
      <trkpt lat="46.15767" lon="4.44953">
        <ele>624</ele>
        <time>2025-09-07T15:45:00Z</time>
      </trkpt>
      <trkpt lat="46.15764" lon="4.4496">
        <ele>623.8</ele>
        <time>2025-09-07T15:45:01Z</time>
      </trkpt>
      <trkpt lat="46.1576" lon="4.44969">
        <ele>623.6</ele>
        <time>2025-09-07T15:45:02Z</time>
      </trkpt>
      <trkpt lat="46.15757" lon="4.44979">
        <ele>623</ele>
        <time>2025-09-07T15:45:03Z</time>
      </trkpt>
      <trkpt lat="46.15756" lon="4.4499">
        <ele>622.8</ele>
        <time>2025-09-07T15:45:04Z</time>
      </trkpt>
      <trkpt lat="46.15754" lon="4.45002">
        <ele>622.2</ele>
        <time>2025-09-07T15:45:05Z</time>
      </trkpt>
      <trkpt lat="46.1575" lon="4.45014">
        <ele>621.4</ele>
        <time>2025-09-07T15:45:06Z</time>
      </trkpt>
      <trkpt lat="46.15747" lon="4.45026">
        <ele>620.6</ele>
        <time>2025-09-07T15:45:07Z</time>
      </trkpt>
      <trkpt lat="46.15742" lon="4.45037">
        <ele>620</ele>
        <time>2025-09-07T15:45:08Z</time>
      </trkpt>
      <trkpt lat="46.15737" lon="4.45049">
        <ele>619.4</ele>
        <time>2025-09-07T15:45:09Z</time>
      </trkpt>
      <trkpt lat="46.15733" lon="4.4506">
        <ele>618.8</ele>
        <time>2025-09-07T15:45:10Z</time>
      </trkpt>
      <trkpt lat="46.15728" lon="4.45071">
        <ele>618.6</ele>
        <time>2025-09-07T15:45:11Z</time>
      </trkpt>
      <trkpt lat="46.15723" lon="4.45082">
        <ele>617.8</ele>
        <time>2025-09-07T15:45:12Z</time>
      </trkpt>
      <trkpt lat="46.15719" lon="4.45093">
        <ele>617.8</ele>
        <time>2025-09-07T15:45:13Z</time>
      </trkpt>
      <trkpt lat="46.15715" lon="4.45103">
        <ele>617.8</ele>
        <time>2025-09-07T15:45:14Z</time>
      </trkpt>
      <trkpt lat="46.1571" lon="4.45113">
        <ele>617.8</ele>
        <time>2025-09-07T15:45:15Z</time>
      </trkpt>
      <trkpt lat="46.15706" lon="4.45121">
        <ele>618</ele>
        <time>2025-09-07T15:45:16Z</time>
      </trkpt>
      <trkpt lat="46.157" lon="4.45127">
        <ele>618</ele>
        <time>2025-09-07T15:45:17Z</time>
      </trkpt>
      <trkpt lat="46.15695" lon="4.45134">
        <ele>618.2</ele>
        <time>2025-09-07T15:45:18Z</time>
      </trkpt>
      <trkpt lat="46.15691" lon="4.45138">
        <ele>618.2</ele>
        <time>2025-09-07T15:45:19Z</time>
      </trkpt>
      <trkpt lat="46.15686" lon="4.45141">
        <ele>618.4</ele>
        <time>2025-09-07T15:45:20Z</time>
      </trkpt>
      <trkpt lat="46.15682" lon="4.45144">
        <ele>618.8</ele>
        <time>2025-09-07T15:45:21Z</time>
      </trkpt>
      <trkpt lat="46.15677" lon="4.45149">
        <ele>618.8</ele>
        <time>2025-09-07T15:45:22Z</time>
      </trkpt>
      <trkpt lat="46.15672" lon="4.45154">
        <ele>619.2</ele>
        <time>2025-09-07T15:45:23Z</time>
      </trkpt>
      <trkpt lat="46.15668" lon="4.45158">
        <ele>619.6</ele>
        <time>2025-09-07T15:45:24Z</time>
      </trkpt>
      <trkpt lat="46.15664" lon="4.45163">
        <ele>619.6</ele>
        <time>2025-09-07T15:45:25Z</time>
      </trkpt>
      <trkpt lat="46.15659" lon="4.45168">
        <ele>619.8</ele>
        <time>2025-09-07T15:45:26Z</time>
      </trkpt>
      <trkpt lat="46.15656" lon="4.45172">
        <ele>619.8</ele>
        <time>2025-09-07T15:45:27Z</time>
      </trkpt>
      <trkpt lat="46.15653" lon="4.45176">
        <ele>620.4</ele>
        <time>2025-09-07T15:45:28Z</time>
      </trkpt>
      <trkpt lat="46.15649" lon="4.45181">
        <ele>620.8</ele>
        <time>2025-09-07T15:45:29Z</time>
      </trkpt>
      <trkpt lat="46.15646" lon="4.45185">
        <ele>621.2</ele>
        <time>2025-09-07T15:45:30Z</time>
      </trkpt>
      <trkpt lat="46.15643" lon="4.45189">
        <ele>621.6</ele>
        <time>2025-09-07T15:45:31Z</time>
      </trkpt>
      <trkpt lat="46.1564" lon="4.45193">
        <ele>622</ele>
        <time>2025-09-07T15:45:32Z</time>
      </trkpt>
      <trkpt lat="46.15637" lon="4.45198">
        <ele>622.2</ele>
        <time>2025-09-07T15:45:33Z</time>
      </trkpt>
      <trkpt lat="46.15634" lon="4.45202">
        <ele>622.2</ele>
        <time>2025-09-07T15:45:34Z</time>
      </trkpt>
      <trkpt lat="46.15632" lon="4.45206">
        <ele>622.4</ele>
        <time>2025-09-07T15:45:35Z</time>
      </trkpt>
      <trkpt lat="46.1563" lon="4.4521">
        <ele>622.4</ele>
        <time>2025-09-07T15:45:36Z</time>
      </trkpt>
      <trkpt lat="46.15626" lon="4.45215">
        <ele>622.4</ele>
        <time>2025-09-07T15:45:37Z</time>
      </trkpt>
      <trkpt lat="46.15622" lon="4.45219">
        <ele>622.8</ele>
        <time>2025-09-07T15:45:38Z</time>
      </trkpt>
      <trkpt lat="46.15619" lon="4.45224">
        <ele>622.8</ele>
        <time>2025-09-07T15:45:39Z</time>
      </trkpt>
      <trkpt lat="46.15616" lon="4.45229">
        <ele>622.8</ele>
        <time>2025-09-07T15:45:40Z</time>
      </trkpt>
      <trkpt lat="46.15614" lon="4.45235">
        <ele>622.8</ele>
        <time>2025-09-07T15:45:41Z</time>
      </trkpt>
      <trkpt lat="46.1561" lon="4.45239">
        <ele>623</ele>
        <time>2025-09-07T15:45:42Z</time>
      </trkpt>
      <trkpt lat="46.15607" lon="4.45244">
        <ele>623</ele>
        <time>2025-09-07T15:45:43Z</time>
      </trkpt>
      <trkpt lat="46.15603" lon="4.45248">
        <ele>623</ele>
        <time>2025-09-07T15:45:44Z</time>
      </trkpt>
      <trkpt lat="46.15598" lon="4.4525">
        <ele>623</ele>
        <time>2025-09-07T15:45:45Z</time>
      </trkpt>
      <trkpt lat="46.15594" lon="4.45252">
        <ele>623</ele>
        <time>2025-09-07T15:45:46Z</time>
      </trkpt>
      <trkpt lat="46.15589" lon="4.45254">
        <ele>623</ele>
        <time>2025-09-07T15:45:47Z</time>
      </trkpt>
      <trkpt lat="46.15583" lon="4.45257">
        <ele>622.6</ele>
        <time>2025-09-07T15:45:48Z</time>
      </trkpt>
      <trkpt lat="46.15576" lon="4.4526">
        <ele>622.2</ele>
        <time>2025-09-07T15:45:49Z</time>
      </trkpt>
      <trkpt lat="46.15569" lon="4.45263">
        <ele>621.6</ele>
        <time>2025-09-07T15:45:50Z</time>
      </trkpt>
      <trkpt lat="46.15562" lon="4.45267">
        <ele>620.8</ele>
        <time>2025-09-07T15:45:51Z</time>
      </trkpt>
      <trkpt lat="46.15562" lon="4.45267">
        <ele>620.2</ele>
        <time>2025-09-07T15:45:52Z</time>
      </trkpt>
      <trkpt lat="46.15555" lon="4.45271">
        <ele>619.6</ele>
        <time>2025-09-07T15:45:53Z</time>
      </trkpt>
      <trkpt lat="46.15546" lon="4.45278">
        <ele>619.2</ele>
        <time>2025-09-07T15:45:54Z</time>
      </trkpt>
      <trkpt lat="46.15538" lon="4.45283">
        <ele>618.4</ele>
        <time>2025-09-07T15:45:55Z</time>
      </trkpt>
      <trkpt lat="46.15529" lon="4.45288">
        <ele>617.8</ele>
        <time>2025-09-07T15:45:56Z</time>
      </trkpt>
      <trkpt lat="46.15521" lon="4.45294">
        <ele>617.4</ele>
        <time>2025-09-07T15:45:57Z</time>
      </trkpt>
      <trkpt lat="46.15513" lon="4.453">
        <ele>616.8</ele>
        <time>2025-09-07T15:45:58Z</time>
      </trkpt>
      <trkpt lat="46.15504" lon="4.45305">
        <ele>616.6</ele>
        <time>2025-09-07T15:45:59Z</time>
      </trkpt>
      <trkpt lat="46.15497" lon="4.45309">
        <ele>616.2</ele>
        <time>2025-09-07T15:46:00Z</time>
      </trkpt>
      <trkpt lat="46.15489" lon="4.45313">
        <ele>615.8</ele>
        <time>2025-09-07T15:46:01Z</time>
      </trkpt>
      <trkpt lat="46.15486" lon="4.45313">
        <ele>615.6</ele>
        <time>2025-09-07T15:46:02Z</time>
      </trkpt>
      <trkpt lat="46.1548" lon="4.45316">
        <ele>615.2</ele>
        <time>2025-09-07T15:46:03Z</time>
      </trkpt>
      <trkpt lat="46.15474" lon="4.4532">
        <ele>614.6</ele>
        <time>2025-09-07T15:46:04Z</time>
      </trkpt>
      <trkpt lat="46.15468" lon="4.45324">
        <ele>614.2</ele>
        <time>2025-09-07T15:46:05Z</time>
      </trkpt>
      <trkpt lat="46.15462" lon="4.4533">
        <ele>613.6</ele>
        <time>2025-09-07T15:46:06Z</time>
      </trkpt>
      <trkpt lat="46.15456" lon="4.45336">
        <ele>613</ele>
        <time>2025-09-07T15:46:07Z</time>
      </trkpt>
      <trkpt lat="46.1545" lon="4.45344">
        <ele>612.8</ele>
        <time>2025-09-07T15:46:08Z</time>
      </trkpt>
      <trkpt lat="46.15444" lon="4.4535">
        <ele>612.4</ele>
        <time>2025-09-07T15:46:09Z</time>
      </trkpt>
      <trkpt lat="46.15439" lon="4.45356">
        <ele>612.4</ele>
        <time>2025-09-07T15:46:10Z</time>
      </trkpt>
      <trkpt lat="46.15434" lon="4.45363">
        <ele>612.2</ele>
        <time>2025-09-07T15:46:11Z</time>
      </trkpt>
      <trkpt lat="46.1543" lon="4.45366">
        <ele>612.2</ele>
        <time>2025-09-07T15:46:12Z</time>
      </trkpt>
      <trkpt lat="46.15427" lon="4.45368">
        <ele>612.2</ele>
        <time>2025-09-07T15:46:13Z</time>
      </trkpt>
      <trkpt lat="46.15424" lon="4.45368">
        <ele>612.2</ele>
        <time>2025-09-07T15:46:14Z</time>
      </trkpt>
      <trkpt lat="46.1542" lon="4.45364">
        <ele>612.2</ele>
        <time>2025-09-07T15:46:15Z</time>
      </trkpt>
      <trkpt lat="46.15418" lon="4.45361">
        <ele>611.6</ele>
        <time>2025-09-07T15:46:16Z</time>
      </trkpt>
      <trkpt lat="46.15415" lon="4.45356">
        <ele>611.4</ele>
        <time>2025-09-07T15:46:17Z</time>
      </trkpt>
      <trkpt lat="46.15411" lon="4.4535">
        <ele>611</ele>
        <time>2025-09-07T15:46:18Z</time>
      </trkpt>
      <trkpt lat="46.15406" lon="4.45343">
        <ele>610.4</ele>
        <time>2025-09-07T15:46:19Z</time>
      </trkpt>
      <trkpt lat="46.15402" lon="4.45336">
        <ele>610</ele>
        <time>2025-09-07T15:46:20Z</time>
      </trkpt>
      <trkpt lat="46.15399" lon="4.45329">
        <ele>609.4</ele>
        <time>2025-09-07T15:46:21Z</time>
      </trkpt>
      <trkpt lat="46.15396" lon="4.45326">
        <ele>608.6</ele>
        <time>2025-09-07T15:46:22Z</time>
      </trkpt>
      <trkpt lat="46.15392" lon="4.45321">
        <ele>608</ele>
        <time>2025-09-07T15:46:23Z</time>
      </trkpt>
      <trkpt lat="46.15389" lon="4.45315">
        <ele>607.4</ele>
        <time>2025-09-07T15:46:24Z</time>
      </trkpt>
      <trkpt lat="46.15384" lon="4.4531">
        <ele>606.8</ele>
        <time>2025-09-07T15:46:25Z</time>
      </trkpt>
      <trkpt lat="46.15379" lon="4.45307">
        <ele>605.8</ele>
        <time>2025-09-07T15:46:26Z</time>
      </trkpt>
      <trkpt lat="46.15374" lon="4.45303">
        <ele>605</ele>
        <time>2025-09-07T15:46:27Z</time>
      </trkpt>
      <trkpt lat="46.15369" lon="4.453">
        <ele>604</ele>
        <time>2025-09-07T15:46:28Z</time>
      </trkpt>
      <trkpt lat="46.15363" lon="4.45295">
        <ele>603.2</ele>
        <time>2025-09-07T15:46:29Z</time>
      </trkpt>
      <trkpt lat="46.15357" lon="4.45291">
        <ele>602.4</ele>
        <time>2025-09-07T15:46:30Z</time>
      </trkpt>
      <trkpt lat="46.15351" lon="4.45289">
        <ele>601.6</ele>
        <time>2025-09-07T15:46:31Z</time>
      </trkpt>
      <trkpt lat="46.15346" lon="4.45286">
        <ele>601.2</ele>
        <time>2025-09-07T15:46:32Z</time>
      </trkpt>
      <trkpt lat="46.15339" lon="4.45282">
        <ele>601.2</ele>
        <time>2025-09-07T15:46:33Z</time>
      </trkpt>
      <trkpt lat="46.15333" lon="4.45278">
        <ele>600.6</ele>
        <time>2025-09-07T15:46:34Z</time>
      </trkpt>
      <trkpt lat="46.15328" lon="4.45275">
        <ele>599.8</ele>
        <time>2025-09-07T15:46:35Z</time>
      </trkpt>
      <trkpt lat="46.15322" lon="4.45272">
        <ele>599</ele>
        <time>2025-09-07T15:46:36Z</time>
      </trkpt>
      <trkpt lat="46.15319" lon="4.4527">
        <ele>598.4</ele>
        <time>2025-09-07T15:46:37Z</time>
      </trkpt>
      <trkpt lat="46.15315" lon="4.45268">
        <ele>597.8</ele>
        <time>2025-09-07T15:46:38Z</time>
      </trkpt>
      <trkpt lat="46.1531" lon="4.45268">
        <ele>597</ele>
        <time>2025-09-07T15:46:39Z</time>
      </trkpt>
      <trkpt lat="46.15306" lon="4.45271">
        <ele>596.8</ele>
        <time>2025-09-07T15:46:40Z</time>
      </trkpt>
      <trkpt lat="46.15302" lon="4.45274">
        <ele>596.4</ele>
        <time>2025-09-07T15:46:41Z</time>
      </trkpt>
      <trkpt lat="46.15299" lon="4.45278">
        <ele>596.4</ele>
        <time>2025-09-07T15:46:42Z</time>
      </trkpt>
      <trkpt lat="46.15294" lon="4.45282">
        <ele>596.2</ele>
        <time>2025-09-07T15:46:43Z</time>
      </trkpt>
      <trkpt lat="46.1529" lon="4.45285">
        <ele>596.2</ele>
        <time>2025-09-07T15:46:44Z</time>
      </trkpt>
      <trkpt lat="46.15285" lon="4.45288">
        <ele>595.8</ele>
        <time>2025-09-07T15:46:45Z</time>
      </trkpt>
      <trkpt lat="46.15279" lon="4.45292">
        <ele>595.4</ele>
        <time>2025-09-07T15:46:46Z</time>
      </trkpt>
      <trkpt lat="46.15274" lon="4.45295">
        <ele>595.4</ele>
        <time>2025-09-07T15:46:47Z</time>
      </trkpt>
      <trkpt lat="46.15268" lon="4.45298">
        <ele>595.2</ele>
        <time>2025-09-07T15:46:48Z</time>
      </trkpt>
      <trkpt lat="46.15262" lon="4.45302">
        <ele>594.8</ele>
        <time>2025-09-07T15:46:49Z</time>
      </trkpt>
      <trkpt lat="46.15262" lon="4.45302">
        <ele>594.4</ele>
        <time>2025-09-07T15:46:50Z</time>
      </trkpt>
      <trkpt lat="46.15262" lon="4.45302">
        <ele>593.8</ele>
        <time>2025-09-07T15:46:51Z</time>
      </trkpt>
      <trkpt lat="46.15238" lon="4.45321">
        <ele>593</ele>
        <time>2025-09-07T15:46:53Z</time>
      </trkpt>
      <trkpt lat="46.15232" lon="4.45325">
        <ele>592.6</ele>
        <time>2025-09-07T15:46:54Z</time>
      </trkpt>
      <trkpt lat="46.15226" lon="4.45331">
        <ele>592.6</ele>
        <time>2025-09-07T15:46:55Z</time>
      </trkpt>
      <trkpt lat="46.1522" lon="4.45337">
        <ele>592.6</ele>
        <time>2025-09-07T15:46:56Z</time>
      </trkpt>
      <trkpt lat="46.15214" lon="4.45343">
        <ele>592.2</ele>
        <time>2025-09-07T15:46:57Z</time>
      </trkpt>
      <trkpt lat="46.15208" lon="4.45348">
        <ele>591.6</ele>
        <time>2025-09-07T15:46:58Z</time>
      </trkpt>
      <trkpt lat="46.15204" lon="4.45354">
        <ele>591</ele>
        <time>2025-09-07T15:46:59Z</time>
      </trkpt>
      <trkpt lat="46.15199" lon="4.45358">
        <ele>590.4</ele>
        <time>2025-09-07T15:47:00Z</time>
      </trkpt>
      <trkpt lat="46.15195" lon="4.45361">
        <ele>589.6</ele>
        <time>2025-09-07T15:47:01Z</time>
      </trkpt>
      <trkpt lat="46.15191" lon="4.45363">
        <ele>589.2</ele>
        <time>2025-09-07T15:47:02Z</time>
      </trkpt>
      <trkpt lat="46.1519" lon="4.45367">
        <ele>588.6</ele>
        <time>2025-09-07T15:47:03Z</time>
      </trkpt>
      <trkpt lat="46.15186" lon="4.45371">
        <ele>588.4</ele>
        <time>2025-09-07T15:47:04Z</time>
      </trkpt>
      <trkpt lat="46.15183" lon="4.45376">
        <ele>587.8</ele>
        <time>2025-09-07T15:47:05Z</time>
      </trkpt>
      <trkpt lat="46.1518" lon="4.45381">
        <ele>587.4</ele>
        <time>2025-09-07T15:47:06Z</time>
      </trkpt>
      <trkpt lat="46.15181" lon="4.45386">
        <ele>587.2</ele>
        <time>2025-09-07T15:47:07Z</time>
      </trkpt>
      <trkpt lat="46.15179" lon="4.45391">
        <ele>586.8</ele>
        <time>2025-09-07T15:47:08Z</time>
      </trkpt>
      <trkpt lat="46.15177" lon="4.45396">
        <ele>586.8</ele>
        <time>2025-09-07T15:47:09Z</time>
      </trkpt>
      <trkpt lat="46.15176" lon="4.45402">
        <ele>586.8</ele>
        <time>2025-09-07T15:47:10Z</time>
      </trkpt>
      <trkpt lat="46.15174" lon="4.45407">
        <ele>586.8</ele>
        <time>2025-09-07T15:47:11Z</time>
      </trkpt>
      <trkpt lat="46.15173" lon="4.45413">
        <ele>586.6</ele>
        <time>2025-09-07T15:47:12Z</time>
      </trkpt>
      <trkpt lat="46.15172" lon="4.4542">
        <ele>586.6</ele>
        <time>2025-09-07T15:47:13Z</time>
      </trkpt>
      <trkpt lat="46.1517" lon="4.45425">
        <ele>586.6</ele>
        <time>2025-09-07T15:47:14Z</time>
      </trkpt>
      <trkpt lat="46.15168" lon="4.45431">
        <ele>586.6</ele>
        <time>2025-09-07T15:47:15Z</time>
      </trkpt>
      <trkpt lat="46.15166" lon="4.45437">
        <ele>586.6</ele>
        <time>2025-09-07T15:47:16Z</time>
      </trkpt>
      <trkpt lat="46.15165" lon="4.45442">
        <ele>586.8</ele>
        <time>2025-09-07T15:47:17Z</time>
      </trkpt>
      <trkpt lat="46.15163" lon="4.45448">
        <ele>586.8</ele>
        <time>2025-09-07T15:47:18Z</time>
      </trkpt>
      <trkpt lat="46.1516" lon="4.45455">
        <ele>586.8</ele>
        <time>2025-09-07T15:47:19Z</time>
      </trkpt>
      <trkpt lat="46.15158" lon="4.4546">
        <ele>586.8</ele>
        <time>2025-09-07T15:47:20Z</time>
      </trkpt>
      <trkpt lat="46.15156" lon="4.45465">
        <ele>587.2</ele>
        <time>2025-09-07T15:47:21Z</time>
      </trkpt>
      <trkpt lat="46.15154" lon="4.45471">
        <ele>587.2</ele>
        <time>2025-09-07T15:47:22Z</time>
      </trkpt>
      <trkpt lat="46.15152" lon="4.45476">
        <ele>587.2</ele>
        <time>2025-09-07T15:47:23Z</time>
      </trkpt>
      <trkpt lat="46.1515" lon="4.45481">
        <ele>587.4</ele>
        <time>2025-09-07T15:47:24Z</time>
      </trkpt>
      <trkpt lat="46.15148" lon="4.45485">
        <ele>587.4</ele>
        <time>2025-09-07T15:47:25Z</time>
      </trkpt>
      <trkpt lat="46.15146" lon="4.45491">
        <ele>587.8</ele>
        <time>2025-09-07T15:47:26Z</time>
      </trkpt>
      <trkpt lat="46.15144" lon="4.45495">
        <ele>587.8</ele>
        <time>2025-09-07T15:47:27Z</time>
      </trkpt>
      <trkpt lat="46.15142" lon="4.45499">
        <ele>588.2</ele>
        <time>2025-09-07T15:47:28Z</time>
      </trkpt>
      <trkpt lat="46.15139" lon="4.45504">
        <ele>588.2</ele>
        <time>2025-09-07T15:47:29Z</time>
      </trkpt>
      <trkpt lat="46.15136" lon="4.45506">
        <ele>588.4</ele>
        <time>2025-09-07T15:47:30Z</time>
      </trkpt>
      <trkpt lat="46.15134" lon="4.4551">
        <ele>588.4</ele>
        <time>2025-09-07T15:47:31Z</time>
      </trkpt>
      <trkpt lat="46.15132" lon="4.45513">
        <ele>588.8</ele>
        <time>2025-09-07T15:47:32Z</time>
      </trkpt>
      <trkpt lat="46.1513" lon="4.45517">
        <ele>588.8</ele>
        <time>2025-09-07T15:47:33Z</time>
      </trkpt>
      <trkpt lat="46.15128" lon="4.45521">
        <ele>589</ele>
        <time>2025-09-07T15:47:34Z</time>
      </trkpt>
      <trkpt lat="46.15125" lon="4.45525">
        <ele>589</ele>
        <time>2025-09-07T15:47:35Z</time>
      </trkpt>
      <trkpt lat="46.15122" lon="4.45531">
        <ele>589</ele>
        <time>2025-09-07T15:47:36Z</time>
      </trkpt>
      <trkpt lat="46.15121" lon="4.45534">
        <ele>589.2</ele>
        <time>2025-09-07T15:47:37Z</time>
      </trkpt>
      <trkpt lat="46.15118" lon="4.45538">
        <ele>589.6</ele>
        <time>2025-09-07T15:47:38Z</time>
      </trkpt>
      <trkpt lat="46.15116" lon="4.45542">
        <ele>589.6</ele>
        <time>2025-09-07T15:47:39Z</time>
      </trkpt>
      <trkpt lat="46.15114" lon="4.45545">
        <ele>589.6</ele>
        <time>2025-09-07T15:47:40Z</time>
      </trkpt>
      <trkpt lat="46.15112" lon="4.45548">
        <ele>589.6</ele>
        <time>2025-09-07T15:47:41Z</time>
      </trkpt>
      <trkpt lat="46.1511" lon="4.45552">
        <ele>589.6</ele>
        <time>2025-09-07T15:47:42Z</time>
      </trkpt>
      <trkpt lat="46.15108" lon="4.45556">
        <ele>590</ele>
        <time>2025-09-07T15:47:43Z</time>
      </trkpt>
      <trkpt lat="46.15105" lon="4.45559">
        <ele>590</ele>
        <time>2025-09-07T15:47:44Z</time>
      </trkpt>
      <trkpt lat="46.15103" lon="4.45562">
        <ele>590.2</ele>
        <time>2025-09-07T15:47:45Z</time>
      </trkpt>
      <trkpt lat="46.15101" lon="4.45565">
        <ele>590.2</ele>
        <time>2025-09-07T15:47:46Z</time>
      </trkpt>
      <trkpt lat="46.15099" lon="4.45569">
        <ele>590.6</ele>
        <time>2025-09-07T15:47:47Z</time>
      </trkpt>
      <trkpt lat="46.15097" lon="4.45572">
        <ele>590.6</ele>
        <time>2025-09-07T15:47:48Z</time>
      </trkpt>
      <trkpt lat="46.15095" lon="4.45575">
        <ele>591</ele>
        <time>2025-09-07T15:47:49Z</time>
      </trkpt>
      <trkpt lat="46.15093" lon="4.45579">
        <ele>591</ele>
        <time>2025-09-07T15:47:50Z</time>
      </trkpt>
      <trkpt lat="46.15092" lon="4.45583">
        <ele>591.2</ele>
        <time>2025-09-07T15:47:51Z</time>
      </trkpt>
      <trkpt lat="46.1509" lon="4.45586">
        <ele>591.2</ele>
        <time>2025-09-07T15:47:52Z</time>
      </trkpt>
      <trkpt lat="46.15088" lon="4.45589">
        <ele>591.6</ele>
        <time>2025-09-07T15:47:53Z</time>
      </trkpt>
      <trkpt lat="46.15087" lon="4.45592">
        <ele>591.6</ele>
        <time>2025-09-07T15:47:54Z</time>
      </trkpt>
      <trkpt lat="46.15085" lon="4.45595">
        <ele>591.6</ele>
        <time>2025-09-07T15:47:55Z</time>
      </trkpt>
      <trkpt lat="46.15083" lon="4.45598">
        <ele>591.8</ele>
        <time>2025-09-07T15:47:56Z</time>
      </trkpt>
      <trkpt lat="46.15082" lon="4.45601">
        <ele>591.8</ele>
        <time>2025-09-07T15:47:57Z</time>
      </trkpt>
      <trkpt lat="46.15081" lon="4.45604">
        <ele>592</ele>
        <time>2025-09-07T15:47:58Z</time>
      </trkpt>
      <trkpt lat="46.1508" lon="4.45607">
        <ele>592</ele>
        <time>2025-09-07T15:47:59Z</time>
      </trkpt>
      <trkpt lat="46.1508" lon="4.45607">
        <ele>592.4</ele>
        <time>2025-09-07T15:48:00Z</time>
      </trkpt>
      <trkpt lat="46.15077" lon="4.45613">
        <ele>592.4</ele>
        <time>2025-09-07T15:48:01Z</time>
      </trkpt>
      <trkpt lat="46.15076" lon="4.45616">
        <ele>592.4</ele>
        <time>2025-09-07T15:48:02Z</time>
      </trkpt>
      <trkpt lat="46.15074" lon="4.45618">
        <ele>592.8</ele>
        <time>2025-09-07T15:48:03Z</time>
      </trkpt>
      <trkpt lat="46.15072" lon="4.45621">
        <ele>592.8</ele>
        <time>2025-09-07T15:48:04Z</time>
      </trkpt>
      <trkpt lat="46.1507" lon="4.45624">
        <ele>593</ele>
        <time>2025-09-07T15:48:05Z</time>
      </trkpt>
      <trkpt lat="46.15068" lon="4.45628">
        <ele>593</ele>
        <time>2025-09-07T15:48:06Z</time>
      </trkpt>
      <trkpt lat="46.15067" lon="4.45631">
        <ele>593</ele>
        <time>2025-09-07T15:48:07Z</time>
      </trkpt>
      <trkpt lat="46.15065" lon="4.45634">
        <ele>593</ele>
        <time>2025-09-07T15:48:08Z</time>
      </trkpt>
      <trkpt lat="46.15062" lon="4.45636">
        <ele>592.6</ele>
        <time>2025-09-07T15:48:09Z</time>
      </trkpt>
      <trkpt lat="46.15056" lon="4.45637">
        <ele>592.6</ele>
        <time>2025-09-07T15:48:10Z</time>
      </trkpt>
      <trkpt lat="46.15051" lon="4.45637">
        <ele>592.2</ele>
        <time>2025-09-07T15:48:11Z</time>
      </trkpt>
      <trkpt lat="46.15045" lon="4.45638">
        <ele>591.6</ele>
        <time>2025-09-07T15:48:12Z</time>
      </trkpt>
      <trkpt lat="46.15038" lon="4.4564">
        <ele>591</ele>
        <time>2025-09-07T15:48:13Z</time>
      </trkpt>
      <trkpt lat="46.15031" lon="4.45642">
        <ele>590.4</ele>
        <time>2025-09-07T15:48:14Z</time>
      </trkpt>
      <trkpt lat="46.15024" lon="4.45644">
        <ele>589.4</ele>
        <time>2025-09-07T15:48:15Z</time>
      </trkpt>
      <trkpt lat="46.15017" lon="4.45645">
        <ele>588.6</ele>
        <time>2025-09-07T15:48:16Z</time>
      </trkpt>
      <trkpt lat="46.15008" lon="4.45647">
        <ele>588</ele>
        <time>2025-09-07T15:48:17Z</time>
      </trkpt>
      <trkpt lat="46.15" lon="4.45649">
        <ele>587.2</ele>
        <time>2025-09-07T15:48:18Z</time>
      </trkpt>
      <trkpt lat="46.14992" lon="4.4565">
        <ele>586.8</ele>
        <time>2025-09-07T15:48:19Z</time>
      </trkpt>
      <trkpt lat="46.14985" lon="4.45651">
        <ele>586.4</ele>
        <time>2025-09-07T15:48:20Z</time>
      </trkpt>
      <trkpt lat="46.14977" lon="4.45653">
        <ele>586</ele>
        <time>2025-09-07T15:48:21Z</time>
      </trkpt>
      <trkpt lat="46.1497" lon="4.45654">
        <ele>585.8</ele>
        <time>2025-09-07T15:48:22Z</time>
      </trkpt>
      <trkpt lat="46.14962" lon="4.45656">
        <ele>585.4</ele>
        <time>2025-09-07T15:48:23Z</time>
      </trkpt>
      <trkpt lat="46.14955" lon="4.45656">
        <ele>585.4</ele>
        <time>2025-09-07T15:48:24Z</time>
      </trkpt>
      <trkpt lat="46.14947" lon="4.45657">
        <ele>585.2</ele>
        <time>2025-09-07T15:48:25Z</time>
      </trkpt>
      <trkpt lat="46.1494" lon="4.45658">
        <ele>584.8</ele>
        <time>2025-09-07T15:48:26Z</time>
      </trkpt>
      <trkpt lat="46.14935" lon="4.45657">
        <ele>584.8</ele>
        <time>2025-09-07T15:48:27Z</time>
      </trkpt>
      <trkpt lat="46.14931" lon="4.45655">
        <ele>584.4</ele>
        <time>2025-09-07T15:48:28Z</time>
      </trkpt>
      <trkpt lat="46.14929" lon="4.45651">
        <ele>584.4</ele>
        <time>2025-09-07T15:48:29Z</time>
      </trkpt>
      <trkpt lat="46.14928" lon="4.45647">
        <ele>584.4</ele>
        <time>2025-09-07T15:48:30Z</time>
      </trkpt>
      <trkpt lat="46.14928" lon="4.45643">
        <ele>584</ele>
        <time>2025-09-07T15:48:31Z</time>
      </trkpt>
      <trkpt lat="46.14928" lon="4.45642">
        <ele>583.8</ele>
        <time>2025-09-07T15:48:32Z</time>
      </trkpt>
      <trkpt lat="46.14928" lon="4.45637">
        <ele>583.8</ele>
        <time>2025-09-07T15:48:33Z</time>
      </trkpt>
      <trkpt lat="46.14928" lon="4.45631">
        <ele>583.4</ele>
        <time>2025-09-07T15:48:34Z</time>
      </trkpt>
      <trkpt lat="46.14928" lon="4.45624">
        <ele>583</ele>
        <time>2025-09-07T15:48:35Z</time>
      </trkpt>
      <trkpt lat="46.14928" lon="4.45616">
        <ele>582.6</ele>
        <time>2025-09-07T15:48:36Z</time>
      </trkpt>
      <trkpt lat="46.14929" lon="4.45608">
        <ele>582.2</ele>
        <time>2025-09-07T15:48:37Z</time>
      </trkpt>
      <trkpt lat="46.14924" lon="4.45602">
        <ele>581.6</ele>
        <time>2025-09-07T15:48:38Z</time>
      </trkpt>
      <trkpt lat="46.1492" lon="4.45597">
        <ele>581</ele>
        <time>2025-09-07T15:48:39Z</time>
      </trkpt>
      <trkpt lat="46.14917" lon="4.45594">
        <ele>580.6</ele>
        <time>2025-09-07T15:48:40Z</time>
      </trkpt>
      <trkpt lat="46.14914" lon="4.45592">
        <ele>580.2</ele>
        <time>2025-09-07T15:48:41Z</time>
      </trkpt>
      <trkpt lat="46.1491" lon="4.45589">
        <ele>580</ele>
        <time>2025-09-07T15:48:42Z</time>
      </trkpt>
      <trkpt lat="46.14906" lon="4.45587">
        <ele>579.8</ele>
        <time>2025-09-07T15:48:43Z</time>
      </trkpt>
      <trkpt lat="46.14904" lon="4.45581">
        <ele>579.8</ele>
        <time>2025-09-07T15:48:44Z</time>
      </trkpt>
      <trkpt lat="46.14902" lon="4.45576">
        <ele>579.4</ele>
        <time>2025-09-07T15:48:45Z</time>
      </trkpt>
      <trkpt lat="46.14899" lon="4.45571">
        <ele>579.2</ele>
        <time>2025-09-07T15:48:46Z</time>
      </trkpt>
      <trkpt lat="46.14896" lon="4.45567">
        <ele>579.2</ele>
        <time>2025-09-07T15:48:47Z</time>
      </trkpt>
      <trkpt lat="46.14895" lon="4.45565">
        <ele>578.8</ele>
        <time>2025-09-07T15:48:48Z</time>
      </trkpt>
      <trkpt lat="46.14893" lon="4.45562">
        <ele>578.4</ele>
        <time>2025-09-07T15:48:49Z</time>
      </trkpt>
      <trkpt lat="46.14892" lon="4.45559">
        <ele>578.2</ele>
        <time>2025-09-07T15:48:50Z</time>
      </trkpt>
      <trkpt lat="46.14891" lon="4.45555">
        <ele>578.2</ele>
        <time>2025-09-07T15:48:51Z</time>
      </trkpt>
      <trkpt lat="46.14891" lon="4.45551">
        <ele>577.8</ele>
        <time>2025-09-07T15:48:52Z</time>
      </trkpt>
      <trkpt lat="46.14891" lon="4.45547">
        <ele>577.6</ele>
        <time>2025-09-07T15:48:53Z</time>
      </trkpt>
      <trkpt lat="46.14891" lon="4.45541">
        <ele>577.2</ele>
        <time>2025-09-07T15:48:54Z</time>
      </trkpt>
      <trkpt lat="46.14892" lon="4.45533">
        <ele>576.6</ele>
        <time>2025-09-07T15:48:55Z</time>
      </trkpt>
      <trkpt lat="46.14892" lon="4.45524">
        <ele>576</ele>
        <time>2025-09-07T15:48:56Z</time>
      </trkpt>
      <trkpt lat="46.14893" lon="4.45516">
        <ele>575.2</ele>
        <time>2025-09-07T15:48:57Z</time>
      </trkpt>
      <trkpt lat="46.14895" lon="4.455">
        <ele>574.4</ele>
        <time>2025-09-07T15:48:58Z</time>
      </trkpt>
      <trkpt lat="46.14895" lon="4.455">
        <ele>573.6</ele>
        <time>2025-09-07T15:48:59Z</time>
      </trkpt>
      <trkpt lat="46.14896" lon="4.45493">
        <ele>572.8</ele>
        <time>2025-09-07T15:49:00Z</time>
      </trkpt>
      <trkpt lat="46.14896" lon="4.45487">
        <ele>572</ele>
        <time>2025-09-07T15:49:01Z</time>
      </trkpt>
      <trkpt lat="46.14897" lon="4.45482">
        <ele>571.4</ele>
        <time>2025-09-07T15:49:02Z</time>
      </trkpt>
      <trkpt lat="46.14899" lon="4.45477">
        <ele>570.8</ele>
        <time>2025-09-07T15:49:03Z</time>
      </trkpt>
      <trkpt lat="46.14901" lon="4.45472">
        <ele>570.2</ele>
        <time>2025-09-07T15:49:04Z</time>
      </trkpt>
      <trkpt lat="46.14903" lon="4.45468">
        <ele>569.6</ele>
        <time>2025-09-07T15:49:05Z</time>
      </trkpt>
      <trkpt lat="46.14905" lon="4.45464">
        <ele>569</ele>
        <time>2025-09-07T15:49:06Z</time>
      </trkpt>
      <trkpt lat="46.14905" lon="4.45461">
        <ele>568.4</ele>
        <time>2025-09-07T15:49:07Z</time>
      </trkpt>
      <trkpt lat="46.14907" lon="4.45459">
        <ele>568.2</ele>
        <time>2025-09-07T15:49:08Z</time>
      </trkpt>
      <trkpt lat="46.14908" lon="4.45458">
        <ele>567.8</ele>
        <time>2025-09-07T15:49:09Z</time>
      </trkpt>
      <trkpt lat="46.1491" lon="4.45458">
        <ele>567.8</ele>
        <time>2025-09-07T15:49:10Z</time>
      </trkpt>
      <trkpt lat="46.14912" lon="4.45458">
        <ele>567.4</ele>
        <time>2025-09-07T15:49:11Z</time>
      </trkpt>
      <trkpt lat="46.14915" lon="4.45459">
        <ele>567.4</ele>
        <time>2025-09-07T15:49:12Z</time>
      </trkpt>
      <trkpt lat="46.14917" lon="4.4546">
        <ele>567</ele>
        <time>2025-09-07T15:49:13Z</time>
      </trkpt>
      <trkpt lat="46.14919" lon="4.4546">
        <ele>567</ele>
        <time>2025-09-07T15:49:14Z</time>
      </trkpt>
      <trkpt lat="46.14922" lon="4.4546">
        <ele>567</ele>
        <time>2025-09-07T15:49:15Z</time>
      </trkpt>
      <trkpt lat="46.14926" lon="4.45459">
        <ele>567.2</ele>
        <time>2025-09-07T15:49:16Z</time>
      </trkpt>
      <trkpt lat="46.14929" lon="4.45458">
        <ele>567.2</ele>
        <time>2025-09-07T15:49:17Z</time>
      </trkpt>
      <trkpt lat="46.14932" lon="4.45457">
        <ele>567.2</ele>
        <time>2025-09-07T15:49:18Z</time>
      </trkpt>
      <trkpt lat="46.14936" lon="4.45456">
        <ele>566.8</ele>
        <time>2025-09-07T15:49:19Z</time>
      </trkpt>
      <trkpt lat="46.14939" lon="4.45455">
        <ele>566.8</ele>
        <time>2025-09-07T15:49:20Z</time>
      </trkpt>
      <trkpt lat="46.14943" lon="4.45453">
        <ele>566.6</ele>
        <time>2025-09-07T15:49:21Z</time>
      </trkpt>
      <trkpt lat="46.14946" lon="4.45452">
        <ele>566.6</ele>
        <time>2025-09-07T15:49:22Z</time>
      </trkpt>
      <trkpt lat="46.14949" lon="4.4545">
        <ele>566.2</ele>
        <time>2025-09-07T15:49:23Z</time>
      </trkpt>
      <trkpt lat="46.14953" lon="4.45448">
        <ele>566</ele>
        <time>2025-09-07T15:49:24Z</time>
      </trkpt>
      <trkpt lat="46.14956" lon="4.45447">
        <ele>566.2</ele>
        <time>2025-09-07T15:49:25Z</time>
      </trkpt>
      <trkpt lat="46.14959" lon="4.45445">
        <ele>566</ele>
        <time>2025-09-07T15:49:26Z</time>
      </trkpt>
      <trkpt lat="46.14961" lon="4.45443">
        <ele>566.2</ele>
        <time>2025-09-07T15:49:27Z</time>
      </trkpt>
      <trkpt lat="46.14964" lon="4.45441">
        <ele>566.2</ele>
        <time>2025-09-07T15:49:28Z</time>
      </trkpt>
      <trkpt lat="46.14967" lon="4.4544">
        <ele>566.2</ele>
        <time>2025-09-07T15:49:29Z</time>
      </trkpt>
      <trkpt lat="46.1497" lon="4.4544">
        <ele>566.4</ele>
        <time>2025-09-07T15:49:30Z</time>
      </trkpt>
      <trkpt lat="46.14973" lon="4.45439">
        <ele>566.4</ele>
        <time>2025-09-07T15:49:31Z</time>
      </trkpt>
      <trkpt lat="46.14976" lon="4.45439">
        <ele>566.4</ele>
        <time>2025-09-07T15:49:32Z</time>
      </trkpt>
      <trkpt lat="46.14979" lon="4.45439">
        <ele>566.4</ele>
        <time>2025-09-07T15:49:33Z</time>
      </trkpt>
      <trkpt lat="46.14981" lon="4.45438">
        <ele>566.4</ele>
        <time>2025-09-07T15:49:34Z</time>
      </trkpt>
      <trkpt lat="46.14984" lon="4.45437">
        <ele>566.6</ele>
        <time>2025-09-07T15:49:35Z</time>
      </trkpt>
      <trkpt lat="46.14986" lon="4.45436">
        <ele>566.6</ele>
        <time>2025-09-07T15:49:36Z</time>
      </trkpt>
      <trkpt lat="46.14989" lon="4.45436">
        <ele>566.6</ele>
        <time>2025-09-07T15:49:37Z</time>
      </trkpt>
      <trkpt lat="46.14991" lon="4.45435">
        <ele>567</ele>
        <time>2025-09-07T15:49:38Z</time>
      </trkpt>
      <trkpt lat="46.14992" lon="4.45435">
        <ele>567.2</ele>
        <time>2025-09-07T15:49:39Z</time>
      </trkpt>
      <trkpt lat="46.14992" lon="4.45435">
        <ele>567.4</ele>
        <time>2025-09-07T15:49:40Z</time>
      </trkpt>
      <trkpt lat="46.14992" lon="4.45435">
        <ele>567.4</ele>
        <time>2025-09-07T15:49:41Z</time>
      </trkpt>
      <trkpt lat="46.14993" lon="4.45437">
        <ele>567.2</ele>
        <time>2025-09-07T15:50:14Z</time>
      </trkpt>
      <trkpt lat="46.14993" lon="4.45435">
        <ele>567.2</ele>
        <time>2025-09-07T15:50:15Z</time>
      </trkpt>
      <trkpt lat="46.14993" lon="4.45434">
        <ele>567.2</ele>
        <time>2025-09-07T15:50:16Z</time>
      </trkpt>
      <trkpt lat="46.14993" lon="4.45433">
        <ele>567.2</ele>
        <time>2025-09-07T15:50:17Z</time>
      </trkpt>
      <trkpt lat="46.14993" lon="4.45432">
        <ele>567.2</ele>
        <time>2025-09-07T15:50:18Z</time>
      </trkpt>
      <trkpt lat="46.14993" lon="4.45431">
        <ele>567.2</ele>
        <time>2025-09-07T15:50:19Z</time>
      </trkpt>
      <trkpt lat="46.14993" lon="4.4543">
        <ele>567.2</ele>
        <time>2025-09-07T15:50:20Z</time>
      </trkpt>
      <trkpt lat="46.14993" lon="4.45431">
        <ele>567.2</ele>
        <time>2025-09-07T15:50:21Z</time>
      </trkpt>
      <trkpt lat="46.14993" lon="4.45431">
        <ele>567.2</ele>
        <time>2025-09-07T15:50:22Z</time>
      </trkpt>
    </trkseg>
  </trk>
</gpx>